<?xml version="1.0" encoding="UTF-8" standalone="no" ?>
<gpx xmlns="http://www.topografix.com/GPX/1/1" xmlns:xsi="http://www.w3.org/2001/XMLSchema-instance" xsi:schemaLocation="http://www.topografix.com/GPX/1/1 http://www.topografix.com/GPX/1/1/gpx.xsd" version="1.1" creator="VisuGPX - https://www.visugpx.com">
  <metadata>
    <name>pont du bourg</name>
    <desc><![CDATA[sortie rs g1]]></desc>
  </metadata>
  <wpt lat="47.09003" lon="5.48516">
    <ele>241</ele>
  </wpt>
  <trk>
    <name><![CDATA[pont du bourg_1]]></name>
    <trkseg>
      <trkpt lat="47.09003" lon="5.48516">
        <ele>241</ele>
        <time>2012-09-21T11:12:02Z</time>
      </trkpt>
      <trkpt lat="47.08995" lon="5.48531">
        <ele>241</ele>
        <time>2012-09-21T11:12:09Z</time>
      </trkpt>
      <trkpt lat="47.08995" lon="5.48518">
        <ele>241</ele>
        <time>2012-09-21T11:12:17Z</time>
      </trkpt>
      <trkpt lat="47.08994" lon="5.48504">
        <ele>229</ele>
        <time>2012-09-21T11:12:29Z</time>
      </trkpt>
      <trkpt lat="47.08988" lon="5.48494">
        <ele>229</ele>
        <time>2012-09-21T11:12:33Z</time>
      </trkpt>
      <trkpt lat="47.0898" lon="5.48478">
        <ele>222</ele>
        <time>2012-09-21T11:12:38Z</time>
      </trkpt>
      <trkpt lat="47.0897" lon="5.48487">
        <ele>228</ele>
        <time>2012-09-21T11:12:41Z</time>
      </trkpt>
      <trkpt lat="47.08963" lon="5.48501">
        <ele>228</ele>
        <time>2012-09-21T11:12:44Z</time>
      </trkpt>
      <trkpt lat="47.08953" lon="5.48497">
        <ele>228</ele>
        <time>2012-09-21T11:12:48Z</time>
      </trkpt>
      <trkpt lat="47.08945" lon="5.48488">
        <ele>228</ele>
        <time>2012-09-21T11:12:51Z</time>
      </trkpt>
      <trkpt lat="47.08937" lon="5.48475">
        <ele>228</ele>
        <time>2012-09-21T11:12:54Z</time>
      </trkpt>
      <trkpt lat="47.08928" lon="5.48462">
        <ele>228</ele>
        <time>2012-09-21T11:12:57Z</time>
      </trkpt>
      <trkpt lat="47.08921" lon="5.48448">
        <ele>228</ele>
        <time>2012-09-21T11:13:00Z</time>
      </trkpt>
      <trkpt lat="47.08912" lon="5.48435">
        <ele>228</ele>
        <time>2012-09-21T11:13:03Z</time>
      </trkpt>
      <trkpt lat="47.08903" lon="5.48422">
        <ele>228</ele>
        <time>2012-09-21T11:13:06Z</time>
      </trkpt>
      <trkpt lat="47.08896" lon="5.48411">
        <ele>223</ele>
        <time>2012-09-21T11:13:08Z</time>
      </trkpt>
      <trkpt lat="47.08889" lon="5.48401">
        <ele>223</ele>
        <time>2012-09-21T11:13:10Z</time>
      </trkpt>
      <trkpt lat="47.08883" lon="5.4839">
        <ele>223</ele>
        <time>2012-09-21T11:13:12Z</time>
      </trkpt>
      <trkpt lat="47.08876" lon="5.48378">
        <ele>223</ele>
        <time>2012-09-21T11:13:14Z</time>
      </trkpt>
      <trkpt lat="47.08869" lon="5.48368">
        <ele>223</ele>
        <time>2012-09-21T11:13:16Z</time>
      </trkpt>
      <trkpt lat="47.08862" lon="5.48356">
        <ele>223</ele>
        <time>2012-09-21T11:13:18Z</time>
      </trkpt>
      <trkpt lat="47.08856" lon="5.48346">
        <ele>223</ele>
        <time>2012-09-21T11:13:20Z</time>
      </trkpt>
      <trkpt lat="47.08849" lon="5.48336">
        <ele>223</ele>
        <time>2012-09-21T11:13:22Z</time>
      </trkpt>
      <trkpt lat="47.08843" lon="5.48326">
        <ele>223</ele>
        <time>2012-09-21T11:13:24Z</time>
      </trkpt>
      <trkpt lat="47.08837" lon="5.48316">
        <ele>223</ele>
        <time>2012-09-21T11:13:26Z</time>
      </trkpt>
      <trkpt lat="47.08832" lon="5.48304">
        <ele>223</ele>
        <time>2012-09-21T11:13:28Z</time>
      </trkpt>
      <trkpt lat="47.08826" lon="5.48292">
        <ele>223</ele>
        <time>2012-09-21T11:13:30Z</time>
      </trkpt>
      <trkpt lat="47.08819" lon="5.48281">
        <ele>223</ele>
        <time>2012-09-21T11:13:32Z</time>
      </trkpt>
      <trkpt lat="47.08813" lon="5.4827">
        <ele>223</ele>
        <time>2012-09-21T11:13:34Z</time>
      </trkpt>
      <trkpt lat="47.08805" lon="5.48258">
        <ele>218</ele>
        <time>2012-09-21T11:13:36Z</time>
      </trkpt>
      <trkpt lat="47.08798" lon="5.48247">
        <ele>218</ele>
        <time>2012-09-21T11:13:38Z</time>
      </trkpt>
      <trkpt lat="47.08786" lon="5.4824">
        <ele>218</ele>
        <time>2012-09-21T11:13:41Z</time>
      </trkpt>
      <trkpt lat="47.08775" lon="5.48248">
        <ele>218</ele>
        <time>2012-09-21T11:13:43Z</time>
      </trkpt>
      <trkpt lat="47.08765" lon="5.48265">
        <ele>218</ele>
        <time>2012-09-21T11:13:45Z</time>
      </trkpt>
      <trkpt lat="47.08754" lon="5.48282">
        <ele>218</ele>
        <time>2012-09-21T11:13:47Z</time>
      </trkpt>
      <trkpt lat="47.08741" lon="5.48299">
        <ele>218</ele>
        <time>2012-09-21T11:13:49Z</time>
      </trkpt>
      <trkpt lat="47.0873" lon="5.48317">
        <ele>218</ele>
        <time>2012-09-21T11:13:51Z</time>
      </trkpt>
      <trkpt lat="47.08718" lon="5.48333">
        <ele>218</ele>
        <time>2012-09-21T11:13:53Z</time>
      </trkpt>
      <trkpt lat="47.08707" lon="5.48346">
        <ele>218</ele>
        <time>2012-09-21T11:13:55Z</time>
      </trkpt>
      <trkpt lat="47.08699" lon="5.48357">
        <ele>218</ele>
        <time>2012-09-21T11:13:57Z</time>
      </trkpt>
      <trkpt lat="47.08692" lon="5.48368">
        <ele>218</ele>
        <time>2012-09-21T11:13:59Z</time>
      </trkpt>
      <trkpt lat="47.08684" lon="5.48378">
        <ele>218</ele>
        <time>2012-09-21T11:14:01Z</time>
      </trkpt>
      <trkpt lat="47.08676" lon="5.48387">
        <ele>218</ele>
        <time>2012-09-21T11:14:03Z</time>
      </trkpt>
      <trkpt lat="47.08669" lon="5.48397">
        <ele>218</ele>
        <time>2012-09-21T11:14:07Z</time>
      </trkpt>
      <trkpt lat="47.08673" lon="5.4841">
        <ele>218</ele>
        <time>2012-09-21T11:14:14Z</time>
      </trkpt>
      <trkpt lat="47.08673" lon="5.48428">
        <ele>225</ele>
        <time>2012-09-21T11:14:19Z</time>
      </trkpt>
      <trkpt lat="47.08666" lon="5.48448">
        <ele>225</ele>
        <time>2012-09-21T11:14:21Z</time>
      </trkpt>
      <trkpt lat="47.08662" lon="5.48461">
        <ele>225</ele>
        <time>2012-09-21T11:14:22Z</time>
      </trkpt>
      <trkpt lat="47.08659" lon="5.48474">
        <ele>225</ele>
        <time>2012-09-21T11:14:23Z</time>
      </trkpt>
      <trkpt lat="47.08656" lon="5.48486">
        <ele>225</ele>
        <time>2012-09-21T11:14:24Z</time>
      </trkpt>
      <trkpt lat="47.08653" lon="5.48499">
        <ele>225</ele>
        <time>2012-09-21T11:14:25Z</time>
      </trkpt>
      <trkpt lat="47.08649" lon="5.48512">
        <ele>225</ele>
        <time>2012-09-21T11:14:26Z</time>
      </trkpt>
      <trkpt lat="47.08646" lon="5.48528">
        <ele>225</ele>
        <time>2012-09-21T11:14:27Z</time>
      </trkpt>
      <trkpt lat="47.08637" lon="5.4855">
        <ele>225</ele>
        <time>2012-09-21T11:14:29Z</time>
      </trkpt>
      <trkpt lat="47.08629" lon="5.48558">
        <ele>220</ele>
        <time>2012-09-21T11:14:30Z</time>
      </trkpt>
      <trkpt lat="47.0862" lon="5.48564">
        <ele>220</ele>
        <time>2012-09-21T11:14:31Z</time>
      </trkpt>
      <trkpt lat="47.0861" lon="5.48569">
        <ele>220</ele>
        <time>2012-09-21T11:14:32Z</time>
      </trkpt>
      <trkpt lat="47.086" lon="5.48573">
        <ele>220</ele>
        <time>2012-09-21T11:14:33Z</time>
      </trkpt>
      <trkpt lat="47.0859" lon="5.48577">
        <ele>220</ele>
        <time>2012-09-21T11:14:34Z</time>
      </trkpt>
      <trkpt lat="47.08581" lon="5.48581">
        <ele>227</ele>
        <time>2012-09-21T11:14:35Z</time>
      </trkpt>
      <trkpt lat="47.08565" lon="5.48588">
        <ele>227</ele>
        <time>2012-09-21T11:14:37Z</time>
      </trkpt>
      <trkpt lat="47.08556" lon="5.48593">
        <ele>227</ele>
        <time>2012-09-21T11:14:38Z</time>
      </trkpt>
      <trkpt lat="47.08543" lon="5.48603">
        <ele>227</ele>
        <time>2012-09-21T11:14:40Z</time>
      </trkpt>
      <trkpt lat="47.08534" lon="5.48612">
        <ele>227</ele>
        <time>2012-09-21T11:14:42Z</time>
      </trkpt>
      <trkpt lat="47.08524" lon="5.48618">
        <ele>216</ele>
        <time>2012-09-21T11:14:45Z</time>
      </trkpt>
      <trkpt lat="47.0853" lon="5.48632">
        <ele>207</ele>
        <time>2012-09-21T11:14:50Z</time>
      </trkpt>
      <trkpt lat="47.08538" lon="5.4864">
        <ele>207</ele>
        <time>2012-09-21T11:14:52Z</time>
      </trkpt>
      <trkpt lat="47.08545" lon="5.4865">
        <ele>207</ele>
        <time>2012-09-21T11:14:54Z</time>
      </trkpt>
      <trkpt lat="47.08552" lon="5.4866">
        <ele>207</ele>
        <time>2012-09-21T11:14:56Z</time>
      </trkpt>
      <trkpt lat="47.08565" lon="5.48662">
        <ele>202</ele>
        <time>2012-09-21T11:14:59Z</time>
      </trkpt>
      <trkpt lat="47.08574" lon="5.48683">
        <ele>202</ele>
        <time>2012-09-21T11:15:02Z</time>
      </trkpt>
      <trkpt lat="47.08579" lon="5.48701">
        <ele>202</ele>
        <time>2012-09-21T11:15:04Z</time>
      </trkpt>
      <trkpt lat="47.08585" lon="5.48713">
        <ele>202</ele>
        <time>2012-09-21T11:15:06Z</time>
      </trkpt>
      <trkpt lat="47.08592" lon="5.48725">
        <ele>202</ele>
        <time>2012-09-21T11:15:08Z</time>
      </trkpt>
      <trkpt lat="47.08599" lon="5.48736">
        <ele>202</ele>
        <time>2012-09-21T11:15:10Z</time>
      </trkpt>
      <trkpt lat="47.08605" lon="5.4875">
        <ele>202</ele>
        <time>2012-09-21T11:15:12Z</time>
      </trkpt>
      <trkpt lat="47.08609" lon="5.48765">
        <ele>202</ele>
        <time>2012-09-21T11:15:14Z</time>
      </trkpt>
      <trkpt lat="47.08614" lon="5.48777">
        <ele>202</ele>
        <time>2012-09-21T11:15:16Z</time>
      </trkpt>
      <trkpt lat="47.08619" lon="5.4879">
        <ele>202</ele>
        <time>2012-09-21T11:15:18Z</time>
      </trkpt>
      <trkpt lat="47.08626" lon="5.48807">
        <ele>202</ele>
        <time>2012-09-21T11:15:21Z</time>
      </trkpt>
      <trkpt lat="47.08632" lon="5.48818">
        <ele>202</ele>
        <time>2012-09-21T11:15:23Z</time>
      </trkpt>
      <trkpt lat="47.08638" lon="5.48828">
        <ele>202</ele>
        <time>2012-09-21T11:15:25Z</time>
      </trkpt>
      <trkpt lat="47.08643" lon="5.48842">
        <ele>202</ele>
        <time>2012-09-21T11:15:27Z</time>
      </trkpt>
      <trkpt lat="47.08649" lon="5.48855">
        <ele>202</ele>
        <time>2012-09-21T11:15:29Z</time>
      </trkpt>
      <trkpt lat="47.08655" lon="5.48868">
        <ele>202</ele>
        <time>2012-09-21T11:15:31Z</time>
      </trkpt>
      <trkpt lat="47.0866" lon="5.48881">
        <ele>202</ele>
        <time>2012-09-21T11:15:33Z</time>
      </trkpt>
      <trkpt lat="47.08665" lon="5.48897">
        <ele>202</ele>
        <time>2012-09-21T11:15:35Z</time>
      </trkpt>
      <trkpt lat="47.08672" lon="5.48911">
        <ele>202</ele>
        <time>2012-09-21T11:15:37Z</time>
      </trkpt>
      <trkpt lat="47.08676" lon="5.48927">
        <ele>202</ele>
        <time>2012-09-21T11:15:39Z</time>
      </trkpt>
      <trkpt lat="47.08683" lon="5.48942">
        <ele>202</ele>
        <time>2012-09-21T11:15:41Z</time>
      </trkpt>
      <trkpt lat="47.08688" lon="5.48957">
        <ele>202</ele>
        <time>2012-09-21T11:15:43Z</time>
      </trkpt>
      <trkpt lat="47.08695" lon="5.4897">
        <ele>202</ele>
        <time>2012-09-21T11:15:45Z</time>
      </trkpt>
      <trkpt lat="47.087" lon="5.48983">
        <ele>202</ele>
        <time>2012-09-21T11:15:47Z</time>
      </trkpt>
      <trkpt lat="47.08706" lon="5.48996">
        <ele>202</ele>
        <time>2012-09-21T11:15:49Z</time>
      </trkpt>
      <trkpt lat="47.08711" lon="5.4901">
        <ele>202</ele>
        <time>2012-09-21T11:15:51Z</time>
      </trkpt>
      <trkpt lat="47.08715" lon="5.49024">
        <ele>202</ele>
        <time>2012-09-21T11:15:53Z</time>
      </trkpt>
      <trkpt lat="47.0872" lon="5.49039">
        <ele>202</ele>
        <time>2012-09-21T11:15:55Z</time>
      </trkpt>
      <trkpt lat="47.08727" lon="5.49051">
        <ele>202</ele>
        <time>2012-09-21T11:15:57Z</time>
      </trkpt>
      <trkpt lat="47.08732" lon="5.49065">
        <ele>202</ele>
        <time>2012-09-21T11:15:59Z</time>
      </trkpt>
      <trkpt lat="47.08738" lon="5.49079">
        <ele>202</ele>
        <time>2012-09-21T11:16:01Z</time>
      </trkpt>
      <trkpt lat="47.08745" lon="5.49093">
        <ele>202</ele>
        <time>2012-09-21T11:16:03Z</time>
      </trkpt>
      <trkpt lat="47.08753" lon="5.49105">
        <ele>202</ele>
        <time>2012-09-21T11:16:05Z</time>
      </trkpt>
      <trkpt lat="47.08761" lon="5.49117">
        <ele>202</ele>
        <time>2012-09-21T11:16:07Z</time>
      </trkpt>
      <trkpt lat="47.08768" lon="5.49128">
        <ele>202</ele>
        <time>2012-09-21T11:16:09Z</time>
      </trkpt>
      <trkpt lat="47.08778" lon="5.49137">
        <ele>202</ele>
        <time>2012-09-21T11:16:11Z</time>
      </trkpt>
      <trkpt lat="47.08787" lon="5.49146">
        <ele>202</ele>
        <time>2012-09-21T11:16:13Z</time>
      </trkpt>
      <trkpt lat="47.08796" lon="5.49153">
        <ele>202</ele>
        <time>2012-09-21T11:16:15Z</time>
      </trkpt>
      <trkpt lat="47.08805" lon="5.49159">
        <ele>202</ele>
        <time>2012-09-21T11:16:17Z</time>
      </trkpt>
      <trkpt lat="47.08816" lon="5.49164">
        <ele>202</ele>
        <time>2012-09-21T11:16:19Z</time>
      </trkpt>
      <trkpt lat="47.08826" lon="5.49171">
        <ele>202</ele>
        <time>2012-09-21T11:16:21Z</time>
      </trkpt>
      <trkpt lat="47.08835" lon="5.49176">
        <ele>202</ele>
        <time>2012-09-21T11:16:23Z</time>
      </trkpt>
      <trkpt lat="47.08845" lon="5.49182">
        <ele>202</ele>
        <time>2012-09-21T11:16:25Z</time>
      </trkpt>
      <trkpt lat="47.08851" lon="5.49193">
        <ele>202</ele>
        <time>2012-09-21T11:16:27Z</time>
      </trkpt>
      <trkpt lat="47.08858" lon="5.49205">
        <ele>208</ele>
        <time>2012-09-21T11:16:29Z</time>
      </trkpt>
      <trkpt lat="47.08865" lon="5.49216">
        <ele>208</ele>
        <time>2012-09-21T11:16:31Z</time>
      </trkpt>
      <trkpt lat="47.08872" lon="5.49229">
        <ele>208</ele>
        <time>2012-09-21T11:16:33Z</time>
      </trkpt>
      <trkpt lat="47.08876" lon="5.49243">
        <ele>208</ele>
        <time>2012-09-21T11:16:35Z</time>
      </trkpt>
      <trkpt lat="47.08878" lon="5.49258">
        <ele>208</ele>
        <time>2012-09-21T11:16:37Z</time>
      </trkpt>
      <trkpt lat="47.0887" lon="5.4927">
        <ele>208</ele>
        <time>2012-09-21T11:16:40Z</time>
      </trkpt>
      <trkpt lat="47.08863" lon="5.49279">
        <ele>208</ele>
        <time>2012-09-21T11:16:43Z</time>
      </trkpt>
      <trkpt lat="47.08868" lon="5.49297">
        <ele>208</ele>
        <time>2012-09-21T11:16:46Z</time>
      </trkpt>
      <trkpt lat="47.08875" lon="5.49313">
        <ele>208</ele>
        <time>2012-09-21T11:16:48Z</time>
      </trkpt>
      <trkpt lat="47.08878" lon="5.4933">
        <ele>208</ele>
        <time>2012-09-21T11:16:50Z</time>
      </trkpt>
      <trkpt lat="47.08882" lon="5.49347">
        <ele>208</ele>
        <time>2012-09-21T11:16:52Z</time>
      </trkpt>
      <trkpt lat="47.08886" lon="5.49361">
        <ele>208</ele>
        <time>2012-09-21T11:16:54Z</time>
      </trkpt>
      <trkpt lat="47.08891" lon="5.49376">
        <ele>208</ele>
        <time>2012-09-21T11:16:56Z</time>
      </trkpt>
      <trkpt lat="47.08894" lon="5.49388">
        <ele>208</ele>
        <time>2012-09-21T11:16:58Z</time>
      </trkpt>
      <trkpt lat="47.08897" lon="5.49403">
        <ele>208</ele>
        <time>2012-09-21T11:17:01Z</time>
      </trkpt>
      <trkpt lat="47.08896" lon="5.49417">
        <ele>208</ele>
        <time>2012-09-21T11:17:04Z</time>
      </trkpt>
      <trkpt lat="47.08886" lon="5.49425">
        <ele>203</ele>
        <time>2012-09-21T11:17:07Z</time>
      </trkpt>
      <trkpt lat="47.08878" lon="5.49432">
        <ele>203</ele>
        <time>2012-09-21T11:17:09Z</time>
      </trkpt>
      <trkpt lat="47.08868" lon="5.49438">
        <ele>203</ele>
        <time>2012-09-21T11:17:11Z</time>
      </trkpt>
      <trkpt lat="47.0886" lon="5.49444">
        <ele>203</ele>
        <time>2012-09-21T11:17:13Z</time>
      </trkpt>
      <trkpt lat="47.08851" lon="5.49449">
        <ele>203</ele>
        <time>2012-09-21T11:17:15Z</time>
      </trkpt>
      <trkpt lat="47.08842" lon="5.49455">
        <ele>203</ele>
        <time>2012-09-21T11:17:17Z</time>
      </trkpt>
      <trkpt lat="47.08834" lon="5.4946">
        <ele>203</ele>
        <time>2012-09-21T11:17:19Z</time>
      </trkpt>
      <trkpt lat="47.08825" lon="5.49465">
        <ele>203</ele>
        <time>2012-09-21T11:17:21Z</time>
      </trkpt>
      <trkpt lat="47.08813" lon="5.49473">
        <ele>203</ele>
        <time>2012-09-21T11:17:24Z</time>
      </trkpt>
      <trkpt lat="47.088" lon="5.49482">
        <ele>203</ele>
        <time>2012-09-21T11:17:27Z</time>
      </trkpt>
      <trkpt lat="47.08792" lon="5.49487">
        <ele>203</ele>
        <time>2012-09-21T11:17:29Z</time>
      </trkpt>
      <trkpt lat="47.08783" lon="5.49492">
        <ele>203</ele>
        <time>2012-09-21T11:17:31Z</time>
      </trkpt>
      <trkpt lat="47.08774" lon="5.49499">
        <ele>203</ele>
        <time>2012-09-21T11:17:33Z</time>
      </trkpt>
      <trkpt lat="47.08765" lon="5.49505">
        <ele>203</ele>
        <time>2012-09-21T11:17:35Z</time>
      </trkpt>
      <trkpt lat="47.08755" lon="5.49511">
        <ele>203</ele>
        <time>2012-09-21T11:17:37Z</time>
      </trkpt>
      <trkpt lat="47.08745" lon="5.49517">
        <ele>203</ele>
        <time>2012-09-21T11:17:39Z</time>
      </trkpt>
      <trkpt lat="47.08734" lon="5.49522">
        <ele>203</ele>
        <time>2012-09-21T11:17:41Z</time>
      </trkpt>
      <trkpt lat="47.08722" lon="5.4952">
        <ele>203</ele>
        <time>2012-09-21T11:17:43Z</time>
      </trkpt>
      <trkpt lat="47.08713" lon="5.49512">
        <ele>203</ele>
        <time>2012-09-21T11:17:45Z</time>
      </trkpt>
      <trkpt lat="47.08706" lon="5.495">
        <ele>203</ele>
        <time>2012-09-21T11:17:47Z</time>
      </trkpt>
      <trkpt lat="47.08701" lon="5.49483">
        <ele>203</ele>
        <time>2012-09-21T11:17:49Z</time>
      </trkpt>
      <trkpt lat="47.087" lon="5.49464">
        <ele>203</ele>
        <time>2012-09-21T11:17:51Z</time>
      </trkpt>
      <trkpt lat="47.08702" lon="5.49444">
        <ele>203</ele>
        <time>2012-09-21T11:17:53Z</time>
      </trkpt>
      <trkpt lat="47.08701" lon="5.49423">
        <ele>198</ele>
        <time>2012-09-21T11:17:55Z</time>
      </trkpt>
      <trkpt lat="47.08697" lon="5.49404">
        <ele>198</ele>
        <time>2012-09-21T11:17:57Z</time>
      </trkpt>
      <trkpt lat="47.08692" lon="5.49386">
        <ele>198</ele>
        <time>2012-09-21T11:17:59Z</time>
      </trkpt>
      <trkpt lat="47.08687" lon="5.49369">
        <ele>198</ele>
        <time>2012-09-21T11:18:01Z</time>
      </trkpt>
      <trkpt lat="47.08683" lon="5.49351">
        <ele>198</ele>
        <time>2012-09-21T11:18:03Z</time>
      </trkpt>
      <trkpt lat="47.08679" lon="5.49334">
        <ele>198</ele>
        <time>2012-09-21T11:18:05Z</time>
      </trkpt>
      <trkpt lat="47.08674" lon="5.49317">
        <ele>198</ele>
        <time>2012-09-21T11:18:07Z</time>
      </trkpt>
      <trkpt lat="47.0867" lon="5.49301">
        <ele>198</ele>
        <time>2012-09-21T11:18:09Z</time>
      </trkpt>
      <trkpt lat="47.08665" lon="5.49284">
        <ele>198</ele>
        <time>2012-09-21T11:18:11Z</time>
      </trkpt>
      <trkpt lat="47.0866" lon="5.49269">
        <ele>198</ele>
        <time>2012-09-21T11:18:13Z</time>
      </trkpt>
      <trkpt lat="47.08654" lon="5.49253">
        <ele>198</ele>
        <time>2012-09-21T11:18:15Z</time>
      </trkpt>
      <trkpt lat="47.0865" lon="5.49239">
        <ele>198</ele>
        <time>2012-09-21T11:18:17Z</time>
      </trkpt>
      <trkpt lat="47.08646" lon="5.49225">
        <ele>198</ele>
        <time>2012-09-21T11:18:19Z</time>
      </trkpt>
      <trkpt lat="47.08641" lon="5.49211">
        <ele>198</ele>
        <time>2012-09-21T11:18:21Z</time>
      </trkpt>
      <trkpt lat="47.08636" lon="5.49199">
        <ele>198</ele>
        <time>2012-09-21T11:18:23Z</time>
      </trkpt>
      <trkpt lat="47.0863" lon="5.49186">
        <ele>198</ele>
        <time>2012-09-21T11:18:25Z</time>
      </trkpt>
      <trkpt lat="47.08623" lon="5.49175">
        <ele>198</ele>
        <time>2012-09-21T11:18:27Z</time>
      </trkpt>
      <trkpt lat="47.08615" lon="5.49164">
        <ele>198</ele>
        <time>2012-09-21T11:18:29Z</time>
      </trkpt>
      <trkpt lat="47.08607" lon="5.49155">
        <ele>198</ele>
        <time>2012-09-21T11:18:31Z</time>
      </trkpt>
      <trkpt lat="47.08599" lon="5.49146">
        <ele>198</ele>
        <time>2012-09-21T11:18:33Z</time>
      </trkpt>
      <trkpt lat="47.0859" lon="5.49137">
        <ele>198</ele>
        <time>2012-09-21T11:18:35Z</time>
      </trkpt>
      <trkpt lat="47.08581" lon="5.4913">
        <ele>198</ele>
        <time>2012-09-21T11:18:37Z</time>
      </trkpt>
      <trkpt lat="47.08573" lon="5.49122">
        <ele>198</ele>
        <time>2012-09-21T11:18:39Z</time>
      </trkpt>
      <trkpt lat="47.08564" lon="5.49113">
        <ele>198</ele>
        <time>2012-09-21T11:18:41Z</time>
      </trkpt>
      <trkpt lat="47.08556" lon="5.49105">
        <ele>198</ele>
        <time>2012-09-21T11:18:43Z</time>
      </trkpt>
      <trkpt lat="47.08548" lon="5.49096">
        <ele>198</ele>
        <time>2012-09-21T11:18:45Z</time>
      </trkpt>
      <trkpt lat="47.0854" lon="5.49088">
        <ele>198</ele>
        <time>2012-09-21T11:18:47Z</time>
      </trkpt>
      <trkpt lat="47.08532" lon="5.4908">
        <ele>198</ele>
        <time>2012-09-21T11:18:49Z</time>
      </trkpt>
      <trkpt lat="47.08525" lon="5.4907">
        <ele>198</ele>
        <time>2012-09-21T11:18:51Z</time>
      </trkpt>
      <trkpt lat="47.08518" lon="5.49059">
        <ele>198</ele>
        <time>2012-09-21T11:18:53Z</time>
      </trkpt>
      <trkpt lat="47.08511" lon="5.49049">
        <ele>198</ele>
        <time>2012-09-21T11:18:55Z</time>
      </trkpt>
      <trkpt lat="47.08505" lon="5.49038">
        <ele>198</ele>
        <time>2012-09-21T11:18:57Z</time>
      </trkpt>
      <trkpt lat="47.08498" lon="5.49027">
        <ele>198</ele>
        <time>2012-09-21T11:18:59Z</time>
      </trkpt>
      <trkpt lat="47.08491" lon="5.49017">
        <ele>198</ele>
        <time>2012-09-21T11:19:01Z</time>
      </trkpt>
      <trkpt lat="47.08484" lon="5.49005">
        <ele>198</ele>
        <time>2012-09-21T11:19:03Z</time>
      </trkpt>
      <trkpt lat="47.08477" lon="5.48995">
        <ele>198</ele>
        <time>2012-09-21T11:19:05Z</time>
      </trkpt>
      <trkpt lat="47.08471" lon="5.48983">
        <ele>198</ele>
        <time>2012-09-21T11:19:07Z</time>
      </trkpt>
      <trkpt lat="47.08464" lon="5.48971">
        <ele>198</ele>
        <time>2012-09-21T11:19:09Z</time>
      </trkpt>
      <trkpt lat="47.08457" lon="5.4896">
        <ele>198</ele>
        <time>2012-09-21T11:19:11Z</time>
      </trkpt>
      <trkpt lat="47.08451" lon="5.48949">
        <ele>198</ele>
        <time>2012-09-21T11:19:13Z</time>
      </trkpt>
      <trkpt lat="47.08445" lon="5.48939">
        <ele>198</ele>
        <time>2012-09-21T11:19:15Z</time>
      </trkpt>
      <trkpt lat="47.08436" lon="5.48925">
        <ele>198</ele>
        <time>2012-09-21T11:19:18Z</time>
      </trkpt>
      <trkpt lat="47.08428" lon="5.48911">
        <ele>198</ele>
        <time>2012-09-21T11:19:21Z</time>
      </trkpt>
      <trkpt lat="47.08421" lon="5.48898">
        <ele>204</ele>
        <time>2012-09-21T11:19:24Z</time>
      </trkpt>
      <trkpt lat="47.08413" lon="5.48885">
        <ele>204</ele>
        <time>2012-09-21T11:19:27Z</time>
      </trkpt>
      <trkpt lat="47.08405" lon="5.48871">
        <ele>204</ele>
        <time>2012-09-21T11:19:30Z</time>
      </trkpt>
      <trkpt lat="47.084" lon="5.48853">
        <ele>204</ele>
        <time>2012-09-21T11:19:33Z</time>
      </trkpt>
      <trkpt lat="47.08397" lon="5.4884">
        <ele>204</ele>
        <time>2012-09-21T11:19:35Z</time>
      </trkpt>
      <trkpt lat="47.08386" lon="5.4883">
        <ele>204</ele>
        <time>2012-09-21T11:19:38Z</time>
      </trkpt>
      <trkpt lat="47.08378" lon="5.48826">
        <ele>209</ele>
        <time>2012-09-21T11:19:40Z</time>
      </trkpt>
      <trkpt lat="47.0837" lon="5.48817">
        <ele>209</ele>
        <time>2012-09-21T11:19:42Z</time>
      </trkpt>
      <trkpt lat="47.08364" lon="5.48806">
        <ele>209</ele>
        <time>2012-09-21T11:19:44Z</time>
      </trkpt>
      <trkpt lat="47.08357" lon="5.48795">
        <ele>209</ele>
        <time>2012-09-21T11:19:46Z</time>
      </trkpt>
      <trkpt lat="47.0835" lon="5.48784">
        <ele>209</ele>
        <time>2012-09-21T11:19:48Z</time>
      </trkpt>
      <trkpt lat="47.08344" lon="5.48775">
        <ele>209</ele>
        <time>2012-09-21T11:19:50Z</time>
      </trkpt>
      <trkpt lat="47.08337" lon="5.48764">
        <ele>209</ele>
        <time>2012-09-21T11:19:52Z</time>
      </trkpt>
      <trkpt lat="47.0833" lon="5.48752">
        <ele>209</ele>
        <time>2012-09-21T11:19:54Z</time>
      </trkpt>
      <trkpt lat="47.08323" lon="5.48741">
        <ele>209</ele>
        <time>2012-09-21T11:19:56Z</time>
      </trkpt>
      <trkpt lat="47.08316" lon="5.48731">
        <ele>209</ele>
        <time>2012-09-21T11:19:58Z</time>
      </trkpt>
      <trkpt lat="47.0831" lon="5.48719">
        <ele>209</ele>
        <time>2012-09-21T11:20:00Z</time>
      </trkpt>
      <trkpt lat="47.08303" lon="5.48709">
        <ele>209</ele>
        <time>2012-09-21T11:20:02Z</time>
      </trkpt>
      <trkpt lat="47.08297" lon="5.48698">
        <ele>209</ele>
        <time>2012-09-21T11:20:04Z</time>
      </trkpt>
      <trkpt lat="47.0829" lon="5.48688">
        <ele>209</ele>
        <time>2012-09-21T11:20:06Z</time>
      </trkpt>
      <trkpt lat="47.08284" lon="5.48678">
        <ele>209</ele>
        <time>2012-09-21T11:20:08Z</time>
      </trkpt>
      <trkpt lat="47.08277" lon="5.48667">
        <ele>209</ele>
        <time>2012-09-21T11:20:10Z</time>
      </trkpt>
      <trkpt lat="47.08271" lon="5.48657">
        <ele>209</ele>
        <time>2012-09-21T11:20:12Z</time>
      </trkpt>
      <trkpt lat="47.08264" lon="5.48647">
        <ele>209</ele>
        <time>2012-09-21T11:20:14Z</time>
      </trkpt>
      <trkpt lat="47.08257" lon="5.48637">
        <ele>209</ele>
        <time>2012-09-21T11:20:16Z</time>
      </trkpt>
      <trkpt lat="47.08251" lon="5.48627">
        <ele>209</ele>
        <time>2012-09-21T11:20:18Z</time>
      </trkpt>
      <trkpt lat="47.08243" lon="5.48617">
        <ele>209</ele>
        <time>2012-09-21T11:20:20Z</time>
      </trkpt>
      <trkpt lat="47.08236" lon="5.48608">
        <ele>209</ele>
        <time>2012-09-21T11:20:22Z</time>
      </trkpt>
      <trkpt lat="47.08229" lon="5.486">
        <ele>209</ele>
        <time>2012-09-21T11:20:24Z</time>
      </trkpt>
      <trkpt lat="47.08221" lon="5.48592">
        <ele>209</ele>
        <time>2012-09-21T11:20:26Z</time>
      </trkpt>
      <trkpt lat="47.08213" lon="5.48584">
        <ele>209</ele>
        <time>2012-09-21T11:20:28Z</time>
      </trkpt>
      <trkpt lat="47.08205" lon="5.48577">
        <ele>209</ele>
        <time>2012-09-21T11:20:30Z</time>
      </trkpt>
      <trkpt lat="47.08197" lon="5.48569">
        <ele>209</ele>
        <time>2012-09-21T11:20:32Z</time>
      </trkpt>
      <trkpt lat="47.08189" lon="5.48563">
        <ele>209</ele>
        <time>2012-09-21T11:20:34Z</time>
      </trkpt>
      <trkpt lat="47.08181" lon="5.48556">
        <ele>209</ele>
        <time>2012-09-21T11:20:36Z</time>
      </trkpt>
      <trkpt lat="47.08169" lon="5.48546">
        <ele>209</ele>
        <time>2012-09-21T11:20:39Z</time>
      </trkpt>
      <trkpt lat="47.08157" lon="5.48537">
        <ele>209</ele>
        <time>2012-09-21T11:20:42Z</time>
      </trkpt>
      <trkpt lat="47.08145" lon="5.48528">
        <ele>209</ele>
        <time>2012-09-21T11:20:45Z</time>
      </trkpt>
      <trkpt lat="47.08136" lon="5.48522">
        <ele>209</ele>
        <time>2012-09-21T11:20:47Z</time>
      </trkpt>
      <trkpt lat="47.08128" lon="5.48516">
        <ele>209</ele>
        <time>2012-09-21T11:20:49Z</time>
      </trkpt>
      <trkpt lat="47.08119" lon="5.48509">
        <ele>209</ele>
        <time>2012-09-21T11:20:51Z</time>
      </trkpt>
      <trkpt lat="47.0811" lon="5.48502">
        <ele>209</ele>
        <time>2012-09-21T11:20:53Z</time>
      </trkpt>
      <trkpt lat="47.08101" lon="5.48495">
        <ele>209</ele>
        <time>2012-09-21T11:20:55Z</time>
      </trkpt>
      <trkpt lat="47.08092" lon="5.48488">
        <ele>209</ele>
        <time>2012-09-21T11:20:57Z</time>
      </trkpt>
      <trkpt lat="47.08083" lon="5.48482">
        <ele>209</ele>
        <time>2012-09-21T11:20:59Z</time>
      </trkpt>
      <trkpt lat="47.08074" lon="5.48478">
        <ele>209</ele>
        <time>2012-09-21T11:21:01Z</time>
      </trkpt>
      <trkpt lat="47.08065" lon="5.48479">
        <ele>209</ele>
        <time>2012-09-21T11:21:03Z</time>
      </trkpt>
      <trkpt lat="47.08055" lon="5.48485">
        <ele>209</ele>
        <time>2012-09-21T11:21:05Z</time>
      </trkpt>
      <trkpt lat="47.08049" lon="5.48496">
        <ele>209</ele>
        <time>2012-09-21T11:21:07Z</time>
      </trkpt>
      <trkpt lat="47.08044" lon="5.48509">
        <ele>209</ele>
        <time>2012-09-21T11:21:09Z</time>
      </trkpt>
      <trkpt lat="47.0804" lon="5.48522">
        <ele>209</ele>
        <time>2012-09-21T11:21:11Z</time>
      </trkpt>
      <trkpt lat="47.08035" lon="5.48536">
        <ele>209</ele>
        <time>2012-09-21T11:21:13Z</time>
      </trkpt>
      <trkpt lat="47.08031" lon="5.48549">
        <ele>209</ele>
        <time>2012-09-21T11:21:15Z</time>
      </trkpt>
      <trkpt lat="47.08027" lon="5.48562">
        <ele>209</ele>
        <time>2012-09-21T11:21:17Z</time>
      </trkpt>
      <trkpt lat="47.08022" lon="5.48574">
        <ele>209</ele>
        <time>2012-09-21T11:21:19Z</time>
      </trkpt>
      <trkpt lat="47.08018" lon="5.48588">
        <ele>209</ele>
        <time>2012-09-21T11:21:21Z</time>
      </trkpt>
      <trkpt lat="47.08013" lon="5.48601">
        <ele>209</ele>
        <time>2012-09-21T11:21:23Z</time>
      </trkpt>
      <trkpt lat="47.08008" lon="5.48614">
        <ele>209</ele>
        <time>2012-09-21T11:21:25Z</time>
      </trkpt>
      <trkpt lat="47.08003" lon="5.48627">
        <ele>209</ele>
        <time>2012-09-21T11:21:27Z</time>
      </trkpt>
      <trkpt lat="47.07998" lon="5.48641">
        <ele>209</ele>
        <time>2012-09-21T11:21:29Z</time>
      </trkpt>
      <trkpt lat="47.07994" lon="5.48653">
        <ele>209</ele>
        <time>2012-09-21T11:21:31Z</time>
      </trkpt>
      <trkpt lat="47.07989" lon="5.48667">
        <ele>209</ele>
        <time>2012-09-21T11:21:33Z</time>
      </trkpt>
      <trkpt lat="47.07985" lon="5.48681">
        <ele>209</ele>
        <time>2012-09-21T11:21:35Z</time>
      </trkpt>
      <trkpt lat="47.0798" lon="5.48695">
        <ele>209</ele>
        <time>2012-09-21T11:21:37Z</time>
      </trkpt>
      <trkpt lat="47.07975" lon="5.48709">
        <ele>209</ele>
        <time>2012-09-21T11:21:39Z</time>
      </trkpt>
      <trkpt lat="47.0797" lon="5.48723">
        <ele>209</ele>
        <time>2012-09-21T11:21:41Z</time>
      </trkpt>
      <trkpt lat="47.07965" lon="5.48738">
        <ele>209</ele>
        <time>2012-09-21T11:21:43Z</time>
      </trkpt>
      <trkpt lat="47.0796" lon="5.48752">
        <ele>209</ele>
        <time>2012-09-21T11:21:45Z</time>
      </trkpt>
      <trkpt lat="47.07955" lon="5.48766">
        <ele>209</ele>
        <time>2012-09-21T11:21:47Z</time>
      </trkpt>
      <trkpt lat="47.07951" lon="5.4878">
        <ele>209</ele>
        <time>2012-09-21T11:21:49Z</time>
      </trkpt>
      <trkpt lat="47.07946" lon="5.48793">
        <ele>209</ele>
        <time>2012-09-21T11:21:51Z</time>
      </trkpt>
      <trkpt lat="47.07942" lon="5.48807">
        <ele>209</ele>
        <time>2012-09-21T11:21:53Z</time>
      </trkpt>
      <trkpt lat="47.07937" lon="5.48821">
        <ele>209</ele>
        <time>2012-09-21T11:21:55Z</time>
      </trkpt>
      <trkpt lat="47.07932" lon="5.48835">
        <ele>209</ele>
        <time>2012-09-21T11:21:57Z</time>
      </trkpt>
      <trkpt lat="47.07928" lon="5.48848">
        <ele>209</ele>
        <time>2012-09-21T11:21:59Z</time>
      </trkpt>
      <trkpt lat="47.07923" lon="5.48862">
        <ele>209</ele>
        <time>2012-09-21T11:22:01Z</time>
      </trkpt>
      <trkpt lat="47.07918" lon="5.48875">
        <ele>209</ele>
        <time>2012-09-21T11:22:03Z</time>
      </trkpt>
      <trkpt lat="47.07913" lon="5.4889">
        <ele>209</ele>
        <time>2012-09-21T11:22:05Z</time>
      </trkpt>
      <trkpt lat="47.07908" lon="5.48904">
        <ele>209</ele>
        <time>2012-09-21T11:22:07Z</time>
      </trkpt>
      <trkpt lat="47.07903" lon="5.48917">
        <ele>209</ele>
        <time>2012-09-21T11:22:09Z</time>
      </trkpt>
      <trkpt lat="47.07896" lon="5.4893">
        <ele>209</ele>
        <time>2012-09-21T11:22:11Z</time>
      </trkpt>
      <trkpt lat="47.07887" lon="5.4894">
        <ele>209</ele>
        <time>2012-09-21T11:22:13Z</time>
      </trkpt>
      <trkpt lat="47.07878" lon="5.48949">
        <ele>209</ele>
        <time>2012-09-21T11:22:15Z</time>
      </trkpt>
      <trkpt lat="47.07868" lon="5.48956">
        <ele>209</ele>
        <time>2012-09-21T11:22:17Z</time>
      </trkpt>
      <trkpt lat="47.07857" lon="5.48961">
        <ele>209</ele>
        <time>2012-09-21T11:22:19Z</time>
      </trkpt>
      <trkpt lat="47.07847" lon="5.48961">
        <ele>209</ele>
        <time>2012-09-21T11:22:21Z</time>
      </trkpt>
      <trkpt lat="47.07836" lon="5.4896">
        <ele>209</ele>
        <time>2012-09-21T11:22:23Z</time>
      </trkpt>
      <trkpt lat="47.07825" lon="5.48955">
        <ele>209</ele>
        <time>2012-09-21T11:22:25Z</time>
      </trkpt>
      <trkpt lat="47.07816" lon="5.48946">
        <ele>209</ele>
        <time>2012-09-21T11:22:27Z</time>
      </trkpt>
      <trkpt lat="47.0781" lon="5.48933">
        <ele>209</ele>
        <time>2012-09-21T11:22:29Z</time>
      </trkpt>
      <trkpt lat="47.07808" lon="5.48918">
        <ele>209</ele>
        <time>2012-09-21T11:22:31Z</time>
      </trkpt>
      <trkpt lat="47.07804" lon="5.48904">
        <ele>209</ele>
        <time>2012-09-21T11:22:33Z</time>
      </trkpt>
      <trkpt lat="47.07798" lon="5.48891">
        <ele>209</ele>
        <time>2012-09-21T11:22:35Z</time>
      </trkpt>
      <trkpt lat="47.0779" lon="5.48882">
        <ele>209</ele>
        <time>2012-09-21T11:22:37Z</time>
      </trkpt>
      <trkpt lat="47.07782" lon="5.48877">
        <ele>209</ele>
        <time>2012-09-21T11:22:39Z</time>
      </trkpt>
      <trkpt lat="47.07771" lon="5.48877">
        <ele>209</ele>
        <time>2012-09-21T11:22:41Z</time>
      </trkpt>
      <trkpt lat="47.07762" lon="5.48882">
        <ele>209</ele>
        <time>2012-09-21T11:22:43Z</time>
      </trkpt>
      <trkpt lat="47.07752" lon="5.48891">
        <ele>209</ele>
        <time>2012-09-21T11:22:45Z</time>
      </trkpt>
      <trkpt lat="47.07742" lon="5.48897">
        <ele>209</ele>
        <time>2012-09-21T11:22:47Z</time>
      </trkpt>
      <trkpt lat="47.07731" lon="5.48895">
        <ele>209</ele>
        <time>2012-09-21T11:22:49Z</time>
      </trkpt>
      <trkpt lat="47.0772" lon="5.48891">
        <ele>209</ele>
        <time>2012-09-21T11:22:51Z</time>
      </trkpt>
      <trkpt lat="47.0771" lon="5.48893">
        <ele>209</ele>
        <time>2012-09-21T11:22:53Z</time>
      </trkpt>
      <trkpt lat="47.07701" lon="5.489">
        <ele>209</ele>
        <time>2012-09-21T11:22:55Z</time>
      </trkpt>
      <trkpt lat="47.07693" lon="5.48911">
        <ele>209</ele>
        <time>2012-09-21T11:22:57Z</time>
      </trkpt>
      <trkpt lat="47.07689" lon="5.48926">
        <ele>209</ele>
        <time>2012-09-21T11:22:59Z</time>
      </trkpt>
      <trkpt lat="47.07687" lon="5.48943">
        <ele>209</ele>
        <time>2012-09-21T11:23:01Z</time>
      </trkpt>
      <trkpt lat="47.07684" lon="5.48959">
        <ele>209</ele>
        <time>2012-09-21T11:23:03Z</time>
      </trkpt>
      <trkpt lat="47.07679" lon="5.48974">
        <ele>209</ele>
        <time>2012-09-21T11:23:05Z</time>
      </trkpt>
      <trkpt lat="47.07671" lon="5.48985">
        <ele>209</ele>
        <time>2012-09-21T11:23:07Z</time>
      </trkpt>
      <trkpt lat="47.07663" lon="5.48996">
        <ele>209</ele>
        <time>2012-09-21T11:23:09Z</time>
      </trkpt>
      <trkpt lat="47.07654" lon="5.49005">
        <ele>209</ele>
        <time>2012-09-21T11:23:11Z</time>
      </trkpt>
      <trkpt lat="47.07646" lon="5.49015">
        <ele>209</ele>
        <time>2012-09-21T11:23:13Z</time>
      </trkpt>
      <trkpt lat="47.07638" lon="5.49025">
        <ele>209</ele>
        <time>2012-09-21T11:23:15Z</time>
      </trkpt>
      <trkpt lat="47.0763" lon="5.49036">
        <ele>209</ele>
        <time>2012-09-21T11:23:17Z</time>
      </trkpt>
      <trkpt lat="47.07622" lon="5.49046">
        <ele>209</ele>
        <time>2012-09-21T11:23:19Z</time>
      </trkpt>
      <trkpt lat="47.07614" lon="5.49058">
        <ele>209</ele>
        <time>2012-09-21T11:23:21Z</time>
      </trkpt>
      <trkpt lat="47.07608" lon="5.49069">
        <ele>209</ele>
        <time>2012-09-21T11:23:23Z</time>
      </trkpt>
      <trkpt lat="47.076" lon="5.49081">
        <ele>209</ele>
        <time>2012-09-21T11:23:25Z</time>
      </trkpt>
      <trkpt lat="47.07593" lon="5.49092">
        <ele>209</ele>
        <time>2012-09-21T11:23:27Z</time>
      </trkpt>
      <trkpt lat="47.07584" lon="5.49101">
        <ele>209</ele>
        <time>2012-09-21T11:23:29Z</time>
      </trkpt>
      <trkpt lat="47.07574" lon="5.49107">
        <ele>209</ele>
        <time>2012-09-21T11:23:31Z</time>
      </trkpt>
      <trkpt lat="47.07563" lon="5.4911">
        <ele>209</ele>
        <time>2012-09-21T11:23:33Z</time>
      </trkpt>
      <trkpt lat="47.07553" lon="5.49108">
        <ele>209</ele>
        <time>2012-09-21T11:23:35Z</time>
      </trkpt>
      <trkpt lat="47.07544" lon="5.49102">
        <ele>209</ele>
        <time>2012-09-21T11:23:37Z</time>
      </trkpt>
      <trkpt lat="47.07535" lon="5.49092">
        <ele>209</ele>
        <time>2012-09-21T11:23:39Z</time>
      </trkpt>
      <trkpt lat="47.07528" lon="5.49082">
        <ele>209</ele>
        <time>2012-09-21T11:23:41Z</time>
      </trkpt>
      <trkpt lat="47.07521" lon="5.49072">
        <ele>209</ele>
        <time>2012-09-21T11:23:43Z</time>
      </trkpt>
      <trkpt lat="47.07513" lon="5.49062">
        <ele>203</ele>
        <time>2012-09-21T11:23:47Z</time>
      </trkpt>
      <trkpt lat="47.07505" lon="5.49056">
        <ele>203</ele>
        <time>2012-09-21T11:43:17Z</time>
      </trkpt>
      <trkpt lat="47.07514" lon="5.49059">
        <ele>203</ele>
        <time>2012-09-21T11:50:01Z</time>
      </trkpt>
      <trkpt lat="47.07523" lon="5.49067">
        <ele>203</ele>
        <time>2012-09-21T11:50:11Z</time>
      </trkpt>
      <trkpt lat="47.0753" lon="5.49081">
        <ele>203</ele>
        <time>2012-09-21T11:50:15Z</time>
      </trkpt>
      <trkpt lat="47.07536" lon="5.49093">
        <ele>203</ele>
        <time>2012-09-21T11:50:18Z</time>
      </trkpt>
      <trkpt lat="47.07546" lon="5.49102">
        <ele>203</ele>
        <time>2012-09-21T11:50:21Z</time>
      </trkpt>
      <trkpt lat="47.07557" lon="5.49108">
        <ele>203</ele>
        <time>2012-09-21T11:50:24Z</time>
      </trkpt>
      <trkpt lat="47.07569" lon="5.49109">
        <ele>203</ele>
        <time>2012-09-21T11:50:27Z</time>
      </trkpt>
      <trkpt lat="47.07581" lon="5.49105">
        <ele>203</ele>
        <time>2012-09-21T11:50:30Z</time>
      </trkpt>
      <trkpt lat="47.07592" lon="5.49096">
        <ele>203</ele>
        <time>2012-09-21T11:50:33Z</time>
      </trkpt>
      <trkpt lat="47.07601" lon="5.49084">
        <ele>203</ele>
        <time>2012-09-21T11:50:36Z</time>
      </trkpt>
      <trkpt lat="47.07607" lon="5.49074">
        <ele>203</ele>
        <time>2012-09-21T11:50:38Z</time>
      </trkpt>
      <trkpt lat="47.07613" lon="5.49064">
        <ele>203</ele>
        <time>2012-09-21T11:50:40Z</time>
      </trkpt>
      <trkpt lat="47.07619" lon="5.49054">
        <ele>203</ele>
        <time>2012-09-21T11:50:42Z</time>
      </trkpt>
      <trkpt lat="47.07626" lon="5.49044">
        <ele>203</ele>
        <time>2012-09-21T11:50:44Z</time>
      </trkpt>
      <trkpt lat="47.07633" lon="5.49035">
        <ele>203</ele>
        <time>2012-09-21T11:50:46Z</time>
      </trkpt>
      <trkpt lat="47.07642" lon="5.49023">
        <ele>203</ele>
        <time>2012-09-21T11:50:49Z</time>
      </trkpt>
      <trkpt lat="47.07652" lon="5.4901">
        <ele>203</ele>
        <time>2012-09-21T11:50:52Z</time>
      </trkpt>
      <trkpt lat="47.07663" lon="5.48998">
        <ele>203</ele>
        <time>2012-09-21T11:50:55Z</time>
      </trkpt>
      <trkpt lat="47.07673" lon="5.48987">
        <ele>203</ele>
        <time>2012-09-21T11:50:58Z</time>
      </trkpt>
      <trkpt lat="47.07682" lon="5.48976">
        <ele>203</ele>
        <time>2012-09-21T11:51:01Z</time>
      </trkpt>
      <trkpt lat="47.07689" lon="5.4896">
        <ele>203</ele>
        <time>2012-09-21T11:51:04Z</time>
      </trkpt>
      <trkpt lat="47.07692" lon="5.48947">
        <ele>203</ele>
        <time>2012-09-21T11:51:06Z</time>
      </trkpt>
      <trkpt lat="47.07695" lon="5.48928">
        <ele>203</ele>
        <time>2012-09-21T11:51:09Z</time>
      </trkpt>
      <trkpt lat="47.077" lon="5.48912">
        <ele>203</ele>
        <time>2012-09-21T11:51:12Z</time>
      </trkpt>
      <trkpt lat="47.07707" lon="5.489">
        <ele>203</ele>
        <time>2012-09-21T11:51:15Z</time>
      </trkpt>
      <trkpt lat="47.07717" lon="5.48895">
        <ele>203</ele>
        <time>2012-09-21T11:51:18Z</time>
      </trkpt>
      <trkpt lat="47.07727" lon="5.48895">
        <ele>203</ele>
        <time>2012-09-21T11:51:21Z</time>
      </trkpt>
      <trkpt lat="47.07736" lon="5.48899">
        <ele>203</ele>
        <time>2012-09-21T11:51:24Z</time>
      </trkpt>
      <trkpt lat="47.07743" lon="5.4891">
        <ele>203</ele>
        <time>2012-09-21T11:51:29Z</time>
      </trkpt>
      <trkpt lat="47.07746" lon="5.48925">
        <ele>203</ele>
        <time>2012-09-21T11:51:33Z</time>
      </trkpt>
      <trkpt lat="47.07739" lon="5.48942">
        <ele>203</ele>
        <time>2012-09-21T11:51:36Z</time>
      </trkpt>
      <trkpt lat="47.07731" lon="5.48951">
        <ele>203</ele>
        <time>2012-09-21T11:51:38Z</time>
      </trkpt>
      <trkpt lat="47.07722" lon="5.4896">
        <ele>203</ele>
        <time>2012-09-21T11:51:40Z</time>
      </trkpt>
      <trkpt lat="47.07712" lon="5.4897">
        <ele>203</ele>
        <time>2012-09-21T11:51:42Z</time>
      </trkpt>
      <trkpt lat="47.07703" lon="5.48978">
        <ele>203</ele>
        <time>2012-09-21T11:51:44Z</time>
      </trkpt>
      <trkpt lat="47.07693" lon="5.48988">
        <ele>203</ele>
        <time>2012-09-21T11:51:46Z</time>
      </trkpt>
      <trkpt lat="47.07684" lon="5.48997">
        <ele>203</ele>
        <time>2012-09-21T11:51:48Z</time>
      </trkpt>
      <trkpt lat="47.07676" lon="5.49005">
        <ele>203</ele>
        <time>2012-09-21T11:51:50Z</time>
      </trkpt>
      <trkpt lat="47.07669" lon="5.49014">
        <ele>203</ele>
        <time>2012-09-21T11:51:52Z</time>
      </trkpt>
      <trkpt lat="47.0766" lon="5.49024">
        <ele>203</ele>
        <time>2012-09-21T11:51:55Z</time>
      </trkpt>
      <trkpt lat="47.07651" lon="5.49036">
        <ele>203</ele>
        <time>2012-09-21T11:51:58Z</time>
      </trkpt>
      <trkpt lat="47.07642" lon="5.49049">
        <ele>203</ele>
        <time>2012-09-21T11:52:01Z</time>
      </trkpt>
      <trkpt lat="47.07633" lon="5.49063">
        <ele>203</ele>
        <time>2012-09-21T11:52:04Z</time>
      </trkpt>
      <trkpt lat="47.07624" lon="5.49076">
        <ele>203</ele>
        <time>2012-09-21T11:52:07Z</time>
      </trkpt>
      <trkpt lat="47.07615" lon="5.49089">
        <ele>203</ele>
        <time>2012-09-21T11:52:10Z</time>
      </trkpt>
      <trkpt lat="47.07607" lon="5.49102">
        <ele>203</ele>
        <time>2012-09-21T11:52:13Z</time>
      </trkpt>
      <trkpt lat="47.07599" lon="5.49117">
        <ele>203</ele>
        <time>2012-09-21T11:52:16Z</time>
      </trkpt>
      <trkpt lat="47.07591" lon="5.49131">
        <ele>203</ele>
        <time>2012-09-21T11:52:19Z</time>
      </trkpt>
      <trkpt lat="47.07583" lon="5.49146">
        <ele>203</ele>
        <time>2012-09-21T11:52:22Z</time>
      </trkpt>
      <trkpt lat="47.07576" lon="5.49161">
        <ele>203</ele>
        <time>2012-09-21T11:52:25Z</time>
      </trkpt>
      <trkpt lat="47.07568" lon="5.49176">
        <ele>203</ele>
        <time>2012-09-21T11:52:28Z</time>
      </trkpt>
      <trkpt lat="47.0756" lon="5.4919">
        <ele>203</ele>
        <time>2012-09-21T11:52:31Z</time>
      </trkpt>
      <trkpt lat="47.07552" lon="5.49205">
        <ele>203</ele>
        <time>2012-09-21T11:52:34Z</time>
      </trkpt>
      <trkpt lat="47.07547" lon="5.49216">
        <ele>203</ele>
        <time>2012-09-21T11:52:36Z</time>
      </trkpt>
      <trkpt lat="47.07539" lon="5.49231">
        <ele>203</ele>
        <time>2012-09-21T11:52:39Z</time>
      </trkpt>
      <trkpt lat="47.07532" lon="5.49245">
        <ele>208</ele>
        <time>2012-09-21T11:52:42Z</time>
      </trkpt>
      <trkpt lat="47.07525" lon="5.4926">
        <ele>208</ele>
        <time>2012-09-21T11:52:45Z</time>
      </trkpt>
      <trkpt lat="47.07519" lon="5.49274">
        <ele>208</ele>
        <time>2012-09-21T11:52:48Z</time>
      </trkpt>
      <trkpt lat="47.07511" lon="5.49288">
        <ele>208</ele>
        <time>2012-09-21T11:52:51Z</time>
      </trkpt>
      <trkpt lat="47.07506" lon="5.493">
        <ele>208</ele>
        <time>2012-09-21T11:52:53Z</time>
      </trkpt>
      <trkpt lat="47.07499" lon="5.49313">
        <ele>208</ele>
        <time>2012-09-21T11:52:55Z</time>
      </trkpt>
      <trkpt lat="47.07492" lon="5.49326">
        <ele>208</ele>
        <time>2012-09-21T11:52:57Z</time>
      </trkpt>
      <trkpt lat="47.07485" lon="5.49341">
        <ele>208</ele>
        <time>2012-09-21T11:52:59Z</time>
      </trkpt>
      <trkpt lat="47.07479" lon="5.49353">
        <ele>208</ele>
        <time>2012-09-21T11:53:01Z</time>
      </trkpt>
      <trkpt lat="47.07471" lon="5.49365">
        <ele>208</ele>
        <time>2012-09-21T11:53:03Z</time>
      </trkpt>
      <trkpt lat="47.07465" lon="5.49376">
        <ele>208</ele>
        <time>2012-09-21T11:53:05Z</time>
      </trkpt>
      <trkpt lat="47.0746" lon="5.49388">
        <ele>208</ele>
        <time>2012-09-21T11:53:07Z</time>
      </trkpt>
      <trkpt lat="47.07453" lon="5.494">
        <ele>208</ele>
        <time>2012-09-21T11:53:09Z</time>
      </trkpt>
      <trkpt lat="47.07446" lon="5.4941">
        <ele>208</ele>
        <time>2012-09-21T11:53:11Z</time>
      </trkpt>
      <trkpt lat="47.07438" lon="5.49414">
        <ele>208</ele>
        <time>2012-09-21T11:53:13Z</time>
      </trkpt>
      <trkpt lat="47.07428" lon="5.49418">
        <ele>214</ele>
        <time>2012-09-21T11:53:15Z</time>
      </trkpt>
      <trkpt lat="47.07422" lon="5.49428">
        <ele>214</ele>
        <time>2012-09-21T11:53:17Z</time>
      </trkpt>
      <trkpt lat="47.07418" lon="5.4944">
        <ele>214</ele>
        <time>2012-09-21T11:53:19Z</time>
      </trkpt>
      <trkpt lat="47.07417" lon="5.49455">
        <ele>214</ele>
        <time>2012-09-21T11:53:21Z</time>
      </trkpt>
      <trkpt lat="47.07415" lon="5.49471">
        <ele>214</ele>
        <time>2012-09-21T11:53:23Z</time>
      </trkpt>
      <trkpt lat="47.07411" lon="5.49483">
        <ele>214</ele>
        <time>2012-09-21T11:53:25Z</time>
      </trkpt>
      <trkpt lat="47.07406" lon="5.49495">
        <ele>214</ele>
        <time>2012-09-21T11:53:27Z</time>
      </trkpt>
      <trkpt lat="47.07398" lon="5.49511">
        <ele>214</ele>
        <time>2012-09-21T11:53:30Z</time>
      </trkpt>
      <trkpt lat="47.07391" lon="5.49526">
        <ele>214</ele>
        <time>2012-09-21T11:53:33Z</time>
      </trkpt>
      <trkpt lat="47.07385" lon="5.4954">
        <ele>214</ele>
        <time>2012-09-21T11:53:36Z</time>
      </trkpt>
      <trkpt lat="47.0738" lon="5.49554">
        <ele>214</ele>
        <time>2012-09-21T11:53:39Z</time>
      </trkpt>
      <trkpt lat="47.07375" lon="5.49568">
        <ele>214</ele>
        <time>2012-09-21T11:53:42Z</time>
      </trkpt>
      <trkpt lat="47.07369" lon="5.49582">
        <ele>214</ele>
        <time>2012-09-21T11:53:45Z</time>
      </trkpt>
      <trkpt lat="47.07364" lon="5.49597">
        <ele>214</ele>
        <time>2012-09-21T11:53:48Z</time>
      </trkpt>
      <trkpt lat="47.07358" lon="5.49611">
        <ele>219</ele>
        <time>2012-09-21T11:53:51Z</time>
      </trkpt>
      <trkpt lat="47.07353" lon="5.49626">
        <ele>219</ele>
        <time>2012-09-21T11:53:54Z</time>
      </trkpt>
      <trkpt lat="47.07347" lon="5.49642">
        <ele>219</ele>
        <time>2012-09-21T11:53:57Z</time>
      </trkpt>
      <trkpt lat="47.07342" lon="5.49659">
        <ele>219</ele>
        <time>2012-09-21T11:54:00Z</time>
      </trkpt>
      <trkpt lat="47.07337" lon="5.49676">
        <ele>219</ele>
        <time>2012-09-21T11:54:03Z</time>
      </trkpt>
      <trkpt lat="47.07331" lon="5.49694">
        <ele>219</ele>
        <time>2012-09-21T11:54:06Z</time>
      </trkpt>
      <trkpt lat="47.07326" lon="5.49711">
        <ele>219</ele>
        <time>2012-09-21T11:54:09Z</time>
      </trkpt>
      <trkpt lat="47.0732" lon="5.4972">
        <ele>219</ele>
        <time>2012-09-21T11:54:11Z</time>
      </trkpt>
      <trkpt lat="47.07309" lon="5.49729">
        <ele>219</ele>
        <time>2012-09-21T11:54:14Z</time>
      </trkpt>
      <trkpt lat="47.07299" lon="5.49741">
        <ele>219</ele>
        <time>2012-09-21T11:54:17Z</time>
      </trkpt>
      <trkpt lat="47.0729" lon="5.49753">
        <ele>219</ele>
        <time>2012-09-21T11:54:20Z</time>
      </trkpt>
      <trkpt lat="47.0728" lon="5.49759">
        <ele>219</ele>
        <time>2012-09-21T11:54:23Z</time>
      </trkpt>
      <trkpt lat="47.07269" lon="5.49757">
        <ele>219</ele>
        <time>2012-09-21T11:54:26Z</time>
      </trkpt>
      <trkpt lat="47.07257" lon="5.49754">
        <ele>219</ele>
        <time>2012-09-21T11:54:29Z</time>
      </trkpt>
      <trkpt lat="47.07245" lon="5.4975">
        <ele>219</ele>
        <time>2012-09-21T11:54:32Z</time>
      </trkpt>
      <trkpt lat="47.07237" lon="5.49747">
        <ele>224</ele>
        <time>2012-09-21T11:54:34Z</time>
      </trkpt>
      <trkpt lat="47.07224" lon="5.49742">
        <ele>224</ele>
        <time>2012-09-21T11:54:37Z</time>
      </trkpt>
      <trkpt lat="47.07215" lon="5.49738">
        <ele>224</ele>
        <time>2012-09-21T11:54:39Z</time>
      </trkpt>
      <trkpt lat="47.07202" lon="5.49734">
        <ele>224</ele>
        <time>2012-09-21T11:54:42Z</time>
      </trkpt>
      <trkpt lat="47.0719" lon="5.49729">
        <ele>224</ele>
        <time>2012-09-21T11:54:45Z</time>
      </trkpt>
      <trkpt lat="47.07177" lon="5.49725">
        <ele>224</ele>
        <time>2012-09-21T11:54:48Z</time>
      </trkpt>
      <trkpt lat="47.07168" lon="5.49721">
        <ele>224</ele>
        <time>2012-09-21T11:54:50Z</time>
      </trkpt>
      <trkpt lat="47.07159" lon="5.49718">
        <ele>224</ele>
        <time>2012-09-21T11:54:52Z</time>
      </trkpt>
      <trkpt lat="47.0715" lon="5.49714">
        <ele>224</ele>
        <time>2012-09-21T11:54:54Z</time>
      </trkpt>
      <trkpt lat="47.07141" lon="5.49711">
        <ele>224</ele>
        <time>2012-09-21T11:54:56Z</time>
      </trkpt>
      <trkpt lat="47.07132" lon="5.49707">
        <ele>224</ele>
        <time>2012-09-21T11:54:58Z</time>
      </trkpt>
      <trkpt lat="47.07123" lon="5.49703">
        <ele>224</ele>
        <time>2012-09-21T11:55:00Z</time>
      </trkpt>
      <trkpt lat="47.07113" lon="5.49698">
        <ele>224</ele>
        <time>2012-09-21T11:55:02Z</time>
      </trkpt>
      <trkpt lat="47.07104" lon="5.49694">
        <ele>224</ele>
        <time>2012-09-21T11:55:04Z</time>
      </trkpt>
      <trkpt lat="47.07094" lon="5.49692">
        <ele>224</ele>
        <time>2012-09-21T11:55:06Z</time>
      </trkpt>
      <trkpt lat="47.07084" lon="5.49688">
        <ele>224</ele>
        <time>2012-09-21T11:55:08Z</time>
      </trkpt>
      <trkpt lat="47.07074" lon="5.49685">
        <ele>224</ele>
        <time>2012-09-21T11:55:10Z</time>
      </trkpt>
      <trkpt lat="47.07064" lon="5.49682">
        <ele>224</ele>
        <time>2012-09-21T11:55:12Z</time>
      </trkpt>
      <trkpt lat="47.07054" lon="5.49679">
        <ele>224</ele>
        <time>2012-09-21T11:55:14Z</time>
      </trkpt>
      <trkpt lat="47.0704" lon="5.49674">
        <ele>224</ele>
        <time>2012-09-21T11:55:17Z</time>
      </trkpt>
      <trkpt lat="47.07032" lon="5.4967">
        <ele>224</ele>
        <time>2012-09-21T11:55:19Z</time>
      </trkpt>
      <trkpt lat="47.07023" lon="5.49667">
        <ele>224</ele>
        <time>2012-09-21T11:55:21Z</time>
      </trkpt>
      <trkpt lat="47.07015" lon="5.49662">
        <ele>224</ele>
        <time>2012-09-21T11:55:23Z</time>
      </trkpt>
      <trkpt lat="47.07006" lon="5.49658">
        <ele>224</ele>
        <time>2012-09-21T11:55:26Z</time>
      </trkpt>
      <trkpt lat="47.06996" lon="5.49658">
        <ele>224</ele>
        <time>2012-09-21T11:55:31Z</time>
      </trkpt>
      <trkpt lat="47.06991" lon="5.49669">
        <ele>224</ele>
        <time>2012-09-21T11:55:34Z</time>
      </trkpt>
      <trkpt lat="47.06988" lon="5.49686">
        <ele>224</ele>
        <time>2012-09-21T11:55:37Z</time>
      </trkpt>
      <trkpt lat="47.06984" lon="5.49704">
        <ele>224</ele>
        <time>2012-09-21T11:55:40Z</time>
      </trkpt>
      <trkpt lat="47.06979" lon="5.49722">
        <ele>224</ele>
        <time>2012-09-21T11:55:43Z</time>
      </trkpt>
      <trkpt lat="47.06977" lon="5.49735">
        <ele>224</ele>
        <time>2012-09-21T11:55:45Z</time>
      </trkpt>
      <trkpt lat="47.06973" lon="5.49752">
        <ele>224</ele>
        <time>2012-09-21T11:55:48Z</time>
      </trkpt>
      <trkpt lat="47.06969" lon="5.49768">
        <ele>224</ele>
        <time>2012-09-21T11:55:51Z</time>
      </trkpt>
      <trkpt lat="47.06964" lon="5.49784">
        <ele>224</ele>
        <time>2012-09-21T11:55:54Z</time>
      </trkpt>
      <trkpt lat="47.06959" lon="5.49801">
        <ele>224</ele>
        <time>2012-09-21T11:55:57Z</time>
      </trkpt>
      <trkpt lat="47.06955" lon="5.49818">
        <ele>224</ele>
        <time>2012-09-21T11:56:00Z</time>
      </trkpt>
      <trkpt lat="47.06951" lon="5.49834">
        <ele>224</ele>
        <time>2012-09-21T11:56:03Z</time>
      </trkpt>
      <trkpt lat="47.06947" lon="5.49849">
        <ele>224</ele>
        <time>2012-09-21T11:56:06Z</time>
      </trkpt>
      <trkpt lat="47.06943" lon="5.49865">
        <ele>224</ele>
        <time>2012-09-21T11:56:09Z</time>
      </trkpt>
      <trkpt lat="47.06938" lon="5.49882">
        <ele>224</ele>
        <time>2012-09-21T11:56:12Z</time>
      </trkpt>
      <trkpt lat="47.06933" lon="5.499">
        <ele>224</ele>
        <time>2012-09-21T11:56:15Z</time>
      </trkpt>
      <trkpt lat="47.0693" lon="5.49913">
        <ele>224</ele>
        <time>2012-09-21T11:56:17Z</time>
      </trkpt>
      <trkpt lat="47.06926" lon="5.49931">
        <ele>224</ele>
        <time>2012-09-21T11:56:20Z</time>
      </trkpt>
      <trkpt lat="47.06921" lon="5.49949">
        <ele>224</ele>
        <time>2012-09-21T11:56:23Z</time>
      </trkpt>
      <trkpt lat="47.06917" lon="5.49967">
        <ele>224</ele>
        <time>2012-09-21T11:56:26Z</time>
      </trkpt>
      <trkpt lat="47.06912" lon="5.49984">
        <ele>224</ele>
        <time>2012-09-21T11:56:29Z</time>
      </trkpt>
      <trkpt lat="47.06906" lon="5.49994">
        <ele>224</ele>
        <time>2012-09-21T11:56:31Z</time>
      </trkpt>
      <trkpt lat="47.06897" lon="5.5001">
        <ele>224</ele>
        <time>2012-09-21T11:56:34Z</time>
      </trkpt>
      <trkpt lat="47.06892" lon="5.50021">
        <ele>224</ele>
        <time>2012-09-21T11:56:36Z</time>
      </trkpt>
      <trkpt lat="47.06886" lon="5.50031">
        <ele>224</ele>
        <time>2012-09-21T11:56:38Z</time>
      </trkpt>
      <trkpt lat="47.06882" lon="5.50043">
        <ele>224</ele>
        <time>2012-09-21T11:56:40Z</time>
      </trkpt>
      <trkpt lat="47.06877" lon="5.5006">
        <ele>224</ele>
        <time>2012-09-21T11:56:43Z</time>
      </trkpt>
      <trkpt lat="47.0687" lon="5.50077">
        <ele>224</ele>
        <time>2012-09-21T11:56:46Z</time>
      </trkpt>
      <trkpt lat="47.06864" lon="5.50093">
        <ele>224</ele>
        <time>2012-09-21T11:56:49Z</time>
      </trkpt>
      <trkpt lat="47.06858" lon="5.50109">
        <ele>230</ele>
        <time>2012-09-21T11:56:52Z</time>
      </trkpt>
      <trkpt lat="47.06851" lon="5.50126">
        <ele>230</ele>
        <time>2012-09-21T11:56:55Z</time>
      </trkpt>
      <trkpt lat="47.06846" lon="5.50137">
        <ele>230</ele>
        <time>2012-09-21T11:56:57Z</time>
      </trkpt>
      <trkpt lat="47.0684" lon="5.50153">
        <ele>230</ele>
        <time>2012-09-21T11:57:00Z</time>
      </trkpt>
      <trkpt lat="47.06835" lon="5.5017">
        <ele>230</ele>
        <time>2012-09-21T11:57:03Z</time>
      </trkpt>
      <trkpt lat="47.06829" lon="5.50186">
        <ele>230</ele>
        <time>2012-09-21T11:57:06Z</time>
      </trkpt>
      <trkpt lat="47.06823" lon="5.50203">
        <ele>230</ele>
        <time>2012-09-21T11:57:09Z</time>
      </trkpt>
      <trkpt lat="47.06819" lon="5.50221">
        <ele>230</ele>
        <time>2012-09-21T11:57:12Z</time>
      </trkpt>
      <trkpt lat="47.06815" lon="5.50233">
        <ele>230</ele>
        <time>2012-09-21T11:57:14Z</time>
      </trkpt>
      <trkpt lat="47.0681" lon="5.5025">
        <ele>230</ele>
        <time>2012-09-21T11:57:17Z</time>
      </trkpt>
      <trkpt lat="47.06807" lon="5.50267">
        <ele>237</ele>
        <time>2012-09-21T11:57:20Z</time>
      </trkpt>
      <trkpt lat="47.06802" lon="5.50281">
        <ele>237</ele>
        <time>2012-09-21T11:57:23Z</time>
      </trkpt>
      <trkpt lat="47.06797" lon="5.50296">
        <ele>237</ele>
        <time>2012-09-21T11:57:26Z</time>
      </trkpt>
      <trkpt lat="47.06792" lon="5.50312">
        <ele>237</ele>
        <time>2012-09-21T11:57:29Z</time>
      </trkpt>
      <trkpt lat="47.06788" lon="5.50328">
        <ele>237</ele>
        <time>2012-09-21T11:57:32Z</time>
      </trkpt>
      <trkpt lat="47.06784" lon="5.50343">
        <ele>237</ele>
        <time>2012-09-21T11:57:35Z</time>
      </trkpt>
      <trkpt lat="47.06779" lon="5.5036">
        <ele>237</ele>
        <time>2012-09-21T11:57:38Z</time>
      </trkpt>
      <trkpt lat="47.06775" lon="5.50373">
        <ele>237</ele>
        <time>2012-09-21T11:57:40Z</time>
      </trkpt>
      <trkpt lat="47.06769" lon="5.50391">
        <ele>237</ele>
        <time>2012-09-21T11:57:43Z</time>
      </trkpt>
      <trkpt lat="47.06766" lon="5.50404">
        <ele>237</ele>
        <time>2012-09-21T11:57:45Z</time>
      </trkpt>
      <trkpt lat="47.06762" lon="5.50418">
        <ele>237</ele>
        <time>2012-09-21T11:57:47Z</time>
      </trkpt>
      <trkpt lat="47.06757" lon="5.50432">
        <ele>237</ele>
        <time>2012-09-21T11:57:49Z</time>
      </trkpt>
      <trkpt lat="47.06754" lon="5.50446">
        <ele>237</ele>
        <time>2012-09-21T11:57:51Z</time>
      </trkpt>
      <trkpt lat="47.06751" lon="5.50461">
        <ele>237</ele>
        <time>2012-09-21T11:57:53Z</time>
      </trkpt>
      <trkpt lat="47.06748" lon="5.50476">
        <ele>237</ele>
        <time>2012-09-21T11:57:55Z</time>
      </trkpt>
      <trkpt lat="47.06748" lon="5.50491">
        <ele>237</ele>
        <time>2012-09-21T11:57:57Z</time>
      </trkpt>
      <trkpt lat="47.06748" lon="5.50507">
        <ele>237</ele>
        <time>2012-09-21T11:57:59Z</time>
      </trkpt>
      <trkpt lat="47.0675" lon="5.50524">
        <ele>237</ele>
        <time>2012-09-21T11:58:01Z</time>
      </trkpt>
      <trkpt lat="47.06752" lon="5.50539">
        <ele>237</ele>
        <time>2012-09-21T11:58:03Z</time>
      </trkpt>
      <trkpt lat="47.06756" lon="5.50552">
        <ele>237</ele>
        <time>2012-09-21T11:58:05Z</time>
      </trkpt>
      <trkpt lat="47.06761" lon="5.50568">
        <ele>237</ele>
        <time>2012-09-21T11:58:08Z</time>
      </trkpt>
      <trkpt lat="47.06764" lon="5.5058">
        <ele>237</ele>
        <time>2012-09-21T11:58:11Z</time>
      </trkpt>
      <trkpt lat="47.06764" lon="5.50596">
        <ele>237</ele>
        <time>2012-09-21T11:58:16Z</time>
      </trkpt>
      <trkpt lat="47.06756" lon="5.50604">
        <ele>237</ele>
        <time>2012-09-21T11:58:19Z</time>
      </trkpt>
      <trkpt lat="47.06747" lon="5.50613">
        <ele>237</ele>
        <time>2012-09-21T11:58:22Z</time>
      </trkpt>
      <trkpt lat="47.06738" lon="5.50622">
        <ele>237</ele>
        <time>2012-09-21T11:58:25Z</time>
      </trkpt>
      <trkpt lat="47.06729" lon="5.50628">
        <ele>237</ele>
        <time>2012-09-21T11:58:27Z</time>
      </trkpt>
      <trkpt lat="47.06719" lon="5.50636">
        <ele>237</ele>
        <time>2012-09-21T11:58:30Z</time>
      </trkpt>
      <trkpt lat="47.06709" lon="5.50643">
        <ele>237</ele>
        <time>2012-09-21T11:58:33Z</time>
      </trkpt>
      <trkpt lat="47.067" lon="5.50648">
        <ele>237</ele>
        <time>2012-09-21T11:58:35Z</time>
      </trkpt>
      <trkpt lat="47.06691" lon="5.50652">
        <ele>237</ele>
        <time>2012-09-21T11:58:37Z</time>
      </trkpt>
      <trkpt lat="47.06678" lon="5.5066">
        <ele>237</ele>
        <time>2012-09-21T11:58:40Z</time>
      </trkpt>
      <trkpt lat="47.06667" lon="5.50668">
        <ele>237</ele>
        <time>2012-09-21T11:58:43Z</time>
      </trkpt>
      <trkpt lat="47.06659" lon="5.50673">
        <ele>237</ele>
        <time>2012-09-21T11:58:45Z</time>
      </trkpt>
      <trkpt lat="47.0665" lon="5.50678">
        <ele>237</ele>
        <time>2012-09-21T11:58:47Z</time>
      </trkpt>
      <trkpt lat="47.0664" lon="5.50686">
        <ele>237</ele>
        <time>2012-09-21T11:58:50Z</time>
      </trkpt>
      <trkpt lat="47.0663" lon="5.50692">
        <ele>237</ele>
        <time>2012-09-21T11:58:53Z</time>
      </trkpt>
      <trkpt lat="47.06621" lon="5.50699">
        <ele>237</ele>
        <time>2012-09-21T11:58:56Z</time>
      </trkpt>
      <trkpt lat="47.06611" lon="5.50706">
        <ele>242</ele>
        <time>2012-09-21T11:58:59Z</time>
      </trkpt>
      <trkpt lat="47.066" lon="5.50713">
        <ele>242</ele>
        <time>2012-09-21T11:59:02Z</time>
      </trkpt>
      <trkpt lat="47.06589" lon="5.5072">
        <ele>242</ele>
        <time>2012-09-21T11:59:05Z</time>
      </trkpt>
      <trkpt lat="47.06578" lon="5.50727">
        <ele>242</ele>
        <time>2012-09-21T11:59:08Z</time>
      </trkpt>
      <trkpt lat="47.06567" lon="5.50735">
        <ele>242</ele>
        <time>2012-09-21T11:59:11Z</time>
      </trkpt>
      <trkpt lat="47.06556" lon="5.50742">
        <ele>242</ele>
        <time>2012-09-21T11:59:14Z</time>
      </trkpt>
      <trkpt lat="47.06544" lon="5.50751">
        <ele>242</ele>
        <time>2012-09-21T11:59:17Z</time>
      </trkpt>
      <trkpt lat="47.06532" lon="5.50759">
        <ele>242</ele>
        <time>2012-09-21T11:59:20Z</time>
      </trkpt>
      <trkpt lat="47.0652" lon="5.50766">
        <ele>242</ele>
        <time>2012-09-21T11:59:23Z</time>
      </trkpt>
      <trkpt lat="47.0651" lon="5.50774">
        <ele>249</ele>
        <time>2012-09-21T11:59:26Z</time>
      </trkpt>
      <trkpt lat="47.06497" lon="5.50782">
        <ele>249</ele>
        <time>2012-09-21T11:59:29Z</time>
      </trkpt>
      <trkpt lat="47.06487" lon="5.50789">
        <ele>249</ele>
        <time>2012-09-21T11:59:31Z</time>
      </trkpt>
      <trkpt lat="47.06478" lon="5.50795">
        <ele>249</ele>
        <time>2012-09-21T11:59:33Z</time>
      </trkpt>
      <trkpt lat="47.06469" lon="5.50801">
        <ele>249</ele>
        <time>2012-09-21T11:59:35Z</time>
      </trkpt>
      <trkpt lat="47.06461" lon="5.50807">
        <ele>249</ele>
        <time>2012-09-21T11:59:37Z</time>
      </trkpt>
      <trkpt lat="47.06449" lon="5.50816">
        <ele>249</ele>
        <time>2012-09-21T11:59:40Z</time>
      </trkpt>
      <trkpt lat="47.0644" lon="5.50822">
        <ele>249</ele>
        <time>2012-09-21T11:59:42Z</time>
      </trkpt>
      <trkpt lat="47.06431" lon="5.50827">
        <ele>249</ele>
        <time>2012-09-21T11:59:44Z</time>
      </trkpt>
      <trkpt lat="47.0642" lon="5.50833">
        <ele>249</ele>
        <time>2012-09-21T11:59:46Z</time>
      </trkpt>
      <trkpt lat="47.06409" lon="5.5084">
        <ele>249</ele>
        <time>2012-09-21T11:59:48Z</time>
      </trkpt>
      <trkpt lat="47.06401" lon="5.50847">
        <ele>249</ele>
        <time>2012-09-21T11:59:50Z</time>
      </trkpt>
      <trkpt lat="47.06393" lon="5.50853">
        <ele>249</ele>
        <time>2012-09-21T11:59:52Z</time>
      </trkpt>
      <trkpt lat="47.06383" lon="5.50863">
        <ele>249</ele>
        <time>2012-09-21T11:59:55Z</time>
      </trkpt>
      <trkpt lat="47.06374" lon="5.50869">
        <ele>249</ele>
        <time>2012-09-21T11:59:57Z</time>
      </trkpt>
      <trkpt lat="47.06363" lon="5.50876">
        <ele>249</ele>
        <time>2012-09-21T11:59:59Z</time>
      </trkpt>
      <trkpt lat="47.06352" lon="5.50883">
        <ele>249</ele>
        <time>2012-09-21T12:00:01Z</time>
      </trkpt>
      <trkpt lat="47.0634" lon="5.50889">
        <ele>249</ele>
        <time>2012-09-21T12:00:03Z</time>
      </trkpt>
      <trkpt lat="47.06328" lon="5.50896">
        <ele>249</ele>
        <time>2012-09-21T12:00:05Z</time>
      </trkpt>
      <trkpt lat="47.06316" lon="5.50904">
        <ele>244</ele>
        <time>2012-09-21T12:00:07Z</time>
      </trkpt>
      <trkpt lat="47.06304" lon="5.50911">
        <ele>244</ele>
        <time>2012-09-21T12:00:09Z</time>
      </trkpt>
      <trkpt lat="47.06292" lon="5.50917">
        <ele>244</ele>
        <time>2012-09-21T12:00:11Z</time>
      </trkpt>
      <trkpt lat="47.06281" lon="5.50924">
        <ele>244</ele>
        <time>2012-09-21T12:00:13Z</time>
      </trkpt>
      <trkpt lat="47.06269" lon="5.50931">
        <ele>244</ele>
        <time>2012-09-21T12:00:15Z</time>
      </trkpt>
      <trkpt lat="47.06261" lon="5.50939">
        <ele>238</ele>
        <time>2012-09-21T12:00:17Z</time>
      </trkpt>
      <trkpt lat="47.0625" lon="5.50946">
        <ele>238</ele>
        <time>2012-09-21T12:00:19Z</time>
      </trkpt>
      <trkpt lat="47.06239" lon="5.50953">
        <ele>238</ele>
        <time>2012-09-21T12:00:21Z</time>
      </trkpt>
      <trkpt lat="47.06231" lon="5.50962">
        <ele>238</ele>
        <time>2012-09-21T12:00:23Z</time>
      </trkpt>
      <trkpt lat="47.06221" lon="5.50969">
        <ele>238</ele>
        <time>2012-09-21T12:00:25Z</time>
      </trkpt>
      <trkpt lat="47.0621" lon="5.50975">
        <ele>238</ele>
        <time>2012-09-21T12:00:27Z</time>
      </trkpt>
      <trkpt lat="47.06198" lon="5.50984">
        <ele>238</ele>
        <time>2012-09-21T12:00:29Z</time>
      </trkpt>
      <trkpt lat="47.06184" lon="5.50993">
        <ele>238</ele>
        <time>2012-09-21T12:00:31Z</time>
      </trkpt>
      <trkpt lat="47.06171" lon="5.51001">
        <ele>238</ele>
        <time>2012-09-21T12:00:33Z</time>
      </trkpt>
      <trkpt lat="47.06159" lon="5.51012">
        <ele>238</ele>
        <time>2012-09-21T12:00:35Z</time>
      </trkpt>
      <trkpt lat="47.06144" lon="5.51021">
        <ele>238</ele>
        <time>2012-09-21T12:00:37Z</time>
      </trkpt>
      <trkpt lat="47.0613" lon="5.51032">
        <ele>238</ele>
        <time>2012-09-21T12:00:39Z</time>
      </trkpt>
      <trkpt lat="47.06118" lon="5.51043">
        <ele>238</ele>
        <time>2012-09-21T12:00:41Z</time>
      </trkpt>
      <trkpt lat="47.06107" lon="5.51052">
        <ele>244</ele>
        <time>2012-09-21T12:00:43Z</time>
      </trkpt>
      <trkpt lat="47.06092" lon="5.51062">
        <ele>244</ele>
        <time>2012-09-21T12:00:45Z</time>
      </trkpt>
      <trkpt lat="47.06079" lon="5.51071">
        <ele>249</ele>
        <time>2012-09-21T12:00:47Z</time>
      </trkpt>
      <trkpt lat="47.06066" lon="5.5108">
        <ele>249</ele>
        <time>2012-09-21T12:00:49Z</time>
      </trkpt>
      <trkpt lat="47.06054" lon="5.51088">
        <ele>249</ele>
        <time>2012-09-21T12:00:51Z</time>
      </trkpt>
      <trkpt lat="47.06045" lon="5.51094">
        <ele>249</ele>
        <time>2012-09-21T12:00:53Z</time>
      </trkpt>
      <trkpt lat="47.06034" lon="5.511">
        <ele>249</ele>
        <time>2012-09-21T12:00:55Z</time>
      </trkpt>
      <trkpt lat="47.06024" lon="5.51107">
        <ele>249</ele>
        <time>2012-09-21T12:00:57Z</time>
      </trkpt>
      <trkpt lat="47.06015" lon="5.51114">
        <ele>249</ele>
        <time>2012-09-21T12:00:59Z</time>
      </trkpt>
      <trkpt lat="47.06004" lon="5.51123">
        <ele>249</ele>
        <time>2012-09-21T12:01:02Z</time>
      </trkpt>
      <trkpt lat="47.05996" lon="5.51128">
        <ele>258</ele>
        <time>2012-09-21T12:01:04Z</time>
      </trkpt>
      <trkpt lat="47.05986" lon="5.51134">
        <ele>258</ele>
        <time>2012-09-21T12:01:06Z</time>
      </trkpt>
      <trkpt lat="47.05978" lon="5.51141">
        <ele>264</ele>
        <time>2012-09-21T12:01:08Z</time>
      </trkpt>
      <trkpt lat="47.05969" lon="5.51146">
        <ele>264</ele>
        <time>2012-09-21T12:01:10Z</time>
      </trkpt>
      <trkpt lat="47.0596" lon="5.51152">
        <ele>264</ele>
        <time>2012-09-21T12:01:12Z</time>
      </trkpt>
      <trkpt lat="47.0595" lon="5.51163">
        <ele>271</ele>
        <time>2012-09-21T12:01:15Z</time>
      </trkpt>
      <trkpt lat="47.05941" lon="5.51169">
        <ele>271</ele>
        <time>2012-09-21T12:01:17Z</time>
      </trkpt>
      <trkpt lat="47.05931" lon="5.51175">
        <ele>271</ele>
        <time>2012-09-21T12:01:19Z</time>
      </trkpt>
      <trkpt lat="47.05921" lon="5.51182">
        <ele>271</ele>
        <time>2012-09-21T12:01:21Z</time>
      </trkpt>
      <trkpt lat="47.05912" lon="5.51188">
        <ele>271</ele>
        <time>2012-09-21T12:01:23Z</time>
      </trkpt>
      <trkpt lat="47.05903" lon="5.51195">
        <ele>271</ele>
        <time>2012-09-21T12:01:25Z</time>
      </trkpt>
      <trkpt lat="47.05891" lon="5.51201">
        <ele>271</ele>
        <time>2012-09-21T12:01:27Z</time>
      </trkpt>
      <trkpt lat="47.0588" lon="5.51207">
        <ele>271</ele>
        <time>2012-09-21T12:01:29Z</time>
      </trkpt>
      <trkpt lat="47.05868" lon="5.51214">
        <ele>266</ele>
        <time>2012-09-21T12:01:31Z</time>
      </trkpt>
      <trkpt lat="47.05857" lon="5.51222">
        <ele>266</ele>
        <time>2012-09-21T12:01:33Z</time>
      </trkpt>
      <trkpt lat="47.05848" lon="5.51228">
        <ele>266</ele>
        <time>2012-09-21T12:01:35Z</time>
      </trkpt>
      <trkpt lat="47.05837" lon="5.51235">
        <ele>258</ele>
        <time>2012-09-21T12:01:37Z</time>
      </trkpt>
      <trkpt lat="47.05826" lon="5.51241">
        <ele>258</ele>
        <time>2012-09-21T12:01:39Z</time>
      </trkpt>
      <trkpt lat="47.05815" lon="5.51248">
        <ele>258</ele>
        <time>2012-09-21T12:01:41Z</time>
      </trkpt>
      <trkpt lat="47.05802" lon="5.51255">
        <ele>252</ele>
        <time>2012-09-21T12:01:43Z</time>
      </trkpt>
      <trkpt lat="47.05791" lon="5.51262">
        <ele>252</ele>
        <time>2012-09-21T12:01:45Z</time>
      </trkpt>
      <trkpt lat="47.05777" lon="5.51268">
        <ele>252</ele>
        <time>2012-09-21T12:01:47Z</time>
      </trkpt>
      <trkpt lat="47.05764" lon="5.51275">
        <ele>244</ele>
        <time>2012-09-21T12:01:49Z</time>
      </trkpt>
      <trkpt lat="47.05751" lon="5.5128">
        <ele>244</ele>
        <time>2012-09-21T12:01:51Z</time>
      </trkpt>
      <trkpt lat="47.05737" lon="5.51286">
        <ele>244</ele>
        <time>2012-09-21T12:01:53Z</time>
      </trkpt>
      <trkpt lat="47.05724" lon="5.51291">
        <ele>238</ele>
        <time>2012-09-21T12:01:55Z</time>
      </trkpt>
      <trkpt lat="47.05711" lon="5.51296">
        <ele>238</ele>
        <time>2012-09-21T12:01:57Z</time>
      </trkpt>
      <trkpt lat="47.05697" lon="5.51301">
        <ele>238</ele>
        <time>2012-09-21T12:01:59Z</time>
      </trkpt>
      <trkpt lat="47.05684" lon="5.51305">
        <ele>238</ele>
        <time>2012-09-21T12:02:01Z</time>
      </trkpt>
      <trkpt lat="47.05672" lon="5.5131">
        <ele>238</ele>
        <time>2012-09-21T12:02:03Z</time>
      </trkpt>
      <trkpt lat="47.05661" lon="5.51314">
        <ele>238</ele>
        <time>2012-09-21T12:02:05Z</time>
      </trkpt>
      <trkpt lat="47.05649" lon="5.51319">
        <ele>238</ele>
        <time>2012-09-21T12:02:07Z</time>
      </trkpt>
      <trkpt lat="47.05638" lon="5.51323">
        <ele>238</ele>
        <time>2012-09-21T12:02:09Z</time>
      </trkpt>
      <trkpt lat="47.05627" lon="5.51328">
        <ele>238</ele>
        <time>2012-09-21T12:02:11Z</time>
      </trkpt>
      <trkpt lat="47.05616" lon="5.51332">
        <ele>238</ele>
        <time>2012-09-21T12:02:13Z</time>
      </trkpt>
      <trkpt lat="47.05605" lon="5.51336">
        <ele>238</ele>
        <time>2012-09-21T12:02:15Z</time>
      </trkpt>
      <trkpt lat="47.05597" lon="5.5134">
        <ele>238</ele>
        <time>2012-09-21T12:02:17Z</time>
      </trkpt>
      <trkpt lat="47.05587" lon="5.51345">
        <ele>238</ele>
        <time>2012-09-21T12:02:19Z</time>
      </trkpt>
      <trkpt lat="47.05578" lon="5.51349">
        <ele>238</ele>
        <time>2012-09-21T12:02:21Z</time>
      </trkpt>
      <trkpt lat="47.05567" lon="5.51355">
        <ele>246</ele>
        <time>2012-09-21T12:02:24Z</time>
      </trkpt>
      <trkpt lat="47.05558" lon="5.51358">
        <ele>246</ele>
        <time>2012-09-21T12:02:26Z</time>
      </trkpt>
      <trkpt lat="47.05549" lon="5.51362">
        <ele>246</ele>
        <time>2012-09-21T12:02:28Z</time>
      </trkpt>
      <trkpt lat="47.05539" lon="5.51365">
        <ele>246</ele>
        <time>2012-09-21T12:02:30Z</time>
      </trkpt>
      <trkpt lat="47.05527" lon="5.51373">
        <ele>246</ele>
        <time>2012-09-21T12:02:33Z</time>
      </trkpt>
      <trkpt lat="47.05516" lon="5.51378">
        <ele>252</ele>
        <time>2012-09-21T12:02:36Z</time>
      </trkpt>
      <trkpt lat="47.05504" lon="5.51382">
        <ele>252</ele>
        <time>2012-09-21T12:02:39Z</time>
      </trkpt>
      <trkpt lat="47.05492" lon="5.51389">
        <ele>252</ele>
        <time>2012-09-21T12:02:42Z</time>
      </trkpt>
      <trkpt lat="47.05479" lon="5.51394">
        <ele>258</ele>
        <time>2012-09-21T12:02:45Z</time>
      </trkpt>
      <trkpt lat="47.05469" lon="5.51397">
        <ele>258</ele>
        <time>2012-09-21T12:02:47Z</time>
      </trkpt>
      <trkpt lat="47.05459" lon="5.51399">
        <ele>258</ele>
        <time>2012-09-21T12:02:49Z</time>
      </trkpt>
      <trkpt lat="47.0545" lon="5.51403">
        <ele>258</ele>
        <time>2012-09-21T12:02:51Z</time>
      </trkpt>
      <trkpt lat="47.05441" lon="5.51407">
        <ele>258</ele>
        <time>2012-09-21T12:02:53Z</time>
      </trkpt>
      <trkpt lat="47.05432" lon="5.51411">
        <ele>258</ele>
        <time>2012-09-21T12:02:55Z</time>
      </trkpt>
      <trkpt lat="47.05422" lon="5.51416">
        <ele>258</ele>
        <time>2012-09-21T12:02:57Z</time>
      </trkpt>
      <trkpt lat="47.05412" lon="5.51419">
        <ele>258</ele>
        <time>2012-09-21T12:02:59Z</time>
      </trkpt>
      <trkpt lat="47.05401" lon="5.51424">
        <ele>258</ele>
        <time>2012-09-21T12:03:01Z</time>
      </trkpt>
      <trkpt lat="47.05392" lon="5.51427">
        <ele>258</ele>
        <time>2012-09-21T12:03:03Z</time>
      </trkpt>
      <trkpt lat="47.05379" lon="5.51435">
        <ele>258</ele>
        <time>2012-09-21T12:03:06Z</time>
      </trkpt>
      <trkpt lat="47.0537" lon="5.51437">
        <ele>258</ele>
        <time>2012-09-21T12:03:08Z</time>
      </trkpt>
      <trkpt lat="47.0536" lon="5.5144">
        <ele>258</ele>
        <time>2012-09-21T12:03:10Z</time>
      </trkpt>
      <trkpt lat="47.0535" lon="5.51443">
        <ele>258</ele>
        <time>2012-09-21T12:03:12Z</time>
      </trkpt>
      <trkpt lat="47.05341" lon="5.51446">
        <ele>258</ele>
        <time>2012-09-21T12:03:14Z</time>
      </trkpt>
      <trkpt lat="47.05331" lon="5.51451">
        <ele>258</ele>
        <time>2012-09-21T12:03:16Z</time>
      </trkpt>
      <trkpt lat="47.0532" lon="5.51455">
        <ele>258</ele>
        <time>2012-09-21T12:03:18Z</time>
      </trkpt>
      <trkpt lat="47.0531" lon="5.5146">
        <ele>258</ele>
        <time>2012-09-21T12:03:20Z</time>
      </trkpt>
      <trkpt lat="47.053" lon="5.51464">
        <ele>258</ele>
        <time>2012-09-21T12:03:22Z</time>
      </trkpt>
      <trkpt lat="47.0529" lon="5.51469">
        <ele>258</ele>
        <time>2012-09-21T12:03:24Z</time>
      </trkpt>
      <trkpt lat="47.05281" lon="5.51474">
        <ele>258</ele>
        <time>2012-09-21T12:03:26Z</time>
      </trkpt>
      <trkpt lat="47.0527" lon="5.51479">
        <ele>258</ele>
        <time>2012-09-21T12:03:28Z</time>
      </trkpt>
      <trkpt lat="47.05261" lon="5.51486">
        <ele>258</ele>
        <time>2012-09-21T12:03:30Z</time>
      </trkpt>
      <trkpt lat="47.0525" lon="5.5149">
        <ele>258</ele>
        <time>2012-09-21T12:03:32Z</time>
      </trkpt>
      <trkpt lat="47.05238" lon="5.51495">
        <ele>258</ele>
        <time>2012-09-21T12:03:34Z</time>
      </trkpt>
      <trkpt lat="47.05227" lon="5.51499">
        <ele>258</ele>
        <time>2012-09-21T12:03:36Z</time>
      </trkpt>
      <trkpt lat="47.05216" lon="5.51504">
        <ele>258</ele>
        <time>2012-09-21T12:03:38Z</time>
      </trkpt>
      <trkpt lat="47.05204" lon="5.51509">
        <ele>258</ele>
        <time>2012-09-21T12:03:40Z</time>
      </trkpt>
      <trkpt lat="47.05194" lon="5.51514">
        <ele>252</ele>
        <time>2012-09-21T12:03:42Z</time>
      </trkpt>
      <trkpt lat="47.05182" lon="5.51519">
        <ele>252</ele>
        <time>2012-09-21T12:03:44Z</time>
      </trkpt>
      <trkpt lat="47.05171" lon="5.51524">
        <ele>252</ele>
        <time>2012-09-21T12:03:46Z</time>
      </trkpt>
      <trkpt lat="47.05159" lon="5.51531">
        <ele>252</ele>
        <time>2012-09-21T12:03:48Z</time>
      </trkpt>
      <trkpt lat="47.05146" lon="5.51538">
        <ele>246</ele>
        <time>2012-09-21T12:03:50Z</time>
      </trkpt>
      <trkpt lat="47.05133" lon="5.51544">
        <ele>246</ele>
        <time>2012-09-21T12:03:52Z</time>
      </trkpt>
      <trkpt lat="47.0512" lon="5.51551">
        <ele>246</ele>
        <time>2012-09-21T12:03:54Z</time>
      </trkpt>
      <trkpt lat="47.05106" lon="5.51558">
        <ele>246</ele>
        <time>2012-09-21T12:03:56Z</time>
      </trkpt>
      <trkpt lat="47.05092" lon="5.51567">
        <ele>246</ele>
        <time>2012-09-21T12:03:58Z</time>
      </trkpt>
      <trkpt lat="47.05077" lon="5.51575">
        <ele>246</ele>
        <time>2012-09-21T12:04:00Z</time>
      </trkpt>
      <trkpt lat="47.05063" lon="5.51584">
        <ele>240</ele>
        <time>2012-09-21T12:04:02Z</time>
      </trkpt>
      <trkpt lat="47.0505" lon="5.51593">
        <ele>240</ele>
        <time>2012-09-21T12:04:04Z</time>
      </trkpt>
      <trkpt lat="47.05037" lon="5.51602">
        <ele>240</ele>
        <time>2012-09-21T12:04:06Z</time>
      </trkpt>
      <trkpt lat="47.05022" lon="5.5161">
        <ele>240</ele>
        <time>2012-09-21T12:04:08Z</time>
      </trkpt>
      <trkpt lat="47.05008" lon="5.5162">
        <ele>240</ele>
        <time>2012-09-21T12:04:10Z</time>
      </trkpt>
      <trkpt lat="47.04994" lon="5.51629">
        <ele>240</ele>
        <time>2012-09-21T12:04:12Z</time>
      </trkpt>
      <trkpt lat="47.0498" lon="5.51637">
        <ele>240</ele>
        <time>2012-09-21T12:04:14Z</time>
      </trkpt>
      <trkpt lat="47.04965" lon="5.51646">
        <ele>240</ele>
        <time>2012-09-21T12:04:16Z</time>
      </trkpt>
      <trkpt lat="47.04948" lon="5.51655">
        <ele>240</ele>
        <time>2012-09-21T12:04:18Z</time>
      </trkpt>
      <trkpt lat="47.0494" lon="5.51659">
        <ele>240</ele>
        <time>2012-09-21T12:04:19Z</time>
      </trkpt>
      <trkpt lat="47.04925" lon="5.51668">
        <ele>240</ele>
        <time>2012-09-21T12:04:21Z</time>
      </trkpt>
      <trkpt lat="47.04908" lon="5.51676">
        <ele>240</ele>
        <time>2012-09-21T12:04:23Z</time>
      </trkpt>
      <trkpt lat="47.04894" lon="5.51688">
        <ele>240</ele>
        <time>2012-09-21T12:04:25Z</time>
      </trkpt>
      <trkpt lat="47.04878" lon="5.51697">
        <ele>240</ele>
        <time>2012-09-21T12:04:27Z</time>
      </trkpt>
      <trkpt lat="47.04869" lon="5.517">
        <ele>240</ele>
        <time>2012-09-21T12:04:28Z</time>
      </trkpt>
      <trkpt lat="47.04861" lon="5.51704">
        <ele>240</ele>
        <time>2012-09-21T12:04:29Z</time>
      </trkpt>
      <trkpt lat="47.04852" lon="5.51708">
        <ele>240</ele>
        <time>2012-09-21T12:04:30Z</time>
      </trkpt>
      <trkpt lat="47.04843" lon="5.51713">
        <ele>240</ele>
        <time>2012-09-21T12:04:31Z</time>
      </trkpt>
      <trkpt lat="47.04834" lon="5.51717">
        <ele>234</ele>
        <time>2012-09-21T12:04:32Z</time>
      </trkpt>
      <trkpt lat="47.04817" lon="5.51726">
        <ele>234</ele>
        <time>2012-09-21T12:04:34Z</time>
      </trkpt>
      <trkpt lat="47.04808" lon="5.51729">
        <ele>234</ele>
        <time>2012-09-21T12:04:35Z</time>
      </trkpt>
      <trkpt lat="47.048" lon="5.51733">
        <ele>234</ele>
        <time>2012-09-21T12:04:36Z</time>
      </trkpt>
      <trkpt lat="47.04791" lon="5.51737">
        <ele>234</ele>
        <time>2012-09-21T12:04:37Z</time>
      </trkpt>
      <trkpt lat="47.04775" lon="5.51745">
        <ele>229</ele>
        <time>2012-09-21T12:04:39Z</time>
      </trkpt>
      <trkpt lat="47.04759" lon="5.51753">
        <ele>229</ele>
        <time>2012-09-21T12:04:41Z</time>
      </trkpt>
      <trkpt lat="47.04743" lon="5.51763">
        <ele>229</ele>
        <time>2012-09-21T12:04:43Z</time>
      </trkpt>
      <trkpt lat="47.04725" lon="5.51773">
        <ele>229</ele>
        <time>2012-09-21T12:04:45Z</time>
      </trkpt>
      <trkpt lat="47.04717" lon="5.51778">
        <ele>229</ele>
        <time>2012-09-21T12:04:46Z</time>
      </trkpt>
      <trkpt lat="47.04708" lon="5.51783">
        <ele>229</ele>
        <time>2012-09-21T12:04:47Z</time>
      </trkpt>
      <trkpt lat="47.047" lon="5.51788">
        <ele>224</ele>
        <time>2012-09-21T12:04:48Z</time>
      </trkpt>
      <trkpt lat="47.04691" lon="5.51795">
        <ele>224</ele>
        <time>2012-09-21T12:04:49Z</time>
      </trkpt>
      <trkpt lat="47.04682" lon="5.51802">
        <ele>224</ele>
        <time>2012-09-21T12:04:50Z</time>
      </trkpt>
      <trkpt lat="47.04674" lon="5.51808">
        <ele>224</ele>
        <time>2012-09-21T12:04:51Z</time>
      </trkpt>
      <trkpt lat="47.04665" lon="5.51815">
        <ele>224</ele>
        <time>2012-09-21T12:04:52Z</time>
      </trkpt>
      <trkpt lat="47.04655" lon="5.51823">
        <ele>224</ele>
        <time>2012-09-21T12:04:53Z</time>
      </trkpt>
      <trkpt lat="47.04646" lon="5.5183">
        <ele>224</ele>
        <time>2012-09-21T12:04:54Z</time>
      </trkpt>
      <trkpt lat="47.04638" lon="5.51837">
        <ele>224</ele>
        <time>2012-09-21T12:04:55Z</time>
      </trkpt>
      <trkpt lat="47.04628" lon="5.51844">
        <ele>218</ele>
        <time>2012-09-21T12:04:56Z</time>
      </trkpt>
      <trkpt lat="47.04619" lon="5.51853">
        <ele>218</ele>
        <time>2012-09-21T12:04:57Z</time>
      </trkpt>
      <trkpt lat="47.04611" lon="5.51861">
        <ele>218</ele>
        <time>2012-09-21T12:04:58Z</time>
      </trkpt>
      <trkpt lat="47.04601" lon="5.51869">
        <ele>218</ele>
        <time>2012-09-21T12:04:59Z</time>
      </trkpt>
      <trkpt lat="47.04593" lon="5.51877">
        <ele>218</ele>
        <time>2012-09-21T12:05:00Z</time>
      </trkpt>
      <trkpt lat="47.04584" lon="5.51885">
        <ele>218</ele>
        <time>2012-09-21T12:05:01Z</time>
      </trkpt>
      <trkpt lat="47.04575" lon="5.51894">
        <ele>218</ele>
        <time>2012-09-21T12:05:02Z</time>
      </trkpt>
      <trkpt lat="47.04566" lon="5.51903">
        <ele>218</ele>
        <time>2012-09-21T12:05:03Z</time>
      </trkpt>
      <trkpt lat="47.04557" lon="5.51912">
        <ele>218</ele>
        <time>2012-09-21T12:05:04Z</time>
      </trkpt>
      <trkpt lat="47.04549" lon="5.51922">
        <ele>218</ele>
        <time>2012-09-21T12:05:05Z</time>
      </trkpt>
      <trkpt lat="47.0454" lon="5.51931">
        <ele>218</ele>
        <time>2012-09-21T12:05:06Z</time>
      </trkpt>
      <trkpt lat="47.04531" lon="5.5194">
        <ele>218</ele>
        <time>2012-09-21T12:05:07Z</time>
      </trkpt>
      <trkpt lat="47.04523" lon="5.5195">
        <ele>218</ele>
        <time>2012-09-21T12:05:08Z</time>
      </trkpt>
      <trkpt lat="47.04516" lon="5.51959">
        <ele>218</ele>
        <time>2012-09-21T12:05:09Z</time>
      </trkpt>
      <trkpt lat="47.04508" lon="5.51967">
        <ele>218</ele>
        <time>2012-09-21T12:05:10Z</time>
      </trkpt>
      <trkpt lat="47.04501" lon="5.51975">
        <ele>218</ele>
        <time>2012-09-21T12:05:11Z</time>
      </trkpt>
      <trkpt lat="47.04488" lon="5.51991">
        <ele>218</ele>
        <time>2012-09-21T12:05:13Z</time>
      </trkpt>
      <trkpt lat="47.04477" lon="5.52006">
        <ele>218</ele>
        <time>2012-09-21T12:05:15Z</time>
      </trkpt>
      <trkpt lat="47.04469" lon="5.52021">
        <ele>218</ele>
        <time>2012-09-21T12:05:17Z</time>
      </trkpt>
      <trkpt lat="47.04462" lon="5.52035">
        <ele>218</ele>
        <time>2012-09-21T12:05:19Z</time>
      </trkpt>
      <trkpt lat="47.04456" lon="5.52051">
        <ele>218</ele>
        <time>2012-09-21T12:05:21Z</time>
      </trkpt>
      <trkpt lat="47.0445" lon="5.52064">
        <ele>218</ele>
        <time>2012-09-21T12:05:23Z</time>
      </trkpt>
      <trkpt lat="47.04444" lon="5.52076">
        <ele>218</ele>
        <time>2012-09-21T12:05:25Z</time>
      </trkpt>
      <trkpt lat="47.04437" lon="5.52088">
        <ele>218</ele>
        <time>2012-09-21T12:05:27Z</time>
      </trkpt>
      <trkpt lat="47.04432" lon="5.52099">
        <ele>218</ele>
        <time>2012-09-21T12:05:29Z</time>
      </trkpt>
      <trkpt lat="47.04426" lon="5.52111">
        <ele>218</ele>
        <time>2012-09-21T12:05:31Z</time>
      </trkpt>
      <trkpt lat="47.04421" lon="5.52123">
        <ele>218</ele>
        <time>2012-09-21T12:05:33Z</time>
      </trkpt>
      <trkpt lat="47.04415" lon="5.52133">
        <ele>223</ele>
        <time>2012-09-21T12:05:35Z</time>
      </trkpt>
      <trkpt lat="47.0441" lon="5.52145">
        <ele>223</ele>
        <time>2012-09-21T12:05:37Z</time>
      </trkpt>
      <trkpt lat="47.04404" lon="5.52156">
        <ele>223</ele>
        <time>2012-09-21T12:05:39Z</time>
      </trkpt>
      <trkpt lat="47.04399" lon="5.52167">
        <ele>223</ele>
        <time>2012-09-21T12:05:41Z</time>
      </trkpt>
      <trkpt lat="47.04393" lon="5.52177">
        <ele>223</ele>
        <time>2012-09-21T12:05:43Z</time>
      </trkpt>
      <trkpt lat="47.04387" lon="5.52189">
        <ele>223</ele>
        <time>2012-09-21T12:05:45Z</time>
      </trkpt>
      <trkpt lat="47.04382" lon="5.52201">
        <ele>223</ele>
        <time>2012-09-21T12:05:47Z</time>
      </trkpt>
      <trkpt lat="47.04377" lon="5.52212">
        <ele>223</ele>
        <time>2012-09-21T12:05:49Z</time>
      </trkpt>
      <trkpt lat="47.04371" lon="5.52223">
        <ele>223</ele>
        <time>2012-09-21T12:05:51Z</time>
      </trkpt>
      <trkpt lat="47.04366" lon="5.52235">
        <ele>223</ele>
        <time>2012-09-21T12:05:53Z</time>
      </trkpt>
      <trkpt lat="47.04359" lon="5.52247">
        <ele>223</ele>
        <time>2012-09-21T12:05:55Z</time>
      </trkpt>
      <trkpt lat="47.04354" lon="5.52259">
        <ele>223</ele>
        <time>2012-09-21T12:05:57Z</time>
      </trkpt>
      <trkpt lat="47.04347" lon="5.52275">
        <ele>223</ele>
        <time>2012-09-21T12:06:00Z</time>
      </trkpt>
      <trkpt lat="47.0434" lon="5.52291">
        <ele>223</ele>
        <time>2012-09-21T12:06:03Z</time>
      </trkpt>
      <trkpt lat="47.04334" lon="5.52302">
        <ele>223</ele>
        <time>2012-09-21T12:06:05Z</time>
      </trkpt>
      <trkpt lat="47.04329" lon="5.52314">
        <ele>223</ele>
        <time>2012-09-21T12:06:07Z</time>
      </trkpt>
      <trkpt lat="47.04323" lon="5.52327">
        <ele>223</ele>
        <time>2012-09-21T12:06:09Z</time>
      </trkpt>
      <trkpt lat="47.04317" lon="5.52339">
        <ele>223</ele>
        <time>2012-09-21T12:06:11Z</time>
      </trkpt>
      <trkpt lat="47.0431" lon="5.52351">
        <ele>223</ele>
        <time>2012-09-21T12:06:13Z</time>
      </trkpt>
      <trkpt lat="47.04304" lon="5.52363">
        <ele>223</ele>
        <time>2012-09-21T12:06:15Z</time>
      </trkpt>
      <trkpt lat="47.04297" lon="5.52376">
        <ele>223</ele>
        <time>2012-09-21T12:06:17Z</time>
      </trkpt>
      <trkpt lat="47.04291" lon="5.52388">
        <ele>223</ele>
        <time>2012-09-21T12:06:19Z</time>
      </trkpt>
      <trkpt lat="47.04284" lon="5.52402">
        <ele>223</ele>
        <time>2012-09-21T12:06:21Z</time>
      </trkpt>
      <trkpt lat="47.04277" lon="5.52415">
        <ele>223</ele>
        <time>2012-09-21T12:06:23Z</time>
      </trkpt>
      <trkpt lat="47.0427" lon="5.52429">
        <ele>223</ele>
        <time>2012-09-21T12:06:25Z</time>
      </trkpt>
      <trkpt lat="47.04263" lon="5.52441">
        <ele>223</ele>
        <time>2012-09-21T12:06:27Z</time>
      </trkpt>
      <trkpt lat="47.04256" lon="5.52456">
        <ele>223</ele>
        <time>2012-09-21T12:06:29Z</time>
      </trkpt>
      <trkpt lat="47.04249" lon="5.5247">
        <ele>223</ele>
        <time>2012-09-21T12:06:31Z</time>
      </trkpt>
      <trkpt lat="47.04242" lon="5.52485">
        <ele>223</ele>
        <time>2012-09-21T12:06:33Z</time>
      </trkpt>
      <trkpt lat="47.04235" lon="5.52498">
        <ele>223</ele>
        <time>2012-09-21T12:06:35Z</time>
      </trkpt>
      <trkpt lat="47.04228" lon="5.52512">
        <ele>223</ele>
        <time>2012-09-21T12:06:37Z</time>
      </trkpt>
      <trkpt lat="47.04221" lon="5.52526">
        <ele>223</ele>
        <time>2012-09-21T12:06:39Z</time>
      </trkpt>
      <trkpt lat="47.04213" lon="5.5254">
        <ele>229</ele>
        <time>2012-09-21T12:06:41Z</time>
      </trkpt>
      <trkpt lat="47.04206" lon="5.52555">
        <ele>229</ele>
        <time>2012-09-21T12:06:43Z</time>
      </trkpt>
      <trkpt lat="47.04199" lon="5.52568">
        <ele>229</ele>
        <time>2012-09-21T12:06:45Z</time>
      </trkpt>
      <trkpt lat="47.04191" lon="5.52582">
        <ele>229</ele>
        <time>2012-09-21T12:06:47Z</time>
      </trkpt>
      <trkpt lat="47.04184" lon="5.52595">
        <ele>229</ele>
        <time>2012-09-21T12:06:49Z</time>
      </trkpt>
      <trkpt lat="47.04177" lon="5.52609">
        <ele>229</ele>
        <time>2012-09-21T12:06:51Z</time>
      </trkpt>
      <trkpt lat="47.0417" lon="5.52622">
        <ele>229</ele>
        <time>2012-09-21T12:06:53Z</time>
      </trkpt>
      <trkpt lat="47.04162" lon="5.52636">
        <ele>229</ele>
        <time>2012-09-21T12:06:55Z</time>
      </trkpt>
      <trkpt lat="47.04156" lon="5.52651">
        <ele>229</ele>
        <time>2012-09-21T12:06:57Z</time>
      </trkpt>
      <trkpt lat="47.0415" lon="5.52665">
        <ele>229</ele>
        <time>2012-09-21T12:06:59Z</time>
      </trkpt>
      <trkpt lat="47.04143" lon="5.5268">
        <ele>229</ele>
        <time>2012-09-21T12:07:01Z</time>
      </trkpt>
      <trkpt lat="47.04134" lon="5.52695">
        <ele>229</ele>
        <time>2012-09-21T12:07:03Z</time>
      </trkpt>
      <trkpt lat="47.04126" lon="5.5271">
        <ele>229</ele>
        <time>2012-09-21T12:07:05Z</time>
      </trkpt>
      <trkpt lat="47.04118" lon="5.52725">
        <ele>229</ele>
        <time>2012-09-21T12:07:07Z</time>
      </trkpt>
      <trkpt lat="47.04109" lon="5.52741">
        <ele>229</ele>
        <time>2012-09-21T12:07:09Z</time>
      </trkpt>
      <trkpt lat="47.04101" lon="5.52757">
        <ele>229</ele>
        <time>2012-09-21T12:07:11Z</time>
      </trkpt>
      <trkpt lat="47.04092" lon="5.52773">
        <ele>229</ele>
        <time>2012-09-21T12:07:13Z</time>
      </trkpt>
      <trkpt lat="47.04085" lon="5.52787">
        <ele>229</ele>
        <time>2012-09-21T12:07:15Z</time>
      </trkpt>
      <trkpt lat="47.04077" lon="5.52801">
        <ele>229</ele>
        <time>2012-09-21T12:07:17Z</time>
      </trkpt>
      <trkpt lat="47.04069" lon="5.52815">
        <ele>229</ele>
        <time>2012-09-21T12:07:19Z</time>
      </trkpt>
      <trkpt lat="47.04062" lon="5.52829">
        <ele>229</ele>
        <time>2012-09-21T12:07:21Z</time>
      </trkpt>
      <trkpt lat="47.04054" lon="5.52842">
        <ele>229</ele>
        <time>2012-09-21T12:07:23Z</time>
      </trkpt>
      <trkpt lat="47.04044" lon="5.52856">
        <ele>229</ele>
        <time>2012-09-21T12:07:25Z</time>
      </trkpt>
      <trkpt lat="47.04035" lon="5.52869">
        <ele>229</ele>
        <time>2012-09-21T12:07:27Z</time>
      </trkpt>
      <trkpt lat="47.04025" lon="5.52883">
        <ele>229</ele>
        <time>2012-09-21T12:07:29Z</time>
      </trkpt>
      <trkpt lat="47.04016" lon="5.52897">
        <ele>229</ele>
        <time>2012-09-21T12:07:31Z</time>
      </trkpt>
      <trkpt lat="47.04004" lon="5.52911">
        <ele>229</ele>
        <time>2012-09-21T12:07:33Z</time>
      </trkpt>
      <trkpt lat="47.03992" lon="5.52927">
        <ele>229</ele>
        <time>2012-09-21T12:07:35Z</time>
      </trkpt>
      <trkpt lat="47.0398" lon="5.52944">
        <ele>229</ele>
        <time>2012-09-21T12:07:37Z</time>
      </trkpt>
      <trkpt lat="47.03967" lon="5.5296">
        <ele>223</ele>
        <time>2012-09-21T12:07:39Z</time>
      </trkpt>
      <trkpt lat="47.03954" lon="5.52977">
        <ele>223</ele>
        <time>2012-09-21T12:07:41Z</time>
      </trkpt>
      <trkpt lat="47.03947" lon="5.52987">
        <ele>223</ele>
        <time>2012-09-21T12:07:42Z</time>
      </trkpt>
      <trkpt lat="47.03936" lon="5.53006">
        <ele>223</ele>
        <time>2012-09-21T12:07:44Z</time>
      </trkpt>
      <trkpt lat="47.03927" lon="5.53023">
        <ele>223</ele>
        <time>2012-09-21T12:07:46Z</time>
      </trkpt>
      <trkpt lat="47.03919" lon="5.5304">
        <ele>223</ele>
        <time>2012-09-21T12:07:48Z</time>
      </trkpt>
      <trkpt lat="47.03912" lon="5.53054">
        <ele>223</ele>
        <time>2012-09-21T12:07:50Z</time>
      </trkpt>
      <trkpt lat="47.03906" lon="5.53067">
        <ele>223</ele>
        <time>2012-09-21T12:07:52Z</time>
      </trkpt>
      <trkpt lat="47.039" lon="5.53079">
        <ele>223</ele>
        <time>2012-09-21T12:07:54Z</time>
      </trkpt>
      <trkpt lat="47.03893" lon="5.53092">
        <ele>223</ele>
        <time>2012-09-21T12:07:56Z</time>
      </trkpt>
      <trkpt lat="47.03888" lon="5.53104">
        <ele>223</ele>
        <time>2012-09-21T12:07:58Z</time>
      </trkpt>
      <trkpt lat="47.03882" lon="5.53116">
        <ele>223</ele>
        <time>2012-09-21T12:08:00Z</time>
      </trkpt>
      <trkpt lat="47.03877" lon="5.5313">
        <ele>229</ele>
        <time>2012-09-21T12:08:02Z</time>
      </trkpt>
      <trkpt lat="47.03871" lon="5.53143">
        <ele>229</ele>
        <time>2012-09-21T12:08:04Z</time>
      </trkpt>
      <trkpt lat="47.03866" lon="5.53157">
        <ele>229</ele>
        <time>2012-09-21T12:08:06Z</time>
      </trkpt>
      <trkpt lat="47.0386" lon="5.53172">
        <ele>229</ele>
        <time>2012-09-21T12:08:08Z</time>
      </trkpt>
      <trkpt lat="47.03853" lon="5.53187">
        <ele>229</ele>
        <time>2012-09-21T12:08:10Z</time>
      </trkpt>
      <trkpt lat="47.03846" lon="5.53202">
        <ele>229</ele>
        <time>2012-09-21T12:08:12Z</time>
      </trkpt>
      <trkpt lat="47.0384" lon="5.53217">
        <ele>229</ele>
        <time>2012-09-21T12:08:14Z</time>
      </trkpt>
      <trkpt lat="47.03834" lon="5.53231">
        <ele>229</ele>
        <time>2012-09-21T12:08:16Z</time>
      </trkpt>
      <trkpt lat="47.03828" lon="5.53245">
        <ele>229</ele>
        <time>2012-09-21T12:08:18Z</time>
      </trkpt>
      <trkpt lat="47.03822" lon="5.5326">
        <ele>229</ele>
        <time>2012-09-21T12:08:20Z</time>
      </trkpt>
      <trkpt lat="47.03817" lon="5.53274">
        <ele>229</ele>
        <time>2012-09-21T12:08:22Z</time>
      </trkpt>
      <trkpt lat="47.0381" lon="5.5329">
        <ele>229</ele>
        <time>2012-09-21T12:08:24Z</time>
      </trkpt>
      <trkpt lat="47.03804" lon="5.53305">
        <ele>229</ele>
        <time>2012-09-21T12:08:26Z</time>
      </trkpt>
      <trkpt lat="47.03798" lon="5.53319">
        <ele>229</ele>
        <time>2012-09-21T12:08:28Z</time>
      </trkpt>
      <trkpt lat="47.03791" lon="5.53334">
        <ele>229</ele>
        <time>2012-09-21T12:08:30Z</time>
      </trkpt>
      <trkpt lat="47.03785" lon="5.53348">
        <ele>229</ele>
        <time>2012-09-21T12:08:32Z</time>
      </trkpt>
      <trkpt lat="47.03778" lon="5.53363">
        <ele>229</ele>
        <time>2012-09-21T12:08:34Z</time>
      </trkpt>
      <trkpt lat="47.03771" lon="5.53378">
        <ele>229</ele>
        <time>2012-09-21T12:08:36Z</time>
      </trkpt>
      <trkpt lat="47.03765" lon="5.53393">
        <ele>229</ele>
        <time>2012-09-21T12:08:38Z</time>
      </trkpt>
      <trkpt lat="47.03758" lon="5.53408">
        <ele>229</ele>
        <time>2012-09-21T12:08:40Z</time>
      </trkpt>
      <trkpt lat="47.03752" lon="5.53422">
        <ele>229</ele>
        <time>2012-09-21T12:08:42Z</time>
      </trkpt>
      <trkpt lat="47.03746" lon="5.53438">
        <ele>229</ele>
        <time>2012-09-21T12:08:44Z</time>
      </trkpt>
      <trkpt lat="47.0374" lon="5.53453">
        <ele>229</ele>
        <time>2012-09-21T12:08:46Z</time>
      </trkpt>
      <trkpt lat="47.03733" lon="5.53469">
        <ele>229</ele>
        <time>2012-09-21T12:08:48Z</time>
      </trkpt>
      <trkpt lat="47.03727" lon="5.53484">
        <ele>229</ele>
        <time>2012-09-21T12:08:50Z</time>
      </trkpt>
      <trkpt lat="47.0372" lon="5.53499">
        <ele>229</ele>
        <time>2012-09-21T12:08:52Z</time>
      </trkpt>
      <trkpt lat="47.03713" lon="5.53515">
        <ele>229</ele>
        <time>2012-09-21T12:08:54Z</time>
      </trkpt>
      <trkpt lat="47.03707" lon="5.5353">
        <ele>229</ele>
        <time>2012-09-21T12:08:56Z</time>
      </trkpt>
      <trkpt lat="47.037" lon="5.53546">
        <ele>229</ele>
        <time>2012-09-21T12:08:58Z</time>
      </trkpt>
      <trkpt lat="47.03692" lon="5.53563">
        <ele>229</ele>
        <time>2012-09-21T12:09:00Z</time>
      </trkpt>
      <trkpt lat="47.03683" lon="5.53579">
        <ele>229</ele>
        <time>2012-09-21T12:09:02Z</time>
      </trkpt>
      <trkpt lat="47.03672" lon="5.53594">
        <ele>229</ele>
        <time>2012-09-21T12:09:04Z</time>
      </trkpt>
      <trkpt lat="47.03662" lon="5.53609">
        <ele>229</ele>
        <time>2012-09-21T12:09:06Z</time>
      </trkpt>
      <trkpt lat="47.03651" lon="5.53625">
        <ele>229</ele>
        <time>2012-09-21T12:09:08Z</time>
      </trkpt>
      <trkpt lat="47.0364" lon="5.53641">
        <ele>229</ele>
        <time>2012-09-21T12:09:10Z</time>
      </trkpt>
      <trkpt lat="47.03628" lon="5.5366">
        <ele>223</ele>
        <time>2012-09-21T12:09:12Z</time>
      </trkpt>
      <trkpt lat="47.03623" lon="5.5367">
        <ele>223</ele>
        <time>2012-09-21T12:09:13Z</time>
      </trkpt>
      <trkpt lat="47.03611" lon="5.53692">
        <ele>223</ele>
        <time>2012-09-21T12:09:15Z</time>
      </trkpt>
      <trkpt lat="47.03602" lon="5.53714">
        <ele>223</ele>
        <time>2012-09-21T12:09:17Z</time>
      </trkpt>
      <trkpt lat="47.03597" lon="5.53726">
        <ele>223</ele>
        <time>2012-09-21T12:09:18Z</time>
      </trkpt>
      <trkpt lat="47.03594" lon="5.53739">
        <ele>223</ele>
        <time>2012-09-21T12:09:19Z</time>
      </trkpt>
      <trkpt lat="47.0359" lon="5.53752">
        <ele>223</ele>
        <time>2012-09-21T12:09:20Z</time>
      </trkpt>
      <trkpt lat="47.03587" lon="5.53767">
        <ele>223</ele>
        <time>2012-09-21T12:09:21Z</time>
      </trkpt>
      <trkpt lat="47.03584" lon="5.5378">
        <ele>223</ele>
        <time>2012-09-21T12:09:22Z</time>
      </trkpt>
      <trkpt lat="47.03581" lon="5.53795">
        <ele>223</ele>
        <time>2012-09-21T12:09:23Z</time>
      </trkpt>
      <trkpt lat="47.03578" lon="5.5381">
        <ele>218</ele>
        <time>2012-09-21T12:09:24Z</time>
      </trkpt>
      <trkpt lat="47.03576" lon="5.53825">
        <ele>218</ele>
        <time>2012-09-21T12:09:25Z</time>
      </trkpt>
      <trkpt lat="47.03574" lon="5.53839">
        <ele>218</ele>
        <time>2012-09-21T12:09:26Z</time>
      </trkpt>
      <trkpt lat="47.03573" lon="5.53854">
        <ele>218</ele>
        <time>2012-09-21T12:09:27Z</time>
      </trkpt>
      <trkpt lat="47.03572" lon="5.53867">
        <ele>218</ele>
        <time>2012-09-21T12:09:28Z</time>
      </trkpt>
      <trkpt lat="47.03572" lon="5.53881">
        <ele>218</ele>
        <time>2012-09-21T12:09:29Z</time>
      </trkpt>
      <trkpt lat="47.03571" lon="5.53895">
        <ele>218</ele>
        <time>2012-09-21T12:09:30Z</time>
      </trkpt>
      <trkpt lat="47.0357" lon="5.53909">
        <ele>212</ele>
        <time>2012-09-21T12:09:31Z</time>
      </trkpt>
      <trkpt lat="47.03569" lon="5.53924">
        <ele>212</ele>
        <time>2012-09-21T12:09:32Z</time>
      </trkpt>
      <trkpt lat="47.03567" lon="5.53939">
        <ele>212</ele>
        <time>2012-09-21T12:09:33Z</time>
      </trkpt>
      <trkpt lat="47.03566" lon="5.53954">
        <ele>212</ele>
        <time>2012-09-21T12:09:34Z</time>
      </trkpt>
      <trkpt lat="47.03565" lon="5.5397">
        <ele>212</ele>
        <time>2012-09-21T12:09:35Z</time>
      </trkpt>
      <trkpt lat="47.03564" lon="5.53984">
        <ele>212</ele>
        <time>2012-09-21T12:09:36Z</time>
      </trkpt>
      <trkpt lat="47.03562" lon="5.53998">
        <ele>212</ele>
        <time>2012-09-21T12:09:37Z</time>
      </trkpt>
      <trkpt lat="47.03562" lon="5.54012">
        <ele>212</ele>
        <time>2012-09-21T12:09:38Z</time>
      </trkpt>
      <trkpt lat="47.0356" lon="5.54038">
        <ele>212</ele>
        <time>2012-09-21T12:09:40Z</time>
      </trkpt>
      <trkpt lat="47.0356" lon="5.54062">
        <ele>212</ele>
        <time>2012-09-21T12:09:42Z</time>
      </trkpt>
      <trkpt lat="47.03561" lon="5.54086">
        <ele>212</ele>
        <time>2012-09-21T12:09:44Z</time>
      </trkpt>
      <trkpt lat="47.03561" lon="5.54111">
        <ele>212</ele>
        <time>2012-09-21T12:09:46Z</time>
      </trkpt>
      <trkpt lat="47.03561" lon="5.54136">
        <ele>212</ele>
        <time>2012-09-21T12:09:48Z</time>
      </trkpt>
      <trkpt lat="47.03561" lon="5.54159">
        <ele>212</ele>
        <time>2012-09-21T12:09:50Z</time>
      </trkpt>
      <trkpt lat="47.03561" lon="5.54183">
        <ele>212</ele>
        <time>2012-09-21T12:09:52Z</time>
      </trkpt>
      <trkpt lat="47.03561" lon="5.54207">
        <ele>212</ele>
        <time>2012-09-21T12:09:54Z</time>
      </trkpt>
      <trkpt lat="47.03562" lon="5.54229">
        <ele>212</ele>
        <time>2012-09-21T12:09:56Z</time>
      </trkpt>
      <trkpt lat="47.03562" lon="5.54251">
        <ele>212</ele>
        <time>2012-09-21T12:09:58Z</time>
      </trkpt>
      <trkpt lat="47.03562" lon="5.54271">
        <ele>212</ele>
        <time>2012-09-21T12:10:00Z</time>
      </trkpt>
      <trkpt lat="47.03561" lon="5.54292">
        <ele>212</ele>
        <time>2012-09-21T12:10:02Z</time>
      </trkpt>
      <trkpt lat="47.03561" lon="5.54312">
        <ele>212</ele>
        <time>2012-09-21T12:10:04Z</time>
      </trkpt>
      <trkpt lat="47.0356" lon="5.54331">
        <ele>212</ele>
        <time>2012-09-21T12:10:06Z</time>
      </trkpt>
      <trkpt lat="47.03559" lon="5.5435">
        <ele>212</ele>
        <time>2012-09-21T12:10:08Z</time>
      </trkpt>
      <trkpt lat="47.03557" lon="5.54368">
        <ele>212</ele>
        <time>2012-09-21T12:10:10Z</time>
      </trkpt>
      <trkpt lat="47.03554" lon="5.54385">
        <ele>212</ele>
        <time>2012-09-21T12:10:12Z</time>
      </trkpt>
      <trkpt lat="47.03551" lon="5.54403">
        <ele>212</ele>
        <time>2012-09-21T12:10:14Z</time>
      </trkpt>
      <trkpt lat="47.03548" lon="5.54418">
        <ele>212</ele>
        <time>2012-09-21T12:10:16Z</time>
      </trkpt>
      <trkpt lat="47.03545" lon="5.54433">
        <ele>212</ele>
        <time>2012-09-21T12:10:18Z</time>
      </trkpt>
      <trkpt lat="47.0354" lon="5.54447">
        <ele>212</ele>
        <time>2012-09-21T12:10:20Z</time>
      </trkpt>
      <trkpt lat="47.03536" lon="5.54459">
        <ele>212</ele>
        <time>2012-09-21T12:10:22Z</time>
      </trkpt>
      <trkpt lat="47.03529" lon="5.54475">
        <ele>218</ele>
        <time>2012-09-21T12:10:25Z</time>
      </trkpt>
      <trkpt lat="47.03521" lon="5.5449">
        <ele>218</ele>
        <time>2012-09-21T12:10:28Z</time>
      </trkpt>
      <trkpt lat="47.03513" lon="5.54502">
        <ele>218</ele>
        <time>2012-09-21T12:10:31Z</time>
      </trkpt>
      <trkpt lat="47.03503" lon="5.54514">
        <ele>218</ele>
        <time>2012-09-21T12:10:34Z</time>
      </trkpt>
      <trkpt lat="47.03493" lon="5.54525">
        <ele>218</ele>
        <time>2012-09-21T12:10:37Z</time>
      </trkpt>
      <trkpt lat="47.03482" lon="5.54534">
        <ele>218</ele>
        <time>2012-09-21T12:10:40Z</time>
      </trkpt>
      <trkpt lat="47.03471" lon="5.54542">
        <ele>218</ele>
        <time>2012-09-21T12:10:43Z</time>
      </trkpt>
      <trkpt lat="47.03459" lon="5.54549">
        <ele>218</ele>
        <time>2012-09-21T12:10:46Z</time>
      </trkpt>
      <trkpt lat="47.03448" lon="5.54555">
        <ele>223</ele>
        <time>2012-09-21T12:10:49Z</time>
      </trkpt>
      <trkpt lat="47.03439" lon="5.54559">
        <ele>223</ele>
        <time>2012-09-21T12:10:51Z</time>
      </trkpt>
      <trkpt lat="47.03427" lon="5.54563">
        <ele>223</ele>
        <time>2012-09-21T12:10:54Z</time>
      </trkpt>
      <trkpt lat="47.03414" lon="5.54566">
        <ele>223</ele>
        <time>2012-09-21T12:10:57Z</time>
      </trkpt>
      <trkpt lat="47.03402" lon="5.54569">
        <ele>223</ele>
        <time>2012-09-21T12:11:00Z</time>
      </trkpt>
      <trkpt lat="47.0339" lon="5.54571">
        <ele>223</ele>
        <time>2012-09-21T12:11:03Z</time>
      </trkpt>
      <trkpt lat="47.03378" lon="5.54574">
        <ele>223</ele>
        <time>2012-09-21T12:11:06Z</time>
      </trkpt>
      <trkpt lat="47.03366" lon="5.54576">
        <ele>223</ele>
        <time>2012-09-21T12:11:09Z</time>
      </trkpt>
      <trkpt lat="47.03354" lon="5.54579">
        <ele>229</ele>
        <time>2012-09-21T12:11:12Z</time>
      </trkpt>
      <trkpt lat="47.03341" lon="5.5458">
        <ele>229</ele>
        <time>2012-09-21T12:11:15Z</time>
      </trkpt>
      <trkpt lat="47.03331" lon="5.54582">
        <ele>229</ele>
        <time>2012-09-21T12:11:17Z</time>
      </trkpt>
      <trkpt lat="47.03322" lon="5.54584">
        <ele>229</ele>
        <time>2012-09-21T12:11:19Z</time>
      </trkpt>
      <trkpt lat="47.03312" lon="5.54587">
        <ele>229</ele>
        <time>2012-09-21T12:11:21Z</time>
      </trkpt>
      <trkpt lat="47.03302" lon="5.54589">
        <ele>229</ele>
        <time>2012-09-21T12:11:23Z</time>
      </trkpt>
      <trkpt lat="47.03293" lon="5.54592">
        <ele>229</ele>
        <time>2012-09-21T12:11:25Z</time>
      </trkpt>
      <trkpt lat="47.03283" lon="5.54597">
        <ele>229</ele>
        <time>2012-09-21T12:11:27Z</time>
      </trkpt>
      <trkpt lat="47.03274" lon="5.54601">
        <ele>229</ele>
        <time>2012-09-21T12:11:29Z</time>
      </trkpt>
      <trkpt lat="47.03266" lon="5.54607">
        <ele>229</ele>
        <time>2012-09-21T12:11:31Z</time>
      </trkpt>
      <trkpt lat="47.03258" lon="5.54614">
        <ele>229</ele>
        <time>2012-09-21T12:11:33Z</time>
      </trkpt>
      <trkpt lat="47.0325" lon="5.54622">
        <ele>229</ele>
        <time>2012-09-21T12:11:35Z</time>
      </trkpt>
      <trkpt lat="47.03243" lon="5.54631">
        <ele>229</ele>
        <time>2012-09-21T12:11:37Z</time>
      </trkpt>
      <trkpt lat="47.03237" lon="5.54641">
        <ele>229</ele>
        <time>2012-09-21T12:11:39Z</time>
      </trkpt>
      <trkpt lat="47.0323" lon="5.5465">
        <ele>229</ele>
        <time>2012-09-21T12:11:41Z</time>
      </trkpt>
      <trkpt lat="47.03225" lon="5.54661">
        <ele>229</ele>
        <time>2012-09-21T12:11:43Z</time>
      </trkpt>
      <trkpt lat="47.03218" lon="5.54672">
        <ele>229</ele>
        <time>2012-09-21T12:11:45Z</time>
      </trkpt>
      <trkpt lat="47.03213" lon="5.54684">
        <ele>229</ele>
        <time>2012-09-21T12:11:47Z</time>
      </trkpt>
      <trkpt lat="47.03207" lon="5.54694">
        <ele>229</ele>
        <time>2012-09-21T12:11:49Z</time>
      </trkpt>
      <trkpt lat="47.03201" lon="5.54706">
        <ele>229</ele>
        <time>2012-09-21T12:11:51Z</time>
      </trkpt>
      <trkpt lat="47.03195" lon="5.54718">
        <ele>229</ele>
        <time>2012-09-21T12:11:53Z</time>
      </trkpt>
      <trkpt lat="47.03189" lon="5.5473">
        <ele>229</ele>
        <time>2012-09-21T12:11:55Z</time>
      </trkpt>
      <trkpt lat="47.03183" lon="5.54743">
        <ele>229</ele>
        <time>2012-09-21T12:11:57Z</time>
      </trkpt>
      <trkpt lat="47.03176" lon="5.54756">
        <ele>229</ele>
        <time>2012-09-21T12:11:59Z</time>
      </trkpt>
      <trkpt lat="47.03169" lon="5.54769">
        <ele>229</ele>
        <time>2012-09-21T12:12:01Z</time>
      </trkpt>
      <trkpt lat="47.03163" lon="5.54783">
        <ele>229</ele>
        <time>2012-09-21T12:12:03Z</time>
      </trkpt>
      <trkpt lat="47.03156" lon="5.54797">
        <ele>229</ele>
        <time>2012-09-21T12:12:05Z</time>
      </trkpt>
      <trkpt lat="47.03148" lon="5.54811">
        <ele>229</ele>
        <time>2012-09-21T12:12:07Z</time>
      </trkpt>
      <trkpt lat="47.03142" lon="5.54825">
        <ele>229</ele>
        <time>2012-09-21T12:12:09Z</time>
      </trkpt>
      <trkpt lat="47.03134" lon="5.54838">
        <ele>229</ele>
        <time>2012-09-21T12:12:11Z</time>
      </trkpt>
      <trkpt lat="47.03128" lon="5.54852">
        <ele>229</ele>
        <time>2012-09-21T12:12:13Z</time>
      </trkpt>
      <trkpt lat="47.03121" lon="5.54865">
        <ele>229</ele>
        <time>2012-09-21T12:12:15Z</time>
      </trkpt>
      <trkpt lat="47.03114" lon="5.54879">
        <ele>229</ele>
        <time>2012-09-21T12:12:17Z</time>
      </trkpt>
      <trkpt lat="47.03107" lon="5.54892">
        <ele>229</ele>
        <time>2012-09-21T12:12:19Z</time>
      </trkpt>
      <trkpt lat="47.03101" lon="5.54906">
        <ele>229</ele>
        <time>2012-09-21T12:12:21Z</time>
      </trkpt>
      <trkpt lat="47.03094" lon="5.54918">
        <ele>229</ele>
        <time>2012-09-21T12:12:23Z</time>
      </trkpt>
      <trkpt lat="47.03088" lon="5.5493">
        <ele>229</ele>
        <time>2012-09-21T12:12:25Z</time>
      </trkpt>
      <trkpt lat="47.03081" lon="5.54942">
        <ele>229</ele>
        <time>2012-09-21T12:12:27Z</time>
      </trkpt>
      <trkpt lat="47.03075" lon="5.54953">
        <ele>229</ele>
        <time>2012-09-21T12:12:29Z</time>
      </trkpt>
      <trkpt lat="47.03069" lon="5.54965">
        <ele>229</ele>
        <time>2012-09-21T12:12:31Z</time>
      </trkpt>
      <trkpt lat="47.03062" lon="5.54976">
        <ele>229</ele>
        <time>2012-09-21T12:12:33Z</time>
      </trkpt>
      <trkpt lat="47.03055" lon="5.54986">
        <ele>229</ele>
        <time>2012-09-21T12:12:35Z</time>
      </trkpt>
      <trkpt lat="47.03048" lon="5.54998">
        <ele>229</ele>
        <time>2012-09-21T12:12:37Z</time>
      </trkpt>
      <trkpt lat="47.03042" lon="5.55009">
        <ele>229</ele>
        <time>2012-09-21T12:12:39Z</time>
      </trkpt>
      <trkpt lat="47.03035" lon="5.55021">
        <ele>229</ele>
        <time>2012-09-21T12:12:41Z</time>
      </trkpt>
      <trkpt lat="47.03029" lon="5.55032">
        <ele>229</ele>
        <time>2012-09-21T12:12:43Z</time>
      </trkpt>
      <trkpt lat="47.03022" lon="5.55045">
        <ele>229</ele>
        <time>2012-09-21T12:12:45Z</time>
      </trkpt>
      <trkpt lat="47.03016" lon="5.55058">
        <ele>229</ele>
        <time>2012-09-21T12:12:47Z</time>
      </trkpt>
      <trkpt lat="47.0301" lon="5.5507">
        <ele>229</ele>
        <time>2012-09-21T12:12:49Z</time>
      </trkpt>
      <trkpt lat="47.03004" lon="5.55083">
        <ele>229</ele>
        <time>2012-09-21T12:12:51Z</time>
      </trkpt>
      <trkpt lat="47.02997" lon="5.55096">
        <ele>229</ele>
        <time>2012-09-21T12:12:53Z</time>
      </trkpt>
      <trkpt lat="47.0299" lon="5.55109">
        <ele>229</ele>
        <time>2012-09-21T12:12:55Z</time>
      </trkpt>
      <trkpt lat="47.02983" lon="5.55123">
        <ele>229</ele>
        <time>2012-09-21T12:12:57Z</time>
      </trkpt>
      <trkpt lat="47.02976" lon="5.55137">
        <ele>229</ele>
        <time>2012-09-21T12:12:59Z</time>
      </trkpt>
      <trkpt lat="47.02969" lon="5.55151">
        <ele>229</ele>
        <time>2012-09-21T12:13:01Z</time>
      </trkpt>
      <trkpt lat="47.02961" lon="5.55165">
        <ele>229</ele>
        <time>2012-09-21T12:13:03Z</time>
      </trkpt>
      <trkpt lat="47.02953" lon="5.5518">
        <ele>229</ele>
        <time>2012-09-21T12:13:05Z</time>
      </trkpt>
      <trkpt lat="47.02944" lon="5.55192">
        <ele>229</ele>
        <time>2012-09-21T12:13:07Z</time>
      </trkpt>
      <trkpt lat="47.02936" lon="5.55206">
        <ele>229</ele>
        <time>2012-09-21T12:13:09Z</time>
      </trkpt>
      <trkpt lat="47.02927" lon="5.55219">
        <ele>229</ele>
        <time>2012-09-21T12:13:11Z</time>
      </trkpt>
      <trkpt lat="47.02919" lon="5.55232">
        <ele>229</ele>
        <time>2012-09-21T12:13:13Z</time>
      </trkpt>
      <trkpt lat="47.02909" lon="5.55244">
        <ele>229</ele>
        <time>2012-09-21T12:13:15Z</time>
      </trkpt>
      <trkpt lat="47.02901" lon="5.55257">
        <ele>229</ele>
        <time>2012-09-21T12:13:17Z</time>
      </trkpt>
      <trkpt lat="47.02893" lon="5.55268">
        <ele>229</ele>
        <time>2012-09-21T12:13:19Z</time>
      </trkpt>
      <trkpt lat="47.02884" lon="5.5528">
        <ele>229</ele>
        <time>2012-09-21T12:13:21Z</time>
      </trkpt>
      <trkpt lat="47.02876" lon="5.55293">
        <ele>229</ele>
        <time>2012-09-21T12:13:23Z</time>
      </trkpt>
      <trkpt lat="47.02868" lon="5.55304">
        <ele>229</ele>
        <time>2012-09-21T12:13:25Z</time>
      </trkpt>
      <trkpt lat="47.0286" lon="5.55318">
        <ele>229</ele>
        <time>2012-09-21T12:13:27Z</time>
      </trkpt>
      <trkpt lat="47.02852" lon="5.5533">
        <ele>229</ele>
        <time>2012-09-21T12:13:29Z</time>
      </trkpt>
      <trkpt lat="47.02843" lon="5.55344">
        <ele>229</ele>
        <time>2012-09-21T12:13:31Z</time>
      </trkpt>
      <trkpt lat="47.02835" lon="5.55357">
        <ele>229</ele>
        <time>2012-09-21T12:13:33Z</time>
      </trkpt>
      <trkpt lat="47.02828" lon="5.5537">
        <ele>229</ele>
        <time>2012-09-21T12:13:35Z</time>
      </trkpt>
      <trkpt lat="47.02819" lon="5.55383">
        <ele>229</ele>
        <time>2012-09-21T12:13:37Z</time>
      </trkpt>
      <trkpt lat="47.02811" lon="5.55394">
        <ele>229</ele>
        <time>2012-09-21T12:13:39Z</time>
      </trkpt>
      <trkpt lat="47.02803" lon="5.55408">
        <ele>229</ele>
        <time>2012-09-21T12:13:41Z</time>
      </trkpt>
      <trkpt lat="47.02796" lon="5.5542">
        <ele>229</ele>
        <time>2012-09-21T12:13:43Z</time>
      </trkpt>
      <trkpt lat="47.02787" lon="5.55433">
        <ele>229</ele>
        <time>2012-09-21T12:13:45Z</time>
      </trkpt>
      <trkpt lat="47.02779" lon="5.55446">
        <ele>229</ele>
        <time>2012-09-21T12:13:47Z</time>
      </trkpt>
      <trkpt lat="47.02772" lon="5.5546">
        <ele>229</ele>
        <time>2012-09-21T12:13:49Z</time>
      </trkpt>
      <trkpt lat="47.02765" lon="5.55475">
        <ele>229</ele>
        <time>2012-09-21T12:13:51Z</time>
      </trkpt>
      <trkpt lat="47.02758" lon="5.5549">
        <ele>229</ele>
        <time>2012-09-21T12:13:53Z</time>
      </trkpt>
      <trkpt lat="47.02752" lon="5.55507">
        <ele>229</ele>
        <time>2012-09-21T12:13:55Z</time>
      </trkpt>
      <trkpt lat="47.02746" lon="5.55525">
        <ele>229</ele>
        <time>2012-09-21T12:13:57Z</time>
      </trkpt>
      <trkpt lat="47.02741" lon="5.55544">
        <ele>229</ele>
        <time>2012-09-21T12:13:59Z</time>
      </trkpt>
      <trkpt lat="47.02736" lon="5.55562">
        <ele>229</ele>
        <time>2012-09-21T12:14:01Z</time>
      </trkpt>
      <trkpt lat="47.02731" lon="5.55581">
        <ele>229</ele>
        <time>2012-09-21T12:14:03Z</time>
      </trkpt>
      <trkpt lat="47.02726" lon="5.556">
        <ele>229</ele>
        <time>2012-09-21T12:14:05Z</time>
      </trkpt>
      <trkpt lat="47.02722" lon="5.5562">
        <ele>229</ele>
        <time>2012-09-21T12:14:07Z</time>
      </trkpt>
      <trkpt lat="47.02717" lon="5.5564">
        <ele>229</ele>
        <time>2012-09-21T12:14:09Z</time>
      </trkpt>
      <trkpt lat="47.02712" lon="5.55661">
        <ele>229</ele>
        <time>2012-09-21T12:14:11Z</time>
      </trkpt>
      <trkpt lat="47.02707" lon="5.5568">
        <ele>229</ele>
        <time>2012-09-21T12:14:13Z</time>
      </trkpt>
      <trkpt lat="47.02699" lon="5.55696">
        <ele>229</ele>
        <time>2012-09-21T12:14:15Z</time>
      </trkpt>
      <trkpt lat="47.02689" lon="5.55708">
        <ele>229</ele>
        <time>2012-09-21T12:14:17Z</time>
      </trkpt>
      <trkpt lat="47.0268" lon="5.55719">
        <ele>229</ele>
        <time>2012-09-21T12:14:19Z</time>
      </trkpt>
      <trkpt lat="47.0267" lon="5.55728">
        <ele>229</ele>
        <time>2012-09-21T12:14:21Z</time>
      </trkpt>
      <trkpt lat="47.0266" lon="5.5574">
        <ele>229</ele>
        <time>2012-09-21T12:14:23Z</time>
      </trkpt>
      <trkpt lat="47.02651" lon="5.55754">
        <ele>229</ele>
        <time>2012-09-21T12:14:25Z</time>
      </trkpt>
      <trkpt lat="47.02643" lon="5.55768">
        <ele>229</ele>
        <time>2012-09-21T12:14:27Z</time>
      </trkpt>
      <trkpt lat="47.02634" lon="5.55784">
        <ele>229</ele>
        <time>2012-09-21T12:14:29Z</time>
      </trkpt>
      <trkpt lat="47.02627" lon="5.55801">
        <ele>229</ele>
        <time>2012-09-21T12:14:31Z</time>
      </trkpt>
      <trkpt lat="47.0262" lon="5.55818">
        <ele>229</ele>
        <time>2012-09-21T12:14:33Z</time>
      </trkpt>
      <trkpt lat="47.02613" lon="5.55835">
        <ele>229</ele>
        <time>2012-09-21T12:14:35Z</time>
      </trkpt>
      <trkpt lat="47.02606" lon="5.55851">
        <ele>229</ele>
        <time>2012-09-21T12:14:37Z</time>
      </trkpt>
      <trkpt lat="47.02601" lon="5.55866">
        <ele>229</ele>
        <time>2012-09-21T12:14:39Z</time>
      </trkpt>
      <trkpt lat="47.02596" lon="5.55878">
        <ele>229</ele>
        <time>2012-09-21T12:14:41Z</time>
      </trkpt>
      <trkpt lat="47.02591" lon="5.55891">
        <ele>229</ele>
        <time>2012-09-21T12:14:43Z</time>
      </trkpt>
      <trkpt lat="47.02585" lon="5.55904">
        <ele>229</ele>
        <time>2012-09-21T12:14:45Z</time>
      </trkpt>
      <trkpt lat="47.0258" lon="5.55916">
        <ele>229</ele>
        <time>2012-09-21T12:14:47Z</time>
      </trkpt>
      <trkpt lat="47.02574" lon="5.5593">
        <ele>229</ele>
        <time>2012-09-21T12:14:49Z</time>
      </trkpt>
      <trkpt lat="47.02569" lon="5.55943">
        <ele>229</ele>
        <time>2012-09-21T12:14:51Z</time>
      </trkpt>
      <trkpt lat="47.02564" lon="5.55957">
        <ele>229</ele>
        <time>2012-09-21T12:14:53Z</time>
      </trkpt>
      <trkpt lat="47.02559" lon="5.55973">
        <ele>229</ele>
        <time>2012-09-21T12:14:55Z</time>
      </trkpt>
      <trkpt lat="47.02554" lon="5.55989">
        <ele>229</ele>
        <time>2012-09-21T12:14:57Z</time>
      </trkpt>
      <trkpt lat="47.02548" lon="5.56005">
        <ele>229</ele>
        <time>2012-09-21T12:14:59Z</time>
      </trkpt>
      <trkpt lat="47.02543" lon="5.56021">
        <ele>229</ele>
        <time>2012-09-21T12:15:01Z</time>
      </trkpt>
      <trkpt lat="47.02539" lon="5.56038">
        <ele>229</ele>
        <time>2012-09-21T12:15:03Z</time>
      </trkpt>
      <trkpt lat="47.02535" lon="5.56055">
        <ele>229</ele>
        <time>2012-09-21T12:15:05Z</time>
      </trkpt>
      <trkpt lat="47.02532" lon="5.56072">
        <ele>229</ele>
        <time>2012-09-21T12:15:07Z</time>
      </trkpt>
      <trkpt lat="47.0253" lon="5.56089">
        <ele>229</ele>
        <time>2012-09-21T12:15:09Z</time>
      </trkpt>
      <trkpt lat="47.02526" lon="5.56106">
        <ele>229</ele>
        <time>2012-09-21T12:15:11Z</time>
      </trkpt>
      <trkpt lat="47.02523" lon="5.56122">
        <ele>229</ele>
        <time>2012-09-21T12:15:13Z</time>
      </trkpt>
      <trkpt lat="47.02521" lon="5.56139">
        <ele>229</ele>
        <time>2012-09-21T12:15:15Z</time>
      </trkpt>
      <trkpt lat="47.02518" lon="5.56156">
        <ele>229</ele>
        <time>2012-09-21T12:15:17Z</time>
      </trkpt>
      <trkpt lat="47.02515" lon="5.56174">
        <ele>229</ele>
        <time>2012-09-21T12:15:19Z</time>
      </trkpt>
      <trkpt lat="47.02513" lon="5.56192">
        <ele>229</ele>
        <time>2012-09-21T12:15:21Z</time>
      </trkpt>
      <trkpt lat="47.02511" lon="5.56209">
        <ele>229</ele>
        <time>2012-09-21T12:15:23Z</time>
      </trkpt>
      <trkpt lat="47.0251" lon="5.56227">
        <ele>229</ele>
        <time>2012-09-21T12:15:25Z</time>
      </trkpt>
      <trkpt lat="47.02507" lon="5.56245">
        <ele>229</ele>
        <time>2012-09-21T12:15:27Z</time>
      </trkpt>
      <trkpt lat="47.02504" lon="5.56261">
        <ele>229</ele>
        <time>2012-09-21T12:15:29Z</time>
      </trkpt>
      <trkpt lat="47.02501" lon="5.56278">
        <ele>229</ele>
        <time>2012-09-21T12:15:31Z</time>
      </trkpt>
      <trkpt lat="47.02497" lon="5.56294">
        <ele>229</ele>
        <time>2012-09-21T12:15:33Z</time>
      </trkpt>
      <trkpt lat="47.02491" lon="5.56308">
        <ele>229</ele>
        <time>2012-09-21T12:15:35Z</time>
      </trkpt>
      <trkpt lat="47.02482" lon="5.56318">
        <ele>229</ele>
        <time>2012-09-21T12:15:37Z</time>
      </trkpt>
      <trkpt lat="47.02471" lon="5.56322">
        <ele>229</ele>
        <time>2012-09-21T12:15:39Z</time>
      </trkpt>
      <trkpt lat="47.02458" lon="5.56321">
        <ele>229</ele>
        <time>2012-09-21T12:15:41Z</time>
      </trkpt>
      <trkpt lat="47.02445" lon="5.5632">
        <ele>229</ele>
        <time>2012-09-21T12:15:43Z</time>
      </trkpt>
      <trkpt lat="47.0243" lon="5.5632">
        <ele>229</ele>
        <time>2012-09-21T12:15:45Z</time>
      </trkpt>
      <trkpt lat="47.02416" lon="5.56325">
        <ele>229</ele>
        <time>2012-09-21T12:15:47Z</time>
      </trkpt>
      <trkpt lat="47.02403" lon="5.56337">
        <ele>229</ele>
        <time>2012-09-21T12:15:49Z</time>
      </trkpt>
      <trkpt lat="47.02391" lon="5.56354">
        <ele>229</ele>
        <time>2012-09-21T12:15:51Z</time>
      </trkpt>
      <trkpt lat="47.02381" lon="5.56373">
        <ele>223</ele>
        <time>2012-09-21T12:15:53Z</time>
      </trkpt>
      <trkpt lat="47.0237" lon="5.56394">
        <ele>223</ele>
        <time>2012-09-21T12:15:55Z</time>
      </trkpt>
      <trkpt lat="47.02365" lon="5.56406">
        <ele>223</ele>
        <time>2012-09-21T12:15:56Z</time>
      </trkpt>
      <trkpt lat="47.02361" lon="5.56418">
        <ele>223</ele>
        <time>2012-09-21T12:15:57Z</time>
      </trkpt>
      <trkpt lat="47.02356" lon="5.56431">
        <ele>223</ele>
        <time>2012-09-21T12:15:58Z</time>
      </trkpt>
      <trkpt lat="47.02351" lon="5.56443">
        <ele>223</ele>
        <time>2012-09-21T12:15:59Z</time>
      </trkpt>
      <trkpt lat="47.02347" lon="5.56455">
        <ele>223</ele>
        <time>2012-09-21T12:16:00Z</time>
      </trkpt>
      <trkpt lat="47.02343" lon="5.56468">
        <ele>223</ele>
        <time>2012-09-21T12:16:01Z</time>
      </trkpt>
      <trkpt lat="47.0234" lon="5.5648">
        <ele>223</ele>
        <time>2012-09-21T12:16:02Z</time>
      </trkpt>
      <trkpt lat="47.02335" lon="5.56504">
        <ele>223</ele>
        <time>2012-09-21T12:16:04Z</time>
      </trkpt>
      <trkpt lat="47.02331" lon="5.56526">
        <ele>223</ele>
        <time>2012-09-21T12:16:06Z</time>
      </trkpt>
      <trkpt lat="47.02329" lon="5.56547">
        <ele>223</ele>
        <time>2012-09-21T12:16:08Z</time>
      </trkpt>
      <trkpt lat="47.02328" lon="5.56567">
        <ele>223</ele>
        <time>2012-09-21T12:16:10Z</time>
      </trkpt>
      <trkpt lat="47.02327" lon="5.56587">
        <ele>223</ele>
        <time>2012-09-21T12:16:12Z</time>
      </trkpt>
      <trkpt lat="47.02326" lon="5.56606">
        <ele>223</ele>
        <time>2012-09-21T12:16:14Z</time>
      </trkpt>
      <trkpt lat="47.02325" lon="5.56624">
        <ele>223</ele>
        <time>2012-09-21T12:16:16Z</time>
      </trkpt>
      <trkpt lat="47.02323" lon="5.56642">
        <ele>223</ele>
        <time>2012-09-21T12:16:18Z</time>
      </trkpt>
      <trkpt lat="47.02321" lon="5.5666">
        <ele>223</ele>
        <time>2012-09-21T12:16:20Z</time>
      </trkpt>
      <trkpt lat="47.02319" lon="5.56676">
        <ele>223</ele>
        <time>2012-09-21T12:16:22Z</time>
      </trkpt>
      <trkpt lat="47.02317" lon="5.56692">
        <ele>223</ele>
        <time>2012-09-21T12:16:24Z</time>
      </trkpt>
      <trkpt lat="47.02314" lon="5.56709">
        <ele>223</ele>
        <time>2012-09-21T12:16:26Z</time>
      </trkpt>
      <trkpt lat="47.02312" lon="5.56726">
        <ele>223</ele>
        <time>2012-09-21T12:16:28Z</time>
      </trkpt>
      <trkpt lat="47.02309" lon="5.56743">
        <ele>223</ele>
        <time>2012-09-21T12:16:30Z</time>
      </trkpt>
      <trkpt lat="47.02307" lon="5.56759">
        <ele>223</ele>
        <time>2012-09-21T12:16:32Z</time>
      </trkpt>
      <trkpt lat="47.02304" lon="5.56776">
        <ele>223</ele>
        <time>2012-09-21T12:16:34Z</time>
      </trkpt>
      <trkpt lat="47.02301" lon="5.56793">
        <ele>223</ele>
        <time>2012-09-21T12:16:36Z</time>
      </trkpt>
      <trkpt lat="47.02297" lon="5.5681">
        <ele>223</ele>
        <time>2012-09-21T12:16:38Z</time>
      </trkpt>
      <trkpt lat="47.02293" lon="5.56826">
        <ele>223</ele>
        <time>2012-09-21T12:16:40Z</time>
      </trkpt>
      <trkpt lat="47.02288" lon="5.56842">
        <ele>223</ele>
        <time>2012-09-21T12:16:42Z</time>
      </trkpt>
      <trkpt lat="47.02281" lon="5.56858">
        <ele>223</ele>
        <time>2012-09-21T12:16:44Z</time>
      </trkpt>
      <trkpt lat="47.02275" lon="5.56874">
        <ele>223</ele>
        <time>2012-09-21T12:16:46Z</time>
      </trkpt>
      <trkpt lat="47.02268" lon="5.5689">
        <ele>223</ele>
        <time>2012-09-21T12:16:48Z</time>
      </trkpt>
      <trkpt lat="47.0226" lon="5.56907">
        <ele>223</ele>
        <time>2012-09-21T12:16:50Z</time>
      </trkpt>
      <trkpt lat="47.02252" lon="5.56924">
        <ele>223</ele>
        <time>2012-09-21T12:16:52Z</time>
      </trkpt>
      <trkpt lat="47.02242" lon="5.56941">
        <ele>223</ele>
        <time>2012-09-21T12:16:54Z</time>
      </trkpt>
      <trkpt lat="47.02234" lon="5.5696">
        <ele>223</ele>
        <time>2012-09-21T12:16:56Z</time>
      </trkpt>
      <trkpt lat="47.02225" lon="5.56978">
        <ele>223</ele>
        <time>2012-09-21T12:16:58Z</time>
      </trkpt>
      <trkpt lat="47.02215" lon="5.56996">
        <ele>223</ele>
        <time>2012-09-21T12:17:00Z</time>
      </trkpt>
      <trkpt lat="47.02207" lon="5.57013">
        <ele>223</ele>
        <time>2012-09-21T12:17:02Z</time>
      </trkpt>
      <trkpt lat="47.02199" lon="5.5703">
        <ele>223</ele>
        <time>2012-09-21T12:17:04Z</time>
      </trkpt>
      <trkpt lat="47.02192" lon="5.57048">
        <ele>223</ele>
        <time>2012-09-21T12:17:06Z</time>
      </trkpt>
      <trkpt lat="47.02187" lon="5.57068">
        <ele>223</ele>
        <time>2012-09-21T12:17:08Z</time>
      </trkpt>
      <trkpt lat="47.02185" lon="5.57088">
        <ele>223</ele>
        <time>2012-09-21T12:17:10Z</time>
      </trkpt>
      <trkpt lat="47.02182" lon="5.57108">
        <ele>223</ele>
        <time>2012-09-21T12:17:12Z</time>
      </trkpt>
      <trkpt lat="47.0218" lon="5.57128">
        <ele>223</ele>
        <time>2012-09-21T12:17:14Z</time>
      </trkpt>
      <trkpt lat="47.02178" lon="5.57149">
        <ele>223</ele>
        <time>2012-09-21T12:17:16Z</time>
      </trkpt>
      <trkpt lat="47.02176" lon="5.57168">
        <ele>223</ele>
        <time>2012-09-21T12:17:18Z</time>
      </trkpt>
      <trkpt lat="47.02174" lon="5.57186">
        <ele>223</ele>
        <time>2012-09-21T12:17:20Z</time>
      </trkpt>
      <trkpt lat="47.02173" lon="5.57206">
        <ele>223</ele>
        <time>2012-09-21T12:17:22Z</time>
      </trkpt>
      <trkpt lat="47.02172" lon="5.57224">
        <ele>223</ele>
        <time>2012-09-21T12:17:24Z</time>
      </trkpt>
      <trkpt lat="47.02171" lon="5.57242">
        <ele>228</ele>
        <time>2012-09-21T12:17:26Z</time>
      </trkpt>
      <trkpt lat="47.0217" lon="5.5726">
        <ele>228</ele>
        <time>2012-09-21T12:17:28Z</time>
      </trkpt>
      <trkpt lat="47.02169" lon="5.57277">
        <ele>228</ele>
        <time>2012-09-21T12:17:30Z</time>
      </trkpt>
      <trkpt lat="47.02167" lon="5.57295">
        <ele>228</ele>
        <time>2012-09-21T12:17:32Z</time>
      </trkpt>
      <trkpt lat="47.02167" lon="5.57313">
        <ele>228</ele>
        <time>2012-09-21T12:17:34Z</time>
      </trkpt>
      <trkpt lat="47.02167" lon="5.57331">
        <ele>228</ele>
        <time>2012-09-21T12:17:36Z</time>
      </trkpt>
      <trkpt lat="47.02166" lon="5.57349">
        <ele>228</ele>
        <time>2012-09-21T12:17:38Z</time>
      </trkpt>
      <trkpt lat="47.02166" lon="5.57366">
        <ele>228</ele>
        <time>2012-09-21T12:17:40Z</time>
      </trkpt>
      <trkpt lat="47.02165" lon="5.57384">
        <ele>228</ele>
        <time>2012-09-21T12:17:42Z</time>
      </trkpt>
      <trkpt lat="47.02165" lon="5.57401">
        <ele>228</ele>
        <time>2012-09-21T12:17:44Z</time>
      </trkpt>
      <trkpt lat="47.02166" lon="5.57419">
        <ele>228</ele>
        <time>2012-09-21T12:17:46Z</time>
      </trkpt>
      <trkpt lat="47.02166" lon="5.57437">
        <ele>228</ele>
        <time>2012-09-21T12:17:48Z</time>
      </trkpt>
      <trkpt lat="47.02166" lon="5.57458">
        <ele>228</ele>
        <time>2012-09-21T12:17:50Z</time>
      </trkpt>
      <trkpt lat="47.02166" lon="5.57478">
        <ele>228</ele>
        <time>2012-09-21T12:17:52Z</time>
      </trkpt>
      <trkpt lat="47.02165" lon="5.575">
        <ele>228</ele>
        <time>2012-09-21T12:17:54Z</time>
      </trkpt>
      <trkpt lat="47.02162" lon="5.57521">
        <ele>228</ele>
        <time>2012-09-21T12:17:56Z</time>
      </trkpt>
      <trkpt lat="47.02158" lon="5.57542">
        <ele>228</ele>
        <time>2012-09-21T12:17:58Z</time>
      </trkpt>
      <trkpt lat="47.02151" lon="5.57561">
        <ele>228</ele>
        <time>2012-09-21T12:18:00Z</time>
      </trkpt>
      <trkpt lat="47.02145" lon="5.5758">
        <ele>228</ele>
        <time>2012-09-21T12:18:02Z</time>
      </trkpt>
      <trkpt lat="47.02139" lon="5.57597">
        <ele>228</ele>
        <time>2012-09-21T12:18:04Z</time>
      </trkpt>
      <trkpt lat="47.02134" lon="5.57614">
        <ele>228</ele>
        <time>2012-09-21T12:18:06Z</time>
      </trkpt>
      <trkpt lat="47.02129" lon="5.57631">
        <ele>228</ele>
        <time>2012-09-21T12:18:08Z</time>
      </trkpt>
      <trkpt lat="47.02122" lon="5.57647">
        <ele>228</ele>
        <time>2012-09-21T12:18:10Z</time>
      </trkpt>
      <trkpt lat="47.02116" lon="5.57664">
        <ele>228</ele>
        <time>2012-09-21T12:18:12Z</time>
      </trkpt>
      <trkpt lat="47.02111" lon="5.5768">
        <ele>228</ele>
        <time>2012-09-21T12:18:14Z</time>
      </trkpt>
      <trkpt lat="47.02105" lon="5.57698">
        <ele>228</ele>
        <time>2012-09-21T12:18:16Z</time>
      </trkpt>
      <trkpt lat="47.02099" lon="5.57715">
        <ele>228</ele>
        <time>2012-09-21T12:18:18Z</time>
      </trkpt>
      <trkpt lat="47.02092" lon="5.57732">
        <ele>228</ele>
        <time>2012-09-21T12:18:20Z</time>
      </trkpt>
      <trkpt lat="47.02086" lon="5.57749">
        <ele>228</ele>
        <time>2012-09-21T12:18:22Z</time>
      </trkpt>
      <trkpt lat="47.0208" lon="5.57766">
        <ele>228</ele>
        <time>2012-09-21T12:18:24Z</time>
      </trkpt>
      <trkpt lat="47.02073" lon="5.57783">
        <ele>228</ele>
        <time>2012-09-21T12:18:26Z</time>
      </trkpt>
      <trkpt lat="47.02064" lon="5.57799">
        <ele>228</ele>
        <time>2012-09-21T12:18:28Z</time>
      </trkpt>
      <trkpt lat="47.02057" lon="5.57815">
        <ele>228</ele>
        <time>2012-09-21T12:18:30Z</time>
      </trkpt>
      <trkpt lat="47.02048" lon="5.5783">
        <ele>228</ele>
        <time>2012-09-21T12:18:32Z</time>
      </trkpt>
      <trkpt lat="47.0204" lon="5.57844">
        <ele>228</ele>
        <time>2012-09-21T12:18:34Z</time>
      </trkpt>
      <trkpt lat="47.02031" lon="5.57859">
        <ele>228</ele>
        <time>2012-09-21T12:18:36Z</time>
      </trkpt>
      <trkpt lat="47.02022" lon="5.57874">
        <ele>228</ele>
        <time>2012-09-21T12:18:38Z</time>
      </trkpt>
      <trkpt lat="47.02012" lon="5.57889">
        <ele>228</ele>
        <time>2012-09-21T12:18:40Z</time>
      </trkpt>
      <trkpt lat="47.02002" lon="5.57904">
        <ele>228</ele>
        <time>2012-09-21T12:18:42Z</time>
      </trkpt>
      <trkpt lat="47.01992" lon="5.57919">
        <ele>228</ele>
        <time>2012-09-21T12:18:44Z</time>
      </trkpt>
      <trkpt lat="47.01983" lon="5.57934">
        <ele>228</ele>
        <time>2012-09-21T12:18:46Z</time>
      </trkpt>
      <trkpt lat="47.01974" lon="5.57949">
        <ele>228</ele>
        <time>2012-09-21T12:18:48Z</time>
      </trkpt>
      <trkpt lat="47.01964" lon="5.57964">
        <ele>223</ele>
        <time>2012-09-21T12:18:50Z</time>
      </trkpt>
      <trkpt lat="47.01954" lon="5.5798">
        <ele>223</ele>
        <time>2012-09-21T12:18:52Z</time>
      </trkpt>
      <trkpt lat="47.01945" lon="5.57994">
        <ele>223</ele>
        <time>2012-09-21T12:18:54Z</time>
      </trkpt>
      <trkpt lat="47.01936" lon="5.58007">
        <ele>223</ele>
        <time>2012-09-21T12:18:56Z</time>
      </trkpt>
      <trkpt lat="47.01926" lon="5.58022">
        <ele>223</ele>
        <time>2012-09-21T12:18:58Z</time>
      </trkpt>
      <trkpt lat="47.01916" lon="5.58035">
        <ele>223</ele>
        <time>2012-09-21T12:19:00Z</time>
      </trkpt>
      <trkpt lat="47.01906" lon="5.58048">
        <ele>223</ele>
        <time>2012-09-21T12:19:02Z</time>
      </trkpt>
      <trkpt lat="47.01896" lon="5.58061">
        <ele>223</ele>
        <time>2012-09-21T12:19:04Z</time>
      </trkpt>
      <trkpt lat="47.01886" lon="5.58075">
        <ele>223</ele>
        <time>2012-09-21T12:19:06Z</time>
      </trkpt>
      <trkpt lat="47.01877" lon="5.58088">
        <ele>223</ele>
        <time>2012-09-21T12:19:08Z</time>
      </trkpt>
      <trkpt lat="47.01867" lon="5.58103">
        <ele>223</ele>
        <time>2012-09-21T12:19:10Z</time>
      </trkpt>
      <trkpt lat="47.01858" lon="5.58117">
        <ele>223</ele>
        <time>2012-09-21T12:19:12Z</time>
      </trkpt>
      <trkpt lat="47.0185" lon="5.58131">
        <ele>223</ele>
        <time>2012-09-21T12:19:14Z</time>
      </trkpt>
      <trkpt lat="47.01841" lon="5.58143">
        <ele>223</ele>
        <time>2012-09-21T12:19:16Z</time>
      </trkpt>
      <trkpt lat="47.0183" lon="5.5815">
        <ele>223</ele>
        <time>2012-09-21T12:19:18Z</time>
      </trkpt>
      <trkpt lat="47.01814" lon="5.58148">
        <ele>223</ele>
        <time>2012-09-21T12:19:20Z</time>
      </trkpt>
      <trkpt lat="47.01798" lon="5.58141">
        <ele>223</ele>
        <time>2012-09-21T12:19:22Z</time>
      </trkpt>
      <trkpt lat="47.01789" lon="5.58138">
        <ele>218</ele>
        <time>2012-09-21T12:19:23Z</time>
      </trkpt>
      <trkpt lat="47.0178" lon="5.58134">
        <ele>218</ele>
        <time>2012-09-21T12:19:24Z</time>
      </trkpt>
      <trkpt lat="47.01766" lon="5.5813">
        <ele>218</ele>
        <time>2012-09-21T12:19:26Z</time>
      </trkpt>
      <trkpt lat="47.01752" lon="5.58134">
        <ele>218</ele>
        <time>2012-09-21T12:19:28Z</time>
      </trkpt>
      <trkpt lat="47.01744" lon="5.58149">
        <ele>218</ele>
        <time>2012-09-21T12:19:30Z</time>
      </trkpt>
      <trkpt lat="47.0174" lon="5.58169">
        <ele>218</ele>
        <time>2012-09-21T12:19:32Z</time>
      </trkpt>
      <trkpt lat="47.01737" lon="5.58191">
        <ele>218</ele>
        <time>2012-09-21T12:19:34Z</time>
      </trkpt>
      <trkpt lat="47.01733" lon="5.58213">
        <ele>218</ele>
        <time>2012-09-21T12:19:36Z</time>
      </trkpt>
      <trkpt lat="47.01729" lon="5.58237">
        <ele>218</ele>
        <time>2012-09-21T12:19:38Z</time>
      </trkpt>
      <trkpt lat="47.01727" lon="5.58261">
        <ele>218</ele>
        <time>2012-09-21T12:19:40Z</time>
      </trkpt>
      <trkpt lat="47.01726" lon="5.58286">
        <ele>218</ele>
        <time>2012-09-21T12:19:42Z</time>
      </trkpt>
      <trkpt lat="47.01726" lon="5.5831">
        <ele>218</ele>
        <time>2012-09-21T12:19:44Z</time>
      </trkpt>
      <trkpt lat="47.01725" lon="5.58334">
        <ele>218</ele>
        <time>2012-09-21T12:19:46Z</time>
      </trkpt>
      <trkpt lat="47.01724" lon="5.58359">
        <ele>218</ele>
        <time>2012-09-21T12:19:48Z</time>
      </trkpt>
      <trkpt lat="47.01724" lon="5.58381">
        <ele>218</ele>
        <time>2012-09-21T12:19:50Z</time>
      </trkpt>
      <trkpt lat="47.01724" lon="5.58403">
        <ele>218</ele>
        <time>2012-09-21T12:19:52Z</time>
      </trkpt>
      <trkpt lat="47.01723" lon="5.58422">
        <ele>218</ele>
        <time>2012-09-21T12:19:54Z</time>
      </trkpt>
      <trkpt lat="47.01723" lon="5.5844">
        <ele>218</ele>
        <time>2012-09-21T12:19:56Z</time>
      </trkpt>
      <trkpt lat="47.01721" lon="5.58458">
        <ele>218</ele>
        <time>2012-09-21T12:19:58Z</time>
      </trkpt>
      <trkpt lat="47.01718" lon="5.58478">
        <ele>218</ele>
        <time>2012-09-21T12:20:00Z</time>
      </trkpt>
      <trkpt lat="47.01713" lon="5.58497">
        <ele>218</ele>
        <time>2012-09-21T12:20:02Z</time>
      </trkpt>
      <trkpt lat="47.01707" lon="5.58514">
        <ele>218</ele>
        <time>2012-09-21T12:20:04Z</time>
      </trkpt>
      <trkpt lat="47.01699" lon="5.58532">
        <ele>218</ele>
        <time>2012-09-21T12:20:06Z</time>
      </trkpt>
      <trkpt lat="47.01692" lon="5.5855">
        <ele>218</ele>
        <time>2012-09-21T12:20:08Z</time>
      </trkpt>
      <trkpt lat="47.01687" lon="5.58569">
        <ele>218</ele>
        <time>2012-09-21T12:20:10Z</time>
      </trkpt>
      <trkpt lat="47.01682" lon="5.58589">
        <ele>218</ele>
        <time>2012-09-21T12:20:12Z</time>
      </trkpt>
      <trkpt lat="47.01679" lon="5.58609">
        <ele>218</ele>
        <time>2012-09-21T12:20:14Z</time>
      </trkpt>
      <trkpt lat="47.01677" lon="5.5863">
        <ele>218</ele>
        <time>2012-09-21T12:20:16Z</time>
      </trkpt>
      <trkpt lat="47.01677" lon="5.58652">
        <ele>218</ele>
        <time>2012-09-21T12:20:18Z</time>
      </trkpt>
      <trkpt lat="47.01676" lon="5.58674">
        <ele>218</ele>
        <time>2012-09-21T12:20:20Z</time>
      </trkpt>
      <trkpt lat="47.01676" lon="5.58696">
        <ele>218</ele>
        <time>2012-09-21T12:20:22Z</time>
      </trkpt>
      <trkpt lat="47.01675" lon="5.58717">
        <ele>218</ele>
        <time>2012-09-21T12:20:24Z</time>
      </trkpt>
      <trkpt lat="47.01675" lon="5.58739">
        <ele>218</ele>
        <time>2012-09-21T12:20:26Z</time>
      </trkpt>
      <trkpt lat="47.01675" lon="5.5876">
        <ele>218</ele>
        <time>2012-09-21T12:20:28Z</time>
      </trkpt>
      <trkpt lat="47.01674" lon="5.58781">
        <ele>218</ele>
        <time>2012-09-21T12:20:30Z</time>
      </trkpt>
      <trkpt lat="47.01672" lon="5.58801">
        <ele>218</ele>
        <time>2012-09-21T12:20:32Z</time>
      </trkpt>
      <trkpt lat="47.0167" lon="5.5882">
        <ele>218</ele>
        <time>2012-09-21T12:20:34Z</time>
      </trkpt>
      <trkpt lat="47.01669" lon="5.58839">
        <ele>218</ele>
        <time>2012-09-21T12:20:36Z</time>
      </trkpt>
      <trkpt lat="47.01666" lon="5.58858">
        <ele>218</ele>
        <time>2012-09-21T12:20:38Z</time>
      </trkpt>
      <trkpt lat="47.01664" lon="5.58875">
        <ele>218</ele>
        <time>2012-09-21T12:20:40Z</time>
      </trkpt>
      <trkpt lat="47.01662" lon="5.58892">
        <ele>218</ele>
        <time>2012-09-21T12:20:42Z</time>
      </trkpt>
      <trkpt lat="47.0166" lon="5.58909">
        <ele>218</ele>
        <time>2012-09-21T12:20:44Z</time>
      </trkpt>
      <trkpt lat="47.01659" lon="5.58927">
        <ele>218</ele>
        <time>2012-09-21T12:20:46Z</time>
      </trkpt>
      <trkpt lat="47.01659" lon="5.58945">
        <ele>218</ele>
        <time>2012-09-21T12:20:48Z</time>
      </trkpt>
      <trkpt lat="47.01659" lon="5.58963">
        <ele>218</ele>
        <time>2012-09-21T12:20:50Z</time>
      </trkpt>
      <trkpt lat="47.0166" lon="5.58981">
        <ele>218</ele>
        <time>2012-09-21T12:20:52Z</time>
      </trkpt>
      <trkpt lat="47.01662" lon="5.59">
        <ele>218</ele>
        <time>2012-09-21T12:20:54Z</time>
      </trkpt>
      <trkpt lat="47.01664" lon="5.59017">
        <ele>218</ele>
        <time>2012-09-21T12:20:56Z</time>
      </trkpt>
      <trkpt lat="47.01667" lon="5.59035">
        <ele>218</ele>
        <time>2012-09-21T12:20:58Z</time>
      </trkpt>
      <trkpt lat="47.01669" lon="5.59052">
        <ele>218</ele>
        <time>2012-09-21T12:21:00Z</time>
      </trkpt>
      <trkpt lat="47.01671" lon="5.59068">
        <ele>218</ele>
        <time>2012-09-21T12:21:02Z</time>
      </trkpt>
      <trkpt lat="47.01674" lon="5.59085">
        <ele>218</ele>
        <time>2012-09-21T12:21:04Z</time>
      </trkpt>
      <trkpt lat="47.01678" lon="5.59102">
        <ele>218</ele>
        <time>2012-09-21T12:21:06Z</time>
      </trkpt>
      <trkpt lat="47.01681" lon="5.59119">
        <ele>218</ele>
        <time>2012-09-21T12:21:08Z</time>
      </trkpt>
      <trkpt lat="47.01685" lon="5.59136">
        <ele>218</ele>
        <time>2012-09-21T12:21:10Z</time>
      </trkpt>
      <trkpt lat="47.01689" lon="5.59154">
        <ele>218</ele>
        <time>2012-09-21T12:21:12Z</time>
      </trkpt>
      <trkpt lat="47.01692" lon="5.59172">
        <ele>218</ele>
        <time>2012-09-21T12:21:14Z</time>
      </trkpt>
      <trkpt lat="47.01694" lon="5.59191">
        <ele>218</ele>
        <time>2012-09-21T12:21:16Z</time>
      </trkpt>
      <trkpt lat="47.01689" lon="5.59209">
        <ele>218</ele>
        <time>2012-09-21T12:21:18Z</time>
      </trkpt>
      <trkpt lat="47.01681" lon="5.59222">
        <ele>218</ele>
        <time>2012-09-21T12:21:20Z</time>
      </trkpt>
      <trkpt lat="47.0167" lon="5.59233">
        <ele>218</ele>
        <time>2012-09-21T12:21:22Z</time>
      </trkpt>
      <trkpt lat="47.01658" lon="5.59243">
        <ele>218</ele>
        <time>2012-09-21T12:21:24Z</time>
      </trkpt>
      <trkpt lat="47.01646" lon="5.59252">
        <ele>218</ele>
        <time>2012-09-21T12:21:26Z</time>
      </trkpt>
      <trkpt lat="47.01634" lon="5.59259">
        <ele>218</ele>
        <time>2012-09-21T12:21:28Z</time>
      </trkpt>
      <trkpt lat="47.01622" lon="5.59266">
        <ele>218</ele>
        <time>2012-09-21T12:21:30Z</time>
      </trkpt>
      <trkpt lat="47.01611" lon="5.59274">
        <ele>218</ele>
        <time>2012-09-21T12:21:32Z</time>
      </trkpt>
      <trkpt lat="47.01602" lon="5.59281">
        <ele>218</ele>
        <time>2012-09-21T12:21:34Z</time>
      </trkpt>
      <trkpt lat="47.01591" lon="5.59288">
        <ele>218</ele>
        <time>2012-09-21T12:21:36Z</time>
      </trkpt>
      <trkpt lat="47.01579" lon="5.59295">
        <ele>218</ele>
        <time>2012-09-21T12:21:38Z</time>
      </trkpt>
      <trkpt lat="47.01568" lon="5.59304">
        <ele>218</ele>
        <time>2012-09-21T12:21:40Z</time>
      </trkpt>
      <trkpt lat="47.01559" lon="5.59314">
        <ele>218</ele>
        <time>2012-09-21T12:21:42Z</time>
      </trkpt>
      <trkpt lat="47.01551" lon="5.59327">
        <ele>218</ele>
        <time>2012-09-21T12:21:44Z</time>
      </trkpt>
      <trkpt lat="47.01541" lon="5.59339">
        <ele>218</ele>
        <time>2012-09-21T12:21:46Z</time>
      </trkpt>
      <trkpt lat="47.0153" lon="5.59347">
        <ele>218</ele>
        <time>2012-09-21T12:21:48Z</time>
      </trkpt>
      <trkpt lat="47.01515" lon="5.59354">
        <ele>218</ele>
        <time>2012-09-21T12:21:50Z</time>
      </trkpt>
      <trkpt lat="47.01502" lon="5.5936">
        <ele>218</ele>
        <time>2012-09-21T12:21:52Z</time>
      </trkpt>
      <trkpt lat="47.01489" lon="5.59367">
        <ele>218</ele>
        <time>2012-09-21T12:21:54Z</time>
      </trkpt>
      <trkpt lat="47.01476" lon="5.59372">
        <ele>218</ele>
        <time>2012-09-21T12:21:56Z</time>
      </trkpt>
      <trkpt lat="47.01463" lon="5.59377">
        <ele>218</ele>
        <time>2012-09-21T12:21:58Z</time>
      </trkpt>
      <trkpt lat="47.01449" lon="5.59382">
        <ele>218</ele>
        <time>2012-09-21T12:22:00Z</time>
      </trkpt>
      <trkpt lat="47.01436" lon="5.59386">
        <ele>218</ele>
        <time>2012-09-21T12:22:02Z</time>
      </trkpt>
      <trkpt lat="47.01423" lon="5.59392">
        <ele>218</ele>
        <time>2012-09-21T12:22:04Z</time>
      </trkpt>
      <trkpt lat="47.01409" lon="5.59397">
        <ele>218</ele>
        <time>2012-09-21T12:22:06Z</time>
      </trkpt>
      <trkpt lat="47.01399" lon="5.59403">
        <ele>218</ele>
        <time>2012-09-21T12:22:08Z</time>
      </trkpt>
      <trkpt lat="47.01387" lon="5.59408">
        <ele>218</ele>
        <time>2012-09-21T12:22:10Z</time>
      </trkpt>
      <trkpt lat="47.01374" lon="5.59413">
        <ele>218</ele>
        <time>2012-09-21T12:22:12Z</time>
      </trkpt>
      <trkpt lat="47.0136" lon="5.59421">
        <ele>218</ele>
        <time>2012-09-21T12:22:14Z</time>
      </trkpt>
      <trkpt lat="47.01347" lon="5.59427">
        <ele>218</ele>
        <time>2012-09-21T12:22:16Z</time>
      </trkpt>
      <trkpt lat="47.01333" lon="5.59431">
        <ele>218</ele>
        <time>2012-09-21T12:22:18Z</time>
      </trkpt>
      <trkpt lat="47.01319" lon="5.59438">
        <ele>218</ele>
        <time>2012-09-21T12:22:20Z</time>
      </trkpt>
      <trkpt lat="47.01305" lon="5.59444">
        <ele>218</ele>
        <time>2012-09-21T12:22:22Z</time>
      </trkpt>
      <trkpt lat="47.01292" lon="5.5945">
        <ele>218</ele>
        <time>2012-09-21T12:22:24Z</time>
      </trkpt>
      <trkpt lat="47.01278" lon="5.59456">
        <ele>218</ele>
        <time>2012-09-21T12:22:26Z</time>
      </trkpt>
      <trkpt lat="47.01264" lon="5.59462">
        <ele>218</ele>
        <time>2012-09-21T12:22:28Z</time>
      </trkpt>
      <trkpt lat="47.01251" lon="5.59467">
        <ele>218</ele>
        <time>2012-09-21T12:22:30Z</time>
      </trkpt>
      <trkpt lat="47.01237" lon="5.59473">
        <ele>218</ele>
        <time>2012-09-21T12:22:32Z</time>
      </trkpt>
      <trkpt lat="47.01225" lon="5.59478">
        <ele>218</ele>
        <time>2012-09-21T12:22:34Z</time>
      </trkpt>
      <trkpt lat="47.01213" lon="5.59482">
        <ele>218</ele>
        <time>2012-09-21T12:22:36Z</time>
      </trkpt>
      <trkpt lat="47.01202" lon="5.59487">
        <ele>218</ele>
        <time>2012-09-21T12:22:38Z</time>
      </trkpt>
      <trkpt lat="47.0119" lon="5.59491">
        <ele>218</ele>
        <time>2012-09-21T12:22:40Z</time>
      </trkpt>
      <trkpt lat="47.01178" lon="5.59496">
        <ele>218</ele>
        <time>2012-09-21T12:22:42Z</time>
      </trkpt>
      <trkpt lat="47.01165" lon="5.595">
        <ele>218</ele>
        <time>2012-09-21T12:22:44Z</time>
      </trkpt>
      <trkpt lat="47.01153" lon="5.59504">
        <ele>218</ele>
        <time>2012-09-21T12:22:46Z</time>
      </trkpt>
      <trkpt lat="47.01141" lon="5.59508">
        <ele>218</ele>
        <time>2012-09-21T12:22:48Z</time>
      </trkpt>
      <trkpt lat="47.01129" lon="5.59511">
        <ele>218</ele>
        <time>2012-09-21T12:22:50Z</time>
      </trkpt>
      <trkpt lat="47.01116" lon="5.59516">
        <ele>218</ele>
        <time>2012-09-21T12:22:52Z</time>
      </trkpt>
      <trkpt lat="47.01104" lon="5.59519">
        <ele>218</ele>
        <time>2012-09-21T12:22:54Z</time>
      </trkpt>
      <trkpt lat="47.01092" lon="5.59524">
        <ele>218</ele>
        <time>2012-09-21T12:22:56Z</time>
      </trkpt>
      <trkpt lat="47.0108" lon="5.59528">
        <ele>218</ele>
        <time>2012-09-21T12:22:58Z</time>
      </trkpt>
      <trkpt lat="47.01068" lon="5.59533">
        <ele>218</ele>
        <time>2012-09-21T12:23:00Z</time>
      </trkpt>
      <trkpt lat="47.01057" lon="5.59536">
        <ele>218</ele>
        <time>2012-09-21T12:23:02Z</time>
      </trkpt>
      <trkpt lat="47.01046" lon="5.59541">
        <ele>218</ele>
        <time>2012-09-21T12:23:04Z</time>
      </trkpt>
      <trkpt lat="47.01035" lon="5.59544">
        <ele>218</ele>
        <time>2012-09-21T12:23:06Z</time>
      </trkpt>
      <trkpt lat="47.01024" lon="5.59548">
        <ele>218</ele>
        <time>2012-09-21T12:23:08Z</time>
      </trkpt>
      <trkpt lat="47.01014" lon="5.59552">
        <ele>218</ele>
        <time>2012-09-21T12:23:10Z</time>
      </trkpt>
      <trkpt lat="47.01003" lon="5.59555">
        <ele>218</ele>
        <time>2012-09-21T12:23:12Z</time>
      </trkpt>
      <trkpt lat="47.00991" lon="5.59559">
        <ele>218</ele>
        <time>2012-09-21T12:23:14Z</time>
      </trkpt>
      <trkpt lat="47.0098" lon="5.59562">
        <ele>218</ele>
        <time>2012-09-21T12:23:16Z</time>
      </trkpt>
      <trkpt lat="47.00969" lon="5.59567">
        <ele>218</ele>
        <time>2012-09-21T12:23:18Z</time>
      </trkpt>
      <trkpt lat="47.00958" lon="5.59571">
        <ele>218</ele>
        <time>2012-09-21T12:23:20Z</time>
      </trkpt>
      <trkpt lat="47.00945" lon="5.59575">
        <ele>218</ele>
        <time>2012-09-21T12:23:22Z</time>
      </trkpt>
      <trkpt lat="47.00933" lon="5.59579">
        <ele>218</ele>
        <time>2012-09-21T12:23:24Z</time>
      </trkpt>
      <trkpt lat="47.00919" lon="5.59583">
        <ele>218</ele>
        <time>2012-09-21T12:23:26Z</time>
      </trkpt>
      <trkpt lat="47.00905" lon="5.59588">
        <ele>218</ele>
        <time>2012-09-21T12:23:28Z</time>
      </trkpt>
      <trkpt lat="47.00891" lon="5.59594">
        <ele>218</ele>
        <time>2012-09-21T12:23:30Z</time>
      </trkpt>
      <trkpt lat="47.00877" lon="5.59599">
        <ele>218</ele>
        <time>2012-09-21T12:23:32Z</time>
      </trkpt>
      <trkpt lat="47.00862" lon="5.59605">
        <ele>218</ele>
        <time>2012-09-21T12:23:34Z</time>
      </trkpt>
      <trkpt lat="47.00848" lon="5.59609">
        <ele>218</ele>
        <time>2012-09-21T12:23:36Z</time>
      </trkpt>
      <trkpt lat="47.00834" lon="5.59615">
        <ele>218</ele>
        <time>2012-09-21T12:23:38Z</time>
      </trkpt>
      <trkpt lat="47.00821" lon="5.59619">
        <ele>218</ele>
        <time>2012-09-21T12:23:40Z</time>
      </trkpt>
      <trkpt lat="47.0081" lon="5.59623">
        <ele>218</ele>
        <time>2012-09-21T12:23:42Z</time>
      </trkpt>
      <trkpt lat="47.00799" lon="5.59626">
        <ele>218</ele>
        <time>2012-09-21T12:23:44Z</time>
      </trkpt>
      <trkpt lat="47.00788" lon="5.59629">
        <ele>218</ele>
        <time>2012-09-21T12:23:46Z</time>
      </trkpt>
      <trkpt lat="47.00777" lon="5.59631">
        <ele>218</ele>
        <time>2012-09-21T12:23:48Z</time>
      </trkpt>
      <trkpt lat="47.00767" lon="5.59625">
        <ele>218</ele>
        <time>2012-09-21T12:23:50Z</time>
      </trkpt>
      <trkpt lat="47.0076" lon="5.5961">
        <ele>218</ele>
        <time>2012-09-21T12:23:52Z</time>
      </trkpt>
      <trkpt lat="47.00757" lon="5.59592">
        <ele>218</ele>
        <time>2012-09-21T12:23:54Z</time>
      </trkpt>
      <trkpt lat="47.00754" lon="5.59572">
        <ele>218</ele>
        <time>2012-09-21T12:23:56Z</time>
      </trkpt>
      <trkpt lat="47.00751" lon="5.59553">
        <ele>218</ele>
        <time>2012-09-21T12:23:58Z</time>
      </trkpt>
      <trkpt lat="47.00747" lon="5.59535">
        <ele>218</ele>
        <time>2012-09-21T12:24:00Z</time>
      </trkpt>
      <trkpt lat="47.00742" lon="5.59517">
        <ele>218</ele>
        <time>2012-09-21T12:24:02Z</time>
      </trkpt>
      <trkpt lat="47.00738" lon="5.59498">
        <ele>218</ele>
        <time>2012-09-21T12:24:04Z</time>
      </trkpt>
      <trkpt lat="47.00732" lon="5.5948">
        <ele>218</ele>
        <time>2012-09-21T12:24:06Z</time>
      </trkpt>
      <trkpt lat="47.00725" lon="5.59463">
        <ele>213</ele>
        <time>2012-09-21T12:24:08Z</time>
      </trkpt>
      <trkpt lat="47.00718" lon="5.59446">
        <ele>213</ele>
        <time>2012-09-21T12:24:10Z</time>
      </trkpt>
      <trkpt lat="47.00709" lon="5.5943">
        <ele>213</ele>
        <time>2012-09-21T12:24:12Z</time>
      </trkpt>
      <trkpt lat="47.00701" lon="5.59415">
        <ele>213</ele>
        <time>2012-09-21T12:24:14Z</time>
      </trkpt>
      <trkpt lat="47.00692" lon="5.594">
        <ele>213</ele>
        <time>2012-09-21T12:24:16Z</time>
      </trkpt>
      <trkpt lat="47.00682" lon="5.59385">
        <ele>213</ele>
        <time>2012-09-21T12:24:18Z</time>
      </trkpt>
      <trkpt lat="47.00674" lon="5.59369">
        <ele>213</ele>
        <time>2012-09-21T12:24:20Z</time>
      </trkpt>
      <trkpt lat="47.00665" lon="5.59355">
        <ele>213</ele>
        <time>2012-09-21T12:24:22Z</time>
      </trkpt>
      <trkpt lat="47.00657" lon="5.59341">
        <ele>213</ele>
        <time>2012-09-21T12:24:24Z</time>
      </trkpt>
      <trkpt lat="47.00648" lon="5.59326">
        <ele>213</ele>
        <time>2012-09-21T12:24:26Z</time>
      </trkpt>
      <trkpt lat="47.0064" lon="5.5931">
        <ele>213</ele>
        <time>2012-09-21T12:24:28Z</time>
      </trkpt>
      <trkpt lat="47.00633" lon="5.59294">
        <ele>213</ele>
        <time>2012-09-21T12:24:30Z</time>
      </trkpt>
      <trkpt lat="47.00626" lon="5.59277">
        <ele>213</ele>
        <time>2012-09-21T12:24:32Z</time>
      </trkpt>
      <trkpt lat="47.0062" lon="5.5926">
        <ele>213</ele>
        <time>2012-09-21T12:24:34Z</time>
      </trkpt>
      <trkpt lat="47.00614" lon="5.59244">
        <ele>213</ele>
        <time>2012-09-21T12:24:36Z</time>
      </trkpt>
      <trkpt lat="47.00607" lon="5.59226">
        <ele>213</ele>
        <time>2012-09-21T12:24:38Z</time>
      </trkpt>
      <trkpt lat="47.00599" lon="5.59211">
        <ele>213</ele>
        <time>2012-09-21T12:24:40Z</time>
      </trkpt>
      <trkpt lat="47.00588" lon="5.59198">
        <ele>213</ele>
        <time>2012-09-21T12:24:42Z</time>
      </trkpt>
      <trkpt lat="47.00576" lon="5.59189">
        <ele>213</ele>
        <time>2012-09-21T12:24:44Z</time>
      </trkpt>
      <trkpt lat="47.00564" lon="5.59183">
        <ele>213</ele>
        <time>2012-09-21T12:24:46Z</time>
      </trkpt>
      <trkpt lat="47.00552" lon="5.5918">
        <ele>213</ele>
        <time>2012-09-21T12:24:48Z</time>
      </trkpt>
      <trkpt lat="47.0054" lon="5.59177">
        <ele>213</ele>
        <time>2012-09-21T12:24:50Z</time>
      </trkpt>
      <trkpt lat="47.00528" lon="5.59173">
        <ele>213</ele>
        <time>2012-09-21T12:24:52Z</time>
      </trkpt>
      <trkpt lat="47.00515" lon="5.5917">
        <ele>213</ele>
        <time>2012-09-21T12:24:54Z</time>
      </trkpt>
      <trkpt lat="47.00502" lon="5.59166">
        <ele>213</ele>
        <time>2012-09-21T12:24:56Z</time>
      </trkpt>
      <trkpt lat="47.0049" lon="5.59163">
        <ele>213</ele>
        <time>2012-09-21T12:24:58Z</time>
      </trkpt>
      <trkpt lat="47.00477" lon="5.59159">
        <ele>213</ele>
        <time>2012-09-21T12:25:00Z</time>
      </trkpt>
      <trkpt lat="47.00464" lon="5.59155">
        <ele>213</ele>
        <time>2012-09-21T12:25:02Z</time>
      </trkpt>
      <trkpt lat="47.00451" lon="5.59151">
        <ele>213</ele>
        <time>2012-09-21T12:25:04Z</time>
      </trkpt>
      <trkpt lat="47.00438" lon="5.59147">
        <ele>213</ele>
        <time>2012-09-21T12:25:06Z</time>
      </trkpt>
      <trkpt lat="47.00425" lon="5.59143">
        <ele>213</ele>
        <time>2012-09-21T12:25:08Z</time>
      </trkpt>
      <trkpt lat="47.00412" lon="5.59138">
        <ele>213</ele>
        <time>2012-09-21T12:25:10Z</time>
      </trkpt>
      <trkpt lat="47.00399" lon="5.59135">
        <ele>213</ele>
        <time>2012-09-21T12:25:12Z</time>
      </trkpt>
      <trkpt lat="47.00386" lon="5.5913">
        <ele>213</ele>
        <time>2012-09-21T12:25:14Z</time>
      </trkpt>
      <trkpt lat="47.00373" lon="5.59125">
        <ele>213</ele>
        <time>2012-09-21T12:25:16Z</time>
      </trkpt>
      <trkpt lat="47.00361" lon="5.59118">
        <ele>213</ele>
        <time>2012-09-21T12:25:18Z</time>
      </trkpt>
      <trkpt lat="47.00349" lon="5.5911">
        <ele>213</ele>
        <time>2012-09-21T12:25:20Z</time>
      </trkpt>
      <trkpt lat="47.00338" lon="5.59101">
        <ele>213</ele>
        <time>2012-09-21T12:25:22Z</time>
      </trkpt>
      <trkpt lat="47.00326" lon="5.59092">
        <ele>213</ele>
        <time>2012-09-21T12:25:24Z</time>
      </trkpt>
      <trkpt lat="47.00314" lon="5.59085">
        <ele>213</ele>
        <time>2012-09-21T12:25:26Z</time>
      </trkpt>
      <trkpt lat="47.00301" lon="5.59081">
        <ele>213</ele>
        <time>2012-09-21T12:25:28Z</time>
      </trkpt>
      <trkpt lat="47.00289" lon="5.59081">
        <ele>213</ele>
        <time>2012-09-21T12:25:30Z</time>
      </trkpt>
      <trkpt lat="47.00277" lon="5.59085">
        <ele>213</ele>
        <time>2012-09-21T12:25:32Z</time>
      </trkpt>
      <trkpt lat="47.00265" lon="5.5909">
        <ele>213</ele>
        <time>2012-09-21T12:25:34Z</time>
      </trkpt>
      <trkpt lat="47.00252" lon="5.59095">
        <ele>213</ele>
        <time>2012-09-21T12:25:36Z</time>
      </trkpt>
      <trkpt lat="47.00239" lon="5.59101">
        <ele>213</ele>
        <time>2012-09-21T12:25:38Z</time>
      </trkpt>
      <trkpt lat="47.00226" lon="5.59106">
        <ele>218</ele>
        <time>2012-09-21T12:25:40Z</time>
      </trkpt>
      <trkpt lat="47.00212" lon="5.59111">
        <ele>218</ele>
        <time>2012-09-21T12:25:42Z</time>
      </trkpt>
      <trkpt lat="47.00199" lon="5.59118">
        <ele>218</ele>
        <time>2012-09-21T12:25:44Z</time>
      </trkpt>
      <trkpt lat="47.00185" lon="5.59123">
        <ele>218</ele>
        <time>2012-09-21T12:25:46Z</time>
      </trkpt>
      <trkpt lat="47.00172" lon="5.59129">
        <ele>218</ele>
        <time>2012-09-21T12:25:48Z</time>
      </trkpt>
      <trkpt lat="47.00159" lon="5.59134">
        <ele>218</ele>
        <time>2012-09-21T12:25:50Z</time>
      </trkpt>
      <trkpt lat="47.00147" lon="5.59139">
        <ele>218</ele>
        <time>2012-09-21T12:25:52Z</time>
      </trkpt>
      <trkpt lat="47.00134" lon="5.59144">
        <ele>218</ele>
        <time>2012-09-21T12:25:54Z</time>
      </trkpt>
      <trkpt lat="47.00123" lon="5.59148">
        <ele>218</ele>
        <time>2012-09-21T12:25:56Z</time>
      </trkpt>
      <trkpt lat="47.0011" lon="5.59154">
        <ele>218</ele>
        <time>2012-09-21T12:25:58Z</time>
      </trkpt>
      <trkpt lat="47.00099" lon="5.59158">
        <ele>218</ele>
        <time>2012-09-21T12:26:00Z</time>
      </trkpt>
      <trkpt lat="47.00086" lon="5.59164">
        <ele>218</ele>
        <time>2012-09-21T12:26:02Z</time>
      </trkpt>
      <trkpt lat="47.00074" lon="5.59169">
        <ele>218</ele>
        <time>2012-09-21T12:26:04Z</time>
      </trkpt>
      <trkpt lat="47.00062" lon="5.59173">
        <ele>218</ele>
        <time>2012-09-21T12:26:06Z</time>
      </trkpt>
      <trkpt lat="47.00049" lon="5.59179">
        <ele>218</ele>
        <time>2012-09-21T12:26:08Z</time>
      </trkpt>
      <trkpt lat="47.00037" lon="5.59184">
        <ele>218</ele>
        <time>2012-09-21T12:26:10Z</time>
      </trkpt>
      <trkpt lat="47.00024" lon="5.5919">
        <ele>218</ele>
        <time>2012-09-21T12:26:12Z</time>
      </trkpt>
      <trkpt lat="47.00011" lon="5.59196">
        <ele>218</ele>
        <time>2012-09-21T12:26:14Z</time>
      </trkpt>
      <trkpt lat="46.99997" lon="5.592">
        <ele>218</ele>
        <time>2012-09-21T12:26:16Z</time>
      </trkpt>
      <trkpt lat="46.99983" lon="5.59205">
        <ele>218</ele>
        <time>2012-09-21T12:26:18Z</time>
      </trkpt>
      <trkpt lat="46.9997" lon="5.59209">
        <ele>218</ele>
        <time>2012-09-21T12:26:20Z</time>
      </trkpt>
      <trkpt lat="46.99957" lon="5.59212">
        <ele>218</ele>
        <time>2012-09-21T12:26:22Z</time>
      </trkpt>
      <trkpt lat="46.99944" lon="5.59215">
        <ele>218</ele>
        <time>2012-09-21T12:26:24Z</time>
      </trkpt>
      <trkpt lat="46.99931" lon="5.59217">
        <ele>218</ele>
        <time>2012-09-21T12:26:26Z</time>
      </trkpt>
      <trkpt lat="46.99919" lon="5.5922">
        <ele>218</ele>
        <time>2012-09-21T12:26:28Z</time>
      </trkpt>
      <trkpt lat="46.99906" lon="5.59222">
        <ele>218</ele>
        <time>2012-09-21T12:26:30Z</time>
      </trkpt>
      <trkpt lat="46.99894" lon="5.59224">
        <ele>218</ele>
        <time>2012-09-21T12:26:32Z</time>
      </trkpt>
      <trkpt lat="46.99882" lon="5.59226">
        <ele>218</ele>
        <time>2012-09-21T12:26:34Z</time>
      </trkpt>
      <trkpt lat="46.99871" lon="5.59229">
        <ele>218</ele>
        <time>2012-09-21T12:26:36Z</time>
      </trkpt>
      <trkpt lat="46.99859" lon="5.59232">
        <ele>218</ele>
        <time>2012-09-21T12:26:38Z</time>
      </trkpt>
      <trkpt lat="46.99847" lon="5.59235">
        <ele>218</ele>
        <time>2012-09-21T12:26:40Z</time>
      </trkpt>
      <trkpt lat="46.99834" lon="5.59238">
        <ele>218</ele>
        <time>2012-09-21T12:26:42Z</time>
      </trkpt>
      <trkpt lat="46.99822" lon="5.59241">
        <ele>218</ele>
        <time>2012-09-21T12:26:44Z</time>
      </trkpt>
      <trkpt lat="46.9981" lon="5.59244">
        <ele>218</ele>
        <time>2012-09-21T12:26:46Z</time>
      </trkpt>
      <trkpt lat="46.99797" lon="5.59247">
        <ele>218</ele>
        <time>2012-09-21T12:26:48Z</time>
      </trkpt>
      <trkpt lat="46.99785" lon="5.59251">
        <ele>218</ele>
        <time>2012-09-21T12:26:50Z</time>
      </trkpt>
      <trkpt lat="46.99773" lon="5.59254">
        <ele>218</ele>
        <time>2012-09-21T12:26:52Z</time>
      </trkpt>
      <trkpt lat="46.99761" lon="5.59258">
        <ele>218</ele>
        <time>2012-09-21T12:26:54Z</time>
      </trkpt>
      <trkpt lat="46.99749" lon="5.59262">
        <ele>218</ele>
        <time>2012-09-21T12:26:56Z</time>
      </trkpt>
      <trkpt lat="46.99737" lon="5.59266">
        <ele>218</ele>
        <time>2012-09-21T12:26:58Z</time>
      </trkpt>
      <trkpt lat="46.99724" lon="5.5927">
        <ele>218</ele>
        <time>2012-09-21T12:27:00Z</time>
      </trkpt>
      <trkpt lat="46.99713" lon="5.59273">
        <ele>218</ele>
        <time>2012-09-21T12:27:02Z</time>
      </trkpt>
      <trkpt lat="46.997" lon="5.59277">
        <ele>218</ele>
        <time>2012-09-21T12:27:04Z</time>
      </trkpt>
      <trkpt lat="46.99689" lon="5.5928">
        <ele>218</ele>
        <time>2012-09-21T12:27:06Z</time>
      </trkpt>
      <trkpt lat="46.99677" lon="5.59284">
        <ele>218</ele>
        <time>2012-09-21T12:27:08Z</time>
      </trkpt>
      <trkpt lat="46.99665" lon="5.59287">
        <ele>218</ele>
        <time>2012-09-21T12:27:10Z</time>
      </trkpt>
      <trkpt lat="46.99653" lon="5.5929">
        <ele>218</ele>
        <time>2012-09-21T12:27:12Z</time>
      </trkpt>
      <trkpt lat="46.99641" lon="5.59293">
        <ele>218</ele>
        <time>2012-09-21T12:27:14Z</time>
      </trkpt>
      <trkpt lat="46.9963" lon="5.59297">
        <ele>218</ele>
        <time>2012-09-21T12:27:16Z</time>
      </trkpt>
      <trkpt lat="46.9962" lon="5.59299">
        <ele>218</ele>
        <time>2012-09-21T12:27:18Z</time>
      </trkpt>
      <trkpt lat="46.99609" lon="5.59302">
        <ele>218</ele>
        <time>2012-09-21T12:27:20Z</time>
      </trkpt>
      <trkpt lat="46.99599" lon="5.59305">
        <ele>218</ele>
        <time>2012-09-21T12:27:22Z</time>
      </trkpt>
      <trkpt lat="46.99589" lon="5.59307">
        <ele>218</ele>
        <time>2012-09-21T12:27:24Z</time>
      </trkpt>
      <trkpt lat="46.99579" lon="5.5931">
        <ele>218</ele>
        <time>2012-09-21T12:27:26Z</time>
      </trkpt>
      <trkpt lat="46.99568" lon="5.59314">
        <ele>218</ele>
        <time>2012-09-21T12:27:28Z</time>
      </trkpt>
      <trkpt lat="46.99558" lon="5.59317">
        <ele>218</ele>
        <time>2012-09-21T12:27:30Z</time>
      </trkpt>
      <trkpt lat="46.99547" lon="5.59322">
        <ele>218</ele>
        <time>2012-09-21T12:27:32Z</time>
      </trkpt>
      <trkpt lat="46.99536" lon="5.59325">
        <ele>218</ele>
        <time>2012-09-21T12:27:34Z</time>
      </trkpt>
      <trkpt lat="46.99524" lon="5.59328">
        <ele>218</ele>
        <time>2012-09-21T12:27:36Z</time>
      </trkpt>
      <trkpt lat="46.99512" lon="5.59332">
        <ele>218</ele>
        <time>2012-09-21T12:27:38Z</time>
      </trkpt>
      <trkpt lat="46.99499" lon="5.59333">
        <ele>218</ele>
        <time>2012-09-21T12:27:40Z</time>
      </trkpt>
      <trkpt lat="46.99486" lon="5.59332">
        <ele>218</ele>
        <time>2012-09-21T12:27:42Z</time>
      </trkpt>
      <trkpt lat="46.99475" lon="5.59328">
        <ele>218</ele>
        <time>2012-09-21T12:27:44Z</time>
      </trkpt>
      <trkpt lat="46.99463" lon="5.5932">
        <ele>218</ele>
        <time>2012-09-21T12:27:46Z</time>
      </trkpt>
      <trkpt lat="46.99451" lon="5.59312">
        <ele>218</ele>
        <time>2012-09-21T12:27:48Z</time>
      </trkpt>
      <trkpt lat="46.9944" lon="5.59302">
        <ele>218</ele>
        <time>2012-09-21T12:27:50Z</time>
      </trkpt>
      <trkpt lat="46.99429" lon="5.59291">
        <ele>218</ele>
        <time>2012-09-21T12:27:52Z</time>
      </trkpt>
      <trkpt lat="46.99419" lon="5.59279">
        <ele>218</ele>
        <time>2012-09-21T12:27:54Z</time>
      </trkpt>
      <trkpt lat="46.99409" lon="5.59265">
        <ele>218</ele>
        <time>2012-09-21T12:27:56Z</time>
      </trkpt>
      <trkpt lat="46.994" lon="5.59249">
        <ele>218</ele>
        <time>2012-09-21T12:27:58Z</time>
      </trkpt>
      <trkpt lat="46.99394" lon="5.59232">
        <ele>218</ele>
        <time>2012-09-21T12:28:00Z</time>
      </trkpt>
      <trkpt lat="46.99388" lon="5.59214">
        <ele>218</ele>
        <time>2012-09-21T12:28:02Z</time>
      </trkpt>
      <trkpt lat="46.99383" lon="5.59197">
        <ele>218</ele>
        <time>2012-09-21T12:28:04Z</time>
      </trkpt>
      <trkpt lat="46.99378" lon="5.59179">
        <ele>218</ele>
        <time>2012-09-21T12:28:06Z</time>
      </trkpt>
      <trkpt lat="46.99374" lon="5.59162">
        <ele>218</ele>
        <time>2012-09-21T12:28:08Z</time>
      </trkpt>
      <trkpt lat="46.99369" lon="5.59146">
        <ele>218</ele>
        <time>2012-09-21T12:28:10Z</time>
      </trkpt>
      <trkpt lat="46.99365" lon="5.5913">
        <ele>218</ele>
        <time>2012-09-21T12:28:12Z</time>
      </trkpt>
      <trkpt lat="46.99361" lon="5.59114">
        <ele>218</ele>
        <time>2012-09-21T12:28:14Z</time>
      </trkpt>
      <trkpt lat="46.99357" lon="5.59099">
        <ele>218</ele>
        <time>2012-09-21T12:28:16Z</time>
      </trkpt>
      <trkpt lat="46.99352" lon="5.59084">
        <ele>218</ele>
        <time>2012-09-21T12:28:18Z</time>
      </trkpt>
      <trkpt lat="46.99348" lon="5.59069">
        <ele>218</ele>
        <time>2012-09-21T12:28:20Z</time>
      </trkpt>
      <trkpt lat="46.99343" lon="5.59053">
        <ele>218</ele>
        <time>2012-09-21T12:28:22Z</time>
      </trkpt>
      <trkpt lat="46.99339" lon="5.59038">
        <ele>218</ele>
        <time>2012-09-21T12:28:24Z</time>
      </trkpt>
      <trkpt lat="46.99335" lon="5.59023">
        <ele>218</ele>
        <time>2012-09-21T12:28:26Z</time>
      </trkpt>
      <trkpt lat="46.9933" lon="5.59009">
        <ele>218</ele>
        <time>2012-09-21T12:28:28Z</time>
      </trkpt>
      <trkpt lat="46.99327" lon="5.58994">
        <ele>218</ele>
        <time>2012-09-21T12:28:30Z</time>
      </trkpt>
      <trkpt lat="46.99322" lon="5.58978">
        <ele>218</ele>
        <time>2012-09-21T12:28:32Z</time>
      </trkpt>
      <trkpt lat="46.99317" lon="5.58961">
        <ele>218</ele>
        <time>2012-09-21T12:28:34Z</time>
      </trkpt>
      <trkpt lat="46.99313" lon="5.58944">
        <ele>218</ele>
        <time>2012-09-21T12:28:36Z</time>
      </trkpt>
      <trkpt lat="46.99308" lon="5.58927">
        <ele>218</ele>
        <time>2012-09-21T12:28:38Z</time>
      </trkpt>
      <trkpt lat="46.99301" lon="5.58911">
        <ele>218</ele>
        <time>2012-09-21T12:28:40Z</time>
      </trkpt>
      <trkpt lat="46.99295" lon="5.58895">
        <ele>218</ele>
        <time>2012-09-21T12:28:42Z</time>
      </trkpt>
      <trkpt lat="46.99287" lon="5.58881">
        <ele>218</ele>
        <time>2012-09-21T12:28:44Z</time>
      </trkpt>
      <trkpt lat="46.99279" lon="5.58867">
        <ele>218</ele>
        <time>2012-09-21T12:28:46Z</time>
      </trkpt>
      <trkpt lat="46.99273" lon="5.58856">
        <ele>218</ele>
        <time>2012-09-21T12:28:48Z</time>
      </trkpt>
      <trkpt lat="46.99266" lon="5.58846">
        <ele>218</ele>
        <time>2012-09-21T12:28:50Z</time>
      </trkpt>
      <trkpt lat="46.99257" lon="5.58836">
        <ele>218</ele>
        <time>2012-09-21T12:28:52Z</time>
      </trkpt>
      <trkpt lat="46.99247" lon="5.58829">
        <ele>218</ele>
        <time>2012-09-21T12:28:54Z</time>
      </trkpt>
      <trkpt lat="46.99235" lon="5.58823">
        <ele>218</ele>
        <time>2012-09-21T12:28:56Z</time>
      </trkpt>
      <trkpt lat="46.99222" lon="5.58818">
        <ele>218</ele>
        <time>2012-09-21T12:28:58Z</time>
      </trkpt>
      <trkpt lat="46.9921" lon="5.58811">
        <ele>218</ele>
        <time>2012-09-21T12:29:00Z</time>
      </trkpt>
      <trkpt lat="46.99198" lon="5.58802">
        <ele>218</ele>
        <time>2012-09-21T12:29:02Z</time>
      </trkpt>
      <trkpt lat="46.99185" lon="5.58795">
        <ele>218</ele>
        <time>2012-09-21T12:29:04Z</time>
      </trkpt>
      <trkpt lat="46.99174" lon="5.58788">
        <ele>218</ele>
        <time>2012-09-21T12:29:06Z</time>
      </trkpt>
      <trkpt lat="46.99162" lon="5.58781">
        <ele>218</ele>
        <time>2012-09-21T12:29:08Z</time>
      </trkpt>
      <trkpt lat="46.99151" lon="5.58775">
        <ele>218</ele>
        <time>2012-09-21T12:29:10Z</time>
      </trkpt>
      <trkpt lat="46.9914" lon="5.58768">
        <ele>218</ele>
        <time>2012-09-21T12:29:12Z</time>
      </trkpt>
      <trkpt lat="46.99129" lon="5.58763">
        <ele>218</ele>
        <time>2012-09-21T12:29:14Z</time>
      </trkpt>
      <trkpt lat="46.99118" lon="5.58758">
        <ele>218</ele>
        <time>2012-09-21T12:29:16Z</time>
      </trkpt>
      <trkpt lat="46.99106" lon="5.58752">
        <ele>218</ele>
        <time>2012-09-21T12:29:18Z</time>
      </trkpt>
      <trkpt lat="46.99094" lon="5.58747">
        <ele>218</ele>
        <time>2012-09-21T12:29:20Z</time>
      </trkpt>
      <trkpt lat="46.99083" lon="5.5874">
        <ele>218</ele>
        <time>2012-09-21T12:29:22Z</time>
      </trkpt>
      <trkpt lat="46.99072" lon="5.58735">
        <ele>218</ele>
        <time>2012-09-21T12:29:24Z</time>
      </trkpt>
      <trkpt lat="46.99059" lon="5.58729">
        <ele>218</ele>
        <time>2012-09-21T12:29:26Z</time>
      </trkpt>
      <trkpt lat="46.99049" lon="5.58723">
        <ele>218</ele>
        <time>2012-09-21T12:29:28Z</time>
      </trkpt>
      <trkpt lat="46.99039" lon="5.58718">
        <ele>218</ele>
        <time>2012-09-21T12:29:30Z</time>
      </trkpt>
      <trkpt lat="46.99028" lon="5.58713">
        <ele>218</ele>
        <time>2012-09-21T12:29:33Z</time>
      </trkpt>
      <trkpt lat="46.99016" lon="5.58708">
        <ele>218</ele>
        <time>2012-09-21T12:29:36Z</time>
      </trkpt>
      <trkpt lat="46.99008" lon="5.58705">
        <ele>218</ele>
        <time>2012-09-21T12:29:38Z</time>
      </trkpt>
      <trkpt lat="46.98998" lon="5.58702">
        <ele>218</ele>
        <time>2012-09-21T12:29:40Z</time>
      </trkpt>
      <trkpt lat="46.98988" lon="5.587">
        <ele>218</ele>
        <time>2012-09-21T12:29:42Z</time>
      </trkpt>
      <trkpt lat="46.98978" lon="5.58698">
        <ele>218</ele>
        <time>2012-09-21T12:29:44Z</time>
      </trkpt>
      <trkpt lat="46.98968" lon="5.58696">
        <ele>218</ele>
        <time>2012-09-21T12:29:46Z</time>
      </trkpt>
      <trkpt lat="46.98957" lon="5.58695">
        <ele>218</ele>
        <time>2012-09-21T12:29:48Z</time>
      </trkpt>
      <trkpt lat="46.98946" lon="5.58694">
        <ele>218</ele>
        <time>2012-09-21T12:29:50Z</time>
      </trkpt>
      <trkpt lat="46.98933" lon="5.58692">
        <ele>218</ele>
        <time>2012-09-21T12:29:52Z</time>
      </trkpt>
      <trkpt lat="46.9892" lon="5.58688">
        <ele>218</ele>
        <time>2012-09-21T12:29:54Z</time>
      </trkpt>
      <trkpt lat="46.98907" lon="5.58682">
        <ele>218</ele>
        <time>2012-09-21T12:29:56Z</time>
      </trkpt>
      <trkpt lat="46.98895" lon="5.58675">
        <ele>218</ele>
        <time>2012-09-21T12:29:58Z</time>
      </trkpt>
      <trkpt lat="46.98882" lon="5.58668">
        <ele>218</ele>
        <time>2012-09-21T12:30:00Z</time>
      </trkpt>
      <trkpt lat="46.9887" lon="5.58661">
        <ele>218</ele>
        <time>2012-09-21T12:30:02Z</time>
      </trkpt>
      <trkpt lat="46.98858" lon="5.58655">
        <ele>218</ele>
        <time>2012-09-21T12:30:04Z</time>
      </trkpt>
      <trkpt lat="46.98848" lon="5.58649">
        <ele>218</ele>
        <time>2012-09-21T12:30:06Z</time>
      </trkpt>
      <trkpt lat="46.98838" lon="5.58643">
        <ele>218</ele>
        <time>2012-09-21T12:30:08Z</time>
      </trkpt>
      <trkpt lat="46.98828" lon="5.58638">
        <ele>218</ele>
        <time>2012-09-21T12:30:10Z</time>
      </trkpt>
      <trkpt lat="46.98818" lon="5.58632">
        <ele>218</ele>
        <time>2012-09-21T12:30:12Z</time>
      </trkpt>
      <trkpt lat="46.98807" lon="5.58626">
        <ele>218</ele>
        <time>2012-09-21T12:30:14Z</time>
      </trkpt>
      <trkpt lat="46.98796" lon="5.5862">
        <ele>218</ele>
        <time>2012-09-21T12:30:16Z</time>
      </trkpt>
      <trkpt lat="46.98785" lon="5.58614">
        <ele>218</ele>
        <time>2012-09-21T12:30:18Z</time>
      </trkpt>
      <trkpt lat="46.98775" lon="5.58608">
        <ele>218</ele>
        <time>2012-09-21T12:30:20Z</time>
      </trkpt>
      <trkpt lat="46.98764" lon="5.58602">
        <ele>218</ele>
        <time>2012-09-21T12:30:22Z</time>
      </trkpt>
      <trkpt lat="46.98754" lon="5.58597">
        <ele>218</ele>
        <time>2012-09-21T12:30:24Z</time>
      </trkpt>
      <trkpt lat="46.98743" lon="5.5859">
        <ele>218</ele>
        <time>2012-09-21T12:30:26Z</time>
      </trkpt>
      <trkpt lat="46.98732" lon="5.58584">
        <ele>218</ele>
        <time>2012-09-21T12:30:28Z</time>
      </trkpt>
      <trkpt lat="46.98722" lon="5.58579">
        <ele>218</ele>
        <time>2012-09-21T12:30:30Z</time>
      </trkpt>
      <trkpt lat="46.98712" lon="5.58573">
        <ele>218</ele>
        <time>2012-09-21T12:30:32Z</time>
      </trkpt>
      <trkpt lat="46.98702" lon="5.58567">
        <ele>218</ele>
        <time>2012-09-21T12:30:34Z</time>
      </trkpt>
      <trkpt lat="46.98692" lon="5.58562">
        <ele>218</ele>
        <time>2012-09-21T12:30:36Z</time>
      </trkpt>
      <trkpt lat="46.98682" lon="5.58556">
        <ele>218</ele>
        <time>2012-09-21T12:30:38Z</time>
      </trkpt>
      <trkpt lat="46.98672" lon="5.58551">
        <ele>218</ele>
        <time>2012-09-21T12:30:40Z</time>
      </trkpt>
      <trkpt lat="46.98662" lon="5.58546">
        <ele>218</ele>
        <time>2012-09-21T12:30:42Z</time>
      </trkpt>
      <trkpt lat="46.98652" lon="5.5854">
        <ele>218</ele>
        <time>2012-09-21T12:30:44Z</time>
      </trkpt>
      <trkpt lat="46.98643" lon="5.58539">
        <ele>218</ele>
        <time>2012-09-21T12:30:46Z</time>
      </trkpt>
      <trkpt lat="46.98631" lon="5.58544">
        <ele>218</ele>
        <time>2012-09-21T12:30:49Z</time>
      </trkpt>
      <trkpt lat="46.98622" lon="5.58546">
        <ele>218</ele>
        <time>2012-09-21T12:30:52Z</time>
      </trkpt>
      <trkpt lat="46.98613" lon="5.58537">
        <ele>218</ele>
        <time>2012-09-21T12:30:55Z</time>
      </trkpt>
      <trkpt lat="46.98605" lon="5.58521">
        <ele>218</ele>
        <time>2012-09-21T12:30:58Z</time>
      </trkpt>
      <trkpt lat="46.98598" lon="5.58512">
        <ele>218</ele>
        <time>2012-09-21T12:31:00Z</time>
      </trkpt>
      <trkpt lat="46.98591" lon="5.58504">
        <ele>218</ele>
        <time>2012-09-21T12:31:02Z</time>
      </trkpt>
      <trkpt lat="46.98583" lon="5.58496">
        <ele>218</ele>
        <time>2012-09-21T12:31:04Z</time>
      </trkpt>
      <trkpt lat="46.98575" lon="5.58487">
        <ele>218</ele>
        <time>2012-09-21T12:31:06Z</time>
      </trkpt>
      <trkpt lat="46.98568" lon="5.58475">
        <ele>218</ele>
        <time>2012-09-21T12:31:08Z</time>
      </trkpt>
      <trkpt lat="46.98561" lon="5.58462">
        <ele>218</ele>
        <time>2012-09-21T12:31:10Z</time>
      </trkpt>
      <trkpt lat="46.98552" lon="5.58457">
        <ele>218</ele>
        <time>2012-09-21T12:31:12Z</time>
      </trkpt>
      <trkpt lat="46.98542" lon="5.58459">
        <ele>218</ele>
        <time>2012-09-21T12:31:14Z</time>
      </trkpt>
      <trkpt lat="46.98531" lon="5.58465">
        <ele>218</ele>
        <time>2012-09-21T12:31:16Z</time>
      </trkpt>
      <trkpt lat="46.9852" lon="5.58466">
        <ele>218</ele>
        <time>2012-09-21T12:31:18Z</time>
      </trkpt>
      <trkpt lat="46.9851" lon="5.58464">
        <ele>218</ele>
        <time>2012-09-21T12:31:20Z</time>
      </trkpt>
      <trkpt lat="46.98499" lon="5.5846">
        <ele>218</ele>
        <time>2012-09-21T12:31:22Z</time>
      </trkpt>
      <trkpt lat="46.98489" lon="5.58458">
        <ele>218</ele>
        <time>2012-09-21T12:31:24Z</time>
      </trkpt>
      <trkpt lat="46.9848" lon="5.58457">
        <ele>218</ele>
        <time>2012-09-21T12:31:26Z</time>
      </trkpt>
      <trkpt lat="46.98471" lon="5.58456">
        <ele>218</ele>
        <time>2012-09-21T12:31:28Z</time>
      </trkpt>
      <trkpt lat="46.98462" lon="5.58456">
        <ele>218</ele>
        <time>2012-09-21T12:31:30Z</time>
      </trkpt>
      <trkpt lat="46.98449" lon="5.58454">
        <ele>218</ele>
        <time>2012-09-21T12:31:33Z</time>
      </trkpt>
      <trkpt lat="46.98437" lon="5.58449">
        <ele>218</ele>
        <time>2012-09-21T12:31:36Z</time>
      </trkpt>
      <trkpt lat="46.98424" lon="5.58445">
        <ele>218</ele>
        <time>2012-09-21T12:31:39Z</time>
      </trkpt>
      <trkpt lat="46.98412" lon="5.58437">
        <ele>218</ele>
        <time>2012-09-21T12:31:42Z</time>
      </trkpt>
      <trkpt lat="46.98403" lon="5.58431">
        <ele>218</ele>
        <time>2012-09-21T12:31:44Z</time>
      </trkpt>
      <trkpt lat="46.98394" lon="5.58424">
        <ele>218</ele>
        <time>2012-09-21T12:31:46Z</time>
      </trkpt>
      <trkpt lat="46.98386" lon="5.58417">
        <ele>218</ele>
        <time>2012-09-21T12:31:48Z</time>
      </trkpt>
      <trkpt lat="46.98378" lon="5.5841">
        <ele>224</ele>
        <time>2012-09-21T12:31:50Z</time>
      </trkpt>
      <trkpt lat="46.9837" lon="5.58403">
        <ele>224</ele>
        <time>2012-09-21T12:31:52Z</time>
      </trkpt>
      <trkpt lat="46.98362" lon="5.58396">
        <ele>224</ele>
        <time>2012-09-21T12:31:54Z</time>
      </trkpt>
      <trkpt lat="46.98354" lon="5.58388">
        <ele>224</ele>
        <time>2012-09-21T12:31:56Z</time>
      </trkpt>
      <trkpt lat="46.98343" lon="5.58378">
        <ele>224</ele>
        <time>2012-09-21T12:31:59Z</time>
      </trkpt>
      <trkpt lat="46.98332" lon="5.58368">
        <ele>224</ele>
        <time>2012-09-21T12:32:02Z</time>
      </trkpt>
      <trkpt lat="46.98323" lon="5.58357">
        <ele>229</ele>
        <time>2012-09-21T12:32:05Z</time>
      </trkpt>
      <trkpt lat="46.98314" lon="5.58347">
        <ele>229</ele>
        <time>2012-09-21T12:32:08Z</time>
      </trkpt>
      <trkpt lat="46.98306" lon="5.58337">
        <ele>229</ele>
        <time>2012-09-21T12:32:11Z</time>
      </trkpt>
      <trkpt lat="46.98297" lon="5.58329">
        <ele>229</ele>
        <time>2012-09-21T12:32:14Z</time>
      </trkpt>
      <trkpt lat="46.98288" lon="5.5832">
        <ele>229</ele>
        <time>2012-09-21T12:32:17Z</time>
      </trkpt>
      <trkpt lat="46.98279" lon="5.58311">
        <ele>229</ele>
        <time>2012-09-21T12:32:20Z</time>
      </trkpt>
      <trkpt lat="46.9827" lon="5.58301">
        <ele>229</ele>
        <time>2012-09-21T12:32:23Z</time>
      </trkpt>
      <trkpt lat="46.98261" lon="5.58291">
        <ele>229</ele>
        <time>2012-09-21T12:32:26Z</time>
      </trkpt>
      <trkpt lat="46.9825" lon="5.58281">
        <ele>229</ele>
        <time>2012-09-21T12:32:29Z</time>
      </trkpt>
      <trkpt lat="46.98239" lon="5.58272">
        <ele>229</ele>
        <time>2012-09-21T12:32:32Z</time>
      </trkpt>
      <trkpt lat="46.98228" lon="5.58261">
        <ele>229</ele>
        <time>2012-09-21T12:32:35Z</time>
      </trkpt>
      <trkpt lat="46.9822" lon="5.58254">
        <ele>229</ele>
        <time>2012-09-21T12:32:37Z</time>
      </trkpt>
      <trkpt lat="46.98212" lon="5.58246">
        <ele>229</ele>
        <time>2012-09-21T12:32:39Z</time>
      </trkpt>
      <trkpt lat="46.98204" lon="5.58239">
        <ele>229</ele>
        <time>2012-09-21T12:32:41Z</time>
      </trkpt>
      <trkpt lat="46.98196" lon="5.5823">
        <ele>229</ele>
        <time>2012-09-21T12:32:43Z</time>
      </trkpt>
      <trkpt lat="46.98189" lon="5.5822">
        <ele>229</ele>
        <time>2012-09-21T12:32:45Z</time>
      </trkpt>
      <trkpt lat="46.98183" lon="5.5821">
        <ele>229</ele>
        <time>2012-09-21T12:32:47Z</time>
      </trkpt>
      <trkpt lat="46.98177" lon="5.582">
        <ele>229</ele>
        <time>2012-09-21T12:32:49Z</time>
      </trkpt>
      <trkpt lat="46.9817" lon="5.58188">
        <ele>229</ele>
        <time>2012-09-21T12:32:51Z</time>
      </trkpt>
      <trkpt lat="46.98164" lon="5.58177">
        <ele>229</ele>
        <time>2012-09-21T12:32:53Z</time>
      </trkpt>
      <trkpt lat="46.98158" lon="5.58167">
        <ele>229</ele>
        <time>2012-09-21T12:32:55Z</time>
      </trkpt>
      <trkpt lat="46.98152" lon="5.58157">
        <ele>229</ele>
        <time>2012-09-21T12:32:57Z</time>
      </trkpt>
      <trkpt lat="46.98146" lon="5.58145">
        <ele>229</ele>
        <time>2012-09-21T12:32:59Z</time>
      </trkpt>
      <trkpt lat="46.9814" lon="5.58133">
        <ele>229</ele>
        <time>2012-09-21T12:33:01Z</time>
      </trkpt>
      <trkpt lat="46.98133" lon="5.58121">
        <ele>229</ele>
        <time>2012-09-21T12:33:03Z</time>
      </trkpt>
      <trkpt lat="46.98126" lon="5.58109">
        <ele>229</ele>
        <time>2012-09-21T12:33:05Z</time>
      </trkpt>
      <trkpt lat="46.98119" lon="5.58097">
        <ele>229</ele>
        <time>2012-09-21T12:33:07Z</time>
      </trkpt>
      <trkpt lat="46.98113" lon="5.58087">
        <ele>229</ele>
        <time>2012-09-21T12:33:09Z</time>
      </trkpt>
      <trkpt lat="46.98104" lon="5.58072">
        <ele>229</ele>
        <time>2012-09-21T12:33:12Z</time>
      </trkpt>
      <trkpt lat="46.98094" lon="5.58063">
        <ele>229</ele>
        <time>2012-09-21T12:33:15Z</time>
      </trkpt>
      <trkpt lat="46.98083" lon="5.58068">
        <ele>229</ele>
        <time>2012-09-21T12:33:18Z</time>
      </trkpt>
      <trkpt lat="46.98078" lon="5.58079">
        <ele>229</ele>
        <time>2012-09-21T12:33:20Z</time>
      </trkpt>
      <trkpt lat="46.98071" lon="5.58095">
        <ele>229</ele>
        <time>2012-09-21T12:33:22Z</time>
      </trkpt>
      <trkpt lat="46.98064" lon="5.58108">
        <ele>229</ele>
        <time>2012-09-21T12:33:24Z</time>
      </trkpt>
      <trkpt lat="46.98055" lon="5.58122">
        <ele>229</ele>
        <time>2012-09-21T12:33:26Z</time>
      </trkpt>
      <trkpt lat="46.98046" lon="5.58137">
        <ele>229</ele>
        <time>2012-09-21T12:33:28Z</time>
      </trkpt>
      <trkpt lat="46.98036" lon="5.5815">
        <ele>229</ele>
        <time>2012-09-21T12:33:30Z</time>
      </trkpt>
      <trkpt lat="46.98028" lon="5.58162">
        <ele>229</ele>
        <time>2012-09-21T12:33:32Z</time>
      </trkpt>
      <trkpt lat="46.98021" lon="5.58175">
        <ele>229</ele>
        <time>2012-09-21T12:33:34Z</time>
      </trkpt>
      <trkpt lat="46.98015" lon="5.58187">
        <ele>229</ele>
        <time>2012-09-21T12:33:36Z</time>
      </trkpt>
      <trkpt lat="46.9801" lon="5.58201">
        <ele>229</ele>
        <time>2012-09-21T12:33:38Z</time>
      </trkpt>
      <trkpt lat="46.98005" lon="5.58213">
        <ele>229</ele>
        <time>2012-09-21T12:33:40Z</time>
      </trkpt>
      <trkpt lat="46.98001" lon="5.58227">
        <ele>229</ele>
        <time>2012-09-21T12:33:42Z</time>
      </trkpt>
      <trkpt lat="46.97996" lon="5.58241">
        <ele>229</ele>
        <time>2012-09-21T12:33:44Z</time>
      </trkpt>
      <trkpt lat="46.97991" lon="5.58256">
        <ele>229</ele>
        <time>2012-09-21T12:33:46Z</time>
      </trkpt>
      <trkpt lat="46.97985" lon="5.58272">
        <ele>229</ele>
        <time>2012-09-21T12:33:48Z</time>
      </trkpt>
      <trkpt lat="46.97979" lon="5.5829">
        <ele>229</ele>
        <time>2012-09-21T12:33:50Z</time>
      </trkpt>
      <trkpt lat="46.97972" lon="5.58305">
        <ele>229</ele>
        <time>2012-09-21T12:33:52Z</time>
      </trkpt>
      <trkpt lat="46.97965" lon="5.58321">
        <ele>229</ele>
        <time>2012-09-21T12:33:54Z</time>
      </trkpt>
      <trkpt lat="46.9796" lon="5.58337">
        <ele>229</ele>
        <time>2012-09-21T12:33:56Z</time>
      </trkpt>
      <trkpt lat="46.97956" lon="5.58355">
        <ele>229</ele>
        <time>2012-09-21T12:33:58Z</time>
      </trkpt>
      <trkpt lat="46.97952" lon="5.58372">
        <ele>229</ele>
        <time>2012-09-21T12:34:00Z</time>
      </trkpt>
      <trkpt lat="46.97946" lon="5.58389">
        <ele>229</ele>
        <time>2012-09-21T12:34:02Z</time>
      </trkpt>
      <trkpt lat="46.9794" lon="5.58405">
        <ele>229</ele>
        <time>2012-09-21T12:34:04Z</time>
      </trkpt>
      <trkpt lat="46.97935" lon="5.58418">
        <ele>229</ele>
        <time>2012-09-21T12:34:06Z</time>
      </trkpt>
      <trkpt lat="46.97926" lon="5.58431">
        <ele>229</ele>
        <time>2012-09-21T12:34:09Z</time>
      </trkpt>
      <trkpt lat="46.97916" lon="5.58434">
        <ele>229</ele>
        <time>2012-09-21T12:34:12Z</time>
      </trkpt>
      <trkpt lat="46.97904" lon="5.58434">
        <ele>229</ele>
        <time>2012-09-21T12:34:15Z</time>
      </trkpt>
      <trkpt lat="46.97892" lon="5.58433">
        <ele>229</ele>
        <time>2012-09-21T12:34:18Z</time>
      </trkpt>
      <trkpt lat="46.9788" lon="5.58432">
        <ele>229</ele>
        <time>2012-09-21T12:34:21Z</time>
      </trkpt>
      <trkpt lat="46.97869" lon="5.58431">
        <ele>235</ele>
        <time>2012-09-21T12:34:24Z</time>
      </trkpt>
      <trkpt lat="46.97857" lon="5.5843">
        <ele>235</ele>
        <time>2012-09-21T12:34:27Z</time>
      </trkpt>
      <trkpt lat="46.97845" lon="5.58428">
        <ele>235</ele>
        <time>2012-09-21T12:34:30Z</time>
      </trkpt>
      <trkpt lat="46.97832" lon="5.58427">
        <ele>235</ele>
        <time>2012-09-21T12:34:33Z</time>
      </trkpt>
      <trkpt lat="46.97819" lon="5.58428">
        <ele>235</ele>
        <time>2012-09-21T12:34:36Z</time>
      </trkpt>
      <trkpt lat="46.9781" lon="5.58429">
        <ele>235</ele>
        <time>2012-09-21T12:34:38Z</time>
      </trkpt>
      <trkpt lat="46.97797" lon="5.5843">
        <ele>235</ele>
        <time>2012-09-21T12:34:41Z</time>
      </trkpt>
      <trkpt lat="46.97785" lon="5.58431">
        <ele>235</ele>
        <time>2012-09-21T12:34:44Z</time>
      </trkpt>
      <trkpt lat="46.97772" lon="5.5843">
        <ele>235</ele>
        <time>2012-09-21T12:34:47Z</time>
      </trkpt>
      <trkpt lat="46.97763" lon="5.58427">
        <ele>235</ele>
        <time>2012-09-21T12:34:49Z</time>
      </trkpt>
      <trkpt lat="46.97754" lon="5.58423">
        <ele>235</ele>
        <time>2012-09-21T12:34:51Z</time>
      </trkpt>
      <trkpt lat="46.97744" lon="5.5842">
        <ele>235</ele>
        <time>2012-09-21T12:34:53Z</time>
      </trkpt>
      <trkpt lat="46.97735" lon="5.58416">
        <ele>235</ele>
        <time>2012-09-21T12:34:55Z</time>
      </trkpt>
      <trkpt lat="46.97726" lon="5.58412">
        <ele>235</ele>
        <time>2012-09-21T12:34:57Z</time>
      </trkpt>
      <trkpt lat="46.97716" lon="5.58407">
        <ele>235</ele>
        <time>2012-09-21T12:34:59Z</time>
      </trkpt>
      <trkpt lat="46.97706" lon="5.58403">
        <ele>235</ele>
        <time>2012-09-21T12:35:01Z</time>
      </trkpt>
      <trkpt lat="46.97696" lon="5.58398">
        <ele>235</ele>
        <time>2012-09-21T12:35:03Z</time>
      </trkpt>
      <trkpt lat="46.97686" lon="5.58393">
        <ele>235</ele>
        <time>2012-09-21T12:35:05Z</time>
      </trkpt>
      <trkpt lat="46.97676" lon="5.58387">
        <ele>235</ele>
        <time>2012-09-21T12:35:07Z</time>
      </trkpt>
      <trkpt lat="46.97666" lon="5.58383">
        <ele>235</ele>
        <time>2012-09-21T12:35:09Z</time>
      </trkpt>
      <trkpt lat="46.97656" lon="5.58377">
        <ele>235</ele>
        <time>2012-09-21T12:35:11Z</time>
      </trkpt>
      <trkpt lat="46.97647" lon="5.58371">
        <ele>235</ele>
        <time>2012-09-21T12:35:13Z</time>
      </trkpt>
      <trkpt lat="46.97637" lon="5.58365">
        <ele>235</ele>
        <time>2012-09-21T12:35:15Z</time>
      </trkpt>
      <trkpt lat="46.97629" lon="5.58359">
        <ele>240</ele>
        <time>2012-09-21T12:35:17Z</time>
      </trkpt>
      <trkpt lat="46.9762" lon="5.58353">
        <ele>240</ele>
        <time>2012-09-21T12:35:19Z</time>
      </trkpt>
      <trkpt lat="46.97607" lon="5.58344">
        <ele>240</ele>
        <time>2012-09-21T12:35:22Z</time>
      </trkpt>
      <trkpt lat="46.97599" lon="5.58339">
        <ele>240</ele>
        <time>2012-09-21T12:35:24Z</time>
      </trkpt>
      <trkpt lat="46.9759" lon="5.58334">
        <ele>240</ele>
        <time>2012-09-21T12:35:26Z</time>
      </trkpt>
      <trkpt lat="46.97581" lon="5.58328">
        <ele>240</ele>
        <time>2012-09-21T12:35:28Z</time>
      </trkpt>
      <trkpt lat="46.97573" lon="5.58321">
        <ele>240</ele>
        <time>2012-09-21T12:35:30Z</time>
      </trkpt>
      <trkpt lat="46.97562" lon="5.58312">
        <ele>240</ele>
        <time>2012-09-21T12:35:33Z</time>
      </trkpt>
      <trkpt lat="46.97554" lon="5.58306">
        <ele>240</ele>
        <time>2012-09-21T12:35:35Z</time>
      </trkpt>
      <trkpt lat="46.97543" lon="5.58296">
        <ele>240</ele>
        <time>2012-09-21T12:35:38Z</time>
      </trkpt>
      <trkpt lat="46.97535" lon="5.5829">
        <ele>240</ele>
        <time>2012-09-21T12:35:40Z</time>
      </trkpt>
      <trkpt lat="46.97523" lon="5.58281">
        <ele>240</ele>
        <time>2012-09-21T12:35:43Z</time>
      </trkpt>
      <trkpt lat="46.97511" lon="5.58272">
        <ele>240</ele>
        <time>2012-09-21T12:35:46Z</time>
      </trkpt>
      <trkpt lat="46.97502" lon="5.58266">
        <ele>240</ele>
        <time>2012-09-21T12:35:48Z</time>
      </trkpt>
      <trkpt lat="46.97493" lon="5.58261">
        <ele>240</ele>
        <time>2012-09-21T12:35:50Z</time>
      </trkpt>
      <trkpt lat="46.97484" lon="5.58255">
        <ele>240</ele>
        <time>2012-09-21T12:35:52Z</time>
      </trkpt>
      <trkpt lat="46.97475" lon="5.5825">
        <ele>240</ele>
        <time>2012-09-21T12:35:54Z</time>
      </trkpt>
      <trkpt lat="46.97466" lon="5.58246">
        <ele>240</ele>
        <time>2012-09-21T12:35:56Z</time>
      </trkpt>
      <trkpt lat="46.97457" lon="5.58241">
        <ele>240</ele>
        <time>2012-09-21T12:35:58Z</time>
      </trkpt>
      <trkpt lat="46.97448" lon="5.58237">
        <ele>240</ele>
        <time>2012-09-21T12:36:00Z</time>
      </trkpt>
      <trkpt lat="46.97439" lon="5.58234">
        <ele>245</ele>
        <time>2012-09-21T12:36:02Z</time>
      </trkpt>
      <trkpt lat="46.9743" lon="5.5823">
        <ele>245</ele>
        <time>2012-09-21T12:36:04Z</time>
      </trkpt>
      <trkpt lat="46.97421" lon="5.58228">
        <ele>245</ele>
        <time>2012-09-21T12:36:06Z</time>
      </trkpt>
      <trkpt lat="46.9741" lon="5.58224">
        <ele>245</ele>
        <time>2012-09-21T12:36:09Z</time>
      </trkpt>
      <trkpt lat="46.97401" lon="5.58222">
        <ele>245</ele>
        <time>2012-09-21T12:36:12Z</time>
      </trkpt>
      <trkpt lat="46.97391" lon="5.58219">
        <ele>245</ele>
        <time>2012-09-21T12:36:15Z</time>
      </trkpt>
      <trkpt lat="46.97382" lon="5.58211">
        <ele>245</ele>
        <time>2012-09-21T12:36:18Z</time>
      </trkpt>
      <trkpt lat="46.97375" lon="5.58194">
        <ele>245</ele>
        <time>2012-09-21T12:36:21Z</time>
      </trkpt>
      <trkpt lat="46.9737" lon="5.5818">
        <ele>245</ele>
        <time>2012-09-21T12:36:23Z</time>
      </trkpt>
      <trkpt lat="46.97364" lon="5.58166">
        <ele>245</ele>
        <time>2012-09-21T12:36:25Z</time>
      </trkpt>
      <trkpt lat="46.97359" lon="5.5815">
        <ele>245</ele>
        <time>2012-09-21T12:36:27Z</time>
      </trkpt>
      <trkpt lat="46.97353" lon="5.58134">
        <ele>245</ele>
        <time>2012-09-21T12:36:29Z</time>
      </trkpt>
      <trkpt lat="46.97347" lon="5.58116">
        <ele>245</ele>
        <time>2012-09-21T12:36:31Z</time>
      </trkpt>
      <trkpt lat="46.9734" lon="5.58097">
        <ele>245</ele>
        <time>2012-09-21T12:36:33Z</time>
      </trkpt>
      <trkpt lat="46.97334" lon="5.58079">
        <ele>245</ele>
        <time>2012-09-21T12:36:35Z</time>
      </trkpt>
      <trkpt lat="46.97328" lon="5.58061">
        <ele>245</ele>
        <time>2012-09-21T12:36:37Z</time>
      </trkpt>
      <trkpt lat="46.97321" lon="5.58043">
        <ele>245</ele>
        <time>2012-09-21T12:36:39Z</time>
      </trkpt>
      <trkpt lat="46.97313" lon="5.58025">
        <ele>245</ele>
        <time>2012-09-21T12:36:41Z</time>
      </trkpt>
      <trkpt lat="46.97306" lon="5.58007">
        <ele>245</ele>
        <time>2012-09-21T12:36:43Z</time>
      </trkpt>
      <trkpt lat="46.97298" lon="5.57989">
        <ele>245</ele>
        <time>2012-09-21T12:36:45Z</time>
      </trkpt>
      <trkpt lat="46.9729" lon="5.57969">
        <ele>245</ele>
        <time>2012-09-21T12:36:47Z</time>
      </trkpt>
      <trkpt lat="46.97283" lon="5.5795">
        <ele>245</ele>
        <time>2012-09-21T12:36:49Z</time>
      </trkpt>
      <trkpt lat="46.97275" lon="5.57932">
        <ele>245</ele>
        <time>2012-09-21T12:36:51Z</time>
      </trkpt>
      <trkpt lat="46.97267" lon="5.57913">
        <ele>245</ele>
        <time>2012-09-21T12:36:53Z</time>
      </trkpt>
      <trkpt lat="46.97257" lon="5.57895">
        <ele>245</ele>
        <time>2012-09-21T12:36:55Z</time>
      </trkpt>
      <trkpt lat="46.97249" lon="5.57875">
        <ele>245</ele>
        <time>2012-09-21T12:36:57Z</time>
      </trkpt>
      <trkpt lat="46.97241" lon="5.57855">
        <ele>245</ele>
        <time>2012-09-21T12:36:59Z</time>
      </trkpt>
      <trkpt lat="46.97234" lon="5.57832">
        <ele>245</ele>
        <time>2012-09-21T12:37:01Z</time>
      </trkpt>
      <trkpt lat="46.97226" lon="5.5781">
        <ele>245</ele>
        <time>2012-09-21T12:37:03Z</time>
      </trkpt>
      <trkpt lat="46.97218" lon="5.57788">
        <ele>245</ele>
        <time>2012-09-21T12:37:05Z</time>
      </trkpt>
      <trkpt lat="46.9721" lon="5.57767">
        <ele>245</ele>
        <time>2012-09-21T12:37:07Z</time>
      </trkpt>
      <trkpt lat="46.97203" lon="5.57745">
        <ele>245</ele>
        <time>2012-09-21T12:37:09Z</time>
      </trkpt>
      <trkpt lat="46.97195" lon="5.57724">
        <ele>245</ele>
        <time>2012-09-21T12:37:11Z</time>
      </trkpt>
      <trkpt lat="46.97188" lon="5.57703">
        <ele>245</ele>
        <time>2012-09-21T12:37:13Z</time>
      </trkpt>
      <trkpt lat="46.97181" lon="5.57683">
        <ele>240</ele>
        <time>2012-09-21T12:37:15Z</time>
      </trkpt>
      <trkpt lat="46.97174" lon="5.57663">
        <ele>240</ele>
        <time>2012-09-21T12:37:17Z</time>
      </trkpt>
      <trkpt lat="46.97168" lon="5.57645">
        <ele>240</ele>
        <time>2012-09-21T12:37:19Z</time>
      </trkpt>
      <trkpt lat="46.97161" lon="5.57625">
        <ele>240</ele>
        <time>2012-09-21T12:37:21Z</time>
      </trkpt>
      <trkpt lat="46.97153" lon="5.57607">
        <ele>240</ele>
        <time>2012-09-21T12:37:23Z</time>
      </trkpt>
      <trkpt lat="46.97148" lon="5.57587">
        <ele>240</ele>
        <time>2012-09-21T12:37:25Z</time>
      </trkpt>
      <trkpt lat="46.97141" lon="5.57567">
        <ele>240</ele>
        <time>2012-09-21T12:37:27Z</time>
      </trkpt>
      <trkpt lat="46.97134" lon="5.57549">
        <ele>240</ele>
        <time>2012-09-21T12:37:29Z</time>
      </trkpt>
      <trkpt lat="46.97126" lon="5.5753">
        <ele>240</ele>
        <time>2012-09-21T12:37:31Z</time>
      </trkpt>
      <trkpt lat="46.9712" lon="5.57511">
        <ele>240</ele>
        <time>2012-09-21T12:37:33Z</time>
      </trkpt>
      <trkpt lat="46.97112" lon="5.57491">
        <ele>240</ele>
        <time>2012-09-21T12:37:35Z</time>
      </trkpt>
      <trkpt lat="46.97106" lon="5.5747">
        <ele>240</ele>
        <time>2012-09-21T12:37:37Z</time>
      </trkpt>
      <trkpt lat="46.97099" lon="5.57451">
        <ele>240</ele>
        <time>2012-09-21T12:37:39Z</time>
      </trkpt>
      <trkpt lat="46.97091" lon="5.57433">
        <ele>240</ele>
        <time>2012-09-21T12:37:41Z</time>
      </trkpt>
      <trkpt lat="46.97083" lon="5.57413">
        <ele>240</ele>
        <time>2012-09-21T12:37:43Z</time>
      </trkpt>
      <trkpt lat="46.97074" lon="5.57395">
        <ele>240</ele>
        <time>2012-09-21T12:37:45Z</time>
      </trkpt>
      <trkpt lat="46.97066" lon="5.57374">
        <ele>240</ele>
        <time>2012-09-21T12:37:47Z</time>
      </trkpt>
      <trkpt lat="46.97062" lon="5.57362">
        <ele>240</ele>
        <time>2012-09-21T12:37:48Z</time>
      </trkpt>
      <trkpt lat="46.97054" lon="5.57339">
        <ele>240</ele>
        <time>2012-09-21T12:37:50Z</time>
      </trkpt>
      <trkpt lat="46.9705" lon="5.57327">
        <ele>240</ele>
        <time>2012-09-21T12:37:51Z</time>
      </trkpt>
      <trkpt lat="46.97043" lon="5.57303">
        <ele>240</ele>
        <time>2012-09-21T12:37:53Z</time>
      </trkpt>
      <trkpt lat="46.97035" lon="5.5728">
        <ele>240</ele>
        <time>2012-09-21T12:37:55Z</time>
      </trkpt>
      <trkpt lat="46.97027" lon="5.57259">
        <ele>240</ele>
        <time>2012-09-21T12:37:57Z</time>
      </trkpt>
      <trkpt lat="46.9702" lon="5.57236">
        <ele>240</ele>
        <time>2012-09-21T12:37:59Z</time>
      </trkpt>
      <trkpt lat="46.97013" lon="5.57215">
        <ele>240</ele>
        <time>2012-09-21T12:38:01Z</time>
      </trkpt>
      <trkpt lat="46.97006" lon="5.57194">
        <ele>240</ele>
        <time>2012-09-21T12:38:03Z</time>
      </trkpt>
      <trkpt lat="46.96997" lon="5.57172">
        <ele>240</ele>
        <time>2012-09-21T12:38:05Z</time>
      </trkpt>
      <trkpt lat="46.96987" lon="5.57152">
        <ele>240</ele>
        <time>2012-09-21T12:38:07Z</time>
      </trkpt>
      <trkpt lat="46.96979" lon="5.57133">
        <ele>240</ele>
        <time>2012-09-21T12:38:09Z</time>
      </trkpt>
      <trkpt lat="46.96968" lon="5.57116">
        <ele>240</ele>
        <time>2012-09-21T12:38:11Z</time>
      </trkpt>
      <trkpt lat="46.96961" lon="5.57099">
        <ele>245</ele>
        <time>2012-09-21T12:38:13Z</time>
      </trkpt>
      <trkpt lat="46.96957" lon="5.57078">
        <ele>245</ele>
        <time>2012-09-21T12:38:15Z</time>
      </trkpt>
      <trkpt lat="46.96951" lon="5.57057">
        <ele>245</ele>
        <time>2012-09-21T12:38:17Z</time>
      </trkpt>
      <trkpt lat="46.96943" lon="5.57035">
        <ele>245</ele>
        <time>2012-09-21T12:38:19Z</time>
      </trkpt>
      <trkpt lat="46.96937" lon="5.57013">
        <ele>245</ele>
        <time>2012-09-21T12:38:21Z</time>
      </trkpt>
      <trkpt lat="46.96929" lon="5.56993">
        <ele>245</ele>
        <time>2012-09-21T12:38:23Z</time>
      </trkpt>
      <trkpt lat="46.96922" lon="5.56973">
        <ele>245</ele>
        <time>2012-09-21T12:38:25Z</time>
      </trkpt>
      <trkpt lat="46.96915" lon="5.56952">
        <ele>240</ele>
        <time>2012-09-21T12:38:27Z</time>
      </trkpt>
      <trkpt lat="46.96907" lon="5.56932">
        <ele>240</ele>
        <time>2012-09-21T12:38:29Z</time>
      </trkpt>
      <trkpt lat="46.96901" lon="5.56912">
        <ele>240</ele>
        <time>2012-09-21T12:38:31Z</time>
      </trkpt>
      <trkpt lat="46.96896" lon="5.56893">
        <ele>240</ele>
        <time>2012-09-21T12:38:33Z</time>
      </trkpt>
      <trkpt lat="46.96888" lon="5.56874">
        <ele>240</ele>
        <time>2012-09-21T12:38:35Z</time>
      </trkpt>
      <trkpt lat="46.96882" lon="5.56857">
        <ele>240</ele>
        <time>2012-09-21T12:38:37Z</time>
      </trkpt>
      <trkpt lat="46.96876" lon="5.56837">
        <ele>240</ele>
        <time>2012-09-21T12:38:39Z</time>
      </trkpt>
      <trkpt lat="46.96871" lon="5.5682">
        <ele>240</ele>
        <time>2012-09-21T12:38:41Z</time>
      </trkpt>
      <trkpt lat="46.96865" lon="5.56802">
        <ele>240</ele>
        <time>2012-09-21T12:38:43Z</time>
      </trkpt>
      <trkpt lat="46.9686" lon="5.56785">
        <ele>240</ele>
        <time>2012-09-21T12:38:45Z</time>
      </trkpt>
      <trkpt lat="46.96852" lon="5.56768">
        <ele>240</ele>
        <time>2012-09-21T12:38:47Z</time>
      </trkpt>
      <trkpt lat="46.96846" lon="5.5675">
        <ele>240</ele>
        <time>2012-09-21T12:38:49Z</time>
      </trkpt>
      <trkpt lat="46.9684" lon="5.5673">
        <ele>240</ele>
        <time>2012-09-21T12:38:51Z</time>
      </trkpt>
      <trkpt lat="46.96834" lon="5.56712">
        <ele>240</ele>
        <time>2012-09-21T12:38:53Z</time>
      </trkpt>
      <trkpt lat="46.96828" lon="5.56693">
        <ele>240</ele>
        <time>2012-09-21T12:38:55Z</time>
      </trkpt>
      <trkpt lat="46.96821" lon="5.56674">
        <ele>240</ele>
        <time>2012-09-21T12:38:57Z</time>
      </trkpt>
      <trkpt lat="46.96813" lon="5.56657">
        <ele>240</ele>
        <time>2012-09-21T12:38:59Z</time>
      </trkpt>
      <trkpt lat="46.96807" lon="5.56638">
        <ele>240</ele>
        <time>2012-09-21T12:39:01Z</time>
      </trkpt>
      <trkpt lat="46.968" lon="5.56619">
        <ele>240</ele>
        <time>2012-09-21T12:39:03Z</time>
      </trkpt>
      <trkpt lat="46.96793" lon="5.56599">
        <ele>240</ele>
        <time>2012-09-21T12:39:05Z</time>
      </trkpt>
      <trkpt lat="46.96785" lon="5.56582">
        <ele>247</ele>
        <time>2012-09-21T12:39:07Z</time>
      </trkpt>
      <trkpt lat="46.96779" lon="5.5656">
        <ele>247</ele>
        <time>2012-09-21T12:39:09Z</time>
      </trkpt>
      <trkpt lat="46.96772" lon="5.56539">
        <ele>247</ele>
        <time>2012-09-21T12:39:11Z</time>
      </trkpt>
      <trkpt lat="46.96765" lon="5.56517">
        <ele>247</ele>
        <time>2012-09-21T12:39:13Z</time>
      </trkpt>
      <trkpt lat="46.96761" lon="5.56505">
        <ele>247</ele>
        <time>2012-09-21T12:39:14Z</time>
      </trkpt>
      <trkpt lat="46.96753" lon="5.56483">
        <ele>247</ele>
        <time>2012-09-21T12:39:16Z</time>
      </trkpt>
      <trkpt lat="46.96743" lon="5.56461">
        <ele>241</ele>
        <time>2012-09-21T12:39:18Z</time>
      </trkpt>
      <trkpt lat="46.96738" lon="5.5645">
        <ele>241</ele>
        <time>2012-09-21T12:39:19Z</time>
      </trkpt>
      <trkpt lat="46.96729" lon="5.56427">
        <ele>241</ele>
        <time>2012-09-21T12:39:21Z</time>
      </trkpt>
      <trkpt lat="46.96721" lon="5.56406">
        <ele>241</ele>
        <time>2012-09-21T12:39:23Z</time>
      </trkpt>
      <trkpt lat="46.96713" lon="5.56383">
        <ele>241</ele>
        <time>2012-09-21T12:39:25Z</time>
      </trkpt>
      <trkpt lat="46.96705" lon="5.56364">
        <ele>241</ele>
        <time>2012-09-21T12:39:27Z</time>
      </trkpt>
      <trkpt lat="46.96698" lon="5.56345">
        <ele>241</ele>
        <time>2012-09-21T12:39:29Z</time>
      </trkpt>
      <trkpt lat="46.96692" lon="5.56327">
        <ele>241</ele>
        <time>2012-09-21T12:39:31Z</time>
      </trkpt>
      <trkpt lat="46.96686" lon="5.56307">
        <ele>241</ele>
        <time>2012-09-21T12:39:33Z</time>
      </trkpt>
      <trkpt lat="46.9668" lon="5.56289">
        <ele>241</ele>
        <time>2012-09-21T12:39:35Z</time>
      </trkpt>
      <trkpt lat="46.96672" lon="5.56274">
        <ele>241</ele>
        <time>2012-09-21T12:39:37Z</time>
      </trkpt>
      <trkpt lat="46.96666" lon="5.56256">
        <ele>241</ele>
        <time>2012-09-21T12:39:39Z</time>
      </trkpt>
      <trkpt lat="46.96658" lon="5.56238">
        <ele>241</ele>
        <time>2012-09-21T12:39:41Z</time>
      </trkpt>
      <trkpt lat="46.96652" lon="5.56221">
        <ele>241</ele>
        <time>2012-09-21T12:39:43Z</time>
      </trkpt>
      <trkpt lat="46.96647" lon="5.562">
        <ele>241</ele>
        <time>2012-09-21T12:39:45Z</time>
      </trkpt>
      <trkpt lat="46.96641" lon="5.56181">
        <ele>241</ele>
        <time>2012-09-21T12:39:47Z</time>
      </trkpt>
      <trkpt lat="46.96634" lon="5.56162">
        <ele>241</ele>
        <time>2012-09-21T12:39:49Z</time>
      </trkpt>
      <trkpt lat="46.96628" lon="5.56143">
        <ele>241</ele>
        <time>2012-09-21T12:39:51Z</time>
      </trkpt>
      <trkpt lat="46.96621" lon="5.56124">
        <ele>241</ele>
        <time>2012-09-21T12:39:53Z</time>
      </trkpt>
      <trkpt lat="46.96615" lon="5.56105">
        <ele>241</ele>
        <time>2012-09-21T12:39:55Z</time>
      </trkpt>
      <trkpt lat="46.96608" lon="5.56086">
        <ele>241</ele>
        <time>2012-09-21T12:39:57Z</time>
      </trkpt>
      <trkpt lat="46.96602" lon="5.56068">
        <ele>241</ele>
        <time>2012-09-21T12:39:59Z</time>
      </trkpt>
      <trkpt lat="46.96594" lon="5.56051">
        <ele>241</ele>
        <time>2012-09-21T12:40:01Z</time>
      </trkpt>
      <trkpt lat="46.96589" lon="5.56033">
        <ele>241</ele>
        <time>2012-09-21T12:40:03Z</time>
      </trkpt>
      <trkpt lat="46.96583" lon="5.56015">
        <ele>241</ele>
        <time>2012-09-21T12:40:05Z</time>
      </trkpt>
      <trkpt lat="46.96576" lon="5.55998">
        <ele>241</ele>
        <time>2012-09-21T12:40:07Z</time>
      </trkpt>
      <trkpt lat="46.96569" lon="5.55981">
        <ele>241</ele>
        <time>2012-09-21T12:40:09Z</time>
      </trkpt>
      <trkpt lat="46.96561" lon="5.55964">
        <ele>241</ele>
        <time>2012-09-21T12:40:11Z</time>
      </trkpt>
      <trkpt lat="46.96555" lon="5.55946">
        <ele>241</ele>
        <time>2012-09-21T12:40:13Z</time>
      </trkpt>
      <trkpt lat="46.96549" lon="5.55927">
        <ele>241</ele>
        <time>2012-09-21T12:40:15Z</time>
      </trkpt>
      <trkpt lat="46.96543" lon="5.55909">
        <ele>241</ele>
        <time>2012-09-21T12:40:17Z</time>
      </trkpt>
      <trkpt lat="46.96535" lon="5.55893">
        <ele>241</ele>
        <time>2012-09-21T12:40:19Z</time>
      </trkpt>
      <trkpt lat="46.96529" lon="5.55874">
        <ele>241</ele>
        <time>2012-09-21T12:40:21Z</time>
      </trkpt>
      <trkpt lat="46.96523" lon="5.55858">
        <ele>241</ele>
        <time>2012-09-21T12:40:23Z</time>
      </trkpt>
      <trkpt lat="46.96518" lon="5.55842">
        <ele>241</ele>
        <time>2012-09-21T12:40:25Z</time>
      </trkpt>
      <trkpt lat="46.96512" lon="5.55825">
        <ele>241</ele>
        <time>2012-09-21T12:40:27Z</time>
      </trkpt>
      <trkpt lat="46.96507" lon="5.55807">
        <ele>241</ele>
        <time>2012-09-21T12:40:29Z</time>
      </trkpt>
      <trkpt lat="46.96502" lon="5.55789">
        <ele>241</ele>
        <time>2012-09-21T12:40:31Z</time>
      </trkpt>
      <trkpt lat="46.96495" lon="5.55771">
        <ele>241</ele>
        <time>2012-09-21T12:40:33Z</time>
      </trkpt>
      <trkpt lat="46.96489" lon="5.55754">
        <ele>241</ele>
        <time>2012-09-21T12:40:35Z</time>
      </trkpt>
      <trkpt lat="46.96483" lon="5.55736">
        <ele>241</ele>
        <time>2012-09-21T12:40:37Z</time>
      </trkpt>
      <trkpt lat="46.96478" lon="5.55719">
        <ele>241</ele>
        <time>2012-09-21T12:40:39Z</time>
      </trkpt>
      <trkpt lat="46.96471" lon="5.55701">
        <ele>241</ele>
        <time>2012-09-21T12:40:41Z</time>
      </trkpt>
      <trkpt lat="46.96465" lon="5.55684">
        <ele>241</ele>
        <time>2012-09-21T12:40:43Z</time>
      </trkpt>
      <trkpt lat="46.96459" lon="5.55667">
        <ele>241</ele>
        <time>2012-09-21T12:40:45Z</time>
      </trkpt>
      <trkpt lat="46.96452" lon="5.5565">
        <ele>241</ele>
        <time>2012-09-21T12:40:47Z</time>
      </trkpt>
      <trkpt lat="46.96446" lon="5.55635">
        <ele>247</ele>
        <time>2012-09-21T12:40:49Z</time>
      </trkpt>
      <trkpt lat="46.96442" lon="5.55619">
        <ele>247</ele>
        <time>2012-09-21T12:40:51Z</time>
      </trkpt>
      <trkpt lat="46.96435" lon="5.55604">
        <ele>247</ele>
        <time>2012-09-21T12:40:53Z</time>
      </trkpt>
      <trkpt lat="46.96429" lon="5.55589">
        <ele>253</ele>
        <time>2012-09-21T12:40:55Z</time>
      </trkpt>
      <trkpt lat="46.96423" lon="5.55571">
        <ele>253</ele>
        <time>2012-09-21T12:40:57Z</time>
      </trkpt>
      <trkpt lat="46.96417" lon="5.55554">
        <ele>253</ele>
        <time>2012-09-21T12:40:59Z</time>
      </trkpt>
      <trkpt lat="46.96411" lon="5.55538">
        <ele>253</ele>
        <time>2012-09-21T12:41:01Z</time>
      </trkpt>
      <trkpt lat="46.96405" lon="5.55522">
        <ele>253</ele>
        <time>2012-09-21T12:41:03Z</time>
      </trkpt>
      <trkpt lat="46.964" lon="5.55505">
        <ele>253</ele>
        <time>2012-09-21T12:41:05Z</time>
      </trkpt>
      <trkpt lat="46.96393" lon="5.5549">
        <ele>253</ele>
        <time>2012-09-21T12:41:07Z</time>
      </trkpt>
      <trkpt lat="46.96388" lon="5.55472">
        <ele>253</ele>
        <time>2012-09-21T12:41:09Z</time>
      </trkpt>
      <trkpt lat="46.96381" lon="5.55456">
        <ele>253</ele>
        <time>2012-09-21T12:41:11Z</time>
      </trkpt>
      <trkpt lat="46.96376" lon="5.55438">
        <ele>253</ele>
        <time>2012-09-21T12:41:13Z</time>
      </trkpt>
      <trkpt lat="46.9637" lon="5.55422">
        <ele>253</ele>
        <time>2012-09-21T12:41:15Z</time>
      </trkpt>
      <trkpt lat="46.96362" lon="5.5541">
        <ele>253</ele>
        <time>2012-09-21T12:41:17Z</time>
      </trkpt>
      <trkpt lat="46.96356" lon="5.55392">
        <ele>253</ele>
        <time>2012-09-21T12:41:19Z</time>
      </trkpt>
      <trkpt lat="46.96351" lon="5.55374">
        <ele>253</ele>
        <time>2012-09-21T12:41:21Z</time>
      </trkpt>
      <trkpt lat="46.96347" lon="5.55358">
        <ele>253</ele>
        <time>2012-09-21T12:41:23Z</time>
      </trkpt>
      <trkpt lat="46.96342" lon="5.5534">
        <ele>253</ele>
        <time>2012-09-21T12:41:25Z</time>
      </trkpt>
      <trkpt lat="46.96336" lon="5.55323">
        <ele>259</ele>
        <time>2012-09-21T12:41:27Z</time>
      </trkpt>
      <trkpt lat="46.96331" lon="5.55306">
        <ele>259</ele>
        <time>2012-09-21T12:41:29Z</time>
      </trkpt>
      <trkpt lat="46.96325" lon="5.55288">
        <ele>259</ele>
        <time>2012-09-21T12:41:31Z</time>
      </trkpt>
      <trkpt lat="46.9632" lon="5.55271">
        <ele>259</ele>
        <time>2012-09-21T12:41:33Z</time>
      </trkpt>
      <trkpt lat="46.96312" lon="5.55256">
        <ele>259</ele>
        <time>2012-09-21T12:41:35Z</time>
      </trkpt>
      <trkpt lat="46.96305" lon="5.5524">
        <ele>259</ele>
        <time>2012-09-21T12:41:37Z</time>
      </trkpt>
      <trkpt lat="46.963" lon="5.55223">
        <ele>259</ele>
        <time>2012-09-21T12:41:39Z</time>
      </trkpt>
      <trkpt lat="46.96294" lon="5.55206">
        <ele>259</ele>
        <time>2012-09-21T12:41:41Z</time>
      </trkpt>
      <trkpt lat="46.96289" lon="5.55188">
        <ele>259</ele>
        <time>2012-09-21T12:41:43Z</time>
      </trkpt>
      <trkpt lat="46.96285" lon="5.55169">
        <ele>259</ele>
        <time>2012-09-21T12:41:45Z</time>
      </trkpt>
      <trkpt lat="46.9628" lon="5.5515">
        <ele>259</ele>
        <time>2012-09-21T12:41:47Z</time>
      </trkpt>
      <trkpt lat="46.96273" lon="5.55132">
        <ele>259</ele>
        <time>2012-09-21T12:41:49Z</time>
      </trkpt>
      <trkpt lat="46.96266" lon="5.55116">
        <ele>259</ele>
        <time>2012-09-21T12:41:51Z</time>
      </trkpt>
      <trkpt lat="46.9626" lon="5.551">
        <ele>259</ele>
        <time>2012-09-21T12:41:53Z</time>
      </trkpt>
      <trkpt lat="46.96256" lon="5.55084">
        <ele>265</ele>
        <time>2012-09-21T12:41:55Z</time>
      </trkpt>
      <trkpt lat="46.96247" lon="5.55067">
        <ele>265</ele>
        <time>2012-09-21T12:41:57Z</time>
      </trkpt>
      <trkpt lat="46.96238" lon="5.55049">
        <ele>265</ele>
        <time>2012-09-21T12:41:59Z</time>
      </trkpt>
      <trkpt lat="46.96232" lon="5.55029">
        <ele>265</ele>
        <time>2012-09-21T12:42:01Z</time>
      </trkpt>
      <trkpt lat="46.96226" lon="5.55009">
        <ele>265</ele>
        <time>2012-09-21T12:42:03Z</time>
      </trkpt>
      <trkpt lat="46.96223" lon="5.54987">
        <ele>265</ele>
        <time>2012-09-21T12:42:05Z</time>
      </trkpt>
      <trkpt lat="46.96219" lon="5.54968">
        <ele>265</ele>
        <time>2012-09-21T12:42:07Z</time>
      </trkpt>
      <trkpt lat="46.96215" lon="5.54951">
        <ele>265</ele>
        <time>2012-09-21T12:42:09Z</time>
      </trkpt>
      <trkpt lat="46.96209" lon="5.54934">
        <ele>265</ele>
        <time>2012-09-21T12:42:11Z</time>
      </trkpt>
      <trkpt lat="46.96206" lon="5.54916">
        <ele>265</ele>
        <time>2012-09-21T12:42:13Z</time>
      </trkpt>
      <trkpt lat="46.96198" lon="5.549">
        <ele>265</ele>
        <time>2012-09-21T12:42:15Z</time>
      </trkpt>
      <trkpt lat="46.96189" lon="5.54883">
        <ele>265</ele>
        <time>2012-09-21T12:42:17Z</time>
      </trkpt>
      <trkpt lat="46.96179" lon="5.54868">
        <ele>265</ele>
        <time>2012-09-21T12:42:19Z</time>
      </trkpt>
      <trkpt lat="46.96171" lon="5.54853">
        <ele>265</ele>
        <time>2012-09-21T12:42:21Z</time>
      </trkpt>
      <trkpt lat="46.96166" lon="5.54833">
        <ele>265</ele>
        <time>2012-09-21T12:42:23Z</time>
      </trkpt>
      <trkpt lat="46.9616" lon="5.54812">
        <ele>265</ele>
        <time>2012-09-21T12:42:25Z</time>
      </trkpt>
      <trkpt lat="46.96156" lon="5.54791">
        <ele>265</ele>
        <time>2012-09-21T12:42:27Z</time>
      </trkpt>
      <trkpt lat="46.9615" lon="5.54771">
        <ele>265</ele>
        <time>2012-09-21T12:42:29Z</time>
      </trkpt>
      <trkpt lat="46.96146" lon="5.5475">
        <ele>265</ele>
        <time>2012-09-21T12:42:31Z</time>
      </trkpt>
      <trkpt lat="46.96139" lon="5.54734">
        <ele>265</ele>
        <time>2012-09-21T12:42:33Z</time>
      </trkpt>
      <trkpt lat="46.96133" lon="5.54718">
        <ele>265</ele>
        <time>2012-09-21T12:42:35Z</time>
      </trkpt>
      <trkpt lat="46.96127" lon="5.547">
        <ele>265</ele>
        <time>2012-09-21T12:42:37Z</time>
      </trkpt>
      <trkpt lat="46.96121" lon="5.54682">
        <ele>265</ele>
        <time>2012-09-21T12:42:39Z</time>
      </trkpt>
      <trkpt lat="46.96116" lon="5.54664">
        <ele>265</ele>
        <time>2012-09-21T12:42:41Z</time>
      </trkpt>
      <trkpt lat="46.96112" lon="5.54646">
        <ele>270</ele>
        <time>2012-09-21T12:42:43Z</time>
      </trkpt>
      <trkpt lat="46.96104" lon="5.54629">
        <ele>270</ele>
        <time>2012-09-21T12:42:45Z</time>
      </trkpt>
      <trkpt lat="46.96098" lon="5.54613">
        <ele>270</ele>
        <time>2012-09-21T12:42:47Z</time>
      </trkpt>
      <trkpt lat="46.96091" lon="5.54597">
        <ele>270</ele>
        <time>2012-09-21T12:42:49Z</time>
      </trkpt>
      <trkpt lat="46.96089" lon="5.54577">
        <ele>270</ele>
        <time>2012-09-21T12:42:51Z</time>
      </trkpt>
      <trkpt lat="46.96085" lon="5.54558">
        <ele>270</ele>
        <time>2012-09-21T12:42:53Z</time>
      </trkpt>
      <trkpt lat="46.96081" lon="5.54538">
        <ele>270</ele>
        <time>2012-09-21T12:42:55Z</time>
      </trkpt>
      <trkpt lat="46.96077" lon="5.54517">
        <ele>270</ele>
        <time>2012-09-21T12:42:57Z</time>
      </trkpt>
      <trkpt lat="46.96074" lon="5.54499">
        <ele>270</ele>
        <time>2012-09-21T12:42:59Z</time>
      </trkpt>
      <trkpt lat="46.96069" lon="5.54479">
        <ele>270</ele>
        <time>2012-09-21T12:43:01Z</time>
      </trkpt>
      <trkpt lat="46.96065" lon="5.54456">
        <ele>270</ele>
        <time>2012-09-21T12:43:03Z</time>
      </trkpt>
      <trkpt lat="46.9606" lon="5.54432">
        <ele>270</ele>
        <time>2012-09-21T12:43:05Z</time>
      </trkpt>
      <trkpt lat="46.96056" lon="5.5441">
        <ele>264</ele>
        <time>2012-09-21T12:43:07Z</time>
      </trkpt>
      <trkpt lat="46.96051" lon="5.5439">
        <ele>264</ele>
        <time>2012-09-21T12:43:09Z</time>
      </trkpt>
      <trkpt lat="46.96046" lon="5.5437">
        <ele>264</ele>
        <time>2012-09-21T12:43:11Z</time>
      </trkpt>
      <trkpt lat="46.96042" lon="5.54349">
        <ele>264</ele>
        <time>2012-09-21T12:43:13Z</time>
      </trkpt>
      <trkpt lat="46.96037" lon="5.54326">
        <ele>259</ele>
        <time>2012-09-21T12:43:15Z</time>
      </trkpt>
      <trkpt lat="46.96032" lon="5.54304">
        <ele>259</ele>
        <time>2012-09-21T12:43:17Z</time>
      </trkpt>
      <trkpt lat="46.96025" lon="5.54283">
        <ele>259</ele>
        <time>2012-09-21T12:43:19Z</time>
      </trkpt>
      <trkpt lat="46.96018" lon="5.54262">
        <ele>259</ele>
        <time>2012-09-21T12:43:21Z</time>
      </trkpt>
      <trkpt lat="46.96011" lon="5.54242">
        <ele>259</ele>
        <time>2012-09-21T12:43:23Z</time>
      </trkpt>
      <trkpt lat="46.96006" lon="5.5422">
        <ele>259</ele>
        <time>2012-09-21T12:43:25Z</time>
      </trkpt>
      <trkpt lat="46.96" lon="5.54198">
        <ele>259</ele>
        <time>2012-09-21T12:43:27Z</time>
      </trkpt>
      <trkpt lat="46.95994" lon="5.54175">
        <ele>259</ele>
        <time>2012-09-21T12:43:29Z</time>
      </trkpt>
      <trkpt lat="46.95991" lon="5.54163">
        <ele>259</ele>
        <time>2012-09-21T12:43:30Z</time>
      </trkpt>
      <trkpt lat="46.95986" lon="5.5414">
        <ele>254</ele>
        <time>2012-09-21T12:43:32Z</time>
      </trkpt>
      <trkpt lat="46.95979" lon="5.54123">
        <ele>254</ele>
        <time>2012-09-21T12:43:34Z</time>
      </trkpt>
      <trkpt lat="46.95973" lon="5.54106">
        <ele>254</ele>
        <time>2012-09-21T12:43:36Z</time>
      </trkpt>
      <trkpt lat="46.95968" lon="5.54091">
        <ele>261</ele>
        <time>2012-09-21T12:43:38Z</time>
      </trkpt>
      <trkpt lat="46.95962" lon="5.54072">
        <ele>261</ele>
        <time>2012-09-21T12:43:40Z</time>
      </trkpt>
      <trkpt lat="46.95957" lon="5.54053">
        <ele>261</ele>
        <time>2012-09-21T12:43:42Z</time>
      </trkpt>
      <trkpt lat="46.95951" lon="5.54038">
        <ele>261</ele>
        <time>2012-09-21T12:43:44Z</time>
      </trkpt>
      <trkpt lat="46.95945" lon="5.54021">
        <ele>261</ele>
        <time>2012-09-21T12:43:46Z</time>
      </trkpt>
      <trkpt lat="46.95941" lon="5.54">
        <ele>261</ele>
        <time>2012-09-21T12:43:48Z</time>
      </trkpt>
      <trkpt lat="46.95938" lon="5.5398">
        <ele>261</ele>
        <time>2012-09-21T12:43:50Z</time>
      </trkpt>
      <trkpt lat="46.95933" lon="5.53961">
        <ele>261</ele>
        <time>2012-09-21T12:43:52Z</time>
      </trkpt>
      <trkpt lat="46.95927" lon="5.53943">
        <ele>261</ele>
        <time>2012-09-21T12:43:54Z</time>
      </trkpt>
      <trkpt lat="46.9592" lon="5.53926">
        <ele>261</ele>
        <time>2012-09-21T12:43:56Z</time>
      </trkpt>
      <trkpt lat="46.95916" lon="5.53907">
        <ele>261</ele>
        <time>2012-09-21T12:43:58Z</time>
      </trkpt>
      <trkpt lat="46.95911" lon="5.53889">
        <ele>261</ele>
        <time>2012-09-21T12:44:00Z</time>
      </trkpt>
      <trkpt lat="46.95904" lon="5.53869">
        <ele>261</ele>
        <time>2012-09-21T12:44:02Z</time>
      </trkpt>
      <trkpt lat="46.959" lon="5.53846">
        <ele>261</ele>
        <time>2012-09-21T12:44:04Z</time>
      </trkpt>
      <trkpt lat="46.95896" lon="5.53823">
        <ele>261</ele>
        <time>2012-09-21T12:44:06Z</time>
      </trkpt>
      <trkpt lat="46.95892" lon="5.53802">
        <ele>256</ele>
        <time>2012-09-21T12:44:08Z</time>
      </trkpt>
      <trkpt lat="46.95887" lon="5.53781">
        <ele>256</ele>
        <time>2012-09-21T12:44:10Z</time>
      </trkpt>
      <trkpt lat="46.95881" lon="5.5376">
        <ele>256</ele>
        <time>2012-09-21T12:44:12Z</time>
      </trkpt>
      <trkpt lat="46.95875" lon="5.5374">
        <ele>256</ele>
        <time>2012-09-21T12:44:14Z</time>
      </trkpt>
      <trkpt lat="46.95868" lon="5.53721">
        <ele>256</ele>
        <time>2012-09-21T12:44:16Z</time>
      </trkpt>
      <trkpt lat="46.95863" lon="5.53699">
        <ele>256</ele>
        <time>2012-09-21T12:44:18Z</time>
      </trkpt>
      <trkpt lat="46.95858" lon="5.53678">
        <ele>256</ele>
        <time>2012-09-21T12:44:20Z</time>
      </trkpt>
      <trkpt lat="46.95852" lon="5.53658">
        <ele>256</ele>
        <time>2012-09-21T12:44:22Z</time>
      </trkpt>
      <trkpt lat="46.95845" lon="5.53638">
        <ele>256</ele>
        <time>2012-09-21T12:44:24Z</time>
      </trkpt>
      <trkpt lat="46.9584" lon="5.53617">
        <ele>256</ele>
        <time>2012-09-21T12:44:26Z</time>
      </trkpt>
      <trkpt lat="46.95836" lon="5.53596">
        <ele>256</ele>
        <time>2012-09-21T12:44:28Z</time>
      </trkpt>
      <trkpt lat="46.95831" lon="5.53572">
        <ele>256</ele>
        <time>2012-09-21T12:44:30Z</time>
      </trkpt>
      <trkpt lat="46.95823" lon="5.53551">
        <ele>256</ele>
        <time>2012-09-21T12:44:32Z</time>
      </trkpt>
      <trkpt lat="46.95814" lon="5.5353">
        <ele>256</ele>
        <time>2012-09-21T12:44:34Z</time>
      </trkpt>
      <trkpt lat="46.95807" lon="5.5351">
        <ele>256</ele>
        <time>2012-09-21T12:44:36Z</time>
      </trkpt>
      <trkpt lat="46.95802" lon="5.53486">
        <ele>256</ele>
        <time>2012-09-21T12:44:38Z</time>
      </trkpt>
      <trkpt lat="46.95797" lon="5.53462">
        <ele>256</ele>
        <time>2012-09-21T12:44:40Z</time>
      </trkpt>
      <trkpt lat="46.95793" lon="5.53439">
        <ele>250</ele>
        <time>2012-09-21T12:44:42Z</time>
      </trkpt>
      <trkpt lat="46.95786" lon="5.53416">
        <ele>250</ele>
        <time>2012-09-21T12:44:44Z</time>
      </trkpt>
      <trkpt lat="46.9578" lon="5.53395">
        <ele>250</ele>
        <time>2012-09-21T12:44:46Z</time>
      </trkpt>
      <trkpt lat="46.95773" lon="5.53372">
        <ele>250</ele>
        <time>2012-09-21T12:44:48Z</time>
      </trkpt>
      <trkpt lat="46.95768" lon="5.53349">
        <ele>250</ele>
        <time>2012-09-21T12:44:50Z</time>
      </trkpt>
      <trkpt lat="46.95763" lon="5.53326">
        <ele>250</ele>
        <time>2012-09-21T12:44:52Z</time>
      </trkpt>
      <trkpt lat="46.95757" lon="5.53306">
        <ele>250</ele>
        <time>2012-09-21T12:44:54Z</time>
      </trkpt>
      <trkpt lat="46.95751" lon="5.53286">
        <ele>250</ele>
        <time>2012-09-21T12:44:56Z</time>
      </trkpt>
      <trkpt lat="46.95746" lon="5.53265">
        <ele>250</ele>
        <time>2012-09-21T12:44:58Z</time>
      </trkpt>
      <trkpt lat="46.9574" lon="5.53244">
        <ele>250</ele>
        <time>2012-09-21T12:45:00Z</time>
      </trkpt>
      <trkpt lat="46.95732" lon="5.53223">
        <ele>250</ele>
        <time>2012-09-21T12:45:02Z</time>
      </trkpt>
      <trkpt lat="46.95725" lon="5.53201">
        <ele>250</ele>
        <time>2012-09-21T12:45:04Z</time>
      </trkpt>
      <trkpt lat="46.95721" lon="5.53181">
        <ele>256</ele>
        <time>2012-09-21T12:45:06Z</time>
      </trkpt>
      <trkpt lat="46.95713" lon="5.53159">
        <ele>256</ele>
        <time>2012-09-21T12:45:08Z</time>
      </trkpt>
      <trkpt lat="46.95708" lon="5.53148">
        <ele>256</ele>
        <time>2012-09-21T12:45:09Z</time>
      </trkpt>
      <trkpt lat="46.957" lon="5.53126">
        <ele>256</ele>
        <time>2012-09-21T12:45:11Z</time>
      </trkpt>
      <trkpt lat="46.95696" lon="5.53114">
        <ele>256</ele>
        <time>2012-09-21T12:45:12Z</time>
      </trkpt>
      <trkpt lat="46.9569" lon="5.53103">
        <ele>256</ele>
        <time>2012-09-21T12:45:13Z</time>
      </trkpt>
      <trkpt lat="46.95684" lon="5.53093">
        <ele>256</ele>
        <time>2012-09-21T12:45:14Z</time>
      </trkpt>
      <trkpt lat="46.95674" lon="5.53073">
        <ele>256</ele>
        <time>2012-09-21T12:45:16Z</time>
      </trkpt>
      <trkpt lat="46.95668" lon="5.53062">
        <ele>256</ele>
        <time>2012-09-21T12:45:17Z</time>
      </trkpt>
      <trkpt lat="46.9566" lon="5.5305">
        <ele>256</ele>
        <time>2012-09-21T12:45:18Z</time>
      </trkpt>
      <trkpt lat="46.95648" lon="5.53029">
        <ele>256</ele>
        <time>2012-09-21T12:45:20Z</time>
      </trkpt>
      <trkpt lat="46.95642" lon="5.53019">
        <ele>256</ele>
        <time>2012-09-21T12:45:21Z</time>
      </trkpt>
      <trkpt lat="46.95631" lon="5.52998">
        <ele>256</ele>
        <time>2012-09-21T12:45:23Z</time>
      </trkpt>
      <trkpt lat="46.95622" lon="5.52974">
        <ele>256</ele>
        <time>2012-09-21T12:45:25Z</time>
      </trkpt>
      <trkpt lat="46.95615" lon="5.52954">
        <ele>256</ele>
        <time>2012-09-21T12:45:27Z</time>
      </trkpt>
      <trkpt lat="46.95608" lon="5.52933">
        <ele>249</ele>
        <time>2012-09-21T12:45:29Z</time>
      </trkpt>
      <trkpt lat="46.95598" lon="5.52912">
        <ele>249</ele>
        <time>2012-09-21T12:45:31Z</time>
      </trkpt>
      <trkpt lat="46.95588" lon="5.52893">
        <ele>249</ele>
        <time>2012-09-21T12:45:33Z</time>
      </trkpt>
      <trkpt lat="46.95578" lon="5.52875">
        <ele>249</ele>
        <time>2012-09-21T12:45:35Z</time>
      </trkpt>
      <trkpt lat="46.9557" lon="5.52856">
        <ele>249</ele>
        <time>2012-09-21T12:45:37Z</time>
      </trkpt>
      <trkpt lat="46.95563" lon="5.52836">
        <ele>249</ele>
        <time>2012-09-21T12:45:39Z</time>
      </trkpt>
      <trkpt lat="46.95556" lon="5.52817">
        <ele>249</ele>
        <time>2012-09-21T12:45:41Z</time>
      </trkpt>
      <trkpt lat="46.95546" lon="5.528">
        <ele>249</ele>
        <time>2012-09-21T12:45:43Z</time>
      </trkpt>
      <trkpt lat="46.95538" lon="5.52782">
        <ele>249</ele>
        <time>2012-09-21T12:45:45Z</time>
      </trkpt>
      <trkpt lat="46.95529" lon="5.52763">
        <ele>249</ele>
        <time>2012-09-21T12:45:47Z</time>
      </trkpt>
      <trkpt lat="46.95521" lon="5.52742">
        <ele>249</ele>
        <time>2012-09-21T12:45:49Z</time>
      </trkpt>
      <trkpt lat="46.95511" lon="5.52722">
        <ele>249</ele>
        <time>2012-09-21T12:45:51Z</time>
      </trkpt>
      <trkpt lat="46.95502" lon="5.52701">
        <ele>249</ele>
        <time>2012-09-21T12:45:53Z</time>
      </trkpt>
      <trkpt lat="46.95493" lon="5.52681">
        <ele>249</ele>
        <time>2012-09-21T12:45:55Z</time>
      </trkpt>
      <trkpt lat="46.95487" lon="5.52671">
        <ele>244</ele>
        <time>2012-09-21T12:45:56Z</time>
      </trkpt>
      <trkpt lat="46.95478" lon="5.52652">
        <ele>244</ele>
        <time>2012-09-21T12:45:58Z</time>
      </trkpt>
      <trkpt lat="46.95469" lon="5.5263">
        <ele>244</ele>
        <time>2012-09-21T12:46:00Z</time>
      </trkpt>
      <trkpt lat="46.9546" lon="5.52609">
        <ele>244</ele>
        <time>2012-09-21T12:46:02Z</time>
      </trkpt>
      <trkpt lat="46.95451" lon="5.52589">
        <ele>244</ele>
        <time>2012-09-21T12:46:04Z</time>
      </trkpt>
      <trkpt lat="46.95443" lon="5.52568">
        <ele>239</ele>
        <time>2012-09-21T12:46:06Z</time>
      </trkpt>
      <trkpt lat="46.95435" lon="5.52549">
        <ele>239</ele>
        <time>2012-09-21T12:46:08Z</time>
      </trkpt>
      <trkpt lat="46.95425" lon="5.5253">
        <ele>239</ele>
        <time>2012-09-21T12:46:10Z</time>
      </trkpt>
      <trkpt lat="46.95418" lon="5.52511">
        <ele>239</ele>
        <time>2012-09-21T12:46:12Z</time>
      </trkpt>
      <trkpt lat="46.95411" lon="5.52489">
        <ele>239</ele>
        <time>2012-09-21T12:46:14Z</time>
      </trkpt>
      <trkpt lat="46.95405" lon="5.52469">
        <ele>239</ele>
        <time>2012-09-21T12:46:16Z</time>
      </trkpt>
      <trkpt lat="46.95399" lon="5.52449">
        <ele>233</ele>
        <time>2012-09-21T12:46:18Z</time>
      </trkpt>
      <trkpt lat="46.95392" lon="5.5243">
        <ele>233</ele>
        <time>2012-09-21T12:46:20Z</time>
      </trkpt>
      <trkpt lat="46.95386" lon="5.5241">
        <ele>233</ele>
        <time>2012-09-21T12:46:22Z</time>
      </trkpt>
      <trkpt lat="46.95379" lon="5.5239">
        <ele>233</ele>
        <time>2012-09-21T12:46:24Z</time>
      </trkpt>
      <trkpt lat="46.95373" lon="5.5237">
        <ele>233</ele>
        <time>2012-09-21T12:46:26Z</time>
      </trkpt>
      <trkpt lat="46.95367" lon="5.52348">
        <ele>233</ele>
        <time>2012-09-21T12:46:28Z</time>
      </trkpt>
      <trkpt lat="46.95362" lon="5.52326">
        <ele>233</ele>
        <time>2012-09-21T12:46:30Z</time>
      </trkpt>
      <trkpt lat="46.95356" lon="5.52304">
        <ele>233</ele>
        <time>2012-09-21T12:46:32Z</time>
      </trkpt>
      <trkpt lat="46.95351" lon="5.52282">
        <ele>233</ele>
        <time>2012-09-21T12:46:34Z</time>
      </trkpt>
      <trkpt lat="46.95347" lon="5.52263">
        <ele>233</ele>
        <time>2012-09-21T12:46:36Z</time>
      </trkpt>
      <trkpt lat="46.95342" lon="5.52244">
        <ele>233</ele>
        <time>2012-09-21T12:46:38Z</time>
      </trkpt>
      <trkpt lat="46.95337" lon="5.52225">
        <ele>233</ele>
        <time>2012-09-21T12:46:40Z</time>
      </trkpt>
      <trkpt lat="46.95332" lon="5.52206">
        <ele>233</ele>
        <time>2012-09-21T12:46:42Z</time>
      </trkpt>
      <trkpt lat="46.95327" lon="5.52188">
        <ele>233</ele>
        <time>2012-09-21T12:46:44Z</time>
      </trkpt>
      <trkpt lat="46.95323" lon="5.5217">
        <ele>233</ele>
        <time>2012-09-21T12:46:46Z</time>
      </trkpt>
      <trkpt lat="46.95319" lon="5.52151">
        <ele>233</ele>
        <time>2012-09-21T12:46:48Z</time>
      </trkpt>
      <trkpt lat="46.95314" lon="5.52132">
        <ele>233</ele>
        <time>2012-09-21T12:46:50Z</time>
      </trkpt>
      <trkpt lat="46.95309" lon="5.52113">
        <ele>233</ele>
        <time>2012-09-21T12:46:52Z</time>
      </trkpt>
      <trkpt lat="46.95304" lon="5.52093">
        <ele>233</ele>
        <time>2012-09-21T12:46:54Z</time>
      </trkpt>
      <trkpt lat="46.95299" lon="5.52073">
        <ele>227</ele>
        <time>2012-09-21T12:46:56Z</time>
      </trkpt>
      <trkpt lat="46.95294" lon="5.52053">
        <ele>227</ele>
        <time>2012-09-21T12:46:58Z</time>
      </trkpt>
      <trkpt lat="46.95288" lon="5.52035">
        <ele>227</ele>
        <time>2012-09-21T12:47:00Z</time>
      </trkpt>
      <trkpt lat="46.95283" lon="5.52015">
        <ele>227</ele>
        <time>2012-09-21T12:47:02Z</time>
      </trkpt>
      <trkpt lat="46.95278" lon="5.51997">
        <ele>227</ele>
        <time>2012-09-21T12:47:04Z</time>
      </trkpt>
      <trkpt lat="46.95274" lon="5.51979">
        <ele>227</ele>
        <time>2012-09-21T12:47:06Z</time>
      </trkpt>
      <trkpt lat="46.95269" lon="5.51961">
        <ele>227</ele>
        <time>2012-09-21T12:47:08Z</time>
      </trkpt>
      <trkpt lat="46.95264" lon="5.51943">
        <ele>227</ele>
        <time>2012-09-21T12:47:10Z</time>
      </trkpt>
      <trkpt lat="46.95259" lon="5.51926">
        <ele>222</ele>
        <time>2012-09-21T12:47:12Z</time>
      </trkpt>
      <trkpt lat="46.95255" lon="5.5191">
        <ele>222</ele>
        <time>2012-09-21T12:47:14Z</time>
      </trkpt>
      <trkpt lat="46.95251" lon="5.51897">
        <ele>222</ele>
        <time>2012-09-21T12:47:16Z</time>
      </trkpt>
      <trkpt lat="46.95239" lon="5.51894">
        <ele>222</ele>
        <time>2012-09-21T12:47:19Z</time>
      </trkpt>
      <trkpt lat="46.9523" lon="5.51903">
        <ele>222</ele>
        <time>2012-09-21T12:47:21Z</time>
      </trkpt>
      <trkpt lat="46.9522" lon="5.51912">
        <ele>222</ele>
        <time>2012-09-21T12:47:23Z</time>
      </trkpt>
      <trkpt lat="46.95211" lon="5.51921">
        <ele>222</ele>
        <time>2012-09-21T12:47:25Z</time>
      </trkpt>
      <trkpt lat="46.952" lon="5.51931">
        <ele>222</ele>
        <time>2012-09-21T12:47:27Z</time>
      </trkpt>
      <trkpt lat="46.9519" lon="5.5194">
        <ele>222</ele>
        <time>2012-09-21T12:47:29Z</time>
      </trkpt>
      <trkpt lat="46.95179" lon="5.5195">
        <ele>222</ele>
        <time>2012-09-21T12:47:31Z</time>
      </trkpt>
      <trkpt lat="46.95169" lon="5.5196">
        <ele>222</ele>
        <time>2012-09-21T12:47:33Z</time>
      </trkpt>
      <trkpt lat="46.95158" lon="5.51971">
        <ele>222</ele>
        <time>2012-09-21T12:47:35Z</time>
      </trkpt>
      <trkpt lat="46.95147" lon="5.51981">
        <ele>222</ele>
        <time>2012-09-21T12:47:37Z</time>
      </trkpt>
      <trkpt lat="46.95136" lon="5.5199">
        <ele>222</ele>
        <time>2012-09-21T12:47:39Z</time>
      </trkpt>
      <trkpt lat="46.95125" lon="5.52">
        <ele>222</ele>
        <time>2012-09-21T12:47:41Z</time>
      </trkpt>
      <trkpt lat="46.95115" lon="5.52009">
        <ele>222</ele>
        <time>2012-09-21T12:47:43Z</time>
      </trkpt>
      <trkpt lat="46.95105" lon="5.52018">
        <ele>222</ele>
        <time>2012-09-21T12:47:45Z</time>
      </trkpt>
      <trkpt lat="46.95095" lon="5.52027">
        <ele>222</ele>
        <time>2012-09-21T12:47:47Z</time>
      </trkpt>
      <trkpt lat="46.95085" lon="5.52035">
        <ele>222</ele>
        <time>2012-09-21T12:47:49Z</time>
      </trkpt>
      <trkpt lat="46.95077" lon="5.52043">
        <ele>222</ele>
        <time>2012-09-21T12:47:51Z</time>
      </trkpt>
      <trkpt lat="46.95069" lon="5.52051">
        <ele>222</ele>
        <time>2012-09-21T12:47:53Z</time>
      </trkpt>
      <trkpt lat="46.95059" lon="5.52058">
        <ele>222</ele>
        <time>2012-09-21T12:47:55Z</time>
      </trkpt>
      <trkpt lat="46.9505" lon="5.52066">
        <ele>222</ele>
        <time>2012-09-21T12:47:57Z</time>
      </trkpt>
      <trkpt lat="46.9504" lon="5.52075">
        <ele>222</ele>
        <time>2012-09-21T12:47:59Z</time>
      </trkpt>
      <trkpt lat="46.9503" lon="5.52084">
        <ele>222</ele>
        <time>2012-09-21T12:48:01Z</time>
      </trkpt>
      <trkpt lat="46.9502" lon="5.52094">
        <ele>222</ele>
        <time>2012-09-21T12:48:03Z</time>
      </trkpt>
      <trkpt lat="46.95008" lon="5.52106">
        <ele>222</ele>
        <time>2012-09-21T12:48:05Z</time>
      </trkpt>
      <trkpt lat="46.94996" lon="5.52119">
        <ele>222</ele>
        <time>2012-09-21T12:48:07Z</time>
      </trkpt>
      <trkpt lat="46.94986" lon="5.52133">
        <ele>222</ele>
        <time>2012-09-21T12:48:09Z</time>
      </trkpt>
      <trkpt lat="46.94977" lon="5.52149">
        <ele>222</ele>
        <time>2012-09-21T12:48:11Z</time>
      </trkpt>
      <trkpt lat="46.94968" lon="5.52164">
        <ele>222</ele>
        <time>2012-09-21T12:48:13Z</time>
      </trkpt>
      <trkpt lat="46.9496" lon="5.52179">
        <ele>222</ele>
        <time>2012-09-21T12:48:15Z</time>
      </trkpt>
      <trkpt lat="46.94952" lon="5.52194">
        <ele>222</ele>
        <time>2012-09-21T12:48:17Z</time>
      </trkpt>
      <trkpt lat="46.94944" lon="5.52209">
        <ele>222</ele>
        <time>2012-09-21T12:48:19Z</time>
      </trkpt>
      <trkpt lat="46.94937" lon="5.52222">
        <ele>222</ele>
        <time>2012-09-21T12:48:21Z</time>
      </trkpt>
      <trkpt lat="46.9493" lon="5.52238">
        <ele>222</ele>
        <time>2012-09-21T12:48:23Z</time>
      </trkpt>
      <trkpt lat="46.94923" lon="5.52253">
        <ele>222</ele>
        <time>2012-09-21T12:48:25Z</time>
      </trkpt>
      <trkpt lat="46.94917" lon="5.52269">
        <ele>222</ele>
        <time>2012-09-21T12:48:27Z</time>
      </trkpt>
      <trkpt lat="46.94912" lon="5.52285">
        <ele>222</ele>
        <time>2012-09-21T12:48:29Z</time>
      </trkpt>
      <trkpt lat="46.94907" lon="5.52302">
        <ele>222</ele>
        <time>2012-09-21T12:48:31Z</time>
      </trkpt>
      <trkpt lat="46.94903" lon="5.5232">
        <ele>222</ele>
        <time>2012-09-21T12:48:33Z</time>
      </trkpt>
      <trkpt lat="46.94898" lon="5.52338">
        <ele>222</ele>
        <time>2012-09-21T12:48:35Z</time>
      </trkpt>
      <trkpt lat="46.94892" lon="5.52356">
        <ele>222</ele>
        <time>2012-09-21T12:48:37Z</time>
      </trkpt>
      <trkpt lat="46.94883" lon="5.52372">
        <ele>222</ele>
        <time>2012-09-21T12:48:39Z</time>
      </trkpt>
      <trkpt lat="46.94874" lon="5.52388">
        <ele>222</ele>
        <time>2012-09-21T12:48:41Z</time>
      </trkpt>
      <trkpt lat="46.94865" lon="5.52404">
        <ele>222</ele>
        <time>2012-09-21T12:48:43Z</time>
      </trkpt>
      <trkpt lat="46.94856" lon="5.52419">
        <ele>222</ele>
        <time>2012-09-21T12:48:45Z</time>
      </trkpt>
      <trkpt lat="46.94848" lon="5.52433">
        <ele>222</ele>
        <time>2012-09-21T12:48:47Z</time>
      </trkpt>
      <trkpt lat="46.94839" lon="5.52448">
        <ele>222</ele>
        <time>2012-09-21T12:48:49Z</time>
      </trkpt>
      <trkpt lat="46.94832" lon="5.52462">
        <ele>222</ele>
        <time>2012-09-21T12:48:51Z</time>
      </trkpt>
      <trkpt lat="46.94826" lon="5.52478">
        <ele>222</ele>
        <time>2012-09-21T12:48:53Z</time>
      </trkpt>
      <trkpt lat="46.94819" lon="5.52494">
        <ele>222</ele>
        <time>2012-09-21T12:48:55Z</time>
      </trkpt>
      <trkpt lat="46.94813" lon="5.5251">
        <ele>222</ele>
        <time>2012-09-21T12:48:57Z</time>
      </trkpt>
      <trkpt lat="46.94806" lon="5.52525">
        <ele>222</ele>
        <time>2012-09-21T12:48:59Z</time>
      </trkpt>
      <trkpt lat="46.94799" lon="5.52539">
        <ele>222</ele>
        <time>2012-09-21T12:49:01Z</time>
      </trkpt>
      <trkpt lat="46.94791" lon="5.52553">
        <ele>222</ele>
        <time>2012-09-21T12:49:03Z</time>
      </trkpt>
      <trkpt lat="46.94783" lon="5.52565">
        <ele>222</ele>
        <time>2012-09-21T12:49:05Z</time>
      </trkpt>
      <trkpt lat="46.94774" lon="5.52578">
        <ele>222</ele>
        <time>2012-09-21T12:49:07Z</time>
      </trkpt>
      <trkpt lat="46.94766" lon="5.52591">
        <ele>222</ele>
        <time>2012-09-21T12:49:09Z</time>
      </trkpt>
      <trkpt lat="46.94757" lon="5.52604">
        <ele>222</ele>
        <time>2012-09-21T12:49:11Z</time>
      </trkpt>
      <trkpt lat="46.94746" lon="5.52617">
        <ele>222</ele>
        <time>2012-09-21T12:49:13Z</time>
      </trkpt>
      <trkpt lat="46.94735" lon="5.52627">
        <ele>222</ele>
        <time>2012-09-21T12:49:15Z</time>
      </trkpt>
      <trkpt lat="46.94723" lon="5.52637">
        <ele>222</ele>
        <time>2012-09-21T12:49:17Z</time>
      </trkpt>
      <trkpt lat="46.94709" lon="5.52644">
        <ele>222</ele>
        <time>2012-09-21T12:49:19Z</time>
      </trkpt>
      <trkpt lat="46.94695" lon="5.52648">
        <ele>222</ele>
        <time>2012-09-21T12:49:21Z</time>
      </trkpt>
      <trkpt lat="46.9468" lon="5.5265">
        <ele>222</ele>
        <time>2012-09-21T12:49:23Z</time>
      </trkpt>
      <trkpt lat="46.94666" lon="5.52651">
        <ele>222</ele>
        <time>2012-09-21T12:49:25Z</time>
      </trkpt>
      <trkpt lat="46.94653" lon="5.52653">
        <ele>222</ele>
        <time>2012-09-21T12:49:27Z</time>
      </trkpt>
      <trkpt lat="46.9464" lon="5.52657">
        <ele>222</ele>
        <time>2012-09-21T12:49:29Z</time>
      </trkpt>
      <trkpt lat="46.94629" lon="5.52663">
        <ele>222</ele>
        <time>2012-09-21T12:49:31Z</time>
      </trkpt>
      <trkpt lat="46.94618" lon="5.52671">
        <ele>222</ele>
        <time>2012-09-21T12:49:33Z</time>
      </trkpt>
      <trkpt lat="46.94608" lon="5.5268">
        <ele>222</ele>
        <time>2012-09-21T12:49:35Z</time>
      </trkpt>
      <trkpt lat="46.94599" lon="5.5269">
        <ele>222</ele>
        <time>2012-09-21T12:49:37Z</time>
      </trkpt>
      <trkpt lat="46.94589" lon="5.52699">
        <ele>222</ele>
        <time>2012-09-21T12:49:39Z</time>
      </trkpt>
      <trkpt lat="46.9458" lon="5.5271">
        <ele>222</ele>
        <time>2012-09-21T12:49:41Z</time>
      </trkpt>
      <trkpt lat="46.94571" lon="5.5272">
        <ele>222</ele>
        <time>2012-09-21T12:49:43Z</time>
      </trkpt>
      <trkpt lat="46.94562" lon="5.5273">
        <ele>222</ele>
        <time>2012-09-21T12:49:45Z</time>
      </trkpt>
      <trkpt lat="46.94554" lon="5.5274">
        <ele>222</ele>
        <time>2012-09-21T12:49:47Z</time>
      </trkpt>
      <trkpt lat="46.94544" lon="5.52749">
        <ele>222</ele>
        <time>2012-09-21T12:49:49Z</time>
      </trkpt>
      <trkpt lat="46.94535" lon="5.52759">
        <ele>222</ele>
        <time>2012-09-21T12:49:51Z</time>
      </trkpt>
      <trkpt lat="46.94525" lon="5.52768">
        <ele>222</ele>
        <time>2012-09-21T12:49:53Z</time>
      </trkpt>
      <trkpt lat="46.94515" lon="5.52777">
        <ele>222</ele>
        <time>2012-09-21T12:49:55Z</time>
      </trkpt>
      <trkpt lat="46.94504" lon="5.52786">
        <ele>222</ele>
        <time>2012-09-21T12:49:57Z</time>
      </trkpt>
      <trkpt lat="46.94493" lon="5.52794">
        <ele>222</ele>
        <time>2012-09-21T12:49:59Z</time>
      </trkpt>
      <trkpt lat="46.94481" lon="5.52801">
        <ele>222</ele>
        <time>2012-09-21T12:50:01Z</time>
      </trkpt>
      <trkpt lat="46.94469" lon="5.52809">
        <ele>222</ele>
        <time>2012-09-21T12:50:03Z</time>
      </trkpt>
      <trkpt lat="46.94457" lon="5.52818">
        <ele>222</ele>
        <time>2012-09-21T12:50:05Z</time>
      </trkpt>
      <trkpt lat="46.94445" lon="5.5283">
        <ele>222</ele>
        <time>2012-09-21T12:50:07Z</time>
      </trkpt>
      <trkpt lat="46.94435" lon="5.52843">
        <ele>222</ele>
        <time>2012-09-21T12:50:09Z</time>
      </trkpt>
      <trkpt lat="46.94426" lon="5.5286">
        <ele>222</ele>
        <time>2012-09-21T12:50:11Z</time>
      </trkpt>
      <trkpt lat="46.94418" lon="5.5288">
        <ele>222</ele>
        <time>2012-09-21T12:50:13Z</time>
      </trkpt>
      <trkpt lat="46.94413" lon="5.52901">
        <ele>222</ele>
        <time>2012-09-21T12:50:15Z</time>
      </trkpt>
      <trkpt lat="46.94408" lon="5.52921">
        <ele>222</ele>
        <time>2012-09-21T12:50:17Z</time>
      </trkpt>
      <trkpt lat="46.94404" lon="5.52941">
        <ele>222</ele>
        <time>2012-09-21T12:50:19Z</time>
      </trkpt>
      <trkpt lat="46.94399" lon="5.52959">
        <ele>222</ele>
        <time>2012-09-21T12:50:21Z</time>
      </trkpt>
      <trkpt lat="46.94395" lon="5.52977">
        <ele>222</ele>
        <time>2012-09-21T12:50:23Z</time>
      </trkpt>
      <trkpt lat="46.94391" lon="5.52993">
        <ele>222</ele>
        <time>2012-09-21T12:50:25Z</time>
      </trkpt>
      <trkpt lat="46.94386" lon="5.53009">
        <ele>222</ele>
        <time>2012-09-21T12:50:27Z</time>
      </trkpt>
      <trkpt lat="46.94381" lon="5.53024">
        <ele>222</ele>
        <time>2012-09-21T12:50:29Z</time>
      </trkpt>
      <trkpt lat="46.94376" lon="5.53038">
        <ele>222</ele>
        <time>2012-09-21T12:50:31Z</time>
      </trkpt>
      <trkpt lat="46.94372" lon="5.53051">
        <ele>222</ele>
        <time>2012-09-21T12:50:33Z</time>
      </trkpt>
      <trkpt lat="46.94367" lon="5.53066">
        <ele>222</ele>
        <time>2012-09-21T12:50:35Z</time>
      </trkpt>
      <trkpt lat="46.94361" lon="5.5308">
        <ele>222</ele>
        <time>2012-09-21T12:50:37Z</time>
      </trkpt>
      <trkpt lat="46.94356" lon="5.53095">
        <ele>222</ele>
        <time>2012-09-21T12:50:39Z</time>
      </trkpt>
      <trkpt lat="46.94349" lon="5.53111">
        <ele>222</ele>
        <time>2012-09-21T12:50:41Z</time>
      </trkpt>
      <trkpt lat="46.94342" lon="5.53128">
        <ele>222</ele>
        <time>2012-09-21T12:50:43Z</time>
      </trkpt>
      <trkpt lat="46.94335" lon="5.53145">
        <ele>222</ele>
        <time>2012-09-21T12:50:45Z</time>
      </trkpt>
      <trkpt lat="46.94328" lon="5.53161">
        <ele>222</ele>
        <time>2012-09-21T12:50:47Z</time>
      </trkpt>
      <trkpt lat="46.9432" lon="5.53178">
        <ele>222</ele>
        <time>2012-09-21T12:50:49Z</time>
      </trkpt>
      <trkpt lat="46.94313" lon="5.53195">
        <ele>222</ele>
        <time>2012-09-21T12:50:51Z</time>
      </trkpt>
      <trkpt lat="46.94305" lon="5.53211">
        <ele>222</ele>
        <time>2012-09-21T12:50:53Z</time>
      </trkpt>
      <trkpt lat="46.94298" lon="5.53228">
        <ele>222</ele>
        <time>2012-09-21T12:50:55Z</time>
      </trkpt>
      <trkpt lat="46.9429" lon="5.53244">
        <ele>222</ele>
        <time>2012-09-21T12:50:57Z</time>
      </trkpt>
      <trkpt lat="46.94284" lon="5.53258">
        <ele>222</ele>
        <time>2012-09-21T12:50:59Z</time>
      </trkpt>
      <trkpt lat="46.94277" lon="5.53272">
        <ele>222</ele>
        <time>2012-09-21T12:51:01Z</time>
      </trkpt>
      <trkpt lat="46.94271" lon="5.53285">
        <ele>222</ele>
        <time>2012-09-21T12:51:03Z</time>
      </trkpt>
      <trkpt lat="46.94264" lon="5.53297">
        <ele>222</ele>
        <time>2012-09-21T12:51:05Z</time>
      </trkpt>
      <trkpt lat="46.94258" lon="5.53308">
        <ele>222</ele>
        <time>2012-09-21T12:51:07Z</time>
      </trkpt>
      <trkpt lat="46.9425" lon="5.53319">
        <ele>222</ele>
        <time>2012-09-21T12:51:09Z</time>
      </trkpt>
      <trkpt lat="46.94242" lon="5.5333">
        <ele>222</ele>
        <time>2012-09-21T12:51:11Z</time>
      </trkpt>
      <trkpt lat="46.94233" lon="5.5334">
        <ele>222</ele>
        <time>2012-09-21T12:51:13Z</time>
      </trkpt>
      <trkpt lat="46.94224" lon="5.5335">
        <ele>222</ele>
        <time>2012-09-21T12:51:15Z</time>
      </trkpt>
      <trkpt lat="46.94214" lon="5.53359">
        <ele>222</ele>
        <time>2012-09-21T12:51:17Z</time>
      </trkpt>
      <trkpt lat="46.94205" lon="5.53368">
        <ele>222</ele>
        <time>2012-09-21T12:51:19Z</time>
      </trkpt>
      <trkpt lat="46.94196" lon="5.53377">
        <ele>222</ele>
        <time>2012-09-21T12:51:21Z</time>
      </trkpt>
      <trkpt lat="46.94186" lon="5.53387">
        <ele>222</ele>
        <time>2012-09-21T12:51:23Z</time>
      </trkpt>
      <trkpt lat="46.94178" lon="5.53398">
        <ele>222</ele>
        <time>2012-09-21T12:51:25Z</time>
      </trkpt>
      <trkpt lat="46.94169" lon="5.5341">
        <ele>222</ele>
        <time>2012-09-21T12:51:27Z</time>
      </trkpt>
      <trkpt lat="46.94161" lon="5.53422">
        <ele>222</ele>
        <time>2012-09-21T12:51:29Z</time>
      </trkpt>
      <trkpt lat="46.94153" lon="5.53434">
        <ele>222</ele>
        <time>2012-09-21T12:51:31Z</time>
      </trkpt>
      <trkpt lat="46.94145" lon="5.53447">
        <ele>222</ele>
        <time>2012-09-21T12:51:33Z</time>
      </trkpt>
      <trkpt lat="46.94137" lon="5.5346">
        <ele>227</ele>
        <time>2012-09-21T12:51:35Z</time>
      </trkpt>
      <trkpt lat="46.94129" lon="5.53473">
        <ele>227</ele>
        <time>2012-09-21T12:51:37Z</time>
      </trkpt>
      <trkpt lat="46.94121" lon="5.53486">
        <ele>227</ele>
        <time>2012-09-21T12:51:39Z</time>
      </trkpt>
      <trkpt lat="46.94114" lon="5.53501">
        <ele>227</ele>
        <time>2012-09-21T12:51:41Z</time>
      </trkpt>
      <trkpt lat="46.94106" lon="5.53515">
        <ele>227</ele>
        <time>2012-09-21T12:51:43Z</time>
      </trkpt>
      <trkpt lat="46.94097" lon="5.53529">
        <ele>227</ele>
        <time>2012-09-21T12:51:45Z</time>
      </trkpt>
      <trkpt lat="46.94089" lon="5.53546">
        <ele>227</ele>
        <time>2012-09-21T12:51:47Z</time>
      </trkpt>
      <trkpt lat="46.94079" lon="5.53563">
        <ele>227</ele>
        <time>2012-09-21T12:51:49Z</time>
      </trkpt>
      <trkpt lat="46.94069" lon="5.53582">
        <ele>227</ele>
        <time>2012-09-21T12:51:51Z</time>
      </trkpt>
      <trkpt lat="46.94058" lon="5.53604">
        <ele>227</ele>
        <time>2012-09-21T12:51:53Z</time>
      </trkpt>
      <trkpt lat="46.94047" lon="5.53625">
        <ele>227</ele>
        <time>2012-09-21T12:51:55Z</time>
      </trkpt>
      <trkpt lat="46.94036" lon="5.53644">
        <ele>222</ele>
        <time>2012-09-21T12:51:57Z</time>
      </trkpt>
      <trkpt lat="46.94025" lon="5.53662">
        <ele>222</ele>
        <time>2012-09-21T12:51:59Z</time>
      </trkpt>
      <trkpt lat="46.94015" lon="5.53678">
        <ele>222</ele>
        <time>2012-09-21T12:52:01Z</time>
      </trkpt>
      <trkpt lat="46.94003" lon="5.53691">
        <ele>222</ele>
        <time>2012-09-21T12:52:03Z</time>
      </trkpt>
      <trkpt lat="46.93991" lon="5.53703">
        <ele>222</ele>
        <time>2012-09-21T12:52:05Z</time>
      </trkpt>
      <trkpt lat="46.9398" lon="5.53714">
        <ele>222</ele>
        <time>2012-09-21T12:52:07Z</time>
      </trkpt>
      <trkpt lat="46.93967" lon="5.53725">
        <ele>222</ele>
        <time>2012-09-21T12:52:09Z</time>
      </trkpt>
      <trkpt lat="46.93955" lon="5.53736">
        <ele>222</ele>
        <time>2012-09-21T12:52:11Z</time>
      </trkpt>
      <trkpt lat="46.93943" lon="5.53746">
        <ele>222</ele>
        <time>2012-09-21T12:52:13Z</time>
      </trkpt>
      <trkpt lat="46.93932" lon="5.53756">
        <ele>222</ele>
        <time>2012-09-21T12:52:15Z</time>
      </trkpt>
      <trkpt lat="46.93922" lon="5.53765">
        <ele>222</ele>
        <time>2012-09-21T12:52:17Z</time>
      </trkpt>
      <trkpt lat="46.93911" lon="5.53774">
        <ele>222</ele>
        <time>2012-09-21T12:52:19Z</time>
      </trkpt>
      <trkpt lat="46.93901" lon="5.53784">
        <ele>222</ele>
        <time>2012-09-21T12:52:21Z</time>
      </trkpt>
      <trkpt lat="46.9389" lon="5.53793">
        <ele>222</ele>
        <time>2012-09-21T12:52:23Z</time>
      </trkpt>
      <trkpt lat="46.93879" lon="5.53802">
        <ele>222</ele>
        <time>2012-09-21T12:52:25Z</time>
      </trkpt>
      <trkpt lat="46.93869" lon="5.53812">
        <ele>222</ele>
        <time>2012-09-21T12:52:27Z</time>
      </trkpt>
      <trkpt lat="46.93859" lon="5.53824">
        <ele>222</ele>
        <time>2012-09-21T12:52:29Z</time>
      </trkpt>
      <trkpt lat="46.93849" lon="5.53836">
        <ele>222</ele>
        <time>2012-09-21T12:52:31Z</time>
      </trkpt>
      <trkpt lat="46.93841" lon="5.53849">
        <ele>222</ele>
        <time>2012-09-21T12:52:33Z</time>
      </trkpt>
      <trkpt lat="46.93833" lon="5.53862">
        <ele>222</ele>
        <time>2012-09-21T12:52:35Z</time>
      </trkpt>
      <trkpt lat="46.93825" lon="5.53874">
        <ele>222</ele>
        <time>2012-09-21T12:52:37Z</time>
      </trkpt>
      <trkpt lat="46.93817" lon="5.53887">
        <ele>222</ele>
        <time>2012-09-21T12:52:39Z</time>
      </trkpt>
      <trkpt lat="46.9381" lon="5.53899">
        <ele>222</ele>
        <time>2012-09-21T12:52:41Z</time>
      </trkpt>
      <trkpt lat="46.93803" lon="5.53912">
        <ele>222</ele>
        <time>2012-09-21T12:52:43Z</time>
      </trkpt>
      <trkpt lat="46.93797" lon="5.53925">
        <ele>222</ele>
        <time>2012-09-21T12:52:45Z</time>
      </trkpt>
      <trkpt lat="46.9379" lon="5.53937">
        <ele>222</ele>
        <time>2012-09-21T12:52:47Z</time>
      </trkpt>
      <trkpt lat="46.93784" lon="5.53951">
        <ele>222</ele>
        <time>2012-09-21T12:52:49Z</time>
      </trkpt>
      <trkpt lat="46.93778" lon="5.53964">
        <ele>222</ele>
        <time>2012-09-21T12:52:51Z</time>
      </trkpt>
      <trkpt lat="46.93772" lon="5.53979">
        <ele>222</ele>
        <time>2012-09-21T12:52:53Z</time>
      </trkpt>
      <trkpt lat="46.93766" lon="5.53994">
        <ele>222</ele>
        <time>2012-09-21T12:52:55Z</time>
      </trkpt>
      <trkpt lat="46.9376" lon="5.54007">
        <ele>222</ele>
        <time>2012-09-21T12:52:57Z</time>
      </trkpt>
      <trkpt lat="46.93754" lon="5.5402">
        <ele>222</ele>
        <time>2012-09-21T12:52:59Z</time>
      </trkpt>
      <trkpt lat="46.93748" lon="5.54033">
        <ele>222</ele>
        <time>2012-09-21T12:53:01Z</time>
      </trkpt>
      <trkpt lat="46.9374" lon="5.54049">
        <ele>222</ele>
        <time>2012-09-21T12:53:03Z</time>
      </trkpt>
      <trkpt lat="46.93734" lon="5.54063">
        <ele>222</ele>
        <time>2012-09-21T12:53:05Z</time>
      </trkpt>
      <trkpt lat="46.93726" lon="5.54078">
        <ele>222</ele>
        <time>2012-09-21T12:53:07Z</time>
      </trkpt>
      <trkpt lat="46.93719" lon="5.54093">
        <ele>222</ele>
        <time>2012-09-21T12:53:09Z</time>
      </trkpt>
      <trkpt lat="46.93711" lon="5.54107">
        <ele>222</ele>
        <time>2012-09-21T12:53:11Z</time>
      </trkpt>
      <trkpt lat="46.93703" lon="5.54122">
        <ele>222</ele>
        <time>2012-09-21T12:53:13Z</time>
      </trkpt>
      <trkpt lat="46.93694" lon="5.54137">
        <ele>222</ele>
        <time>2012-09-21T12:53:15Z</time>
      </trkpt>
      <trkpt lat="46.93686" lon="5.54149">
        <ele>222</ele>
        <time>2012-09-21T12:53:17Z</time>
      </trkpt>
      <trkpt lat="46.93677" lon="5.54162">
        <ele>222</ele>
        <time>2012-09-21T12:53:19Z</time>
      </trkpt>
      <trkpt lat="46.93668" lon="5.54173">
        <ele>222</ele>
        <time>2012-09-21T12:53:21Z</time>
      </trkpt>
      <trkpt lat="46.93657" lon="5.54182">
        <ele>222</ele>
        <time>2012-09-21T12:53:23Z</time>
      </trkpt>
      <trkpt lat="46.93646" lon="5.5419">
        <ele>222</ele>
        <time>2012-09-21T12:53:25Z</time>
      </trkpt>
      <trkpt lat="46.93633" lon="5.54195">
        <ele>222</ele>
        <time>2012-09-21T12:53:27Z</time>
      </trkpt>
      <trkpt lat="46.93617" lon="5.54196">
        <ele>222</ele>
        <time>2012-09-21T12:53:29Z</time>
      </trkpt>
      <trkpt lat="46.93602" lon="5.54194">
        <ele>222</ele>
        <time>2012-09-21T12:53:31Z</time>
      </trkpt>
      <trkpt lat="46.93589" lon="5.54193">
        <ele>222</ele>
        <time>2012-09-21T12:53:33Z</time>
      </trkpt>
      <trkpt lat="46.93577" lon="5.54191">
        <ele>222</ele>
        <time>2012-09-21T12:53:35Z</time>
      </trkpt>
      <trkpt lat="46.93565" lon="5.54191">
        <ele>222</ele>
        <time>2012-09-21T12:53:37Z</time>
      </trkpt>
      <trkpt lat="46.93554" lon="5.54199">
        <ele>222</ele>
        <time>2012-09-21T12:53:39Z</time>
      </trkpt>
      <trkpt lat="46.93543" lon="5.54211">
        <ele>222</ele>
        <time>2012-09-21T12:53:41Z</time>
      </trkpt>
      <trkpt lat="46.93535" lon="5.54226">
        <ele>222</ele>
        <time>2012-09-21T12:53:43Z</time>
      </trkpt>
      <trkpt lat="46.93526" lon="5.54238">
        <ele>222</ele>
        <time>2012-09-21T12:53:45Z</time>
      </trkpt>
      <trkpt lat="46.93518" lon="5.5425">
        <ele>222</ele>
        <time>2012-09-21T12:53:47Z</time>
      </trkpt>
      <trkpt lat="46.93513" lon="5.54261">
        <ele>222</ele>
        <time>2012-09-21T12:53:49Z</time>
      </trkpt>
      <trkpt lat="46.93508" lon="5.54272">
        <ele>222</ele>
        <time>2012-09-21T12:53:51Z</time>
      </trkpt>
      <trkpt lat="46.93501" lon="5.54285">
        <ele>222</ele>
        <time>2012-09-21T12:53:53Z</time>
      </trkpt>
      <trkpt lat="46.93495" lon="5.54298">
        <ele>222</ele>
        <time>2012-09-21T12:53:55Z</time>
      </trkpt>
      <trkpt lat="46.9349" lon="5.54313">
        <ele>222</ele>
        <time>2012-09-21T12:53:57Z</time>
      </trkpt>
      <trkpt lat="46.93484" lon="5.54329">
        <ele>222</ele>
        <time>2012-09-21T12:53:59Z</time>
      </trkpt>
      <trkpt lat="46.93479" lon="5.54345">
        <ele>222</ele>
        <time>2012-09-21T12:54:01Z</time>
      </trkpt>
      <trkpt lat="46.93474" lon="5.54361">
        <ele>222</ele>
        <time>2012-09-21T12:54:03Z</time>
      </trkpt>
      <trkpt lat="46.93469" lon="5.54377">
        <ele>222</ele>
        <time>2012-09-21T12:54:05Z</time>
      </trkpt>
      <trkpt lat="46.93464" lon="5.54394">
        <ele>222</ele>
        <time>2012-09-21T12:54:07Z</time>
      </trkpt>
      <trkpt lat="46.93458" lon="5.54409">
        <ele>222</ele>
        <time>2012-09-21T12:54:09Z</time>
      </trkpt>
      <trkpt lat="46.93451" lon="5.54424">
        <ele>222</ele>
        <time>2012-09-21T12:54:11Z</time>
      </trkpt>
      <trkpt lat="46.93444" lon="5.54438">
        <ele>222</ele>
        <time>2012-09-21T12:54:13Z</time>
      </trkpt>
      <trkpt lat="46.93436" lon="5.54451">
        <ele>222</ele>
        <time>2012-09-21T12:54:15Z</time>
      </trkpt>
      <trkpt lat="46.93428" lon="5.54464">
        <ele>222</ele>
        <time>2012-09-21T12:54:17Z</time>
      </trkpt>
      <trkpt lat="46.9342" lon="5.54475">
        <ele>222</ele>
        <time>2012-09-21T12:54:19Z</time>
      </trkpt>
      <trkpt lat="46.93411" lon="5.54487">
        <ele>222</ele>
        <time>2012-09-21T12:54:21Z</time>
      </trkpt>
      <trkpt lat="46.93402" lon="5.54497">
        <ele>222</ele>
        <time>2012-09-21T12:54:23Z</time>
      </trkpt>
      <trkpt lat="46.93391" lon="5.54506">
        <ele>222</ele>
        <time>2012-09-21T12:54:25Z</time>
      </trkpt>
      <trkpt lat="46.93382" lon="5.54515">
        <ele>222</ele>
        <time>2012-09-21T12:54:27Z</time>
      </trkpt>
      <trkpt lat="46.93372" lon="5.54524">
        <ele>222</ele>
        <time>2012-09-21T12:54:29Z</time>
      </trkpt>
      <trkpt lat="46.93364" lon="5.54534">
        <ele>222</ele>
        <time>2012-09-21T12:54:31Z</time>
      </trkpt>
      <trkpt lat="46.93356" lon="5.54544">
        <ele>222</ele>
        <time>2012-09-21T12:54:33Z</time>
      </trkpt>
      <trkpt lat="46.93348" lon="5.54556">
        <ele>222</ele>
        <time>2012-09-21T12:54:35Z</time>
      </trkpt>
      <trkpt lat="46.9334" lon="5.54569">
        <ele>227</ele>
        <time>2012-09-21T12:54:37Z</time>
      </trkpt>
      <trkpt lat="46.93334" lon="5.54582">
        <ele>227</ele>
        <time>2012-09-21T12:54:39Z</time>
      </trkpt>
      <trkpt lat="46.93327" lon="5.54596">
        <ele>227</ele>
        <time>2012-09-21T12:54:41Z</time>
      </trkpt>
      <trkpt lat="46.9332" lon="5.54609">
        <ele>227</ele>
        <time>2012-09-21T12:54:43Z</time>
      </trkpt>
      <trkpt lat="46.93313" lon="5.54623">
        <ele>227</ele>
        <time>2012-09-21T12:54:45Z</time>
      </trkpt>
      <trkpt lat="46.93306" lon="5.54637">
        <ele>227</ele>
        <time>2012-09-21T12:54:47Z</time>
      </trkpt>
      <trkpt lat="46.93298" lon="5.54652">
        <ele>227</ele>
        <time>2012-09-21T12:54:49Z</time>
      </trkpt>
      <trkpt lat="46.93289" lon="5.54667">
        <ele>227</ele>
        <time>2012-09-21T12:54:51Z</time>
      </trkpt>
      <trkpt lat="46.93279" lon="5.5468">
        <ele>227</ele>
        <time>2012-09-21T12:54:53Z</time>
      </trkpt>
      <trkpt lat="46.9327" lon="5.54694">
        <ele>227</ele>
        <time>2012-09-21T12:54:55Z</time>
      </trkpt>
      <trkpt lat="46.93258" lon="5.54707">
        <ele>227</ele>
        <time>2012-09-21T12:54:57Z</time>
      </trkpt>
      <trkpt lat="46.93247" lon="5.54721">
        <ele>227</ele>
        <time>2012-09-21T12:54:59Z</time>
      </trkpt>
      <trkpt lat="46.93235" lon="5.54735">
        <ele>227</ele>
        <time>2012-09-21T12:55:01Z</time>
      </trkpt>
      <trkpt lat="46.93223" lon="5.54748">
        <ele>227</ele>
        <time>2012-09-21T12:55:03Z</time>
      </trkpt>
      <trkpt lat="46.93211" lon="5.54763">
        <ele>227</ele>
        <time>2012-09-21T12:55:05Z</time>
      </trkpt>
      <trkpt lat="46.93198" lon="5.54777">
        <ele>227</ele>
        <time>2012-09-21T12:55:07Z</time>
      </trkpt>
      <trkpt lat="46.93185" lon="5.54791">
        <ele>227</ele>
        <time>2012-09-21T12:55:09Z</time>
      </trkpt>
      <trkpt lat="46.93172" lon="5.54804">
        <ele>227</ele>
        <time>2012-09-21T12:55:11Z</time>
      </trkpt>
      <trkpt lat="46.93158" lon="5.54816">
        <ele>227</ele>
        <time>2012-09-21T12:55:13Z</time>
      </trkpt>
      <trkpt lat="46.93144" lon="5.54828">
        <ele>227</ele>
        <time>2012-09-21T12:55:15Z</time>
      </trkpt>
      <trkpt lat="46.9313" lon="5.54839">
        <ele>227</ele>
        <time>2012-09-21T12:55:17Z</time>
      </trkpt>
      <trkpt lat="46.93118" lon="5.54849">
        <ele>227</ele>
        <time>2012-09-21T12:55:19Z</time>
      </trkpt>
      <trkpt lat="46.93106" lon="5.54858">
        <ele>227</ele>
        <time>2012-09-21T12:55:21Z</time>
      </trkpt>
      <trkpt lat="46.93094" lon="5.54865">
        <ele>227</ele>
        <time>2012-09-21T12:55:23Z</time>
      </trkpt>
      <trkpt lat="46.93082" lon="5.54871">
        <ele>227</ele>
        <time>2012-09-21T12:55:25Z</time>
      </trkpt>
      <trkpt lat="46.93071" lon="5.54875">
        <ele>227</ele>
        <time>2012-09-21T12:55:27Z</time>
      </trkpt>
      <trkpt lat="46.9306" lon="5.54879">
        <ele>227</ele>
        <time>2012-09-21T12:55:29Z</time>
      </trkpt>
      <trkpt lat="46.93049" lon="5.54885">
        <ele>227</ele>
        <time>2012-09-21T12:55:31Z</time>
      </trkpt>
      <trkpt lat="46.93038" lon="5.54892">
        <ele>227</ele>
        <time>2012-09-21T12:55:33Z</time>
      </trkpt>
      <trkpt lat="46.93027" lon="5.54899">
        <ele>227</ele>
        <time>2012-09-21T12:55:35Z</time>
      </trkpt>
      <trkpt lat="46.93017" lon="5.54907">
        <ele>227</ele>
        <time>2012-09-21T12:55:37Z</time>
      </trkpt>
      <trkpt lat="46.93007" lon="5.54915">
        <ele>227</ele>
        <time>2012-09-21T12:55:39Z</time>
      </trkpt>
      <trkpt lat="46.92997" lon="5.54925">
        <ele>227</ele>
        <time>2012-09-21T12:55:41Z</time>
      </trkpt>
      <trkpt lat="46.92986" lon="5.54934">
        <ele>227</ele>
        <time>2012-09-21T12:55:43Z</time>
      </trkpt>
      <trkpt lat="46.92975" lon="5.54943">
        <ele>227</ele>
        <time>2012-09-21T12:55:45Z</time>
      </trkpt>
      <trkpt lat="46.92965" lon="5.54952">
        <ele>227</ele>
        <time>2012-09-21T12:55:47Z</time>
      </trkpt>
      <trkpt lat="46.92953" lon="5.54961">
        <ele>227</ele>
        <time>2012-09-21T12:55:49Z</time>
      </trkpt>
      <trkpt lat="46.92942" lon="5.54969">
        <ele>227</ele>
        <time>2012-09-21T12:55:51Z</time>
      </trkpt>
      <trkpt lat="46.9293" lon="5.54978">
        <ele>227</ele>
        <time>2012-09-21T12:55:53Z</time>
      </trkpt>
      <trkpt lat="46.92918" lon="5.54988">
        <ele>227</ele>
        <time>2012-09-21T12:55:55Z</time>
      </trkpt>
      <trkpt lat="46.92905" lon="5.54999">
        <ele>227</ele>
        <time>2012-09-21T12:55:57Z</time>
      </trkpt>
      <trkpt lat="46.92891" lon="5.55012">
        <ele>227</ele>
        <time>2012-09-21T12:55:59Z</time>
      </trkpt>
      <trkpt lat="46.92878" lon="5.55025">
        <ele>227</ele>
        <time>2012-09-21T12:56:01Z</time>
      </trkpt>
      <trkpt lat="46.92866" lon="5.55039">
        <ele>227</ele>
        <time>2012-09-21T12:56:03Z</time>
      </trkpt>
      <trkpt lat="46.92855" lon="5.55056">
        <ele>227</ele>
        <time>2012-09-21T12:56:05Z</time>
      </trkpt>
      <trkpt lat="46.92846" lon="5.55072">
        <ele>227</ele>
        <time>2012-09-21T12:56:07Z</time>
      </trkpt>
      <trkpt lat="46.92838" lon="5.55087">
        <ele>227</ele>
        <time>2012-09-21T12:56:09Z</time>
      </trkpt>
      <trkpt lat="46.92831" lon="5.55101">
        <ele>227</ele>
        <time>2012-09-21T12:56:11Z</time>
      </trkpt>
      <trkpt lat="46.92824" lon="5.55115">
        <ele>227</ele>
        <time>2012-09-21T12:56:13Z</time>
      </trkpt>
      <trkpt lat="46.92817" lon="5.55127">
        <ele>227</ele>
        <time>2012-09-21T12:56:15Z</time>
      </trkpt>
      <trkpt lat="46.9281" lon="5.5514">
        <ele>227</ele>
        <time>2012-09-21T12:56:17Z</time>
      </trkpt>
      <trkpt lat="46.92802" lon="5.55153">
        <ele>227</ele>
        <time>2012-09-21T12:56:19Z</time>
      </trkpt>
      <trkpt lat="46.92794" lon="5.55166">
        <ele>227</ele>
        <time>2012-09-21T12:56:21Z</time>
      </trkpt>
      <trkpt lat="46.92786" lon="5.5518">
        <ele>227</ele>
        <time>2012-09-21T12:56:23Z</time>
      </trkpt>
      <trkpt lat="46.92779" lon="5.55194">
        <ele>227</ele>
        <time>2012-09-21T12:56:25Z</time>
      </trkpt>
      <trkpt lat="46.92772" lon="5.55207">
        <ele>227</ele>
        <time>2012-09-21T12:56:27Z</time>
      </trkpt>
      <trkpt lat="46.92764" lon="5.55221">
        <ele>227</ele>
        <time>2012-09-21T12:56:29Z</time>
      </trkpt>
      <trkpt lat="46.92758" lon="5.55234">
        <ele>227</ele>
        <time>2012-09-21T12:56:31Z</time>
      </trkpt>
      <trkpt lat="46.92751" lon="5.55249">
        <ele>227</ele>
        <time>2012-09-21T12:56:33Z</time>
      </trkpt>
      <trkpt lat="46.92744" lon="5.55262">
        <ele>227</ele>
        <time>2012-09-21T12:56:35Z</time>
      </trkpt>
      <trkpt lat="46.92737" lon="5.55277">
        <ele>227</ele>
        <time>2012-09-21T12:56:37Z</time>
      </trkpt>
      <trkpt lat="46.9273" lon="5.55291">
        <ele>227</ele>
        <time>2012-09-21T12:56:39Z</time>
      </trkpt>
      <trkpt lat="46.92725" lon="5.55306">
        <ele>227</ele>
        <time>2012-09-21T12:56:41Z</time>
      </trkpt>
      <trkpt lat="46.92719" lon="5.55321">
        <ele>227</ele>
        <time>2012-09-21T12:56:43Z</time>
      </trkpt>
      <trkpt lat="46.92714" lon="5.55336">
        <ele>227</ele>
        <time>2012-09-21T12:56:45Z</time>
      </trkpt>
      <trkpt lat="46.9271" lon="5.55349">
        <ele>227</ele>
        <time>2012-09-21T12:56:47Z</time>
      </trkpt>
      <trkpt lat="46.92705" lon="5.55363">
        <ele>227</ele>
        <time>2012-09-21T12:56:49Z</time>
      </trkpt>
      <trkpt lat="46.92701" lon="5.55377">
        <ele>227</ele>
        <time>2012-09-21T12:56:51Z</time>
      </trkpt>
      <trkpt lat="46.92697" lon="5.55392">
        <ele>227</ele>
        <time>2012-09-21T12:56:53Z</time>
      </trkpt>
      <trkpt lat="46.92692" lon="5.55406">
        <ele>227</ele>
        <time>2012-09-21T12:56:55Z</time>
      </trkpt>
      <trkpt lat="46.92688" lon="5.5542">
        <ele>227</ele>
        <time>2012-09-21T12:56:57Z</time>
      </trkpt>
      <trkpt lat="46.92684" lon="5.55435">
        <ele>227</ele>
        <time>2012-09-21T12:56:59Z</time>
      </trkpt>
      <trkpt lat="46.92679" lon="5.55449">
        <ele>227</ele>
        <time>2012-09-21T12:57:01Z</time>
      </trkpt>
      <trkpt lat="46.92674" lon="5.55464">
        <ele>227</ele>
        <time>2012-09-21T12:57:03Z</time>
      </trkpt>
      <trkpt lat="46.9267" lon="5.5548">
        <ele>227</ele>
        <time>2012-09-21T12:57:05Z</time>
      </trkpt>
      <trkpt lat="46.92665" lon="5.55497">
        <ele>227</ele>
        <time>2012-09-21T12:57:07Z</time>
      </trkpt>
      <trkpt lat="46.9266" lon="5.55514">
        <ele>227</ele>
        <time>2012-09-21T12:57:09Z</time>
      </trkpt>
      <trkpt lat="46.92654" lon="5.55532">
        <ele>227</ele>
        <time>2012-09-21T12:57:11Z</time>
      </trkpt>
      <trkpt lat="46.92647" lon="5.5555">
        <ele>227</ele>
        <time>2012-09-21T12:57:13Z</time>
      </trkpt>
      <trkpt lat="46.92638" lon="5.55567">
        <ele>227</ele>
        <time>2012-09-21T12:57:15Z</time>
      </trkpt>
      <trkpt lat="46.92628" lon="5.55584">
        <ele>227</ele>
        <time>2012-09-21T12:57:17Z</time>
      </trkpt>
      <trkpt lat="46.92617" lon="5.55599">
        <ele>227</ele>
        <time>2012-09-21T12:57:19Z</time>
      </trkpt>
      <trkpt lat="46.92604" lon="5.55612">
        <ele>227</ele>
        <time>2012-09-21T12:57:21Z</time>
      </trkpt>
      <trkpt lat="46.9259" lon="5.55622">
        <ele>227</ele>
        <time>2012-09-21T12:57:23Z</time>
      </trkpt>
      <trkpt lat="46.92576" lon="5.55633">
        <ele>227</ele>
        <time>2012-09-21T12:57:25Z</time>
      </trkpt>
      <trkpt lat="46.92563" lon="5.55646">
        <ele>227</ele>
        <time>2012-09-21T12:57:27Z</time>
      </trkpt>
      <trkpt lat="46.92551" lon="5.5566">
        <ele>227</ele>
        <time>2012-09-21T12:57:29Z</time>
      </trkpt>
      <trkpt lat="46.9254" lon="5.55678">
        <ele>227</ele>
        <time>2012-09-21T12:57:31Z</time>
      </trkpt>
      <trkpt lat="46.9253" lon="5.55697">
        <ele>227</ele>
        <time>2012-09-21T12:57:33Z</time>
      </trkpt>
      <trkpt lat="46.92521" lon="5.55718">
        <ele>227</ele>
        <time>2012-09-21T12:57:35Z</time>
      </trkpt>
      <trkpt lat="46.92514" lon="5.55738">
        <ele>227</ele>
        <time>2012-09-21T12:57:37Z</time>
      </trkpt>
      <trkpt lat="46.92508" lon="5.55759">
        <ele>227</ele>
        <time>2012-09-21T12:57:39Z</time>
      </trkpt>
      <trkpt lat="46.92503" lon="5.55781">
        <ele>227</ele>
        <time>2012-09-21T12:57:41Z</time>
      </trkpt>
      <trkpt lat="46.925" lon="5.558">
        <ele>227</ele>
        <time>2012-09-21T12:57:43Z</time>
      </trkpt>
      <trkpt lat="46.92498" lon="5.55818">
        <ele>227</ele>
        <time>2012-09-21T12:57:45Z</time>
      </trkpt>
      <trkpt lat="46.92495" lon="5.55836">
        <ele>227</ele>
        <time>2012-09-21T12:57:47Z</time>
      </trkpt>
      <trkpt lat="46.92493" lon="5.55855">
        <ele>227</ele>
        <time>2012-09-21T12:57:49Z</time>
      </trkpt>
      <trkpt lat="46.92491" lon="5.55873">
        <ele>227</ele>
        <time>2012-09-21T12:57:51Z</time>
      </trkpt>
      <trkpt lat="46.9249" lon="5.55891">
        <ele>227</ele>
        <time>2012-09-21T12:57:53Z</time>
      </trkpt>
      <trkpt lat="46.92488" lon="5.55909">
        <ele>227</ele>
        <time>2012-09-21T12:57:55Z</time>
      </trkpt>
      <trkpt lat="46.92486" lon="5.55928">
        <ele>227</ele>
        <time>2012-09-21T12:57:57Z</time>
      </trkpt>
      <trkpt lat="46.92484" lon="5.55947">
        <ele>227</ele>
        <time>2012-09-21T12:57:59Z</time>
      </trkpt>
      <trkpt lat="46.92482" lon="5.55966">
        <ele>227</ele>
        <time>2012-09-21T12:58:01Z</time>
      </trkpt>
      <trkpt lat="46.92479" lon="5.55985">
        <ele>227</ele>
        <time>2012-09-21T12:58:03Z</time>
      </trkpt>
      <trkpt lat="46.92478" lon="5.56006">
        <ele>227</ele>
        <time>2012-09-21T12:58:05Z</time>
      </trkpt>
      <trkpt lat="46.92476" lon="5.56026">
        <ele>227</ele>
        <time>2012-09-21T12:58:07Z</time>
      </trkpt>
      <trkpt lat="46.92473" lon="5.56047">
        <ele>227</ele>
        <time>2012-09-21T12:58:09Z</time>
      </trkpt>
      <trkpt lat="46.92468" lon="5.56068">
        <ele>227</ele>
        <time>2012-09-21T12:58:11Z</time>
      </trkpt>
      <trkpt lat="46.92461" lon="5.56089">
        <ele>227</ele>
        <time>2012-09-21T12:58:13Z</time>
      </trkpt>
      <trkpt lat="46.92451" lon="5.56107">
        <ele>227</ele>
        <time>2012-09-21T12:58:15Z</time>
      </trkpt>
      <trkpt lat="46.92441" lon="5.56125">
        <ele>227</ele>
        <time>2012-09-21T12:58:17Z</time>
      </trkpt>
      <trkpt lat="46.9243" lon="5.56141">
        <ele>227</ele>
        <time>2012-09-21T12:58:19Z</time>
      </trkpt>
      <trkpt lat="46.92419" lon="5.56157">
        <ele>227</ele>
        <time>2012-09-21T12:58:21Z</time>
      </trkpt>
      <trkpt lat="46.92408" lon="5.56174">
        <ele>227</ele>
        <time>2012-09-21T12:58:23Z</time>
      </trkpt>
      <trkpt lat="46.92397" lon="5.5619">
        <ele>227</ele>
        <time>2012-09-21T12:58:25Z</time>
      </trkpt>
      <trkpt lat="46.92386" lon="5.56207">
        <ele>227</ele>
        <time>2012-09-21T12:58:27Z</time>
      </trkpt>
      <trkpt lat="46.92376" lon="5.56221">
        <ele>227</ele>
        <time>2012-09-21T12:58:29Z</time>
      </trkpt>
      <trkpt lat="46.92367" lon="5.56234">
        <ele>227</ele>
        <time>2012-09-21T12:58:31Z</time>
      </trkpt>
      <trkpt lat="46.9236" lon="5.56249">
        <ele>227</ele>
        <time>2012-09-21T12:58:33Z</time>
      </trkpt>
      <trkpt lat="46.92351" lon="5.56261">
        <ele>227</ele>
        <time>2012-09-21T12:58:35Z</time>
      </trkpt>
      <trkpt lat="46.92342" lon="5.56276">
        <ele>227</ele>
        <time>2012-09-21T12:58:37Z</time>
      </trkpt>
      <trkpt lat="46.92334" lon="5.56289">
        <ele>227</ele>
        <time>2012-09-21T12:58:39Z</time>
      </trkpt>
      <trkpt lat="46.92328" lon="5.56304">
        <ele>227</ele>
        <time>2012-09-21T12:58:41Z</time>
      </trkpt>
      <trkpt lat="46.92323" lon="5.5632">
        <ele>227</ele>
        <time>2012-09-21T12:58:43Z</time>
      </trkpt>
      <trkpt lat="46.92321" lon="5.56337">
        <ele>227</ele>
        <time>2012-09-21T12:58:45Z</time>
      </trkpt>
      <trkpt lat="46.9232" lon="5.56355">
        <ele>227</ele>
        <time>2012-09-21T12:58:47Z</time>
      </trkpt>
      <trkpt lat="46.92321" lon="5.56374">
        <ele>227</ele>
        <time>2012-09-21T12:58:49Z</time>
      </trkpt>
      <trkpt lat="46.92322" lon="5.56393">
        <ele>227</ele>
        <time>2012-09-21T12:58:51Z</time>
      </trkpt>
      <trkpt lat="46.92324" lon="5.56412">
        <ele>227</ele>
        <time>2012-09-21T12:58:53Z</time>
      </trkpt>
      <trkpt lat="46.92327" lon="5.56431">
        <ele>227</ele>
        <time>2012-09-21T12:58:55Z</time>
      </trkpt>
      <trkpt lat="46.92329" lon="5.56449">
        <ele>227</ele>
        <time>2012-09-21T12:58:57Z</time>
      </trkpt>
      <trkpt lat="46.92331" lon="5.56467">
        <ele>227</ele>
        <time>2012-09-21T12:58:59Z</time>
      </trkpt>
      <trkpt lat="46.92334" lon="5.56486">
        <ele>227</ele>
        <time>2012-09-21T12:59:01Z</time>
      </trkpt>
      <trkpt lat="46.92337" lon="5.56504">
        <ele>227</ele>
        <time>2012-09-21T12:59:03Z</time>
      </trkpt>
      <trkpt lat="46.9234" lon="5.56523">
        <ele>227</ele>
        <time>2012-09-21T12:59:05Z</time>
      </trkpt>
      <trkpt lat="46.92342" lon="5.56541">
        <ele>227</ele>
        <time>2012-09-21T12:59:07Z</time>
      </trkpt>
      <trkpt lat="46.92344" lon="5.5656">
        <ele>227</ele>
        <time>2012-09-21T12:59:09Z</time>
      </trkpt>
      <trkpt lat="46.92346" lon="5.56579">
        <ele>227</ele>
        <time>2012-09-21T12:59:11Z</time>
      </trkpt>
      <trkpt lat="46.92347" lon="5.56599">
        <ele>227</ele>
        <time>2012-09-21T12:59:13Z</time>
      </trkpt>
      <trkpt lat="46.92347" lon="5.56618">
        <ele>227</ele>
        <time>2012-09-21T12:59:15Z</time>
      </trkpt>
      <trkpt lat="46.92344" lon="5.56638">
        <ele>227</ele>
        <time>2012-09-21T12:59:17Z</time>
      </trkpt>
      <trkpt lat="46.92338" lon="5.56656">
        <ele>227</ele>
        <time>2012-09-21T12:59:19Z</time>
      </trkpt>
      <trkpt lat="46.9233" lon="5.56673">
        <ele>227</ele>
        <time>2012-09-21T12:59:21Z</time>
      </trkpt>
      <trkpt lat="46.92321" lon="5.56686">
        <ele>227</ele>
        <time>2012-09-21T12:59:23Z</time>
      </trkpt>
      <trkpt lat="46.92311" lon="5.56697">
        <ele>227</ele>
        <time>2012-09-21T12:59:25Z</time>
      </trkpt>
      <trkpt lat="46.92299" lon="5.56704">
        <ele>227</ele>
        <time>2012-09-21T12:59:27Z</time>
      </trkpt>
      <trkpt lat="46.92286" lon="5.56708">
        <ele>227</ele>
        <time>2012-09-21T12:59:29Z</time>
      </trkpt>
      <trkpt lat="46.92274" lon="5.56712">
        <ele>227</ele>
        <time>2012-09-21T12:59:31Z</time>
      </trkpt>
      <trkpt lat="46.92261" lon="5.56713">
        <ele>227</ele>
        <time>2012-09-21T12:59:33Z</time>
      </trkpt>
      <trkpt lat="46.92247" lon="5.56716">
        <ele>227</ele>
        <time>2012-09-21T12:59:35Z</time>
      </trkpt>
      <trkpt lat="46.92234" lon="5.56721">
        <ele>227</ele>
        <time>2012-09-21T12:59:37Z</time>
      </trkpt>
      <trkpt lat="46.92222" lon="5.5673">
        <ele>227</ele>
        <time>2012-09-21T12:59:39Z</time>
      </trkpt>
      <trkpt lat="46.9221" lon="5.56741">
        <ele>227</ele>
        <time>2012-09-21T12:59:41Z</time>
      </trkpt>
      <trkpt lat="46.92199" lon="5.56754">
        <ele>227</ele>
        <time>2012-09-21T12:59:43Z</time>
      </trkpt>
      <trkpt lat="46.92188" lon="5.56767">
        <ele>227</ele>
        <time>2012-09-21T12:59:45Z</time>
      </trkpt>
      <trkpt lat="46.92177" lon="5.5678">
        <ele>227</ele>
        <time>2012-09-21T12:59:47Z</time>
      </trkpt>
      <trkpt lat="46.92164" lon="5.56792">
        <ele>227</ele>
        <time>2012-09-21T12:59:49Z</time>
      </trkpt>
      <trkpt lat="46.9215" lon="5.568">
        <ele>227</ele>
        <time>2012-09-21T12:59:51Z</time>
      </trkpt>
      <trkpt lat="46.92134" lon="5.56806">
        <ele>227</ele>
        <time>2012-09-21T12:59:53Z</time>
      </trkpt>
      <trkpt lat="46.92119" lon="5.56808">
        <ele>227</ele>
        <time>2012-09-21T12:59:55Z</time>
      </trkpt>
      <trkpt lat="46.92104" lon="5.56811">
        <ele>227</ele>
        <time>2012-09-21T12:59:57Z</time>
      </trkpt>
      <trkpt lat="46.9209" lon="5.56814">
        <ele>227</ele>
        <time>2012-09-21T12:59:59Z</time>
      </trkpt>
      <trkpt lat="46.92077" lon="5.56816">
        <ele>227</ele>
        <time>2012-09-21T13:00:01Z</time>
      </trkpt>
      <trkpt lat="46.92066" lon="5.56819">
        <ele>227</ele>
        <time>2012-09-21T13:00:03Z</time>
      </trkpt>
      <trkpt lat="46.92054" lon="5.56821">
        <ele>227</ele>
        <time>2012-09-21T13:00:05Z</time>
      </trkpt>
      <trkpt lat="46.92042" lon="5.56825">
        <ele>227</ele>
        <time>2012-09-21T13:00:07Z</time>
      </trkpt>
      <trkpt lat="46.92031" lon="5.56832">
        <ele>227</ele>
        <time>2012-09-21T13:00:09Z</time>
      </trkpt>
      <trkpt lat="46.9202" lon="5.56841">
        <ele>227</ele>
        <time>2012-09-21T13:00:11Z</time>
      </trkpt>
      <trkpt lat="46.9201" lon="5.56853">
        <ele>227</ele>
        <time>2012-09-21T13:00:13Z</time>
      </trkpt>
      <trkpt lat="46.92" lon="5.56865">
        <ele>227</ele>
        <time>2012-09-21T13:00:15Z</time>
      </trkpt>
      <trkpt lat="46.9199" lon="5.56876">
        <ele>227</ele>
        <time>2012-09-21T13:00:17Z</time>
      </trkpt>
      <trkpt lat="46.9198" lon="5.56889">
        <ele>227</ele>
        <time>2012-09-21T13:00:19Z</time>
      </trkpt>
      <trkpt lat="46.91969" lon="5.56902">
        <ele>227</ele>
        <time>2012-09-21T13:00:21Z</time>
      </trkpt>
      <trkpt lat="46.91957" lon="5.56915">
        <ele>227</ele>
        <time>2012-09-21T13:00:23Z</time>
      </trkpt>
      <trkpt lat="46.91945" lon="5.56929">
        <ele>227</ele>
        <time>2012-09-21T13:00:25Z</time>
      </trkpt>
      <trkpt lat="46.91933" lon="5.56942">
        <ele>227</ele>
        <time>2012-09-21T13:00:27Z</time>
      </trkpt>
      <trkpt lat="46.91922" lon="5.56956">
        <ele>227</ele>
        <time>2012-09-21T13:00:29Z</time>
      </trkpt>
      <trkpt lat="46.91909" lon="5.56969">
        <ele>227</ele>
        <time>2012-09-21T13:00:31Z</time>
      </trkpt>
      <trkpt lat="46.91898" lon="5.56983">
        <ele>227</ele>
        <time>2012-09-21T13:00:33Z</time>
      </trkpt>
      <trkpt lat="46.91887" lon="5.56996">
        <ele>227</ele>
        <time>2012-09-21T13:00:35Z</time>
      </trkpt>
      <trkpt lat="46.91876" lon="5.57009">
        <ele>227</ele>
        <time>2012-09-21T13:00:37Z</time>
      </trkpt>
      <trkpt lat="46.91865" lon="5.57021">
        <ele>227</ele>
        <time>2012-09-21T13:00:39Z</time>
      </trkpt>
      <trkpt lat="46.91855" lon="5.57034">
        <ele>227</ele>
        <time>2012-09-21T13:00:41Z</time>
      </trkpt>
      <trkpt lat="46.91845" lon="5.57046">
        <ele>227</ele>
        <time>2012-09-21T13:00:43Z</time>
      </trkpt>
      <trkpt lat="46.91835" lon="5.57058">
        <ele>227</ele>
        <time>2012-09-21T13:00:45Z</time>
      </trkpt>
      <trkpt lat="46.91826" lon="5.57069">
        <ele>227</ele>
        <time>2012-09-21T13:00:47Z</time>
      </trkpt>
      <trkpt lat="46.91817" lon="5.5708">
        <ele>227</ele>
        <time>2012-09-21T13:00:49Z</time>
      </trkpt>
      <trkpt lat="46.91807" lon="5.57093">
        <ele>227</ele>
        <time>2012-09-21T13:00:51Z</time>
      </trkpt>
      <trkpt lat="46.91797" lon="5.57106">
        <ele>227</ele>
        <time>2012-09-21T13:00:53Z</time>
      </trkpt>
      <trkpt lat="46.91786" lon="5.5712">
        <ele>227</ele>
        <time>2012-09-21T13:00:55Z</time>
      </trkpt>
      <trkpt lat="46.91775" lon="5.57132">
        <ele>227</ele>
        <time>2012-09-21T13:00:57Z</time>
      </trkpt>
      <trkpt lat="46.91763" lon="5.57144">
        <ele>227</ele>
        <time>2012-09-21T13:00:59Z</time>
      </trkpt>
      <trkpt lat="46.9175" lon="5.57153">
        <ele>227</ele>
        <time>2012-09-21T13:01:01Z</time>
      </trkpt>
      <trkpt lat="46.91737" lon="5.57161">
        <ele>227</ele>
        <time>2012-09-21T13:01:03Z</time>
      </trkpt>
      <trkpt lat="46.91724" lon="5.57169">
        <ele>227</ele>
        <time>2012-09-21T13:01:05Z</time>
      </trkpt>
      <trkpt lat="46.91711" lon="5.57176">
        <ele>227</ele>
        <time>2012-09-21T13:01:07Z</time>
      </trkpt>
      <trkpt lat="46.91696" lon="5.57181">
        <ele>227</ele>
        <time>2012-09-21T13:01:09Z</time>
      </trkpt>
      <trkpt lat="46.91682" lon="5.57183">
        <ele>227</ele>
        <time>2012-09-21T13:01:11Z</time>
      </trkpt>
      <trkpt lat="46.91666" lon="5.57181">
        <ele>227</ele>
        <time>2012-09-21T13:01:13Z</time>
      </trkpt>
      <trkpt lat="46.91652" lon="5.57176">
        <ele>227</ele>
        <time>2012-09-21T13:01:15Z</time>
      </trkpt>
      <trkpt lat="46.91637" lon="5.57171">
        <ele>227</ele>
        <time>2012-09-21T13:01:17Z</time>
      </trkpt>
      <trkpt lat="46.91623" lon="5.5717">
        <ele>227</ele>
        <time>2012-09-21T13:01:19Z</time>
      </trkpt>
      <trkpt lat="46.91609" lon="5.57174">
        <ele>227</ele>
        <time>2012-09-21T13:01:21Z</time>
      </trkpt>
      <trkpt lat="46.91597" lon="5.57185">
        <ele>227</ele>
        <time>2012-09-21T13:01:23Z</time>
      </trkpt>
      <trkpt lat="46.91588" lon="5.572">
        <ele>227</ele>
        <time>2012-09-21T13:01:25Z</time>
      </trkpt>
      <trkpt lat="46.9158" lon="5.57216">
        <ele>227</ele>
        <time>2012-09-21T13:01:27Z</time>
      </trkpt>
      <trkpt lat="46.91572" lon="5.57233">
        <ele>227</ele>
        <time>2012-09-21T13:01:29Z</time>
      </trkpt>
      <trkpt lat="46.91564" lon="5.57248">
        <ele>227</ele>
        <time>2012-09-21T13:01:31Z</time>
      </trkpt>
      <trkpt lat="46.91557" lon="5.57264">
        <ele>227</ele>
        <time>2012-09-21T13:01:33Z</time>
      </trkpt>
      <trkpt lat="46.91549" lon="5.57277">
        <ele>227</ele>
        <time>2012-09-21T13:01:35Z</time>
      </trkpt>
      <trkpt lat="46.91542" lon="5.57291">
        <ele>227</ele>
        <time>2012-09-21T13:01:37Z</time>
      </trkpt>
      <trkpt lat="46.91533" lon="5.57303">
        <ele>227</ele>
        <time>2012-09-21T13:01:39Z</time>
      </trkpt>
      <trkpt lat="46.91524" lon="5.57316">
        <ele>227</ele>
        <time>2012-09-21T13:01:41Z</time>
      </trkpt>
      <trkpt lat="46.91513" lon="5.57328">
        <ele>227</ele>
        <time>2012-09-21T13:01:43Z</time>
      </trkpt>
      <trkpt lat="46.91501" lon="5.57339">
        <ele>227</ele>
        <time>2012-09-21T13:01:45Z</time>
      </trkpt>
      <trkpt lat="46.91487" lon="5.57349">
        <ele>227</ele>
        <time>2012-09-21T13:01:47Z</time>
      </trkpt>
      <trkpt lat="46.91474" lon="5.5736">
        <ele>227</ele>
        <time>2012-09-21T13:01:49Z</time>
      </trkpt>
      <trkpt lat="46.9146" lon="5.5737">
        <ele>227</ele>
        <time>2012-09-21T13:01:51Z</time>
      </trkpt>
      <trkpt lat="46.91448" lon="5.5738">
        <ele>227</ele>
        <time>2012-09-21T13:01:53Z</time>
      </trkpt>
      <trkpt lat="46.91435" lon="5.57387">
        <ele>227</ele>
        <time>2012-09-21T13:01:55Z</time>
      </trkpt>
      <trkpt lat="46.91421" lon="5.5739">
        <ele>227</ele>
        <time>2012-09-21T13:01:57Z</time>
      </trkpt>
      <trkpt lat="46.91408" lon="5.57388">
        <ele>227</ele>
        <time>2012-09-21T13:01:59Z</time>
      </trkpt>
      <trkpt lat="46.91395" lon="5.57378">
        <ele>227</ele>
        <time>2012-09-21T13:02:01Z</time>
      </trkpt>
      <trkpt lat="46.91383" lon="5.57364">
        <ele>227</ele>
        <time>2012-09-21T13:02:03Z</time>
      </trkpt>
      <trkpt lat="46.91372" lon="5.57352">
        <ele>227</ele>
        <time>2012-09-21T13:02:05Z</time>
      </trkpt>
      <trkpt lat="46.91359" lon="5.57347">
        <ele>227</ele>
        <time>2012-09-21T13:02:07Z</time>
      </trkpt>
      <trkpt lat="46.91346" lon="5.57355">
        <ele>227</ele>
        <time>2012-09-21T13:02:09Z</time>
      </trkpt>
      <trkpt lat="46.91335" lon="5.57371">
        <ele>227</ele>
        <time>2012-09-21T13:02:11Z</time>
      </trkpt>
      <trkpt lat="46.91325" lon="5.57387">
        <ele>227</ele>
        <time>2012-09-21T13:02:13Z</time>
      </trkpt>
      <trkpt lat="46.91314" lon="5.57404">
        <ele>227</ele>
        <time>2012-09-21T13:02:15Z</time>
      </trkpt>
      <trkpt lat="46.91304" lon="5.57421">
        <ele>227</ele>
        <time>2012-09-21T13:02:17Z</time>
      </trkpt>
      <trkpt lat="46.91293" lon="5.57437">
        <ele>227</ele>
        <time>2012-09-21T13:02:19Z</time>
      </trkpt>
      <trkpt lat="46.91283" lon="5.57453">
        <ele>227</ele>
        <time>2012-09-21T13:02:21Z</time>
      </trkpt>
      <trkpt lat="46.91273" lon="5.57468">
        <ele>227</ele>
        <time>2012-09-21T13:02:23Z</time>
      </trkpt>
      <trkpt lat="46.91263" lon="5.57483">
        <ele>227</ele>
        <time>2012-09-21T13:02:25Z</time>
      </trkpt>
      <trkpt lat="46.91253" lon="5.57497">
        <ele>227</ele>
        <time>2012-09-21T13:02:27Z</time>
      </trkpt>
      <trkpt lat="46.91244" lon="5.57511">
        <ele>227</ele>
        <time>2012-09-21T13:02:29Z</time>
      </trkpt>
      <trkpt lat="46.91235" lon="5.57525">
        <ele>227</ele>
        <time>2012-09-21T13:02:31Z</time>
      </trkpt>
      <trkpt lat="46.91226" lon="5.57539">
        <ele>227</ele>
        <time>2012-09-21T13:02:33Z</time>
      </trkpt>
      <trkpt lat="46.91218" lon="5.57555">
        <ele>227</ele>
        <time>2012-09-21T13:02:35Z</time>
      </trkpt>
      <trkpt lat="46.91211" lon="5.57572">
        <ele>227</ele>
        <time>2012-09-21T13:02:37Z</time>
      </trkpt>
      <trkpt lat="46.91207" lon="5.57591">
        <ele>227</ele>
        <time>2012-09-21T13:02:39Z</time>
      </trkpt>
      <trkpt lat="46.91203" lon="5.5761">
        <ele>227</ele>
        <time>2012-09-21T13:02:41Z</time>
      </trkpt>
      <trkpt lat="46.91201" lon="5.5763">
        <ele>227</ele>
        <time>2012-09-21T13:02:43Z</time>
      </trkpt>
      <trkpt lat="46.912" lon="5.57651">
        <ele>227</ele>
        <time>2012-09-21T13:02:45Z</time>
      </trkpt>
      <trkpt lat="46.91199" lon="5.57671">
        <ele>227</ele>
        <time>2012-09-21T13:02:47Z</time>
      </trkpt>
      <trkpt lat="46.91197" lon="5.5769">
        <ele>227</ele>
        <time>2012-09-21T13:02:49Z</time>
      </trkpt>
      <trkpt lat="46.91193" lon="5.57708">
        <ele>227</ele>
        <time>2012-09-21T13:02:51Z</time>
      </trkpt>
      <trkpt lat="46.91188" lon="5.57726">
        <ele>227</ele>
        <time>2012-09-21T13:02:53Z</time>
      </trkpt>
      <trkpt lat="46.91182" lon="5.57743">
        <ele>227</ele>
        <time>2012-09-21T13:02:55Z</time>
      </trkpt>
      <trkpt lat="46.91176" lon="5.5776">
        <ele>227</ele>
        <time>2012-09-21T13:02:57Z</time>
      </trkpt>
      <trkpt lat="46.91166" lon="5.57775">
        <ele>227</ele>
        <time>2012-09-21T13:02:59Z</time>
      </trkpt>
      <trkpt lat="46.91155" lon="5.57787">
        <ele>227</ele>
        <time>2012-09-21T13:03:01Z</time>
      </trkpt>
      <trkpt lat="46.91145" lon="5.57801">
        <ele>227</ele>
        <time>2012-09-21T13:03:03Z</time>
      </trkpt>
      <trkpt lat="46.91134" lon="5.57814">
        <ele>227</ele>
        <time>2012-09-21T13:03:05Z</time>
      </trkpt>
      <trkpt lat="46.91125" lon="5.57829">
        <ele>227</ele>
        <time>2012-09-21T13:03:07Z</time>
      </trkpt>
      <trkpt lat="46.91117" lon="5.57844">
        <ele>227</ele>
        <time>2012-09-21T13:03:09Z</time>
      </trkpt>
      <trkpt lat="46.91109" lon="5.57858">
        <ele>227</ele>
        <time>2012-09-21T13:03:11Z</time>
      </trkpt>
      <trkpt lat="46.91102" lon="5.57873">
        <ele>227</ele>
        <time>2012-09-21T13:03:13Z</time>
      </trkpt>
      <trkpt lat="46.91095" lon="5.57888">
        <ele>227</ele>
        <time>2012-09-21T13:03:15Z</time>
      </trkpt>
      <trkpt lat="46.91091" lon="5.57905">
        <ele>227</ele>
        <time>2012-09-21T13:03:17Z</time>
      </trkpt>
      <trkpt lat="46.91089" lon="5.57921">
        <ele>227</ele>
        <time>2012-09-21T13:03:19Z</time>
      </trkpt>
      <trkpt lat="46.9109" lon="5.57937">
        <ele>227</ele>
        <time>2012-09-21T13:03:21Z</time>
      </trkpt>
      <trkpt lat="46.91088" lon="5.57954">
        <ele>227</ele>
        <time>2012-09-21T13:03:23Z</time>
      </trkpt>
      <trkpt lat="46.91083" lon="5.57969">
        <ele>227</ele>
        <time>2012-09-21T13:03:25Z</time>
      </trkpt>
      <trkpt lat="46.91075" lon="5.57981">
        <ele>227</ele>
        <time>2012-09-21T13:03:27Z</time>
      </trkpt>
      <trkpt lat="46.91067" lon="5.57994">
        <ele>227</ele>
        <time>2012-09-21T13:03:29Z</time>
      </trkpt>
      <trkpt lat="46.9106" lon="5.58007">
        <ele>227</ele>
        <time>2012-09-21T13:03:31Z</time>
      </trkpt>
      <trkpt lat="46.91054" lon="5.58023">
        <ele>227</ele>
        <time>2012-09-21T13:03:33Z</time>
      </trkpt>
      <trkpt lat="46.91047" lon="5.58038">
        <ele>227</ele>
        <time>2012-09-21T13:03:35Z</time>
      </trkpt>
      <trkpt lat="46.9104" lon="5.58053">
        <ele>227</ele>
        <time>2012-09-21T13:03:37Z</time>
      </trkpt>
      <trkpt lat="46.91031" lon="5.58068">
        <ele>227</ele>
        <time>2012-09-21T13:03:39Z</time>
      </trkpt>
      <trkpt lat="46.91021" lon="5.5808">
        <ele>227</ele>
        <time>2012-09-21T13:03:41Z</time>
      </trkpt>
      <trkpt lat="46.9101" lon="5.58092">
        <ele>227</ele>
        <time>2012-09-21T13:03:43Z</time>
      </trkpt>
      <trkpt lat="46.90998" lon="5.58104">
        <ele>227</ele>
        <time>2012-09-21T13:03:45Z</time>
      </trkpt>
      <trkpt lat="46.90987" lon="5.58114">
        <ele>227</ele>
        <time>2012-09-21T13:03:47Z</time>
      </trkpt>
      <trkpt lat="46.90977" lon="5.58124">
        <ele>227</ele>
        <time>2012-09-21T13:03:49Z</time>
      </trkpt>
      <trkpt lat="46.90966" lon="5.58135">
        <ele>227</ele>
        <time>2012-09-21T13:03:51Z</time>
      </trkpt>
      <trkpt lat="46.90955" lon="5.58146">
        <ele>227</ele>
        <time>2012-09-21T13:03:53Z</time>
      </trkpt>
      <trkpt lat="46.90945" lon="5.58156">
        <ele>227</ele>
        <time>2012-09-21T13:03:55Z</time>
      </trkpt>
      <trkpt lat="46.90934" lon="5.58166">
        <ele>227</ele>
        <time>2012-09-21T13:03:57Z</time>
      </trkpt>
      <trkpt lat="46.90923" lon="5.58176">
        <ele>227</ele>
        <time>2012-09-21T13:03:59Z</time>
      </trkpt>
      <trkpt lat="46.90913" lon="5.58187">
        <ele>227</ele>
        <time>2012-09-21T13:04:01Z</time>
      </trkpt>
      <trkpt lat="46.90902" lon="5.58196">
        <ele>227</ele>
        <time>2012-09-21T13:04:03Z</time>
      </trkpt>
      <trkpt lat="46.90891" lon="5.58206">
        <ele>227</ele>
        <time>2012-09-21T13:04:05Z</time>
      </trkpt>
      <trkpt lat="46.9088" lon="5.58217">
        <ele>227</ele>
        <time>2012-09-21T13:04:07Z</time>
      </trkpt>
      <trkpt lat="46.90868" lon="5.58229">
        <ele>227</ele>
        <time>2012-09-21T13:04:09Z</time>
      </trkpt>
      <trkpt lat="46.90856" lon="5.58245">
        <ele>227</ele>
        <time>2012-09-21T13:04:11Z</time>
      </trkpt>
      <trkpt lat="46.90845" lon="5.58261">
        <ele>227</ele>
        <time>2012-09-21T13:04:13Z</time>
      </trkpt>
      <trkpt lat="46.90835" lon="5.58278">
        <ele>227</ele>
        <time>2012-09-21T13:04:15Z</time>
      </trkpt>
      <trkpt lat="46.90828" lon="5.58298">
        <ele>227</ele>
        <time>2012-09-21T13:04:17Z</time>
      </trkpt>
      <trkpt lat="46.90825" lon="5.5832">
        <ele>227</ele>
        <time>2012-09-21T13:04:19Z</time>
      </trkpt>
      <trkpt lat="46.90824" lon="5.58343">
        <ele>227</ele>
        <time>2012-09-21T13:04:21Z</time>
      </trkpt>
      <trkpt lat="46.90823" lon="5.58367">
        <ele>227</ele>
        <time>2012-09-21T13:04:23Z</time>
      </trkpt>
      <trkpt lat="46.90821" lon="5.58389">
        <ele>227</ele>
        <time>2012-09-21T13:04:25Z</time>
      </trkpt>
      <trkpt lat="46.90817" lon="5.58412">
        <ele>227</ele>
        <time>2012-09-21T13:04:27Z</time>
      </trkpt>
      <trkpt lat="46.90811" lon="5.58431">
        <ele>227</ele>
        <time>2012-09-21T13:04:29Z</time>
      </trkpt>
      <trkpt lat="46.90804" lon="5.5845">
        <ele>227</ele>
        <time>2012-09-21T13:04:31Z</time>
      </trkpt>
      <trkpt lat="46.90796" lon="5.58468">
        <ele>227</ele>
        <time>2012-09-21T13:04:33Z</time>
      </trkpt>
      <trkpt lat="46.90789" lon="5.58486">
        <ele>227</ele>
        <time>2012-09-21T13:04:35Z</time>
      </trkpt>
      <trkpt lat="46.90782" lon="5.58503">
        <ele>227</ele>
        <time>2012-09-21T13:04:37Z</time>
      </trkpt>
      <trkpt lat="46.90776" lon="5.58519">
        <ele>227</ele>
        <time>2012-09-21T13:04:39Z</time>
      </trkpt>
      <trkpt lat="46.9077" lon="5.58535">
        <ele>227</ele>
        <time>2012-09-21T13:04:41Z</time>
      </trkpt>
      <trkpt lat="46.90765" lon="5.58548">
        <ele>227</ele>
        <time>2012-09-21T13:04:43Z</time>
      </trkpt>
      <trkpt lat="46.9076" lon="5.58561">
        <ele>227</ele>
        <time>2012-09-21T13:04:46Z</time>
      </trkpt>
      <trkpt lat="46.90749" lon="5.58559">
        <ele>227</ele>
        <time>2012-09-21T13:04:50Z</time>
      </trkpt>
      <trkpt lat="46.90739" lon="5.5855">
        <ele>232</ele>
        <time>2012-09-21T13:04:53Z</time>
      </trkpt>
      <trkpt lat="46.90728" lon="5.58539">
        <ele>232</ele>
        <time>2012-09-21T13:04:56Z</time>
      </trkpt>
      <trkpt lat="46.90718" lon="5.58532">
        <ele>232</ele>
        <time>2012-09-21T13:04:58Z</time>
      </trkpt>
      <trkpt lat="46.90707" lon="5.58525">
        <ele>232</ele>
        <time>2012-09-21T13:05:00Z</time>
      </trkpt>
      <trkpt lat="46.90698" lon="5.58517">
        <ele>232</ele>
        <time>2012-09-21T13:05:02Z</time>
      </trkpt>
      <trkpt lat="46.90688" lon="5.58509">
        <ele>232</ele>
        <time>2012-09-21T13:05:04Z</time>
      </trkpt>
      <trkpt lat="46.90677" lon="5.58501">
        <ele>232</ele>
        <time>2012-09-21T13:05:06Z</time>
      </trkpt>
      <trkpt lat="46.90666" lon="5.58496">
        <ele>232</ele>
        <time>2012-09-21T13:05:08Z</time>
      </trkpt>
      <trkpt lat="46.90655" lon="5.58499">
        <ele>232</ele>
        <time>2012-09-21T13:05:10Z</time>
      </trkpt>
      <trkpt lat="46.90647" lon="5.5851">
        <ele>232</ele>
        <time>2012-09-21T13:05:12Z</time>
      </trkpt>
      <trkpt lat="46.90642" lon="5.58525">
        <ele>232</ele>
        <time>2012-09-21T13:05:14Z</time>
      </trkpt>
      <trkpt lat="46.90638" lon="5.58541">
        <ele>232</ele>
        <time>2012-09-21T13:05:16Z</time>
      </trkpt>
      <trkpt lat="46.90635" lon="5.58558">
        <ele>232</ele>
        <time>2012-09-21T13:05:18Z</time>
      </trkpt>
      <trkpt lat="46.90632" lon="5.58575">
        <ele>232</ele>
        <time>2012-09-21T13:05:20Z</time>
      </trkpt>
      <trkpt lat="46.90629" lon="5.58592">
        <ele>232</ele>
        <time>2012-09-21T13:05:22Z</time>
      </trkpt>
      <trkpt lat="46.90627" lon="5.58611">
        <ele>232</ele>
        <time>2012-09-21T13:05:24Z</time>
      </trkpt>
      <trkpt lat="46.90625" lon="5.5863">
        <ele>232</ele>
        <time>2012-09-21T13:05:26Z</time>
      </trkpt>
      <trkpt lat="46.90624" lon="5.58649">
        <ele>232</ele>
        <time>2012-09-21T13:05:28Z</time>
      </trkpt>
      <trkpt lat="46.90622" lon="5.58668">
        <ele>232</ele>
        <time>2012-09-21T13:05:30Z</time>
      </trkpt>
      <trkpt lat="46.9062" lon="5.58686">
        <ele>232</ele>
        <time>2012-09-21T13:05:32Z</time>
      </trkpt>
      <trkpt lat="46.90619" lon="5.58704">
        <ele>232</ele>
        <time>2012-09-21T13:05:34Z</time>
      </trkpt>
      <trkpt lat="46.90618" lon="5.58718">
        <ele>232</ele>
        <time>2012-09-21T13:05:36Z</time>
      </trkpt>
      <trkpt lat="46.90617" lon="5.58731">
        <ele>232</ele>
        <time>2012-09-21T13:05:38Z</time>
      </trkpt>
      <trkpt lat="46.90613" lon="5.58744">
        <ele>232</ele>
        <time>2012-09-21T13:05:40Z</time>
      </trkpt>
      <trkpt lat="46.90606" lon="5.58752">
        <ele>232</ele>
        <time>2012-09-21T13:05:42Z</time>
      </trkpt>
      <trkpt lat="46.90596" lon="5.58758">
        <ele>232</ele>
        <time>2012-09-21T13:05:45Z</time>
      </trkpt>
      <trkpt lat="46.90586" lon="5.58763">
        <ele>232</ele>
        <time>2012-09-21T13:05:49Z</time>
      </trkpt>
      <trkpt lat="46.90575" lon="5.58768">
        <ele>232</ele>
        <time>2012-09-21T13:05:52Z</time>
      </trkpt>
      <trkpt lat="46.90566" lon="5.58772">
        <ele>232</ele>
        <time>2012-09-21T13:05:54Z</time>
      </trkpt>
      <trkpt lat="46.90555" lon="5.58774">
        <ele>232</ele>
        <time>2012-09-21T13:05:56Z</time>
      </trkpt>
      <trkpt lat="46.90544" lon="5.58773">
        <ele>232</ele>
        <time>2012-09-21T13:05:58Z</time>
      </trkpt>
      <trkpt lat="46.90533" lon="5.58768">
        <ele>232</ele>
        <time>2012-09-21T13:06:00Z</time>
      </trkpt>
      <trkpt lat="46.90523" lon="5.58763">
        <ele>232</ele>
        <time>2012-09-21T13:06:02Z</time>
      </trkpt>
      <trkpt lat="46.90513" lon="5.58757">
        <ele>232</ele>
        <time>2012-09-21T13:06:04Z</time>
      </trkpt>
      <trkpt lat="46.90504" lon="5.5875">
        <ele>232</ele>
        <time>2012-09-21T13:06:06Z</time>
      </trkpt>
      <trkpt lat="46.90495" lon="5.58744">
        <ele>232</ele>
        <time>2012-09-21T13:06:08Z</time>
      </trkpt>
      <trkpt lat="46.90485" lon="5.58738">
        <ele>232</ele>
        <time>2012-09-21T13:06:10Z</time>
      </trkpt>
      <trkpt lat="46.90475" lon="5.58731">
        <ele>232</ele>
        <time>2012-09-21T13:06:12Z</time>
      </trkpt>
      <trkpt lat="46.90463" lon="5.58724">
        <ele>232</ele>
        <time>2012-09-21T13:06:14Z</time>
      </trkpt>
      <trkpt lat="46.90451" lon="5.58717">
        <ele>232</ele>
        <time>2012-09-21T13:06:16Z</time>
      </trkpt>
      <trkpt lat="46.90438" lon="5.58713">
        <ele>232</ele>
        <time>2012-09-21T13:06:18Z</time>
      </trkpt>
      <trkpt lat="46.90425" lon="5.58714">
        <ele>232</ele>
        <time>2012-09-21T13:06:20Z</time>
      </trkpt>
      <trkpt lat="46.90412" lon="5.58718">
        <ele>232</ele>
        <time>2012-09-21T13:06:22Z</time>
      </trkpt>
      <trkpt lat="46.904" lon="5.58724">
        <ele>232</ele>
        <time>2012-09-21T13:06:24Z</time>
      </trkpt>
      <trkpt lat="46.90389" lon="5.58731">
        <ele>232</ele>
        <time>2012-09-21T13:06:26Z</time>
      </trkpt>
      <trkpt lat="46.90377" lon="5.58737">
        <ele>232</ele>
        <time>2012-09-21T13:06:28Z</time>
      </trkpt>
      <trkpt lat="46.90366" lon="5.58742">
        <ele>232</ele>
        <time>2012-09-21T13:06:30Z</time>
      </trkpt>
      <trkpt lat="46.90354" lon="5.58746">
        <ele>232</ele>
        <time>2012-09-21T13:06:32Z</time>
      </trkpt>
      <trkpt lat="46.90342" lon="5.58749">
        <ele>232</ele>
        <time>2012-09-21T13:06:34Z</time>
      </trkpt>
      <trkpt lat="46.9033" lon="5.58752">
        <ele>232</ele>
        <time>2012-09-21T13:06:36Z</time>
      </trkpt>
      <trkpt lat="46.90318" lon="5.58756">
        <ele>232</ele>
        <time>2012-09-21T13:06:38Z</time>
      </trkpt>
      <trkpt lat="46.90306" lon="5.58759">
        <ele>232</ele>
        <time>2012-09-21T13:06:40Z</time>
      </trkpt>
      <trkpt lat="46.90294" lon="5.58762">
        <ele>232</ele>
        <time>2012-09-21T13:06:42Z</time>
      </trkpt>
      <trkpt lat="46.90282" lon="5.58765">
        <ele>232</ele>
        <time>2012-09-21T13:06:44Z</time>
      </trkpt>
      <trkpt lat="46.90271" lon="5.58767">
        <ele>232</ele>
        <time>2012-09-21T13:06:46Z</time>
      </trkpt>
      <trkpt lat="46.9026" lon="5.58769">
        <ele>232</ele>
        <time>2012-09-21T13:06:48Z</time>
      </trkpt>
      <trkpt lat="46.90248" lon="5.58771">
        <ele>232</ele>
        <time>2012-09-21T13:06:50Z</time>
      </trkpt>
      <trkpt lat="46.90236" lon="5.58773">
        <ele>232</ele>
        <time>2012-09-21T13:06:52Z</time>
      </trkpt>
      <trkpt lat="46.90224" lon="5.58774">
        <ele>232</ele>
        <time>2012-09-21T13:06:54Z</time>
      </trkpt>
      <trkpt lat="46.90212" lon="5.58775">
        <ele>232</ele>
        <time>2012-09-21T13:06:56Z</time>
      </trkpt>
      <trkpt lat="46.90199" lon="5.58775">
        <ele>232</ele>
        <time>2012-09-21T13:06:58Z</time>
      </trkpt>
      <trkpt lat="46.90187" lon="5.58775">
        <ele>232</ele>
        <time>2012-09-21T13:07:00Z</time>
      </trkpt>
      <trkpt lat="46.90175" lon="5.58775">
        <ele>232</ele>
        <time>2012-09-21T13:07:02Z</time>
      </trkpt>
      <trkpt lat="46.90162" lon="5.58776">
        <ele>232</ele>
        <time>2012-09-21T13:07:04Z</time>
      </trkpt>
      <trkpt lat="46.90149" lon="5.58776">
        <ele>232</ele>
        <time>2012-09-21T13:07:06Z</time>
      </trkpt>
      <trkpt lat="46.90136" lon="5.58776">
        <ele>232</ele>
        <time>2012-09-21T13:07:08Z</time>
      </trkpt>
      <trkpt lat="46.90123" lon="5.58776">
        <ele>232</ele>
        <time>2012-09-21T13:07:10Z</time>
      </trkpt>
      <trkpt lat="46.90111" lon="5.58776">
        <ele>232</ele>
        <time>2012-09-21T13:07:12Z</time>
      </trkpt>
      <trkpt lat="46.90098" lon="5.58776">
        <ele>232</ele>
        <time>2012-09-21T13:07:14Z</time>
      </trkpt>
      <trkpt lat="46.90085" lon="5.58776">
        <ele>232</ele>
        <time>2012-09-21T13:07:16Z</time>
      </trkpt>
      <trkpt lat="46.90073" lon="5.58777">
        <ele>232</ele>
        <time>2012-09-21T13:07:18Z</time>
      </trkpt>
      <trkpt lat="46.9006" lon="5.58777">
        <ele>232</ele>
        <time>2012-09-21T13:07:20Z</time>
      </trkpt>
      <trkpt lat="46.90048" lon="5.58778">
        <ele>232</ele>
        <time>2012-09-21T13:07:22Z</time>
      </trkpt>
      <trkpt lat="46.90035" lon="5.58778">
        <ele>232</ele>
        <time>2012-09-21T13:07:24Z</time>
      </trkpt>
      <trkpt lat="46.90023" lon="5.58779">
        <ele>232</ele>
        <time>2012-09-21T13:07:26Z</time>
      </trkpt>
      <trkpt lat="46.9001" lon="5.58779">
        <ele>232</ele>
        <time>2012-09-21T13:07:28Z</time>
      </trkpt>
      <trkpt lat="46.89999" lon="5.58779">
        <ele>232</ele>
        <time>2012-09-21T13:07:30Z</time>
      </trkpt>
      <trkpt lat="46.89986" lon="5.5878">
        <ele>232</ele>
        <time>2012-09-21T13:07:32Z</time>
      </trkpt>
      <trkpt lat="46.89975" lon="5.5878">
        <ele>232</ele>
        <time>2012-09-21T13:07:34Z</time>
      </trkpt>
      <trkpt lat="46.89963" lon="5.5878">
        <ele>232</ele>
        <time>2012-09-21T13:07:36Z</time>
      </trkpt>
      <trkpt lat="46.89953" lon="5.5878">
        <ele>232</ele>
        <time>2012-09-21T13:07:38Z</time>
      </trkpt>
      <trkpt lat="46.89944" lon="5.5878">
        <ele>232</ele>
        <time>2012-09-21T13:07:40Z</time>
      </trkpt>
      <trkpt lat="46.89931" lon="5.5878">
        <ele>232</ele>
        <time>2012-09-21T13:07:43Z</time>
      </trkpt>
      <trkpt lat="46.89919" lon="5.58776">
        <ele>232</ele>
        <time>2012-09-21T13:07:46Z</time>
      </trkpt>
      <trkpt lat="46.89911" lon="5.58758">
        <ele>232</ele>
        <time>2012-09-21T13:07:49Z</time>
      </trkpt>
      <trkpt lat="46.89908" lon="5.58745">
        <ele>232</ele>
        <time>2012-09-21T13:07:51Z</time>
      </trkpt>
      <trkpt lat="46.89904" lon="5.5873">
        <ele>232</ele>
        <time>2012-09-21T13:07:53Z</time>
      </trkpt>
      <trkpt lat="46.89899" lon="5.58714">
        <ele>232</ele>
        <time>2012-09-21T13:07:55Z</time>
      </trkpt>
      <trkpt lat="46.89893" lon="5.58698">
        <ele>232</ele>
        <time>2012-09-21T13:07:57Z</time>
      </trkpt>
      <trkpt lat="46.89888" lon="5.58683">
        <ele>232</ele>
        <time>2012-09-21T13:07:59Z</time>
      </trkpt>
      <trkpt lat="46.89883" lon="5.58667">
        <ele>232</ele>
        <time>2012-09-21T13:08:01Z</time>
      </trkpt>
      <trkpt lat="46.89877" lon="5.58652">
        <ele>232</ele>
        <time>2012-09-21T13:08:03Z</time>
      </trkpt>
      <trkpt lat="46.89871" lon="5.58635">
        <ele>232</ele>
        <time>2012-09-21T13:08:05Z</time>
      </trkpt>
      <trkpt lat="46.89866" lon="5.58619">
        <ele>232</ele>
        <time>2012-09-21T13:08:07Z</time>
      </trkpt>
      <trkpt lat="46.89861" lon="5.58604">
        <ele>232</ele>
        <time>2012-09-21T13:08:09Z</time>
      </trkpt>
      <trkpt lat="46.89856" lon="5.58589">
        <ele>232</ele>
        <time>2012-09-21T13:08:11Z</time>
      </trkpt>
      <trkpt lat="46.89851" lon="5.58574">
        <ele>232</ele>
        <time>2012-09-21T13:08:13Z</time>
      </trkpt>
      <trkpt lat="46.89847" lon="5.58561">
        <ele>232</ele>
        <time>2012-09-21T13:08:15Z</time>
      </trkpt>
      <trkpt lat="46.89842" lon="5.58547">
        <ele>232</ele>
        <time>2012-09-21T13:08:17Z</time>
      </trkpt>
      <trkpt lat="46.89837" lon="5.58534">
        <ele>232</ele>
        <time>2012-09-21T13:08:19Z</time>
      </trkpt>
      <trkpt lat="46.89833" lon="5.58521">
        <ele>232</ele>
        <time>2012-09-21T13:08:21Z</time>
      </trkpt>
      <trkpt lat="46.89829" lon="5.58508">
        <ele>232</ele>
        <time>2012-09-21T13:08:23Z</time>
      </trkpt>
      <trkpt lat="46.89824" lon="5.58495">
        <ele>232</ele>
        <time>2012-09-21T13:08:25Z</time>
      </trkpt>
      <trkpt lat="46.8982" lon="5.58483">
        <ele>232</ele>
        <time>2012-09-21T13:08:27Z</time>
      </trkpt>
      <trkpt lat="46.89816" lon="5.58469">
        <ele>232</ele>
        <time>2012-09-21T13:08:29Z</time>
      </trkpt>
      <trkpt lat="46.89811" lon="5.58457">
        <ele>232</ele>
        <time>2012-09-21T13:08:31Z</time>
      </trkpt>
      <trkpt lat="46.89806" lon="5.58444">
        <ele>232</ele>
        <time>2012-09-21T13:08:33Z</time>
      </trkpt>
      <trkpt lat="46.89802" lon="5.58431">
        <ele>232</ele>
        <time>2012-09-21T13:08:35Z</time>
      </trkpt>
      <trkpt lat="46.89798" lon="5.58419">
        <ele>232</ele>
        <time>2012-09-21T13:08:37Z</time>
      </trkpt>
      <trkpt lat="46.89794" lon="5.58406">
        <ele>232</ele>
        <time>2012-09-21T13:08:39Z</time>
      </trkpt>
      <trkpt lat="46.8979" lon="5.58395">
        <ele>232</ele>
        <time>2012-09-21T13:08:41Z</time>
      </trkpt>
      <trkpt lat="46.89786" lon="5.58383">
        <ele>232</ele>
        <time>2012-09-21T13:08:43Z</time>
      </trkpt>
      <trkpt lat="46.89781" lon="5.58371">
        <ele>238</ele>
        <time>2012-09-21T13:08:45Z</time>
      </trkpt>
      <trkpt lat="46.89777" lon="5.58359">
        <ele>238</ele>
        <time>2012-09-21T13:08:47Z</time>
      </trkpt>
      <trkpt lat="46.89772" lon="5.58346">
        <ele>238</ele>
        <time>2012-09-21T13:08:49Z</time>
      </trkpt>
      <trkpt lat="46.89768" lon="5.58333">
        <ele>238</ele>
        <time>2012-09-21T13:08:51Z</time>
      </trkpt>
      <trkpt lat="46.89763" lon="5.58319">
        <ele>238</ele>
        <time>2012-09-21T13:08:53Z</time>
      </trkpt>
      <trkpt lat="46.89758" lon="5.58304">
        <ele>238</ele>
        <time>2012-09-21T13:08:55Z</time>
      </trkpt>
      <trkpt lat="46.89752" lon="5.58289">
        <ele>238</ele>
        <time>2012-09-21T13:08:57Z</time>
      </trkpt>
      <trkpt lat="46.89747" lon="5.58272">
        <ele>238</ele>
        <time>2012-09-21T13:08:59Z</time>
      </trkpt>
      <trkpt lat="46.89741" lon="5.58254">
        <ele>238</ele>
        <time>2012-09-21T13:09:01Z</time>
      </trkpt>
      <trkpt lat="46.89734" lon="5.58235">
        <ele>238</ele>
        <time>2012-09-21T13:09:03Z</time>
      </trkpt>
      <trkpt lat="46.89728" lon="5.58216">
        <ele>238</ele>
        <time>2012-09-21T13:09:05Z</time>
      </trkpt>
      <trkpt lat="46.89722" lon="5.58196">
        <ele>238</ele>
        <time>2012-09-21T13:09:07Z</time>
      </trkpt>
      <trkpt lat="46.89715" lon="5.58175">
        <ele>238</ele>
        <time>2012-09-21T13:09:09Z</time>
      </trkpt>
      <trkpt lat="46.89707" lon="5.58154">
        <ele>238</ele>
        <time>2012-09-21T13:09:11Z</time>
      </trkpt>
      <trkpt lat="46.897" lon="5.58131">
        <ele>238</ele>
        <time>2012-09-21T13:09:13Z</time>
      </trkpt>
      <trkpt lat="46.89692" lon="5.58109">
        <ele>238</ele>
        <time>2012-09-21T13:09:15Z</time>
      </trkpt>
      <trkpt lat="46.89688" lon="5.58097">
        <ele>238</ele>
        <time>2012-09-21T13:09:16Z</time>
      </trkpt>
      <trkpt lat="46.89681" lon="5.58077">
        <ele>238</ele>
        <time>2012-09-21T13:09:18Z</time>
      </trkpt>
      <trkpt lat="46.89675" lon="5.58058">
        <ele>233</ele>
        <time>2012-09-21T13:09:20Z</time>
      </trkpt>
      <trkpt lat="46.89669" lon="5.58039">
        <ele>233</ele>
        <time>2012-09-21T13:09:22Z</time>
      </trkpt>
      <trkpt lat="46.89664" lon="5.58021">
        <ele>233</ele>
        <time>2012-09-21T13:09:24Z</time>
      </trkpt>
      <trkpt lat="46.89658" lon="5.58003">
        <ele>233</ele>
        <time>2012-09-21T13:09:26Z</time>
      </trkpt>
      <trkpt lat="46.89653" lon="5.57985">
        <ele>233</ele>
        <time>2012-09-21T13:09:28Z</time>
      </trkpt>
      <trkpt lat="46.89648" lon="5.57968">
        <ele>233</ele>
        <time>2012-09-21T13:09:30Z</time>
      </trkpt>
      <trkpt lat="46.89643" lon="5.5795">
        <ele>233</ele>
        <time>2012-09-21T13:09:32Z</time>
      </trkpt>
      <trkpt lat="46.89637" lon="5.57931">
        <ele>233</ele>
        <time>2012-09-21T13:09:34Z</time>
      </trkpt>
      <trkpt lat="46.89632" lon="5.57913">
        <ele>233</ele>
        <time>2012-09-21T13:09:36Z</time>
      </trkpt>
      <trkpt lat="46.89626" lon="5.57895">
        <ele>233</ele>
        <time>2012-09-21T13:09:38Z</time>
      </trkpt>
      <trkpt lat="46.89621" lon="5.57877">
        <ele>233</ele>
        <time>2012-09-21T13:09:40Z</time>
      </trkpt>
      <trkpt lat="46.89616" lon="5.57861">
        <ele>233</ele>
        <time>2012-09-21T13:09:42Z</time>
      </trkpt>
      <trkpt lat="46.89612" lon="5.57845">
        <ele>233</ele>
        <time>2012-09-21T13:09:44Z</time>
      </trkpt>
      <trkpt lat="46.89608" lon="5.5783">
        <ele>233</ele>
        <time>2012-09-21T13:09:46Z</time>
      </trkpt>
      <trkpt lat="46.89603" lon="5.57813">
        <ele>233</ele>
        <time>2012-09-21T13:09:48Z</time>
      </trkpt>
      <trkpt lat="46.89599" lon="5.57799">
        <ele>233</ele>
        <time>2012-09-21T13:09:50Z</time>
      </trkpt>
      <trkpt lat="46.89595" lon="5.57784">
        <ele>233</ele>
        <time>2012-09-21T13:09:52Z</time>
      </trkpt>
      <trkpt lat="46.89591" lon="5.57769">
        <ele>233</ele>
        <time>2012-09-21T13:09:54Z</time>
      </trkpt>
      <trkpt lat="46.89587" lon="5.57754">
        <ele>233</ele>
        <time>2012-09-21T13:09:56Z</time>
      </trkpt>
      <trkpt lat="46.89582" lon="5.57738">
        <ele>233</ele>
        <time>2012-09-21T13:09:58Z</time>
      </trkpt>
      <trkpt lat="46.89577" lon="5.57723">
        <ele>233</ele>
        <time>2012-09-21T13:10:00Z</time>
      </trkpt>
      <trkpt lat="46.89572" lon="5.57707">
        <ele>233</ele>
        <time>2012-09-21T13:10:02Z</time>
      </trkpt>
      <trkpt lat="46.89568" lon="5.57694">
        <ele>233</ele>
        <time>2012-09-21T13:10:04Z</time>
      </trkpt>
      <trkpt lat="46.89564" lon="5.5768">
        <ele>233</ele>
        <time>2012-09-21T13:10:06Z</time>
      </trkpt>
      <trkpt lat="46.89559" lon="5.57663">
        <ele>233</ele>
        <time>2012-09-21T13:10:09Z</time>
      </trkpt>
      <trkpt lat="46.89554" lon="5.57649">
        <ele>233</ele>
        <time>2012-09-21T13:10:12Z</time>
      </trkpt>
      <trkpt lat="46.89548" lon="5.57638">
        <ele>233</ele>
        <time>2012-09-21T13:10:15Z</time>
      </trkpt>
      <trkpt lat="46.89539" lon="5.57635">
        <ele>233</ele>
        <time>2012-09-21T13:10:18Z</time>
      </trkpt>
      <trkpt lat="46.89528" lon="5.57641">
        <ele>233</ele>
        <time>2012-09-21T13:10:21Z</time>
      </trkpt>
      <trkpt lat="46.89521" lon="5.57649">
        <ele>233</ele>
        <time>2012-09-21T13:10:23Z</time>
      </trkpt>
      <trkpt lat="46.89513" lon="5.57657">
        <ele>233</ele>
        <time>2012-09-21T13:10:25Z</time>
      </trkpt>
      <trkpt lat="46.89504" lon="5.57664">
        <ele>233</ele>
        <time>2012-09-21T13:10:27Z</time>
      </trkpt>
      <trkpt lat="46.89495" lon="5.57671">
        <ele>233</ele>
        <time>2012-09-21T13:10:29Z</time>
      </trkpt>
      <trkpt lat="46.89485" lon="5.57676">
        <ele>233</ele>
        <time>2012-09-21T13:10:31Z</time>
      </trkpt>
      <trkpt lat="46.89475" lon="5.5768">
        <ele>233</ele>
        <time>2012-09-21T13:10:33Z</time>
      </trkpt>
      <trkpt lat="46.89465" lon="5.57684">
        <ele>233</ele>
        <time>2012-09-21T13:10:35Z</time>
      </trkpt>
      <trkpt lat="46.89454" lon="5.57688">
        <ele>233</ele>
        <time>2012-09-21T13:10:37Z</time>
      </trkpt>
      <trkpt lat="46.89443" lon="5.57691">
        <ele>233</ele>
        <time>2012-09-21T13:10:39Z</time>
      </trkpt>
      <trkpt lat="46.89431" lon="5.57695">
        <ele>233</ele>
        <time>2012-09-21T13:10:41Z</time>
      </trkpt>
      <trkpt lat="46.8942" lon="5.57699">
        <ele>233</ele>
        <time>2012-09-21T13:10:43Z</time>
      </trkpt>
      <trkpt lat="46.89407" lon="5.57704">
        <ele>233</ele>
        <time>2012-09-21T13:10:45Z</time>
      </trkpt>
      <trkpt lat="46.89396" lon="5.57707">
        <ele>233</ele>
        <time>2012-09-21T13:10:47Z</time>
      </trkpt>
      <trkpt lat="46.89383" lon="5.5771">
        <ele>233</ele>
        <time>2012-09-21T13:10:49Z</time>
      </trkpt>
      <trkpt lat="46.89372" lon="5.57714">
        <ele>233</ele>
        <time>2012-09-21T13:10:51Z</time>
      </trkpt>
      <trkpt lat="46.8936" lon="5.57716">
        <ele>233</ele>
        <time>2012-09-21T13:10:53Z</time>
      </trkpt>
      <trkpt lat="46.89348" lon="5.57717">
        <ele>233</ele>
        <time>2012-09-21T13:10:55Z</time>
      </trkpt>
      <trkpt lat="46.89337" lon="5.57718">
        <ele>233</ele>
        <time>2012-09-21T13:10:57Z</time>
      </trkpt>
      <trkpt lat="46.89325" lon="5.57717">
        <ele>233</ele>
        <time>2012-09-21T13:10:59Z</time>
      </trkpt>
      <trkpt lat="46.89313" lon="5.57717">
        <ele>233</ele>
        <time>2012-09-21T13:11:01Z</time>
      </trkpt>
      <trkpt lat="46.89302" lon="5.57718">
        <ele>233</ele>
        <time>2012-09-21T13:11:03Z</time>
      </trkpt>
      <trkpt lat="46.89291" lon="5.57718">
        <ele>233</ele>
        <time>2012-09-21T13:11:05Z</time>
      </trkpt>
      <trkpt lat="46.8928" lon="5.57718">
        <ele>233</ele>
        <time>2012-09-21T13:11:07Z</time>
      </trkpt>
      <trkpt lat="46.8927" lon="5.57719">
        <ele>233</ele>
        <time>2012-09-21T13:11:09Z</time>
      </trkpt>
      <trkpt lat="46.89258" lon="5.57719">
        <ele>233</ele>
        <time>2012-09-21T13:11:11Z</time>
      </trkpt>
      <trkpt lat="46.89247" lon="5.57719">
        <ele>233</ele>
        <time>2012-09-21T13:11:13Z</time>
      </trkpt>
      <trkpt lat="46.89236" lon="5.5772">
        <ele>233</ele>
        <time>2012-09-21T13:11:15Z</time>
      </trkpt>
      <trkpt lat="46.89226" lon="5.5772">
        <ele>233</ele>
        <time>2012-09-21T13:11:17Z</time>
      </trkpt>
      <trkpt lat="46.89215" lon="5.5772">
        <ele>233</ele>
        <time>2012-09-21T13:11:19Z</time>
      </trkpt>
      <trkpt lat="46.89204" lon="5.57721">
        <ele>233</ele>
        <time>2012-09-21T13:11:21Z</time>
      </trkpt>
      <trkpt lat="46.89193" lon="5.57721">
        <ele>233</ele>
        <time>2012-09-21T13:11:23Z</time>
      </trkpt>
      <trkpt lat="46.89181" lon="5.57721">
        <ele>233</ele>
        <time>2012-09-21T13:11:25Z</time>
      </trkpt>
      <trkpt lat="46.89171" lon="5.57721">
        <ele>233</ele>
        <time>2012-09-21T13:11:27Z</time>
      </trkpt>
      <trkpt lat="46.8916" lon="5.57722">
        <ele>233</ele>
        <time>2012-09-21T13:11:29Z</time>
      </trkpt>
      <trkpt lat="46.89149" lon="5.57722">
        <ele>233</ele>
        <time>2012-09-21T13:11:31Z</time>
      </trkpt>
      <trkpt lat="46.89137" lon="5.57722">
        <ele>233</ele>
        <time>2012-09-21T13:11:33Z</time>
      </trkpt>
      <trkpt lat="46.89126" lon="5.57723">
        <ele>233</ele>
        <time>2012-09-21T13:11:35Z</time>
      </trkpt>
      <trkpt lat="46.89114" lon="5.57724">
        <ele>233</ele>
        <time>2012-09-21T13:11:37Z</time>
      </trkpt>
      <trkpt lat="46.89103" lon="5.57724">
        <ele>233</ele>
        <time>2012-09-21T13:11:39Z</time>
      </trkpt>
      <trkpt lat="46.89092" lon="5.57724">
        <ele>233</ele>
        <time>2012-09-21T13:11:41Z</time>
      </trkpt>
      <trkpt lat="46.8908" lon="5.57724">
        <ele>233</ele>
        <time>2012-09-21T13:11:43Z</time>
      </trkpt>
      <trkpt lat="46.89069" lon="5.57724">
        <ele>233</ele>
        <time>2012-09-21T13:11:45Z</time>
      </trkpt>
      <trkpt lat="46.89058" lon="5.57724">
        <ele>233</ele>
        <time>2012-09-21T13:11:47Z</time>
      </trkpt>
      <trkpt lat="46.89048" lon="5.57725">
        <ele>233</ele>
        <time>2012-09-21T13:11:49Z</time>
      </trkpt>
      <trkpt lat="46.89037" lon="5.57725">
        <ele>233</ele>
        <time>2012-09-21T13:11:51Z</time>
      </trkpt>
      <trkpt lat="46.89026" lon="5.57725">
        <ele>233</ele>
        <time>2012-09-21T13:11:53Z</time>
      </trkpt>
      <trkpt lat="46.89014" lon="5.57725">
        <ele>233</ele>
        <time>2012-09-21T13:11:55Z</time>
      </trkpt>
      <trkpt lat="46.89003" lon="5.57724">
        <ele>233</ele>
        <time>2012-09-21T13:11:57Z</time>
      </trkpt>
      <trkpt lat="46.88992" lon="5.57724">
        <ele>233</ele>
        <time>2012-09-21T13:11:59Z</time>
      </trkpt>
      <trkpt lat="46.8898" lon="5.57724">
        <ele>233</ele>
        <time>2012-09-21T13:12:01Z</time>
      </trkpt>
      <trkpt lat="46.88969" lon="5.57723">
        <ele>233</ele>
        <time>2012-09-21T13:12:03Z</time>
      </trkpt>
      <trkpt lat="46.88958" lon="5.57721">
        <ele>233</ele>
        <time>2012-09-21T13:12:05Z</time>
      </trkpt>
      <trkpt lat="46.88947" lon="5.5772">
        <ele>233</ele>
        <time>2012-09-21T13:12:07Z</time>
      </trkpt>
      <trkpt lat="46.88936" lon="5.57718">
        <ele>233</ele>
        <time>2012-09-21T13:12:09Z</time>
      </trkpt>
      <trkpt lat="46.88925" lon="5.57716">
        <ele>233</ele>
        <time>2012-09-21T13:12:11Z</time>
      </trkpt>
      <trkpt lat="46.88915" lon="5.57714">
        <ele>233</ele>
        <time>2012-09-21T13:12:13Z</time>
      </trkpt>
      <trkpt lat="46.88904" lon="5.57712">
        <ele>233</ele>
        <time>2012-09-21T13:12:15Z</time>
      </trkpt>
      <trkpt lat="46.88893" lon="5.57709">
        <ele>233</ele>
        <time>2012-09-21T13:12:17Z</time>
      </trkpt>
      <trkpt lat="46.88883" lon="5.57707">
        <ele>233</ele>
        <time>2012-09-21T13:12:19Z</time>
      </trkpt>
      <trkpt lat="46.88872" lon="5.57705">
        <ele>233</ele>
        <time>2012-09-21T13:12:21Z</time>
      </trkpt>
      <trkpt lat="46.88861" lon="5.57702">
        <ele>233</ele>
        <time>2012-09-21T13:12:23Z</time>
      </trkpt>
      <trkpt lat="46.8885" lon="5.57698">
        <ele>233</ele>
        <time>2012-09-21T13:12:25Z</time>
      </trkpt>
      <trkpt lat="46.88838" lon="5.57695">
        <ele>233</ele>
        <time>2012-09-21T13:12:27Z</time>
      </trkpt>
      <trkpt lat="46.88826" lon="5.57691">
        <ele>233</ele>
        <time>2012-09-21T13:12:29Z</time>
      </trkpt>
      <trkpt lat="46.88816" lon="5.57688">
        <ele>233</ele>
        <time>2012-09-21T13:12:31Z</time>
      </trkpt>
      <trkpt lat="46.88804" lon="5.57683">
        <ele>233</ele>
        <time>2012-09-21T13:12:33Z</time>
      </trkpt>
      <trkpt lat="46.88793" lon="5.5768">
        <ele>233</ele>
        <time>2012-09-21T13:12:35Z</time>
      </trkpt>
      <trkpt lat="46.88782" lon="5.57675">
        <ele>233</ele>
        <time>2012-09-21T13:12:37Z</time>
      </trkpt>
      <trkpt lat="46.88771" lon="5.57671">
        <ele>233</ele>
        <time>2012-09-21T13:12:39Z</time>
      </trkpt>
      <trkpt lat="46.8876" lon="5.57669">
        <ele>233</ele>
        <time>2012-09-21T13:12:41Z</time>
      </trkpt>
      <trkpt lat="46.88749" lon="5.57664">
        <ele>233</ele>
        <time>2012-09-21T13:12:43Z</time>
      </trkpt>
      <trkpt lat="46.88739" lon="5.5766">
        <ele>233</ele>
        <time>2012-09-21T13:12:45Z</time>
      </trkpt>
      <trkpt lat="46.88728" lon="5.57656">
        <ele>233</ele>
        <time>2012-09-21T13:12:47Z</time>
      </trkpt>
      <trkpt lat="46.88717" lon="5.57653">
        <ele>233</ele>
        <time>2012-09-21T13:12:49Z</time>
      </trkpt>
      <trkpt lat="46.88707" lon="5.57648">
        <ele>233</ele>
        <time>2012-09-21T13:12:51Z</time>
      </trkpt>
      <trkpt lat="46.88696" lon="5.57645">
        <ele>233</ele>
        <time>2012-09-21T13:12:53Z</time>
      </trkpt>
      <trkpt lat="46.88686" lon="5.57641">
        <ele>233</ele>
        <time>2012-09-21T13:12:55Z</time>
      </trkpt>
      <trkpt lat="46.88675" lon="5.57637">
        <ele>233</ele>
        <time>2012-09-21T13:12:57Z</time>
      </trkpt>
      <trkpt lat="46.88665" lon="5.57634">
        <ele>233</ele>
        <time>2012-09-21T13:12:59Z</time>
      </trkpt>
      <trkpt lat="46.88656" lon="5.57631">
        <ele>233</ele>
        <time>2012-09-21T13:13:01Z</time>
      </trkpt>
      <trkpt lat="46.88645" lon="5.57627">
        <ele>233</ele>
        <time>2012-09-21T13:13:03Z</time>
      </trkpt>
      <trkpt lat="46.88635" lon="5.57624">
        <ele>233</ele>
        <time>2012-09-21T13:13:05Z</time>
      </trkpt>
      <trkpt lat="46.88623" lon="5.57618">
        <ele>233</ele>
        <time>2012-09-21T13:13:07Z</time>
      </trkpt>
      <trkpt lat="46.88612" lon="5.57615">
        <ele>233</ele>
        <time>2012-09-21T13:13:09Z</time>
      </trkpt>
      <trkpt lat="46.88601" lon="5.57611">
        <ele>233</ele>
        <time>2012-09-21T13:13:11Z</time>
      </trkpt>
      <trkpt lat="46.8859" lon="5.57608">
        <ele>233</ele>
        <time>2012-09-21T13:13:13Z</time>
      </trkpt>
      <trkpt lat="46.88578" lon="5.57606">
        <ele>233</ele>
        <time>2012-09-21T13:13:15Z</time>
      </trkpt>
      <trkpt lat="46.88567" lon="5.57604">
        <ele>233</ele>
        <time>2012-09-21T13:13:17Z</time>
      </trkpt>
      <trkpt lat="46.88555" lon="5.57602">
        <ele>233</ele>
        <time>2012-09-21T13:13:19Z</time>
      </trkpt>
      <trkpt lat="46.88544" lon="5.57601">
        <ele>233</ele>
        <time>2012-09-21T13:13:21Z</time>
      </trkpt>
      <trkpt lat="46.88533" lon="5.57599">
        <ele>233</ele>
        <time>2012-09-21T13:13:23Z</time>
      </trkpt>
      <trkpt lat="46.88522" lon="5.57596">
        <ele>233</ele>
        <time>2012-09-21T13:13:25Z</time>
      </trkpt>
      <trkpt lat="46.88512" lon="5.57593">
        <ele>233</ele>
        <time>2012-09-21T13:13:27Z</time>
      </trkpt>
      <trkpt lat="46.88503" lon="5.5759">
        <ele>233</ele>
        <time>2012-09-21T13:13:29Z</time>
      </trkpt>
      <trkpt lat="46.88494" lon="5.57584">
        <ele>233</ele>
        <time>2012-09-21T13:13:32Z</time>
      </trkpt>
      <trkpt lat="46.88482" lon="5.57585">
        <ele>233</ele>
        <time>2012-09-21T13:13:35Z</time>
      </trkpt>
      <trkpt lat="46.8847" lon="5.57584">
        <ele>233</ele>
        <time>2012-09-21T13:13:38Z</time>
      </trkpt>
      <trkpt lat="46.8846" lon="5.57581">
        <ele>233</ele>
        <time>2012-09-21T13:13:40Z</time>
      </trkpt>
      <trkpt lat="46.8845" lon="5.57575">
        <ele>233</ele>
        <time>2012-09-21T13:13:42Z</time>
      </trkpt>
      <trkpt lat="46.88441" lon="5.5757">
        <ele>233</ele>
        <time>2012-09-21T13:13:44Z</time>
      </trkpt>
      <trkpt lat="46.88432" lon="5.57565">
        <ele>233</ele>
        <time>2012-09-21T13:13:46Z</time>
      </trkpt>
      <trkpt lat="46.88421" lon="5.57557">
        <ele>233</ele>
        <time>2012-09-21T13:13:49Z</time>
      </trkpt>
      <trkpt lat="46.88409" lon="5.57549">
        <ele>233</ele>
        <time>2012-09-21T13:13:52Z</time>
      </trkpt>
      <trkpt lat="46.88399" lon="5.57543">
        <ele>233</ele>
        <time>2012-09-21T13:13:54Z</time>
      </trkpt>
      <trkpt lat="46.88391" lon="5.57537">
        <ele>233</ele>
        <time>2012-09-21T13:13:56Z</time>
      </trkpt>
      <trkpt lat="46.88381" lon="5.57529">
        <ele>239</ele>
        <time>2012-09-21T13:13:59Z</time>
      </trkpt>
      <trkpt lat="46.88373" lon="5.57522">
        <ele>239</ele>
        <time>2012-09-21T13:14:01Z</time>
      </trkpt>
      <trkpt lat="46.88364" lon="5.57518">
        <ele>239</ele>
        <time>2012-09-21T13:14:03Z</time>
      </trkpt>
      <trkpt lat="46.88352" lon="5.57514">
        <ele>239</ele>
        <time>2012-09-21T13:14:06Z</time>
      </trkpt>
      <trkpt lat="46.88343" lon="5.57512">
        <ele>239</ele>
        <time>2012-09-21T13:14:09Z</time>
      </trkpt>
      <trkpt lat="46.88346" lon="5.57497">
        <ele>239</ele>
        <time>2012-09-21T13:14:17Z</time>
      </trkpt>
      <trkpt lat="46.88356" lon="5.57491">
        <ele>239</ele>
        <time>2012-09-21T13:14:20Z</time>
      </trkpt>
      <trkpt lat="46.88369" lon="5.57484">
        <ele>239</ele>
        <time>2012-09-21T13:14:23Z</time>
      </trkpt>
      <trkpt lat="46.88379" lon="5.57478">
        <ele>239</ele>
        <time>2012-09-21T13:14:25Z</time>
      </trkpt>
      <trkpt lat="46.88388" lon="5.57474">
        <ele>239</ele>
        <time>2012-09-21T13:14:27Z</time>
      </trkpt>
      <trkpt lat="46.88397" lon="5.57468">
        <ele>239</ele>
        <time>2012-09-21T13:14:29Z</time>
      </trkpt>
      <trkpt lat="46.88407" lon="5.57461">
        <ele>239</ele>
        <time>2012-09-21T13:14:31Z</time>
      </trkpt>
      <trkpt lat="46.88416" lon="5.57455">
        <ele>239</ele>
        <time>2012-09-21T13:14:33Z</time>
      </trkpt>
      <trkpt lat="46.88426" lon="5.5745">
        <ele>239</ele>
        <time>2012-09-21T13:14:35Z</time>
      </trkpt>
      <trkpt lat="46.88436" lon="5.57442">
        <ele>239</ele>
        <time>2012-09-21T13:14:37Z</time>
      </trkpt>
      <trkpt lat="46.88445" lon="5.57434">
        <ele>239</ele>
        <time>2012-09-21T13:14:39Z</time>
      </trkpt>
      <trkpt lat="46.88455" lon="5.57427">
        <ele>239</ele>
        <time>2012-09-21T13:14:41Z</time>
      </trkpt>
      <trkpt lat="46.88465" lon="5.57419">
        <ele>239</ele>
        <time>2012-09-21T13:14:43Z</time>
      </trkpt>
      <trkpt lat="46.88474" lon="5.57412">
        <ele>239</ele>
        <time>2012-09-21T13:14:45Z</time>
      </trkpt>
      <trkpt lat="46.88484" lon="5.57403">
        <ele>239</ele>
        <time>2012-09-21T13:14:47Z</time>
      </trkpt>
      <trkpt lat="46.88492" lon="5.57395">
        <ele>239</ele>
        <time>2012-09-21T13:14:49Z</time>
      </trkpt>
      <trkpt lat="46.88502" lon="5.57386">
        <ele>239</ele>
        <time>2012-09-21T13:14:51Z</time>
      </trkpt>
      <trkpt lat="46.8851" lon="5.57377">
        <ele>239</ele>
        <time>2012-09-21T13:14:53Z</time>
      </trkpt>
      <trkpt lat="46.88518" lon="5.57368">
        <ele>239</ele>
        <time>2012-09-21T13:14:55Z</time>
      </trkpt>
      <trkpt lat="46.88526" lon="5.5736">
        <ele>239</ele>
        <time>2012-09-21T13:14:57Z</time>
      </trkpt>
      <trkpt lat="46.88533" lon="5.57352">
        <ele>239</ele>
        <time>2012-09-21T13:14:59Z</time>
      </trkpt>
      <trkpt lat="46.88543" lon="5.5734">
        <ele>239</ele>
        <time>2012-09-21T13:15:02Z</time>
      </trkpt>
      <trkpt lat="46.88553" lon="5.57328">
        <ele>239</ele>
        <time>2012-09-21T13:15:05Z</time>
      </trkpt>
      <trkpt lat="46.88564" lon="5.57318">
        <ele>239</ele>
        <time>2012-09-21T13:15:08Z</time>
      </trkpt>
      <trkpt lat="46.88574" lon="5.57307">
        <ele>239</ele>
        <time>2012-09-21T13:15:11Z</time>
      </trkpt>
      <trkpt lat="46.88584" lon="5.57296">
        <ele>239</ele>
        <time>2012-09-21T13:15:14Z</time>
      </trkpt>
      <trkpt lat="46.88595" lon="5.57285">
        <ele>239</ele>
        <time>2012-09-21T13:15:17Z</time>
      </trkpt>
      <trkpt lat="46.88605" lon="5.57275">
        <ele>239</ele>
        <time>2012-09-21T13:15:20Z</time>
      </trkpt>
      <trkpt lat="46.88613" lon="5.57268">
        <ele>239</ele>
        <time>2012-09-21T13:15:22Z</time>
      </trkpt>
      <trkpt lat="46.88621" lon="5.5726">
        <ele>239</ele>
        <time>2012-09-21T13:15:24Z</time>
      </trkpt>
      <trkpt lat="46.88629" lon="5.57253">
        <ele>239</ele>
        <time>2012-09-21T13:15:26Z</time>
      </trkpt>
      <trkpt lat="46.88638" lon="5.57245">
        <ele>239</ele>
        <time>2012-09-21T13:15:28Z</time>
      </trkpt>
      <trkpt lat="46.88646" lon="5.57238">
        <ele>239</ele>
        <time>2012-09-21T13:15:30Z</time>
      </trkpt>
      <trkpt lat="46.88654" lon="5.57231">
        <ele>239</ele>
        <time>2012-09-21T13:15:32Z</time>
      </trkpt>
      <trkpt lat="46.88662" lon="5.57224">
        <ele>239</ele>
        <time>2012-09-21T13:15:34Z</time>
      </trkpt>
      <trkpt lat="46.8867" lon="5.57217">
        <ele>239</ele>
        <time>2012-09-21T13:15:36Z</time>
      </trkpt>
      <trkpt lat="46.88679" lon="5.5721">
        <ele>239</ele>
        <time>2012-09-21T13:15:38Z</time>
      </trkpt>
      <trkpt lat="46.88688" lon="5.57203">
        <ele>239</ele>
        <time>2012-09-21T13:15:40Z</time>
      </trkpt>
      <trkpt lat="46.88697" lon="5.57194">
        <ele>239</ele>
        <time>2012-09-21T13:15:42Z</time>
      </trkpt>
      <trkpt lat="46.88707" lon="5.57185">
        <ele>239</ele>
        <time>2012-09-21T13:15:44Z</time>
      </trkpt>
      <trkpt lat="46.88718" lon="5.57177">
        <ele>239</ele>
        <time>2012-09-21T13:15:46Z</time>
      </trkpt>
      <trkpt lat="46.88729" lon="5.57168">
        <ele>239</ele>
        <time>2012-09-21T13:15:48Z</time>
      </trkpt>
      <trkpt lat="46.8874" lon="5.57158">
        <ele>239</ele>
        <time>2012-09-21T13:15:50Z</time>
      </trkpt>
      <trkpt lat="46.88752" lon="5.57149">
        <ele>239</ele>
        <time>2012-09-21T13:15:52Z</time>
      </trkpt>
      <trkpt lat="46.88764" lon="5.57139">
        <ele>234</ele>
        <time>2012-09-21T13:15:54Z</time>
      </trkpt>
      <trkpt lat="46.88776" lon="5.57128">
        <ele>234</ele>
        <time>2012-09-21T13:15:56Z</time>
      </trkpt>
      <trkpt lat="46.88787" lon="5.57118">
        <ele>234</ele>
        <time>2012-09-21T13:15:58Z</time>
      </trkpt>
      <trkpt lat="46.88798" lon="5.57108">
        <ele>234</ele>
        <time>2012-09-21T13:16:00Z</time>
      </trkpt>
      <trkpt lat="46.88809" lon="5.57098">
        <ele>234</ele>
        <time>2012-09-21T13:16:02Z</time>
      </trkpt>
      <trkpt lat="46.88822" lon="5.57089">
        <ele>234</ele>
        <time>2012-09-21T13:16:04Z</time>
      </trkpt>
      <trkpt lat="46.88834" lon="5.57079">
        <ele>234</ele>
        <time>2012-09-21T13:16:06Z</time>
      </trkpt>
      <trkpt lat="46.88845" lon="5.5707">
        <ele>234</ele>
        <time>2012-09-21T13:16:08Z</time>
      </trkpt>
      <trkpt lat="46.88857" lon="5.5706">
        <ele>234</ele>
        <time>2012-09-21T13:16:10Z</time>
      </trkpt>
      <trkpt lat="46.88869" lon="5.57049">
        <ele>234</ele>
        <time>2012-09-21T13:16:12Z</time>
      </trkpt>
      <trkpt lat="46.88881" lon="5.57039">
        <ele>234</ele>
        <time>2012-09-21T13:16:14Z</time>
      </trkpt>
      <trkpt lat="46.88893" lon="5.57029">
        <ele>234</ele>
        <time>2012-09-21T13:16:16Z</time>
      </trkpt>
      <trkpt lat="46.88905" lon="5.57018">
        <ele>234</ele>
        <time>2012-09-21T13:16:18Z</time>
      </trkpt>
      <trkpt lat="46.88917" lon="5.57008">
        <ele>234</ele>
        <time>2012-09-21T13:16:20Z</time>
      </trkpt>
      <trkpt lat="46.8893" lon="5.56997">
        <ele>234</ele>
        <time>2012-09-21T13:16:22Z</time>
      </trkpt>
      <trkpt lat="46.88943" lon="5.56986">
        <ele>234</ele>
        <time>2012-09-21T13:16:24Z</time>
      </trkpt>
      <trkpt lat="46.88957" lon="5.56974">
        <ele>234</ele>
        <time>2012-09-21T13:16:26Z</time>
      </trkpt>
      <trkpt lat="46.8897" lon="5.56963">
        <ele>234</ele>
        <time>2012-09-21T13:16:28Z</time>
      </trkpt>
      <trkpt lat="46.88983" lon="5.56951">
        <ele>234</ele>
        <time>2012-09-21T13:16:30Z</time>
      </trkpt>
      <trkpt lat="46.88997" lon="5.56939">
        <ele>234</ele>
        <time>2012-09-21T13:16:32Z</time>
      </trkpt>
      <trkpt lat="46.8901" lon="5.56929">
        <ele>234</ele>
        <time>2012-09-21T13:16:34Z</time>
      </trkpt>
      <trkpt lat="46.89023" lon="5.56917">
        <ele>234</ele>
        <time>2012-09-21T13:16:36Z</time>
      </trkpt>
      <trkpt lat="46.89037" lon="5.56905">
        <ele>234</ele>
        <time>2012-09-21T13:16:38Z</time>
      </trkpt>
      <trkpt lat="46.8905" lon="5.56894">
        <ele>234</ele>
        <time>2012-09-21T13:16:40Z</time>
      </trkpt>
      <trkpt lat="46.89063" lon="5.56883">
        <ele>234</ele>
        <time>2012-09-21T13:16:42Z</time>
      </trkpt>
      <trkpt lat="46.89077" lon="5.56871">
        <ele>234</ele>
        <time>2012-09-21T13:16:44Z</time>
      </trkpt>
      <trkpt lat="46.8909" lon="5.56859">
        <ele>234</ele>
        <time>2012-09-21T13:16:46Z</time>
      </trkpt>
      <trkpt lat="46.89103" lon="5.56848">
        <ele>234</ele>
        <time>2012-09-21T13:16:48Z</time>
      </trkpt>
      <trkpt lat="46.89117" lon="5.56837">
        <ele>234</ele>
        <time>2012-09-21T13:16:50Z</time>
      </trkpt>
      <trkpt lat="46.8913" lon="5.56825">
        <ele>234</ele>
        <time>2012-09-21T13:16:52Z</time>
      </trkpt>
      <trkpt lat="46.89143" lon="5.56814">
        <ele>234</ele>
        <time>2012-09-21T13:16:54Z</time>
      </trkpt>
      <trkpt lat="46.89156" lon="5.56804">
        <ele>234</ele>
        <time>2012-09-21T13:16:56Z</time>
      </trkpt>
      <trkpt lat="46.89169" lon="5.56793">
        <ele>234</ele>
        <time>2012-09-21T13:16:58Z</time>
      </trkpt>
      <trkpt lat="46.89181" lon="5.56783">
        <ele>234</ele>
        <time>2012-09-21T13:17:00Z</time>
      </trkpt>
      <trkpt lat="46.89193" lon="5.56773">
        <ele>234</ele>
        <time>2012-09-21T13:17:02Z</time>
      </trkpt>
      <trkpt lat="46.89204" lon="5.56763">
        <ele>234</ele>
        <time>2012-09-21T13:17:04Z</time>
      </trkpt>
      <trkpt lat="46.89215" lon="5.56753">
        <ele>234</ele>
        <time>2012-09-21T13:17:06Z</time>
      </trkpt>
      <trkpt lat="46.89228" lon="5.56744">
        <ele>234</ele>
        <time>2012-09-21T13:17:08Z</time>
      </trkpt>
      <trkpt lat="46.8924" lon="5.56735">
        <ele>234</ele>
        <time>2012-09-21T13:17:10Z</time>
      </trkpt>
      <trkpt lat="46.89254" lon="5.56726">
        <ele>234</ele>
        <time>2012-09-21T13:17:12Z</time>
      </trkpt>
      <trkpt lat="46.89267" lon="5.56719">
        <ele>234</ele>
        <time>2012-09-21T13:17:14Z</time>
      </trkpt>
      <trkpt lat="46.89281" lon="5.56712">
        <ele>234</ele>
        <time>2012-09-21T13:17:16Z</time>
      </trkpt>
      <trkpt lat="46.89295" lon="5.56705">
        <ele>234</ele>
        <time>2012-09-21T13:17:18Z</time>
      </trkpt>
      <trkpt lat="46.89309" lon="5.56697">
        <ele>234</ele>
        <time>2012-09-21T13:17:20Z</time>
      </trkpt>
      <trkpt lat="46.89322" lon="5.56689">
        <ele>234</ele>
        <time>2012-09-21T13:17:22Z</time>
      </trkpt>
      <trkpt lat="46.89335" lon="5.5668">
        <ele>234</ele>
        <time>2012-09-21T13:17:24Z</time>
      </trkpt>
      <trkpt lat="46.89346" lon="5.56671">
        <ele>234</ele>
        <time>2012-09-21T13:17:26Z</time>
      </trkpt>
      <trkpt lat="46.89356" lon="5.56664">
        <ele>234</ele>
        <time>2012-09-21T13:17:28Z</time>
      </trkpt>
      <trkpt lat="46.89369" lon="5.56662">
        <ele>234</ele>
        <time>2012-09-21T13:17:31Z</time>
      </trkpt>
      <trkpt lat="46.89379" lon="5.56663">
        <ele>234</ele>
        <time>2012-09-21T13:17:34Z</time>
      </trkpt>
      <trkpt lat="46.89388" lon="5.56656">
        <ele>234</ele>
        <time>2012-09-21T13:17:37Z</time>
      </trkpt>
      <trkpt lat="46.89391" lon="5.56643">
        <ele>234</ele>
        <time>2012-09-21T13:17:39Z</time>
      </trkpt>
      <trkpt lat="46.89395" lon="5.56629">
        <ele>234</ele>
        <time>2012-09-21T13:17:41Z</time>
      </trkpt>
      <trkpt lat="46.89401" lon="5.56614">
        <ele>234</ele>
        <time>2012-09-21T13:17:43Z</time>
      </trkpt>
      <trkpt lat="46.89408" lon="5.566">
        <ele>234</ele>
        <time>2012-09-21T13:17:45Z</time>
      </trkpt>
      <trkpt lat="46.89415" lon="5.56586">
        <ele>234</ele>
        <time>2012-09-21T13:17:47Z</time>
      </trkpt>
      <trkpt lat="46.89423" lon="5.56572">
        <ele>234</ele>
        <time>2012-09-21T13:17:49Z</time>
      </trkpt>
      <trkpt lat="46.89431" lon="5.56558">
        <ele>234</ele>
        <time>2012-09-21T13:17:51Z</time>
      </trkpt>
      <trkpt lat="46.89439" lon="5.56544">
        <ele>234</ele>
        <time>2012-09-21T13:17:53Z</time>
      </trkpt>
      <trkpt lat="46.89448" lon="5.5653">
        <ele>234</ele>
        <time>2012-09-21T13:17:55Z</time>
      </trkpt>
      <trkpt lat="46.89457" lon="5.56514">
        <ele>234</ele>
        <time>2012-09-21T13:17:57Z</time>
      </trkpt>
      <trkpt lat="46.89465" lon="5.56499">
        <ele>234</ele>
        <time>2012-09-21T13:17:59Z</time>
      </trkpt>
      <trkpt lat="46.89472" lon="5.56485">
        <ele>234</ele>
        <time>2012-09-21T13:18:01Z</time>
      </trkpt>
      <trkpt lat="46.8948" lon="5.5647">
        <ele>234</ele>
        <time>2012-09-21T13:18:03Z</time>
      </trkpt>
      <trkpt lat="46.89488" lon="5.56456">
        <ele>234</ele>
        <time>2012-09-21T13:18:05Z</time>
      </trkpt>
      <trkpt lat="46.89496" lon="5.56443">
        <ele>234</ele>
        <time>2012-09-21T13:18:07Z</time>
      </trkpt>
      <trkpt lat="46.89504" lon="5.56428">
        <ele>234</ele>
        <time>2012-09-21T13:18:09Z</time>
      </trkpt>
      <trkpt lat="46.89512" lon="5.56415">
        <ele>234</ele>
        <time>2012-09-21T13:18:11Z</time>
      </trkpt>
      <trkpt lat="46.89519" lon="5.564">
        <ele>234</ele>
        <time>2012-09-21T13:18:13Z</time>
      </trkpt>
      <trkpt lat="46.89527" lon="5.56387">
        <ele>234</ele>
        <time>2012-09-21T13:18:15Z</time>
      </trkpt>
      <trkpt lat="46.89534" lon="5.56374">
        <ele>234</ele>
        <time>2012-09-21T13:18:17Z</time>
      </trkpt>
      <trkpt lat="46.89542" lon="5.56361">
        <ele>234</ele>
        <time>2012-09-21T13:18:19Z</time>
      </trkpt>
      <trkpt lat="46.89549" lon="5.56348">
        <ele>234</ele>
        <time>2012-09-21T13:18:21Z</time>
      </trkpt>
      <trkpt lat="46.89556" lon="5.56335">
        <ele>234</ele>
        <time>2012-09-21T13:18:23Z</time>
      </trkpt>
      <trkpt lat="46.89563" lon="5.56322">
        <ele>234</ele>
        <time>2012-09-21T13:18:25Z</time>
      </trkpt>
      <trkpt lat="46.89569" lon="5.5631">
        <ele>234</ele>
        <time>2012-09-21T13:18:27Z</time>
      </trkpt>
      <trkpt lat="46.89575" lon="5.56298">
        <ele>234</ele>
        <time>2012-09-21T13:18:29Z</time>
      </trkpt>
      <trkpt lat="46.89574" lon="5.5628">
        <ele>234</ele>
        <time>2012-09-21T13:18:32Z</time>
      </trkpt>
      <trkpt lat="46.89568" lon="5.5627">
        <ele>239</ele>
        <time>2012-09-21T13:18:34Z</time>
      </trkpt>
      <trkpt lat="46.89559" lon="5.5626">
        <ele>239</ele>
        <time>2012-09-21T13:18:36Z</time>
      </trkpt>
      <trkpt lat="46.89549" lon="5.5625">
        <ele>239</ele>
        <time>2012-09-21T13:18:38Z</time>
      </trkpt>
      <trkpt lat="46.8954" lon="5.5624">
        <ele>239</ele>
        <time>2012-09-21T13:18:40Z</time>
      </trkpt>
      <trkpt lat="46.89531" lon="5.56229">
        <ele>239</ele>
        <time>2012-09-21T13:18:42Z</time>
      </trkpt>
      <trkpt lat="46.89522" lon="5.56218">
        <ele>239</ele>
        <time>2012-09-21T13:18:44Z</time>
      </trkpt>
      <trkpt lat="46.89513" lon="5.56207">
        <ele>239</ele>
        <time>2012-09-21T13:18:46Z</time>
      </trkpt>
      <trkpt lat="46.89504" lon="5.56196">
        <ele>239</ele>
        <time>2012-09-21T13:18:48Z</time>
      </trkpt>
      <trkpt lat="46.89494" lon="5.56185">
        <ele>239</ele>
        <time>2012-09-21T13:18:50Z</time>
      </trkpt>
      <trkpt lat="46.89486" lon="5.56172">
        <ele>239</ele>
        <time>2012-09-21T13:18:52Z</time>
      </trkpt>
      <trkpt lat="46.89476" lon="5.56161">
        <ele>239</ele>
        <time>2012-09-21T13:18:54Z</time>
      </trkpt>
      <trkpt lat="46.89468" lon="5.56148">
        <ele>239</ele>
        <time>2012-09-21T13:18:56Z</time>
      </trkpt>
      <trkpt lat="46.89459" lon="5.56134">
        <ele>239</ele>
        <time>2012-09-21T13:18:58Z</time>
      </trkpt>
      <trkpt lat="46.8945" lon="5.56123">
        <ele>239</ele>
        <time>2012-09-21T13:19:00Z</time>
      </trkpt>
      <trkpt lat="46.89441" lon="5.5611">
        <ele>239</ele>
        <time>2012-09-21T13:19:02Z</time>
      </trkpt>
      <trkpt lat="46.89433" lon="5.56098">
        <ele>239</ele>
        <time>2012-09-21T13:19:04Z</time>
      </trkpt>
      <trkpt lat="46.89425" lon="5.56085">
        <ele>239</ele>
        <time>2012-09-21T13:19:06Z</time>
      </trkpt>
      <trkpt lat="46.89416" lon="5.56073">
        <ele>239</ele>
        <time>2012-09-21T13:19:08Z</time>
      </trkpt>
      <trkpt lat="46.89407" lon="5.56062">
        <ele>239</ele>
        <time>2012-09-21T13:19:10Z</time>
      </trkpt>
      <trkpt lat="46.89399" lon="5.5605">
        <ele>239</ele>
        <time>2012-09-21T13:19:12Z</time>
      </trkpt>
      <trkpt lat="46.89391" lon="5.56038">
        <ele>239</ele>
        <time>2012-09-21T13:19:14Z</time>
      </trkpt>
      <trkpt lat="46.89383" lon="5.56028">
        <ele>239</ele>
        <time>2012-09-21T13:19:16Z</time>
      </trkpt>
      <trkpt lat="46.89375" lon="5.56016">
        <ele>239</ele>
        <time>2012-09-21T13:19:18Z</time>
      </trkpt>
      <trkpt lat="46.89366" lon="5.56004">
        <ele>239</ele>
        <time>2012-09-21T13:19:20Z</time>
      </trkpt>
      <trkpt lat="46.89358" lon="5.55993">
        <ele>239</ele>
        <time>2012-09-21T13:19:22Z</time>
      </trkpt>
      <trkpt lat="46.8935" lon="5.55982">
        <ele>239</ele>
        <time>2012-09-21T13:19:24Z</time>
      </trkpt>
      <trkpt lat="46.89341" lon="5.5597">
        <ele>244</ele>
        <time>2012-09-21T13:19:26Z</time>
      </trkpt>
      <trkpt lat="46.89333" lon="5.55958">
        <ele>244</ele>
        <time>2012-09-21T13:19:28Z</time>
      </trkpt>
      <trkpt lat="46.89325" lon="5.55947">
        <ele>244</ele>
        <time>2012-09-21T13:19:30Z</time>
      </trkpt>
      <trkpt lat="46.89317" lon="5.55934">
        <ele>244</ele>
        <time>2012-09-21T13:19:32Z</time>
      </trkpt>
      <trkpt lat="46.89309" lon="5.55922">
        <ele>244</ele>
        <time>2012-09-21T13:19:34Z</time>
      </trkpt>
      <trkpt lat="46.89301" lon="5.55909">
        <ele>244</ele>
        <time>2012-09-21T13:19:36Z</time>
      </trkpt>
      <trkpt lat="46.89293" lon="5.55896">
        <ele>244</ele>
        <time>2012-09-21T13:19:38Z</time>
      </trkpt>
      <trkpt lat="46.89284" lon="5.55884">
        <ele>244</ele>
        <time>2012-09-21T13:19:40Z</time>
      </trkpt>
      <trkpt lat="46.89276" lon="5.55872">
        <ele>244</ele>
        <time>2012-09-21T13:19:42Z</time>
      </trkpt>
      <trkpt lat="46.89268" lon="5.55858">
        <ele>244</ele>
        <time>2012-09-21T13:19:44Z</time>
      </trkpt>
      <trkpt lat="46.8926" lon="5.55843">
        <ele>244</ele>
        <time>2012-09-21T13:19:46Z</time>
      </trkpt>
      <trkpt lat="46.89252" lon="5.55829">
        <ele>244</ele>
        <time>2012-09-21T13:19:48Z</time>
      </trkpt>
      <trkpt lat="46.89243" lon="5.55815">
        <ele>250</ele>
        <time>2012-09-21T13:19:50Z</time>
      </trkpt>
      <trkpt lat="46.89235" lon="5.55801">
        <ele>250</ele>
        <time>2012-09-21T13:19:52Z</time>
      </trkpt>
      <trkpt lat="46.89227" lon="5.55788">
        <ele>255</ele>
        <time>2012-09-21T13:19:54Z</time>
      </trkpt>
      <trkpt lat="46.89218" lon="5.55774">
        <ele>255</ele>
        <time>2012-09-21T13:19:56Z</time>
      </trkpt>
      <trkpt lat="46.8921" lon="5.55763">
        <ele>255</ele>
        <time>2012-09-21T13:19:58Z</time>
      </trkpt>
      <trkpt lat="46.89202" lon="5.5575">
        <ele>255</ele>
        <time>2012-09-21T13:20:00Z</time>
      </trkpt>
      <trkpt lat="46.89194" lon="5.55738">
        <ele>262</ele>
        <time>2012-09-21T13:20:02Z</time>
      </trkpt>
      <trkpt lat="46.89186" lon="5.55726">
        <ele>262</ele>
        <time>2012-09-21T13:20:04Z</time>
      </trkpt>
      <trkpt lat="46.89179" lon="5.55714">
        <ele>262</ele>
        <time>2012-09-21T13:20:06Z</time>
      </trkpt>
      <trkpt lat="46.89172" lon="5.55702">
        <ele>262</ele>
        <time>2012-09-21T13:20:08Z</time>
      </trkpt>
      <trkpt lat="46.89165" lon="5.5569">
        <ele>262</ele>
        <time>2012-09-21T13:20:10Z</time>
      </trkpt>
      <trkpt lat="46.89159" lon="5.55678">
        <ele>262</ele>
        <time>2012-09-21T13:20:12Z</time>
      </trkpt>
      <trkpt lat="46.89151" lon="5.55666">
        <ele>262</ele>
        <time>2012-09-21T13:20:14Z</time>
      </trkpt>
      <trkpt lat="46.89143" lon="5.55653">
        <ele>262</ele>
        <time>2012-09-21T13:20:16Z</time>
      </trkpt>
      <trkpt lat="46.89137" lon="5.55639">
        <ele>262</ele>
        <time>2012-09-21T13:20:18Z</time>
      </trkpt>
      <trkpt lat="46.8913" lon="5.55624">
        <ele>262</ele>
        <time>2012-09-21T13:20:20Z</time>
      </trkpt>
      <trkpt lat="46.89124" lon="5.5561">
        <ele>268</ele>
        <time>2012-09-21T13:20:22Z</time>
      </trkpt>
      <trkpt lat="46.89116" lon="5.55596">
        <ele>268</ele>
        <time>2012-09-21T13:20:24Z</time>
      </trkpt>
      <trkpt lat="46.8911" lon="5.55582">
        <ele>268</ele>
        <time>2012-09-21T13:20:26Z</time>
      </trkpt>
      <trkpt lat="46.89103" lon="5.55569">
        <ele>274</ele>
        <time>2012-09-21T13:20:28Z</time>
      </trkpt>
      <trkpt lat="46.89096" lon="5.55556">
        <ele>274</ele>
        <time>2012-09-21T13:20:30Z</time>
      </trkpt>
      <trkpt lat="46.89088" lon="5.55541">
        <ele>274</ele>
        <time>2012-09-21T13:20:32Z</time>
      </trkpt>
      <trkpt lat="46.8908" lon="5.55525">
        <ele>274</ele>
        <time>2012-09-21T13:20:34Z</time>
      </trkpt>
      <trkpt lat="46.89072" lon="5.55509">
        <ele>274</ele>
        <time>2012-09-21T13:20:36Z</time>
      </trkpt>
      <trkpt lat="46.89064" lon="5.55492">
        <ele>274</ele>
        <time>2012-09-21T13:20:38Z</time>
      </trkpt>
      <trkpt lat="46.89056" lon="5.55478">
        <ele>274</ele>
        <time>2012-09-21T13:20:40Z</time>
      </trkpt>
      <trkpt lat="46.89048" lon="5.55463">
        <ele>274</ele>
        <time>2012-09-21T13:20:42Z</time>
      </trkpt>
      <trkpt lat="46.8904" lon="5.55446">
        <ele>274</ele>
        <time>2012-09-21T13:20:44Z</time>
      </trkpt>
      <trkpt lat="46.89033" lon="5.55428">
        <ele>274</ele>
        <time>2012-09-21T13:20:46Z</time>
      </trkpt>
      <trkpt lat="46.89025" lon="5.55411">
        <ele>274</ele>
        <time>2012-09-21T13:20:48Z</time>
      </trkpt>
      <trkpt lat="46.89018" lon="5.55393">
        <ele>274</ele>
        <time>2012-09-21T13:20:50Z</time>
      </trkpt>
      <trkpt lat="46.89007" lon="5.55375">
        <ele>274</ele>
        <time>2012-09-21T13:20:52Z</time>
      </trkpt>
      <trkpt lat="46.88995" lon="5.55362">
        <ele>274</ele>
        <time>2012-09-21T13:20:54Z</time>
      </trkpt>
      <trkpt lat="46.88981" lon="5.55351">
        <ele>274</ele>
        <time>2012-09-21T13:20:56Z</time>
      </trkpt>
      <trkpt lat="46.88967" lon="5.55342">
        <ele>274</ele>
        <time>2012-09-21T13:20:58Z</time>
      </trkpt>
      <trkpt lat="46.88953" lon="5.55328">
        <ele>274</ele>
        <time>2012-09-21T13:21:00Z</time>
      </trkpt>
      <trkpt lat="46.88939" lon="5.55311">
        <ele>274</ele>
        <time>2012-09-21T13:21:02Z</time>
      </trkpt>
      <trkpt lat="46.88924" lon="5.55295">
        <ele>274</ele>
        <time>2012-09-21T13:21:04Z</time>
      </trkpt>
      <trkpt lat="46.88917" lon="5.55286">
        <ele>274</ele>
        <time>2012-09-21T13:21:05Z</time>
      </trkpt>
      <trkpt lat="46.88902" lon="5.55271">
        <ele>274</ele>
        <time>2012-09-21T13:21:07Z</time>
      </trkpt>
      <trkpt lat="46.88894" lon="5.55263">
        <ele>274</ele>
        <time>2012-09-21T13:21:08Z</time>
      </trkpt>
      <trkpt lat="46.88886" lon="5.55255">
        <ele>274</ele>
        <time>2012-09-21T13:21:09Z</time>
      </trkpt>
      <trkpt lat="46.88878" lon="5.55248">
        <ele>274</ele>
        <time>2012-09-21T13:21:10Z</time>
      </trkpt>
      <trkpt lat="46.88871" lon="5.55239">
        <ele>274</ele>
        <time>2012-09-21T13:21:11Z</time>
      </trkpt>
      <trkpt lat="46.88864" lon="5.55231">
        <ele>274</ele>
        <time>2012-09-21T13:21:12Z</time>
      </trkpt>
      <trkpt lat="46.88848" lon="5.55215">
        <ele>268</ele>
        <time>2012-09-21T13:21:14Z</time>
      </trkpt>
      <trkpt lat="46.88841" lon="5.55207">
        <ele>268</ele>
        <time>2012-09-21T13:21:15Z</time>
      </trkpt>
      <trkpt lat="46.88834" lon="5.55199">
        <ele>268</ele>
        <time>2012-09-21T13:21:16Z</time>
      </trkpt>
      <trkpt lat="46.88825" lon="5.55192">
        <ele>261</ele>
        <time>2012-09-21T13:21:17Z</time>
      </trkpt>
      <trkpt lat="46.8881" lon="5.55177">
        <ele>261</ele>
        <time>2012-09-21T13:21:19Z</time>
      </trkpt>
      <trkpt lat="46.88796" lon="5.55162">
        <ele>261</ele>
        <time>2012-09-21T13:21:21Z</time>
      </trkpt>
      <trkpt lat="46.88781" lon="5.55149">
        <ele>261</ele>
        <time>2012-09-21T13:21:23Z</time>
      </trkpt>
      <trkpt lat="46.88768" lon="5.55135">
        <ele>253</ele>
        <time>2012-09-21T13:21:25Z</time>
      </trkpt>
      <trkpt lat="46.88755" lon="5.55121">
        <ele>253</ele>
        <time>2012-09-21T13:21:27Z</time>
      </trkpt>
      <trkpt lat="46.88743" lon="5.55108">
        <ele>253</ele>
        <time>2012-09-21T13:21:29Z</time>
      </trkpt>
      <trkpt lat="46.8873" lon="5.55095">
        <ele>247</ele>
        <time>2012-09-21T13:21:31Z</time>
      </trkpt>
      <trkpt lat="46.88718" lon="5.55083">
        <ele>247</ele>
        <time>2012-09-21T13:21:33Z</time>
      </trkpt>
      <trkpt lat="46.88705" lon="5.55071">
        <ele>247</ele>
        <time>2012-09-21T13:21:35Z</time>
      </trkpt>
      <trkpt lat="46.88693" lon="5.5506">
        <ele>247</ele>
        <time>2012-09-21T13:21:37Z</time>
      </trkpt>
      <trkpt lat="46.88681" lon="5.55049">
        <ele>241</ele>
        <time>2012-09-21T13:21:39Z</time>
      </trkpt>
      <trkpt lat="46.88668" lon="5.5504">
        <ele>241</ele>
        <time>2012-09-21T13:21:41Z</time>
      </trkpt>
      <trkpt lat="46.88656" lon="5.5503">
        <ele>241</ele>
        <time>2012-09-21T13:21:43Z</time>
      </trkpt>
      <trkpt lat="46.88642" lon="5.55021">
        <ele>241</ele>
        <time>2012-09-21T13:21:45Z</time>
      </trkpt>
      <trkpt lat="46.88629" lon="5.55012">
        <ele>241</ele>
        <time>2012-09-21T13:21:47Z</time>
      </trkpt>
      <trkpt lat="46.88615" lon="5.55003">
        <ele>241</ele>
        <time>2012-09-21T13:21:49Z</time>
      </trkpt>
      <trkpt lat="46.88602" lon="5.54995">
        <ele>241</ele>
        <time>2012-09-21T13:21:51Z</time>
      </trkpt>
      <trkpt lat="46.88588" lon="5.54986">
        <ele>241</ele>
        <time>2012-09-21T13:21:53Z</time>
      </trkpt>
      <trkpt lat="46.88574" lon="5.54977">
        <ele>241</ele>
        <time>2012-09-21T13:21:55Z</time>
      </trkpt>
      <trkpt lat="46.88559" lon="5.54968">
        <ele>241</ele>
        <time>2012-09-21T13:21:57Z</time>
      </trkpt>
      <trkpt lat="46.88545" lon="5.54957">
        <ele>241</ele>
        <time>2012-09-21T13:21:59Z</time>
      </trkpt>
      <trkpt lat="46.8853" lon="5.54948">
        <ele>241</ele>
        <time>2012-09-21T13:22:01Z</time>
      </trkpt>
      <trkpt lat="46.88516" lon="5.5494">
        <ele>241</ele>
        <time>2012-09-21T13:22:03Z</time>
      </trkpt>
      <trkpt lat="46.88503" lon="5.54931">
        <ele>241</ele>
        <time>2012-09-21T13:22:05Z</time>
      </trkpt>
      <trkpt lat="46.88489" lon="5.54924">
        <ele>236</ele>
        <time>2012-09-21T13:22:07Z</time>
      </trkpt>
      <trkpt lat="46.88475" lon="5.54919">
        <ele>236</ele>
        <time>2012-09-21T13:22:09Z</time>
      </trkpt>
      <trkpt lat="46.88462" lon="5.54915">
        <ele>236</ele>
        <time>2012-09-21T13:22:11Z</time>
      </trkpt>
      <trkpt lat="46.88446" lon="5.54911">
        <ele>236</ele>
        <time>2012-09-21T13:22:13Z</time>
      </trkpt>
      <trkpt lat="46.88432" lon="5.54905">
        <ele>241</ele>
        <time>2012-09-21T13:22:15Z</time>
      </trkpt>
      <trkpt lat="46.88418" lon="5.54899">
        <ele>241</ele>
        <time>2012-09-21T13:22:17Z</time>
      </trkpt>
      <trkpt lat="46.88405" lon="5.54894">
        <ele>241</ele>
        <time>2012-09-21T13:22:19Z</time>
      </trkpt>
      <trkpt lat="46.8839" lon="5.54889">
        <ele>246</ele>
        <time>2012-09-21T13:22:21Z</time>
      </trkpt>
      <trkpt lat="46.88373" lon="5.54884">
        <ele>246</ele>
        <time>2012-09-21T13:22:23Z</time>
      </trkpt>
      <trkpt lat="46.88359" lon="5.54879">
        <ele>246</ele>
        <time>2012-09-21T13:22:25Z</time>
      </trkpt>
      <trkpt lat="46.88343" lon="5.54871">
        <ele>246</ele>
        <time>2012-09-21T13:22:27Z</time>
      </trkpt>
      <trkpt lat="46.88327" lon="5.54864">
        <ele>246</ele>
        <time>2012-09-21T13:22:29Z</time>
      </trkpt>
      <trkpt lat="46.88318" lon="5.54861">
        <ele>246</ele>
        <time>2012-09-21T13:22:30Z</time>
      </trkpt>
      <trkpt lat="46.88301" lon="5.54853">
        <ele>246</ele>
        <time>2012-09-21T13:22:32Z</time>
      </trkpt>
      <trkpt lat="46.88292" lon="5.54849">
        <ele>246</ele>
        <time>2012-09-21T13:22:33Z</time>
      </trkpt>
      <trkpt lat="46.88283" lon="5.54845">
        <ele>246</ele>
        <time>2012-09-21T13:22:34Z</time>
      </trkpt>
      <trkpt lat="46.88274" lon="5.54841">
        <ele>241</ele>
        <time>2012-09-21T13:22:35Z</time>
      </trkpt>
      <trkpt lat="46.88264" lon="5.54836">
        <ele>241</ele>
        <time>2012-09-21T13:22:36Z</time>
      </trkpt>
      <trkpt lat="46.88256" lon="5.54829">
        <ele>241</ele>
        <time>2012-09-21T13:22:37Z</time>
      </trkpt>
      <trkpt lat="46.8825" lon="5.5482">
        <ele>241</ele>
        <time>2012-09-21T13:22:38Z</time>
      </trkpt>
      <trkpt lat="46.88244" lon="5.54796">
        <ele>241</ele>
        <time>2012-09-21T13:22:40Z</time>
      </trkpt>
      <trkpt lat="46.88241" lon="5.54772">
        <ele>241</ele>
        <time>2012-09-21T13:22:42Z</time>
      </trkpt>
      <trkpt lat="46.88238" lon="5.54748">
        <ele>241</ele>
        <time>2012-09-21T13:22:44Z</time>
      </trkpt>
      <trkpt lat="46.88236" lon="5.54725">
        <ele>241</ele>
        <time>2012-09-21T13:22:46Z</time>
      </trkpt>
      <trkpt lat="46.88234" lon="5.54703">
        <ele>241</ele>
        <time>2012-09-21T13:22:48Z</time>
      </trkpt>
      <trkpt lat="46.8823" lon="5.54682">
        <ele>241</ele>
        <time>2012-09-21T13:22:50Z</time>
      </trkpt>
      <trkpt lat="46.88226" lon="5.54663">
        <ele>241</ele>
        <time>2012-09-21T13:22:52Z</time>
      </trkpt>
      <trkpt lat="46.8822" lon="5.54645">
        <ele>241</ele>
        <time>2012-09-21T13:22:54Z</time>
      </trkpt>
      <trkpt lat="46.88215" lon="5.54627">
        <ele>241</ele>
        <time>2012-09-21T13:22:56Z</time>
      </trkpt>
      <trkpt lat="46.8821" lon="5.5461">
        <ele>241</ele>
        <time>2012-09-21T13:22:58Z</time>
      </trkpt>
      <trkpt lat="46.88205" lon="5.54593">
        <ele>241</ele>
        <time>2012-09-21T13:23:00Z</time>
      </trkpt>
      <trkpt lat="46.882" lon="5.54578">
        <ele>241</ele>
        <time>2012-09-21T13:23:02Z</time>
      </trkpt>
      <trkpt lat="46.88196" lon="5.54563">
        <ele>241</ele>
        <time>2012-09-21T13:23:04Z</time>
      </trkpt>
      <trkpt lat="46.88192" lon="5.54549">
        <ele>241</ele>
        <time>2012-09-21T13:23:06Z</time>
      </trkpt>
      <trkpt lat="46.88189" lon="5.54535">
        <ele>241</ele>
        <time>2012-09-21T13:23:08Z</time>
      </trkpt>
      <trkpt lat="46.88186" lon="5.5452">
        <ele>241</ele>
        <time>2012-09-21T13:23:10Z</time>
      </trkpt>
      <trkpt lat="46.88183" lon="5.54505">
        <ele>241</ele>
        <time>2012-09-21T13:23:12Z</time>
      </trkpt>
      <trkpt lat="46.88181" lon="5.54488">
        <ele>241</ele>
        <time>2012-09-21T13:23:14Z</time>
      </trkpt>
      <trkpt lat="46.88181" lon="5.54471">
        <ele>241</ele>
        <time>2012-09-21T13:23:16Z</time>
      </trkpt>
      <trkpt lat="46.88181" lon="5.54454">
        <ele>241</ele>
        <time>2012-09-21T13:23:18Z</time>
      </trkpt>
      <trkpt lat="46.88182" lon="5.54437">
        <ele>241</ele>
        <time>2012-09-21T13:23:20Z</time>
      </trkpt>
      <trkpt lat="46.88182" lon="5.54421">
        <ele>241</ele>
        <time>2012-09-21T13:23:22Z</time>
      </trkpt>
      <trkpt lat="46.88182" lon="5.54406">
        <ele>241</ele>
        <time>2012-09-21T13:23:24Z</time>
      </trkpt>
      <trkpt lat="46.88182" lon="5.5439">
        <ele>241</ele>
        <time>2012-09-21T13:23:26Z</time>
      </trkpt>
      <trkpt lat="46.8818" lon="5.54375">
        <ele>241</ele>
        <time>2012-09-21T13:23:28Z</time>
      </trkpt>
      <trkpt lat="46.88177" lon="5.5436">
        <ele>241</ele>
        <time>2012-09-21T13:23:30Z</time>
      </trkpt>
      <trkpt lat="46.88173" lon="5.54344">
        <ele>241</ele>
        <time>2012-09-21T13:23:32Z</time>
      </trkpt>
      <trkpt lat="46.88168" lon="5.54328">
        <ele>241</ele>
        <time>2012-09-21T13:23:34Z</time>
      </trkpt>
      <trkpt lat="46.88164" lon="5.54312">
        <ele>241</ele>
        <time>2012-09-21T13:23:36Z</time>
      </trkpt>
      <trkpt lat="46.8816" lon="5.54295">
        <ele>241</ele>
        <time>2012-09-21T13:23:38Z</time>
      </trkpt>
      <trkpt lat="46.88155" lon="5.54277">
        <ele>241</ele>
        <time>2012-09-21T13:23:40Z</time>
      </trkpt>
      <trkpt lat="46.8815" lon="5.54258">
        <ele>241</ele>
        <time>2012-09-21T13:23:42Z</time>
      </trkpt>
      <trkpt lat="46.88143" lon="5.54241">
        <ele>241</ele>
        <time>2012-09-21T13:23:44Z</time>
      </trkpt>
      <trkpt lat="46.88134" lon="5.54226">
        <ele>241</ele>
        <time>2012-09-21T13:23:46Z</time>
      </trkpt>
      <trkpt lat="46.88123" lon="5.54212">
        <ele>241</ele>
        <time>2012-09-21T13:23:48Z</time>
      </trkpt>
      <trkpt lat="46.8811" lon="5.54199">
        <ele>235</ele>
        <time>2012-09-21T13:23:50Z</time>
      </trkpt>
      <trkpt lat="46.88097" lon="5.54189">
        <ele>235</ele>
        <time>2012-09-21T13:23:52Z</time>
      </trkpt>
      <trkpt lat="46.88083" lon="5.54179">
        <ele>235</ele>
        <time>2012-09-21T13:23:54Z</time>
      </trkpt>
      <trkpt lat="46.88067" lon="5.54172">
        <ele>235</ele>
        <time>2012-09-21T13:23:56Z</time>
      </trkpt>
      <trkpt lat="46.88051" lon="5.54164">
        <ele>235</ele>
        <time>2012-09-21T13:23:58Z</time>
      </trkpt>
      <trkpt lat="46.88037" lon="5.54155">
        <ele>235</ele>
        <time>2012-09-21T13:24:00Z</time>
      </trkpt>
      <trkpt lat="46.88021" lon="5.54146">
        <ele>235</ele>
        <time>2012-09-21T13:24:02Z</time>
      </trkpt>
      <trkpt lat="46.88006" lon="5.54139">
        <ele>235</ele>
        <time>2012-09-21T13:24:04Z</time>
      </trkpt>
      <trkpt lat="46.8799" lon="5.54131">
        <ele>230</ele>
        <time>2012-09-21T13:24:06Z</time>
      </trkpt>
      <trkpt lat="46.87975" lon="5.54121">
        <ele>230</ele>
        <time>2012-09-21T13:24:08Z</time>
      </trkpt>
      <trkpt lat="46.8796" lon="5.54111">
        <ele>230</ele>
        <time>2012-09-21T13:24:10Z</time>
      </trkpt>
      <trkpt lat="46.87945" lon="5.54102">
        <ele>230</ele>
        <time>2012-09-21T13:24:12Z</time>
      </trkpt>
      <trkpt lat="46.8793" lon="5.54092">
        <ele>230</ele>
        <time>2012-09-21T13:24:14Z</time>
      </trkpt>
      <trkpt lat="46.87915" lon="5.54082">
        <ele>230</ele>
        <time>2012-09-21T13:24:16Z</time>
      </trkpt>
      <trkpt lat="46.87899" lon="5.54073">
        <ele>230</ele>
        <time>2012-09-21T13:24:18Z</time>
      </trkpt>
      <trkpt lat="46.87884" lon="5.54063">
        <ele>230</ele>
        <time>2012-09-21T13:24:20Z</time>
      </trkpt>
      <trkpt lat="46.87868" lon="5.54054">
        <ele>230</ele>
        <time>2012-09-21T13:24:22Z</time>
      </trkpt>
      <trkpt lat="46.87854" lon="5.54045">
        <ele>230</ele>
        <time>2012-09-21T13:24:24Z</time>
      </trkpt>
      <trkpt lat="46.87839" lon="5.54036">
        <ele>230</ele>
        <time>2012-09-21T13:24:26Z</time>
      </trkpt>
      <trkpt lat="46.87825" lon="5.54024">
        <ele>230</ele>
        <time>2012-09-21T13:24:28Z</time>
      </trkpt>
      <trkpt lat="46.8781" lon="5.54011">
        <ele>230</ele>
        <time>2012-09-21T13:24:30Z</time>
      </trkpt>
      <trkpt lat="46.87803" lon="5.54003">
        <ele>230</ele>
        <time>2012-09-21T13:24:31Z</time>
      </trkpt>
      <trkpt lat="46.8779" lon="5.53987">
        <ele>230</ele>
        <time>2012-09-21T13:24:33Z</time>
      </trkpt>
      <trkpt lat="46.87776" lon="5.53972">
        <ele>230</ele>
        <time>2012-09-21T13:24:35Z</time>
      </trkpt>
      <trkpt lat="46.87763" lon="5.53957">
        <ele>230</ele>
        <time>2012-09-21T13:24:37Z</time>
      </trkpt>
      <trkpt lat="46.87751" lon="5.53943">
        <ele>230</ele>
        <time>2012-09-21T13:24:39Z</time>
      </trkpt>
      <trkpt lat="46.87739" lon="5.53929">
        <ele>230</ele>
        <time>2012-09-21T13:24:41Z</time>
      </trkpt>
      <trkpt lat="46.87727" lon="5.53917">
        <ele>230</ele>
        <time>2012-09-21T13:24:43Z</time>
      </trkpt>
      <trkpt lat="46.87716" lon="5.53904">
        <ele>230</ele>
        <time>2012-09-21T13:24:45Z</time>
      </trkpt>
      <trkpt lat="46.87705" lon="5.5389">
        <ele>230</ele>
        <time>2012-09-21T13:24:47Z</time>
      </trkpt>
      <trkpt lat="46.87693" lon="5.53879">
        <ele>230</ele>
        <time>2012-09-21T13:24:49Z</time>
      </trkpt>
      <trkpt lat="46.87684" lon="5.53868">
        <ele>230</ele>
        <time>2012-09-21T13:24:51Z</time>
      </trkpt>
      <trkpt lat="46.87674" lon="5.53857">
        <ele>230</ele>
        <time>2012-09-21T13:24:53Z</time>
      </trkpt>
      <trkpt lat="46.87664" lon="5.53846">
        <ele>230</ele>
        <time>2012-09-21T13:24:55Z</time>
      </trkpt>
      <trkpt lat="46.87655" lon="5.53837">
        <ele>230</ele>
        <time>2012-09-21T13:24:57Z</time>
      </trkpt>
      <trkpt lat="46.87645" lon="5.53826">
        <ele>230</ele>
        <time>2012-09-21T13:24:59Z</time>
      </trkpt>
      <trkpt lat="46.87636" lon="5.53815">
        <ele>230</ele>
        <time>2012-09-21T13:25:01Z</time>
      </trkpt>
      <trkpt lat="46.87626" lon="5.53805">
        <ele>230</ele>
        <time>2012-09-21T13:25:03Z</time>
      </trkpt>
      <trkpt lat="46.87616" lon="5.53793">
        <ele>230</ele>
        <time>2012-09-21T13:25:05Z</time>
      </trkpt>
      <trkpt lat="46.87607" lon="5.53782">
        <ele>230</ele>
        <time>2012-09-21T13:25:07Z</time>
      </trkpt>
      <trkpt lat="46.87598" lon="5.53769">
        <ele>230</ele>
        <time>2012-09-21T13:25:09Z</time>
      </trkpt>
      <trkpt lat="46.87589" lon="5.53758">
        <ele>230</ele>
        <time>2012-09-21T13:25:11Z</time>
      </trkpt>
      <trkpt lat="46.87581" lon="5.53745">
        <ele>230</ele>
        <time>2012-09-21T13:25:13Z</time>
      </trkpt>
      <trkpt lat="46.87573" lon="5.53731">
        <ele>230</ele>
        <time>2012-09-21T13:25:15Z</time>
      </trkpt>
      <trkpt lat="46.87567" lon="5.53717">
        <ele>230</ele>
        <time>2012-09-21T13:25:17Z</time>
      </trkpt>
      <trkpt lat="46.87563" lon="5.53701">
        <ele>230</ele>
        <time>2012-09-21T13:25:19Z</time>
      </trkpt>
      <trkpt lat="46.8756" lon="5.53686">
        <ele>230</ele>
        <time>2012-09-21T13:25:21Z</time>
      </trkpt>
      <trkpt lat="46.87555" lon="5.53669">
        <ele>230</ele>
        <time>2012-09-21T13:25:24Z</time>
      </trkpt>
      <trkpt lat="46.8755" lon="5.53655">
        <ele>230</ele>
        <time>2012-09-21T13:25:28Z</time>
      </trkpt>
      <trkpt lat="46.87547" lon="5.53642">
        <ele>230</ele>
        <time>2012-09-21T13:25:33Z</time>
      </trkpt>
      <trkpt lat="46.8754" lon="5.53633">
        <ele>230</ele>
        <time>2012-09-21T13:25:43Z</time>
      </trkpt>
      <trkpt lat="46.8753" lon="5.53634">
        <ele>230</ele>
        <time>2012-09-21T13:25:46Z</time>
      </trkpt>
      <trkpt lat="46.87518" lon="5.53639">
        <ele>230</ele>
        <time>2012-09-21T13:25:49Z</time>
      </trkpt>
      <trkpt lat="46.87506" lon="5.53634">
        <ele>230</ele>
        <time>2012-09-21T13:25:52Z</time>
      </trkpt>
      <trkpt lat="46.87496" lon="5.53623">
        <ele>230</ele>
        <time>2012-09-21T13:25:55Z</time>
      </trkpt>
      <trkpt lat="46.8749" lon="5.53612">
        <ele>230</ele>
        <time>2012-09-21T13:25:57Z</time>
      </trkpt>
      <trkpt lat="46.87483" lon="5.53601">
        <ele>230</ele>
        <time>2012-09-21T13:25:59Z</time>
      </trkpt>
      <trkpt lat="46.87477" lon="5.5359">
        <ele>230</ele>
        <time>2012-09-21T13:26:01Z</time>
      </trkpt>
      <trkpt lat="46.8747" lon="5.53577">
        <ele>230</ele>
        <time>2012-09-21T13:26:03Z</time>
      </trkpt>
      <trkpt lat="46.87463" lon="5.53563">
        <ele>230</ele>
        <time>2012-09-21T13:26:05Z</time>
      </trkpt>
      <trkpt lat="46.87456" lon="5.53549">
        <ele>230</ele>
        <time>2012-09-21T13:26:07Z</time>
      </trkpt>
      <trkpt lat="46.87448" lon="5.53535">
        <ele>230</ele>
        <time>2012-09-21T13:26:09Z</time>
      </trkpt>
      <trkpt lat="46.87441" lon="5.5352">
        <ele>230</ele>
        <time>2012-09-21T13:26:11Z</time>
      </trkpt>
      <trkpt lat="46.87434" lon="5.53508">
        <ele>230</ele>
        <time>2012-09-21T13:26:13Z</time>
      </trkpt>
      <trkpt lat="46.87428" lon="5.53495">
        <ele>230</ele>
        <time>2012-09-21T13:26:15Z</time>
      </trkpt>
      <trkpt lat="46.87422" lon="5.53483">
        <ele>230</ele>
        <time>2012-09-21T13:26:17Z</time>
      </trkpt>
      <trkpt lat="46.87416" lon="5.5347">
        <ele>230</ele>
        <time>2012-09-21T13:26:19Z</time>
      </trkpt>
      <trkpt lat="46.87409" lon="5.53457">
        <ele>230</ele>
        <time>2012-09-21T13:26:21Z</time>
      </trkpt>
      <trkpt lat="46.87403" lon="5.53444">
        <ele>230</ele>
        <time>2012-09-21T13:26:23Z</time>
      </trkpt>
      <trkpt lat="46.87395" lon="5.53431">
        <ele>230</ele>
        <time>2012-09-21T13:26:25Z</time>
      </trkpt>
      <trkpt lat="46.87388" lon="5.53417">
        <ele>230</ele>
        <time>2012-09-21T13:26:27Z</time>
      </trkpt>
      <trkpt lat="46.87381" lon="5.53402">
        <ele>230</ele>
        <time>2012-09-21T13:26:29Z</time>
      </trkpt>
      <trkpt lat="46.87377" lon="5.53385">
        <ele>230</ele>
        <time>2012-09-21T13:26:31Z</time>
      </trkpt>
      <trkpt lat="46.87378" lon="5.53363">
        <ele>230</ele>
        <time>2012-09-21T13:26:33Z</time>
      </trkpt>
      <trkpt lat="46.87385" lon="5.53342">
        <ele>222</ele>
        <time>2012-09-21T13:26:35Z</time>
      </trkpt>
      <trkpt lat="46.87395" lon="5.5332">
        <ele>222</ele>
        <time>2012-09-21T13:26:37Z</time>
      </trkpt>
      <trkpt lat="46.87405" lon="5.53298">
        <ele>222</ele>
        <time>2012-09-21T13:26:39Z</time>
      </trkpt>
      <trkpt lat="46.87409" lon="5.53287">
        <ele>222</ele>
        <time>2012-09-21T13:26:40Z</time>
      </trkpt>
      <trkpt lat="46.8742" lon="5.53265">
        <ele>217</ele>
        <time>2012-09-21T13:26:42Z</time>
      </trkpt>
      <trkpt lat="46.87425" lon="5.53254">
        <ele>217</ele>
        <time>2012-09-21T13:26:43Z</time>
      </trkpt>
      <trkpt lat="46.87431" lon="5.53243">
        <ele>217</ele>
        <time>2012-09-21T13:26:44Z</time>
      </trkpt>
      <trkpt lat="46.87437" lon="5.53231">
        <ele>217</ele>
        <time>2012-09-21T13:26:45Z</time>
      </trkpt>
      <trkpt lat="46.87442" lon="5.5322">
        <ele>217</ele>
        <time>2012-09-21T13:26:46Z</time>
      </trkpt>
      <trkpt lat="46.87448" lon="5.53209">
        <ele>217</ele>
        <time>2012-09-21T13:26:47Z</time>
      </trkpt>
      <trkpt lat="46.87457" lon="5.53186">
        <ele>217</ele>
        <time>2012-09-21T13:26:49Z</time>
      </trkpt>
      <trkpt lat="46.87461" lon="5.53175">
        <ele>217</ele>
        <time>2012-09-21T13:26:50Z</time>
      </trkpt>
      <trkpt lat="46.87464" lon="5.5315">
        <ele>217</ele>
        <time>2012-09-21T13:26:52Z</time>
      </trkpt>
      <trkpt lat="46.87461" lon="5.53125">
        <ele>217</ele>
        <time>2012-09-21T13:26:54Z</time>
      </trkpt>
      <trkpt lat="46.87457" lon="5.53101">
        <ele>217</ele>
        <time>2012-09-21T13:26:56Z</time>
      </trkpt>
      <trkpt lat="46.87452" lon="5.53077">
        <ele>217</ele>
        <time>2012-09-21T13:26:58Z</time>
      </trkpt>
      <trkpt lat="46.87447" lon="5.53055">
        <ele>217</ele>
        <time>2012-09-21T13:27:00Z</time>
      </trkpt>
      <trkpt lat="46.87442" lon="5.53033">
        <ele>217</ele>
        <time>2012-09-21T13:27:02Z</time>
      </trkpt>
      <trkpt lat="46.87437" lon="5.53012">
        <ele>217</ele>
        <time>2012-09-21T13:27:04Z</time>
      </trkpt>
      <trkpt lat="46.87432" lon="5.5299">
        <ele>217</ele>
        <time>2012-09-21T13:27:06Z</time>
      </trkpt>
      <trkpt lat="46.87427" lon="5.5297">
        <ele>217</ele>
        <time>2012-09-21T13:27:08Z</time>
      </trkpt>
      <trkpt lat="46.87422" lon="5.5295">
        <ele>217</ele>
        <time>2012-09-21T13:27:10Z</time>
      </trkpt>
      <trkpt lat="46.87418" lon="5.5293">
        <ele>217</ele>
        <time>2012-09-21T13:27:12Z</time>
      </trkpt>
      <trkpt lat="46.87414" lon="5.52912">
        <ele>217</ele>
        <time>2012-09-21T13:27:14Z</time>
      </trkpt>
      <trkpt lat="46.87409" lon="5.52895">
        <ele>217</ele>
        <time>2012-09-21T13:27:16Z</time>
      </trkpt>
      <trkpt lat="46.87405" lon="5.5288">
        <ele>217</ele>
        <time>2012-09-21T13:27:18Z</time>
      </trkpt>
      <trkpt lat="46.87401" lon="5.52864">
        <ele>222</ele>
        <time>2012-09-21T13:27:20Z</time>
      </trkpt>
      <trkpt lat="46.87398" lon="5.5285">
        <ele>222</ele>
        <time>2012-09-21T13:27:22Z</time>
      </trkpt>
      <trkpt lat="46.87395" lon="5.52837">
        <ele>222</ele>
        <time>2012-09-21T13:27:24Z</time>
      </trkpt>
      <trkpt lat="46.87392" lon="5.52823">
        <ele>222</ele>
        <time>2012-09-21T13:27:26Z</time>
      </trkpt>
      <trkpt lat="46.87389" lon="5.5281">
        <ele>222</ele>
        <time>2012-09-21T13:27:28Z</time>
      </trkpt>
      <trkpt lat="46.87385" lon="5.52796">
        <ele>228</ele>
        <time>2012-09-21T13:27:30Z</time>
      </trkpt>
      <trkpt lat="46.87382" lon="5.52783">
        <ele>228</ele>
        <time>2012-09-21T13:27:32Z</time>
      </trkpt>
      <trkpt lat="46.87379" lon="5.5277">
        <ele>228</ele>
        <time>2012-09-21T13:27:34Z</time>
      </trkpt>
      <trkpt lat="46.87376" lon="5.52758">
        <ele>228</ele>
        <time>2012-09-21T13:27:36Z</time>
      </trkpt>
      <trkpt lat="46.87372" lon="5.5274">
        <ele>228</ele>
        <time>2012-09-21T13:27:39Z</time>
      </trkpt>
      <trkpt lat="46.87369" lon="5.52726">
        <ele>233</ele>
        <time>2012-09-21T13:27:41Z</time>
      </trkpt>
      <trkpt lat="46.87368" lon="5.52713">
        <ele>233</ele>
        <time>2012-09-21T13:27:43Z</time>
      </trkpt>
      <trkpt lat="46.87366" lon="5.52699">
        <ele>233</ele>
        <time>2012-09-21T13:27:45Z</time>
      </trkpt>
      <trkpt lat="46.87366" lon="5.52686">
        <ele>233</ele>
        <time>2012-09-21T13:27:47Z</time>
      </trkpt>
      <trkpt lat="46.87366" lon="5.52671">
        <ele>233</ele>
        <time>2012-09-21T13:27:49Z</time>
      </trkpt>
      <trkpt lat="46.87367" lon="5.52655">
        <ele>233</ele>
        <time>2012-09-21T13:27:51Z</time>
      </trkpt>
      <trkpt lat="46.87369" lon="5.52637">
        <ele>233</ele>
        <time>2012-09-21T13:27:53Z</time>
      </trkpt>
      <trkpt lat="46.8737" lon="5.5262">
        <ele>233</ele>
        <time>2012-09-21T13:27:55Z</time>
      </trkpt>
      <trkpt lat="46.87372" lon="5.52602">
        <ele>233</ele>
        <time>2012-09-21T13:27:57Z</time>
      </trkpt>
      <trkpt lat="46.87373" lon="5.52585">
        <ele>233</ele>
        <time>2012-09-21T13:27:59Z</time>
      </trkpt>
      <trkpt lat="46.87375" lon="5.52568">
        <ele>227</ele>
        <time>2012-09-21T13:28:01Z</time>
      </trkpt>
      <trkpt lat="46.87377" lon="5.5255">
        <ele>227</ele>
        <time>2012-09-21T13:28:03Z</time>
      </trkpt>
      <trkpt lat="46.87377" lon="5.52532">
        <ele>227</ele>
        <time>2012-09-21T13:28:05Z</time>
      </trkpt>
      <trkpt lat="46.87373" lon="5.52514">
        <ele>227</ele>
        <time>2012-09-21T13:28:07Z</time>
      </trkpt>
      <trkpt lat="46.87363" lon="5.52503">
        <ele>227</ele>
        <time>2012-09-21T13:28:09Z</time>
      </trkpt>
      <trkpt lat="46.8735" lon="5.52494">
        <ele>227</ele>
        <time>2012-09-21T13:28:11Z</time>
      </trkpt>
      <trkpt lat="46.87337" lon="5.52487">
        <ele>227</ele>
        <time>2012-09-21T13:28:13Z</time>
      </trkpt>
      <trkpt lat="46.87324" lon="5.52479">
        <ele>227</ele>
        <time>2012-09-21T13:28:15Z</time>
      </trkpt>
      <trkpt lat="46.87313" lon="5.5247">
        <ele>227</ele>
        <time>2012-09-21T13:28:17Z</time>
      </trkpt>
      <trkpt lat="46.87301" lon="5.52459">
        <ele>227</ele>
        <time>2012-09-21T13:28:19Z</time>
      </trkpt>
      <trkpt lat="46.87289" lon="5.5245">
        <ele>227</ele>
        <time>2012-09-21T13:28:21Z</time>
      </trkpt>
      <trkpt lat="46.87277" lon="5.5244">
        <ele>227</ele>
        <time>2012-09-21T13:28:23Z</time>
      </trkpt>
      <trkpt lat="46.87265" lon="5.5243">
        <ele>227</ele>
        <time>2012-09-21T13:28:25Z</time>
      </trkpt>
      <trkpt lat="46.87254" lon="5.52417">
        <ele>227</ele>
        <time>2012-09-21T13:28:27Z</time>
      </trkpt>
      <trkpt lat="46.87244" lon="5.52404">
        <ele>227</ele>
        <time>2012-09-21T13:28:29Z</time>
      </trkpt>
      <trkpt lat="46.87236" lon="5.52388">
        <ele>227</ele>
        <time>2012-09-21T13:28:31Z</time>
      </trkpt>
      <trkpt lat="46.87231" lon="5.52371">
        <ele>227</ele>
        <time>2012-09-21T13:28:33Z</time>
      </trkpt>
      <trkpt lat="46.87226" lon="5.52356">
        <ele>227</ele>
        <time>2012-09-21T13:28:35Z</time>
      </trkpt>
      <trkpt lat="46.8722" lon="5.52341">
        <ele>227</ele>
        <time>2012-09-21T13:28:37Z</time>
      </trkpt>
      <trkpt lat="46.87214" lon="5.52327">
        <ele>227</ele>
        <time>2012-09-21T13:28:39Z</time>
      </trkpt>
      <trkpt lat="46.87208" lon="5.52315">
        <ele>227</ele>
        <time>2012-09-21T13:28:41Z</time>
      </trkpt>
      <trkpt lat="46.87202" lon="5.52302">
        <ele>227</ele>
        <time>2012-09-21T13:28:43Z</time>
      </trkpt>
      <trkpt lat="46.87198" lon="5.52289">
        <ele>227</ele>
        <time>2012-09-21T13:28:45Z</time>
      </trkpt>
      <trkpt lat="46.87196" lon="5.52274">
        <ele>227</ele>
        <time>2012-09-21T13:28:47Z</time>
      </trkpt>
      <trkpt lat="46.87196" lon="5.52258">
        <ele>227</ele>
        <time>2012-09-21T13:28:49Z</time>
      </trkpt>
      <trkpt lat="46.87196" lon="5.5224">
        <ele>227</ele>
        <time>2012-09-21T13:28:51Z</time>
      </trkpt>
      <trkpt lat="46.87197" lon="5.52223">
        <ele>227</ele>
        <time>2012-09-21T13:28:53Z</time>
      </trkpt>
      <trkpt lat="46.87197" lon="5.52203">
        <ele>227</ele>
        <time>2012-09-21T13:28:55Z</time>
      </trkpt>
      <trkpt lat="46.87197" lon="5.52184">
        <ele>227</ele>
        <time>2012-09-21T13:28:57Z</time>
      </trkpt>
      <trkpt lat="46.87198" lon="5.52163">
        <ele>227</ele>
        <time>2012-09-21T13:28:59Z</time>
      </trkpt>
      <trkpt lat="46.87198" lon="5.52142">
        <ele>227</ele>
        <time>2012-09-21T13:29:01Z</time>
      </trkpt>
      <trkpt lat="46.87199" lon="5.52122">
        <ele>227</ele>
        <time>2012-09-21T13:29:03Z</time>
      </trkpt>
      <trkpt lat="46.87201" lon="5.52101">
        <ele>227</ele>
        <time>2012-09-21T13:29:05Z</time>
      </trkpt>
      <trkpt lat="46.87202" lon="5.5208">
        <ele>227</ele>
        <time>2012-09-21T13:29:07Z</time>
      </trkpt>
      <trkpt lat="46.87203" lon="5.5206">
        <ele>227</ele>
        <time>2012-09-21T13:29:09Z</time>
      </trkpt>
      <trkpt lat="46.87204" lon="5.5204">
        <ele>227</ele>
        <time>2012-09-21T13:29:11Z</time>
      </trkpt>
      <trkpt lat="46.87206" lon="5.5202">
        <ele>227</ele>
        <time>2012-09-21T13:29:13Z</time>
      </trkpt>
      <trkpt lat="46.87207" lon="5.52001">
        <ele>227</ele>
        <time>2012-09-21T13:29:15Z</time>
      </trkpt>
      <trkpt lat="46.87207" lon="5.51983">
        <ele>227</ele>
        <time>2012-09-21T13:29:17Z</time>
      </trkpt>
      <trkpt lat="46.87206" lon="5.51966">
        <ele>227</ele>
        <time>2012-09-21T13:29:19Z</time>
      </trkpt>
      <trkpt lat="46.87204" lon="5.51949">
        <ele>227</ele>
        <time>2012-09-21T13:29:21Z</time>
      </trkpt>
      <trkpt lat="46.87201" lon="5.51933">
        <ele>227</ele>
        <time>2012-09-21T13:29:23Z</time>
      </trkpt>
      <trkpt lat="46.87199" lon="5.51917">
        <ele>227</ele>
        <time>2012-09-21T13:29:25Z</time>
      </trkpt>
      <trkpt lat="46.87196" lon="5.51901">
        <ele>227</ele>
        <time>2012-09-21T13:29:27Z</time>
      </trkpt>
      <trkpt lat="46.87194" lon="5.51885">
        <ele>227</ele>
        <time>2012-09-21T13:29:29Z</time>
      </trkpt>
      <trkpt lat="46.87191" lon="5.51867">
        <ele>227</ele>
        <time>2012-09-21T13:29:31Z</time>
      </trkpt>
      <trkpt lat="46.8719" lon="5.51848">
        <ele>227</ele>
        <time>2012-09-21T13:29:33Z</time>
      </trkpt>
      <trkpt lat="46.87188" lon="5.51829">
        <ele>227</ele>
        <time>2012-09-21T13:29:35Z</time>
      </trkpt>
      <trkpt lat="46.87188" lon="5.51809">
        <ele>227</ele>
        <time>2012-09-21T13:29:37Z</time>
      </trkpt>
      <trkpt lat="46.87189" lon="5.5179">
        <ele>227</ele>
        <time>2012-09-21T13:29:39Z</time>
      </trkpt>
      <trkpt lat="46.87191" lon="5.5177">
        <ele>227</ele>
        <time>2012-09-21T13:29:41Z</time>
      </trkpt>
      <trkpt lat="46.87193" lon="5.51751">
        <ele>227</ele>
        <time>2012-09-21T13:29:43Z</time>
      </trkpt>
      <trkpt lat="46.87195" lon="5.51732">
        <ele>227</ele>
        <time>2012-09-21T13:29:45Z</time>
      </trkpt>
      <trkpt lat="46.87197" lon="5.51713">
        <ele>227</ele>
        <time>2012-09-21T13:29:47Z</time>
      </trkpt>
      <trkpt lat="46.87199" lon="5.51695">
        <ele>227</ele>
        <time>2012-09-21T13:29:49Z</time>
      </trkpt>
      <trkpt lat="46.87202" lon="5.51679">
        <ele>227</ele>
        <time>2012-09-21T13:29:51Z</time>
      </trkpt>
      <trkpt lat="46.87204" lon="5.51663">
        <ele>227</ele>
        <time>2012-09-21T13:29:53Z</time>
      </trkpt>
      <trkpt lat="46.87206" lon="5.51646">
        <ele>227</ele>
        <time>2012-09-21T13:29:55Z</time>
      </trkpt>
      <trkpt lat="46.87209" lon="5.5163">
        <ele>227</ele>
        <time>2012-09-21T13:29:57Z</time>
      </trkpt>
      <trkpt lat="46.8721" lon="5.51613">
        <ele>227</ele>
        <time>2012-09-21T13:29:59Z</time>
      </trkpt>
      <trkpt lat="46.87212" lon="5.51596">
        <ele>227</ele>
        <time>2012-09-21T13:30:01Z</time>
      </trkpt>
      <trkpt lat="46.87216" lon="5.51579">
        <ele>227</ele>
        <time>2012-09-21T13:30:03Z</time>
      </trkpt>
      <trkpt lat="46.8722" lon="5.51561">
        <ele>227</ele>
        <time>2012-09-21T13:30:05Z</time>
      </trkpt>
      <trkpt lat="46.87224" lon="5.51543">
        <ele>227</ele>
        <time>2012-09-21T13:30:07Z</time>
      </trkpt>
      <trkpt lat="46.87228" lon="5.51525">
        <ele>227</ele>
        <time>2012-09-21T13:30:09Z</time>
      </trkpt>
      <trkpt lat="46.87233" lon="5.51508">
        <ele>227</ele>
        <time>2012-09-21T13:30:11Z</time>
      </trkpt>
      <trkpt lat="46.87237" lon="5.51491">
        <ele>227</ele>
        <time>2012-09-21T13:30:13Z</time>
      </trkpt>
      <trkpt lat="46.87242" lon="5.51474">
        <ele>227</ele>
        <time>2012-09-21T13:30:15Z</time>
      </trkpt>
      <trkpt lat="46.87247" lon="5.51456">
        <ele>227</ele>
        <time>2012-09-21T13:30:17Z</time>
      </trkpt>
      <trkpt lat="46.87252" lon="5.51437">
        <ele>221</ele>
        <time>2012-09-21T13:30:19Z</time>
      </trkpt>
      <trkpt lat="46.87259" lon="5.51417">
        <ele>221</ele>
        <time>2012-09-21T13:30:21Z</time>
      </trkpt>
      <trkpt lat="46.87265" lon="5.51395">
        <ele>221</ele>
        <time>2012-09-21T13:30:23Z</time>
      </trkpt>
      <trkpt lat="46.87273" lon="5.51372">
        <ele>221</ele>
        <time>2012-09-21T13:30:25Z</time>
      </trkpt>
      <trkpt lat="46.8728" lon="5.51348">
        <ele>221</ele>
        <time>2012-09-21T13:30:27Z</time>
      </trkpt>
      <trkpt lat="46.87284" lon="5.51337">
        <ele>221</ele>
        <time>2012-09-21T13:30:28Z</time>
      </trkpt>
      <trkpt lat="46.87289" lon="5.51324">
        <ele>221</ele>
        <time>2012-09-21T13:30:29Z</time>
      </trkpt>
      <trkpt lat="46.87293" lon="5.51311">
        <ele>216</ele>
        <time>2012-09-21T13:30:30Z</time>
      </trkpt>
      <trkpt lat="46.87297" lon="5.51298">
        <ele>216</ele>
        <time>2012-09-21T13:30:31Z</time>
      </trkpt>
      <trkpt lat="46.87301" lon="5.51284">
        <ele>216</ele>
        <time>2012-09-21T13:30:32Z</time>
      </trkpt>
      <trkpt lat="46.87306" lon="5.51271">
        <ele>216</ele>
        <time>2012-09-21T13:30:33Z</time>
      </trkpt>
      <trkpt lat="46.8731" lon="5.51258">
        <ele>216</ele>
        <time>2012-09-21T13:30:34Z</time>
      </trkpt>
      <trkpt lat="46.87316" lon="5.51244">
        <ele>216</ele>
        <time>2012-09-21T13:30:35Z</time>
      </trkpt>
      <trkpt lat="46.87321" lon="5.51231">
        <ele>216</ele>
        <time>2012-09-21T13:30:36Z</time>
      </trkpt>
      <trkpt lat="46.87325" lon="5.51216">
        <ele>216</ele>
        <time>2012-09-21T13:30:37Z</time>
      </trkpt>
      <trkpt lat="46.8733" lon="5.51203">
        <ele>216</ele>
        <time>2012-09-21T13:30:38Z</time>
      </trkpt>
      <trkpt lat="46.87334" lon="5.51189">
        <ele>216</ele>
        <time>2012-09-21T13:30:39Z</time>
      </trkpt>
      <trkpt lat="46.87338" lon="5.51176">
        <ele>216</ele>
        <time>2012-09-21T13:30:40Z</time>
      </trkpt>
      <trkpt lat="46.87342" lon="5.51163">
        <ele>216</ele>
        <time>2012-09-21T13:30:41Z</time>
      </trkpt>
      <trkpt lat="46.87346" lon="5.51151">
        <ele>216</ele>
        <time>2012-09-21T13:30:42Z</time>
      </trkpt>
      <trkpt lat="46.8735" lon="5.51138">
        <ele>216</ele>
        <time>2012-09-21T13:30:43Z</time>
      </trkpt>
      <trkpt lat="46.87358" lon="5.51116">
        <ele>216</ele>
        <time>2012-09-21T13:30:45Z</time>
      </trkpt>
      <trkpt lat="46.87365" lon="5.51095">
        <ele>216</ele>
        <time>2012-09-21T13:30:47Z</time>
      </trkpt>
      <trkpt lat="46.87372" lon="5.51076">
        <ele>216</ele>
        <time>2012-09-21T13:30:49Z</time>
      </trkpt>
      <trkpt lat="46.87379" lon="5.51056">
        <ele>216</ele>
        <time>2012-09-21T13:30:51Z</time>
      </trkpt>
      <trkpt lat="46.87387" lon="5.51037">
        <ele>216</ele>
        <time>2012-09-21T13:30:53Z</time>
      </trkpt>
      <trkpt lat="46.87393" lon="5.5102">
        <ele>216</ele>
        <time>2012-09-21T13:30:55Z</time>
      </trkpt>
      <trkpt lat="46.874" lon="5.51002">
        <ele>216</ele>
        <time>2012-09-21T13:30:57Z</time>
      </trkpt>
      <trkpt lat="46.87406" lon="5.50985">
        <ele>216</ele>
        <time>2012-09-21T13:30:59Z</time>
      </trkpt>
      <trkpt lat="46.87413" lon="5.50966">
        <ele>216</ele>
        <time>2012-09-21T13:31:01Z</time>
      </trkpt>
      <trkpt lat="46.8742" lon="5.50948">
        <ele>216</ele>
        <time>2012-09-21T13:31:03Z</time>
      </trkpt>
      <trkpt lat="46.87427" lon="5.50931">
        <ele>216</ele>
        <time>2012-09-21T13:31:05Z</time>
      </trkpt>
      <trkpt lat="46.87435" lon="5.50913">
        <ele>216</ele>
        <time>2012-09-21T13:31:07Z</time>
      </trkpt>
      <trkpt lat="46.87442" lon="5.50895">
        <ele>216</ele>
        <time>2012-09-21T13:31:09Z</time>
      </trkpt>
      <trkpt lat="46.87448" lon="5.50878">
        <ele>216</ele>
        <time>2012-09-21T13:31:11Z</time>
      </trkpt>
      <trkpt lat="46.87454" lon="5.50863">
        <ele>216</ele>
        <time>2012-09-21T13:31:13Z</time>
      </trkpt>
      <trkpt lat="46.87459" lon="5.50848">
        <ele>216</ele>
        <time>2012-09-21T13:31:15Z</time>
      </trkpt>
      <trkpt lat="46.87463" lon="5.50834">
        <ele>216</ele>
        <time>2012-09-21T13:31:17Z</time>
      </trkpt>
      <trkpt lat="46.87467" lon="5.50822">
        <ele>216</ele>
        <time>2012-09-21T13:31:19Z</time>
      </trkpt>
      <trkpt lat="46.87472" lon="5.50804">
        <ele>216</ele>
        <time>2012-09-21T13:31:22Z</time>
      </trkpt>
      <trkpt lat="46.87474" lon="5.5079">
        <ele>216</ele>
        <time>2012-09-21T13:31:24Z</time>
      </trkpt>
      <trkpt lat="46.87477" lon="5.50777">
        <ele>216</ele>
        <time>2012-09-21T13:31:26Z</time>
      </trkpt>
      <trkpt lat="46.87479" lon="5.50763">
        <ele>216</ele>
        <time>2012-09-21T13:31:28Z</time>
      </trkpt>
      <trkpt lat="46.87482" lon="5.5075">
        <ele>222</ele>
        <time>2012-09-21T13:31:30Z</time>
      </trkpt>
      <trkpt lat="46.87483" lon="5.50736">
        <ele>222</ele>
        <time>2012-09-21T13:31:32Z</time>
      </trkpt>
      <trkpt lat="46.87485" lon="5.50723">
        <ele>222</ele>
        <time>2012-09-21T13:31:34Z</time>
      </trkpt>
      <trkpt lat="46.87486" lon="5.50709">
        <ele>222</ele>
        <time>2012-09-21T13:31:36Z</time>
      </trkpt>
      <trkpt lat="46.87488" lon="5.50694">
        <ele>222</ele>
        <time>2012-09-21T13:31:38Z</time>
      </trkpt>
      <trkpt lat="46.8749" lon="5.5068">
        <ele>222</ele>
        <time>2012-09-21T13:31:40Z</time>
      </trkpt>
      <trkpt lat="46.87491" lon="5.50666">
        <ele>222</ele>
        <time>2012-09-21T13:31:42Z</time>
      </trkpt>
      <trkpt lat="46.87491" lon="5.50653">
        <ele>222</ele>
        <time>2012-09-21T13:31:44Z</time>
      </trkpt>
      <trkpt lat="46.87492" lon="5.50639">
        <ele>222</ele>
        <time>2012-09-21T13:31:46Z</time>
      </trkpt>
      <trkpt lat="46.87493" lon="5.50624">
        <ele>222</ele>
        <time>2012-09-21T13:31:48Z</time>
      </trkpt>
      <trkpt lat="46.87494" lon="5.50609">
        <ele>222</ele>
        <time>2012-09-21T13:31:50Z</time>
      </trkpt>
      <trkpt lat="46.87496" lon="5.50592">
        <ele>222</ele>
        <time>2012-09-21T13:31:52Z</time>
      </trkpt>
      <trkpt lat="46.87498" lon="5.50575">
        <ele>222</ele>
        <time>2012-09-21T13:31:54Z</time>
      </trkpt>
      <trkpt lat="46.875" lon="5.50556">
        <ele>222</ele>
        <time>2012-09-21T13:31:56Z</time>
      </trkpt>
      <trkpt lat="46.87502" lon="5.50536">
        <ele>222</ele>
        <time>2012-09-21T13:31:58Z</time>
      </trkpt>
      <trkpt lat="46.87504" lon="5.50516">
        <ele>222</ele>
        <time>2012-09-21T13:32:00Z</time>
      </trkpt>
      <trkpt lat="46.87506" lon="5.50495">
        <ele>222</ele>
        <time>2012-09-21T13:32:02Z</time>
      </trkpt>
      <trkpt lat="46.87509" lon="5.50473">
        <ele>222</ele>
        <time>2012-09-21T13:32:04Z</time>
      </trkpt>
      <trkpt lat="46.8751" lon="5.50452">
        <ele>222</ele>
        <time>2012-09-21T13:32:06Z</time>
      </trkpt>
      <trkpt lat="46.87513" lon="5.5043">
        <ele>222</ele>
        <time>2012-09-21T13:32:08Z</time>
      </trkpt>
      <trkpt lat="46.87515" lon="5.50408">
        <ele>222</ele>
        <time>2012-09-21T13:32:10Z</time>
      </trkpt>
      <trkpt lat="46.87518" lon="5.50387">
        <ele>222</ele>
        <time>2012-09-21T13:32:12Z</time>
      </trkpt>
      <trkpt lat="46.8752" lon="5.50366">
        <ele>222</ele>
        <time>2012-09-21T13:32:14Z</time>
      </trkpt>
      <trkpt lat="46.87522" lon="5.50346">
        <ele>222</ele>
        <time>2012-09-21T13:32:16Z</time>
      </trkpt>
      <trkpt lat="46.87523" lon="5.50326">
        <ele>222</ele>
        <time>2012-09-21T13:32:18Z</time>
      </trkpt>
      <trkpt lat="46.87525" lon="5.50306">
        <ele>222</ele>
        <time>2012-09-21T13:32:20Z</time>
      </trkpt>
      <trkpt lat="46.87527" lon="5.50286">
        <ele>222</ele>
        <time>2012-09-21T13:32:22Z</time>
      </trkpt>
      <trkpt lat="46.87529" lon="5.50264">
        <ele>222</ele>
        <time>2012-09-21T13:32:24Z</time>
      </trkpt>
      <trkpt lat="46.87531" lon="5.50243">
        <ele>222</ele>
        <time>2012-09-21T13:32:26Z</time>
      </trkpt>
      <trkpt lat="46.87533" lon="5.50222">
        <ele>222</ele>
        <time>2012-09-21T13:32:28Z</time>
      </trkpt>
      <trkpt lat="46.87534" lon="5.502">
        <ele>222</ele>
        <time>2012-09-21T13:32:30Z</time>
      </trkpt>
      <trkpt lat="46.87536" lon="5.5018">
        <ele>222</ele>
        <time>2012-09-21T13:32:32Z</time>
      </trkpt>
      <trkpt lat="46.87538" lon="5.50159">
        <ele>222</ele>
        <time>2012-09-21T13:32:34Z</time>
      </trkpt>
      <trkpt lat="46.87539" lon="5.50139">
        <ele>222</ele>
        <time>2012-09-21T13:32:36Z</time>
      </trkpt>
      <trkpt lat="46.87541" lon="5.50119">
        <ele>222</ele>
        <time>2012-09-21T13:32:38Z</time>
      </trkpt>
      <trkpt lat="46.87543" lon="5.501">
        <ele>222</ele>
        <time>2012-09-21T13:32:40Z</time>
      </trkpt>
      <trkpt lat="46.87546" lon="5.5008">
        <ele>222</ele>
        <time>2012-09-21T13:32:42Z</time>
      </trkpt>
      <trkpt lat="46.87547" lon="5.50061">
        <ele>222</ele>
        <time>2012-09-21T13:32:44Z</time>
      </trkpt>
      <trkpt lat="46.87549" lon="5.50042">
        <ele>222</ele>
        <time>2012-09-21T13:32:46Z</time>
      </trkpt>
      <trkpt lat="46.87551" lon="5.50022">
        <ele>222</ele>
        <time>2012-09-21T13:32:48Z</time>
      </trkpt>
      <trkpt lat="46.87552" lon="5.50003">
        <ele>222</ele>
        <time>2012-09-21T13:32:50Z</time>
      </trkpt>
      <trkpt lat="46.87554" lon="5.49985">
        <ele>222</ele>
        <time>2012-09-21T13:32:52Z</time>
      </trkpt>
      <trkpt lat="46.87557" lon="5.49966">
        <ele>222</ele>
        <time>2012-09-21T13:32:54Z</time>
      </trkpt>
      <trkpt lat="46.87559" lon="5.49947">
        <ele>222</ele>
        <time>2012-09-21T13:32:56Z</time>
      </trkpt>
      <trkpt lat="46.87561" lon="5.49927">
        <ele>222</ele>
        <time>2012-09-21T13:32:58Z</time>
      </trkpt>
      <trkpt lat="46.87563" lon="5.49906">
        <ele>222</ele>
        <time>2012-09-21T13:33:00Z</time>
      </trkpt>
      <trkpt lat="46.87565" lon="5.49887">
        <ele>222</ele>
        <time>2012-09-21T13:33:02Z</time>
      </trkpt>
      <trkpt lat="46.87567" lon="5.49867">
        <ele>222</ele>
        <time>2012-09-21T13:33:04Z</time>
      </trkpt>
      <trkpt lat="46.87568" lon="5.49846">
        <ele>222</ele>
        <time>2012-09-21T13:33:06Z</time>
      </trkpt>
      <trkpt lat="46.87571" lon="5.49825">
        <ele>222</ele>
        <time>2012-09-21T13:33:08Z</time>
      </trkpt>
      <trkpt lat="46.87572" lon="5.49803">
        <ele>222</ele>
        <time>2012-09-21T13:33:10Z</time>
      </trkpt>
      <trkpt lat="46.87574" lon="5.49781">
        <ele>222</ele>
        <time>2012-09-21T13:33:12Z</time>
      </trkpt>
      <trkpt lat="46.87576" lon="5.49759">
        <ele>222</ele>
        <time>2012-09-21T13:33:14Z</time>
      </trkpt>
      <trkpt lat="46.87579" lon="5.49737">
        <ele>222</ele>
        <time>2012-09-21T13:33:16Z</time>
      </trkpt>
      <trkpt lat="46.87581" lon="5.49714">
        <ele>222</ele>
        <time>2012-09-21T13:33:18Z</time>
      </trkpt>
      <trkpt lat="46.87583" lon="5.49693">
        <ele>222</ele>
        <time>2012-09-21T13:33:20Z</time>
      </trkpt>
      <trkpt lat="46.87585" lon="5.49672">
        <ele>222</ele>
        <time>2012-09-21T13:33:22Z</time>
      </trkpt>
      <trkpt lat="46.87587" lon="5.4965">
        <ele>222</ele>
        <time>2012-09-21T13:33:24Z</time>
      </trkpt>
      <trkpt lat="46.87589" lon="5.49628">
        <ele>222</ele>
        <time>2012-09-21T13:33:26Z</time>
      </trkpt>
      <trkpt lat="46.87591" lon="5.49606">
        <ele>216</ele>
        <time>2012-09-21T13:33:28Z</time>
      </trkpt>
      <trkpt lat="46.87594" lon="5.49582">
        <ele>216</ele>
        <time>2012-09-21T13:33:30Z</time>
      </trkpt>
      <trkpt lat="46.87596" lon="5.49558">
        <ele>216</ele>
        <time>2012-09-21T13:33:32Z</time>
      </trkpt>
      <trkpt lat="46.87599" lon="5.49533">
        <ele>216</ele>
        <time>2012-09-21T13:33:34Z</time>
      </trkpt>
      <trkpt lat="46.87602" lon="5.49508">
        <ele>216</ele>
        <time>2012-09-21T13:33:36Z</time>
      </trkpt>
      <trkpt lat="46.87605" lon="5.49482">
        <ele>216</ele>
        <time>2012-09-21T13:33:38Z</time>
      </trkpt>
      <trkpt lat="46.87608" lon="5.49459">
        <ele>216</ele>
        <time>2012-09-21T13:33:40Z</time>
      </trkpt>
      <trkpt lat="46.87611" lon="5.49437">
        <ele>216</ele>
        <time>2012-09-21T13:33:42Z</time>
      </trkpt>
      <trkpt lat="46.87615" lon="5.49416">
        <ele>216</ele>
        <time>2012-09-21T13:33:44Z</time>
      </trkpt>
      <trkpt lat="46.8762" lon="5.49394">
        <ele>216</ele>
        <time>2012-09-21T13:33:46Z</time>
      </trkpt>
      <trkpt lat="46.87624" lon="5.49375">
        <ele>216</ele>
        <time>2012-09-21T13:33:48Z</time>
      </trkpt>
      <trkpt lat="46.8763" lon="5.49355">
        <ele>216</ele>
        <time>2012-09-21T13:33:50Z</time>
      </trkpt>
      <trkpt lat="46.87634" lon="5.49336">
        <ele>216</ele>
        <time>2012-09-21T13:33:52Z</time>
      </trkpt>
      <trkpt lat="46.87637" lon="5.49318">
        <ele>216</ele>
        <time>2012-09-21T13:33:54Z</time>
      </trkpt>
      <trkpt lat="46.8764" lon="5.493">
        <ele>216</ele>
        <time>2012-09-21T13:33:56Z</time>
      </trkpt>
      <trkpt lat="46.87642" lon="5.49282">
        <ele>216</ele>
        <time>2012-09-21T13:33:58Z</time>
      </trkpt>
      <trkpt lat="46.87644" lon="5.49264">
        <ele>216</ele>
        <time>2012-09-21T13:34:00Z</time>
      </trkpt>
      <trkpt lat="46.87647" lon="5.49249">
        <ele>216</ele>
        <time>2012-09-21T13:34:02Z</time>
      </trkpt>
      <trkpt lat="46.87651" lon="5.49234">
        <ele>216</ele>
        <time>2012-09-21T13:34:04Z</time>
      </trkpt>
      <trkpt lat="46.87655" lon="5.49217">
        <ele>216</ele>
        <time>2012-09-21T13:34:06Z</time>
      </trkpt>
      <trkpt lat="46.87658" lon="5.492">
        <ele>216</ele>
        <time>2012-09-21T13:34:08Z</time>
      </trkpt>
      <trkpt lat="46.87663" lon="5.49182">
        <ele>216</ele>
        <time>2012-09-21T13:34:10Z</time>
      </trkpt>
      <trkpt lat="46.87668" lon="5.49164">
        <ele>216</ele>
        <time>2012-09-21T13:34:12Z</time>
      </trkpt>
      <trkpt lat="46.87672" lon="5.49145">
        <ele>216</ele>
        <time>2012-09-21T13:34:14Z</time>
      </trkpt>
      <trkpt lat="46.87677" lon="5.49126">
        <ele>216</ele>
        <time>2012-09-21T13:34:16Z</time>
      </trkpt>
      <trkpt lat="46.87682" lon="5.49106">
        <ele>216</ele>
        <time>2012-09-21T13:34:18Z</time>
      </trkpt>
      <trkpt lat="46.87687" lon="5.49085">
        <ele>216</ele>
        <time>2012-09-21T13:34:20Z</time>
      </trkpt>
      <trkpt lat="46.87693" lon="5.49064">
        <ele>216</ele>
        <time>2012-09-21T13:34:22Z</time>
      </trkpt>
      <trkpt lat="46.877" lon="5.49042">
        <ele>216</ele>
        <time>2012-09-21T13:34:24Z</time>
      </trkpt>
      <trkpt lat="46.8771" lon="5.49021">
        <ele>216</ele>
        <time>2012-09-21T13:34:26Z</time>
      </trkpt>
      <trkpt lat="46.87721" lon="5.49001">
        <ele>216</ele>
        <time>2012-09-21T13:34:28Z</time>
      </trkpt>
      <trkpt lat="46.87731" lon="5.48982">
        <ele>216</ele>
        <time>2012-09-21T13:34:30Z</time>
      </trkpt>
      <trkpt lat="46.87739" lon="5.48962">
        <ele>216</ele>
        <time>2012-09-21T13:34:32Z</time>
      </trkpt>
      <trkpt lat="46.87745" lon="5.48944">
        <ele>216</ele>
        <time>2012-09-21T13:34:34Z</time>
      </trkpt>
      <trkpt lat="46.87749" lon="5.48926">
        <ele>216</ele>
        <time>2012-09-21T13:34:36Z</time>
      </trkpt>
      <trkpt lat="46.87754" lon="5.48909">
        <ele>216</ele>
        <time>2012-09-21T13:34:38Z</time>
      </trkpt>
      <trkpt lat="46.87758" lon="5.48891">
        <ele>216</ele>
        <time>2012-09-21T13:34:40Z</time>
      </trkpt>
      <trkpt lat="46.87763" lon="5.48873">
        <ele>216</ele>
        <time>2012-09-21T13:34:42Z</time>
      </trkpt>
      <trkpt lat="46.87768" lon="5.48856">
        <ele>216</ele>
        <time>2012-09-21T13:34:44Z</time>
      </trkpt>
      <trkpt lat="46.87772" lon="5.4884">
        <ele>216</ele>
        <time>2012-09-21T13:34:46Z</time>
      </trkpt>
      <trkpt lat="46.87777" lon="5.48824">
        <ele>216</ele>
        <time>2012-09-21T13:34:48Z</time>
      </trkpt>
      <trkpt lat="46.8778" lon="5.48808">
        <ele>216</ele>
        <time>2012-09-21T13:34:50Z</time>
      </trkpt>
      <trkpt lat="46.87785" lon="5.48793">
        <ele>216</ele>
        <time>2012-09-21T13:34:52Z</time>
      </trkpt>
      <trkpt lat="46.87788" lon="5.48779">
        <ele>216</ele>
        <time>2012-09-21T13:34:54Z</time>
      </trkpt>
      <trkpt lat="46.87791" lon="5.48765">
        <ele>216</ele>
        <time>2012-09-21T13:34:56Z</time>
      </trkpt>
      <trkpt lat="46.87794" lon="5.4875">
        <ele>216</ele>
        <time>2012-09-21T13:34:58Z</time>
      </trkpt>
      <trkpt lat="46.87798" lon="5.48737">
        <ele>216</ele>
        <time>2012-09-21T13:35:00Z</time>
      </trkpt>
      <trkpt lat="46.87801" lon="5.48723">
        <ele>216</ele>
        <time>2012-09-21T13:35:02Z</time>
      </trkpt>
      <trkpt lat="46.87803" lon="5.48711">
        <ele>216</ele>
        <time>2012-09-21T13:35:04Z</time>
      </trkpt>
      <trkpt lat="46.87806" lon="5.48698">
        <ele>216</ele>
        <time>2012-09-21T13:35:06Z</time>
      </trkpt>
      <trkpt lat="46.87808" lon="5.48684">
        <ele>216</ele>
        <time>2012-09-21T13:35:08Z</time>
      </trkpt>
      <trkpt lat="46.8781" lon="5.48667">
        <ele>216</ele>
        <time>2012-09-21T13:35:10Z</time>
      </trkpt>
      <trkpt lat="46.8781" lon="5.48646">
        <ele>216</ele>
        <time>2012-09-21T13:35:12Z</time>
      </trkpt>
      <trkpt lat="46.87809" lon="5.48625">
        <ele>216</ele>
        <time>2012-09-21T13:35:14Z</time>
      </trkpt>
      <trkpt lat="46.87806" lon="5.48604">
        <ele>216</ele>
        <time>2012-09-21T13:35:16Z</time>
      </trkpt>
      <trkpt lat="46.87803" lon="5.48582">
        <ele>216</ele>
        <time>2012-09-21T13:35:18Z</time>
      </trkpt>
      <trkpt lat="46.87801" lon="5.48561">
        <ele>216</ele>
        <time>2012-09-21T13:35:20Z</time>
      </trkpt>
      <trkpt lat="46.87799" lon="5.4854">
        <ele>216</ele>
        <time>2012-09-21T13:35:22Z</time>
      </trkpt>
      <trkpt lat="46.87798" lon="5.48519">
        <ele>216</ele>
        <time>2012-09-21T13:35:24Z</time>
      </trkpt>
      <trkpt lat="46.87797" lon="5.485">
        <ele>216</ele>
        <time>2012-09-21T13:35:26Z</time>
      </trkpt>
      <trkpt lat="46.87796" lon="5.48482">
        <ele>216</ele>
        <time>2012-09-21T13:35:28Z</time>
      </trkpt>
      <trkpt lat="46.87794" lon="5.48464">
        <ele>216</ele>
        <time>2012-09-21T13:35:30Z</time>
      </trkpt>
      <trkpt lat="46.87793" lon="5.48444">
        <ele>216</ele>
        <time>2012-09-21T13:35:32Z</time>
      </trkpt>
      <trkpt lat="46.87793" lon="5.48425">
        <ele>216</ele>
        <time>2012-09-21T13:35:34Z</time>
      </trkpt>
      <trkpt lat="46.87793" lon="5.48406">
        <ele>216</ele>
        <time>2012-09-21T13:35:36Z</time>
      </trkpt>
      <trkpt lat="46.87791" lon="5.48389">
        <ele>216</ele>
        <time>2012-09-21T13:35:38Z</time>
      </trkpt>
      <trkpt lat="46.87788" lon="5.48375">
        <ele>216</ele>
        <time>2012-09-21T13:35:40Z</time>
      </trkpt>
      <trkpt lat="46.8779" lon="5.4836">
        <ele>216</ele>
        <time>2012-09-21T13:35:42Z</time>
      </trkpt>
      <trkpt lat="46.87798" lon="5.4835">
        <ele>216</ele>
        <time>2012-09-21T13:35:44Z</time>
      </trkpt>
      <trkpt lat="46.87806" lon="5.48336">
        <ele>216</ele>
        <time>2012-09-21T13:35:46Z</time>
      </trkpt>
      <trkpt lat="46.87813" lon="5.4832">
        <ele>216</ele>
        <time>2012-09-21T13:35:48Z</time>
      </trkpt>
      <trkpt lat="46.8782" lon="5.48303">
        <ele>216</ele>
        <time>2012-09-21T13:35:50Z</time>
      </trkpt>
      <trkpt lat="46.87828" lon="5.48286">
        <ele>216</ele>
        <time>2012-09-21T13:35:52Z</time>
      </trkpt>
      <trkpt lat="46.87835" lon="5.48269">
        <ele>216</ele>
        <time>2012-09-21T13:35:54Z</time>
      </trkpt>
      <trkpt lat="46.87842" lon="5.48251">
        <ele>216</ele>
        <time>2012-09-21T13:35:56Z</time>
      </trkpt>
      <trkpt lat="46.87849" lon="5.48234">
        <ele>216</ele>
        <time>2012-09-21T13:35:58Z</time>
      </trkpt>
      <trkpt lat="46.87857" lon="5.48218">
        <ele>216</ele>
        <time>2012-09-21T13:36:00Z</time>
      </trkpt>
      <trkpt lat="46.87866" lon="5.48203">
        <ele>216</ele>
        <time>2012-09-21T13:36:02Z</time>
      </trkpt>
      <trkpt lat="46.87876" lon="5.48192">
        <ele>216</ele>
        <time>2012-09-21T13:36:04Z</time>
      </trkpt>
      <trkpt lat="46.87887" lon="5.48182">
        <ele>216</ele>
        <time>2012-09-21T13:36:06Z</time>
      </trkpt>
      <trkpt lat="46.87902" lon="5.48177">
        <ele>216</ele>
        <time>2012-09-21T13:36:08Z</time>
      </trkpt>
      <trkpt lat="46.87917" lon="5.48174">
        <ele>216</ele>
        <time>2012-09-21T13:36:10Z</time>
      </trkpt>
      <trkpt lat="46.87933" lon="5.48167">
        <ele>216</ele>
        <time>2012-09-21T13:36:12Z</time>
      </trkpt>
      <trkpt lat="46.87948" lon="5.48155">
        <ele>216</ele>
        <time>2012-09-21T13:36:14Z</time>
      </trkpt>
      <trkpt lat="46.87956" lon="5.48148">
        <ele>216</ele>
        <time>2012-09-21T13:36:15Z</time>
      </trkpt>
      <trkpt lat="46.87964" lon="5.4814">
        <ele>216</ele>
        <time>2012-09-21T13:36:16Z</time>
      </trkpt>
      <trkpt lat="46.87973" lon="5.48135">
        <ele>216</ele>
        <time>2012-09-21T13:36:17Z</time>
      </trkpt>
      <trkpt lat="46.87982" lon="5.4813">
        <ele>216</ele>
        <time>2012-09-21T13:36:18Z</time>
      </trkpt>
      <trkpt lat="46.87991" lon="5.48129">
        <ele>216</ele>
        <time>2012-09-21T13:36:19Z</time>
      </trkpt>
      <trkpt lat="46.88" lon="5.48128">
        <ele>211</ele>
        <time>2012-09-21T13:36:20Z</time>
      </trkpt>
      <trkpt lat="46.88009" lon="5.48129">
        <ele>211</ele>
        <time>2012-09-21T13:36:21Z</time>
      </trkpt>
      <trkpt lat="46.88027" lon="5.48132">
        <ele>211</ele>
        <time>2012-09-21T13:36:23Z</time>
      </trkpt>
      <trkpt lat="46.88044" lon="5.48136">
        <ele>211</ele>
        <time>2012-09-21T13:36:25Z</time>
      </trkpt>
      <trkpt lat="46.8806" lon="5.48141">
        <ele>211</ele>
        <time>2012-09-21T13:36:27Z</time>
      </trkpt>
      <trkpt lat="46.88076" lon="5.48144">
        <ele>211</ele>
        <time>2012-09-21T13:36:29Z</time>
      </trkpt>
      <trkpt lat="46.88091" lon="5.48145">
        <ele>211</ele>
        <time>2012-09-21T13:36:31Z</time>
      </trkpt>
      <trkpt lat="46.88106" lon="5.4814">
        <ele>211</ele>
        <time>2012-09-21T13:36:33Z</time>
      </trkpt>
      <trkpt lat="46.88122" lon="5.48134">
        <ele>211</ele>
        <time>2012-09-21T13:36:35Z</time>
      </trkpt>
      <trkpt lat="46.88136" lon="5.48128">
        <ele>211</ele>
        <time>2012-09-21T13:36:37Z</time>
      </trkpt>
      <trkpt lat="46.8815" lon="5.48123">
        <ele>211</ele>
        <time>2012-09-21T13:36:39Z</time>
      </trkpt>
      <trkpt lat="46.88163" lon="5.48121">
        <ele>211</ele>
        <time>2012-09-21T13:36:41Z</time>
      </trkpt>
      <trkpt lat="46.88175" lon="5.48121">
        <ele>211</ele>
        <time>2012-09-21T13:36:43Z</time>
      </trkpt>
      <trkpt lat="46.88187" lon="5.48122">
        <ele>211</ele>
        <time>2012-09-21T13:36:45Z</time>
      </trkpt>
      <trkpt lat="46.88197" lon="5.4812">
        <ele>211</ele>
        <time>2012-09-21T13:36:47Z</time>
      </trkpt>
      <trkpt lat="46.88208" lon="5.48111">
        <ele>211</ele>
        <time>2012-09-21T13:36:49Z</time>
      </trkpt>
      <trkpt lat="46.88218" lon="5.48099">
        <ele>211</ele>
        <time>2012-09-21T13:36:51Z</time>
      </trkpt>
      <trkpt lat="46.88229" lon="5.48089">
        <ele>211</ele>
        <time>2012-09-21T13:36:53Z</time>
      </trkpt>
      <trkpt lat="46.88241" lon="5.48079">
        <ele>211</ele>
        <time>2012-09-21T13:36:55Z</time>
      </trkpt>
      <trkpt lat="46.88253" lon="5.4807">
        <ele>211</ele>
        <time>2012-09-21T13:36:57Z</time>
      </trkpt>
      <trkpt lat="46.88263" lon="5.48059">
        <ele>211</ele>
        <time>2012-09-21T13:36:59Z</time>
      </trkpt>
      <trkpt lat="46.88271" lon="5.48043">
        <ele>211</ele>
        <time>2012-09-21T13:37:01Z</time>
      </trkpt>
      <trkpt lat="46.88276" lon="5.48026">
        <ele>211</ele>
        <time>2012-09-21T13:37:03Z</time>
      </trkpt>
      <trkpt lat="46.88277" lon="5.48007">
        <ele>211</ele>
        <time>2012-09-21T13:37:05Z</time>
      </trkpt>
      <trkpt lat="46.88276" lon="5.47989">
        <ele>211</ele>
        <time>2012-09-21T13:37:07Z</time>
      </trkpt>
      <trkpt lat="46.88272" lon="5.47973">
        <ele>211</ele>
        <time>2012-09-21T13:37:09Z</time>
      </trkpt>
      <trkpt lat="46.88267" lon="5.47958">
        <ele>217</ele>
        <time>2012-09-21T13:37:11Z</time>
      </trkpt>
      <trkpt lat="46.88264" lon="5.47942">
        <ele>217</ele>
        <time>2012-09-21T13:37:13Z</time>
      </trkpt>
      <trkpt lat="46.88262" lon="5.47926">
        <ele>217</ele>
        <time>2012-09-21T13:37:15Z</time>
      </trkpt>
      <trkpt lat="46.88261" lon="5.4791">
        <ele>217</ele>
        <time>2012-09-21T13:37:17Z</time>
      </trkpt>
      <trkpt lat="46.88261" lon="5.47895">
        <ele>217</ele>
        <time>2012-09-21T13:37:19Z</time>
      </trkpt>
      <trkpt lat="46.88261" lon="5.47881">
        <ele>222</ele>
        <time>2012-09-21T13:37:21Z</time>
      </trkpt>
      <trkpt lat="46.88263" lon="5.47865">
        <ele>222</ele>
        <time>2012-09-21T13:37:23Z</time>
      </trkpt>
      <trkpt lat="46.88263" lon="5.4785">
        <ele>222</ele>
        <time>2012-09-21T13:37:25Z</time>
      </trkpt>
      <trkpt lat="46.88265" lon="5.47835">
        <ele>222</ele>
        <time>2012-09-21T13:37:27Z</time>
      </trkpt>
      <trkpt lat="46.88266" lon="5.47818">
        <ele>222</ele>
        <time>2012-09-21T13:37:29Z</time>
      </trkpt>
      <trkpt lat="46.88268" lon="5.47801">
        <ele>222</ele>
        <time>2012-09-21T13:37:31Z</time>
      </trkpt>
      <trkpt lat="46.88269" lon="5.47783">
        <ele>222</ele>
        <time>2012-09-21T13:37:33Z</time>
      </trkpt>
      <trkpt lat="46.88271" lon="5.47765">
        <ele>222</ele>
        <time>2012-09-21T13:37:35Z</time>
      </trkpt>
      <trkpt lat="46.88272" lon="5.47748">
        <ele>222</ele>
        <time>2012-09-21T13:37:37Z</time>
      </trkpt>
      <trkpt lat="46.88274" lon="5.4773">
        <ele>222</ele>
        <time>2012-09-21T13:37:39Z</time>
      </trkpt>
      <trkpt lat="46.88276" lon="5.47712">
        <ele>222</ele>
        <time>2012-09-21T13:37:41Z</time>
      </trkpt>
      <trkpt lat="46.88277" lon="5.47695">
        <ele>222</ele>
        <time>2012-09-21T13:37:43Z</time>
      </trkpt>
      <trkpt lat="46.88279" lon="5.47678">
        <ele>222</ele>
        <time>2012-09-21T13:37:45Z</time>
      </trkpt>
      <trkpt lat="46.8828" lon="5.47662">
        <ele>222</ele>
        <time>2012-09-21T13:37:47Z</time>
      </trkpt>
      <trkpt lat="46.88282" lon="5.47647">
        <ele>222</ele>
        <time>2012-09-21T13:37:49Z</time>
      </trkpt>
      <trkpt lat="46.88284" lon="5.47632">
        <ele>222</ele>
        <time>2012-09-21T13:37:51Z</time>
      </trkpt>
      <trkpt lat="46.88284" lon="5.47615">
        <ele>222</ele>
        <time>2012-09-21T13:37:53Z</time>
      </trkpt>
      <trkpt lat="46.88285" lon="5.47596">
        <ele>222</ele>
        <time>2012-09-21T13:37:55Z</time>
      </trkpt>
      <trkpt lat="46.88286" lon="5.47574">
        <ele>222</ele>
        <time>2012-09-21T13:37:57Z</time>
      </trkpt>
      <trkpt lat="46.88285" lon="5.47552">
        <ele>222</ele>
        <time>2012-09-21T13:37:59Z</time>
      </trkpt>
      <trkpt lat="46.88282" lon="5.47529">
        <ele>222</ele>
        <time>2012-09-21T13:38:01Z</time>
      </trkpt>
      <trkpt lat="46.8828" lon="5.47503">
        <ele>222</ele>
        <time>2012-09-21T13:38:03Z</time>
      </trkpt>
      <trkpt lat="46.88277" lon="5.47478">
        <ele>222</ele>
        <time>2012-09-21T13:38:05Z</time>
      </trkpt>
      <trkpt lat="46.88276" lon="5.47465">
        <ele>222</ele>
        <time>2012-09-21T13:38:06Z</time>
      </trkpt>
      <trkpt lat="46.88274" lon="5.4745">
        <ele>222</ele>
        <time>2012-09-21T13:38:07Z</time>
      </trkpt>
      <trkpt lat="46.88272" lon="5.47435">
        <ele>222</ele>
        <time>2012-09-21T13:38:08Z</time>
      </trkpt>
      <trkpt lat="46.88272" lon="5.47421">
        <ele>222</ele>
        <time>2012-09-21T13:38:09Z</time>
      </trkpt>
      <trkpt lat="46.88272" lon="5.47406">
        <ele>222</ele>
        <time>2012-09-21T13:38:10Z</time>
      </trkpt>
      <trkpt lat="46.88273" lon="5.47391">
        <ele>222</ele>
        <time>2012-09-21T13:38:11Z</time>
      </trkpt>
      <trkpt lat="46.88274" lon="5.47377">
        <ele>217</ele>
        <time>2012-09-21T13:38:12Z</time>
      </trkpt>
      <trkpt lat="46.88277" lon="5.47362">
        <ele>217</ele>
        <time>2012-09-21T13:38:13Z</time>
      </trkpt>
      <trkpt lat="46.8828" lon="5.47349">
        <ele>217</ele>
        <time>2012-09-21T13:38:14Z</time>
      </trkpt>
      <trkpt lat="46.88284" lon="5.47335">
        <ele>217</ele>
        <time>2012-09-21T13:38:15Z</time>
      </trkpt>
      <trkpt lat="46.88288" lon="5.47323">
        <ele>217</ele>
        <time>2012-09-21T13:38:16Z</time>
      </trkpt>
      <trkpt lat="46.88291" lon="5.47309">
        <ele>217</ele>
        <time>2012-09-21T13:38:17Z</time>
      </trkpt>
      <trkpt lat="46.88298" lon="5.47285">
        <ele>217</ele>
        <time>2012-09-21T13:38:19Z</time>
      </trkpt>
      <trkpt lat="46.88304" lon="5.47262">
        <ele>217</ele>
        <time>2012-09-21T13:38:21Z</time>
      </trkpt>
      <trkpt lat="46.88309" lon="5.47238">
        <ele>217</ele>
        <time>2012-09-21T13:38:23Z</time>
      </trkpt>
      <trkpt lat="46.88313" lon="5.47219">
        <ele>217</ele>
        <time>2012-09-21T13:38:25Z</time>
      </trkpt>
      <trkpt lat="46.88316" lon="5.47205">
        <ele>217</ele>
        <time>2012-09-21T13:38:27Z</time>
      </trkpt>
      <trkpt lat="46.88317" lon="5.4719">
        <ele>217</ele>
        <time>2012-09-21T13:38:30Z</time>
      </trkpt>
      <trkpt lat="46.88319" lon="5.47174">
        <ele>217</ele>
        <time>2012-09-21T13:38:34Z</time>
      </trkpt>
      <trkpt lat="46.88315" lon="5.47161">
        <ele>217</ele>
        <time>2012-09-21T13:38:40Z</time>
      </trkpt>
      <trkpt lat="46.88323" lon="5.4715">
        <ele>217</ele>
        <time>2012-09-21T13:45:40Z</time>
      </trkpt>
      <trkpt lat="46.88324" lon="5.47137">
        <ele>217</ele>
        <time>2012-09-21T13:45:44Z</time>
      </trkpt>
      <trkpt lat="46.88325" lon="5.47123">
        <ele>217</ele>
        <time>2012-09-21T13:45:47Z</time>
      </trkpt>
      <trkpt lat="46.88328" lon="5.47108">
        <ele>217</ele>
        <time>2012-09-21T13:45:50Z</time>
      </trkpt>
      <trkpt lat="46.88329" lon="5.47094">
        <ele>217</ele>
        <time>2012-09-21T13:45:53Z</time>
      </trkpt>
      <trkpt lat="46.88332" lon="5.47078">
        <ele>217</ele>
        <time>2012-09-21T13:45:57Z</time>
      </trkpt>
      <trkpt lat="46.88333" lon="5.47064">
        <ele>217</ele>
        <time>2012-09-21T13:46:00Z</time>
      </trkpt>
      <trkpt lat="46.88335" lon="5.47051">
        <ele>217</ele>
        <time>2012-09-21T13:46:03Z</time>
      </trkpt>
      <trkpt lat="46.88336" lon="5.47034">
        <ele>217</ele>
        <time>2012-09-21T13:46:06Z</time>
      </trkpt>
      <trkpt lat="46.88338" lon="5.4702">
        <ele>217</ele>
        <time>2012-09-21T13:46:08Z</time>
      </trkpt>
      <trkpt lat="46.88339" lon="5.47007">
        <ele>217</ele>
        <time>2012-09-21T13:46:10Z</time>
      </trkpt>
      <trkpt lat="46.88341" lon="5.46992">
        <ele>217</ele>
        <time>2012-09-21T13:46:12Z</time>
      </trkpt>
      <trkpt lat="46.88343" lon="5.46977">
        <ele>217</ele>
        <time>2012-09-21T13:46:14Z</time>
      </trkpt>
      <trkpt lat="46.88344" lon="5.46962">
        <ele>217</ele>
        <time>2012-09-21T13:46:16Z</time>
      </trkpt>
      <trkpt lat="46.88346" lon="5.46946">
        <ele>222</ele>
        <time>2012-09-21T13:46:18Z</time>
      </trkpt>
      <trkpt lat="46.88348" lon="5.46932">
        <ele>222</ele>
        <time>2012-09-21T13:46:20Z</time>
      </trkpt>
      <trkpt lat="46.88349" lon="5.46918">
        <ele>222</ele>
        <time>2012-09-21T13:46:22Z</time>
      </trkpt>
      <trkpt lat="46.88351" lon="5.46902">
        <ele>222</ele>
        <time>2012-09-21T13:46:24Z</time>
      </trkpt>
      <trkpt lat="46.88353" lon="5.46888">
        <ele>222</ele>
        <time>2012-09-21T13:46:26Z</time>
      </trkpt>
      <trkpt lat="46.88356" lon="5.46875">
        <ele>222</ele>
        <time>2012-09-21T13:46:28Z</time>
      </trkpt>
      <trkpt lat="46.88358" lon="5.46862">
        <ele>222</ele>
        <time>2012-09-21T13:46:30Z</time>
      </trkpt>
      <trkpt lat="46.88362" lon="5.46844">
        <ele>222</ele>
        <time>2012-09-21T13:46:33Z</time>
      </trkpt>
      <trkpt lat="46.88366" lon="5.46828">
        <ele>222</ele>
        <time>2012-09-21T13:46:36Z</time>
      </trkpt>
      <trkpt lat="46.88371" lon="5.46813">
        <ele>222</ele>
        <time>2012-09-21T13:46:39Z</time>
      </trkpt>
      <trkpt lat="46.88377" lon="5.46797">
        <ele>222</ele>
        <time>2012-09-21T13:46:42Z</time>
      </trkpt>
      <trkpt lat="46.88383" lon="5.46781">
        <ele>222</ele>
        <time>2012-09-21T13:46:45Z</time>
      </trkpt>
      <trkpt lat="46.88388" lon="5.4677">
        <ele>222</ele>
        <time>2012-09-21T13:46:47Z</time>
      </trkpt>
      <trkpt lat="46.88393" lon="5.46758">
        <ele>222</ele>
        <time>2012-09-21T13:46:49Z</time>
      </trkpt>
      <trkpt lat="46.88397" lon="5.46746">
        <ele>222</ele>
        <time>2012-09-21T13:46:51Z</time>
      </trkpt>
      <trkpt lat="46.88402" lon="5.46734">
        <ele>222</ele>
        <time>2012-09-21T13:46:53Z</time>
      </trkpt>
      <trkpt lat="46.88407" lon="5.46723">
        <ele>222</ele>
        <time>2012-09-21T13:46:55Z</time>
      </trkpt>
      <trkpt lat="46.88412" lon="5.4671">
        <ele>222</ele>
        <time>2012-09-21T13:46:57Z</time>
      </trkpt>
      <trkpt lat="46.88418" lon="5.46698">
        <ele>222</ele>
        <time>2012-09-21T13:46:59Z</time>
      </trkpt>
      <trkpt lat="46.88423" lon="5.46685">
        <ele>222</ele>
        <time>2012-09-21T13:47:01Z</time>
      </trkpt>
      <trkpt lat="46.88428" lon="5.46673">
        <ele>222</ele>
        <time>2012-09-21T13:47:03Z</time>
      </trkpt>
      <trkpt lat="46.88434" lon="5.46661">
        <ele>222</ele>
        <time>2012-09-21T13:47:05Z</time>
      </trkpt>
      <trkpt lat="46.8844" lon="5.46649">
        <ele>222</ele>
        <time>2012-09-21T13:47:07Z</time>
      </trkpt>
      <trkpt lat="46.88446" lon="5.46637">
        <ele>222</ele>
        <time>2012-09-21T13:47:09Z</time>
      </trkpt>
      <trkpt lat="46.88454" lon="5.46626">
        <ele>227</ele>
        <time>2012-09-21T13:47:11Z</time>
      </trkpt>
      <trkpt lat="46.88461" lon="5.46613">
        <ele>227</ele>
        <time>2012-09-21T13:47:13Z</time>
      </trkpt>
      <trkpt lat="46.88468" lon="5.46601">
        <ele>227</ele>
        <time>2012-09-21T13:47:15Z</time>
      </trkpt>
      <trkpt lat="46.88476" lon="5.46587">
        <ele>227</ele>
        <time>2012-09-21T13:47:17Z</time>
      </trkpt>
      <trkpt lat="46.88484" lon="5.46574">
        <ele>227</ele>
        <time>2012-09-21T13:47:19Z</time>
      </trkpt>
      <trkpt lat="46.88491" lon="5.46561">
        <ele>227</ele>
        <time>2012-09-21T13:47:21Z</time>
      </trkpt>
      <trkpt lat="46.88498" lon="5.46548">
        <ele>227</ele>
        <time>2012-09-21T13:47:23Z</time>
      </trkpt>
      <trkpt lat="46.88506" lon="5.46535">
        <ele>227</ele>
        <time>2012-09-21T13:47:25Z</time>
      </trkpt>
      <trkpt lat="46.88513" lon="5.46522">
        <ele>227</ele>
        <time>2012-09-21T13:47:27Z</time>
      </trkpt>
      <trkpt lat="46.88521" lon="5.46507">
        <ele>227</ele>
        <time>2012-09-21T13:47:29Z</time>
      </trkpt>
      <trkpt lat="46.88529" lon="5.46492">
        <ele>227</ele>
        <time>2012-09-21T13:47:31Z</time>
      </trkpt>
      <trkpt lat="46.88535" lon="5.46476">
        <ele>227</ele>
        <time>2012-09-21T13:47:33Z</time>
      </trkpt>
      <trkpt lat="46.8854" lon="5.46459">
        <ele>227</ele>
        <time>2012-09-21T13:47:35Z</time>
      </trkpt>
      <trkpt lat="46.88543" lon="5.46441">
        <ele>227</ele>
        <time>2012-09-21T13:47:37Z</time>
      </trkpt>
      <trkpt lat="46.88546" lon="5.46421">
        <ele>227</ele>
        <time>2012-09-21T13:47:39Z</time>
      </trkpt>
      <trkpt lat="46.88547" lon="5.464">
        <ele>227</ele>
        <time>2012-09-21T13:47:41Z</time>
      </trkpt>
      <trkpt lat="46.88549" lon="5.46379">
        <ele>227</ele>
        <time>2012-09-21T13:47:43Z</time>
      </trkpt>
      <trkpt lat="46.8855" lon="5.46355">
        <ele>227</ele>
        <time>2012-09-21T13:47:45Z</time>
      </trkpt>
      <trkpt lat="46.88552" lon="5.46331">
        <ele>227</ele>
        <time>2012-09-21T13:47:47Z</time>
      </trkpt>
      <trkpt lat="46.88554" lon="5.46307">
        <ele>227</ele>
        <time>2012-09-21T13:47:49Z</time>
      </trkpt>
      <trkpt lat="46.88555" lon="5.46293">
        <ele>227</ele>
        <time>2012-09-21T13:47:50Z</time>
      </trkpt>
      <trkpt lat="46.88556" lon="5.46267">
        <ele>221</ele>
        <time>2012-09-21T13:47:52Z</time>
      </trkpt>
      <trkpt lat="46.88558" lon="5.46241">
        <ele>221</ele>
        <time>2012-09-21T13:47:54Z</time>
      </trkpt>
      <trkpt lat="46.88559" lon="5.46215">
        <ele>221</ele>
        <time>2012-09-21T13:47:56Z</time>
      </trkpt>
      <trkpt lat="46.8856" lon="5.46202">
        <ele>221</ele>
        <time>2012-09-21T13:47:57Z</time>
      </trkpt>
      <trkpt lat="46.88562" lon="5.46176">
        <ele>221</ele>
        <time>2012-09-21T13:47:59Z</time>
      </trkpt>
      <trkpt lat="46.88563" lon="5.46162">
        <ele>221</ele>
        <time>2012-09-21T13:48:00Z</time>
      </trkpt>
      <trkpt lat="46.88566" lon="5.46136">
        <ele>221</ele>
        <time>2012-09-21T13:48:02Z</time>
      </trkpt>
      <trkpt lat="46.88569" lon="5.46124">
        <ele>216</ele>
        <time>2012-09-21T13:48:03Z</time>
      </trkpt>
      <trkpt lat="46.88578" lon="5.461">
        <ele>216</ele>
        <time>2012-09-21T13:48:05Z</time>
      </trkpt>
      <trkpt lat="46.88588" lon="5.46081">
        <ele>216</ele>
        <time>2012-09-21T13:48:07Z</time>
      </trkpt>
      <trkpt lat="46.88599" lon="5.46061">
        <ele>216</ele>
        <time>2012-09-21T13:48:09Z</time>
      </trkpt>
      <trkpt lat="46.88609" lon="5.4604">
        <ele>211</ele>
        <time>2012-09-21T13:48:11Z</time>
      </trkpt>
      <trkpt lat="46.88616" lon="5.46017">
        <ele>211</ele>
        <time>2012-09-21T13:48:13Z</time>
      </trkpt>
      <trkpt lat="46.88619" lon="5.45992">
        <ele>211</ele>
        <time>2012-09-21T13:48:15Z</time>
      </trkpt>
      <trkpt lat="46.88615" lon="5.45968">
        <ele>211</ele>
        <time>2012-09-21T13:48:17Z</time>
      </trkpt>
      <trkpt lat="46.88609" lon="5.45945">
        <ele>211</ele>
        <time>2012-09-21T13:48:19Z</time>
      </trkpt>
      <trkpt lat="46.88609" lon="5.45921">
        <ele>211</ele>
        <time>2012-09-21T13:48:21Z</time>
      </trkpt>
      <trkpt lat="46.88614" lon="5.45898">
        <ele>211</ele>
        <time>2012-09-21T13:48:23Z</time>
      </trkpt>
      <trkpt lat="46.88622" lon="5.45877">
        <ele>211</ele>
        <time>2012-09-21T13:48:25Z</time>
      </trkpt>
      <trkpt lat="46.88627" lon="5.45856">
        <ele>211</ele>
        <time>2012-09-21T13:48:27Z</time>
      </trkpt>
      <trkpt lat="46.8863" lon="5.45838">
        <ele>211</ele>
        <time>2012-09-21T13:48:29Z</time>
      </trkpt>
      <trkpt lat="46.88634" lon="5.45819">
        <ele>211</ele>
        <time>2012-09-21T13:48:31Z</time>
      </trkpt>
      <trkpt lat="46.88643" lon="5.45805">
        <ele>211</ele>
        <time>2012-09-21T13:48:33Z</time>
      </trkpt>
      <trkpt lat="46.88655" lon="5.45794">
        <ele>211</ele>
        <time>2012-09-21T13:48:35Z</time>
      </trkpt>
      <trkpt lat="46.88666" lon="5.45782">
        <ele>211</ele>
        <time>2012-09-21T13:48:37Z</time>
      </trkpt>
      <trkpt lat="46.88677" lon="5.45771">
        <ele>211</ele>
        <time>2012-09-21T13:48:39Z</time>
      </trkpt>
      <trkpt lat="46.88689" lon="5.45761">
        <ele>211</ele>
        <time>2012-09-21T13:48:41Z</time>
      </trkpt>
      <trkpt lat="46.887" lon="5.45757">
        <ele>211</ele>
        <time>2012-09-21T13:48:43Z</time>
      </trkpt>
      <trkpt lat="46.8871" lon="5.45764">
        <ele>211</ele>
        <time>2012-09-21T13:48:45Z</time>
      </trkpt>
      <trkpt lat="46.8872" lon="5.45773">
        <ele>211</ele>
        <time>2012-09-21T13:48:47Z</time>
      </trkpt>
      <trkpt lat="46.88731" lon="5.4578">
        <ele>211</ele>
        <time>2012-09-21T13:48:49Z</time>
      </trkpt>
      <trkpt lat="46.88742" lon="5.45785">
        <ele>211</ele>
        <time>2012-09-21T13:48:51Z</time>
      </trkpt>
      <trkpt lat="46.88753" lon="5.45789">
        <ele>211</ele>
        <time>2012-09-21T13:48:53Z</time>
      </trkpt>
      <trkpt lat="46.88764" lon="5.45795">
        <ele>211</ele>
        <time>2012-09-21T13:48:55Z</time>
      </trkpt>
      <trkpt lat="46.88775" lon="5.458">
        <ele>211</ele>
        <time>2012-09-21T13:48:57Z</time>
      </trkpt>
      <trkpt lat="46.88785" lon="5.45807">
        <ele>211</ele>
        <time>2012-09-21T13:48:59Z</time>
      </trkpt>
      <trkpt lat="46.88797" lon="5.45812">
        <ele>211</ele>
        <time>2012-09-21T13:49:01Z</time>
      </trkpt>
      <trkpt lat="46.88808" lon="5.45817">
        <ele>211</ele>
        <time>2012-09-21T13:49:03Z</time>
      </trkpt>
      <trkpt lat="46.88818" lon="5.45821">
        <ele>211</ele>
        <time>2012-09-21T13:49:05Z</time>
      </trkpt>
      <trkpt lat="46.8883" lon="5.45824">
        <ele>211</ele>
        <time>2012-09-21T13:49:07Z</time>
      </trkpt>
      <trkpt lat="46.88842" lon="5.45825">
        <ele>211</ele>
        <time>2012-09-21T13:49:09Z</time>
      </trkpt>
      <trkpt lat="46.88854" lon="5.45826">
        <ele>211</ele>
        <time>2012-09-21T13:49:11Z</time>
      </trkpt>
      <trkpt lat="46.88866" lon="5.45825">
        <ele>211</ele>
        <time>2012-09-21T13:49:13Z</time>
      </trkpt>
      <trkpt lat="46.88877" lon="5.45821">
        <ele>211</ele>
        <time>2012-09-21T13:49:15Z</time>
      </trkpt>
      <trkpt lat="46.8889" lon="5.45816">
        <ele>211</ele>
        <time>2012-09-21T13:49:17Z</time>
      </trkpt>
      <trkpt lat="46.88902" lon="5.45812">
        <ele>211</ele>
        <time>2012-09-21T13:49:19Z</time>
      </trkpt>
      <trkpt lat="46.88915" lon="5.45807">
        <ele>211</ele>
        <time>2012-09-21T13:49:21Z</time>
      </trkpt>
      <trkpt lat="46.88928" lon="5.45801">
        <ele>211</ele>
        <time>2012-09-21T13:49:23Z</time>
      </trkpt>
      <trkpt lat="46.88941" lon="5.45796">
        <ele>211</ele>
        <time>2012-09-21T13:49:25Z</time>
      </trkpt>
      <trkpt lat="46.88954" lon="5.45791">
        <ele>211</ele>
        <time>2012-09-21T13:49:27Z</time>
      </trkpt>
      <trkpt lat="46.88966" lon="5.45786">
        <ele>211</ele>
        <time>2012-09-21T13:49:29Z</time>
      </trkpt>
      <trkpt lat="46.88979" lon="5.4578">
        <ele>211</ele>
        <time>2012-09-21T13:49:31Z</time>
      </trkpt>
      <trkpt lat="46.88992" lon="5.45776">
        <ele>211</ele>
        <time>2012-09-21T13:49:33Z</time>
      </trkpt>
      <trkpt lat="46.89005" lon="5.45771">
        <ele>211</ele>
        <time>2012-09-21T13:49:35Z</time>
      </trkpt>
      <trkpt lat="46.89017" lon="5.45765">
        <ele>211</ele>
        <time>2012-09-21T13:49:37Z</time>
      </trkpt>
      <trkpt lat="46.89029" lon="5.45761">
        <ele>211</ele>
        <time>2012-09-21T13:49:39Z</time>
      </trkpt>
      <trkpt lat="46.89041" lon="5.45756">
        <ele>211</ele>
        <time>2012-09-21T13:49:41Z</time>
      </trkpt>
      <trkpt lat="46.89052" lon="5.45751">
        <ele>211</ele>
        <time>2012-09-21T13:49:43Z</time>
      </trkpt>
      <trkpt lat="46.89063" lon="5.45746">
        <ele>211</ele>
        <time>2012-09-21T13:49:45Z</time>
      </trkpt>
      <trkpt lat="46.89073" lon="5.45742">
        <ele>211</ele>
        <time>2012-09-21T13:49:47Z</time>
      </trkpt>
      <trkpt lat="46.89083" lon="5.45738">
        <ele>211</ele>
        <time>2012-09-21T13:49:49Z</time>
      </trkpt>
      <trkpt lat="46.89093" lon="5.45735">
        <ele>217</ele>
        <time>2012-09-21T13:49:51Z</time>
      </trkpt>
      <trkpt lat="46.89102" lon="5.4573">
        <ele>217</ele>
        <time>2012-09-21T13:49:53Z</time>
      </trkpt>
      <trkpt lat="46.89112" lon="5.45727">
        <ele>217</ele>
        <time>2012-09-21T13:49:55Z</time>
      </trkpt>
      <trkpt lat="46.89122" lon="5.45723">
        <ele>217</ele>
        <time>2012-09-21T13:49:57Z</time>
      </trkpt>
      <trkpt lat="46.89132" lon="5.45719">
        <ele>217</ele>
        <time>2012-09-21T13:49:59Z</time>
      </trkpt>
      <trkpt lat="46.89141" lon="5.45716">
        <ele>217</ele>
        <time>2012-09-21T13:50:01Z</time>
      </trkpt>
      <trkpt lat="46.89151" lon="5.45711">
        <ele>217</ele>
        <time>2012-09-21T13:50:03Z</time>
      </trkpt>
      <trkpt lat="46.8916" lon="5.45707">
        <ele>217</ele>
        <time>2012-09-21T13:50:05Z</time>
      </trkpt>
      <trkpt lat="46.89169" lon="5.45703">
        <ele>217</ele>
        <time>2012-09-21T13:50:07Z</time>
      </trkpt>
      <trkpt lat="46.8918" lon="5.45699">
        <ele>217</ele>
        <time>2012-09-21T13:50:09Z</time>
      </trkpt>
      <trkpt lat="46.89189" lon="5.45695">
        <ele>217</ele>
        <time>2012-09-21T13:50:11Z</time>
      </trkpt>
      <trkpt lat="46.892" lon="5.45691">
        <ele>222</ele>
        <time>2012-09-21T13:50:13Z</time>
      </trkpt>
      <trkpt lat="46.89211" lon="5.45687">
        <ele>222</ele>
        <time>2012-09-21T13:50:15Z</time>
      </trkpt>
      <trkpt lat="46.89223" lon="5.45682">
        <ele>222</ele>
        <time>2012-09-21T13:50:17Z</time>
      </trkpt>
      <trkpt lat="46.89235" lon="5.45676">
        <ele>222</ele>
        <time>2012-09-21T13:50:19Z</time>
      </trkpt>
      <trkpt lat="46.89247" lon="5.45672">
        <ele>222</ele>
        <time>2012-09-21T13:50:21Z</time>
      </trkpt>
      <trkpt lat="46.8926" lon="5.45666">
        <ele>222</ele>
        <time>2012-09-21T13:50:23Z</time>
      </trkpt>
      <trkpt lat="46.89274" lon="5.45661">
        <ele>222</ele>
        <time>2012-09-21T13:50:25Z</time>
      </trkpt>
      <trkpt lat="46.89286" lon="5.45656">
        <ele>222</ele>
        <time>2012-09-21T13:50:27Z</time>
      </trkpt>
      <trkpt lat="46.89299" lon="5.4565">
        <ele>222</ele>
        <time>2012-09-21T13:50:29Z</time>
      </trkpt>
      <trkpt lat="46.89313" lon="5.45645">
        <ele>222</ele>
        <time>2012-09-21T13:50:31Z</time>
      </trkpt>
      <trkpt lat="46.89326" lon="5.45639">
        <ele>222</ele>
        <time>2012-09-21T13:50:33Z</time>
      </trkpt>
      <trkpt lat="46.8934" lon="5.45634">
        <ele>222</ele>
        <time>2012-09-21T13:50:35Z</time>
      </trkpt>
      <trkpt lat="46.89354" lon="5.45629">
        <ele>222</ele>
        <time>2012-09-21T13:50:37Z</time>
      </trkpt>
      <trkpt lat="46.89369" lon="5.45621">
        <ele>222</ele>
        <time>2012-09-21T13:50:39Z</time>
      </trkpt>
      <trkpt lat="46.89385" lon="5.45614">
        <ele>222</ele>
        <time>2012-09-21T13:50:41Z</time>
      </trkpt>
      <trkpt lat="46.89402" lon="5.45604">
        <ele>222</ele>
        <time>2012-09-21T13:50:43Z</time>
      </trkpt>
      <trkpt lat="46.89411" lon="5.45599">
        <ele>222</ele>
        <time>2012-09-21T13:50:44Z</time>
      </trkpt>
      <trkpt lat="46.8942" lon="5.45594">
        <ele>222</ele>
        <time>2012-09-21T13:50:45Z</time>
      </trkpt>
      <trkpt lat="46.89429" lon="5.45587">
        <ele>222</ele>
        <time>2012-09-21T13:50:46Z</time>
      </trkpt>
      <trkpt lat="46.89438" lon="5.4558">
        <ele>222</ele>
        <time>2012-09-21T13:50:47Z</time>
      </trkpt>
      <trkpt lat="46.89447" lon="5.45574">
        <ele>222</ele>
        <time>2012-09-21T13:50:48Z</time>
      </trkpt>
      <trkpt lat="46.89457" lon="5.45568">
        <ele>222</ele>
        <time>2012-09-21T13:50:49Z</time>
      </trkpt>
      <trkpt lat="46.89467" lon="5.4556">
        <ele>217</ele>
        <time>2012-09-21T13:50:50Z</time>
      </trkpt>
      <trkpt lat="46.89476" lon="5.45553">
        <ele>217</ele>
        <time>2012-09-21T13:50:51Z</time>
      </trkpt>
      <trkpt lat="46.89486" lon="5.45546">
        <ele>217</ele>
        <time>2012-09-21T13:50:52Z</time>
      </trkpt>
      <trkpt lat="46.89497" lon="5.45539">
        <ele>217</ele>
        <time>2012-09-21T13:50:53Z</time>
      </trkpt>
      <trkpt lat="46.89507" lon="5.45532">
        <ele>217</ele>
        <time>2012-09-21T13:50:54Z</time>
      </trkpt>
      <trkpt lat="46.89518" lon="5.45524">
        <ele>217</ele>
        <time>2012-09-21T13:50:55Z</time>
      </trkpt>
      <trkpt lat="46.89529" lon="5.45515">
        <ele>217</ele>
        <time>2012-09-21T13:50:56Z</time>
      </trkpt>
      <trkpt lat="46.89539" lon="5.45508">
        <ele>217</ele>
        <time>2012-09-21T13:50:57Z</time>
      </trkpt>
      <trkpt lat="46.89549" lon="5.455">
        <ele>217</ele>
        <time>2012-09-21T13:50:58Z</time>
      </trkpt>
      <trkpt lat="46.8956" lon="5.45493">
        <ele>217</ele>
        <time>2012-09-21T13:50:59Z</time>
      </trkpt>
      <trkpt lat="46.89569" lon="5.45486">
        <ele>217</ele>
        <time>2012-09-21T13:51:00Z</time>
      </trkpt>
      <trkpt lat="46.89579" lon="5.45479">
        <ele>217</ele>
        <time>2012-09-21T13:51:01Z</time>
      </trkpt>
      <trkpt lat="46.89589" lon="5.45472">
        <ele>217</ele>
        <time>2012-09-21T13:51:02Z</time>
      </trkpt>
      <trkpt lat="46.89598" lon="5.45466">
        <ele>217</ele>
        <time>2012-09-21T13:51:03Z</time>
      </trkpt>
      <trkpt lat="46.89607" lon="5.4546">
        <ele>217</ele>
        <time>2012-09-21T13:51:04Z</time>
      </trkpt>
      <trkpt lat="46.89616" lon="5.45453">
        <ele>217</ele>
        <time>2012-09-21T13:51:05Z</time>
      </trkpt>
      <trkpt lat="46.89624" lon="5.45447">
        <ele>217</ele>
        <time>2012-09-21T13:51:06Z</time>
      </trkpt>
      <trkpt lat="46.8964" lon="5.45436">
        <ele>217</ele>
        <time>2012-09-21T13:51:08Z</time>
      </trkpt>
      <trkpt lat="46.89655" lon="5.45426">
        <ele>217</ele>
        <time>2012-09-21T13:51:10Z</time>
      </trkpt>
      <trkpt lat="46.89663" lon="5.45419">
        <ele>217</ele>
        <time>2012-09-21T13:51:11Z</time>
      </trkpt>
      <trkpt lat="46.89677" lon="5.45408">
        <ele>217</ele>
        <time>2012-09-21T13:51:13Z</time>
      </trkpt>
      <trkpt lat="46.89693" lon="5.45397">
        <ele>211</ele>
        <time>2012-09-21T13:51:15Z</time>
      </trkpt>
      <trkpt lat="46.89709" lon="5.45386">
        <ele>211</ele>
        <time>2012-09-21T13:51:17Z</time>
      </trkpt>
      <trkpt lat="46.89717" lon="5.4538">
        <ele>211</ele>
        <time>2012-09-21T13:51:18Z</time>
      </trkpt>
      <trkpt lat="46.89725" lon="5.45374">
        <ele>211</ele>
        <time>2012-09-21T13:51:19Z</time>
      </trkpt>
      <trkpt lat="46.89734" lon="5.45368">
        <ele>211</ele>
        <time>2012-09-21T13:51:20Z</time>
      </trkpt>
      <trkpt lat="46.89744" lon="5.45363">
        <ele>211</ele>
        <time>2012-09-21T13:51:21Z</time>
      </trkpt>
      <trkpt lat="46.89754" lon="5.45358">
        <ele>211</ele>
        <time>2012-09-21T13:51:22Z</time>
      </trkpt>
      <trkpt lat="46.89765" lon="5.45355">
        <ele>211</ele>
        <time>2012-09-21T13:51:23Z</time>
      </trkpt>
      <trkpt lat="46.89775" lon="5.45353">
        <ele>211</ele>
        <time>2012-09-21T13:51:24Z</time>
      </trkpt>
      <trkpt lat="46.89786" lon="5.45353">
        <ele>211</ele>
        <time>2012-09-21T13:51:25Z</time>
      </trkpt>
      <trkpt lat="46.89796" lon="5.45354">
        <ele>211</ele>
        <time>2012-09-21T13:51:26Z</time>
      </trkpt>
      <trkpt lat="46.89806" lon="5.45356">
        <ele>211</ele>
        <time>2012-09-21T13:51:27Z</time>
      </trkpt>
      <trkpt lat="46.89816" lon="5.4536">
        <ele>211</ele>
        <time>2012-09-21T13:51:28Z</time>
      </trkpt>
      <trkpt lat="46.89826" lon="5.45365">
        <ele>211</ele>
        <time>2012-09-21T13:51:29Z</time>
      </trkpt>
      <trkpt lat="46.89835" lon="5.4537">
        <ele>211</ele>
        <time>2012-09-21T13:51:30Z</time>
      </trkpt>
      <trkpt lat="46.89843" lon="5.45377">
        <ele>211</ele>
        <time>2012-09-21T13:51:31Z</time>
      </trkpt>
      <trkpt lat="46.89851" lon="5.45383">
        <ele>211</ele>
        <time>2012-09-21T13:51:32Z</time>
      </trkpt>
      <trkpt lat="46.89859" lon="5.45391">
        <ele>211</ele>
        <time>2012-09-21T13:51:33Z</time>
      </trkpt>
      <trkpt lat="46.89867" lon="5.45399">
        <ele>211</ele>
        <time>2012-09-21T13:51:34Z</time>
      </trkpt>
      <trkpt lat="46.89875" lon="5.45406">
        <ele>211</ele>
        <time>2012-09-21T13:51:35Z</time>
      </trkpt>
      <trkpt lat="46.8989" lon="5.45421">
        <ele>211</ele>
        <time>2012-09-21T13:51:37Z</time>
      </trkpt>
      <trkpt lat="46.89898" lon="5.45427">
        <ele>211</ele>
        <time>2012-09-21T13:51:38Z</time>
      </trkpt>
      <trkpt lat="46.89913" lon="5.45442">
        <ele>211</ele>
        <time>2012-09-21T13:51:40Z</time>
      </trkpt>
      <trkpt lat="46.89922" lon="5.45448">
        <ele>206</ele>
        <time>2012-09-21T13:51:41Z</time>
      </trkpt>
      <trkpt lat="46.8993" lon="5.45454">
        <ele>206</ele>
        <time>2012-09-21T13:51:42Z</time>
      </trkpt>
      <trkpt lat="46.89939" lon="5.4546">
        <ele>206</ele>
        <time>2012-09-21T13:51:43Z</time>
      </trkpt>
      <trkpt lat="46.89949" lon="5.45465">
        <ele>206</ele>
        <time>2012-09-21T13:51:44Z</time>
      </trkpt>
      <trkpt lat="46.89959" lon="5.45468">
        <ele>206</ele>
        <time>2012-09-21T13:51:45Z</time>
      </trkpt>
      <trkpt lat="46.89969" lon="5.45469">
        <ele>206</ele>
        <time>2012-09-21T13:51:46Z</time>
      </trkpt>
      <trkpt lat="46.89979" lon="5.45468">
        <ele>206</ele>
        <time>2012-09-21T13:51:47Z</time>
      </trkpt>
      <trkpt lat="46.89989" lon="5.45467">
        <ele>206</ele>
        <time>2012-09-21T13:51:48Z</time>
      </trkpt>
      <trkpt lat="46.89999" lon="5.45464">
        <ele>206</ele>
        <time>2012-09-21T13:51:49Z</time>
      </trkpt>
      <trkpt lat="46.90009" lon="5.45462">
        <ele>206</ele>
        <time>2012-09-21T13:51:50Z</time>
      </trkpt>
      <trkpt lat="46.90018" lon="5.4546">
        <ele>206</ele>
        <time>2012-09-21T13:51:51Z</time>
      </trkpt>
      <trkpt lat="46.90028" lon="5.45458">
        <ele>206</ele>
        <time>2012-09-21T13:51:52Z</time>
      </trkpt>
      <trkpt lat="46.90037" lon="5.45455">
        <ele>206</ele>
        <time>2012-09-21T13:51:53Z</time>
      </trkpt>
      <trkpt lat="46.90046" lon="5.45453">
        <ele>206</ele>
        <time>2012-09-21T13:51:54Z</time>
      </trkpt>
      <trkpt lat="46.90063" lon="5.45447">
        <ele>206</ele>
        <time>2012-09-21T13:51:56Z</time>
      </trkpt>
      <trkpt lat="46.90079" lon="5.45437">
        <ele>206</ele>
        <time>2012-09-21T13:51:58Z</time>
      </trkpt>
      <trkpt lat="46.90093" lon="5.45425">
        <ele>206</ele>
        <time>2012-09-21T13:52:00Z</time>
      </trkpt>
      <trkpt lat="46.90105" lon="5.45412">
        <ele>206</ele>
        <time>2012-09-21T13:52:02Z</time>
      </trkpt>
      <trkpt lat="46.90116" lon="5.454">
        <ele>206</ele>
        <time>2012-09-21T13:52:04Z</time>
      </trkpt>
      <trkpt lat="46.90125" lon="5.45392">
        <ele>206</ele>
        <time>2012-09-21T13:52:06Z</time>
      </trkpt>
      <trkpt lat="46.90133" lon="5.45383">
        <ele>206</ele>
        <time>2012-09-21T13:52:08Z</time>
      </trkpt>
      <trkpt lat="46.90143" lon="5.45374">
        <ele>206</ele>
        <time>2012-09-21T13:52:10Z</time>
      </trkpt>
      <trkpt lat="46.90151" lon="5.45365">
        <ele>206</ele>
        <time>2012-09-21T13:52:12Z</time>
      </trkpt>
      <trkpt lat="46.90159" lon="5.45357">
        <ele>212</ele>
        <time>2012-09-21T13:52:14Z</time>
      </trkpt>
      <trkpt lat="46.9017" lon="5.45347">
        <ele>212</ele>
        <time>2012-09-21T13:52:17Z</time>
      </trkpt>
      <trkpt lat="46.90178" lon="5.45339">
        <ele>212</ele>
        <time>2012-09-21T13:52:19Z</time>
      </trkpt>
      <trkpt lat="46.90189" lon="5.45329">
        <ele>212</ele>
        <time>2012-09-21T13:52:22Z</time>
      </trkpt>
      <trkpt lat="46.90197" lon="5.45314">
        <ele>218</ele>
        <time>2012-09-21T13:52:25Z</time>
      </trkpt>
      <trkpt lat="46.90202" lon="5.45303">
        <ele>218</ele>
        <time>2012-09-21T13:52:27Z</time>
      </trkpt>
      <trkpt lat="46.90212" lon="5.45293">
        <ele>218</ele>
        <time>2012-09-21T13:52:30Z</time>
      </trkpt>
      <trkpt lat="46.90223" lon="5.45299">
        <ele>218</ele>
        <time>2012-09-21T13:52:33Z</time>
      </trkpt>
      <trkpt lat="46.90229" lon="5.45313">
        <ele>218</ele>
        <time>2012-09-21T13:52:36Z</time>
      </trkpt>
      <trkpt lat="46.90237" lon="5.4533">
        <ele>218</ele>
        <time>2012-09-21T13:52:39Z</time>
      </trkpt>
      <trkpt lat="46.90242" lon="5.4534">
        <ele>218</ele>
        <time>2012-09-21T13:52:41Z</time>
      </trkpt>
      <trkpt lat="46.90248" lon="5.45352">
        <ele>218</ele>
        <time>2012-09-21T13:52:43Z</time>
      </trkpt>
      <trkpt lat="46.90253" lon="5.45364">
        <ele>218</ele>
        <time>2012-09-21T13:52:45Z</time>
      </trkpt>
      <trkpt lat="46.90259" lon="5.45375">
        <ele>218</ele>
        <time>2012-09-21T13:52:47Z</time>
      </trkpt>
      <trkpt lat="46.90265" lon="5.45387">
        <ele>218</ele>
        <time>2012-09-21T13:52:49Z</time>
      </trkpt>
      <trkpt lat="46.90271" lon="5.454">
        <ele>218</ele>
        <time>2012-09-21T13:52:51Z</time>
      </trkpt>
      <trkpt lat="46.90278" lon="5.45412">
        <ele>218</ele>
        <time>2012-09-21T13:52:53Z</time>
      </trkpt>
      <trkpt lat="46.90284" lon="5.45427">
        <ele>218</ele>
        <time>2012-09-21T13:52:55Z</time>
      </trkpt>
      <trkpt lat="46.90291" lon="5.4544">
        <ele>218</ele>
        <time>2012-09-21T13:52:57Z</time>
      </trkpt>
      <trkpt lat="46.90298" lon="5.45454">
        <ele>218</ele>
        <time>2012-09-21T13:52:59Z</time>
      </trkpt>
      <trkpt lat="46.90304" lon="5.45469">
        <ele>218</ele>
        <time>2012-09-21T13:53:01Z</time>
      </trkpt>
      <trkpt lat="46.9031" lon="5.45483">
        <ele>218</ele>
        <time>2012-09-21T13:53:03Z</time>
      </trkpt>
      <trkpt lat="46.90316" lon="5.45498">
        <ele>218</ele>
        <time>2012-09-21T13:53:05Z</time>
      </trkpt>
      <trkpt lat="46.90321" lon="5.45513">
        <ele>218</ele>
        <time>2012-09-21T13:53:07Z</time>
      </trkpt>
      <trkpt lat="46.90327" lon="5.45528">
        <ele>218</ele>
        <time>2012-09-21T13:53:09Z</time>
      </trkpt>
      <trkpt lat="46.90334" lon="5.45542">
        <ele>218</ele>
        <time>2012-09-21T13:53:11Z</time>
      </trkpt>
      <trkpt lat="46.9034" lon="5.45557">
        <ele>218</ele>
        <time>2012-09-21T13:53:13Z</time>
      </trkpt>
      <trkpt lat="46.90348" lon="5.45566">
        <ele>218</ele>
        <time>2012-09-21T13:53:15Z</time>
      </trkpt>
      <trkpt lat="46.90358" lon="5.45564">
        <ele>218</ele>
        <time>2012-09-21T13:53:17Z</time>
      </trkpt>
      <trkpt lat="46.90366" lon="5.45552">
        <ele>218</ele>
        <time>2012-09-21T13:53:19Z</time>
      </trkpt>
      <trkpt lat="46.90372" lon="5.45537">
        <ele>218</ele>
        <time>2012-09-21T13:53:21Z</time>
      </trkpt>
      <trkpt lat="46.9038" lon="5.4552">
        <ele>218</ele>
        <time>2012-09-21T13:53:23Z</time>
      </trkpt>
      <trkpt lat="46.90388" lon="5.45503">
        <ele>218</ele>
        <time>2012-09-21T13:53:25Z</time>
      </trkpt>
      <trkpt lat="46.90397" lon="5.45485">
        <ele>218</ele>
        <time>2012-09-21T13:53:27Z</time>
      </trkpt>
      <trkpt lat="46.90408" lon="5.45466">
        <ele>218</ele>
        <time>2012-09-21T13:53:29Z</time>
      </trkpt>
      <trkpt lat="46.90414" lon="5.45456">
        <ele>218</ele>
        <time>2012-09-21T13:53:30Z</time>
      </trkpt>
      <trkpt lat="46.90427" lon="5.45439">
        <ele>218</ele>
        <time>2012-09-21T13:53:32Z</time>
      </trkpt>
      <trkpt lat="46.90441" lon="5.45422">
        <ele>218</ele>
        <time>2012-09-21T13:53:34Z</time>
      </trkpt>
      <trkpt lat="46.90448" lon="5.45414">
        <ele>218</ele>
        <time>2012-09-21T13:53:35Z</time>
      </trkpt>
      <trkpt lat="46.90456" lon="5.45404">
        <ele>218</ele>
        <time>2012-09-21T13:53:36Z</time>
      </trkpt>
      <trkpt lat="46.90464" lon="5.45395">
        <ele>218</ele>
        <time>2012-09-21T13:53:37Z</time>
      </trkpt>
      <trkpt lat="46.90472" lon="5.45386">
        <ele>218</ele>
        <time>2012-09-21T13:53:38Z</time>
      </trkpt>
      <trkpt lat="46.90481" lon="5.45377">
        <ele>212</ele>
        <time>2012-09-21T13:53:39Z</time>
      </trkpt>
      <trkpt lat="46.90489" lon="5.45367">
        <ele>212</ele>
        <time>2012-09-21T13:53:40Z</time>
      </trkpt>
      <trkpt lat="46.90498" lon="5.45358">
        <ele>212</ele>
        <time>2012-09-21T13:53:41Z</time>
      </trkpt>
      <trkpt lat="46.90507" lon="5.45348">
        <ele>212</ele>
        <time>2012-09-21T13:53:42Z</time>
      </trkpt>
      <trkpt lat="46.90516" lon="5.45339">
        <ele>212</ele>
        <time>2012-09-21T13:53:43Z</time>
      </trkpt>
      <trkpt lat="46.90525" lon="5.45329">
        <ele>212</ele>
        <time>2012-09-21T13:53:44Z</time>
      </trkpt>
      <trkpt lat="46.90534" lon="5.45318">
        <ele>212</ele>
        <time>2012-09-21T13:53:45Z</time>
      </trkpt>
      <trkpt lat="46.90543" lon="5.45308">
        <ele>212</ele>
        <time>2012-09-21T13:53:46Z</time>
      </trkpt>
      <trkpt lat="46.90552" lon="5.45298">
        <ele>212</ele>
        <time>2012-09-21T13:53:47Z</time>
      </trkpt>
      <trkpt lat="46.90561" lon="5.45289">
        <ele>212</ele>
        <time>2012-09-21T13:53:48Z</time>
      </trkpt>
      <trkpt lat="46.90569" lon="5.45279">
        <ele>212</ele>
        <time>2012-09-21T13:53:49Z</time>
      </trkpt>
      <trkpt lat="46.90578" lon="5.45269">
        <ele>212</ele>
        <time>2012-09-21T13:53:50Z</time>
      </trkpt>
      <trkpt lat="46.90586" lon="5.45259">
        <ele>212</ele>
        <time>2012-09-21T13:53:51Z</time>
      </trkpt>
      <trkpt lat="46.90593" lon="5.45248">
        <ele>212</ele>
        <time>2012-09-21T13:53:52Z</time>
      </trkpt>
      <trkpt lat="46.906" lon="5.45237">
        <ele>212</ele>
        <time>2012-09-21T13:53:53Z</time>
      </trkpt>
      <trkpt lat="46.90606" lon="5.45225">
        <ele>212</ele>
        <time>2012-09-21T13:53:54Z</time>
      </trkpt>
      <trkpt lat="46.90613" lon="5.45214">
        <ele>207</ele>
        <time>2012-09-21T13:53:55Z</time>
      </trkpt>
      <trkpt lat="46.9062" lon="5.45202">
        <ele>207</ele>
        <time>2012-09-21T13:53:56Z</time>
      </trkpt>
      <trkpt lat="46.90626" lon="5.45191">
        <ele>207</ele>
        <time>2012-09-21T13:53:57Z</time>
      </trkpt>
      <trkpt lat="46.90633" lon="5.4518">
        <ele>207</ele>
        <time>2012-09-21T13:53:58Z</time>
      </trkpt>
      <trkpt lat="46.90639" lon="5.45169">
        <ele>207</ele>
        <time>2012-09-21T13:53:59Z</time>
      </trkpt>
      <trkpt lat="46.90645" lon="5.45157">
        <ele>207</ele>
        <time>2012-09-21T13:54:00Z</time>
      </trkpt>
      <trkpt lat="46.90651" lon="5.45146">
        <ele>207</ele>
        <time>2012-09-21T13:54:01Z</time>
      </trkpt>
      <trkpt lat="46.90657" lon="5.45136">
        <ele>207</ele>
        <time>2012-09-21T13:54:02Z</time>
      </trkpt>
      <trkpt lat="46.90668" lon="5.45117">
        <ele>207</ele>
        <time>2012-09-21T13:54:04Z</time>
      </trkpt>
      <trkpt lat="46.90679" lon="5.45097">
        <ele>207</ele>
        <time>2012-09-21T13:54:06Z</time>
      </trkpt>
      <trkpt lat="46.90691" lon="5.4508">
        <ele>207</ele>
        <time>2012-09-21T13:54:08Z</time>
      </trkpt>
      <trkpt lat="46.90706" lon="5.45068">
        <ele>207</ele>
        <time>2012-09-21T13:54:10Z</time>
      </trkpt>
      <trkpt lat="46.90723" lon="5.45065">
        <ele>207</ele>
        <time>2012-09-21T13:54:12Z</time>
      </trkpt>
      <trkpt lat="46.90737" lon="5.45068">
        <ele>207</ele>
        <time>2012-09-21T13:54:14Z</time>
      </trkpt>
      <trkpt lat="46.9075" lon="5.45075">
        <ele>207</ele>
        <time>2012-09-21T13:54:16Z</time>
      </trkpt>
      <trkpt lat="46.90761" lon="5.45082">
        <ele>207</ele>
        <time>2012-09-21T13:54:18Z</time>
      </trkpt>
      <trkpt lat="46.90773" lon="5.45091">
        <ele>207</ele>
        <time>2012-09-21T13:54:20Z</time>
      </trkpt>
      <trkpt lat="46.90785" lon="5.451">
        <ele>207</ele>
        <time>2012-09-21T13:54:22Z</time>
      </trkpt>
      <trkpt lat="46.90797" lon="5.45109">
        <ele>207</ele>
        <time>2012-09-21T13:54:24Z</time>
      </trkpt>
      <trkpt lat="46.90808" lon="5.45118">
        <ele>207</ele>
        <time>2012-09-21T13:54:26Z</time>
      </trkpt>
      <trkpt lat="46.90819" lon="5.45127">
        <ele>207</ele>
        <time>2012-09-21T13:54:28Z</time>
      </trkpt>
      <trkpt lat="46.9083" lon="5.45136">
        <ele>207</ele>
        <time>2012-09-21T13:54:30Z</time>
      </trkpt>
      <trkpt lat="46.90841" lon="5.45146">
        <ele>207</ele>
        <time>2012-09-21T13:54:32Z</time>
      </trkpt>
      <trkpt lat="46.90852" lon="5.45156">
        <ele>207</ele>
        <time>2012-09-21T13:54:34Z</time>
      </trkpt>
      <trkpt lat="46.90863" lon="5.45167">
        <ele>207</ele>
        <time>2012-09-21T13:54:36Z</time>
      </trkpt>
      <trkpt lat="46.90873" lon="5.45176">
        <ele>207</ele>
        <time>2012-09-21T13:54:38Z</time>
      </trkpt>
      <trkpt lat="46.90884" lon="5.45186">
        <ele>207</ele>
        <time>2012-09-21T13:54:40Z</time>
      </trkpt>
      <trkpt lat="46.90895" lon="5.45195">
        <ele>207</ele>
        <time>2012-09-21T13:54:42Z</time>
      </trkpt>
      <trkpt lat="46.90905" lon="5.45203">
        <ele>207</ele>
        <time>2012-09-21T13:54:44Z</time>
      </trkpt>
      <trkpt lat="46.90916" lon="5.45211">
        <ele>207</ele>
        <time>2012-09-21T13:54:46Z</time>
      </trkpt>
      <trkpt lat="46.90927" lon="5.4522">
        <ele>207</ele>
        <time>2012-09-21T13:54:48Z</time>
      </trkpt>
      <trkpt lat="46.90938" lon="5.45229">
        <ele>207</ele>
        <time>2012-09-21T13:54:50Z</time>
      </trkpt>
      <trkpt lat="46.9095" lon="5.45239">
        <ele>207</ele>
        <time>2012-09-21T13:54:52Z</time>
      </trkpt>
      <trkpt lat="46.90961" lon="5.45248">
        <ele>212</ele>
        <time>2012-09-21T13:54:54Z</time>
      </trkpt>
      <trkpt lat="46.90972" lon="5.45257">
        <ele>212</ele>
        <time>2012-09-21T13:54:56Z</time>
      </trkpt>
      <trkpt lat="46.90984" lon="5.45266">
        <ele>212</ele>
        <time>2012-09-21T13:54:58Z</time>
      </trkpt>
      <trkpt lat="46.90995" lon="5.45275">
        <ele>212</ele>
        <time>2012-09-21T13:55:00Z</time>
      </trkpt>
      <trkpt lat="46.91005" lon="5.45283">
        <ele>212</ele>
        <time>2012-09-21T13:55:02Z</time>
      </trkpt>
      <trkpt lat="46.91016" lon="5.45292">
        <ele>212</ele>
        <time>2012-09-21T13:55:04Z</time>
      </trkpt>
      <trkpt lat="46.91028" lon="5.45301">
        <ele>212</ele>
        <time>2012-09-21T13:55:06Z</time>
      </trkpt>
      <trkpt lat="46.91039" lon="5.45312">
        <ele>212</ele>
        <time>2012-09-21T13:55:08Z</time>
      </trkpt>
      <trkpt lat="46.91051" lon="5.45322">
        <ele>212</ele>
        <time>2012-09-21T13:55:10Z</time>
      </trkpt>
      <trkpt lat="46.91064" lon="5.45334">
        <ele>212</ele>
        <time>2012-09-21T13:55:12Z</time>
      </trkpt>
      <trkpt lat="46.91077" lon="5.45347">
        <ele>212</ele>
        <time>2012-09-21T13:55:14Z</time>
      </trkpt>
      <trkpt lat="46.9109" lon="5.4536">
        <ele>212</ele>
        <time>2012-09-21T13:55:16Z</time>
      </trkpt>
      <trkpt lat="46.91104" lon="5.45374">
        <ele>212</ele>
        <time>2012-09-21T13:55:18Z</time>
      </trkpt>
      <trkpt lat="46.91118" lon="5.45388">
        <ele>212</ele>
        <time>2012-09-21T13:55:20Z</time>
      </trkpt>
      <trkpt lat="46.91132" lon="5.45401">
        <ele>212</ele>
        <time>2012-09-21T13:55:22Z</time>
      </trkpt>
      <trkpt lat="46.91147" lon="5.45416">
        <ele>212</ele>
        <time>2012-09-21T13:55:24Z</time>
      </trkpt>
      <trkpt lat="46.91161" lon="5.4543">
        <ele>212</ele>
        <time>2012-09-21T13:55:26Z</time>
      </trkpt>
      <trkpt lat="46.91176" lon="5.45445">
        <ele>212</ele>
        <time>2012-09-21T13:55:28Z</time>
      </trkpt>
      <trkpt lat="46.91191" lon="5.45459">
        <ele>212</ele>
        <time>2012-09-21T13:55:30Z</time>
      </trkpt>
      <trkpt lat="46.91207" lon="5.45472">
        <ele>212</ele>
        <time>2012-09-21T13:55:32Z</time>
      </trkpt>
      <trkpt lat="46.91215" lon="5.45479">
        <ele>212</ele>
        <time>2012-09-21T13:55:33Z</time>
      </trkpt>
      <trkpt lat="46.91231" lon="5.45488">
        <ele>212</ele>
        <time>2012-09-21T13:55:35Z</time>
      </trkpt>
      <trkpt lat="46.91239" lon="5.45491">
        <ele>212</ele>
        <time>2012-09-21T13:55:36Z</time>
      </trkpt>
      <trkpt lat="46.91257" lon="5.45495">
        <ele>212</ele>
        <time>2012-09-21T13:55:38Z</time>
      </trkpt>
      <trkpt lat="46.91275" lon="5.45498">
        <ele>212</ele>
        <time>2012-09-21T13:55:40Z</time>
      </trkpt>
      <trkpt lat="46.91293" lon="5.45502">
        <ele>212</ele>
        <time>2012-09-21T13:55:42Z</time>
      </trkpt>
      <trkpt lat="46.91303" lon="5.45504">
        <ele>212</ele>
        <time>2012-09-21T13:55:43Z</time>
      </trkpt>
      <trkpt lat="46.91312" lon="5.45506">
        <ele>212</ele>
        <time>2012-09-21T13:55:44Z</time>
      </trkpt>
      <trkpt lat="46.91322" lon="5.45509">
        <ele>207</ele>
        <time>2012-09-21T13:55:45Z</time>
      </trkpt>
      <trkpt lat="46.91331" lon="5.45515">
        <ele>207</ele>
        <time>2012-09-21T13:55:46Z</time>
      </trkpt>
      <trkpt lat="46.91339" lon="5.45521">
        <ele>207</ele>
        <time>2012-09-21T13:55:47Z</time>
      </trkpt>
      <trkpt lat="46.91346" lon="5.45529">
        <ele>207</ele>
        <time>2012-09-21T13:55:48Z</time>
      </trkpt>
      <trkpt lat="46.91354" lon="5.45538">
        <ele>207</ele>
        <time>2012-09-21T13:55:49Z</time>
      </trkpt>
      <trkpt lat="46.91365" lon="5.45559">
        <ele>207</ele>
        <time>2012-09-21T13:55:51Z</time>
      </trkpt>
      <trkpt lat="46.91376" lon="5.45577">
        <ele>207</ele>
        <time>2012-09-21T13:55:53Z</time>
      </trkpt>
      <trkpt lat="46.91387" lon="5.45595">
        <ele>207</ele>
        <time>2012-09-21T13:55:55Z</time>
      </trkpt>
      <trkpt lat="46.91399" lon="5.45609">
        <ele>207</ele>
        <time>2012-09-21T13:55:57Z</time>
      </trkpt>
      <trkpt lat="46.9141" lon="5.45621">
        <ele>207</ele>
        <time>2012-09-21T13:55:59Z</time>
      </trkpt>
      <trkpt lat="46.91419" lon="5.45632">
        <ele>207</ele>
        <time>2012-09-21T13:56:01Z</time>
      </trkpt>
      <trkpt lat="46.91429" lon="5.45641">
        <ele>207</ele>
        <time>2012-09-21T13:56:03Z</time>
      </trkpt>
      <trkpt lat="46.91438" lon="5.45649">
        <ele>207</ele>
        <time>2012-09-21T13:56:05Z</time>
      </trkpt>
      <trkpt lat="46.91446" lon="5.45657">
        <ele>207</ele>
        <time>2012-09-21T13:56:07Z</time>
      </trkpt>
      <trkpt lat="46.91454" lon="5.45665">
        <ele>212</ele>
        <time>2012-09-21T13:56:09Z</time>
      </trkpt>
      <trkpt lat="46.91466" lon="5.45672">
        <ele>212</ele>
        <time>2012-09-21T13:56:12Z</time>
      </trkpt>
      <trkpt lat="46.91476" lon="5.4568">
        <ele>212</ele>
        <time>2012-09-21T13:56:15Z</time>
      </trkpt>
      <trkpt lat="46.91487" lon="5.45688">
        <ele>212</ele>
        <time>2012-09-21T13:56:18Z</time>
      </trkpt>
      <trkpt lat="46.91496" lon="5.45695">
        <ele>212</ele>
        <time>2012-09-21T13:56:21Z</time>
      </trkpt>
      <trkpt lat="46.91506" lon="5.45701">
        <ele>212</ele>
        <time>2012-09-21T13:56:24Z</time>
      </trkpt>
      <trkpt lat="46.91514" lon="5.4571">
        <ele>212</ele>
        <time>2012-09-21T13:56:27Z</time>
      </trkpt>
      <trkpt lat="46.91522" lon="5.45716">
        <ele>217</ele>
        <time>2012-09-21T13:56:30Z</time>
      </trkpt>
      <trkpt lat="46.91533" lon="5.45714">
        <ele>217</ele>
        <time>2012-09-21T13:56:33Z</time>
      </trkpt>
      <trkpt lat="46.91541" lon="5.45708">
        <ele>217</ele>
        <time>2012-09-21T13:56:35Z</time>
      </trkpt>
      <trkpt lat="46.91551" lon="5.45696">
        <ele>217</ele>
        <time>2012-09-21T13:56:38Z</time>
      </trkpt>
      <trkpt lat="46.91562" lon="5.45684">
        <ele>217</ele>
        <time>2012-09-21T13:56:41Z</time>
      </trkpt>
      <trkpt lat="46.9157" lon="5.45676">
        <ele>217</ele>
        <time>2012-09-21T13:56:43Z</time>
      </trkpt>
      <trkpt lat="46.91577" lon="5.45668">
        <ele>217</ele>
        <time>2012-09-21T13:56:45Z</time>
      </trkpt>
      <trkpt lat="46.91584" lon="5.45657">
        <ele>217</ele>
        <time>2012-09-21T13:56:47Z</time>
      </trkpt>
      <trkpt lat="46.91591" lon="5.45647">
        <ele>217</ele>
        <time>2012-09-21T13:56:49Z</time>
      </trkpt>
      <trkpt lat="46.91598" lon="5.45635">
        <ele>217</ele>
        <time>2012-09-21T13:56:51Z</time>
      </trkpt>
      <trkpt lat="46.91605" lon="5.45622">
        <ele>217</ele>
        <time>2012-09-21T13:56:53Z</time>
      </trkpt>
      <trkpt lat="46.91611" lon="5.45609">
        <ele>217</ele>
        <time>2012-09-21T13:56:55Z</time>
      </trkpt>
      <trkpt lat="46.91617" lon="5.45595">
        <ele>217</ele>
        <time>2012-09-21T13:56:57Z</time>
      </trkpt>
      <trkpt lat="46.91624" lon="5.45583">
        <ele>217</ele>
        <time>2012-09-21T13:56:59Z</time>
      </trkpt>
      <trkpt lat="46.91631" lon="5.45568">
        <ele>217</ele>
        <time>2012-09-21T13:57:01Z</time>
      </trkpt>
      <trkpt lat="46.91638" lon="5.45555">
        <ele>217</ele>
        <time>2012-09-21T13:57:03Z</time>
      </trkpt>
      <trkpt lat="46.91645" lon="5.45541">
        <ele>217</ele>
        <time>2012-09-21T13:57:05Z</time>
      </trkpt>
      <trkpt lat="46.91653" lon="5.45527">
        <ele>217</ele>
        <time>2012-09-21T13:57:07Z</time>
      </trkpt>
      <trkpt lat="46.9166" lon="5.45513">
        <ele>217</ele>
        <time>2012-09-21T13:57:09Z</time>
      </trkpt>
      <trkpt lat="46.91667" lon="5.45498">
        <ele>217</ele>
        <time>2012-09-21T13:57:11Z</time>
      </trkpt>
      <trkpt lat="46.91674" lon="5.45484">
        <ele>217</ele>
        <time>2012-09-21T13:57:13Z</time>
      </trkpt>
      <trkpt lat="46.91681" lon="5.4547">
        <ele>217</ele>
        <time>2012-09-21T13:57:15Z</time>
      </trkpt>
      <trkpt lat="46.91688" lon="5.45455">
        <ele>217</ele>
        <time>2012-09-21T13:57:17Z</time>
      </trkpt>
      <trkpt lat="46.91695" lon="5.45439">
        <ele>217</ele>
        <time>2012-09-21T13:57:19Z</time>
      </trkpt>
      <trkpt lat="46.91703" lon="5.45424">
        <ele>217</ele>
        <time>2012-09-21T13:57:21Z</time>
      </trkpt>
      <trkpt lat="46.9171" lon="5.45408">
        <ele>217</ele>
        <time>2012-09-21T13:57:23Z</time>
      </trkpt>
      <trkpt lat="46.91718" lon="5.45391">
        <ele>217</ele>
        <time>2012-09-21T13:57:25Z</time>
      </trkpt>
      <trkpt lat="46.91726" lon="5.45375">
        <ele>217</ele>
        <time>2012-09-21T13:57:27Z</time>
      </trkpt>
      <trkpt lat="46.91735" lon="5.45361">
        <ele>217</ele>
        <time>2012-09-21T13:57:29Z</time>
      </trkpt>
      <trkpt lat="46.91744" lon="5.45347">
        <ele>217</ele>
        <time>2012-09-21T13:57:31Z</time>
      </trkpt>
      <trkpt lat="46.91754" lon="5.45333">
        <ele>217</ele>
        <time>2012-09-21T13:57:33Z</time>
      </trkpt>
      <trkpt lat="46.91765" lon="5.45321">
        <ele>217</ele>
        <time>2012-09-21T13:57:35Z</time>
      </trkpt>
      <trkpt lat="46.91778" lon="5.4531">
        <ele>217</ele>
        <time>2012-09-21T13:57:37Z</time>
      </trkpt>
      <trkpt lat="46.9179" lon="5.45297">
        <ele>217</ele>
        <time>2012-09-21T13:57:39Z</time>
      </trkpt>
      <trkpt lat="46.91801" lon="5.45283">
        <ele>217</ele>
        <time>2012-09-21T13:57:41Z</time>
      </trkpt>
      <trkpt lat="46.91812" lon="5.45267">
        <ele>217</ele>
        <time>2012-09-21T13:57:43Z</time>
      </trkpt>
      <trkpt lat="46.9182" lon="5.45249">
        <ele>217</ele>
        <time>2012-09-21T13:57:45Z</time>
      </trkpt>
      <trkpt lat="46.91829" lon="5.45231">
        <ele>217</ele>
        <time>2012-09-21T13:57:47Z</time>
      </trkpt>
      <trkpt lat="46.91839" lon="5.45215">
        <ele>217</ele>
        <time>2012-09-21T13:57:49Z</time>
      </trkpt>
      <trkpt lat="46.91849" lon="5.452">
        <ele>217</ele>
        <time>2012-09-21T13:57:51Z</time>
      </trkpt>
      <trkpt lat="46.9186" lon="5.45187">
        <ele>217</ele>
        <time>2012-09-21T13:57:53Z</time>
      </trkpt>
      <trkpt lat="46.91871" lon="5.45174">
        <ele>217</ele>
        <time>2012-09-21T13:57:55Z</time>
      </trkpt>
      <trkpt lat="46.91882" lon="5.45163">
        <ele>217</ele>
        <time>2012-09-21T13:57:57Z</time>
      </trkpt>
      <trkpt lat="46.91895" lon="5.45153">
        <ele>217</ele>
        <time>2012-09-21T13:57:59Z</time>
      </trkpt>
      <trkpt lat="46.91908" lon="5.45144">
        <ele>217</ele>
        <time>2012-09-21T13:58:01Z</time>
      </trkpt>
      <trkpt lat="46.91922" lon="5.45135">
        <ele>217</ele>
        <time>2012-09-21T13:58:03Z</time>
      </trkpt>
      <trkpt lat="46.91935" lon="5.45126">
        <ele>217</ele>
        <time>2012-09-21T13:58:05Z</time>
      </trkpt>
      <trkpt lat="46.91949" lon="5.45116">
        <ele>217</ele>
        <time>2012-09-21T13:58:07Z</time>
      </trkpt>
      <trkpt lat="46.91963" lon="5.45106">
        <ele>217</ele>
        <time>2012-09-21T13:58:09Z</time>
      </trkpt>
      <trkpt lat="46.91977" lon="5.45094">
        <ele>217</ele>
        <time>2012-09-21T13:58:11Z</time>
      </trkpt>
      <trkpt lat="46.91989" lon="5.45082">
        <ele>217</ele>
        <time>2012-09-21T13:58:13Z</time>
      </trkpt>
      <trkpt lat="46.92002" lon="5.45069">
        <ele>217</ele>
        <time>2012-09-21T13:58:15Z</time>
      </trkpt>
      <trkpt lat="46.92013" lon="5.45056">
        <ele>217</ele>
        <time>2012-09-21T13:58:17Z</time>
      </trkpt>
      <trkpt lat="46.92026" lon="5.45042">
        <ele>217</ele>
        <time>2012-09-21T13:58:19Z</time>
      </trkpt>
      <trkpt lat="46.92039" lon="5.4503">
        <ele>217</ele>
        <time>2012-09-21T13:58:21Z</time>
      </trkpt>
      <trkpt lat="46.92052" lon="5.45021">
        <ele>217</ele>
        <time>2012-09-21T13:58:23Z</time>
      </trkpt>
      <trkpt lat="46.92065" lon="5.4501">
        <ele>217</ele>
        <time>2012-09-21T13:58:25Z</time>
      </trkpt>
      <trkpt lat="46.92077" lon="5.44999">
        <ele>217</ele>
        <time>2012-09-21T13:58:27Z</time>
      </trkpt>
      <trkpt lat="46.9209" lon="5.44989">
        <ele>217</ele>
        <time>2012-09-21T13:58:29Z</time>
      </trkpt>
      <trkpt lat="46.92103" lon="5.44978">
        <ele>217</ele>
        <time>2012-09-21T13:58:31Z</time>
      </trkpt>
      <trkpt lat="46.92116" lon="5.44968">
        <ele>217</ele>
        <time>2012-09-21T13:58:33Z</time>
      </trkpt>
      <trkpt lat="46.92129" lon="5.4496">
        <ele>217</ele>
        <time>2012-09-21T13:58:35Z</time>
      </trkpt>
      <trkpt lat="46.92142" lon="5.44952">
        <ele>217</ele>
        <time>2012-09-21T13:58:37Z</time>
      </trkpt>
      <trkpt lat="46.92155" lon="5.44944">
        <ele>217</ele>
        <time>2012-09-21T13:58:39Z</time>
      </trkpt>
      <trkpt lat="46.92167" lon="5.44936">
        <ele>217</ele>
        <time>2012-09-21T13:58:41Z</time>
      </trkpt>
      <trkpt lat="46.9218" lon="5.44928">
        <ele>217</ele>
        <time>2012-09-21T13:58:43Z</time>
      </trkpt>
      <trkpt lat="46.92193" lon="5.4492">
        <ele>217</ele>
        <time>2012-09-21T13:58:45Z</time>
      </trkpt>
      <trkpt lat="46.92206" lon="5.44912">
        <ele>217</ele>
        <time>2012-09-21T13:58:47Z</time>
      </trkpt>
      <trkpt lat="46.92218" lon="5.44903">
        <ele>217</ele>
        <time>2012-09-21T13:58:49Z</time>
      </trkpt>
      <trkpt lat="46.92232" lon="5.44895">
        <ele>217</ele>
        <time>2012-09-21T13:58:51Z</time>
      </trkpt>
      <trkpt lat="46.92246" lon="5.44887">
        <ele>217</ele>
        <time>2012-09-21T13:58:53Z</time>
      </trkpt>
      <trkpt lat="46.92258" lon="5.44879">
        <ele>217</ele>
        <time>2012-09-21T13:58:55Z</time>
      </trkpt>
      <trkpt lat="46.92271" lon="5.4487">
        <ele>217</ele>
        <time>2012-09-21T13:58:57Z</time>
      </trkpt>
      <trkpt lat="46.92284" lon="5.44862">
        <ele>217</ele>
        <time>2012-09-21T13:58:59Z</time>
      </trkpt>
      <trkpt lat="46.92297" lon="5.44853">
        <ele>217</ele>
        <time>2012-09-21T13:59:01Z</time>
      </trkpt>
      <trkpt lat="46.9231" lon="5.44844">
        <ele>217</ele>
        <time>2012-09-21T13:59:03Z</time>
      </trkpt>
      <trkpt lat="46.92321" lon="5.4483">
        <ele>217</ele>
        <time>2012-09-21T13:59:05Z</time>
      </trkpt>
      <trkpt lat="46.92331" lon="5.44816">
        <ele>217</ele>
        <time>2012-09-21T13:59:07Z</time>
      </trkpt>
      <trkpt lat="46.92341" lon="5.44801">
        <ele>217</ele>
        <time>2012-09-21T13:59:09Z</time>
      </trkpt>
      <trkpt lat="46.92351" lon="5.44786">
        <ele>217</ele>
        <time>2012-09-21T13:59:11Z</time>
      </trkpt>
      <trkpt lat="46.9236" lon="5.44771">
        <ele>222</ele>
        <time>2012-09-21T13:59:13Z</time>
      </trkpt>
      <trkpt lat="46.92369" lon="5.44756">
        <ele>222</ele>
        <time>2012-09-21T13:59:15Z</time>
      </trkpt>
      <trkpt lat="46.92378" lon="5.44742">
        <ele>222</ele>
        <time>2012-09-21T13:59:17Z</time>
      </trkpt>
      <trkpt lat="46.92388" lon="5.44728">
        <ele>222</ele>
        <time>2012-09-21T13:59:19Z</time>
      </trkpt>
      <trkpt lat="46.92397" lon="5.44711">
        <ele>222</ele>
        <time>2012-09-21T13:59:21Z</time>
      </trkpt>
      <trkpt lat="46.92407" lon="5.44697">
        <ele>222</ele>
        <time>2012-09-21T13:59:23Z</time>
      </trkpt>
      <trkpt lat="46.92417" lon="5.44681">
        <ele>222</ele>
        <time>2012-09-21T13:59:25Z</time>
      </trkpt>
      <trkpt lat="46.92426" lon="5.44666">
        <ele>222</ele>
        <time>2012-09-21T13:59:27Z</time>
      </trkpt>
      <trkpt lat="46.92436" lon="5.4465">
        <ele>222</ele>
        <time>2012-09-21T13:59:29Z</time>
      </trkpt>
      <trkpt lat="46.92447" lon="5.44634">
        <ele>222</ele>
        <time>2012-09-21T13:59:31Z</time>
      </trkpt>
      <trkpt lat="46.92457" lon="5.44619">
        <ele>222</ele>
        <time>2012-09-21T13:59:33Z</time>
      </trkpt>
      <trkpt lat="46.92466" lon="5.44604">
        <ele>222</ele>
        <time>2012-09-21T13:59:35Z</time>
      </trkpt>
      <trkpt lat="46.92476" lon="5.44588">
        <ele>222</ele>
        <time>2012-09-21T13:59:37Z</time>
      </trkpt>
      <trkpt lat="46.92487" lon="5.44571">
        <ele>222</ele>
        <time>2012-09-21T13:59:39Z</time>
      </trkpt>
      <trkpt lat="46.92497" lon="5.44555">
        <ele>222</ele>
        <time>2012-09-21T13:59:41Z</time>
      </trkpt>
      <trkpt lat="46.92507" lon="5.44539">
        <ele>222</ele>
        <time>2012-09-21T13:59:43Z</time>
      </trkpt>
      <trkpt lat="46.92517" lon="5.44523">
        <ele>222</ele>
        <time>2012-09-21T13:59:45Z</time>
      </trkpt>
      <trkpt lat="46.92527" lon="5.44507">
        <ele>222</ele>
        <time>2012-09-21T13:59:47Z</time>
      </trkpt>
      <trkpt lat="46.92536" lon="5.44491">
        <ele>222</ele>
        <time>2012-09-21T13:59:49Z</time>
      </trkpt>
      <trkpt lat="46.92545" lon="5.44473">
        <ele>222</ele>
        <time>2012-09-21T13:59:51Z</time>
      </trkpt>
      <trkpt lat="46.92553" lon="5.44456">
        <ele>222</ele>
        <time>2012-09-21T13:59:53Z</time>
      </trkpt>
      <trkpt lat="46.92561" lon="5.44438">
        <ele>222</ele>
        <time>2012-09-21T13:59:55Z</time>
      </trkpt>
      <trkpt lat="46.92569" lon="5.44419">
        <ele>222</ele>
        <time>2012-09-21T13:59:57Z</time>
      </trkpt>
      <trkpt lat="46.92575" lon="5.444">
        <ele>222</ele>
        <time>2012-09-21T13:59:59Z</time>
      </trkpt>
      <trkpt lat="46.92583" lon="5.4438">
        <ele>222</ele>
        <time>2012-09-21T14:00:01Z</time>
      </trkpt>
      <trkpt lat="46.9259" lon="5.44361">
        <ele>222</ele>
        <time>2012-09-21T14:00:03Z</time>
      </trkpt>
      <trkpt lat="46.92597" lon="5.44343">
        <ele>222</ele>
        <time>2012-09-21T14:00:05Z</time>
      </trkpt>
      <trkpt lat="46.92603" lon="5.44325">
        <ele>222</ele>
        <time>2012-09-21T14:00:07Z</time>
      </trkpt>
      <trkpt lat="46.9261" lon="5.44307">
        <ele>222</ele>
        <time>2012-09-21T14:00:09Z</time>
      </trkpt>
      <trkpt lat="46.92617" lon="5.44289">
        <ele>222</ele>
        <time>2012-09-21T14:00:11Z</time>
      </trkpt>
      <trkpt lat="46.92624" lon="5.44272">
        <ele>222</ele>
        <time>2012-09-21T14:00:13Z</time>
      </trkpt>
      <trkpt lat="46.92631" lon="5.44254">
        <ele>222</ele>
        <time>2012-09-21T14:00:15Z</time>
      </trkpt>
      <trkpt lat="46.92638" lon="5.44237">
        <ele>222</ele>
        <time>2012-09-21T14:00:17Z</time>
      </trkpt>
      <trkpt lat="46.92645" lon="5.44219">
        <ele>222</ele>
        <time>2012-09-21T14:00:19Z</time>
      </trkpt>
      <trkpt lat="46.92651" lon="5.44202">
        <ele>222</ele>
        <time>2012-09-21T14:00:21Z</time>
      </trkpt>
      <trkpt lat="46.92657" lon="5.44184">
        <ele>222</ele>
        <time>2012-09-21T14:00:23Z</time>
      </trkpt>
      <trkpt lat="46.92664" lon="5.44167">
        <ele>222</ele>
        <time>2012-09-21T14:00:25Z</time>
      </trkpt>
      <trkpt lat="46.92671" lon="5.44148">
        <ele>222</ele>
        <time>2012-09-21T14:00:27Z</time>
      </trkpt>
      <trkpt lat="46.92678" lon="5.4413">
        <ele>222</ele>
        <time>2012-09-21T14:00:29Z</time>
      </trkpt>
      <trkpt lat="46.92684" lon="5.44111">
        <ele>222</ele>
        <time>2012-09-21T14:00:31Z</time>
      </trkpt>
      <trkpt lat="46.92692" lon="5.44093">
        <ele>222</ele>
        <time>2012-09-21T14:00:33Z</time>
      </trkpt>
      <trkpt lat="46.92701" lon="5.44078">
        <ele>222</ele>
        <time>2012-09-21T14:00:35Z</time>
      </trkpt>
      <trkpt lat="46.92713" lon="5.44068">
        <ele>222</ele>
        <time>2012-09-21T14:00:37Z</time>
      </trkpt>
      <trkpt lat="46.92727" lon="5.44063">
        <ele>222</ele>
        <time>2012-09-21T14:00:39Z</time>
      </trkpt>
      <trkpt lat="46.92742" lon="5.44062">
        <ele>222</ele>
        <time>2012-09-21T14:00:41Z</time>
      </trkpt>
      <trkpt lat="46.92756" lon="5.44061">
        <ele>222</ele>
        <time>2012-09-21T14:00:43Z</time>
      </trkpt>
      <trkpt lat="46.92771" lon="5.44062">
        <ele>222</ele>
        <time>2012-09-21T14:00:45Z</time>
      </trkpt>
      <trkpt lat="46.92786" lon="5.44062">
        <ele>222</ele>
        <time>2012-09-21T14:00:47Z</time>
      </trkpt>
      <trkpt lat="46.92801" lon="5.44063">
        <ele>222</ele>
        <time>2012-09-21T14:00:49Z</time>
      </trkpt>
      <trkpt lat="46.92815" lon="5.44063">
        <ele>222</ele>
        <time>2012-09-21T14:00:51Z</time>
      </trkpt>
      <trkpt lat="46.9283" lon="5.44064">
        <ele>222</ele>
        <time>2012-09-21T14:00:53Z</time>
      </trkpt>
      <trkpt lat="46.92844" lon="5.44063">
        <ele>222</ele>
        <time>2012-09-21T14:00:55Z</time>
      </trkpt>
      <trkpt lat="46.92859" lon="5.44064">
        <ele>222</ele>
        <time>2012-09-21T14:00:57Z</time>
      </trkpt>
      <trkpt lat="46.92873" lon="5.44065">
        <ele>222</ele>
        <time>2012-09-21T14:00:59Z</time>
      </trkpt>
      <trkpt lat="46.92889" lon="5.44065">
        <ele>222</ele>
        <time>2012-09-21T14:01:01Z</time>
      </trkpt>
      <trkpt lat="46.92903" lon="5.44066">
        <ele>222</ele>
        <time>2012-09-21T14:01:03Z</time>
      </trkpt>
      <trkpt lat="46.9292" lon="5.44068">
        <ele>222</ele>
        <time>2012-09-21T14:01:05Z</time>
      </trkpt>
      <trkpt lat="46.92936" lon="5.44072">
        <ele>222</ele>
        <time>2012-09-21T14:01:07Z</time>
      </trkpt>
      <trkpt lat="46.92952" lon="5.44072">
        <ele>222</ele>
        <time>2012-09-21T14:01:09Z</time>
      </trkpt>
      <trkpt lat="46.92969" lon="5.4407">
        <ele>222</ele>
        <time>2012-09-21T14:01:11Z</time>
      </trkpt>
      <trkpt lat="46.92985" lon="5.44064">
        <ele>222</ele>
        <time>2012-09-21T14:01:13Z</time>
      </trkpt>
      <trkpt lat="46.92999" lon="5.44055">
        <ele>222</ele>
        <time>2012-09-21T14:01:15Z</time>
      </trkpt>
      <trkpt lat="46.93015" lon="5.44046">
        <ele>222</ele>
        <time>2012-09-21T14:01:17Z</time>
      </trkpt>
      <trkpt lat="46.93029" lon="5.44037">
        <ele>222</ele>
        <time>2012-09-21T14:01:19Z</time>
      </trkpt>
      <trkpt lat="46.93043" lon="5.44029">
        <ele>222</ele>
        <time>2012-09-21T14:01:21Z</time>
      </trkpt>
      <trkpt lat="46.93057" lon="5.44022">
        <ele>222</ele>
        <time>2012-09-21T14:01:23Z</time>
      </trkpt>
      <trkpt lat="46.93071" lon="5.44015">
        <ele>222</ele>
        <time>2012-09-21T14:01:25Z</time>
      </trkpt>
      <trkpt lat="46.93084" lon="5.4401">
        <ele>222</ele>
        <time>2012-09-21T14:01:27Z</time>
      </trkpt>
      <trkpt lat="46.93098" lon="5.44005">
        <ele>222</ele>
        <time>2012-09-21T14:01:29Z</time>
      </trkpt>
      <trkpt lat="46.93113" lon="5.44001">
        <ele>222</ele>
        <time>2012-09-21T14:01:31Z</time>
      </trkpt>
      <trkpt lat="46.93127" lon="5.43996">
        <ele>222</ele>
        <time>2012-09-21T14:01:33Z</time>
      </trkpt>
      <trkpt lat="46.93141" lon="5.43991">
        <ele>222</ele>
        <time>2012-09-21T14:01:35Z</time>
      </trkpt>
      <trkpt lat="46.93156" lon="5.43986">
        <ele>222</ele>
        <time>2012-09-21T14:01:37Z</time>
      </trkpt>
      <trkpt lat="46.9317" lon="5.43979">
        <ele>222</ele>
        <time>2012-09-21T14:01:39Z</time>
      </trkpt>
      <trkpt lat="46.93185" lon="5.43974">
        <ele>222</ele>
        <time>2012-09-21T14:01:41Z</time>
      </trkpt>
      <trkpt lat="46.93201" lon="5.43969">
        <ele>222</ele>
        <time>2012-09-21T14:01:43Z</time>
      </trkpt>
      <trkpt lat="46.93217" lon="5.43966">
        <ele>222</ele>
        <time>2012-09-21T14:01:45Z</time>
      </trkpt>
      <trkpt lat="46.93232" lon="5.43965">
        <ele>222</ele>
        <time>2012-09-21T14:01:47Z</time>
      </trkpt>
      <trkpt lat="46.93246" lon="5.43959">
        <ele>222</ele>
        <time>2012-09-21T14:01:49Z</time>
      </trkpt>
      <trkpt lat="46.93258" lon="5.43948">
        <ele>222</ele>
        <time>2012-09-21T14:01:51Z</time>
      </trkpt>
      <trkpt lat="46.93271" lon="5.43934">
        <ele>222</ele>
        <time>2012-09-21T14:01:53Z</time>
      </trkpt>
      <trkpt lat="46.93282" lon="5.43921">
        <ele>222</ele>
        <time>2012-09-21T14:01:55Z</time>
      </trkpt>
      <trkpt lat="46.93296" lon="5.4391">
        <ele>222</ele>
        <time>2012-09-21T14:01:57Z</time>
      </trkpt>
      <trkpt lat="46.93311" lon="5.43903">
        <ele>222</ele>
        <time>2012-09-21T14:01:59Z</time>
      </trkpt>
      <trkpt lat="46.93326" lon="5.43897">
        <ele>222</ele>
        <time>2012-09-21T14:02:01Z</time>
      </trkpt>
      <trkpt lat="46.9334" lon="5.43891">
        <ele>222</ele>
        <time>2012-09-21T14:02:03Z</time>
      </trkpt>
      <trkpt lat="46.93354" lon="5.43885">
        <ele>222</ele>
        <time>2012-09-21T14:02:05Z</time>
      </trkpt>
      <trkpt lat="46.93369" lon="5.43879">
        <ele>222</ele>
        <time>2012-09-21T14:02:07Z</time>
      </trkpt>
      <trkpt lat="46.93385" lon="5.43872">
        <ele>222</ele>
        <time>2012-09-21T14:02:09Z</time>
      </trkpt>
      <trkpt lat="46.93399" lon="5.43867">
        <ele>222</ele>
        <time>2012-09-21T14:02:11Z</time>
      </trkpt>
      <trkpt lat="46.93414" lon="5.43861">
        <ele>222</ele>
        <time>2012-09-21T14:02:13Z</time>
      </trkpt>
      <trkpt lat="46.93428" lon="5.43854">
        <ele>222</ele>
        <time>2012-09-21T14:02:15Z</time>
      </trkpt>
      <trkpt lat="46.93442" lon="5.43848">
        <ele>222</ele>
        <time>2012-09-21T14:02:17Z</time>
      </trkpt>
      <trkpt lat="46.93457" lon="5.43842">
        <ele>222</ele>
        <time>2012-09-21T14:02:19Z</time>
      </trkpt>
      <trkpt lat="46.93472" lon="5.43836">
        <ele>222</ele>
        <time>2012-09-21T14:02:21Z</time>
      </trkpt>
      <trkpt lat="46.93486" lon="5.43829">
        <ele>222</ele>
        <time>2012-09-21T14:02:23Z</time>
      </trkpt>
      <trkpt lat="46.935" lon="5.43823">
        <ele>222</ele>
        <time>2012-09-21T14:02:25Z</time>
      </trkpt>
      <trkpt lat="46.93516" lon="5.43817">
        <ele>222</ele>
        <time>2012-09-21T14:02:27Z</time>
      </trkpt>
      <trkpt lat="46.9353" lon="5.43812">
        <ele>222</ele>
        <time>2012-09-21T14:02:29Z</time>
      </trkpt>
      <trkpt lat="46.93546" lon="5.43809">
        <ele>222</ele>
        <time>2012-09-21T14:02:31Z</time>
      </trkpt>
      <trkpt lat="46.93562" lon="5.43808">
        <ele>222</ele>
        <time>2012-09-21T14:02:33Z</time>
      </trkpt>
      <trkpt lat="46.93578" lon="5.43809">
        <ele>222</ele>
        <time>2012-09-21T14:02:35Z</time>
      </trkpt>
      <trkpt lat="46.93593" lon="5.4381">
        <ele>222</ele>
        <time>2012-09-21T14:02:37Z</time>
      </trkpt>
      <trkpt lat="46.93609" lon="5.43811">
        <ele>222</ele>
        <time>2012-09-21T14:02:39Z</time>
      </trkpt>
      <trkpt lat="46.93623" lon="5.43812">
        <ele>222</ele>
        <time>2012-09-21T14:02:41Z</time>
      </trkpt>
      <trkpt lat="46.93638" lon="5.43813">
        <ele>222</ele>
        <time>2012-09-21T14:02:43Z</time>
      </trkpt>
      <trkpt lat="46.93652" lon="5.43814">
        <ele>222</ele>
        <time>2012-09-21T14:02:45Z</time>
      </trkpt>
      <trkpt lat="46.93666" lon="5.43816">
        <ele>222</ele>
        <time>2012-09-21T14:02:47Z</time>
      </trkpt>
      <trkpt lat="46.93682" lon="5.43819">
        <ele>222</ele>
        <time>2012-09-21T14:02:49Z</time>
      </trkpt>
      <trkpt lat="46.93697" lon="5.4382">
        <ele>222</ele>
        <time>2012-09-21T14:02:51Z</time>
      </trkpt>
      <trkpt lat="46.93712" lon="5.43823">
        <ele>222</ele>
        <time>2012-09-21T14:02:53Z</time>
      </trkpt>
      <trkpt lat="46.93727" lon="5.43825">
        <ele>222</ele>
        <time>2012-09-21T14:02:55Z</time>
      </trkpt>
      <trkpt lat="46.93743" lon="5.43827">
        <ele>222</ele>
        <time>2012-09-21T14:02:57Z</time>
      </trkpt>
      <trkpt lat="46.93758" lon="5.43828">
        <ele>222</ele>
        <time>2012-09-21T14:02:59Z</time>
      </trkpt>
      <trkpt lat="46.93774" lon="5.43828">
        <ele>222</ele>
        <time>2012-09-21T14:03:01Z</time>
      </trkpt>
      <trkpt lat="46.9379" lon="5.43828">
        <ele>222</ele>
        <time>2012-09-21T14:03:03Z</time>
      </trkpt>
      <trkpt lat="46.93807" lon="5.43827">
        <ele>222</ele>
        <time>2012-09-21T14:03:05Z</time>
      </trkpt>
      <trkpt lat="46.93823" lon="5.43827">
        <ele>222</ele>
        <time>2012-09-21T14:03:07Z</time>
      </trkpt>
      <trkpt lat="46.93839" lon="5.43826">
        <ele>222</ele>
        <time>2012-09-21T14:03:09Z</time>
      </trkpt>
      <trkpt lat="46.93855" lon="5.43826">
        <ele>222</ele>
        <time>2012-09-21T14:03:11Z</time>
      </trkpt>
      <trkpt lat="46.93872" lon="5.43825">
        <ele>222</ele>
        <time>2012-09-21T14:03:13Z</time>
      </trkpt>
      <trkpt lat="46.93889" lon="5.43825">
        <ele>222</ele>
        <time>2012-09-21T14:03:15Z</time>
      </trkpt>
      <trkpt lat="46.93905" lon="5.43824">
        <ele>222</ele>
        <time>2012-09-21T14:03:17Z</time>
      </trkpt>
      <trkpt lat="46.93922" lon="5.43821">
        <ele>222</ele>
        <time>2012-09-21T14:03:19Z</time>
      </trkpt>
      <trkpt lat="46.93939" lon="5.43817">
        <ele>222</ele>
        <time>2012-09-21T14:03:21Z</time>
      </trkpt>
      <trkpt lat="46.93956" lon="5.43812">
        <ele>222</ele>
        <time>2012-09-21T14:03:23Z</time>
      </trkpt>
      <trkpt lat="46.93972" lon="5.43807">
        <ele>222</ele>
        <time>2012-09-21T14:03:25Z</time>
      </trkpt>
      <trkpt lat="46.93988" lon="5.43802">
        <ele>222</ele>
        <time>2012-09-21T14:03:27Z</time>
      </trkpt>
      <trkpt lat="46.94005" lon="5.43798">
        <ele>222</ele>
        <time>2012-09-21T14:03:29Z</time>
      </trkpt>
      <trkpt lat="46.94023" lon="5.43793">
        <ele>217</ele>
        <time>2012-09-21T14:03:31Z</time>
      </trkpt>
      <trkpt lat="46.94041" lon="5.43786">
        <ele>217</ele>
        <time>2012-09-21T14:03:33Z</time>
      </trkpt>
      <trkpt lat="46.94049" lon="5.43782">
        <ele>217</ele>
        <time>2012-09-21T14:03:34Z</time>
      </trkpt>
      <trkpt lat="46.94058" lon="5.43776">
        <ele>217</ele>
        <time>2012-09-21T14:03:35Z</time>
      </trkpt>
      <trkpt lat="46.94067" lon="5.43772">
        <ele>217</ele>
        <time>2012-09-21T14:03:36Z</time>
      </trkpt>
      <trkpt lat="46.94076" lon="5.43766">
        <ele>217</ele>
        <time>2012-09-21T14:03:37Z</time>
      </trkpt>
      <trkpt lat="46.94084" lon="5.43761">
        <ele>217</ele>
        <time>2012-09-21T14:03:38Z</time>
      </trkpt>
      <trkpt lat="46.94093" lon="5.43756">
        <ele>217</ele>
        <time>2012-09-21T14:03:39Z</time>
      </trkpt>
      <trkpt lat="46.94102" lon="5.4375">
        <ele>217</ele>
        <time>2012-09-21T14:03:40Z</time>
      </trkpt>
      <trkpt lat="46.94111" lon="5.43745">
        <ele>217</ele>
        <time>2012-09-21T14:03:41Z</time>
      </trkpt>
      <trkpt lat="46.94127" lon="5.43734">
        <ele>217</ele>
        <time>2012-09-21T14:03:43Z</time>
      </trkpt>
      <trkpt lat="46.94143" lon="5.43724">
        <ele>217</ele>
        <time>2012-09-21T14:03:45Z</time>
      </trkpt>
      <trkpt lat="46.94152" lon="5.43719">
        <ele>217</ele>
        <time>2012-09-21T14:03:46Z</time>
      </trkpt>
      <trkpt lat="46.94161" lon="5.43715">
        <ele>217</ele>
        <time>2012-09-21T14:03:47Z</time>
      </trkpt>
      <trkpt lat="46.9417" lon="5.43713">
        <ele>212</ele>
        <time>2012-09-21T14:03:48Z</time>
      </trkpt>
      <trkpt lat="46.94181" lon="5.43712">
        <ele>212</ele>
        <time>2012-09-21T14:03:49Z</time>
      </trkpt>
      <trkpt lat="46.94191" lon="5.43711">
        <ele>212</ele>
        <time>2012-09-21T14:03:50Z</time>
      </trkpt>
      <trkpt lat="46.942" lon="5.43709">
        <ele>212</ele>
        <time>2012-09-21T14:03:51Z</time>
      </trkpt>
      <trkpt lat="46.9421" lon="5.43708">
        <ele>212</ele>
        <time>2012-09-21T14:03:52Z</time>
      </trkpt>
      <trkpt lat="46.9422" lon="5.43706">
        <ele>212</ele>
        <time>2012-09-21T14:03:53Z</time>
      </trkpt>
      <trkpt lat="46.9423" lon="5.43705">
        <ele>212</ele>
        <time>2012-09-21T14:03:54Z</time>
      </trkpt>
      <trkpt lat="46.9424" lon="5.43704">
        <ele>212</ele>
        <time>2012-09-21T14:03:55Z</time>
      </trkpt>
      <trkpt lat="46.9425" lon="5.43701">
        <ele>212</ele>
        <time>2012-09-21T14:03:56Z</time>
      </trkpt>
      <trkpt lat="46.94259" lon="5.43698">
        <ele>212</ele>
        <time>2012-09-21T14:03:57Z</time>
      </trkpt>
      <trkpt lat="46.94268" lon="5.43695">
        <ele>212</ele>
        <time>2012-09-21T14:03:58Z</time>
      </trkpt>
      <trkpt lat="46.94285" lon="5.43684">
        <ele>212</ele>
        <time>2012-09-21T14:04:00Z</time>
      </trkpt>
      <trkpt lat="46.94293" lon="5.43678">
        <ele>212</ele>
        <time>2012-09-21T14:04:01Z</time>
      </trkpt>
      <trkpt lat="46.94307" lon="5.43665">
        <ele>212</ele>
        <time>2012-09-21T14:04:03Z</time>
      </trkpt>
      <trkpt lat="46.9432" lon="5.43651">
        <ele>212</ele>
        <time>2012-09-21T14:04:05Z</time>
      </trkpt>
      <trkpt lat="46.94332" lon="5.43639">
        <ele>212</ele>
        <time>2012-09-21T14:04:07Z</time>
      </trkpt>
      <trkpt lat="46.94344" lon="5.43627">
        <ele>212</ele>
        <time>2012-09-21T14:04:09Z</time>
      </trkpt>
      <trkpt lat="46.94357" lon="5.43616">
        <ele>212</ele>
        <time>2012-09-21T14:04:11Z</time>
      </trkpt>
      <trkpt lat="46.9437" lon="5.43605">
        <ele>212</ele>
        <time>2012-09-21T14:04:13Z</time>
      </trkpt>
      <trkpt lat="46.94381" lon="5.43593">
        <ele>212</ele>
        <time>2012-09-21T14:04:15Z</time>
      </trkpt>
      <trkpt lat="46.94394" lon="5.43582">
        <ele>212</ele>
        <time>2012-09-21T14:04:17Z</time>
      </trkpt>
      <trkpt lat="46.94405" lon="5.43572">
        <ele>212</ele>
        <time>2012-09-21T14:04:19Z</time>
      </trkpt>
      <trkpt lat="46.94416" lon="5.43562">
        <ele>212</ele>
        <time>2012-09-21T14:04:21Z</time>
      </trkpt>
      <trkpt lat="46.94426" lon="5.43552">
        <ele>212</ele>
        <time>2012-09-21T14:04:23Z</time>
      </trkpt>
      <trkpt lat="46.94438" lon="5.43543">
        <ele>212</ele>
        <time>2012-09-21T14:04:25Z</time>
      </trkpt>
      <trkpt lat="46.94449" lon="5.43535">
        <ele>217</ele>
        <time>2012-09-21T14:04:27Z</time>
      </trkpt>
      <trkpt lat="46.94461" lon="5.43528">
        <ele>217</ele>
        <time>2012-09-21T14:04:29Z</time>
      </trkpt>
      <trkpt lat="46.94474" lon="5.43523">
        <ele>217</ele>
        <time>2012-09-21T14:04:31Z</time>
      </trkpt>
      <trkpt lat="46.94486" lon="5.43517">
        <ele>217</ele>
        <time>2012-09-21T14:04:33Z</time>
      </trkpt>
      <trkpt lat="46.94498" lon="5.43511">
        <ele>217</ele>
        <time>2012-09-21T14:04:35Z</time>
      </trkpt>
      <trkpt lat="46.94511" lon="5.43506">
        <ele>217</ele>
        <time>2012-09-21T14:04:37Z</time>
      </trkpt>
      <trkpt lat="46.94523" lon="5.435">
        <ele>217</ele>
        <time>2012-09-21T14:04:39Z</time>
      </trkpt>
      <trkpt lat="46.94536" lon="5.43494">
        <ele>217</ele>
        <time>2012-09-21T14:04:41Z</time>
      </trkpt>
      <trkpt lat="46.9455" lon="5.43489">
        <ele>217</ele>
        <time>2012-09-21T14:04:43Z</time>
      </trkpt>
      <trkpt lat="46.94565" lon="5.43484">
        <ele>217</ele>
        <time>2012-09-21T14:04:45Z</time>
      </trkpt>
      <trkpt lat="46.9458" lon="5.4348">
        <ele>217</ele>
        <time>2012-09-21T14:04:47Z</time>
      </trkpt>
      <trkpt lat="46.94596" lon="5.43475">
        <ele>217</ele>
        <time>2012-09-21T14:04:49Z</time>
      </trkpt>
      <trkpt lat="46.94611" lon="5.43471">
        <ele>217</ele>
        <time>2012-09-21T14:04:51Z</time>
      </trkpt>
      <trkpt lat="46.94627" lon="5.43466">
        <ele>217</ele>
        <time>2012-09-21T14:04:53Z</time>
      </trkpt>
      <trkpt lat="46.94642" lon="5.43461">
        <ele>217</ele>
        <time>2012-09-21T14:04:55Z</time>
      </trkpt>
      <trkpt lat="46.94656" lon="5.43457">
        <ele>217</ele>
        <time>2012-09-21T14:04:57Z</time>
      </trkpt>
      <trkpt lat="46.94669" lon="5.43452">
        <ele>217</ele>
        <time>2012-09-21T14:04:59Z</time>
      </trkpt>
      <trkpt lat="46.94681" lon="5.43448">
        <ele>217</ele>
        <time>2012-09-21T14:05:01Z</time>
      </trkpt>
      <trkpt lat="46.94694" lon="5.43444">
        <ele>217</ele>
        <time>2012-09-21T14:05:03Z</time>
      </trkpt>
      <trkpt lat="46.94707" lon="5.43439">
        <ele>217</ele>
        <time>2012-09-21T14:05:05Z</time>
      </trkpt>
      <trkpt lat="46.94722" lon="5.43434">
        <ele>217</ele>
        <time>2012-09-21T14:05:07Z</time>
      </trkpt>
      <trkpt lat="46.94738" lon="5.4343">
        <ele>217</ele>
        <time>2012-09-21T14:05:09Z</time>
      </trkpt>
      <trkpt lat="46.94754" lon="5.43425">
        <ele>217</ele>
        <time>2012-09-21T14:05:11Z</time>
      </trkpt>
      <trkpt lat="46.9477" lon="5.43421">
        <ele>217</ele>
        <time>2012-09-21T14:05:13Z</time>
      </trkpt>
      <trkpt lat="46.94786" lon="5.43415">
        <ele>217</ele>
        <time>2012-09-21T14:05:15Z</time>
      </trkpt>
      <trkpt lat="46.94802" lon="5.4341">
        <ele>217</ele>
        <time>2012-09-21T14:05:17Z</time>
      </trkpt>
      <trkpt lat="46.94816" lon="5.43402">
        <ele>217</ele>
        <time>2012-09-21T14:05:19Z</time>
      </trkpt>
      <trkpt lat="46.9483" lon="5.43393">
        <ele>217</ele>
        <time>2012-09-21T14:05:21Z</time>
      </trkpt>
      <trkpt lat="46.94842" lon="5.43384">
        <ele>217</ele>
        <time>2012-09-21T14:05:23Z</time>
      </trkpt>
      <trkpt lat="46.94854" lon="5.43374">
        <ele>217</ele>
        <time>2012-09-21T14:05:25Z</time>
      </trkpt>
      <trkpt lat="46.94866" lon="5.43362">
        <ele>217</ele>
        <time>2012-09-21T14:05:27Z</time>
      </trkpt>
      <trkpt lat="46.94877" lon="5.4335">
        <ele>217</ele>
        <time>2012-09-21T14:05:29Z</time>
      </trkpt>
      <trkpt lat="46.9489" lon="5.43337">
        <ele>217</ele>
        <time>2012-09-21T14:05:31Z</time>
      </trkpt>
      <trkpt lat="46.94903" lon="5.43323">
        <ele>217</ele>
        <time>2012-09-21T14:05:33Z</time>
      </trkpt>
      <trkpt lat="46.94917" lon="5.43308">
        <ele>217</ele>
        <time>2012-09-21T14:05:35Z</time>
      </trkpt>
      <trkpt lat="46.94932" lon="5.43294">
        <ele>217</ele>
        <time>2012-09-21T14:05:37Z</time>
      </trkpt>
      <trkpt lat="46.94939" lon="5.43286">
        <ele>212</ele>
        <time>2012-09-21T14:05:38Z</time>
      </trkpt>
      <trkpt lat="46.94947" lon="5.43278">
        <ele>212</ele>
        <time>2012-09-21T14:05:39Z</time>
      </trkpt>
      <trkpt lat="46.94956" lon="5.43271">
        <ele>212</ele>
        <time>2012-09-21T14:05:40Z</time>
      </trkpt>
      <trkpt lat="46.94966" lon="5.43266">
        <ele>212</ele>
        <time>2012-09-21T14:05:41Z</time>
      </trkpt>
      <trkpt lat="46.94976" lon="5.43263">
        <ele>212</ele>
        <time>2012-09-21T14:05:42Z</time>
      </trkpt>
      <trkpt lat="46.94986" lon="5.43259">
        <ele>212</ele>
        <time>2012-09-21T14:05:43Z</time>
      </trkpt>
      <trkpt lat="46.94997" lon="5.43256">
        <ele>212</ele>
        <time>2012-09-21T14:05:44Z</time>
      </trkpt>
      <trkpt lat="46.95007" lon="5.43254">
        <ele>212</ele>
        <time>2012-09-21T14:05:45Z</time>
      </trkpt>
      <trkpt lat="46.95017" lon="5.43253">
        <ele>212</ele>
        <time>2012-09-21T14:05:46Z</time>
      </trkpt>
      <trkpt lat="46.95028" lon="5.43253">
        <ele>212</ele>
        <time>2012-09-21T14:05:47Z</time>
      </trkpt>
      <trkpt lat="46.95038" lon="5.43254">
        <ele>212</ele>
        <time>2012-09-21T14:05:48Z</time>
      </trkpt>
      <trkpt lat="46.95048" lon="5.43258">
        <ele>212</ele>
        <time>2012-09-21T14:05:49Z</time>
      </trkpt>
      <trkpt lat="46.95057" lon="5.43262">
        <ele>212</ele>
        <time>2012-09-21T14:05:50Z</time>
      </trkpt>
      <trkpt lat="46.95067" lon="5.43264">
        <ele>212</ele>
        <time>2012-09-21T14:05:51Z</time>
      </trkpt>
      <trkpt lat="46.95076" lon="5.43267">
        <ele>212</ele>
        <time>2012-09-21T14:05:52Z</time>
      </trkpt>
      <trkpt lat="46.95085" lon="5.43268">
        <ele>212</ele>
        <time>2012-09-21T14:05:53Z</time>
      </trkpt>
      <trkpt lat="46.95103" lon="5.43267">
        <ele>212</ele>
        <time>2012-09-21T14:05:55Z</time>
      </trkpt>
      <trkpt lat="46.9512" lon="5.43264">
        <ele>212</ele>
        <time>2012-09-21T14:05:57Z</time>
      </trkpt>
      <trkpt lat="46.95135" lon="5.43261">
        <ele>212</ele>
        <time>2012-09-21T14:05:59Z</time>
      </trkpt>
      <trkpt lat="46.95149" lon="5.43257">
        <ele>212</ele>
        <time>2012-09-21T14:06:01Z</time>
      </trkpt>
      <trkpt lat="46.95163" lon="5.43254">
        <ele>212</ele>
        <time>2012-09-21T14:06:03Z</time>
      </trkpt>
      <trkpt lat="46.95176" lon="5.43251">
        <ele>212</ele>
        <time>2012-09-21T14:06:05Z</time>
      </trkpt>
      <trkpt lat="46.95187" lon="5.43247">
        <ele>212</ele>
        <time>2012-09-21T14:06:07Z</time>
      </trkpt>
      <trkpt lat="46.95198" lon="5.43242">
        <ele>212</ele>
        <time>2012-09-21T14:06:09Z</time>
      </trkpt>
      <trkpt lat="46.95209" lon="5.43236">
        <ele>212</ele>
        <time>2012-09-21T14:06:11Z</time>
      </trkpt>
      <trkpt lat="46.95219" lon="5.4323">
        <ele>218</ele>
        <time>2012-09-21T14:06:13Z</time>
      </trkpt>
      <trkpt lat="46.9523" lon="5.43224">
        <ele>218</ele>
        <time>2012-09-21T14:06:15Z</time>
      </trkpt>
      <trkpt lat="46.95241" lon="5.43219">
        <ele>218</ele>
        <time>2012-09-21T14:06:17Z</time>
      </trkpt>
      <trkpt lat="46.95252" lon="5.43216">
        <ele>218</ele>
        <time>2012-09-21T14:06:19Z</time>
      </trkpt>
      <trkpt lat="46.95264" lon="5.43214">
        <ele>218</ele>
        <time>2012-09-21T14:06:21Z</time>
      </trkpt>
      <trkpt lat="46.95275" lon="5.43211">
        <ele>218</ele>
        <time>2012-09-21T14:06:23Z</time>
      </trkpt>
      <trkpt lat="46.95288" lon="5.43209">
        <ele>218</ele>
        <time>2012-09-21T14:06:25Z</time>
      </trkpt>
      <trkpt lat="46.953" lon="5.43205">
        <ele>218</ele>
        <time>2012-09-21T14:06:27Z</time>
      </trkpt>
      <trkpt lat="46.95312" lon="5.43201">
        <ele>218</ele>
        <time>2012-09-21T14:06:29Z</time>
      </trkpt>
      <trkpt lat="46.95325" lon="5.43194">
        <ele>218</ele>
        <time>2012-09-21T14:06:31Z</time>
      </trkpt>
      <trkpt lat="46.95338" lon="5.43187">
        <ele>218</ele>
        <time>2012-09-21T14:06:33Z</time>
      </trkpt>
      <trkpt lat="46.95351" lon="5.43178">
        <ele>218</ele>
        <time>2012-09-21T14:06:35Z</time>
      </trkpt>
      <trkpt lat="46.95363" lon="5.43167">
        <ele>218</ele>
        <time>2012-09-21T14:06:37Z</time>
      </trkpt>
      <trkpt lat="46.95374" lon="5.43155">
        <ele>218</ele>
        <time>2012-09-21T14:06:39Z</time>
      </trkpt>
      <trkpt lat="46.95385" lon="5.43139">
        <ele>218</ele>
        <time>2012-09-21T14:06:41Z</time>
      </trkpt>
      <trkpt lat="46.95395" lon="5.43122">
        <ele>218</ele>
        <time>2012-09-21T14:06:43Z</time>
      </trkpt>
      <trkpt lat="46.95404" lon="5.43104">
        <ele>218</ele>
        <time>2012-09-21T14:06:45Z</time>
      </trkpt>
      <trkpt lat="46.95414" lon="5.43086">
        <ele>218</ele>
        <time>2012-09-21T14:06:47Z</time>
      </trkpt>
      <trkpt lat="46.95425" lon="5.43069">
        <ele>218</ele>
        <time>2012-09-21T14:06:49Z</time>
      </trkpt>
      <trkpt lat="46.95436" lon="5.43053">
        <ele>218</ele>
        <time>2012-09-21T14:06:51Z</time>
      </trkpt>
      <trkpt lat="46.95448" lon="5.43036">
        <ele>218</ele>
        <time>2012-09-21T14:06:53Z</time>
      </trkpt>
      <trkpt lat="46.95459" lon="5.4302">
        <ele>218</ele>
        <time>2012-09-21T14:06:55Z</time>
      </trkpt>
      <trkpt lat="46.95471" lon="5.43003">
        <ele>218</ele>
        <time>2012-09-21T14:06:57Z</time>
      </trkpt>
      <trkpt lat="46.95483" lon="5.42987">
        <ele>218</ele>
        <time>2012-09-21T14:06:59Z</time>
      </trkpt>
      <trkpt lat="46.95495" lon="5.42971">
        <ele>218</ele>
        <time>2012-09-21T14:07:01Z</time>
      </trkpt>
      <trkpt lat="46.95507" lon="5.42958">
        <ele>218</ele>
        <time>2012-09-21T14:07:03Z</time>
      </trkpt>
      <trkpt lat="46.9552" lon="5.42946">
        <ele>218</ele>
        <time>2012-09-21T14:07:05Z</time>
      </trkpt>
      <trkpt lat="46.95534" lon="5.42936">
        <ele>218</ele>
        <time>2012-09-21T14:07:07Z</time>
      </trkpt>
      <trkpt lat="46.9555" lon="5.42927">
        <ele>218</ele>
        <time>2012-09-21T14:07:09Z</time>
      </trkpt>
      <trkpt lat="46.95565" lon="5.42926">
        <ele>218</ele>
        <time>2012-09-21T14:07:11Z</time>
      </trkpt>
      <trkpt lat="46.9558" lon="5.42929">
        <ele>218</ele>
        <time>2012-09-21T14:07:13Z</time>
      </trkpt>
      <trkpt lat="46.95595" lon="5.42936">
        <ele>218</ele>
        <time>2012-09-21T14:07:15Z</time>
      </trkpt>
      <trkpt lat="46.9561" lon="5.42945">
        <ele>218</ele>
        <time>2012-09-21T14:07:17Z</time>
      </trkpt>
      <trkpt lat="46.95625" lon="5.42955">
        <ele>218</ele>
        <time>2012-09-21T14:07:19Z</time>
      </trkpt>
      <trkpt lat="46.95639" lon="5.42966">
        <ele>218</ele>
        <time>2012-09-21T14:07:21Z</time>
      </trkpt>
      <trkpt lat="46.95654" lon="5.42975">
        <ele>218</ele>
        <time>2012-09-21T14:07:23Z</time>
      </trkpt>
      <trkpt lat="46.9567" lon="5.42978">
        <ele>218</ele>
        <time>2012-09-21T14:07:25Z</time>
      </trkpt>
      <trkpt lat="46.95684" lon="5.42971">
        <ele>218</ele>
        <time>2012-09-21T14:07:27Z</time>
      </trkpt>
      <trkpt lat="46.95698" lon="5.42959">
        <ele>218</ele>
        <time>2012-09-21T14:07:29Z</time>
      </trkpt>
      <trkpt lat="46.95711" lon="5.42946">
        <ele>218</ele>
        <time>2012-09-21T14:07:31Z</time>
      </trkpt>
      <trkpt lat="46.95725" lon="5.42933">
        <ele>218</ele>
        <time>2012-09-21T14:07:33Z</time>
      </trkpt>
      <trkpt lat="46.95738" lon="5.4292">
        <ele>218</ele>
        <time>2012-09-21T14:07:35Z</time>
      </trkpt>
      <trkpt lat="46.95752" lon="5.42908">
        <ele>218</ele>
        <time>2012-09-21T14:07:37Z</time>
      </trkpt>
      <trkpt lat="46.95766" lon="5.42895">
        <ele>218</ele>
        <time>2012-09-21T14:07:39Z</time>
      </trkpt>
      <trkpt lat="46.9578" lon="5.42882">
        <ele>218</ele>
        <time>2012-09-21T14:07:41Z</time>
      </trkpt>
      <trkpt lat="46.95794" lon="5.42868">
        <ele>218</ele>
        <time>2012-09-21T14:07:43Z</time>
      </trkpt>
      <trkpt lat="46.95807" lon="5.42855">
        <ele>218</ele>
        <time>2012-09-21T14:07:45Z</time>
      </trkpt>
      <trkpt lat="46.95821" lon="5.42841">
        <ele>218</ele>
        <time>2012-09-21T14:07:47Z</time>
      </trkpt>
      <trkpt lat="46.95834" lon="5.42827">
        <ele>212</ele>
        <time>2012-09-21T14:07:49Z</time>
      </trkpt>
      <trkpt lat="46.95846" lon="5.42811">
        <ele>212</ele>
        <time>2012-09-21T14:07:51Z</time>
      </trkpt>
      <trkpt lat="46.95853" lon="5.42802">
        <ele>212</ele>
        <time>2012-09-21T14:07:52Z</time>
      </trkpt>
      <trkpt lat="46.95865" lon="5.42786">
        <ele>212</ele>
        <time>2012-09-21T14:07:54Z</time>
      </trkpt>
      <trkpt lat="46.95878" lon="5.42768">
        <ele>212</ele>
        <time>2012-09-21T14:07:56Z</time>
      </trkpt>
      <trkpt lat="46.9589" lon="5.42752">
        <ele>212</ele>
        <time>2012-09-21T14:07:58Z</time>
      </trkpt>
      <trkpt lat="46.95902" lon="5.42736">
        <ele>212</ele>
        <time>2012-09-21T14:08:00Z</time>
      </trkpt>
      <trkpt lat="46.95914" lon="5.42721">
        <ele>212</ele>
        <time>2012-09-21T14:08:02Z</time>
      </trkpt>
      <trkpt lat="46.95925" lon="5.42705">
        <ele>212</ele>
        <time>2012-09-21T14:08:04Z</time>
      </trkpt>
      <trkpt lat="46.95937" lon="5.42689">
        <ele>212</ele>
        <time>2012-09-21T14:08:06Z</time>
      </trkpt>
      <trkpt lat="46.9595" lon="5.42673">
        <ele>212</ele>
        <time>2012-09-21T14:08:08Z</time>
      </trkpt>
      <trkpt lat="46.95963" lon="5.42657">
        <ele>212</ele>
        <time>2012-09-21T14:08:10Z</time>
      </trkpt>
      <trkpt lat="46.95977" lon="5.42641">
        <ele>212</ele>
        <time>2012-09-21T14:08:12Z</time>
      </trkpt>
      <trkpt lat="46.95991" lon="5.42624">
        <ele>206</ele>
        <time>2012-09-21T14:08:14Z</time>
      </trkpt>
      <trkpt lat="46.95999" lon="5.42615">
        <ele>206</ele>
        <time>2012-09-21T14:08:15Z</time>
      </trkpt>
      <trkpt lat="46.96007" lon="5.42606">
        <ele>206</ele>
        <time>2012-09-21T14:08:16Z</time>
      </trkpt>
      <trkpt lat="46.96015" lon="5.42597">
        <ele>206</ele>
        <time>2012-09-21T14:08:17Z</time>
      </trkpt>
      <trkpt lat="46.96024" lon="5.42589">
        <ele>206</ele>
        <time>2012-09-21T14:08:18Z</time>
      </trkpt>
      <trkpt lat="46.96032" lon="5.4258">
        <ele>206</ele>
        <time>2012-09-21T14:08:19Z</time>
      </trkpt>
      <trkpt lat="46.96041" lon="5.42572">
        <ele>206</ele>
        <time>2012-09-21T14:08:20Z</time>
      </trkpt>
      <trkpt lat="46.9605" lon="5.42564">
        <ele>206</ele>
        <time>2012-09-21T14:08:21Z</time>
      </trkpt>
      <trkpt lat="46.96059" lon="5.42556">
        <ele>206</ele>
        <time>2012-09-21T14:08:22Z</time>
      </trkpt>
      <trkpt lat="46.96069" lon="5.42547">
        <ele>206</ele>
        <time>2012-09-21T14:08:23Z</time>
      </trkpt>
      <trkpt lat="46.96078" lon="5.42539">
        <ele>206</ele>
        <time>2012-09-21T14:08:24Z</time>
      </trkpt>
      <trkpt lat="46.96087" lon="5.42531">
        <ele>201</ele>
        <time>2012-09-21T14:08:25Z</time>
      </trkpt>
      <trkpt lat="46.96096" lon="5.42523">
        <ele>201</ele>
        <time>2012-09-21T14:08:26Z</time>
      </trkpt>
      <trkpt lat="46.96105" lon="5.42516">
        <ele>201</ele>
        <time>2012-09-21T14:08:27Z</time>
      </trkpt>
      <trkpt lat="46.96114" lon="5.42511">
        <ele>201</ele>
        <time>2012-09-21T14:08:28Z</time>
      </trkpt>
      <trkpt lat="46.9613" lon="5.425">
        <ele>201</ele>
        <time>2012-09-21T14:08:30Z</time>
      </trkpt>
      <trkpt lat="46.96144" lon="5.42492">
        <ele>201</ele>
        <time>2012-09-21T14:08:32Z</time>
      </trkpt>
      <trkpt lat="46.96159" lon="5.42483">
        <ele>201</ele>
        <time>2012-09-21T14:08:34Z</time>
      </trkpt>
      <trkpt lat="46.96173" lon="5.42473">
        <ele>201</ele>
        <time>2012-09-21T14:08:36Z</time>
      </trkpt>
      <trkpt lat="46.96186" lon="5.42459">
        <ele>201</ele>
        <time>2012-09-21T14:08:38Z</time>
      </trkpt>
      <trkpt lat="46.96198" lon="5.42442">
        <ele>201</ele>
        <time>2012-09-21T14:08:40Z</time>
      </trkpt>
      <trkpt lat="46.96209" lon="5.42422">
        <ele>201</ele>
        <time>2012-09-21T14:08:42Z</time>
      </trkpt>
      <trkpt lat="46.9622" lon="5.42402">
        <ele>201</ele>
        <time>2012-09-21T14:08:44Z</time>
      </trkpt>
      <trkpt lat="46.96232" lon="5.42383">
        <ele>201</ele>
        <time>2012-09-21T14:08:46Z</time>
      </trkpt>
      <trkpt lat="46.96245" lon="5.42366">
        <ele>201</ele>
        <time>2012-09-21T14:08:48Z</time>
      </trkpt>
      <trkpt lat="46.96252" lon="5.42358">
        <ele>201</ele>
        <time>2012-09-21T14:08:49Z</time>
      </trkpt>
      <trkpt lat="46.96267" lon="5.42344">
        <ele>201</ele>
        <time>2012-09-21T14:08:51Z</time>
      </trkpt>
      <trkpt lat="46.96283" lon="5.42331">
        <ele>201</ele>
        <time>2012-09-21T14:08:53Z</time>
      </trkpt>
      <trkpt lat="46.96297" lon="5.42318">
        <ele>201</ele>
        <time>2012-09-21T14:08:55Z</time>
      </trkpt>
      <trkpt lat="46.96312" lon="5.42305">
        <ele>201</ele>
        <time>2012-09-21T14:08:57Z</time>
      </trkpt>
      <trkpt lat="46.96326" lon="5.42291">
        <ele>201</ele>
        <time>2012-09-21T14:08:59Z</time>
      </trkpt>
      <trkpt lat="46.96339" lon="5.42276">
        <ele>201</ele>
        <time>2012-09-21T14:09:01Z</time>
      </trkpt>
      <trkpt lat="46.96352" lon="5.4226">
        <ele>201</ele>
        <time>2012-09-21T14:09:03Z</time>
      </trkpt>
      <trkpt lat="46.96363" lon="5.42243">
        <ele>201</ele>
        <time>2012-09-21T14:09:05Z</time>
      </trkpt>
      <trkpt lat="46.96373" lon="5.42224">
        <ele>201</ele>
        <time>2012-09-21T14:09:07Z</time>
      </trkpt>
      <trkpt lat="46.96383" lon="5.42205">
        <ele>201</ele>
        <time>2012-09-21T14:09:09Z</time>
      </trkpt>
      <trkpt lat="46.9639" lon="5.42185">
        <ele>201</ele>
        <time>2012-09-21T14:09:11Z</time>
      </trkpt>
      <trkpt lat="46.96396" lon="5.42166">
        <ele>201</ele>
        <time>2012-09-21T14:09:13Z</time>
      </trkpt>
      <trkpt lat="46.96401" lon="5.42146">
        <ele>201</ele>
        <time>2012-09-21T14:09:15Z</time>
      </trkpt>
      <trkpt lat="46.96406" lon="5.42124">
        <ele>201</ele>
        <time>2012-09-21T14:09:17Z</time>
      </trkpt>
      <trkpt lat="46.96409" lon="5.42103">
        <ele>201</ele>
        <time>2012-09-21T14:09:19Z</time>
      </trkpt>
      <trkpt lat="46.96414" lon="5.42081">
        <ele>201</ele>
        <time>2012-09-21T14:09:21Z</time>
      </trkpt>
      <trkpt lat="46.9642" lon="5.42061">
        <ele>201</ele>
        <time>2012-09-21T14:09:23Z</time>
      </trkpt>
      <trkpt lat="46.96432" lon="5.42047">
        <ele>201</ele>
        <time>2012-09-21T14:09:25Z</time>
      </trkpt>
      <trkpt lat="46.96444" lon="5.42039">
        <ele>196</ele>
        <time>2012-09-21T14:09:27Z</time>
      </trkpt>
      <trkpt lat="46.96459" lon="5.42036">
        <ele>196</ele>
        <time>2012-09-21T14:09:29Z</time>
      </trkpt>
      <trkpt lat="46.96474" lon="5.42035">
        <ele>196</ele>
        <time>2012-09-21T14:09:31Z</time>
      </trkpt>
      <trkpt lat="46.96489" lon="5.42037">
        <ele>196</ele>
        <time>2012-09-21T14:09:33Z</time>
      </trkpt>
      <trkpt lat="46.96503" lon="5.4204">
        <ele>196</ele>
        <time>2012-09-21T14:09:35Z</time>
      </trkpt>
      <trkpt lat="46.96518" lon="5.42045">
        <ele>196</ele>
        <time>2012-09-21T14:09:37Z</time>
      </trkpt>
      <trkpt lat="46.96532" lon="5.42052">
        <ele>196</ele>
        <time>2012-09-21T14:09:39Z</time>
      </trkpt>
      <trkpt lat="46.96546" lon="5.42061">
        <ele>196</ele>
        <time>2012-09-21T14:09:41Z</time>
      </trkpt>
      <trkpt lat="46.96559" lon="5.42069">
        <ele>196</ele>
        <time>2012-09-21T14:09:43Z</time>
      </trkpt>
      <trkpt lat="46.9657" lon="5.42078">
        <ele>196</ele>
        <time>2012-09-21T14:09:45Z</time>
      </trkpt>
      <trkpt lat="46.96582" lon="5.42085">
        <ele>196</ele>
        <time>2012-09-21T14:09:47Z</time>
      </trkpt>
      <trkpt lat="46.96593" lon="5.42093">
        <ele>196</ele>
        <time>2012-09-21T14:09:49Z</time>
      </trkpt>
      <trkpt lat="46.96602" lon="5.42098">
        <ele>196</ele>
        <time>2012-09-21T14:09:51Z</time>
      </trkpt>
      <trkpt lat="46.96611" lon="5.42102">
        <ele>196</ele>
        <time>2012-09-21T14:09:54Z</time>
      </trkpt>
      <trkpt lat="46.9662" lon="5.42105">
        <ele>196</ele>
        <time>2012-09-21T14:09:59Z</time>
      </trkpt>
      <trkpt lat="46.96625" lon="5.42094">
        <ele>196</ele>
        <time>2012-09-21T14:10:03Z</time>
      </trkpt>
      <trkpt lat="46.96626" lon="5.4208">
        <ele>196</ele>
        <time>2012-09-21T14:10:06Z</time>
      </trkpt>
      <trkpt lat="46.96626" lon="5.42067">
        <ele>196</ele>
        <time>2012-09-21T14:10:09Z</time>
      </trkpt>
      <trkpt lat="46.96628" lon="5.4205">
        <ele>196</ele>
        <time>2012-09-21T14:10:12Z</time>
      </trkpt>
      <trkpt lat="46.9663" lon="5.42035">
        <ele>196</ele>
        <time>2012-09-21T14:10:14Z</time>
      </trkpt>
      <trkpt lat="46.96631" lon="5.4202">
        <ele>196</ele>
        <time>2012-09-21T14:10:16Z</time>
      </trkpt>
      <trkpt lat="46.96632" lon="5.42002">
        <ele>196</ele>
        <time>2012-09-21T14:10:18Z</time>
      </trkpt>
      <trkpt lat="46.96633" lon="5.41985">
        <ele>196</ele>
        <time>2012-09-21T14:10:20Z</time>
      </trkpt>
      <trkpt lat="46.96635" lon="5.41966">
        <ele>196</ele>
        <time>2012-09-21T14:10:22Z</time>
      </trkpt>
      <trkpt lat="46.96636" lon="5.41946">
        <ele>196</ele>
        <time>2012-09-21T14:10:24Z</time>
      </trkpt>
      <trkpt lat="46.96638" lon="5.41928">
        <ele>196</ele>
        <time>2012-09-21T14:10:26Z</time>
      </trkpt>
      <trkpt lat="46.9664" lon="5.41908">
        <ele>196</ele>
        <time>2012-09-21T14:10:28Z</time>
      </trkpt>
      <trkpt lat="46.96642" lon="5.41889">
        <ele>196</ele>
        <time>2012-09-21T14:10:30Z</time>
      </trkpt>
      <trkpt lat="46.96644" lon="5.41869">
        <ele>196</ele>
        <time>2012-09-21T14:10:32Z</time>
      </trkpt>
      <trkpt lat="46.96647" lon="5.41848">
        <ele>196</ele>
        <time>2012-09-21T14:10:34Z</time>
      </trkpt>
      <trkpt lat="46.9665" lon="5.41826">
        <ele>196</ele>
        <time>2012-09-21T14:10:36Z</time>
      </trkpt>
      <trkpt lat="46.96653" lon="5.41803">
        <ele>196</ele>
        <time>2012-09-21T14:10:38Z</time>
      </trkpt>
      <trkpt lat="46.96654" lon="5.4178">
        <ele>196</ele>
        <time>2012-09-21T14:10:40Z</time>
      </trkpt>
      <trkpt lat="46.96656" lon="5.41758">
        <ele>196</ele>
        <time>2012-09-21T14:10:42Z</time>
      </trkpt>
      <trkpt lat="46.96658" lon="5.41735">
        <ele>196</ele>
        <time>2012-09-21T14:10:44Z</time>
      </trkpt>
      <trkpt lat="46.9666" lon="5.41714">
        <ele>196</ele>
        <time>2012-09-21T14:10:46Z</time>
      </trkpt>
      <trkpt lat="46.96662" lon="5.41692">
        <ele>196</ele>
        <time>2012-09-21T14:10:48Z</time>
      </trkpt>
      <trkpt lat="46.96663" lon="5.41671">
        <ele>196</ele>
        <time>2012-09-21T14:10:50Z</time>
      </trkpt>
      <trkpt lat="46.96666" lon="5.4165">
        <ele>196</ele>
        <time>2012-09-21T14:10:52Z</time>
      </trkpt>
      <trkpt lat="46.96668" lon="5.41631">
        <ele>196</ele>
        <time>2012-09-21T14:10:54Z</time>
      </trkpt>
      <trkpt lat="46.96671" lon="5.41614">
        <ele>196</ele>
        <time>2012-09-21T14:10:56Z</time>
      </trkpt>
      <trkpt lat="46.9667" lon="5.41596">
        <ele>196</ele>
        <time>2012-09-21T14:10:58Z</time>
      </trkpt>
      <trkpt lat="46.96671" lon="5.41578">
        <ele>196</ele>
        <time>2012-09-21T14:11:00Z</time>
      </trkpt>
      <trkpt lat="46.96676" lon="5.41559">
        <ele>196</ele>
        <time>2012-09-21T14:11:02Z</time>
      </trkpt>
      <trkpt lat="46.96677" lon="5.4154">
        <ele>196</ele>
        <time>2012-09-21T14:11:04Z</time>
      </trkpt>
      <trkpt lat="46.96677" lon="5.4152">
        <ele>196</ele>
        <time>2012-09-21T14:11:06Z</time>
      </trkpt>
      <trkpt lat="46.96682" lon="5.41501">
        <ele>196</ele>
        <time>2012-09-21T14:11:08Z</time>
      </trkpt>
      <trkpt lat="46.96688" lon="5.41481">
        <ele>196</ele>
        <time>2012-09-21T14:11:10Z</time>
      </trkpt>
      <trkpt lat="46.96692" lon="5.4146">
        <ele>196</ele>
        <time>2012-09-21T14:11:12Z</time>
      </trkpt>
      <trkpt lat="46.96696" lon="5.4144">
        <ele>196</ele>
        <time>2012-09-21T14:11:14Z</time>
      </trkpt>
      <trkpt lat="46.967" lon="5.41418">
        <ele>196</ele>
        <time>2012-09-21T14:11:16Z</time>
      </trkpt>
      <trkpt lat="46.96704" lon="5.41397">
        <ele>196</ele>
        <time>2012-09-21T14:11:18Z</time>
      </trkpt>
      <trkpt lat="46.96709" lon="5.41377">
        <ele>196</ele>
        <time>2012-09-21T14:11:20Z</time>
      </trkpt>
      <trkpt lat="46.96714" lon="5.41356">
        <ele>196</ele>
        <time>2012-09-21T14:11:22Z</time>
      </trkpt>
      <trkpt lat="46.96719" lon="5.41337">
        <ele>196</ele>
        <time>2012-09-21T14:11:24Z</time>
      </trkpt>
      <trkpt lat="46.96725" lon="5.41317">
        <ele>196</ele>
        <time>2012-09-21T14:11:26Z</time>
      </trkpt>
      <trkpt lat="46.96731" lon="5.41297">
        <ele>196</ele>
        <time>2012-09-21T14:11:28Z</time>
      </trkpt>
      <trkpt lat="46.96736" lon="5.41276">
        <ele>196</ele>
        <time>2012-09-21T14:11:30Z</time>
      </trkpt>
      <trkpt lat="46.9674" lon="5.41255">
        <ele>196</ele>
        <time>2012-09-21T14:11:32Z</time>
      </trkpt>
      <trkpt lat="46.96745" lon="5.41233">
        <ele>196</ele>
        <time>2012-09-21T14:11:34Z</time>
      </trkpt>
      <trkpt lat="46.96747" lon="5.41211">
        <ele>196</ele>
        <time>2012-09-21T14:11:36Z</time>
      </trkpt>
      <trkpt lat="46.96751" lon="5.41188">
        <ele>196</ele>
        <time>2012-09-21T14:11:38Z</time>
      </trkpt>
      <trkpt lat="46.96753" lon="5.41165">
        <ele>196</ele>
        <time>2012-09-21T14:11:40Z</time>
      </trkpt>
      <trkpt lat="46.96754" lon="5.41142">
        <ele>196</ele>
        <time>2012-09-21T14:11:42Z</time>
      </trkpt>
      <trkpt lat="46.96754" lon="5.4112">
        <ele>196</ele>
        <time>2012-09-21T14:11:44Z</time>
      </trkpt>
      <trkpt lat="46.96753" lon="5.41099">
        <ele>196</ele>
        <time>2012-09-21T14:11:46Z</time>
      </trkpt>
      <trkpt lat="46.9675" lon="5.41079">
        <ele>196</ele>
        <time>2012-09-21T14:11:48Z</time>
      </trkpt>
      <trkpt lat="46.96747" lon="5.41057">
        <ele>196</ele>
        <time>2012-09-21T14:11:50Z</time>
      </trkpt>
      <trkpt lat="46.96745" lon="5.41036">
        <ele>196</ele>
        <time>2012-09-21T14:11:52Z</time>
      </trkpt>
      <trkpt lat="46.96743" lon="5.41016">
        <ele>196</ele>
        <time>2012-09-21T14:11:54Z</time>
      </trkpt>
      <trkpt lat="46.96741" lon="5.40996">
        <ele>196</ele>
        <time>2012-09-21T14:11:56Z</time>
      </trkpt>
      <trkpt lat="46.96741" lon="5.40975">
        <ele>196</ele>
        <time>2012-09-21T14:11:58Z</time>
      </trkpt>
      <trkpt lat="46.96745" lon="5.40956">
        <ele>196</ele>
        <time>2012-09-21T14:12:00Z</time>
      </trkpt>
      <trkpt lat="46.96749" lon="5.40937">
        <ele>196</ele>
        <time>2012-09-21T14:12:02Z</time>
      </trkpt>
      <trkpt lat="46.96756" lon="5.4092">
        <ele>196</ele>
        <time>2012-09-21T14:12:04Z</time>
      </trkpt>
      <trkpt lat="46.96762" lon="5.40901">
        <ele>196</ele>
        <time>2012-09-21T14:12:06Z</time>
      </trkpt>
      <trkpt lat="46.96767" lon="5.40882">
        <ele>196</ele>
        <time>2012-09-21T14:12:08Z</time>
      </trkpt>
      <trkpt lat="46.9677" lon="5.40863">
        <ele>196</ele>
        <time>2012-09-21T14:12:10Z</time>
      </trkpt>
      <trkpt lat="46.96773" lon="5.40845">
        <ele>196</ele>
        <time>2012-09-21T14:12:12Z</time>
      </trkpt>
      <trkpt lat="46.96776" lon="5.40826">
        <ele>196</ele>
        <time>2012-09-21T14:12:14Z</time>
      </trkpt>
      <trkpt lat="46.96778" lon="5.40807">
        <ele>196</ele>
        <time>2012-09-21T14:12:16Z</time>
      </trkpt>
      <trkpt lat="46.96783" lon="5.40789">
        <ele>196</ele>
        <time>2012-09-21T14:12:18Z</time>
      </trkpt>
      <trkpt lat="46.96786" lon="5.40771">
        <ele>196</ele>
        <time>2012-09-21T14:12:20Z</time>
      </trkpt>
      <trkpt lat="46.96789" lon="5.40754">
        <ele>196</ele>
        <time>2012-09-21T14:12:22Z</time>
      </trkpt>
      <trkpt lat="46.96793" lon="5.40735">
        <ele>196</ele>
        <time>2012-09-21T14:12:24Z</time>
      </trkpt>
      <trkpt lat="46.96797" lon="5.40716">
        <ele>196</ele>
        <time>2012-09-21T14:12:26Z</time>
      </trkpt>
      <trkpt lat="46.96803" lon="5.40698">
        <ele>196</ele>
        <time>2012-09-21T14:12:28Z</time>
      </trkpt>
      <trkpt lat="46.96809" lon="5.40679">
        <ele>196</ele>
        <time>2012-09-21T14:12:30Z</time>
      </trkpt>
      <trkpt lat="46.96815" lon="5.4066">
        <ele>196</ele>
        <time>2012-09-21T14:12:32Z</time>
      </trkpt>
      <trkpt lat="46.96821" lon="5.40642">
        <ele>196</ele>
        <time>2012-09-21T14:12:34Z</time>
      </trkpt>
      <trkpt lat="46.96827" lon="5.40623">
        <ele>196</ele>
        <time>2012-09-21T14:12:36Z</time>
      </trkpt>
      <trkpt lat="46.96832" lon="5.40605">
        <ele>196</ele>
        <time>2012-09-21T14:12:38Z</time>
      </trkpt>
      <trkpt lat="46.96841" lon="5.40589">
        <ele>196</ele>
        <time>2012-09-21T14:12:40Z</time>
      </trkpt>
      <trkpt lat="46.96853" lon="5.40582">
        <ele>196</ele>
        <time>2012-09-21T14:12:42Z</time>
      </trkpt>
      <trkpt lat="46.96866" lon="5.40582">
        <ele>196</ele>
        <time>2012-09-21T14:12:44Z</time>
      </trkpt>
      <trkpt lat="46.96879" lon="5.40583">
        <ele>196</ele>
        <time>2012-09-21T14:12:46Z</time>
      </trkpt>
      <trkpt lat="46.96892" lon="5.40584">
        <ele>196</ele>
        <time>2012-09-21T14:12:48Z</time>
      </trkpt>
      <trkpt lat="46.96905" lon="5.4059">
        <ele>196</ele>
        <time>2012-09-21T14:12:50Z</time>
      </trkpt>
      <trkpt lat="46.96917" lon="5.40602">
        <ele>196</ele>
        <time>2012-09-21T14:12:52Z</time>
      </trkpt>
      <trkpt lat="46.96928" lon="5.40616">
        <ele>196</ele>
        <time>2012-09-21T14:12:54Z</time>
      </trkpt>
      <trkpt lat="46.96941" lon="5.40627">
        <ele>196</ele>
        <time>2012-09-21T14:12:56Z</time>
      </trkpt>
      <trkpt lat="46.96955" lon="5.40635">
        <ele>196</ele>
        <time>2012-09-21T14:12:58Z</time>
      </trkpt>
      <trkpt lat="46.96971" lon="5.40639">
        <ele>196</ele>
        <time>2012-09-21T14:13:00Z</time>
      </trkpt>
      <trkpt lat="46.96987" lon="5.40642">
        <ele>196</ele>
        <time>2012-09-21T14:13:02Z</time>
      </trkpt>
      <trkpt lat="46.97003" lon="5.40643">
        <ele>196</ele>
        <time>2012-09-21T14:13:04Z</time>
      </trkpt>
      <trkpt lat="46.97019" lon="5.40643">
        <ele>196</ele>
        <time>2012-09-21T14:13:06Z</time>
      </trkpt>
      <trkpt lat="46.97035" lon="5.40643">
        <ele>196</ele>
        <time>2012-09-21T14:13:08Z</time>
      </trkpt>
      <trkpt lat="46.9705" lon="5.40642">
        <ele>196</ele>
        <time>2012-09-21T14:13:10Z</time>
      </trkpt>
      <trkpt lat="46.97065" lon="5.4064">
        <ele>196</ele>
        <time>2012-09-21T14:13:12Z</time>
      </trkpt>
      <trkpt lat="46.97078" lon="5.40639">
        <ele>196</ele>
        <time>2012-09-21T14:13:14Z</time>
      </trkpt>
      <trkpt lat="46.97093" lon="5.40638">
        <ele>196</ele>
        <time>2012-09-21T14:13:16Z</time>
      </trkpt>
      <trkpt lat="46.97108" lon="5.40638">
        <ele>196</ele>
        <time>2012-09-21T14:13:18Z</time>
      </trkpt>
      <trkpt lat="46.97123" lon="5.40637">
        <ele>196</ele>
        <time>2012-09-21T14:13:20Z</time>
      </trkpt>
      <trkpt lat="46.97138" lon="5.40637">
        <ele>196</ele>
        <time>2012-09-21T14:13:22Z</time>
      </trkpt>
      <trkpt lat="46.97153" lon="5.40638">
        <ele>196</ele>
        <time>2012-09-21T14:13:24Z</time>
      </trkpt>
      <trkpt lat="46.97169" lon="5.40639">
        <ele>196</ele>
        <time>2012-09-21T14:13:26Z</time>
      </trkpt>
      <trkpt lat="46.97184" lon="5.4064">
        <ele>196</ele>
        <time>2012-09-21T14:13:28Z</time>
      </trkpt>
      <trkpt lat="46.97198" lon="5.40642">
        <ele>196</ele>
        <time>2012-09-21T14:13:30Z</time>
      </trkpt>
      <trkpt lat="46.97212" lon="5.40646">
        <ele>196</ele>
        <time>2012-09-21T14:13:32Z</time>
      </trkpt>
      <trkpt lat="46.97226" lon="5.40648">
        <ele>196</ele>
        <time>2012-09-21T14:13:34Z</time>
      </trkpt>
      <trkpt lat="46.9724" lon="5.40651">
        <ele>196</ele>
        <time>2012-09-21T14:13:36Z</time>
      </trkpt>
      <trkpt lat="46.97254" lon="5.40654">
        <ele>196</ele>
        <time>2012-09-21T14:13:38Z</time>
      </trkpt>
      <trkpt lat="46.97268" lon="5.40656">
        <ele>196</ele>
        <time>2012-09-21T14:13:40Z</time>
      </trkpt>
      <trkpt lat="46.97283" lon="5.40659">
        <ele>196</ele>
        <time>2012-09-21T14:13:42Z</time>
      </trkpt>
      <trkpt lat="46.97299" lon="5.40661">
        <ele>196</ele>
        <time>2012-09-21T14:13:44Z</time>
      </trkpt>
      <trkpt lat="46.97313" lon="5.40664">
        <ele>196</ele>
        <time>2012-09-21T14:13:46Z</time>
      </trkpt>
      <trkpt lat="46.97327" lon="5.40666">
        <ele>196</ele>
        <time>2012-09-21T14:13:48Z</time>
      </trkpt>
      <trkpt lat="46.97342" lon="5.4067">
        <ele>196</ele>
        <time>2012-09-21T14:13:50Z</time>
      </trkpt>
      <trkpt lat="46.97356" lon="5.40673">
        <ele>196</ele>
        <time>2012-09-21T14:13:52Z</time>
      </trkpt>
      <trkpt lat="46.97371" lon="5.40675">
        <ele>196</ele>
        <time>2012-09-21T14:13:54Z</time>
      </trkpt>
      <trkpt lat="46.97385" lon="5.40678">
        <ele>196</ele>
        <time>2012-09-21T14:13:56Z</time>
      </trkpt>
      <trkpt lat="46.974" lon="5.40682">
        <ele>196</ele>
        <time>2012-09-21T14:13:58Z</time>
      </trkpt>
      <trkpt lat="46.97415" lon="5.40683">
        <ele>196</ele>
        <time>2012-09-21T14:14:00Z</time>
      </trkpt>
      <trkpt lat="46.97429" lon="5.40687">
        <ele>196</ele>
        <time>2012-09-21T14:14:02Z</time>
      </trkpt>
      <trkpt lat="46.97444" lon="5.40689">
        <ele>196</ele>
        <time>2012-09-21T14:14:04Z</time>
      </trkpt>
      <trkpt lat="46.97458" lon="5.40692">
        <ele>196</ele>
        <time>2012-09-21T14:14:06Z</time>
      </trkpt>
      <trkpt lat="46.97472" lon="5.40696">
        <ele>196</ele>
        <time>2012-09-21T14:14:08Z</time>
      </trkpt>
      <trkpt lat="46.97487" lon="5.40699">
        <ele>196</ele>
        <time>2012-09-21T14:14:10Z</time>
      </trkpt>
      <trkpt lat="46.97501" lon="5.40702">
        <ele>196</ele>
        <time>2012-09-21T14:14:12Z</time>
      </trkpt>
      <trkpt lat="46.97516" lon="5.40704">
        <ele>196</ele>
        <time>2012-09-21T14:14:14Z</time>
      </trkpt>
      <trkpt lat="46.9753" lon="5.40708">
        <ele>196</ele>
        <time>2012-09-21T14:14:16Z</time>
      </trkpt>
      <trkpt lat="46.97545" lon="5.4071">
        <ele>196</ele>
        <time>2012-09-21T14:14:18Z</time>
      </trkpt>
      <trkpt lat="46.97559" lon="5.40712">
        <ele>196</ele>
        <time>2012-09-21T14:14:20Z</time>
      </trkpt>
      <trkpt lat="46.97573" lon="5.40716">
        <ele>196</ele>
        <time>2012-09-21T14:14:22Z</time>
      </trkpt>
      <trkpt lat="46.97588" lon="5.40718">
        <ele>196</ele>
        <time>2012-09-21T14:14:24Z</time>
      </trkpt>
      <trkpt lat="46.97603" lon="5.40721">
        <ele>196</ele>
        <time>2012-09-21T14:14:26Z</time>
      </trkpt>
      <trkpt lat="46.97618" lon="5.40725">
        <ele>196</ele>
        <time>2012-09-21T14:14:28Z</time>
      </trkpt>
      <trkpt lat="46.97632" lon="5.40727">
        <ele>196</ele>
        <time>2012-09-21T14:14:30Z</time>
      </trkpt>
      <trkpt lat="46.97648" lon="5.4073">
        <ele>196</ele>
        <time>2012-09-21T14:14:32Z</time>
      </trkpt>
      <trkpt lat="46.97663" lon="5.40733">
        <ele>196</ele>
        <time>2012-09-21T14:14:34Z</time>
      </trkpt>
      <trkpt lat="46.97679" lon="5.40736">
        <ele>196</ele>
        <time>2012-09-21T14:14:36Z</time>
      </trkpt>
      <trkpt lat="46.97693" lon="5.40739">
        <ele>196</ele>
        <time>2012-09-21T14:14:38Z</time>
      </trkpt>
      <trkpt lat="46.97707" lon="5.40742">
        <ele>196</ele>
        <time>2012-09-21T14:14:40Z</time>
      </trkpt>
      <trkpt lat="46.9772" lon="5.40745">
        <ele>196</ele>
        <time>2012-09-21T14:14:42Z</time>
      </trkpt>
      <trkpt lat="46.97731" lon="5.40747">
        <ele>196</ele>
        <time>2012-09-21T14:14:44Z</time>
      </trkpt>
      <trkpt lat="46.97745" lon="5.4075">
        <ele>196</ele>
        <time>2012-09-21T14:14:46Z</time>
      </trkpt>
      <trkpt lat="46.97759" lon="5.40753">
        <ele>196</ele>
        <time>2012-09-21T14:14:48Z</time>
      </trkpt>
      <trkpt lat="46.97775" lon="5.40755">
        <ele>196</ele>
        <time>2012-09-21T14:14:50Z</time>
      </trkpt>
      <trkpt lat="46.9779" lon="5.40758">
        <ele>196</ele>
        <time>2012-09-21T14:14:52Z</time>
      </trkpt>
      <trkpt lat="46.97806" lon="5.40761">
        <ele>196</ele>
        <time>2012-09-21T14:14:54Z</time>
      </trkpt>
      <trkpt lat="46.97821" lon="5.40762">
        <ele>196</ele>
        <time>2012-09-21T14:14:56Z</time>
      </trkpt>
      <trkpt lat="46.97835" lon="5.40762">
        <ele>196</ele>
        <time>2012-09-21T14:14:58Z</time>
      </trkpt>
      <trkpt lat="46.97852" lon="5.40757">
        <ele>196</ele>
        <time>2012-09-21T14:15:00Z</time>
      </trkpt>
      <trkpt lat="46.97867" lon="5.40747">
        <ele>196</ele>
        <time>2012-09-21T14:15:02Z</time>
      </trkpt>
      <trkpt lat="46.97883" lon="5.40736">
        <ele>196</ele>
        <time>2012-09-21T14:15:04Z</time>
      </trkpt>
      <trkpt lat="46.97898" lon="5.40728">
        <ele>196</ele>
        <time>2012-09-21T14:15:06Z</time>
      </trkpt>
      <trkpt lat="46.97914" lon="5.40722">
        <ele>196</ele>
        <time>2012-09-21T14:15:08Z</time>
      </trkpt>
      <trkpt lat="46.9793" lon="5.40718">
        <ele>196</ele>
        <time>2012-09-21T14:15:10Z</time>
      </trkpt>
      <trkpt lat="46.97946" lon="5.40717">
        <ele>196</ele>
        <time>2012-09-21T14:15:12Z</time>
      </trkpt>
      <trkpt lat="46.97961" lon="5.40718">
        <ele>196</ele>
        <time>2012-09-21T14:15:14Z</time>
      </trkpt>
      <trkpt lat="46.97977" lon="5.40719">
        <ele>196</ele>
        <time>2012-09-21T14:15:16Z</time>
      </trkpt>
      <trkpt lat="46.97992" lon="5.40724">
        <ele>196</ele>
        <time>2012-09-21T14:15:18Z</time>
      </trkpt>
      <trkpt lat="46.98007" lon="5.40729">
        <ele>196</ele>
        <time>2012-09-21T14:15:20Z</time>
      </trkpt>
      <trkpt lat="46.98022" lon="5.40735">
        <ele>196</ele>
        <time>2012-09-21T14:15:22Z</time>
      </trkpt>
      <trkpt lat="46.98037" lon="5.40741">
        <ele>191</ele>
        <time>2012-09-21T14:15:24Z</time>
      </trkpt>
      <trkpt lat="46.98053" lon="5.40746">
        <ele>191</ele>
        <time>2012-09-21T14:15:26Z</time>
      </trkpt>
      <trkpt lat="46.98068" lon="5.40751">
        <ele>191</ele>
        <time>2012-09-21T14:15:28Z</time>
      </trkpt>
      <trkpt lat="46.98084" lon="5.40754">
        <ele>191</ele>
        <time>2012-09-21T14:15:30Z</time>
      </trkpt>
      <trkpt lat="46.981" lon="5.40758">
        <ele>191</ele>
        <time>2012-09-21T14:15:32Z</time>
      </trkpt>
      <trkpt lat="46.98116" lon="5.40762">
        <ele>191</ele>
        <time>2012-09-21T14:15:34Z</time>
      </trkpt>
      <trkpt lat="46.9813" lon="5.40764">
        <ele>191</ele>
        <time>2012-09-21T14:15:36Z</time>
      </trkpt>
      <trkpt lat="46.98146" lon="5.40768">
        <ele>191</ele>
        <time>2012-09-21T14:15:38Z</time>
      </trkpt>
      <trkpt lat="46.98161" lon="5.40772">
        <ele>191</ele>
        <time>2012-09-21T14:15:40Z</time>
      </trkpt>
      <trkpt lat="46.98176" lon="5.40777">
        <ele>191</ele>
        <time>2012-09-21T14:15:42Z</time>
      </trkpt>
      <trkpt lat="46.98191" lon="5.40784">
        <ele>191</ele>
        <time>2012-09-21T14:15:44Z</time>
      </trkpt>
      <trkpt lat="46.98207" lon="5.40791">
        <ele>191</ele>
        <time>2012-09-21T14:15:46Z</time>
      </trkpt>
      <trkpt lat="46.98222" lon="5.40799">
        <ele>191</ele>
        <time>2012-09-21T14:15:48Z</time>
      </trkpt>
      <trkpt lat="46.98237" lon="5.40807">
        <ele>191</ele>
        <time>2012-09-21T14:15:50Z</time>
      </trkpt>
      <trkpt lat="46.98252" lon="5.40813">
        <ele>191</ele>
        <time>2012-09-21T14:15:52Z</time>
      </trkpt>
      <trkpt lat="46.98268" lon="5.40818">
        <ele>191</ele>
        <time>2012-09-21T14:15:54Z</time>
      </trkpt>
      <trkpt lat="46.98283" lon="5.40822">
        <ele>191</ele>
        <time>2012-09-21T14:15:56Z</time>
      </trkpt>
      <trkpt lat="46.98298" lon="5.40822">
        <ele>191</ele>
        <time>2012-09-21T14:15:58Z</time>
      </trkpt>
      <trkpt lat="46.98314" lon="5.40815">
        <ele>191</ele>
        <time>2012-09-21T14:16:00Z</time>
      </trkpt>
      <trkpt lat="46.98328" lon="5.40803">
        <ele>191</ele>
        <time>2012-09-21T14:16:02Z</time>
      </trkpt>
      <trkpt lat="46.9834" lon="5.40788">
        <ele>191</ele>
        <time>2012-09-21T14:16:04Z</time>
      </trkpt>
      <trkpt lat="46.98352" lon="5.40771">
        <ele>191</ele>
        <time>2012-09-21T14:16:06Z</time>
      </trkpt>
      <trkpt lat="46.98363" lon="5.40755">
        <ele>191</ele>
        <time>2012-09-21T14:16:08Z</time>
      </trkpt>
      <trkpt lat="46.98374" lon="5.4074">
        <ele>191</ele>
        <time>2012-09-21T14:16:10Z</time>
      </trkpt>
      <trkpt lat="46.98385" lon="5.40725">
        <ele>191</ele>
        <time>2012-09-21T14:16:12Z</time>
      </trkpt>
      <trkpt lat="46.98396" lon="5.40709">
        <ele>191</ele>
        <time>2012-09-21T14:16:14Z</time>
      </trkpt>
      <trkpt lat="46.98406" lon="5.40692">
        <ele>191</ele>
        <time>2012-09-21T14:16:16Z</time>
      </trkpt>
      <trkpt lat="46.98416" lon="5.40674">
        <ele>191</ele>
        <time>2012-09-21T14:16:18Z</time>
      </trkpt>
      <trkpt lat="46.98427" lon="5.40656">
        <ele>191</ele>
        <time>2012-09-21T14:16:20Z</time>
      </trkpt>
      <trkpt lat="46.98438" lon="5.40639">
        <ele>191</ele>
        <time>2012-09-21T14:16:22Z</time>
      </trkpt>
      <trkpt lat="46.98451" lon="5.40625">
        <ele>191</ele>
        <time>2012-09-21T14:16:24Z</time>
      </trkpt>
      <trkpt lat="46.98465" lon="5.40615">
        <ele>191</ele>
        <time>2012-09-21T14:16:26Z</time>
      </trkpt>
      <trkpt lat="46.98481" lon="5.40608">
        <ele>191</ele>
        <time>2012-09-21T14:16:28Z</time>
      </trkpt>
      <trkpt lat="46.98498" lon="5.40603">
        <ele>191</ele>
        <time>2012-09-21T14:16:30Z</time>
      </trkpt>
      <trkpt lat="46.98514" lon="5.40597">
        <ele>191</ele>
        <time>2012-09-21T14:16:32Z</time>
      </trkpt>
      <trkpt lat="46.9853" lon="5.40592">
        <ele>191</ele>
        <time>2012-09-21T14:16:34Z</time>
      </trkpt>
      <trkpt lat="46.98546" lon="5.40587">
        <ele>191</ele>
        <time>2012-09-21T14:16:36Z</time>
      </trkpt>
      <trkpt lat="46.98561" lon="5.40584">
        <ele>191</ele>
        <time>2012-09-21T14:16:38Z</time>
      </trkpt>
      <trkpt lat="46.98577" lon="5.4058">
        <ele>191</ele>
        <time>2012-09-21T14:16:40Z</time>
      </trkpt>
      <trkpt lat="46.98592" lon="5.40578">
        <ele>191</ele>
        <time>2012-09-21T14:16:42Z</time>
      </trkpt>
      <trkpt lat="46.98608" lon="5.40577">
        <ele>191</ele>
        <time>2012-09-21T14:16:44Z</time>
      </trkpt>
      <trkpt lat="46.98623" lon="5.40575">
        <ele>191</ele>
        <time>2012-09-21T14:16:46Z</time>
      </trkpt>
      <trkpt lat="46.98639" lon="5.40574">
        <ele>191</ele>
        <time>2012-09-21T14:16:48Z</time>
      </trkpt>
      <trkpt lat="46.98655" lon="5.40572">
        <ele>191</ele>
        <time>2012-09-21T14:16:50Z</time>
      </trkpt>
      <trkpt lat="46.98671" lon="5.40571">
        <ele>191</ele>
        <time>2012-09-21T14:16:52Z</time>
      </trkpt>
      <trkpt lat="46.98687" lon="5.40571">
        <ele>191</ele>
        <time>2012-09-21T14:16:54Z</time>
      </trkpt>
      <trkpt lat="46.98703" lon="5.4057">
        <ele>191</ele>
        <time>2012-09-21T14:16:56Z</time>
      </trkpt>
      <trkpt lat="46.98721" lon="5.40569">
        <ele>191</ele>
        <time>2012-09-21T14:16:58Z</time>
      </trkpt>
      <trkpt lat="46.98738" lon="5.40568">
        <ele>191</ele>
        <time>2012-09-21T14:17:00Z</time>
      </trkpt>
      <trkpt lat="46.98755" lon="5.40568">
        <ele>191</ele>
        <time>2012-09-21T14:17:02Z</time>
      </trkpt>
      <trkpt lat="46.98772" lon="5.40565">
        <ele>191</ele>
        <time>2012-09-21T14:17:04Z</time>
      </trkpt>
      <trkpt lat="46.98788" lon="5.40562">
        <ele>191</ele>
        <time>2012-09-21T14:17:06Z</time>
      </trkpt>
      <trkpt lat="46.98804" lon="5.40559">
        <ele>191</ele>
        <time>2012-09-21T14:17:08Z</time>
      </trkpt>
      <trkpt lat="46.98821" lon="5.40555">
        <ele>191</ele>
        <time>2012-09-21T14:17:10Z</time>
      </trkpt>
      <trkpt lat="46.98837" lon="5.40552">
        <ele>191</ele>
        <time>2012-09-21T14:17:12Z</time>
      </trkpt>
      <trkpt lat="46.98854" lon="5.40551">
        <ele>191</ele>
        <time>2012-09-21T14:17:14Z</time>
      </trkpt>
      <trkpt lat="46.9887" lon="5.40553">
        <ele>191</ele>
        <time>2012-09-21T14:17:16Z</time>
      </trkpt>
      <trkpt lat="46.98886" lon="5.40557">
        <ele>191</ele>
        <time>2012-09-21T14:17:18Z</time>
      </trkpt>
      <trkpt lat="46.98902" lon="5.40564">
        <ele>191</ele>
        <time>2012-09-21T14:17:20Z</time>
      </trkpt>
      <trkpt lat="46.98917" lon="5.40574">
        <ele>191</ele>
        <time>2012-09-21T14:17:22Z</time>
      </trkpt>
      <trkpt lat="46.98933" lon="5.40586">
        <ele>191</ele>
        <time>2012-09-21T14:17:24Z</time>
      </trkpt>
      <trkpt lat="46.98948" lon="5.40596">
        <ele>191</ele>
        <time>2012-09-21T14:17:26Z</time>
      </trkpt>
      <trkpt lat="46.98963" lon="5.40607">
        <ele>191</ele>
        <time>2012-09-21T14:17:28Z</time>
      </trkpt>
      <trkpt lat="46.98979" lon="5.40617">
        <ele>191</ele>
        <time>2012-09-21T14:17:30Z</time>
      </trkpt>
      <trkpt lat="46.98995" lon="5.40624">
        <ele>191</ele>
        <time>2012-09-21T14:17:32Z</time>
      </trkpt>
      <trkpt lat="46.99011" lon="5.40631">
        <ele>191</ele>
        <time>2012-09-21T14:17:34Z</time>
      </trkpt>
      <trkpt lat="46.99019" lon="5.40635">
        <ele>191</ele>
        <time>2012-09-21T14:17:35Z</time>
      </trkpt>
      <trkpt lat="46.99035" lon="5.40642">
        <ele>191</ele>
        <time>2012-09-21T14:17:37Z</time>
      </trkpt>
      <trkpt lat="46.99044" lon="5.40646">
        <ele>191</ele>
        <time>2012-09-21T14:17:38Z</time>
      </trkpt>
      <trkpt lat="46.99061" lon="5.40652">
        <ele>191</ele>
        <time>2012-09-21T14:17:40Z</time>
      </trkpt>
      <trkpt lat="46.99077" lon="5.40659">
        <ele>191</ele>
        <time>2012-09-21T14:17:42Z</time>
      </trkpt>
      <trkpt lat="46.99094" lon="5.40666">
        <ele>191</ele>
        <time>2012-09-21T14:17:44Z</time>
      </trkpt>
      <trkpt lat="46.99102" lon="5.4067">
        <ele>191</ele>
        <time>2012-09-21T14:17:45Z</time>
      </trkpt>
      <trkpt lat="46.99118" lon="5.40677">
        <ele>191</ele>
        <time>2012-09-21T14:17:47Z</time>
      </trkpt>
      <trkpt lat="46.99134" lon="5.40684">
        <ele>191</ele>
        <time>2012-09-21T14:17:49Z</time>
      </trkpt>
      <trkpt lat="46.9915" lon="5.4069">
        <ele>191</ele>
        <time>2012-09-21T14:17:51Z</time>
      </trkpt>
      <trkpt lat="46.99166" lon="5.40694">
        <ele>191</ele>
        <time>2012-09-21T14:17:53Z</time>
      </trkpt>
      <trkpt lat="46.99183" lon="5.40695">
        <ele>191</ele>
        <time>2012-09-21T14:17:55Z</time>
      </trkpt>
      <trkpt lat="46.99201" lon="5.40692">
        <ele>191</ele>
        <time>2012-09-21T14:17:57Z</time>
      </trkpt>
      <trkpt lat="46.99218" lon="5.40686">
        <ele>191</ele>
        <time>2012-09-21T14:17:59Z</time>
      </trkpt>
      <trkpt lat="46.99234" lon="5.40681">
        <ele>191</ele>
        <time>2012-09-21T14:18:01Z</time>
      </trkpt>
      <trkpt lat="46.99243" lon="5.40677">
        <ele>191</ele>
        <time>2012-09-21T14:18:02Z</time>
      </trkpt>
      <trkpt lat="46.9926" lon="5.40673">
        <ele>191</ele>
        <time>2012-09-21T14:18:04Z</time>
      </trkpt>
      <trkpt lat="46.99276" lon="5.40668">
        <ele>191</ele>
        <time>2012-09-21T14:18:06Z</time>
      </trkpt>
      <trkpt lat="46.99292" lon="5.40664">
        <ele>191</ele>
        <time>2012-09-21T14:18:08Z</time>
      </trkpt>
      <trkpt lat="46.99308" lon="5.40662">
        <ele>191</ele>
        <time>2012-09-21T14:18:10Z</time>
      </trkpt>
      <trkpt lat="46.99324" lon="5.40662">
        <ele>191</ele>
        <time>2012-09-21T14:18:12Z</time>
      </trkpt>
      <trkpt lat="46.9934" lon="5.40662">
        <ele>191</ele>
        <time>2012-09-21T14:18:14Z</time>
      </trkpt>
      <trkpt lat="46.99357" lon="5.40661">
        <ele>191</ele>
        <time>2012-09-21T14:18:16Z</time>
      </trkpt>
      <trkpt lat="46.99373" lon="5.40658">
        <ele>191</ele>
        <time>2012-09-21T14:18:18Z</time>
      </trkpt>
      <trkpt lat="46.99388" lon="5.40654">
        <ele>191</ele>
        <time>2012-09-21T14:18:20Z</time>
      </trkpt>
      <trkpt lat="46.99404" lon="5.40647">
        <ele>191</ele>
        <time>2012-09-21T14:18:22Z</time>
      </trkpt>
      <trkpt lat="46.99419" lon="5.40639">
        <ele>191</ele>
        <time>2012-09-21T14:18:24Z</time>
      </trkpt>
      <trkpt lat="46.99433" lon="5.40632">
        <ele>191</ele>
        <time>2012-09-21T14:18:26Z</time>
      </trkpt>
      <trkpt lat="46.99448" lon="5.40624">
        <ele>191</ele>
        <time>2012-09-21T14:18:28Z</time>
      </trkpt>
      <trkpt lat="46.99463" lon="5.40616">
        <ele>191</ele>
        <time>2012-09-21T14:18:30Z</time>
      </trkpt>
      <trkpt lat="46.99477" lon="5.40608">
        <ele>191</ele>
        <time>2012-09-21T14:18:32Z</time>
      </trkpt>
      <trkpt lat="46.99493" lon="5.40599">
        <ele>191</ele>
        <time>2012-09-21T14:18:34Z</time>
      </trkpt>
      <trkpt lat="46.99509" lon="5.40589">
        <ele>191</ele>
        <time>2012-09-21T14:18:36Z</time>
      </trkpt>
      <trkpt lat="46.99524" lon="5.40579">
        <ele>191</ele>
        <time>2012-09-21T14:18:38Z</time>
      </trkpt>
      <trkpt lat="46.9954" lon="5.40569">
        <ele>191</ele>
        <time>2012-09-21T14:18:40Z</time>
      </trkpt>
      <trkpt lat="46.99556" lon="5.40559">
        <ele>191</ele>
        <time>2012-09-21T14:18:42Z</time>
      </trkpt>
      <trkpt lat="46.99572" lon="5.40548">
        <ele>191</ele>
        <time>2012-09-21T14:18:44Z</time>
      </trkpt>
      <trkpt lat="46.99587" lon="5.40536">
        <ele>191</ele>
        <time>2012-09-21T14:18:46Z</time>
      </trkpt>
      <trkpt lat="46.99595" lon="5.4053">
        <ele>191</ele>
        <time>2012-09-21T14:18:47Z</time>
      </trkpt>
      <trkpt lat="46.99603" lon="5.40524">
        <ele>191</ele>
        <time>2012-09-21T14:18:48Z</time>
      </trkpt>
      <trkpt lat="46.99611" lon="5.40515">
        <ele>191</ele>
        <time>2012-09-21T14:18:49Z</time>
      </trkpt>
      <trkpt lat="46.99618" lon="5.40507">
        <ele>191</ele>
        <time>2012-09-21T14:18:50Z</time>
      </trkpt>
      <trkpt lat="46.99625" lon="5.40498">
        <ele>191</ele>
        <time>2012-09-21T14:18:51Z</time>
      </trkpt>
      <trkpt lat="46.99632" lon="5.40489">
        <ele>191</ele>
        <time>2012-09-21T14:18:52Z</time>
      </trkpt>
      <trkpt lat="46.99638" lon="5.40479">
        <ele>191</ele>
        <time>2012-09-21T14:18:53Z</time>
      </trkpt>
      <trkpt lat="46.99645" lon="5.40469">
        <ele>191</ele>
        <time>2012-09-21T14:18:54Z</time>
      </trkpt>
      <trkpt lat="46.99651" lon="5.40457">
        <ele>191</ele>
        <time>2012-09-21T14:18:55Z</time>
      </trkpt>
      <trkpt lat="46.99657" lon="5.40446">
        <ele>191</ele>
        <time>2012-09-21T14:18:56Z</time>
      </trkpt>
      <trkpt lat="46.99663" lon="5.40435">
        <ele>191</ele>
        <time>2012-09-21T14:18:57Z</time>
      </trkpt>
      <trkpt lat="46.9967" lon="5.40423">
        <ele>191</ele>
        <time>2012-09-21T14:18:58Z</time>
      </trkpt>
      <trkpt lat="46.99676" lon="5.40412">
        <ele>191</ele>
        <time>2012-09-21T14:18:59Z</time>
      </trkpt>
      <trkpt lat="46.99683" lon="5.40401">
        <ele>191</ele>
        <time>2012-09-21T14:19:00Z</time>
      </trkpt>
      <trkpt lat="46.99689" lon="5.40391">
        <ele>191</ele>
        <time>2012-09-21T14:19:01Z</time>
      </trkpt>
      <trkpt lat="46.99696" lon="5.4038">
        <ele>191</ele>
        <time>2012-09-21T14:19:02Z</time>
      </trkpt>
      <trkpt lat="46.99703" lon="5.4037">
        <ele>191</ele>
        <time>2012-09-21T14:19:03Z</time>
      </trkpt>
      <trkpt lat="46.99711" lon="5.4036">
        <ele>191</ele>
        <time>2012-09-21T14:19:04Z</time>
      </trkpt>
      <trkpt lat="46.99719" lon="5.4035">
        <ele>191</ele>
        <time>2012-09-21T14:19:05Z</time>
      </trkpt>
      <trkpt lat="46.99727" lon="5.40342">
        <ele>191</ele>
        <time>2012-09-21T14:19:06Z</time>
      </trkpt>
      <trkpt lat="46.99735" lon="5.40334">
        <ele>191</ele>
        <time>2012-09-21T14:19:07Z</time>
      </trkpt>
      <trkpt lat="46.99744" lon="5.40326">
        <ele>191</ele>
        <time>2012-09-21T14:19:08Z</time>
      </trkpt>
      <trkpt lat="46.99753" lon="5.4032">
        <ele>191</ele>
        <time>2012-09-21T14:19:09Z</time>
      </trkpt>
      <trkpt lat="46.99762" lon="5.40312">
        <ele>191</ele>
        <time>2012-09-21T14:19:10Z</time>
      </trkpt>
      <trkpt lat="46.99771" lon="5.40307">
        <ele>191</ele>
        <time>2012-09-21T14:19:11Z</time>
      </trkpt>
      <trkpt lat="46.99781" lon="5.40303">
        <ele>191</ele>
        <time>2012-09-21T14:19:12Z</time>
      </trkpt>
      <trkpt lat="46.9979" lon="5.40299">
        <ele>191</ele>
        <time>2012-09-21T14:19:13Z</time>
      </trkpt>
      <trkpt lat="46.998" lon="5.40296">
        <ele>191</ele>
        <time>2012-09-21T14:19:14Z</time>
      </trkpt>
      <trkpt lat="46.9981" lon="5.40294">
        <ele>191</ele>
        <time>2012-09-21T14:19:15Z</time>
      </trkpt>
      <trkpt lat="46.9982" lon="5.40293">
        <ele>191</ele>
        <time>2012-09-21T14:19:16Z</time>
      </trkpt>
      <trkpt lat="46.9983" lon="5.4029">
        <ele>191</ele>
        <time>2012-09-21T14:19:17Z</time>
      </trkpt>
      <trkpt lat="46.9984" lon="5.40286">
        <ele>191</ele>
        <time>2012-09-21T14:19:18Z</time>
      </trkpt>
      <trkpt lat="46.9985" lon="5.40282">
        <ele>191</ele>
        <time>2012-09-21T14:19:19Z</time>
      </trkpt>
      <trkpt lat="46.9986" lon="5.40276">
        <ele>191</ele>
        <time>2012-09-21T14:19:20Z</time>
      </trkpt>
      <trkpt lat="46.99869" lon="5.40268">
        <ele>191</ele>
        <time>2012-09-21T14:19:21Z</time>
      </trkpt>
      <trkpt lat="46.99877" lon="5.40261">
        <ele>191</ele>
        <time>2012-09-21T14:19:22Z</time>
      </trkpt>
      <trkpt lat="46.99885" lon="5.40252">
        <ele>191</ele>
        <time>2012-09-21T14:19:23Z</time>
      </trkpt>
      <trkpt lat="46.99893" lon="5.40243">
        <ele>191</ele>
        <time>2012-09-21T14:19:24Z</time>
      </trkpt>
      <trkpt lat="46.99901" lon="5.40234">
        <ele>191</ele>
        <time>2012-09-21T14:19:25Z</time>
      </trkpt>
      <trkpt lat="46.99909" lon="5.40225">
        <ele>191</ele>
        <time>2012-09-21T14:19:26Z</time>
      </trkpt>
      <trkpt lat="46.99918" lon="5.40216">
        <ele>191</ele>
        <time>2012-09-21T14:19:27Z</time>
      </trkpt>
      <trkpt lat="46.99926" lon="5.40208">
        <ele>191</ele>
        <time>2012-09-21T14:19:28Z</time>
      </trkpt>
      <trkpt lat="46.99935" lon="5.402">
        <ele>191</ele>
        <time>2012-09-21T14:19:29Z</time>
      </trkpt>
      <trkpt lat="46.99944" lon="5.40193">
        <ele>191</ele>
        <time>2012-09-21T14:19:30Z</time>
      </trkpt>
      <trkpt lat="46.99953" lon="5.40186">
        <ele>191</ele>
        <time>2012-09-21T14:19:31Z</time>
      </trkpt>
      <trkpt lat="46.99962" lon="5.4018">
        <ele>191</ele>
        <time>2012-09-21T14:19:32Z</time>
      </trkpt>
      <trkpt lat="46.99972" lon="5.40176">
        <ele>191</ele>
        <time>2012-09-21T14:19:33Z</time>
      </trkpt>
      <trkpt lat="46.99981" lon="5.40171">
        <ele>191</ele>
        <time>2012-09-21T14:19:34Z</time>
      </trkpt>
      <trkpt lat="46.99991" lon="5.40167">
        <ele>191</ele>
        <time>2012-09-21T14:19:35Z</time>
      </trkpt>
      <trkpt lat="47" lon="5.40163">
        <ele>191</ele>
        <time>2012-09-21T14:19:36Z</time>
      </trkpt>
      <trkpt lat="47.0001" lon="5.40158">
        <ele>191</ele>
        <time>2012-09-21T14:19:37Z</time>
      </trkpt>
      <trkpt lat="47.00019" lon="5.40152">
        <ele>191</ele>
        <time>2012-09-21T14:19:38Z</time>
      </trkpt>
      <trkpt lat="47.00027" lon="5.40144">
        <ele>191</ele>
        <time>2012-09-21T14:19:39Z</time>
      </trkpt>
      <trkpt lat="47.00033" lon="5.40135">
        <ele>191</ele>
        <time>2012-09-21T14:19:40Z</time>
      </trkpt>
      <trkpt lat="47.00039" lon="5.40123">
        <ele>191</ele>
        <time>2012-09-21T14:19:41Z</time>
      </trkpt>
      <trkpt lat="47.00043" lon="5.40109">
        <ele>191</ele>
        <time>2012-09-21T14:19:42Z</time>
      </trkpt>
      <trkpt lat="47.00046" lon="5.40096">
        <ele>191</ele>
        <time>2012-09-21T14:19:43Z</time>
      </trkpt>
      <trkpt lat="47.00047" lon="5.40082">
        <ele>191</ele>
        <time>2012-09-21T14:19:44Z</time>
      </trkpt>
      <trkpt lat="47.00048" lon="5.40067">
        <ele>191</ele>
        <time>2012-09-21T14:19:45Z</time>
      </trkpt>
      <trkpt lat="47.00048" lon="5.40054">
        <ele>191</ele>
        <time>2012-09-21T14:19:46Z</time>
      </trkpt>
      <trkpt lat="47.00047" lon="5.4004">
        <ele>191</ele>
        <time>2012-09-21T14:19:47Z</time>
      </trkpt>
      <trkpt lat="47.00045" lon="5.40027">
        <ele>191</ele>
        <time>2012-09-21T14:19:48Z</time>
      </trkpt>
      <trkpt lat="47.00043" lon="5.40014">
        <ele>191</ele>
        <time>2012-09-21T14:19:49Z</time>
      </trkpt>
      <trkpt lat="47.00035" lon="5.39992">
        <ele>191</ele>
        <time>2012-09-21T14:19:51Z</time>
      </trkpt>
      <trkpt lat="47.00025" lon="5.39971">
        <ele>191</ele>
        <time>2012-09-21T14:19:53Z</time>
      </trkpt>
      <trkpt lat="47.00016" lon="5.39951">
        <ele>191</ele>
        <time>2012-09-21T14:19:55Z</time>
      </trkpt>
      <trkpt lat="47.00006" lon="5.39932">
        <ele>191</ele>
        <time>2012-09-21T14:19:57Z</time>
      </trkpt>
      <trkpt lat="46.99997" lon="5.39912">
        <ele>191</ele>
        <time>2012-09-21T14:19:59Z</time>
      </trkpt>
      <trkpt lat="46.99987" lon="5.39892">
        <ele>191</ele>
        <time>2012-09-21T14:20:01Z</time>
      </trkpt>
      <trkpt lat="46.99977" lon="5.39872">
        <ele>191</ele>
        <time>2012-09-21T14:20:03Z</time>
      </trkpt>
      <trkpt lat="46.99966" lon="5.39853">
        <ele>191</ele>
        <time>2012-09-21T14:20:05Z</time>
      </trkpt>
      <trkpt lat="46.99957" lon="5.39833">
        <ele>191</ele>
        <time>2012-09-21T14:20:07Z</time>
      </trkpt>
      <trkpt lat="46.99951" lon="5.3981">
        <ele>191</ele>
        <time>2012-09-21T14:20:09Z</time>
      </trkpt>
      <trkpt lat="46.99947" lon="5.39788">
        <ele>191</ele>
        <time>2012-09-21T14:20:11Z</time>
      </trkpt>
      <trkpt lat="46.99945" lon="5.39764">
        <ele>191</ele>
        <time>2012-09-21T14:20:13Z</time>
      </trkpt>
      <trkpt lat="46.99946" lon="5.3974">
        <ele>191</ele>
        <time>2012-09-21T14:20:15Z</time>
      </trkpt>
      <trkpt lat="46.99947" lon="5.39716">
        <ele>191</ele>
        <time>2012-09-21T14:20:17Z</time>
      </trkpt>
      <trkpt lat="46.99949" lon="5.39693">
        <ele>191</ele>
        <time>2012-09-21T14:20:19Z</time>
      </trkpt>
      <trkpt lat="46.99951" lon="5.39667">
        <ele>191</ele>
        <time>2012-09-21T14:20:21Z</time>
      </trkpt>
      <trkpt lat="46.99954" lon="5.39642">
        <ele>191</ele>
        <time>2012-09-21T14:20:23Z</time>
      </trkpt>
      <trkpt lat="46.99956" lon="5.39617">
        <ele>191</ele>
        <time>2012-09-21T14:20:25Z</time>
      </trkpt>
      <trkpt lat="46.99959" lon="5.39592">
        <ele>191</ele>
        <time>2012-09-21T14:20:27Z</time>
      </trkpt>
      <trkpt lat="46.99962" lon="5.39566">
        <ele>191</ele>
        <time>2012-09-21T14:20:29Z</time>
      </trkpt>
      <trkpt lat="46.99964" lon="5.39542">
        <ele>191</ele>
        <time>2012-09-21T14:20:31Z</time>
      </trkpt>
      <trkpt lat="46.99966" lon="5.39517">
        <ele>191</ele>
        <time>2012-09-21T14:20:33Z</time>
      </trkpt>
      <trkpt lat="46.99968" lon="5.39492">
        <ele>196</ele>
        <time>2012-09-21T14:20:35Z</time>
      </trkpt>
      <trkpt lat="46.9997" lon="5.39467">
        <ele>196</ele>
        <time>2012-09-21T14:20:37Z</time>
      </trkpt>
      <trkpt lat="46.99971" lon="5.39444">
        <ele>196</ele>
        <time>2012-09-21T14:20:39Z</time>
      </trkpt>
      <trkpt lat="46.99972" lon="5.3942">
        <ele>196</ele>
        <time>2012-09-21T14:20:41Z</time>
      </trkpt>
      <trkpt lat="46.99973" lon="5.39396">
        <ele>196</ele>
        <time>2012-09-21T14:20:43Z</time>
      </trkpt>
      <trkpt lat="46.99973" lon="5.39372">
        <ele>196</ele>
        <time>2012-09-21T14:20:45Z</time>
      </trkpt>
      <trkpt lat="46.99974" lon="5.39349">
        <ele>196</ele>
        <time>2012-09-21T14:20:47Z</time>
      </trkpt>
      <trkpt lat="46.99976" lon="5.39325">
        <ele>196</ele>
        <time>2012-09-21T14:20:49Z</time>
      </trkpt>
      <trkpt lat="46.99978" lon="5.39302">
        <ele>196</ele>
        <time>2012-09-21T14:20:51Z</time>
      </trkpt>
      <trkpt lat="46.99979" lon="5.39278">
        <ele>196</ele>
        <time>2012-09-21T14:20:53Z</time>
      </trkpt>
      <trkpt lat="46.99984" lon="5.39253">
        <ele>196</ele>
        <time>2012-09-21T14:20:55Z</time>
      </trkpt>
      <trkpt lat="46.99987" lon="5.39241">
        <ele>196</ele>
        <time>2012-09-21T14:20:56Z</time>
      </trkpt>
      <trkpt lat="46.99994" lon="5.39216">
        <ele>196</ele>
        <time>2012-09-21T14:20:58Z</time>
      </trkpt>
      <trkpt lat="46.99998" lon="5.39205">
        <ele>196</ele>
        <time>2012-09-21T14:20:59Z</time>
      </trkpt>
      <trkpt lat="47.00003" lon="5.39193">
        <ele>196</ele>
        <time>2012-09-21T14:21:00Z</time>
      </trkpt>
      <trkpt lat="47.00008" lon="5.39181">
        <ele>196</ele>
        <time>2012-09-21T14:21:01Z</time>
      </trkpt>
      <trkpt lat="47.00013" lon="5.3917">
        <ele>196</ele>
        <time>2012-09-21T14:21:02Z</time>
      </trkpt>
      <trkpt lat="47.00022" lon="5.39146">
        <ele>196</ele>
        <time>2012-09-21T14:21:04Z</time>
      </trkpt>
      <trkpt lat="47.00026" lon="5.39134">
        <ele>196</ele>
        <time>2012-09-21T14:21:05Z</time>
      </trkpt>
      <trkpt lat="47.00029" lon="5.3912">
        <ele>196</ele>
        <time>2012-09-21T14:21:06Z</time>
      </trkpt>
      <trkpt lat="47.00031" lon="5.39107">
        <ele>196</ele>
        <time>2012-09-21T14:21:07Z</time>
      </trkpt>
      <trkpt lat="47.00033" lon="5.39093">
        <ele>196</ele>
        <time>2012-09-21T14:21:08Z</time>
      </trkpt>
      <trkpt lat="47.00033" lon="5.39079">
        <ele>196</ele>
        <time>2012-09-21T14:21:09Z</time>
      </trkpt>
      <trkpt lat="47.00035" lon="5.39066">
        <ele>196</ele>
        <time>2012-09-21T14:21:10Z</time>
      </trkpt>
      <trkpt lat="47.00036" lon="5.39051">
        <ele>196</ele>
        <time>2012-09-21T14:21:11Z</time>
      </trkpt>
      <trkpt lat="47.00037" lon="5.39038">
        <ele>196</ele>
        <time>2012-09-21T14:21:12Z</time>
      </trkpt>
      <trkpt lat="47.00039" lon="5.39024">
        <ele>196</ele>
        <time>2012-09-21T14:21:13Z</time>
      </trkpt>
      <trkpt lat="47.00042" lon="5.39011">
        <ele>196</ele>
        <time>2012-09-21T14:21:14Z</time>
      </trkpt>
      <trkpt lat="47.00046" lon="5.38999">
        <ele>196</ele>
        <time>2012-09-21T14:21:15Z</time>
      </trkpt>
      <trkpt lat="47.00053" lon="5.38989">
        <ele>196</ele>
        <time>2012-09-21T14:21:16Z</time>
      </trkpt>
      <trkpt lat="47.00065" lon="5.38973">
        <ele>196</ele>
        <time>2012-09-21T14:21:18Z</time>
      </trkpt>
      <trkpt lat="47.00081" lon="5.38966">
        <ele>196</ele>
        <time>2012-09-21T14:21:20Z</time>
      </trkpt>
      <trkpt lat="47.00098" lon="5.38965">
        <ele>196</ele>
        <time>2012-09-21T14:21:22Z</time>
      </trkpt>
      <trkpt lat="47.00115" lon="5.38969">
        <ele>196</ele>
        <time>2012-09-21T14:21:24Z</time>
      </trkpt>
      <trkpt lat="47.00131" lon="5.38974">
        <ele>196</ele>
        <time>2012-09-21T14:21:26Z</time>
      </trkpt>
      <trkpt lat="47.00145" lon="5.38978">
        <ele>196</ele>
        <time>2012-09-21T14:21:28Z</time>
      </trkpt>
      <trkpt lat="47.00159" lon="5.38983">
        <ele>196</ele>
        <time>2012-09-21T14:21:30Z</time>
      </trkpt>
      <trkpt lat="47.00174" lon="5.38987">
        <ele>196</ele>
        <time>2012-09-21T14:21:32Z</time>
      </trkpt>
      <trkpt lat="47.00187" lon="5.38991">
        <ele>196</ele>
        <time>2012-09-21T14:21:34Z</time>
      </trkpt>
      <trkpt lat="47.002" lon="5.38996">
        <ele>196</ele>
        <time>2012-09-21T14:21:36Z</time>
      </trkpt>
      <trkpt lat="47.00212" lon="5.38998">
        <ele>196</ele>
        <time>2012-09-21T14:21:38Z</time>
      </trkpt>
      <trkpt lat="47.00224" lon="5.39001">
        <ele>196</ele>
        <time>2012-09-21T14:21:40Z</time>
      </trkpt>
      <trkpt lat="47.00236" lon="5.39005">
        <ele>196</ele>
        <time>2012-09-21T14:21:42Z</time>
      </trkpt>
      <trkpt lat="47.00248" lon="5.39009">
        <ele>196</ele>
        <time>2012-09-21T14:21:44Z</time>
      </trkpt>
      <trkpt lat="47.0026" lon="5.39013">
        <ele>196</ele>
        <time>2012-09-21T14:21:46Z</time>
      </trkpt>
      <trkpt lat="47.00272" lon="5.39018">
        <ele>196</ele>
        <time>2012-09-21T14:21:48Z</time>
      </trkpt>
      <trkpt lat="47.00285" lon="5.39022">
        <ele>196</ele>
        <time>2012-09-21T14:21:50Z</time>
      </trkpt>
      <trkpt lat="47.00297" lon="5.39027">
        <ele>196</ele>
        <time>2012-09-21T14:21:52Z</time>
      </trkpt>
      <trkpt lat="47.0031" lon="5.39031">
        <ele>196</ele>
        <time>2012-09-21T14:21:54Z</time>
      </trkpt>
      <trkpt lat="47.00324" lon="5.39035">
        <ele>196</ele>
        <time>2012-09-21T14:21:56Z</time>
      </trkpt>
      <trkpt lat="47.00338" lon="5.3904">
        <ele>196</ele>
        <time>2012-09-21T14:21:58Z</time>
      </trkpt>
      <trkpt lat="47.00352" lon="5.39045">
        <ele>196</ele>
        <time>2012-09-21T14:22:00Z</time>
      </trkpt>
      <trkpt lat="47.00367" lon="5.39049">
        <ele>196</ele>
        <time>2012-09-21T14:22:02Z</time>
      </trkpt>
      <trkpt lat="47.00381" lon="5.39054">
        <ele>196</ele>
        <time>2012-09-21T14:22:04Z</time>
      </trkpt>
      <trkpt lat="47.00395" lon="5.39058">
        <ele>196</ele>
        <time>2012-09-21T14:22:06Z</time>
      </trkpt>
      <trkpt lat="47.00408" lon="5.39062">
        <ele>196</ele>
        <time>2012-09-21T14:22:08Z</time>
      </trkpt>
      <trkpt lat="47.00422" lon="5.39066">
        <ele>196</ele>
        <time>2012-09-21T14:22:10Z</time>
      </trkpt>
      <trkpt lat="47.00436" lon="5.39072">
        <ele>196</ele>
        <time>2012-09-21T14:22:12Z</time>
      </trkpt>
      <trkpt lat="47.0045" lon="5.39076">
        <ele>196</ele>
        <time>2012-09-21T14:22:14Z</time>
      </trkpt>
      <trkpt lat="47.00463" lon="5.39082">
        <ele>196</ele>
        <time>2012-09-21T14:22:16Z</time>
      </trkpt>
      <trkpt lat="47.00477" lon="5.39087">
        <ele>196</ele>
        <time>2012-09-21T14:22:18Z</time>
      </trkpt>
      <trkpt lat="47.00491" lon="5.39092">
        <ele>196</ele>
        <time>2012-09-21T14:22:20Z</time>
      </trkpt>
      <trkpt lat="47.00504" lon="5.39096">
        <ele>196</ele>
        <time>2012-09-21T14:22:22Z</time>
      </trkpt>
      <trkpt lat="47.00518" lon="5.391">
        <ele>196</ele>
        <time>2012-09-21T14:22:24Z</time>
      </trkpt>
      <trkpt lat="47.00532" lon="5.39102">
        <ele>196</ele>
        <time>2012-09-21T14:22:26Z</time>
      </trkpt>
      <trkpt lat="47.00545" lon="5.39102">
        <ele>196</ele>
        <time>2012-09-21T14:22:28Z</time>
      </trkpt>
      <trkpt lat="47.00558" lon="5.39099">
        <ele>196</ele>
        <time>2012-09-21T14:22:30Z</time>
      </trkpt>
      <trkpt lat="47.0057" lon="5.39093">
        <ele>196</ele>
        <time>2012-09-21T14:22:32Z</time>
      </trkpt>
      <trkpt lat="47.0058" lon="5.39084">
        <ele>196</ele>
        <time>2012-09-21T14:22:34Z</time>
      </trkpt>
      <trkpt lat="47.0059" lon="5.39076">
        <ele>196</ele>
        <time>2012-09-21T14:22:36Z</time>
      </trkpt>
      <trkpt lat="47.00599" lon="5.39069">
        <ele>196</ele>
        <time>2012-09-21T14:22:38Z</time>
      </trkpt>
      <trkpt lat="47.00607" lon="5.39061">
        <ele>196</ele>
        <time>2012-09-21T14:22:40Z</time>
      </trkpt>
      <trkpt lat="47.00617" lon="5.39054">
        <ele>196</ele>
        <time>2012-09-21T14:22:42Z</time>
      </trkpt>
      <trkpt lat="47.00626" lon="5.39045">
        <ele>196</ele>
        <time>2012-09-21T14:22:44Z</time>
      </trkpt>
      <trkpt lat="47.00636" lon="5.39037">
        <ele>196</ele>
        <time>2012-09-21T14:22:46Z</time>
      </trkpt>
      <trkpt lat="47.00646" lon="5.39028">
        <ele>196</ele>
        <time>2012-09-21T14:22:48Z</time>
      </trkpt>
      <trkpt lat="47.00657" lon="5.39019">
        <ele>196</ele>
        <time>2012-09-21T14:22:50Z</time>
      </trkpt>
      <trkpt lat="47.00666" lon="5.39011">
        <ele>196</ele>
        <time>2012-09-21T14:22:52Z</time>
      </trkpt>
      <trkpt lat="47.00676" lon="5.39001">
        <ele>196</ele>
        <time>2012-09-21T14:22:54Z</time>
      </trkpt>
      <trkpt lat="47.00685" lon="5.38992">
        <ele>196</ele>
        <time>2012-09-21T14:22:56Z</time>
      </trkpt>
      <trkpt lat="47.00696" lon="5.38983">
        <ele>196</ele>
        <time>2012-09-21T14:22:58Z</time>
      </trkpt>
      <trkpt lat="47.00705" lon="5.38975">
        <ele>196</ele>
        <time>2012-09-21T14:23:00Z</time>
      </trkpt>
      <trkpt lat="47.00715" lon="5.38965">
        <ele>196</ele>
        <time>2012-09-21T14:23:02Z</time>
      </trkpt>
      <trkpt lat="47.00724" lon="5.38955">
        <ele>196</ele>
        <time>2012-09-21T14:23:04Z</time>
      </trkpt>
      <trkpt lat="47.00733" lon="5.38943">
        <ele>196</ele>
        <time>2012-09-21T14:23:06Z</time>
      </trkpt>
      <trkpt lat="47.00743" lon="5.38931">
        <ele>196</ele>
        <time>2012-09-21T14:23:08Z</time>
      </trkpt>
      <trkpt lat="47.00751" lon="5.38918">
        <ele>196</ele>
        <time>2012-09-21T14:23:10Z</time>
      </trkpt>
      <trkpt lat="47.0076" lon="5.38905">
        <ele>196</ele>
        <time>2012-09-21T14:23:12Z</time>
      </trkpt>
      <trkpt lat="47.00767" lon="5.38891">
        <ele>196</ele>
        <time>2012-09-21T14:23:14Z</time>
      </trkpt>
      <trkpt lat="47.00775" lon="5.38876">
        <ele>196</ele>
        <time>2012-09-21T14:23:16Z</time>
      </trkpt>
      <trkpt lat="47.00781" lon="5.3886">
        <ele>196</ele>
        <time>2012-09-21T14:23:18Z</time>
      </trkpt>
      <trkpt lat="47.00787" lon="5.38844">
        <ele>196</ele>
        <time>2012-09-21T14:23:20Z</time>
      </trkpt>
      <trkpt lat="47.00794" lon="5.38827">
        <ele>196</ele>
        <time>2012-09-21T14:23:22Z</time>
      </trkpt>
      <trkpt lat="47.00799" lon="5.38809">
        <ele>196</ele>
        <time>2012-09-21T14:23:24Z</time>
      </trkpt>
      <trkpt lat="47.00804" lon="5.38792">
        <ele>196</ele>
        <time>2012-09-21T14:23:26Z</time>
      </trkpt>
      <trkpt lat="47.00809" lon="5.38774">
        <ele>196</ele>
        <time>2012-09-21T14:23:28Z</time>
      </trkpt>
      <trkpt lat="47.00814" lon="5.38756">
        <ele>196</ele>
        <time>2012-09-21T14:23:30Z</time>
      </trkpt>
      <trkpt lat="47.00819" lon="5.38739">
        <ele>196</ele>
        <time>2012-09-21T14:23:32Z</time>
      </trkpt>
      <trkpt lat="47.00825" lon="5.38721">
        <ele>196</ele>
        <time>2012-09-21T14:23:34Z</time>
      </trkpt>
      <trkpt lat="47.00832" lon="5.38704">
        <ele>196</ele>
        <time>2012-09-21T14:23:36Z</time>
      </trkpt>
      <trkpt lat="47.00839" lon="5.38687">
        <ele>196</ele>
        <time>2012-09-21T14:23:38Z</time>
      </trkpt>
      <trkpt lat="47.00848" lon="5.38673">
        <ele>196</ele>
        <time>2012-09-21T14:23:40Z</time>
      </trkpt>
      <trkpt lat="47.00858" lon="5.3866">
        <ele>196</ele>
        <time>2012-09-21T14:23:42Z</time>
      </trkpt>
      <trkpt lat="47.00867" lon="5.38648">
        <ele>196</ele>
        <time>2012-09-21T14:23:44Z</time>
      </trkpt>
      <trkpt lat="47.00877" lon="5.38638">
        <ele>196</ele>
        <time>2012-09-21T14:23:46Z</time>
      </trkpt>
      <trkpt lat="47.00888" lon="5.38629">
        <ele>196</ele>
        <time>2012-09-21T14:23:48Z</time>
      </trkpt>
      <trkpt lat="47.00899" lon="5.38624">
        <ele>196</ele>
        <time>2012-09-21T14:23:50Z</time>
      </trkpt>
      <trkpt lat="47.0091" lon="5.38621">
        <ele>196</ele>
        <time>2012-09-21T14:23:52Z</time>
      </trkpt>
      <trkpt lat="47.0092" lon="5.38619">
        <ele>196</ele>
        <time>2012-09-21T14:23:54Z</time>
      </trkpt>
      <trkpt lat="47.00929" lon="5.38617">
        <ele>196</ele>
        <time>2012-09-21T14:23:56Z</time>
      </trkpt>
      <trkpt lat="47.00939" lon="5.38615">
        <ele>196</ele>
        <time>2012-09-21T14:23:59Z</time>
      </trkpt>
      <trkpt lat="47.00944" lon="5.38627">
        <ele>196</ele>
        <time>2012-09-21T14:24:05Z</time>
      </trkpt>
      <trkpt lat="47.00942" lon="5.38641">
        <ele>196</ele>
        <time>2012-09-21T14:24:09Z</time>
      </trkpt>
      <trkpt lat="47.0094" lon="5.38654">
        <ele>196</ele>
        <time>2012-09-21T14:24:12Z</time>
      </trkpt>
      <trkpt lat="47.00938" lon="5.38669">
        <ele>196</ele>
        <time>2012-09-21T14:24:15Z</time>
      </trkpt>
      <trkpt lat="47.00936" lon="5.38682">
        <ele>196</ele>
        <time>2012-09-21T14:24:18Z</time>
      </trkpt>
      <trkpt lat="47.00934" lon="5.38699">
        <ele>196</ele>
        <time>2012-09-21T14:24:22Z</time>
      </trkpt>
      <trkpt lat="47.00932" lon="5.38715">
        <ele>196</ele>
        <time>2012-09-21T14:24:26Z</time>
      </trkpt>
      <trkpt lat="47.00929" lon="5.38729">
        <ele>196</ele>
        <time>2012-09-21T14:24:29Z</time>
      </trkpt>
      <trkpt lat="47.00926" lon="5.38745">
        <ele>196</ele>
        <time>2012-09-21T14:24:32Z</time>
      </trkpt>
      <trkpt lat="47.00923" lon="5.38764">
        <ele>196</ele>
        <time>2012-09-21T14:24:35Z</time>
      </trkpt>
      <trkpt lat="47.00922" lon="5.38777">
        <ele>196</ele>
        <time>2012-09-21T14:24:37Z</time>
      </trkpt>
      <trkpt lat="47.00921" lon="5.38792">
        <ele>196</ele>
        <time>2012-09-21T14:24:39Z</time>
      </trkpt>
      <trkpt lat="47.00922" lon="5.38806">
        <ele>196</ele>
        <time>2012-09-21T14:24:41Z</time>
      </trkpt>
      <trkpt lat="47.00925" lon="5.38821">
        <ele>196</ele>
        <time>2012-09-21T14:24:43Z</time>
      </trkpt>
      <trkpt lat="47.00929" lon="5.38833">
        <ele>196</ele>
        <time>2012-09-21T14:24:45Z</time>
      </trkpt>
      <trkpt lat="47.0094" lon="5.38839">
        <ele>196</ele>
        <time>2012-09-21T14:24:48Z</time>
      </trkpt>
      <trkpt lat="47.0095" lon="5.38837">
        <ele>196</ele>
        <time>2012-09-21T14:24:50Z</time>
      </trkpt>
      <trkpt lat="47.00959" lon="5.38833">
        <ele>196</ele>
        <time>2012-09-21T14:24:52Z</time>
      </trkpt>
      <trkpt lat="47.00969" lon="5.38829">
        <ele>196</ele>
        <time>2012-09-21T14:24:54Z</time>
      </trkpt>
      <trkpt lat="47.0098" lon="5.38828">
        <ele>196</ele>
        <time>2012-09-21T14:24:56Z</time>
      </trkpt>
      <trkpt lat="47.0099" lon="5.38828">
        <ele>196</ele>
        <time>2012-09-21T14:24:58Z</time>
      </trkpt>
      <trkpt lat="47.01001" lon="5.38829">
        <ele>196</ele>
        <time>2012-09-21T14:25:00Z</time>
      </trkpt>
      <trkpt lat="47.01011" lon="5.38834">
        <ele>196</ele>
        <time>2012-09-21T14:25:02Z</time>
      </trkpt>
      <trkpt lat="47.0102" lon="5.38839">
        <ele>196</ele>
        <time>2012-09-21T14:25:04Z</time>
      </trkpt>
      <trkpt lat="47.01028" lon="5.38845">
        <ele>196</ele>
        <time>2012-09-21T14:25:06Z</time>
      </trkpt>
      <trkpt lat="47.01036" lon="5.38854">
        <ele>196</ele>
        <time>2012-09-21T14:25:08Z</time>
      </trkpt>
      <trkpt lat="47.01044" lon="5.38862">
        <ele>196</ele>
        <time>2012-09-21T14:25:10Z</time>
      </trkpt>
      <trkpt lat="47.01054" lon="5.38872">
        <ele>196</ele>
        <time>2012-09-21T14:25:13Z</time>
      </trkpt>
      <trkpt lat="47.01065" lon="5.38881">
        <ele>196</ele>
        <time>2012-09-21T14:25:16Z</time>
      </trkpt>
      <trkpt lat="47.01078" lon="5.38884">
        <ele>196</ele>
        <time>2012-09-21T14:25:19Z</time>
      </trkpt>
      <trkpt lat="47.01087" lon="5.38888">
        <ele>196</ele>
        <time>2012-09-21T14:25:21Z</time>
      </trkpt>
      <trkpt lat="47.01097" lon="5.38891">
        <ele>196</ele>
        <time>2012-09-21T14:25:23Z</time>
      </trkpt>
      <trkpt lat="47.01107" lon="5.38895">
        <ele>196</ele>
        <time>2012-09-21T14:25:25Z</time>
      </trkpt>
      <trkpt lat="47.01117" lon="5.38898">
        <ele>196</ele>
        <time>2012-09-21T14:25:27Z</time>
      </trkpt>
      <trkpt lat="47.01128" lon="5.38902">
        <ele>196</ele>
        <time>2012-09-21T14:25:29Z</time>
      </trkpt>
      <trkpt lat="47.01139" lon="5.38907">
        <ele>196</ele>
        <time>2012-09-21T14:25:31Z</time>
      </trkpt>
      <trkpt lat="47.0115" lon="5.3891">
        <ele>196</ele>
        <time>2012-09-21T14:25:33Z</time>
      </trkpt>
      <trkpt lat="47.01161" lon="5.38914">
        <ele>196</ele>
        <time>2012-09-21T14:25:35Z</time>
      </trkpt>
      <trkpt lat="47.01172" lon="5.38917">
        <ele>196</ele>
        <time>2012-09-21T14:25:37Z</time>
      </trkpt>
      <trkpt lat="47.01182" lon="5.38921">
        <ele>196</ele>
        <time>2012-09-21T14:25:39Z</time>
      </trkpt>
      <trkpt lat="47.01192" lon="5.38925">
        <ele>196</ele>
        <time>2012-09-21T14:25:41Z</time>
      </trkpt>
      <trkpt lat="47.01202" lon="5.38929">
        <ele>196</ele>
        <time>2012-09-21T14:25:43Z</time>
      </trkpt>
      <trkpt lat="47.01211" lon="5.38934">
        <ele>196</ele>
        <time>2012-09-21T14:25:45Z</time>
      </trkpt>
      <trkpt lat="47.01221" lon="5.3894">
        <ele>196</ele>
        <time>2012-09-21T14:25:47Z</time>
      </trkpt>
      <trkpt lat="47.01231" lon="5.38945">
        <ele>196</ele>
        <time>2012-09-21T14:25:49Z</time>
      </trkpt>
      <trkpt lat="47.0124" lon="5.38953">
        <ele>196</ele>
        <time>2012-09-21T14:25:51Z</time>
      </trkpt>
      <trkpt lat="47.01251" lon="5.3896">
        <ele>196</ele>
        <time>2012-09-21T14:25:53Z</time>
      </trkpt>
      <trkpt lat="47.01261" lon="5.38969">
        <ele>196</ele>
        <time>2012-09-21T14:25:55Z</time>
      </trkpt>
      <trkpt lat="47.01271" lon="5.38977">
        <ele>196</ele>
        <time>2012-09-21T14:25:57Z</time>
      </trkpt>
      <trkpt lat="47.01282" lon="5.38986">
        <ele>196</ele>
        <time>2012-09-21T14:25:59Z</time>
      </trkpt>
      <trkpt lat="47.01293" lon="5.38994">
        <ele>196</ele>
        <time>2012-09-21T14:26:01Z</time>
      </trkpt>
      <trkpt lat="47.01304" lon="5.39003">
        <ele>196</ele>
        <time>2012-09-21T14:26:03Z</time>
      </trkpt>
      <trkpt lat="47.01316" lon="5.39013">
        <ele>196</ele>
        <time>2012-09-21T14:26:05Z</time>
      </trkpt>
      <trkpt lat="47.01328" lon="5.39022">
        <ele>196</ele>
        <time>2012-09-21T14:26:07Z</time>
      </trkpt>
      <trkpt lat="47.0134" lon="5.39032">
        <ele>196</ele>
        <time>2012-09-21T14:26:09Z</time>
      </trkpt>
      <trkpt lat="47.01352" lon="5.39041">
        <ele>196</ele>
        <time>2012-09-21T14:26:11Z</time>
      </trkpt>
      <trkpt lat="47.01365" lon="5.39052">
        <ele>196</ele>
        <time>2012-09-21T14:26:13Z</time>
      </trkpt>
      <trkpt lat="47.01378" lon="5.39062">
        <ele>196</ele>
        <time>2012-09-21T14:26:15Z</time>
      </trkpt>
      <trkpt lat="47.01391" lon="5.39073">
        <ele>196</ele>
        <time>2012-09-21T14:26:17Z</time>
      </trkpt>
      <trkpt lat="47.01404" lon="5.39084">
        <ele>196</ele>
        <time>2012-09-21T14:26:19Z</time>
      </trkpt>
      <trkpt lat="47.01417" lon="5.39094">
        <ele>196</ele>
        <time>2012-09-21T14:26:21Z</time>
      </trkpt>
      <trkpt lat="47.01431" lon="5.39105">
        <ele>196</ele>
        <time>2012-09-21T14:26:23Z</time>
      </trkpt>
      <trkpt lat="47.01444" lon="5.39116">
        <ele>196</ele>
        <time>2012-09-21T14:26:25Z</time>
      </trkpt>
      <trkpt lat="47.01458" lon="5.39126">
        <ele>196</ele>
        <time>2012-09-21T14:26:27Z</time>
      </trkpt>
      <trkpt lat="47.01471" lon="5.39137">
        <ele>196</ele>
        <time>2012-09-21T14:26:29Z</time>
      </trkpt>
      <trkpt lat="47.01484" lon="5.39146">
        <ele>196</ele>
        <time>2012-09-21T14:26:31Z</time>
      </trkpt>
      <trkpt lat="47.01498" lon="5.39156">
        <ele>196</ele>
        <time>2012-09-21T14:26:33Z</time>
      </trkpt>
      <trkpt lat="47.01511" lon="5.39167">
        <ele>196</ele>
        <time>2012-09-21T14:26:35Z</time>
      </trkpt>
      <trkpt lat="47.01525" lon="5.39178">
        <ele>196</ele>
        <time>2012-09-21T14:26:37Z</time>
      </trkpt>
      <trkpt lat="47.01539" lon="5.39189">
        <ele>196</ele>
        <time>2012-09-21T14:26:39Z</time>
      </trkpt>
      <trkpt lat="47.01553" lon="5.392">
        <ele>196</ele>
        <time>2012-09-21T14:26:41Z</time>
      </trkpt>
      <trkpt lat="47.01567" lon="5.39211">
        <ele>196</ele>
        <time>2012-09-21T14:26:43Z</time>
      </trkpt>
      <trkpt lat="47.01581" lon="5.39222">
        <ele>196</ele>
        <time>2012-09-21T14:26:45Z</time>
      </trkpt>
      <trkpt lat="47.01595" lon="5.39234">
        <ele>196</ele>
        <time>2012-09-21T14:26:47Z</time>
      </trkpt>
      <trkpt lat="47.01608" lon="5.39247">
        <ele>196</ele>
        <time>2012-09-21T14:26:49Z</time>
      </trkpt>
      <trkpt lat="47.01621" lon="5.3926">
        <ele>196</ele>
        <time>2012-09-21T14:26:51Z</time>
      </trkpt>
      <trkpt lat="47.01633" lon="5.39272">
        <ele>196</ele>
        <time>2012-09-21T14:26:53Z</time>
      </trkpt>
      <trkpt lat="47.01645" lon="5.39285">
        <ele>196</ele>
        <time>2012-09-21T14:26:55Z</time>
      </trkpt>
      <trkpt lat="47.01657" lon="5.39297">
        <ele>196</ele>
        <time>2012-09-21T14:26:57Z</time>
      </trkpt>
      <trkpt lat="47.01669" lon="5.3931">
        <ele>196</ele>
        <time>2012-09-21T14:26:59Z</time>
      </trkpt>
      <trkpt lat="47.01681" lon="5.39322">
        <ele>196</ele>
        <time>2012-09-21T14:27:01Z</time>
      </trkpt>
      <trkpt lat="47.01695" lon="5.39334">
        <ele>196</ele>
        <time>2012-09-21T14:27:03Z</time>
      </trkpt>
      <trkpt lat="47.01709" lon="5.39347">
        <ele>196</ele>
        <time>2012-09-21T14:27:05Z</time>
      </trkpt>
      <trkpt lat="47.01722" lon="5.39359">
        <ele>196</ele>
        <time>2012-09-21T14:27:07Z</time>
      </trkpt>
      <trkpt lat="47.01736" lon="5.39371">
        <ele>196</ele>
        <time>2012-09-21T14:27:09Z</time>
      </trkpt>
      <trkpt lat="47.01749" lon="5.39384">
        <ele>196</ele>
        <time>2012-09-21T14:27:11Z</time>
      </trkpt>
      <trkpt lat="47.01763" lon="5.39395">
        <ele>196</ele>
        <time>2012-09-21T14:27:13Z</time>
      </trkpt>
      <trkpt lat="47.01776" lon="5.39407">
        <ele>196</ele>
        <time>2012-09-21T14:27:15Z</time>
      </trkpt>
      <trkpt lat="47.0179" lon="5.39418">
        <ele>196</ele>
        <time>2012-09-21T14:27:17Z</time>
      </trkpt>
      <trkpt lat="47.01804" lon="5.39429">
        <ele>196</ele>
        <time>2012-09-21T14:27:19Z</time>
      </trkpt>
      <trkpt lat="47.01817" lon="5.3944">
        <ele>196</ele>
        <time>2012-09-21T14:27:21Z</time>
      </trkpt>
      <trkpt lat="47.01831" lon="5.39452">
        <ele>196</ele>
        <time>2012-09-21T14:27:23Z</time>
      </trkpt>
      <trkpt lat="47.01844" lon="5.39464">
        <ele>196</ele>
        <time>2012-09-21T14:27:25Z</time>
      </trkpt>
      <trkpt lat="47.01858" lon="5.39474">
        <ele>196</ele>
        <time>2012-09-21T14:27:27Z</time>
      </trkpt>
      <trkpt lat="47.01871" lon="5.39486">
        <ele>196</ele>
        <time>2012-09-21T14:27:29Z</time>
      </trkpt>
      <trkpt lat="47.01884" lon="5.39497">
        <ele>196</ele>
        <time>2012-09-21T14:27:31Z</time>
      </trkpt>
      <trkpt lat="47.01897" lon="5.39509">
        <ele>196</ele>
        <time>2012-09-21T14:27:33Z</time>
      </trkpt>
      <trkpt lat="47.01909" lon="5.39522">
        <ele>196</ele>
        <time>2012-09-21T14:27:35Z</time>
      </trkpt>
      <trkpt lat="47.01922" lon="5.39534">
        <ele>196</ele>
        <time>2012-09-21T14:27:37Z</time>
      </trkpt>
      <trkpt lat="47.01935" lon="5.39546">
        <ele>196</ele>
        <time>2012-09-21T14:27:39Z</time>
      </trkpt>
      <trkpt lat="47.01948" lon="5.39559">
        <ele>196</ele>
        <time>2012-09-21T14:27:41Z</time>
      </trkpt>
      <trkpt lat="47.01961" lon="5.39571">
        <ele>196</ele>
        <time>2012-09-21T14:27:43Z</time>
      </trkpt>
      <trkpt lat="47.01974" lon="5.39585">
        <ele>196</ele>
        <time>2012-09-21T14:27:45Z</time>
      </trkpt>
      <trkpt lat="47.01987" lon="5.39597">
        <ele>196</ele>
        <time>2012-09-21T14:27:47Z</time>
      </trkpt>
      <trkpt lat="47.02" lon="5.3961">
        <ele>196</ele>
        <time>2012-09-21T14:27:49Z</time>
      </trkpt>
      <trkpt lat="47.02013" lon="5.39623">
        <ele>196</ele>
        <time>2012-09-21T14:27:51Z</time>
      </trkpt>
      <trkpt lat="47.02026" lon="5.39635">
        <ele>196</ele>
        <time>2012-09-21T14:27:53Z</time>
      </trkpt>
      <trkpt lat="47.02039" lon="5.39649">
        <ele>196</ele>
        <time>2012-09-21T14:27:55Z</time>
      </trkpt>
      <trkpt lat="47.02052" lon="5.39662">
        <ele>196</ele>
        <time>2012-09-21T14:27:57Z</time>
      </trkpt>
      <trkpt lat="47.02065" lon="5.39675">
        <ele>196</ele>
        <time>2012-09-21T14:27:59Z</time>
      </trkpt>
      <trkpt lat="47.02077" lon="5.39688">
        <ele>196</ele>
        <time>2012-09-21T14:28:01Z</time>
      </trkpt>
      <trkpt lat="47.02089" lon="5.39702">
        <ele>196</ele>
        <time>2012-09-21T14:28:03Z</time>
      </trkpt>
      <trkpt lat="47.02102" lon="5.39716">
        <ele>196</ele>
        <time>2012-09-21T14:28:05Z</time>
      </trkpt>
      <trkpt lat="47.02114" lon="5.3973">
        <ele>196</ele>
        <time>2012-09-21T14:28:07Z</time>
      </trkpt>
      <trkpt lat="47.02126" lon="5.39745">
        <ele>196</ele>
        <time>2012-09-21T14:28:09Z</time>
      </trkpt>
      <trkpt lat="47.02137" lon="5.39759">
        <ele>196</ele>
        <time>2012-09-21T14:28:11Z</time>
      </trkpt>
      <trkpt lat="47.0215" lon="5.39773">
        <ele>196</ele>
        <time>2012-09-21T14:28:13Z</time>
      </trkpt>
      <trkpt lat="47.02162" lon="5.39786">
        <ele>196</ele>
        <time>2012-09-21T14:28:15Z</time>
      </trkpt>
      <trkpt lat="47.02174" lon="5.398">
        <ele>196</ele>
        <time>2012-09-21T14:28:17Z</time>
      </trkpt>
      <trkpt lat="47.02187" lon="5.39813">
        <ele>196</ele>
        <time>2012-09-21T14:28:19Z</time>
      </trkpt>
      <trkpt lat="47.022" lon="5.39826">
        <ele>196</ele>
        <time>2012-09-21T14:28:21Z</time>
      </trkpt>
      <trkpt lat="47.02213" lon="5.39838">
        <ele>196</ele>
        <time>2012-09-21T14:28:23Z</time>
      </trkpt>
      <trkpt lat="47.02225" lon="5.39851">
        <ele>196</ele>
        <time>2012-09-21T14:28:25Z</time>
      </trkpt>
      <trkpt lat="47.02238" lon="5.39863">
        <ele>196</ele>
        <time>2012-09-21T14:28:27Z</time>
      </trkpt>
      <trkpt lat="47.0225" lon="5.39875">
        <ele>196</ele>
        <time>2012-09-21T14:28:29Z</time>
      </trkpt>
      <trkpt lat="47.02263" lon="5.39888">
        <ele>196</ele>
        <time>2012-09-21T14:28:31Z</time>
      </trkpt>
      <trkpt lat="47.02276" lon="5.399">
        <ele>196</ele>
        <time>2012-09-21T14:28:33Z</time>
      </trkpt>
      <trkpt lat="47.02288" lon="5.39912">
        <ele>196</ele>
        <time>2012-09-21T14:28:35Z</time>
      </trkpt>
      <trkpt lat="47.02301" lon="5.39924">
        <ele>196</ele>
        <time>2012-09-21T14:28:37Z</time>
      </trkpt>
      <trkpt lat="47.02314" lon="5.39937">
        <ele>196</ele>
        <time>2012-09-21T14:28:39Z</time>
      </trkpt>
      <trkpt lat="47.02327" lon="5.3995">
        <ele>196</ele>
        <time>2012-09-21T14:28:41Z</time>
      </trkpt>
      <trkpt lat="47.02339" lon="5.39961">
        <ele>196</ele>
        <time>2012-09-21T14:28:43Z</time>
      </trkpt>
      <trkpt lat="47.02351" lon="5.39974">
        <ele>196</ele>
        <time>2012-09-21T14:28:45Z</time>
      </trkpt>
      <trkpt lat="47.02363" lon="5.39985">
        <ele>196</ele>
        <time>2012-09-21T14:28:47Z</time>
      </trkpt>
      <trkpt lat="47.02375" lon="5.39996">
        <ele>196</ele>
        <time>2012-09-21T14:28:49Z</time>
      </trkpt>
      <trkpt lat="47.02388" lon="5.40009">
        <ele>196</ele>
        <time>2012-09-21T14:28:51Z</time>
      </trkpt>
      <trkpt lat="47.024" lon="5.4002">
        <ele>196</ele>
        <time>2012-09-21T14:28:53Z</time>
      </trkpt>
      <trkpt lat="47.02412" lon="5.40031">
        <ele>196</ele>
        <time>2012-09-21T14:28:55Z</time>
      </trkpt>
      <trkpt lat="47.02424" lon="5.40043">
        <ele>196</ele>
        <time>2012-09-21T14:28:57Z</time>
      </trkpt>
      <trkpt lat="47.02436" lon="5.40055">
        <ele>196</ele>
        <time>2012-09-21T14:28:59Z</time>
      </trkpt>
      <trkpt lat="47.02449" lon="5.40066">
        <ele>196</ele>
        <time>2012-09-21T14:29:01Z</time>
      </trkpt>
      <trkpt lat="47.0246" lon="5.40078">
        <ele>196</ele>
        <time>2012-09-21T14:29:03Z</time>
      </trkpt>
      <trkpt lat="47.02473" lon="5.4009">
        <ele>196</ele>
        <time>2012-09-21T14:29:05Z</time>
      </trkpt>
      <trkpt lat="47.02486" lon="5.40101">
        <ele>196</ele>
        <time>2012-09-21T14:29:07Z</time>
      </trkpt>
      <trkpt lat="47.02499" lon="5.40113">
        <ele>196</ele>
        <time>2012-09-21T14:29:09Z</time>
      </trkpt>
      <trkpt lat="47.02511" lon="5.40125">
        <ele>196</ele>
        <time>2012-09-21T14:29:11Z</time>
      </trkpt>
      <trkpt lat="47.02524" lon="5.40136">
        <ele>196</ele>
        <time>2012-09-21T14:29:13Z</time>
      </trkpt>
      <trkpt lat="47.02537" lon="5.40147">
        <ele>196</ele>
        <time>2012-09-21T14:29:15Z</time>
      </trkpt>
      <trkpt lat="47.0255" lon="5.40159">
        <ele>196</ele>
        <time>2012-09-21T14:29:17Z</time>
      </trkpt>
      <trkpt lat="47.02564" lon="5.40171">
        <ele>196</ele>
        <time>2012-09-21T14:29:19Z</time>
      </trkpt>
      <trkpt lat="47.02577" lon="5.40181">
        <ele>196</ele>
        <time>2012-09-21T14:29:21Z</time>
      </trkpt>
      <trkpt lat="47.0259" lon="5.40194">
        <ele>196</ele>
        <time>2012-09-21T14:29:23Z</time>
      </trkpt>
      <trkpt lat="47.02603" lon="5.40206">
        <ele>196</ele>
        <time>2012-09-21T14:29:25Z</time>
      </trkpt>
      <trkpt lat="47.02616" lon="5.40217">
        <ele>196</ele>
        <time>2012-09-21T14:29:27Z</time>
      </trkpt>
      <trkpt lat="47.02629" lon="5.40229">
        <ele>196</ele>
        <time>2012-09-21T14:29:29Z</time>
      </trkpt>
      <trkpt lat="47.02642" lon="5.40241">
        <ele>196</ele>
        <time>2012-09-21T14:29:31Z</time>
      </trkpt>
      <trkpt lat="47.02656" lon="5.40252">
        <ele>196</ele>
        <time>2012-09-21T14:29:33Z</time>
      </trkpt>
      <trkpt lat="47.02669" lon="5.40262">
        <ele>196</ele>
        <time>2012-09-21T14:29:35Z</time>
      </trkpt>
      <trkpt lat="47.02682" lon="5.40273">
        <ele>196</ele>
        <time>2012-09-21T14:29:37Z</time>
      </trkpt>
      <trkpt lat="47.02695" lon="5.40282">
        <ele>196</ele>
        <time>2012-09-21T14:29:39Z</time>
      </trkpt>
      <trkpt lat="47.02708" lon="5.40292">
        <ele>196</ele>
        <time>2012-09-21T14:29:41Z</time>
      </trkpt>
      <trkpt lat="47.02722" lon="5.40301">
        <ele>196</ele>
        <time>2012-09-21T14:29:43Z</time>
      </trkpt>
      <trkpt lat="47.02736" lon="5.4031">
        <ele>196</ele>
        <time>2012-09-21T14:29:45Z</time>
      </trkpt>
      <trkpt lat="47.02749" lon="5.40319">
        <ele>196</ele>
        <time>2012-09-21T14:29:47Z</time>
      </trkpt>
      <trkpt lat="47.02763" lon="5.40329">
        <ele>196</ele>
        <time>2012-09-21T14:29:49Z</time>
      </trkpt>
      <trkpt lat="47.02777" lon="5.40338">
        <ele>196</ele>
        <time>2012-09-21T14:29:51Z</time>
      </trkpt>
      <trkpt lat="47.02791" lon="5.40347">
        <ele>196</ele>
        <time>2012-09-21T14:29:53Z</time>
      </trkpt>
      <trkpt lat="47.02805" lon="5.40356">
        <ele>196</ele>
        <time>2012-09-21T14:29:55Z</time>
      </trkpt>
      <trkpt lat="47.0282" lon="5.40366">
        <ele>196</ele>
        <time>2012-09-21T14:29:57Z</time>
      </trkpt>
      <trkpt lat="47.02834" lon="5.40376">
        <ele>196</ele>
        <time>2012-09-21T14:29:59Z</time>
      </trkpt>
      <trkpt lat="47.02849" lon="5.40386">
        <ele>196</ele>
        <time>2012-09-21T14:30:01Z</time>
      </trkpt>
      <trkpt lat="47.02863" lon="5.40396">
        <ele>196</ele>
        <time>2012-09-21T14:30:03Z</time>
      </trkpt>
      <trkpt lat="47.02877" lon="5.40406">
        <ele>196</ele>
        <time>2012-09-21T14:30:05Z</time>
      </trkpt>
      <trkpt lat="47.02891" lon="5.40416">
        <ele>196</ele>
        <time>2012-09-21T14:30:07Z</time>
      </trkpt>
      <trkpt lat="47.02905" lon="5.40425">
        <ele>196</ele>
        <time>2012-09-21T14:30:09Z</time>
      </trkpt>
      <trkpt lat="47.02919" lon="5.40435">
        <ele>196</ele>
        <time>2012-09-21T14:30:11Z</time>
      </trkpt>
      <trkpt lat="47.02932" lon="5.40444">
        <ele>196</ele>
        <time>2012-09-21T14:30:13Z</time>
      </trkpt>
      <trkpt lat="47.02946" lon="5.40453">
        <ele>196</ele>
        <time>2012-09-21T14:30:15Z</time>
      </trkpt>
      <trkpt lat="47.0296" lon="5.40462">
        <ele>196</ele>
        <time>2012-09-21T14:30:17Z</time>
      </trkpt>
      <trkpt lat="47.02974" lon="5.40471">
        <ele>196</ele>
        <time>2012-09-21T14:30:19Z</time>
      </trkpt>
      <trkpt lat="47.02988" lon="5.40481">
        <ele>196</ele>
        <time>2012-09-21T14:30:21Z</time>
      </trkpt>
      <trkpt lat="47.03002" lon="5.40491">
        <ele>196</ele>
        <time>2012-09-21T14:30:23Z</time>
      </trkpt>
      <trkpt lat="47.03016" lon="5.40501">
        <ele>196</ele>
        <time>2012-09-21T14:30:25Z</time>
      </trkpt>
      <trkpt lat="47.0303" lon="5.4051">
        <ele>196</ele>
        <time>2012-09-21T14:30:27Z</time>
      </trkpt>
      <trkpt lat="47.03045" lon="5.4052">
        <ele>196</ele>
        <time>2012-09-21T14:30:29Z</time>
      </trkpt>
      <trkpt lat="47.03058" lon="5.4053">
        <ele>196</ele>
        <time>2012-09-21T14:30:31Z</time>
      </trkpt>
      <trkpt lat="47.0307" lon="5.40543">
        <ele>196</ele>
        <time>2012-09-21T14:30:33Z</time>
      </trkpt>
      <trkpt lat="47.03081" lon="5.40559">
        <ele>196</ele>
        <time>2012-09-21T14:30:35Z</time>
      </trkpt>
      <trkpt lat="47.03091" lon="5.40577">
        <ele>196</ele>
        <time>2012-09-21T14:30:37Z</time>
      </trkpt>
      <trkpt lat="47.03099" lon="5.40595">
        <ele>196</ele>
        <time>2012-09-21T14:30:39Z</time>
      </trkpt>
      <trkpt lat="47.03107" lon="5.40614">
        <ele>196</ele>
        <time>2012-09-21T14:30:41Z</time>
      </trkpt>
      <trkpt lat="47.03114" lon="5.40632">
        <ele>196</ele>
        <time>2012-09-21T14:30:43Z</time>
      </trkpt>
      <trkpt lat="47.03119" lon="5.40654">
        <ele>196</ele>
        <time>2012-09-21T14:30:45Z</time>
      </trkpt>
      <trkpt lat="47.03118" lon="5.40675">
        <ele>196</ele>
        <time>2012-09-21T14:30:47Z</time>
      </trkpt>
      <trkpt lat="47.03113" lon="5.40695">
        <ele>196</ele>
        <time>2012-09-21T14:30:49Z</time>
      </trkpt>
      <trkpt lat="47.03102" lon="5.40709">
        <ele>196</ele>
        <time>2012-09-21T14:30:51Z</time>
      </trkpt>
      <trkpt lat="47.0309" lon="5.40719">
        <ele>196</ele>
        <time>2012-09-21T14:30:53Z</time>
      </trkpt>
      <trkpt lat="47.03078" lon="5.40727">
        <ele>196</ele>
        <time>2012-09-21T14:30:55Z</time>
      </trkpt>
      <trkpt lat="47.03067" lon="5.40735">
        <ele>196</ele>
        <time>2012-09-21T14:30:57Z</time>
      </trkpt>
      <trkpt lat="47.03057" lon="5.40743">
        <ele>196</ele>
        <time>2012-09-21T14:30:59Z</time>
      </trkpt>
      <trkpt lat="47.03049" lon="5.40754">
        <ele>196</ele>
        <time>2012-09-21T14:31:01Z</time>
      </trkpt>
      <trkpt lat="47.03045" lon="5.40768">
        <ele>196</ele>
        <time>2012-09-21T14:31:03Z</time>
      </trkpt>
      <trkpt lat="47.03048" lon="5.40786">
        <ele>196</ele>
        <time>2012-09-21T14:31:06Z</time>
      </trkpt>
      <trkpt lat="47.03055" lon="5.40796">
        <ele>196</ele>
        <time>2012-09-21T14:31:10Z</time>
      </trkpt>
      <trkpt lat="47.03064" lon="5.40797">
        <ele>196</ele>
        <time>2012-09-21T14:31:14Z</time>
      </trkpt>
      <trkpt lat="47.03073" lon="5.40789">
        <ele>196</ele>
        <time>2012-09-21T14:31:17Z</time>
      </trkpt>
      <trkpt lat="47.03081" lon="5.40778">
        <ele>196</ele>
        <time>2012-09-21T14:31:20Z</time>
      </trkpt>
      <trkpt lat="47.03089" lon="5.40764">
        <ele>196</ele>
        <time>2012-09-21T14:31:23Z</time>
      </trkpt>
      <trkpt lat="47.03098" lon="5.40753">
        <ele>196</ele>
        <time>2012-09-21T14:31:26Z</time>
      </trkpt>
      <trkpt lat="47.03108" lon="5.40742">
        <ele>201</ele>
        <time>2012-09-21T14:31:29Z</time>
      </trkpt>
      <trkpt lat="47.0312" lon="5.40735">
        <ele>201</ele>
        <time>2012-09-21T14:31:32Z</time>
      </trkpt>
      <trkpt lat="47.03132" lon="5.40728">
        <ele>201</ele>
        <time>2012-09-21T14:31:35Z</time>
      </trkpt>
      <trkpt lat="47.03142" lon="5.40726">
        <ele>201</ele>
        <time>2012-09-21T14:31:37Z</time>
      </trkpt>
      <trkpt lat="47.03155" lon="5.40722">
        <ele>201</ele>
        <time>2012-09-21T14:31:40Z</time>
      </trkpt>
      <trkpt lat="47.03165" lon="5.40719">
        <ele>201</ele>
        <time>2012-09-21T14:31:42Z</time>
      </trkpt>
      <trkpt lat="47.03175" lon="5.40717">
        <ele>201</ele>
        <time>2012-09-21T14:31:44Z</time>
      </trkpt>
      <trkpt lat="47.03185" lon="5.40714">
        <ele>201</ele>
        <time>2012-09-21T14:31:46Z</time>
      </trkpt>
      <trkpt lat="47.03196" lon="5.40712">
        <ele>201</ele>
        <time>2012-09-21T14:31:48Z</time>
      </trkpt>
      <trkpt lat="47.03207" lon="5.40712">
        <ele>201</ele>
        <time>2012-09-21T14:31:50Z</time>
      </trkpt>
      <trkpt lat="47.03218" lon="5.40716">
        <ele>201</ele>
        <time>2012-09-21T14:31:52Z</time>
      </trkpt>
      <trkpt lat="47.0323" lon="5.40722">
        <ele>201</ele>
        <time>2012-09-21T14:31:54Z</time>
      </trkpt>
      <trkpt lat="47.03241" lon="5.40732">
        <ele>201</ele>
        <time>2012-09-21T14:31:56Z</time>
      </trkpt>
      <trkpt lat="47.03252" lon="5.40746">
        <ele>201</ele>
        <time>2012-09-21T14:31:58Z</time>
      </trkpt>
      <trkpt lat="47.03263" lon="5.40762">
        <ele>201</ele>
        <time>2012-09-21T14:32:00Z</time>
      </trkpt>
      <trkpt lat="47.03274" lon="5.4078">
        <ele>201</ele>
        <time>2012-09-21T14:32:02Z</time>
      </trkpt>
      <trkpt lat="47.03286" lon="5.40798">
        <ele>201</ele>
        <time>2012-09-21T14:32:04Z</time>
      </trkpt>
      <trkpt lat="47.033" lon="5.40812">
        <ele>201</ele>
        <time>2012-09-21T14:32:06Z</time>
      </trkpt>
      <trkpt lat="47.03317" lon="5.40817">
        <ele>201</ele>
        <time>2012-09-21T14:32:08Z</time>
      </trkpt>
      <trkpt lat="47.03334" lon="5.40819">
        <ele>201</ele>
        <time>2012-09-21T14:32:10Z</time>
      </trkpt>
      <trkpt lat="47.0335" lon="5.40815">
        <ele>201</ele>
        <time>2012-09-21T14:32:12Z</time>
      </trkpt>
      <trkpt lat="47.03366" lon="5.40815">
        <ele>201</ele>
        <time>2012-09-21T14:32:14Z</time>
      </trkpt>
      <trkpt lat="47.03381" lon="5.40824">
        <ele>201</ele>
        <time>2012-09-21T14:32:16Z</time>
      </trkpt>
      <trkpt lat="47.03395" lon="5.40837">
        <ele>201</ele>
        <time>2012-09-21T14:32:18Z</time>
      </trkpt>
      <trkpt lat="47.03409" lon="5.4085">
        <ele>201</ele>
        <time>2012-09-21T14:32:20Z</time>
      </trkpt>
      <trkpt lat="47.03421" lon="5.40865">
        <ele>201</ele>
        <time>2012-09-21T14:32:22Z</time>
      </trkpt>
      <trkpt lat="47.03432" lon="5.40881">
        <ele>201</ele>
        <time>2012-09-21T14:32:24Z</time>
      </trkpt>
      <trkpt lat="47.03441" lon="5.40897">
        <ele>201</ele>
        <time>2012-09-21T14:32:26Z</time>
      </trkpt>
      <trkpt lat="47.03451" lon="5.40913">
        <ele>201</ele>
        <time>2012-09-21T14:32:28Z</time>
      </trkpt>
      <trkpt lat="47.0346" lon="5.40928">
        <ele>201</ele>
        <time>2012-09-21T14:32:30Z</time>
      </trkpt>
      <trkpt lat="47.0347" lon="5.40943">
        <ele>201</ele>
        <time>2012-09-21T14:32:32Z</time>
      </trkpt>
      <trkpt lat="47.03479" lon="5.40957">
        <ele>201</ele>
        <time>2012-09-21T14:32:34Z</time>
      </trkpt>
      <trkpt lat="47.03489" lon="5.40969">
        <ele>201</ele>
        <time>2012-09-21T14:32:36Z</time>
      </trkpt>
      <trkpt lat="47.035" lon="5.40981">
        <ele>201</ele>
        <time>2012-09-21T14:32:38Z</time>
      </trkpt>
      <trkpt lat="47.03511" lon="5.40992">
        <ele>201</ele>
        <time>2012-09-21T14:32:40Z</time>
      </trkpt>
      <trkpt lat="47.03522" lon="5.41002">
        <ele>201</ele>
        <time>2012-09-21T14:32:42Z</time>
      </trkpt>
      <trkpt lat="47.03535" lon="5.4101">
        <ele>201</ele>
        <time>2012-09-21T14:32:44Z</time>
      </trkpt>
      <trkpt lat="47.03549" lon="5.41016">
        <ele>201</ele>
        <time>2012-09-21T14:32:46Z</time>
      </trkpt>
      <trkpt lat="47.03558" lon="5.4103">
        <ele>201</ele>
        <time>2012-09-21T14:32:48Z</time>
      </trkpt>
      <trkpt lat="47.03565" lon="5.41046">
        <ele>201</ele>
        <time>2012-09-21T14:32:50Z</time>
      </trkpt>
      <trkpt lat="47.03574" lon="5.41063">
        <ele>201</ele>
        <time>2012-09-21T14:32:52Z</time>
      </trkpt>
      <trkpt lat="47.03582" lon="5.41081">
        <ele>201</ele>
        <time>2012-09-21T14:32:54Z</time>
      </trkpt>
      <trkpt lat="47.03589" lon="5.41099">
        <ele>201</ele>
        <time>2012-09-21T14:32:56Z</time>
      </trkpt>
      <trkpt lat="47.03596" lon="5.41117">
        <ele>201</ele>
        <time>2012-09-21T14:32:58Z</time>
      </trkpt>
      <trkpt lat="47.03604" lon="5.41135">
        <ele>201</ele>
        <time>2012-09-21T14:33:00Z</time>
      </trkpt>
      <trkpt lat="47.03613" lon="5.41151">
        <ele>201</ele>
        <time>2012-09-21T14:33:02Z</time>
      </trkpt>
      <trkpt lat="47.03624" lon="5.41166">
        <ele>201</ele>
        <time>2012-09-21T14:33:04Z</time>
      </trkpt>
      <trkpt lat="47.03635" lon="5.4118">
        <ele>201</ele>
        <time>2012-09-21T14:33:06Z</time>
      </trkpt>
      <trkpt lat="47.03647" lon="5.41195">
        <ele>201</ele>
        <time>2012-09-21T14:33:08Z</time>
      </trkpt>
      <trkpt lat="47.03659" lon="5.4121">
        <ele>201</ele>
        <time>2012-09-21T14:33:10Z</time>
      </trkpt>
      <trkpt lat="47.0367" lon="5.41225">
        <ele>201</ele>
        <time>2012-09-21T14:33:12Z</time>
      </trkpt>
      <trkpt lat="47.03682" lon="5.4124">
        <ele>201</ele>
        <time>2012-09-21T14:33:14Z</time>
      </trkpt>
      <trkpt lat="47.03693" lon="5.41256">
        <ele>201</ele>
        <time>2012-09-21T14:33:16Z</time>
      </trkpt>
      <trkpt lat="47.03705" lon="5.41271">
        <ele>201</ele>
        <time>2012-09-21T14:33:18Z</time>
      </trkpt>
      <trkpt lat="47.03717" lon="5.41285">
        <ele>201</ele>
        <time>2012-09-21T14:33:20Z</time>
      </trkpt>
      <trkpt lat="47.03728" lon="5.413">
        <ele>201</ele>
        <time>2012-09-21T14:33:22Z</time>
      </trkpt>
      <trkpt lat="47.0374" lon="5.41312">
        <ele>201</ele>
        <time>2012-09-21T14:33:24Z</time>
      </trkpt>
      <trkpt lat="47.03755" lon="5.4132">
        <ele>201</ele>
        <time>2012-09-21T14:33:26Z</time>
      </trkpt>
      <trkpt lat="47.0377" lon="5.41324">
        <ele>201</ele>
        <time>2012-09-21T14:33:28Z</time>
      </trkpt>
      <trkpt lat="47.03785" lon="5.41327">
        <ele>201</ele>
        <time>2012-09-21T14:33:30Z</time>
      </trkpt>
      <trkpt lat="47.03801" lon="5.41329">
        <ele>201</ele>
        <time>2012-09-21T14:33:32Z</time>
      </trkpt>
      <trkpt lat="47.03815" lon="5.41329">
        <ele>201</ele>
        <time>2012-09-21T14:33:34Z</time>
      </trkpt>
      <trkpt lat="47.0383" lon="5.41325">
        <ele>201</ele>
        <time>2012-09-21T14:33:36Z</time>
      </trkpt>
      <trkpt lat="47.03841" lon="5.41318">
        <ele>201</ele>
        <time>2012-09-21T14:33:38Z</time>
      </trkpt>
      <trkpt lat="47.03851" lon="5.4131">
        <ele>201</ele>
        <time>2012-09-21T14:33:40Z</time>
      </trkpt>
      <trkpt lat="47.0386" lon="5.41307">
        <ele>201</ele>
        <time>2012-09-21T14:33:43Z</time>
      </trkpt>
      <trkpt lat="47.03869" lon="5.41312">
        <ele>201</ele>
        <time>2012-09-21T14:33:55Z</time>
      </trkpt>
      <trkpt lat="47.03876" lon="5.41325">
        <ele>201</ele>
        <time>2012-09-21T14:34:00Z</time>
      </trkpt>
      <trkpt lat="47.03882" lon="5.41335">
        <ele>201</ele>
        <time>2012-09-21T14:34:03Z</time>
      </trkpt>
      <trkpt lat="47.0389" lon="5.41345">
        <ele>201</ele>
        <time>2012-09-21T14:34:06Z</time>
      </trkpt>
      <trkpt lat="47.03903" lon="5.41347">
        <ele>201</ele>
        <time>2012-09-21T14:34:09Z</time>
      </trkpt>
      <trkpt lat="47.03913" lon="5.41346">
        <ele>201</ele>
        <time>2012-09-21T14:34:11Z</time>
      </trkpt>
      <trkpt lat="47.03924" lon="5.4135">
        <ele>201</ele>
        <time>2012-09-21T14:34:13Z</time>
      </trkpt>
      <trkpt lat="47.03935" lon="5.41358">
        <ele>201</ele>
        <time>2012-09-21T14:34:15Z</time>
      </trkpt>
      <trkpt lat="47.03946" lon="5.41367">
        <ele>201</ele>
        <time>2012-09-21T14:34:17Z</time>
      </trkpt>
      <trkpt lat="47.03957" lon="5.41376">
        <ele>201</ele>
        <time>2012-09-21T14:34:19Z</time>
      </trkpt>
      <trkpt lat="47.03966" lon="5.41385">
        <ele>201</ele>
        <time>2012-09-21T14:34:21Z</time>
      </trkpt>
      <trkpt lat="47.03977" lon="5.41394">
        <ele>201</ele>
        <time>2012-09-21T14:34:23Z</time>
      </trkpt>
      <trkpt lat="47.03987" lon="5.41401">
        <ele>201</ele>
        <time>2012-09-21T14:34:25Z</time>
      </trkpt>
      <trkpt lat="47.03996" lon="5.41409">
        <ele>201</ele>
        <time>2012-09-21T14:34:27Z</time>
      </trkpt>
      <trkpt lat="47.04005" lon="5.41416">
        <ele>201</ele>
        <time>2012-09-21T14:34:29Z</time>
      </trkpt>
      <trkpt lat="47.04013" lon="5.41422">
        <ele>201</ele>
        <time>2012-09-21T14:34:31Z</time>
      </trkpt>
      <trkpt lat="47.04022" lon="5.41427">
        <ele>201</ele>
        <time>2012-09-21T14:34:33Z</time>
      </trkpt>
      <trkpt lat="47.04033" lon="5.41433">
        <ele>201</ele>
        <time>2012-09-21T14:34:35Z</time>
      </trkpt>
      <trkpt lat="47.04044" lon="5.41435">
        <ele>201</ele>
        <time>2012-09-21T14:34:37Z</time>
      </trkpt>
      <trkpt lat="47.04054" lon="5.41438">
        <ele>201</ele>
        <time>2012-09-21T14:34:39Z</time>
      </trkpt>
      <trkpt lat="47.04064" lon="5.41441">
        <ele>201</ele>
        <time>2012-09-21T14:34:41Z</time>
      </trkpt>
      <trkpt lat="47.04075" lon="5.41443">
        <ele>201</ele>
        <time>2012-09-21T14:34:43Z</time>
      </trkpt>
      <trkpt lat="47.04084" lon="5.41444">
        <ele>201</ele>
        <time>2012-09-21T14:34:45Z</time>
      </trkpt>
      <trkpt lat="47.04095" lon="5.41444">
        <ele>201</ele>
        <time>2012-09-21T14:34:47Z</time>
      </trkpt>
      <trkpt lat="47.04104" lon="5.41445">
        <ele>201</ele>
        <time>2012-09-21T14:34:49Z</time>
      </trkpt>
      <trkpt lat="47.04114" lon="5.41445">
        <ele>201</ele>
        <time>2012-09-21T14:34:51Z</time>
      </trkpt>
      <trkpt lat="47.04124" lon="5.41443">
        <ele>201</ele>
        <time>2012-09-21T14:34:53Z</time>
      </trkpt>
      <trkpt lat="47.04134" lon="5.41444">
        <ele>201</ele>
        <time>2012-09-21T14:34:55Z</time>
      </trkpt>
      <trkpt lat="47.04145" lon="5.41445">
        <ele>201</ele>
        <time>2012-09-21T14:34:57Z</time>
      </trkpt>
      <trkpt lat="47.04157" lon="5.41447">
        <ele>201</ele>
        <time>2012-09-21T14:34:59Z</time>
      </trkpt>
      <trkpt lat="47.0417" lon="5.41448">
        <ele>201</ele>
        <time>2012-09-21T14:35:01Z</time>
      </trkpt>
      <trkpt lat="47.04184" lon="5.41449">
        <ele>201</ele>
        <time>2012-09-21T14:35:03Z</time>
      </trkpt>
      <trkpt lat="47.04197" lon="5.41452">
        <ele>201</ele>
        <time>2012-09-21T14:35:05Z</time>
      </trkpt>
      <trkpt lat="47.0421" lon="5.41452">
        <ele>201</ele>
        <time>2012-09-21T14:35:07Z</time>
      </trkpt>
      <trkpt lat="47.04223" lon="5.41453">
        <ele>201</ele>
        <time>2012-09-21T14:35:09Z</time>
      </trkpt>
      <trkpt lat="47.04234" lon="5.41454">
        <ele>201</ele>
        <time>2012-09-21T14:35:11Z</time>
      </trkpt>
      <trkpt lat="47.04243" lon="5.4146">
        <ele>201</ele>
        <time>2012-09-21T14:35:14Z</time>
      </trkpt>
      <trkpt lat="47.04254" lon="5.4146">
        <ele>201</ele>
        <time>2012-09-21T14:35:17Z</time>
      </trkpt>
      <trkpt lat="47.04264" lon="5.41459">
        <ele>201</ele>
        <time>2012-09-21T14:35:19Z</time>
      </trkpt>
      <trkpt lat="47.04276" lon="5.4146">
        <ele>201</ele>
        <time>2012-09-21T14:35:21Z</time>
      </trkpt>
      <trkpt lat="47.04289" lon="5.41462">
        <ele>201</ele>
        <time>2012-09-21T14:35:23Z</time>
      </trkpt>
      <trkpt lat="47.04302" lon="5.41465">
        <ele>201</ele>
        <time>2012-09-21T14:35:25Z</time>
      </trkpt>
      <trkpt lat="47.04315" lon="5.41469">
        <ele>201</ele>
        <time>2012-09-21T14:35:27Z</time>
      </trkpt>
      <trkpt lat="47.04328" lon="5.41477">
        <ele>201</ele>
        <time>2012-09-21T14:35:29Z</time>
      </trkpt>
      <trkpt lat="47.0434" lon="5.41485">
        <ele>201</ele>
        <time>2012-09-21T14:35:31Z</time>
      </trkpt>
      <trkpt lat="47.04352" lon="5.41496">
        <ele>201</ele>
        <time>2012-09-21T14:35:33Z</time>
      </trkpt>
      <trkpt lat="47.04364" lon="5.41506">
        <ele>201</ele>
        <time>2012-09-21T14:35:35Z</time>
      </trkpt>
      <trkpt lat="47.04377" lon="5.41517">
        <ele>201</ele>
        <time>2012-09-21T14:35:37Z</time>
      </trkpt>
      <trkpt lat="47.0439" lon="5.41525">
        <ele>201</ele>
        <time>2012-09-21T14:35:39Z</time>
      </trkpt>
      <trkpt lat="47.04404" lon="5.41532">
        <ele>201</ele>
        <time>2012-09-21T14:35:41Z</time>
      </trkpt>
      <trkpt lat="47.04417" lon="5.4154">
        <ele>201</ele>
        <time>2012-09-21T14:35:43Z</time>
      </trkpt>
      <trkpt lat="47.0443" lon="5.41547">
        <ele>201</ele>
        <time>2012-09-21T14:35:45Z</time>
      </trkpt>
      <trkpt lat="47.04444" lon="5.41554">
        <ele>201</ele>
        <time>2012-09-21T14:35:47Z</time>
      </trkpt>
      <trkpt lat="47.04458" lon="5.41563">
        <ele>201</ele>
        <time>2012-09-21T14:35:49Z</time>
      </trkpt>
      <trkpt lat="47.04471" lon="5.41572">
        <ele>201</ele>
        <time>2012-09-21T14:35:51Z</time>
      </trkpt>
      <trkpt lat="47.04485" lon="5.41581">
        <ele>201</ele>
        <time>2012-09-21T14:35:53Z</time>
      </trkpt>
      <trkpt lat="47.04498" lon="5.4159">
        <ele>201</ele>
        <time>2012-09-21T14:35:55Z</time>
      </trkpt>
      <trkpt lat="47.04511" lon="5.416">
        <ele>201</ele>
        <time>2012-09-21T14:35:57Z</time>
      </trkpt>
      <trkpt lat="47.04525" lon="5.41609">
        <ele>201</ele>
        <time>2012-09-21T14:35:59Z</time>
      </trkpt>
      <trkpt lat="47.04538" lon="5.41618">
        <ele>201</ele>
        <time>2012-09-21T14:36:01Z</time>
      </trkpt>
      <trkpt lat="47.04549" lon="5.4163">
        <ele>201</ele>
        <time>2012-09-21T14:36:03Z</time>
      </trkpt>
      <trkpt lat="47.0456" lon="5.41646">
        <ele>201</ele>
        <time>2012-09-21T14:36:05Z</time>
      </trkpt>
      <trkpt lat="47.04568" lon="5.41663">
        <ele>201</ele>
        <time>2012-09-21T14:36:07Z</time>
      </trkpt>
      <trkpt lat="47.04577" lon="5.41679">
        <ele>201</ele>
        <time>2012-09-21T14:36:09Z</time>
      </trkpt>
      <trkpt lat="47.04586" lon="5.41695">
        <ele>201</ele>
        <time>2012-09-21T14:36:11Z</time>
      </trkpt>
      <trkpt lat="47.04594" lon="5.41711">
        <ele>201</ele>
        <time>2012-09-21T14:36:13Z</time>
      </trkpt>
      <trkpt lat="47.04603" lon="5.41725">
        <ele>201</ele>
        <time>2012-09-21T14:36:15Z</time>
      </trkpt>
      <trkpt lat="47.04612" lon="5.41742">
        <ele>201</ele>
        <time>2012-09-21T14:36:17Z</time>
      </trkpt>
      <trkpt lat="47.04621" lon="5.41758">
        <ele>201</ele>
        <time>2012-09-21T14:36:19Z</time>
      </trkpt>
      <trkpt lat="47.0463" lon="5.41773">
        <ele>201</ele>
        <time>2012-09-21T14:36:21Z</time>
      </trkpt>
      <trkpt lat="47.0464" lon="5.41787">
        <ele>201</ele>
        <time>2012-09-21T14:36:23Z</time>
      </trkpt>
      <trkpt lat="47.04651" lon="5.41801">
        <ele>201</ele>
        <time>2012-09-21T14:36:25Z</time>
      </trkpt>
      <trkpt lat="47.04662" lon="5.41813">
        <ele>201</ele>
        <time>2012-09-21T14:36:27Z</time>
      </trkpt>
      <trkpt lat="47.04673" lon="5.41823">
        <ele>201</ele>
        <time>2012-09-21T14:36:29Z</time>
      </trkpt>
      <trkpt lat="47.04684" lon="5.41832">
        <ele>201</ele>
        <time>2012-09-21T14:36:31Z</time>
      </trkpt>
      <trkpt lat="47.04694" lon="5.41842">
        <ele>201</ele>
        <time>2012-09-21T14:36:33Z</time>
      </trkpt>
      <trkpt lat="47.04702" lon="5.41849">
        <ele>201</ele>
        <time>2012-09-21T14:36:35Z</time>
      </trkpt>
      <trkpt lat="47.04711" lon="5.41852">
        <ele>201</ele>
        <time>2012-09-21T14:36:58Z</time>
      </trkpt>
      <trkpt lat="47.04718" lon="5.41843">
        <ele>201</ele>
        <time>2012-09-21T14:37:02Z</time>
      </trkpt>
      <trkpt lat="47.04723" lon="5.41828">
        <ele>201</ele>
        <time>2012-09-21T14:37:05Z</time>
      </trkpt>
      <trkpt lat="47.04725" lon="5.41815">
        <ele>201</ele>
        <time>2012-09-21T14:37:07Z</time>
      </trkpt>
      <trkpt lat="47.04729" lon="5.41801">
        <ele>201</ele>
        <time>2012-09-21T14:37:09Z</time>
      </trkpt>
      <trkpt lat="47.04733" lon="5.41785">
        <ele>201</ele>
        <time>2012-09-21T14:37:11Z</time>
      </trkpt>
      <trkpt lat="47.04737" lon="5.41769">
        <ele>201</ele>
        <time>2012-09-21T14:37:13Z</time>
      </trkpt>
      <trkpt lat="47.04741" lon="5.41752">
        <ele>201</ele>
        <time>2012-09-21T14:37:15Z</time>
      </trkpt>
      <trkpt lat="47.04747" lon="5.41736">
        <ele>201</ele>
        <time>2012-09-21T14:37:17Z</time>
      </trkpt>
      <trkpt lat="47.04752" lon="5.4172">
        <ele>201</ele>
        <time>2012-09-21T14:37:19Z</time>
      </trkpt>
      <trkpt lat="47.04758" lon="5.41703">
        <ele>201</ele>
        <time>2012-09-21T14:37:21Z</time>
      </trkpt>
      <trkpt lat="47.04764" lon="5.41686">
        <ele>201</ele>
        <time>2012-09-21T14:37:23Z</time>
      </trkpt>
      <trkpt lat="47.0477" lon="5.41669">
        <ele>201</ele>
        <time>2012-09-21T14:37:25Z</time>
      </trkpt>
      <trkpt lat="47.04776" lon="5.41652">
        <ele>201</ele>
        <time>2012-09-21T14:37:27Z</time>
      </trkpt>
      <trkpt lat="47.04782" lon="5.41636">
        <ele>201</ele>
        <time>2012-09-21T14:37:29Z</time>
      </trkpt>
      <trkpt lat="47.04788" lon="5.41618">
        <ele>201</ele>
        <time>2012-09-21T14:37:31Z</time>
      </trkpt>
      <trkpt lat="47.04794" lon="5.41601">
        <ele>201</ele>
        <time>2012-09-21T14:37:33Z</time>
      </trkpt>
      <trkpt lat="47.048" lon="5.41584">
        <ele>201</ele>
        <time>2012-09-21T14:37:35Z</time>
      </trkpt>
      <trkpt lat="47.04807" lon="5.41566">
        <ele>201</ele>
        <time>2012-09-21T14:37:37Z</time>
      </trkpt>
      <trkpt lat="47.04813" lon="5.41548">
        <ele>201</ele>
        <time>2012-09-21T14:37:39Z</time>
      </trkpt>
      <trkpt lat="47.04819" lon="5.41531">
        <ele>201</ele>
        <time>2012-09-21T14:37:41Z</time>
      </trkpt>
      <trkpt lat="47.04824" lon="5.41513">
        <ele>201</ele>
        <time>2012-09-21T14:37:43Z</time>
      </trkpt>
      <trkpt lat="47.0483" lon="5.41496">
        <ele>201</ele>
        <time>2012-09-21T14:37:45Z</time>
      </trkpt>
      <trkpt lat="47.04835" lon="5.41479">
        <ele>201</ele>
        <time>2012-09-21T14:37:47Z</time>
      </trkpt>
      <trkpt lat="47.04842" lon="5.41462">
        <ele>201</ele>
        <time>2012-09-21T14:37:49Z</time>
      </trkpt>
      <trkpt lat="47.04846" lon="5.41446">
        <ele>201</ele>
        <time>2012-09-21T14:37:51Z</time>
      </trkpt>
      <trkpt lat="47.0485" lon="5.41431">
        <ele>201</ele>
        <time>2012-09-21T14:37:53Z</time>
      </trkpt>
      <trkpt lat="47.04855" lon="5.41416">
        <ele>201</ele>
        <time>2012-09-21T14:37:55Z</time>
      </trkpt>
      <trkpt lat="47.04863" lon="5.41405">
        <ele>201</ele>
        <time>2012-09-21T14:37:57Z</time>
      </trkpt>
      <trkpt lat="47.04873" lon="5.41395">
        <ele>201</ele>
        <time>2012-09-21T14:37:59Z</time>
      </trkpt>
      <trkpt lat="47.04884" lon="5.4139">
        <ele>201</ele>
        <time>2012-09-21T14:38:01Z</time>
      </trkpt>
      <trkpt lat="47.04897" lon="5.41389">
        <ele>201</ele>
        <time>2012-09-21T14:38:03Z</time>
      </trkpt>
      <trkpt lat="47.0491" lon="5.41389">
        <ele>201</ele>
        <time>2012-09-21T14:38:05Z</time>
      </trkpt>
      <trkpt lat="47.04924" lon="5.41389">
        <ele>201</ele>
        <time>2012-09-21T14:38:07Z</time>
      </trkpt>
      <trkpt lat="47.04938" lon="5.41389">
        <ele>201</ele>
        <time>2012-09-21T14:38:09Z</time>
      </trkpt>
      <trkpt lat="47.04953" lon="5.41389">
        <ele>201</ele>
        <time>2012-09-21T14:38:11Z</time>
      </trkpt>
      <trkpt lat="47.04967" lon="5.41389">
        <ele>201</ele>
        <time>2012-09-21T14:38:13Z</time>
      </trkpt>
      <trkpt lat="47.04981" lon="5.41388">
        <ele>201</ele>
        <time>2012-09-21T14:38:15Z</time>
      </trkpt>
      <trkpt lat="47.04995" lon="5.41388">
        <ele>201</ele>
        <time>2012-09-21T14:38:17Z</time>
      </trkpt>
      <trkpt lat="47.0501" lon="5.41389">
        <ele>201</ele>
        <time>2012-09-21T14:38:19Z</time>
      </trkpt>
      <trkpt lat="47.05024" lon="5.41389">
        <ele>201</ele>
        <time>2012-09-21T14:38:21Z</time>
      </trkpt>
      <trkpt lat="47.05038" lon="5.41389">
        <ele>201</ele>
        <time>2012-09-21T14:38:23Z</time>
      </trkpt>
      <trkpt lat="47.05052" lon="5.41389">
        <ele>201</ele>
        <time>2012-09-21T14:38:25Z</time>
      </trkpt>
      <trkpt lat="47.05066" lon="5.41389">
        <ele>201</ele>
        <time>2012-09-21T14:38:27Z</time>
      </trkpt>
      <trkpt lat="47.0508" lon="5.41388">
        <ele>201</ele>
        <time>2012-09-21T14:38:29Z</time>
      </trkpt>
      <trkpt lat="47.05094" lon="5.41388">
        <ele>201</ele>
        <time>2012-09-21T14:38:31Z</time>
      </trkpt>
      <trkpt lat="47.05108" lon="5.41388">
        <ele>201</ele>
        <time>2012-09-21T14:38:33Z</time>
      </trkpt>
      <trkpt lat="47.05122" lon="5.41388">
        <ele>201</ele>
        <time>2012-09-21T14:38:35Z</time>
      </trkpt>
      <trkpt lat="47.05136" lon="5.41388">
        <ele>201</ele>
        <time>2012-09-21T14:38:37Z</time>
      </trkpt>
      <trkpt lat="47.0515" lon="5.41389">
        <ele>201</ele>
        <time>2012-09-21T14:38:39Z</time>
      </trkpt>
      <trkpt lat="47.05164" lon="5.41389">
        <ele>201</ele>
        <time>2012-09-21T14:38:41Z</time>
      </trkpt>
      <trkpt lat="47.05178" lon="5.41389">
        <ele>201</ele>
        <time>2012-09-21T14:38:43Z</time>
      </trkpt>
      <trkpt lat="47.05191" lon="5.41389">
        <ele>201</ele>
        <time>2012-09-21T14:38:45Z</time>
      </trkpt>
      <trkpt lat="47.05203" lon="5.41389">
        <ele>201</ele>
        <time>2012-09-21T14:38:47Z</time>
      </trkpt>
      <trkpt lat="47.05215" lon="5.41391">
        <ele>201</ele>
        <time>2012-09-21T14:38:49Z</time>
      </trkpt>
      <trkpt lat="47.05226" lon="5.41398">
        <ele>201</ele>
        <time>2012-09-21T14:38:51Z</time>
      </trkpt>
      <trkpt lat="47.05236" lon="5.41407">
        <ele>201</ele>
        <time>2012-09-21T14:38:53Z</time>
      </trkpt>
      <trkpt lat="47.05247" lon="5.41408">
        <ele>201</ele>
        <time>2012-09-21T14:38:55Z</time>
      </trkpt>
      <trkpt lat="47.05257" lon="5.41401">
        <ele>201</ele>
        <time>2012-09-21T14:38:57Z</time>
      </trkpt>
      <trkpt lat="47.05268" lon="5.41393">
        <ele>201</ele>
        <time>2012-09-21T14:38:59Z</time>
      </trkpt>
      <trkpt lat="47.0528" lon="5.4139">
        <ele>201</ele>
        <time>2012-09-21T14:39:01Z</time>
      </trkpt>
      <trkpt lat="47.05293" lon="5.41389">
        <ele>201</ele>
        <time>2012-09-21T14:39:03Z</time>
      </trkpt>
      <trkpt lat="47.05306" lon="5.41388">
        <ele>201</ele>
        <time>2012-09-21T14:39:05Z</time>
      </trkpt>
      <trkpt lat="47.05319" lon="5.41388">
        <ele>201</ele>
        <time>2012-09-21T14:39:07Z</time>
      </trkpt>
      <trkpt lat="47.05333" lon="5.41388">
        <ele>201</ele>
        <time>2012-09-21T14:39:09Z</time>
      </trkpt>
      <trkpt lat="47.05346" lon="5.41388">
        <ele>201</ele>
        <time>2012-09-21T14:39:11Z</time>
      </trkpt>
      <trkpt lat="47.05359" lon="5.41387">
        <ele>201</ele>
        <time>2012-09-21T14:39:13Z</time>
      </trkpt>
      <trkpt lat="47.05373" lon="5.41387">
        <ele>201</ele>
        <time>2012-09-21T14:39:15Z</time>
      </trkpt>
      <trkpt lat="47.05386" lon="5.41386">
        <ele>201</ele>
        <time>2012-09-21T14:39:17Z</time>
      </trkpt>
      <trkpt lat="47.054" lon="5.41386">
        <ele>201</ele>
        <time>2012-09-21T14:39:19Z</time>
      </trkpt>
      <trkpt lat="47.05413" lon="5.41386">
        <ele>201</ele>
        <time>2012-09-21T14:39:21Z</time>
      </trkpt>
      <trkpt lat="47.05427" lon="5.41386">
        <ele>201</ele>
        <time>2012-09-21T14:39:23Z</time>
      </trkpt>
      <trkpt lat="47.05441" lon="5.41385">
        <ele>201</ele>
        <time>2012-09-21T14:39:25Z</time>
      </trkpt>
      <trkpt lat="47.05455" lon="5.41385">
        <ele>201</ele>
        <time>2012-09-21T14:39:27Z</time>
      </trkpt>
      <trkpt lat="47.05469" lon="5.41385">
        <ele>201</ele>
        <time>2012-09-21T14:39:29Z</time>
      </trkpt>
      <trkpt lat="47.05483" lon="5.41386">
        <ele>201</ele>
        <time>2012-09-21T14:39:31Z</time>
      </trkpt>
      <trkpt lat="47.05497" lon="5.41385">
        <ele>201</ele>
        <time>2012-09-21T14:39:33Z</time>
      </trkpt>
      <trkpt lat="47.05511" lon="5.41386">
        <ele>201</ele>
        <time>2012-09-21T14:39:35Z</time>
      </trkpt>
      <trkpt lat="47.05525" lon="5.41385">
        <ele>201</ele>
        <time>2012-09-21T14:39:37Z</time>
      </trkpt>
      <trkpt lat="47.05539" lon="5.41385">
        <ele>201</ele>
        <time>2012-09-21T14:39:39Z</time>
      </trkpt>
      <trkpt lat="47.05554" lon="5.41386">
        <ele>201</ele>
        <time>2012-09-21T14:39:41Z</time>
      </trkpt>
      <trkpt lat="47.05568" lon="5.41387">
        <ele>201</ele>
        <time>2012-09-21T14:39:43Z</time>
      </trkpt>
      <trkpt lat="47.05583" lon="5.41388">
        <ele>201</ele>
        <time>2012-09-21T14:39:45Z</time>
      </trkpt>
      <trkpt lat="47.05597" lon="5.41389">
        <ele>201</ele>
        <time>2012-09-21T14:39:47Z</time>
      </trkpt>
      <trkpt lat="47.0561" lon="5.41389">
        <ele>201</ele>
        <time>2012-09-21T14:39:49Z</time>
      </trkpt>
      <trkpt lat="47.05624" lon="5.41392">
        <ele>201</ele>
        <time>2012-09-21T14:39:51Z</time>
      </trkpt>
      <trkpt lat="47.05637" lon="5.41399">
        <ele>201</ele>
        <time>2012-09-21T14:39:53Z</time>
      </trkpt>
      <trkpt lat="47.05649" lon="5.41403">
        <ele>201</ele>
        <time>2012-09-21T14:39:55Z</time>
      </trkpt>
      <trkpt lat="47.05664" lon="5.41403">
        <ele>201</ele>
        <time>2012-09-21T14:39:57Z</time>
      </trkpt>
      <trkpt lat="47.05677" lon="5.41399">
        <ele>201</ele>
        <time>2012-09-21T14:39:59Z</time>
      </trkpt>
      <trkpt lat="47.05691" lon="5.41393">
        <ele>201</ele>
        <time>2012-09-21T14:40:01Z</time>
      </trkpt>
      <trkpt lat="47.05705" lon="5.41389">
        <ele>201</ele>
        <time>2012-09-21T14:40:03Z</time>
      </trkpt>
      <trkpt lat="47.05719" lon="5.41388">
        <ele>201</ele>
        <time>2012-09-21T14:40:05Z</time>
      </trkpt>
      <trkpt lat="47.05733" lon="5.41388">
        <ele>201</ele>
        <time>2012-09-21T14:40:07Z</time>
      </trkpt>
      <trkpt lat="47.05747" lon="5.41387">
        <ele>201</ele>
        <time>2012-09-21T14:40:09Z</time>
      </trkpt>
      <trkpt lat="47.05761" lon="5.41382">
        <ele>201</ele>
        <time>2012-09-21T14:40:11Z</time>
      </trkpt>
      <trkpt lat="47.05773" lon="5.41372">
        <ele>201</ele>
        <time>2012-09-21T14:40:13Z</time>
      </trkpt>
      <trkpt lat="47.05783" lon="5.41359">
        <ele>201</ele>
        <time>2012-09-21T14:40:15Z</time>
      </trkpt>
      <trkpt lat="47.05793" lon="5.41344">
        <ele>201</ele>
        <time>2012-09-21T14:40:17Z</time>
      </trkpt>
      <trkpt lat="47.05801" lon="5.41328">
        <ele>201</ele>
        <time>2012-09-21T14:40:19Z</time>
      </trkpt>
      <trkpt lat="47.0581" lon="5.41313">
        <ele>201</ele>
        <time>2012-09-21T14:40:21Z</time>
      </trkpt>
      <trkpt lat="47.05819" lon="5.41298">
        <ele>201</ele>
        <time>2012-09-21T14:40:23Z</time>
      </trkpt>
      <trkpt lat="47.05829" lon="5.41283">
        <ele>201</ele>
        <time>2012-09-21T14:40:25Z</time>
      </trkpt>
      <trkpt lat="47.0584" lon="5.41273">
        <ele>201</ele>
        <time>2012-09-21T14:40:27Z</time>
      </trkpt>
      <trkpt lat="47.05854" lon="5.41267">
        <ele>201</ele>
        <time>2012-09-21T14:40:29Z</time>
      </trkpt>
      <trkpt lat="47.05868" lon="5.41266">
        <ele>201</ele>
        <time>2012-09-21T14:40:31Z</time>
      </trkpt>
      <trkpt lat="47.05882" lon="5.41266">
        <ele>201</ele>
        <time>2012-09-21T14:40:33Z</time>
      </trkpt>
      <trkpt lat="47.05893" lon="5.41266">
        <ele>201</ele>
        <time>2012-09-21T14:40:35Z</time>
      </trkpt>
      <trkpt lat="47.05904" lon="5.41266">
        <ele>201</ele>
        <time>2012-09-21T14:40:37Z</time>
      </trkpt>
      <trkpt lat="47.05915" lon="5.41266">
        <ele>201</ele>
        <time>2012-09-21T14:40:39Z</time>
      </trkpt>
      <trkpt lat="47.05925" lon="5.41267">
        <ele>201</ele>
        <time>2012-09-21T14:40:41Z</time>
      </trkpt>
      <trkpt lat="47.05937" lon="5.41268">
        <ele>201</ele>
        <time>2012-09-21T14:40:44Z</time>
      </trkpt>
      <trkpt lat="47.05941" lon="5.41283">
        <ele>201</ele>
        <time>2012-09-21T14:40:47Z</time>
      </trkpt>
      <trkpt lat="47.0594" lon="5.41296">
        <ele>201</ele>
        <time>2012-09-21T14:40:49Z</time>
      </trkpt>
      <trkpt lat="47.05939" lon="5.41312">
        <ele>201</ele>
        <time>2012-09-21T14:40:51Z</time>
      </trkpt>
      <trkpt lat="47.05939" lon="5.41328">
        <ele>201</ele>
        <time>2012-09-21T14:40:53Z</time>
      </trkpt>
      <trkpt lat="47.05939" lon="5.41345">
        <ele>201</ele>
        <time>2012-09-21T14:40:55Z</time>
      </trkpt>
      <trkpt lat="47.05941" lon="5.41362">
        <ele>201</ele>
        <time>2012-09-21T14:40:57Z</time>
      </trkpt>
      <trkpt lat="47.05943" lon="5.41378">
        <ele>201</ele>
        <time>2012-09-21T14:40:59Z</time>
      </trkpt>
      <trkpt lat="47.05943" lon="5.41394">
        <ele>201</ele>
        <time>2012-09-21T14:41:01Z</time>
      </trkpt>
      <trkpt lat="47.05943" lon="5.41409">
        <ele>201</ele>
        <time>2012-09-21T14:41:03Z</time>
      </trkpt>
      <trkpt lat="47.05943" lon="5.41426">
        <ele>201</ele>
        <time>2012-09-21T14:41:05Z</time>
      </trkpt>
      <trkpt lat="47.05943" lon="5.41443">
        <ele>201</ele>
        <time>2012-09-21T14:41:07Z</time>
      </trkpt>
      <trkpt lat="47.05943" lon="5.4146">
        <ele>201</ele>
        <time>2012-09-21T14:41:09Z</time>
      </trkpt>
      <trkpt lat="47.05943" lon="5.41477">
        <ele>201</ele>
        <time>2012-09-21T14:41:11Z</time>
      </trkpt>
      <trkpt lat="47.05944" lon="5.41493">
        <ele>201</ele>
        <time>2012-09-21T14:41:13Z</time>
      </trkpt>
      <trkpt lat="47.05943" lon="5.4151">
        <ele>201</ele>
        <time>2012-09-21T14:41:15Z</time>
      </trkpt>
      <trkpt lat="47.05943" lon="5.41528">
        <ele>201</ele>
        <time>2012-09-21T14:41:17Z</time>
      </trkpt>
      <trkpt lat="47.05944" lon="5.41545">
        <ele>201</ele>
        <time>2012-09-21T14:41:19Z</time>
      </trkpt>
      <trkpt lat="47.05944" lon="5.41562">
        <ele>201</ele>
        <time>2012-09-21T14:41:21Z</time>
      </trkpt>
      <trkpt lat="47.05944" lon="5.4158">
        <ele>201</ele>
        <time>2012-09-21T14:41:23Z</time>
      </trkpt>
      <trkpt lat="47.05944" lon="5.41598">
        <ele>201</ele>
        <time>2012-09-21T14:41:25Z</time>
      </trkpt>
      <trkpt lat="47.05944" lon="5.41616">
        <ele>201</ele>
        <time>2012-09-21T14:41:27Z</time>
      </trkpt>
      <trkpt lat="47.05944" lon="5.41634">
        <ele>201</ele>
        <time>2012-09-21T14:41:29Z</time>
      </trkpt>
      <trkpt lat="47.05944" lon="5.41652">
        <ele>201</ele>
        <time>2012-09-21T14:41:31Z</time>
      </trkpt>
      <trkpt lat="47.05944" lon="5.41671">
        <ele>201</ele>
        <time>2012-09-21T14:41:33Z</time>
      </trkpt>
      <trkpt lat="47.05944" lon="5.4169">
        <ele>201</ele>
        <time>2012-09-21T14:41:35Z</time>
      </trkpt>
      <trkpt lat="47.05944" lon="5.41708">
        <ele>201</ele>
        <time>2012-09-21T14:41:37Z</time>
      </trkpt>
      <trkpt lat="47.05944" lon="5.41728">
        <ele>201</ele>
        <time>2012-09-21T14:41:39Z</time>
      </trkpt>
      <trkpt lat="47.05944" lon="5.41748">
        <ele>201</ele>
        <time>2012-09-21T14:41:41Z</time>
      </trkpt>
      <trkpt lat="47.05945" lon="5.41768">
        <ele>201</ele>
        <time>2012-09-21T14:41:43Z</time>
      </trkpt>
      <trkpt lat="47.05945" lon="5.41787">
        <ele>201</ele>
        <time>2012-09-21T14:41:45Z</time>
      </trkpt>
      <trkpt lat="47.05945" lon="5.41805">
        <ele>201</ele>
        <time>2012-09-21T14:41:47Z</time>
      </trkpt>
      <trkpt lat="47.05946" lon="5.41825">
        <ele>201</ele>
        <time>2012-09-21T14:41:49Z</time>
      </trkpt>
      <trkpt lat="47.05946" lon="5.41844">
        <ele>201</ele>
        <time>2012-09-21T14:41:51Z</time>
      </trkpt>
      <trkpt lat="47.05946" lon="5.41864">
        <ele>201</ele>
        <time>2012-09-21T14:41:53Z</time>
      </trkpt>
      <trkpt lat="47.05946" lon="5.41883">
        <ele>201</ele>
        <time>2012-09-21T14:41:55Z</time>
      </trkpt>
      <trkpt lat="47.05947" lon="5.41902">
        <ele>201</ele>
        <time>2012-09-21T14:41:57Z</time>
      </trkpt>
      <trkpt lat="47.05947" lon="5.41922">
        <ele>201</ele>
        <time>2012-09-21T14:41:59Z</time>
      </trkpt>
      <trkpt lat="47.05947" lon="5.41942">
        <ele>201</ele>
        <time>2012-09-21T14:42:01Z</time>
      </trkpt>
      <trkpt lat="47.05947" lon="5.41962">
        <ele>201</ele>
        <time>2012-09-21T14:42:03Z</time>
      </trkpt>
      <trkpt lat="47.05947" lon="5.41982">
        <ele>201</ele>
        <time>2012-09-21T14:42:05Z</time>
      </trkpt>
      <trkpt lat="47.05947" lon="5.42001">
        <ele>201</ele>
        <time>2012-09-21T14:42:07Z</time>
      </trkpt>
      <trkpt lat="47.05947" lon="5.42021">
        <ele>201</ele>
        <time>2012-09-21T14:42:09Z</time>
      </trkpt>
      <trkpt lat="47.05947" lon="5.42041">
        <ele>201</ele>
        <time>2012-09-21T14:42:11Z</time>
      </trkpt>
      <trkpt lat="47.05947" lon="5.42061">
        <ele>201</ele>
        <time>2012-09-21T14:42:13Z</time>
      </trkpt>
      <trkpt lat="47.05947" lon="5.4208">
        <ele>201</ele>
        <time>2012-09-21T14:42:15Z</time>
      </trkpt>
      <trkpt lat="47.05947" lon="5.42099">
        <ele>201</ele>
        <time>2012-09-21T14:42:17Z</time>
      </trkpt>
      <trkpt lat="47.05947" lon="5.42119">
        <ele>201</ele>
        <time>2012-09-21T14:42:19Z</time>
      </trkpt>
      <trkpt lat="47.05947" lon="5.42138">
        <ele>201</ele>
        <time>2012-09-21T14:42:21Z</time>
      </trkpt>
      <trkpt lat="47.05947" lon="5.42158">
        <ele>201</ele>
        <time>2012-09-21T14:42:23Z</time>
      </trkpt>
      <trkpt lat="47.05947" lon="5.42177">
        <ele>201</ele>
        <time>2012-09-21T14:42:25Z</time>
      </trkpt>
      <trkpt lat="47.05948" lon="5.42197">
        <ele>201</ele>
        <time>2012-09-21T14:42:27Z</time>
      </trkpt>
      <trkpt lat="47.05948" lon="5.42217">
        <ele>201</ele>
        <time>2012-09-21T14:42:29Z</time>
      </trkpt>
      <trkpt lat="47.05948" lon="5.42236">
        <ele>201</ele>
        <time>2012-09-21T14:42:31Z</time>
      </trkpt>
      <trkpt lat="47.05948" lon="5.42255">
        <ele>201</ele>
        <time>2012-09-21T14:42:33Z</time>
      </trkpt>
      <trkpt lat="47.05948" lon="5.42274">
        <ele>201</ele>
        <time>2012-09-21T14:42:35Z</time>
      </trkpt>
      <trkpt lat="47.05948" lon="5.42294">
        <ele>201</ele>
        <time>2012-09-21T14:42:37Z</time>
      </trkpt>
      <trkpt lat="47.05948" lon="5.42314">
        <ele>201</ele>
        <time>2012-09-21T14:42:39Z</time>
      </trkpt>
      <trkpt lat="47.05948" lon="5.42335">
        <ele>201</ele>
        <time>2012-09-21T14:42:41Z</time>
      </trkpt>
      <trkpt lat="47.05948" lon="5.42354">
        <ele>201</ele>
        <time>2012-09-21T14:42:43Z</time>
      </trkpt>
      <trkpt lat="47.05948" lon="5.42375">
        <ele>201</ele>
        <time>2012-09-21T14:42:45Z</time>
      </trkpt>
      <trkpt lat="47.05948" lon="5.42395">
        <ele>201</ele>
        <time>2012-09-21T14:42:47Z</time>
      </trkpt>
      <trkpt lat="47.05948" lon="5.42415">
        <ele>201</ele>
        <time>2012-09-21T14:42:49Z</time>
      </trkpt>
      <trkpt lat="47.05948" lon="5.42436">
        <ele>201</ele>
        <time>2012-09-21T14:42:51Z</time>
      </trkpt>
      <trkpt lat="47.05949" lon="5.42458">
        <ele>201</ele>
        <time>2012-09-21T14:42:53Z</time>
      </trkpt>
      <trkpt lat="47.05948" lon="5.42478">
        <ele>201</ele>
        <time>2012-09-21T14:42:55Z</time>
      </trkpt>
      <trkpt lat="47.05948" lon="5.425">
        <ele>201</ele>
        <time>2012-09-21T14:42:57Z</time>
      </trkpt>
      <trkpt lat="47.05948" lon="5.4252">
        <ele>201</ele>
        <time>2012-09-21T14:42:59Z</time>
      </trkpt>
      <trkpt lat="47.05948" lon="5.42542">
        <ele>201</ele>
        <time>2012-09-21T14:43:01Z</time>
      </trkpt>
      <trkpt lat="47.05947" lon="5.42564">
        <ele>201</ele>
        <time>2012-09-21T14:43:03Z</time>
      </trkpt>
      <trkpt lat="47.05947" lon="5.42584">
        <ele>201</ele>
        <time>2012-09-21T14:43:05Z</time>
      </trkpt>
      <trkpt lat="47.05947" lon="5.42605">
        <ele>201</ele>
        <time>2012-09-21T14:43:07Z</time>
      </trkpt>
      <trkpt lat="47.05946" lon="5.42624">
        <ele>201</ele>
        <time>2012-09-21T14:43:09Z</time>
      </trkpt>
      <trkpt lat="47.05945" lon="5.42641">
        <ele>201</ele>
        <time>2012-09-21T14:43:11Z</time>
      </trkpt>
      <trkpt lat="47.05944" lon="5.42654">
        <ele>201</ele>
        <time>2012-09-21T14:43:13Z</time>
      </trkpt>
      <trkpt lat="47.05944" lon="5.42671">
        <ele>201</ele>
        <time>2012-09-21T14:43:17Z</time>
      </trkpt>
      <trkpt lat="47.05952" lon="5.42678">
        <ele>201</ele>
        <time>2012-09-21T14:43:30Z</time>
      </trkpt>
      <trkpt lat="47.05961" lon="5.42677">
        <ele>201</ele>
        <time>2012-09-21T14:43:33Z</time>
      </trkpt>
      <trkpt lat="47.05971" lon="5.4268">
        <ele>201</ele>
        <time>2012-09-21T14:43:36Z</time>
      </trkpt>
      <trkpt lat="47.05971" lon="5.42694">
        <ele>201</ele>
        <time>2012-09-21T14:43:38Z</time>
      </trkpt>
      <trkpt lat="47.0597" lon="5.42714">
        <ele>201</ele>
        <time>2012-09-21T14:43:40Z</time>
      </trkpt>
      <trkpt lat="47.0597" lon="5.42736">
        <ele>201</ele>
        <time>2012-09-21T14:43:42Z</time>
      </trkpt>
      <trkpt lat="47.05969" lon="5.42759">
        <ele>201</ele>
        <time>2012-09-21T14:43:44Z</time>
      </trkpt>
      <trkpt lat="47.05969" lon="5.42782">
        <ele>201</ele>
        <time>2012-09-21T14:43:46Z</time>
      </trkpt>
      <trkpt lat="47.0597" lon="5.42804">
        <ele>201</ele>
        <time>2012-09-21T14:43:48Z</time>
      </trkpt>
      <trkpt lat="47.0597" lon="5.42827">
        <ele>201</ele>
        <time>2012-09-21T14:43:50Z</time>
      </trkpt>
      <trkpt lat="47.05969" lon="5.42849">
        <ele>201</ele>
        <time>2012-09-21T14:43:52Z</time>
      </trkpt>
      <trkpt lat="47.05969" lon="5.42871">
        <ele>201</ele>
        <time>2012-09-21T14:43:54Z</time>
      </trkpt>
      <trkpt lat="47.05969" lon="5.42892">
        <ele>201</ele>
        <time>2012-09-21T14:43:56Z</time>
      </trkpt>
      <trkpt lat="47.05968" lon="5.42913">
        <ele>201</ele>
        <time>2012-09-21T14:43:58Z</time>
      </trkpt>
      <trkpt lat="47.05965" lon="5.42934">
        <ele>201</ele>
        <time>2012-09-21T14:44:00Z</time>
      </trkpt>
      <trkpt lat="47.05962" lon="5.42953">
        <ele>201</ele>
        <time>2012-09-21T14:44:02Z</time>
      </trkpt>
      <trkpt lat="47.05963" lon="5.42974">
        <ele>201</ele>
        <time>2012-09-21T14:44:04Z</time>
      </trkpt>
      <trkpt lat="47.05966" lon="5.42995">
        <ele>201</ele>
        <time>2012-09-21T14:44:06Z</time>
      </trkpt>
      <trkpt lat="47.05968" lon="5.43016">
        <ele>201</ele>
        <time>2012-09-21T14:44:08Z</time>
      </trkpt>
      <trkpt lat="47.05968" lon="5.43039">
        <ele>201</ele>
        <time>2012-09-21T14:44:10Z</time>
      </trkpt>
      <trkpt lat="47.05968" lon="5.43059">
        <ele>201</ele>
        <time>2012-09-21T14:44:12Z</time>
      </trkpt>
      <trkpt lat="47.05968" lon="5.43081">
        <ele>201</ele>
        <time>2012-09-21T14:44:14Z</time>
      </trkpt>
      <trkpt lat="47.05969" lon="5.43102">
        <ele>201</ele>
        <time>2012-09-21T14:44:16Z</time>
      </trkpt>
      <trkpt lat="47.05969" lon="5.43121">
        <ele>201</ele>
        <time>2012-09-21T14:44:18Z</time>
      </trkpt>
      <trkpt lat="47.05969" lon="5.43139">
        <ele>201</ele>
        <time>2012-09-21T14:44:20Z</time>
      </trkpt>
      <trkpt lat="47.05969" lon="5.43158">
        <ele>201</ele>
        <time>2012-09-21T14:44:22Z</time>
      </trkpt>
      <trkpt lat="47.05969" lon="5.43178">
        <ele>201</ele>
        <time>2012-09-21T14:44:24Z</time>
      </trkpt>
      <trkpt lat="47.0597" lon="5.432">
        <ele>201</ele>
        <time>2012-09-21T14:44:26Z</time>
      </trkpt>
      <trkpt lat="47.0597" lon="5.4322">
        <ele>201</ele>
        <time>2012-09-21T14:44:28Z</time>
      </trkpt>
      <trkpt lat="47.0597" lon="5.4324">
        <ele>201</ele>
        <time>2012-09-21T14:44:30Z</time>
      </trkpt>
      <trkpt lat="47.0597" lon="5.43261">
        <ele>201</ele>
        <time>2012-09-21T14:44:32Z</time>
      </trkpt>
      <trkpt lat="47.0597" lon="5.43281">
        <ele>201</ele>
        <time>2012-09-21T14:44:34Z</time>
      </trkpt>
      <trkpt lat="47.05969" lon="5.43301">
        <ele>201</ele>
        <time>2012-09-21T14:44:36Z</time>
      </trkpt>
      <trkpt lat="47.0597" lon="5.4332">
        <ele>201</ele>
        <time>2012-09-21T14:44:38Z</time>
      </trkpt>
      <trkpt lat="47.0597" lon="5.43339">
        <ele>201</ele>
        <time>2012-09-21T14:44:40Z</time>
      </trkpt>
      <trkpt lat="47.0597" lon="5.4336">
        <ele>201</ele>
        <time>2012-09-21T14:44:42Z</time>
      </trkpt>
      <trkpt lat="47.0597" lon="5.43379">
        <ele>201</ele>
        <time>2012-09-21T14:44:44Z</time>
      </trkpt>
      <trkpt lat="47.0597" lon="5.434">
        <ele>201</ele>
        <time>2012-09-21T14:44:46Z</time>
      </trkpt>
      <trkpt lat="47.0597" lon="5.43421">
        <ele>201</ele>
        <time>2012-09-21T14:44:48Z</time>
      </trkpt>
      <trkpt lat="47.0597" lon="5.43441">
        <ele>201</ele>
        <time>2012-09-21T14:44:50Z</time>
      </trkpt>
      <trkpt lat="47.0597" lon="5.43462">
        <ele>201</ele>
        <time>2012-09-21T14:44:52Z</time>
      </trkpt>
      <trkpt lat="47.0597" lon="5.43483">
        <ele>201</ele>
        <time>2012-09-21T14:44:54Z</time>
      </trkpt>
      <trkpt lat="47.05969" lon="5.43502">
        <ele>201</ele>
        <time>2012-09-21T14:44:56Z</time>
      </trkpt>
      <trkpt lat="47.05969" lon="5.43522">
        <ele>201</ele>
        <time>2012-09-21T14:44:58Z</time>
      </trkpt>
      <trkpt lat="47.05969" lon="5.43542">
        <ele>201</ele>
        <time>2012-09-21T14:45:00Z</time>
      </trkpt>
      <trkpt lat="47.0597" lon="5.43562">
        <ele>201</ele>
        <time>2012-09-21T14:45:02Z</time>
      </trkpt>
      <trkpt lat="47.0597" lon="5.43582">
        <ele>201</ele>
        <time>2012-09-21T14:45:04Z</time>
      </trkpt>
      <trkpt lat="47.05971" lon="5.43602">
        <ele>201</ele>
        <time>2012-09-21T14:45:06Z</time>
      </trkpt>
      <trkpt lat="47.0597" lon="5.43623">
        <ele>201</ele>
        <time>2012-09-21T14:45:08Z</time>
      </trkpt>
      <trkpt lat="47.05971" lon="5.43641">
        <ele>201</ele>
        <time>2012-09-21T14:45:10Z</time>
      </trkpt>
      <trkpt lat="47.05971" lon="5.43656">
        <ele>201</ele>
        <time>2012-09-21T14:45:12Z</time>
      </trkpt>
      <trkpt lat="47.05972" lon="5.43671">
        <ele>201</ele>
        <time>2012-09-21T14:45:14Z</time>
      </trkpt>
      <trkpt lat="47.05973" lon="5.43689">
        <ele>201</ele>
        <time>2012-09-21T14:45:16Z</time>
      </trkpt>
      <trkpt lat="47.05974" lon="5.43708">
        <ele>201</ele>
        <time>2012-09-21T14:45:18Z</time>
      </trkpt>
      <trkpt lat="47.05975" lon="5.43725">
        <ele>201</ele>
        <time>2012-09-21T14:45:20Z</time>
      </trkpt>
      <trkpt lat="47.05978" lon="5.43742">
        <ele>201</ele>
        <time>2012-09-21T14:45:22Z</time>
      </trkpt>
      <trkpt lat="47.05977" lon="5.43762">
        <ele>201</ele>
        <time>2012-09-21T14:45:24Z</time>
      </trkpt>
      <trkpt lat="47.05972" lon="5.43781">
        <ele>201</ele>
        <time>2012-09-21T14:45:26Z</time>
      </trkpt>
      <trkpt lat="47.05966" lon="5.43801">
        <ele>201</ele>
        <time>2012-09-21T14:45:28Z</time>
      </trkpt>
      <trkpt lat="47.05958" lon="5.43819">
        <ele>201</ele>
        <time>2012-09-21T14:45:30Z</time>
      </trkpt>
      <trkpt lat="47.05948" lon="5.43837">
        <ele>201</ele>
        <time>2012-09-21T14:45:32Z</time>
      </trkpt>
      <trkpt lat="47.05938" lon="5.43852">
        <ele>201</ele>
        <time>2012-09-21T14:45:34Z</time>
      </trkpt>
      <trkpt lat="47.05928" lon="5.43867">
        <ele>201</ele>
        <time>2012-09-21T14:45:36Z</time>
      </trkpt>
      <trkpt lat="47.05917" lon="5.4388">
        <ele>201</ele>
        <time>2012-09-21T14:45:38Z</time>
      </trkpt>
      <trkpt lat="47.05905" lon="5.43893">
        <ele>201</ele>
        <time>2012-09-21T14:45:40Z</time>
      </trkpt>
      <trkpt lat="47.05896" lon="5.43907">
        <ele>201</ele>
        <time>2012-09-21T14:45:42Z</time>
      </trkpt>
      <trkpt lat="47.05886" lon="5.4392">
        <ele>201</ele>
        <time>2012-09-21T14:45:44Z</time>
      </trkpt>
      <trkpt lat="47.05877" lon="5.43934">
        <ele>201</ele>
        <time>2012-09-21T14:45:46Z</time>
      </trkpt>
      <trkpt lat="47.05868" lon="5.4395">
        <ele>201</ele>
        <time>2012-09-21T14:45:48Z</time>
      </trkpt>
      <trkpt lat="47.05858" lon="5.43964">
        <ele>201</ele>
        <time>2012-09-21T14:45:50Z</time>
      </trkpt>
      <trkpt lat="47.05848" lon="5.43978">
        <ele>201</ele>
        <time>2012-09-21T14:45:52Z</time>
      </trkpt>
      <trkpt lat="47.05838" lon="5.43991">
        <ele>201</ele>
        <time>2012-09-21T14:45:54Z</time>
      </trkpt>
      <trkpt lat="47.05828" lon="5.44004">
        <ele>201</ele>
        <time>2012-09-21T14:45:56Z</time>
      </trkpt>
      <trkpt lat="47.05818" lon="5.44017">
        <ele>201</ele>
        <time>2012-09-21T14:45:58Z</time>
      </trkpt>
      <trkpt lat="47.05807" lon="5.44031">
        <ele>201</ele>
        <time>2012-09-21T14:46:00Z</time>
      </trkpt>
      <trkpt lat="47.05797" lon="5.44043">
        <ele>201</ele>
        <time>2012-09-21T14:46:02Z</time>
      </trkpt>
      <trkpt lat="47.05788" lon="5.44057">
        <ele>201</ele>
        <time>2012-09-21T14:46:04Z</time>
      </trkpt>
      <trkpt lat="47.05778" lon="5.44069">
        <ele>201</ele>
        <time>2012-09-21T14:46:06Z</time>
      </trkpt>
      <trkpt lat="47.05768" lon="5.44082">
        <ele>201</ele>
        <time>2012-09-21T14:46:08Z</time>
      </trkpt>
      <trkpt lat="47.05759" lon="5.44094">
        <ele>201</ele>
        <time>2012-09-21T14:46:10Z</time>
      </trkpt>
      <trkpt lat="47.05749" lon="5.44107">
        <ele>201</ele>
        <time>2012-09-21T14:46:12Z</time>
      </trkpt>
      <trkpt lat="47.05739" lon="5.44119">
        <ele>201</ele>
        <time>2012-09-21T14:46:14Z</time>
      </trkpt>
      <trkpt lat="47.05729" lon="5.44132">
        <ele>201</ele>
        <time>2012-09-21T14:46:16Z</time>
      </trkpt>
      <trkpt lat="47.05719" lon="5.44145">
        <ele>201</ele>
        <time>2012-09-21T14:46:18Z</time>
      </trkpt>
      <trkpt lat="47.0571" lon="5.44157">
        <ele>201</ele>
        <time>2012-09-21T14:46:20Z</time>
      </trkpt>
      <trkpt lat="47.057" lon="5.44169">
        <ele>201</ele>
        <time>2012-09-21T14:46:22Z</time>
      </trkpt>
      <trkpt lat="47.05691" lon="5.44181">
        <ele>201</ele>
        <time>2012-09-21T14:46:24Z</time>
      </trkpt>
      <trkpt lat="47.05683" lon="5.44191">
        <ele>201</ele>
        <time>2012-09-21T14:46:26Z</time>
      </trkpt>
      <trkpt lat="47.05675" lon="5.44201">
        <ele>201</ele>
        <time>2012-09-21T14:46:28Z</time>
      </trkpt>
      <trkpt lat="47.05667" lon="5.44207">
        <ele>201</ele>
        <time>2012-09-21T14:46:30Z</time>
      </trkpt>
      <trkpt lat="47.05654" lon="5.44209">
        <ele>201</ele>
        <time>2012-09-21T14:46:33Z</time>
      </trkpt>
      <trkpt lat="47.05643" lon="5.44216">
        <ele>201</ele>
        <time>2012-09-21T14:46:36Z</time>
      </trkpt>
      <trkpt lat="47.05638" lon="5.44227">
        <ele>201</ele>
        <time>2012-09-21T14:46:37Z</time>
      </trkpt>
      <trkpt lat="47.05634" lon="5.44245">
        <ele>201</ele>
        <time>2012-09-21T14:46:39Z</time>
      </trkpt>
      <trkpt lat="47.05627" lon="5.44258">
        <ele>201</ele>
        <time>2012-09-21T14:46:41Z</time>
      </trkpt>
      <trkpt lat="47.0562" lon="5.44269">
        <ele>201</ele>
        <time>2012-09-21T14:46:43Z</time>
      </trkpt>
      <trkpt lat="47.0561" lon="5.44278">
        <ele>201</ele>
        <time>2012-09-21T14:46:45Z</time>
      </trkpt>
      <trkpt lat="47.056" lon="5.44287">
        <ele>201</ele>
        <time>2012-09-21T14:46:47Z</time>
      </trkpt>
      <trkpt lat="47.05592" lon="5.44298">
        <ele>201</ele>
        <time>2012-09-21T14:46:49Z</time>
      </trkpt>
      <trkpt lat="47.05583" lon="5.4431">
        <ele>201</ele>
        <time>2012-09-21T14:46:51Z</time>
      </trkpt>
      <trkpt lat="47.05575" lon="5.44322">
        <ele>201</ele>
        <time>2012-09-21T14:46:53Z</time>
      </trkpt>
      <trkpt lat="47.05567" lon="5.44333">
        <ele>201</ele>
        <time>2012-09-21T14:46:55Z</time>
      </trkpt>
      <trkpt lat="47.05559" lon="5.44347">
        <ele>201</ele>
        <time>2012-09-21T14:46:57Z</time>
      </trkpt>
      <trkpt lat="47.05554" lon="5.44361">
        <ele>201</ele>
        <time>2012-09-21T14:46:59Z</time>
      </trkpt>
      <trkpt lat="47.0555" lon="5.44377">
        <ele>201</ele>
        <time>2012-09-21T14:47:01Z</time>
      </trkpt>
      <trkpt lat="47.05548" lon="5.44394">
        <ele>201</ele>
        <time>2012-09-21T14:47:03Z</time>
      </trkpt>
      <trkpt lat="47.05548" lon="5.44411">
        <ele>201</ele>
        <time>2012-09-21T14:47:05Z</time>
      </trkpt>
      <trkpt lat="47.05551" lon="5.4443">
        <ele>201</ele>
        <time>2012-09-21T14:47:07Z</time>
      </trkpt>
      <trkpt lat="47.05556" lon="5.44448">
        <ele>201</ele>
        <time>2012-09-21T14:47:09Z</time>
      </trkpt>
      <trkpt lat="47.0556" lon="5.44467">
        <ele>201</ele>
        <time>2012-09-21T14:47:11Z</time>
      </trkpt>
      <trkpt lat="47.05567" lon="5.44485">
        <ele>201</ele>
        <time>2012-09-21T14:47:13Z</time>
      </trkpt>
      <trkpt lat="47.05573" lon="5.44503">
        <ele>201</ele>
        <time>2012-09-21T14:47:15Z</time>
      </trkpt>
      <trkpt lat="47.05579" lon="5.44522">
        <ele>201</ele>
        <time>2012-09-21T14:47:17Z</time>
      </trkpt>
      <trkpt lat="47.05586" lon="5.44541">
        <ele>201</ele>
        <time>2012-09-21T14:47:19Z</time>
      </trkpt>
      <trkpt lat="47.05592" lon="5.44561">
        <ele>201</ele>
        <time>2012-09-21T14:47:21Z</time>
      </trkpt>
      <trkpt lat="47.05599" lon="5.44579">
        <ele>201</ele>
        <time>2012-09-21T14:47:23Z</time>
      </trkpt>
      <trkpt lat="47.05605" lon="5.44599">
        <ele>201</ele>
        <time>2012-09-21T14:47:25Z</time>
      </trkpt>
      <trkpt lat="47.05611" lon="5.4462">
        <ele>201</ele>
        <time>2012-09-21T14:47:27Z</time>
      </trkpt>
      <trkpt lat="47.05617" lon="5.44641">
        <ele>201</ele>
        <time>2012-09-21T14:47:29Z</time>
      </trkpt>
      <trkpt lat="47.05622" lon="5.44661">
        <ele>201</ele>
        <time>2012-09-21T14:47:31Z</time>
      </trkpt>
      <trkpt lat="47.05629" lon="5.44682">
        <ele>201</ele>
        <time>2012-09-21T14:47:33Z</time>
      </trkpt>
      <trkpt lat="47.05635" lon="5.44703">
        <ele>201</ele>
        <time>2012-09-21T14:47:35Z</time>
      </trkpt>
      <trkpt lat="47.05642" lon="5.44722">
        <ele>201</ele>
        <time>2012-09-21T14:47:37Z</time>
      </trkpt>
      <trkpt lat="47.05648" lon="5.44743">
        <ele>201</ele>
        <time>2012-09-21T14:47:39Z</time>
      </trkpt>
      <trkpt lat="47.05655" lon="5.44763">
        <ele>201</ele>
        <time>2012-09-21T14:47:41Z</time>
      </trkpt>
      <trkpt lat="47.05662" lon="5.44782">
        <ele>201</ele>
        <time>2012-09-21T14:47:43Z</time>
      </trkpt>
      <trkpt lat="47.05668" lon="5.44803">
        <ele>201</ele>
        <time>2012-09-21T14:47:45Z</time>
      </trkpt>
      <trkpt lat="47.05675" lon="5.44823">
        <ele>201</ele>
        <time>2012-09-21T14:47:47Z</time>
      </trkpt>
      <trkpt lat="47.05681" lon="5.44844">
        <ele>201</ele>
        <time>2012-09-21T14:47:49Z</time>
      </trkpt>
      <trkpt lat="47.05688" lon="5.44863">
        <ele>201</ele>
        <time>2012-09-21T14:47:51Z</time>
      </trkpt>
      <trkpt lat="47.05694" lon="5.44884">
        <ele>201</ele>
        <time>2012-09-21T14:47:53Z</time>
      </trkpt>
      <trkpt lat="47.057" lon="5.44905">
        <ele>201</ele>
        <time>2012-09-21T14:47:55Z</time>
      </trkpt>
      <trkpt lat="47.05707" lon="5.44925">
        <ele>201</ele>
        <time>2012-09-21T14:47:57Z</time>
      </trkpt>
      <trkpt lat="47.05714" lon="5.44945">
        <ele>201</ele>
        <time>2012-09-21T14:47:59Z</time>
      </trkpt>
      <trkpt lat="47.0572" lon="5.44966">
        <ele>201</ele>
        <time>2012-09-21T14:48:01Z</time>
      </trkpt>
      <trkpt lat="47.05726" lon="5.44986">
        <ele>201</ele>
        <time>2012-09-21T14:48:03Z</time>
      </trkpt>
      <trkpt lat="47.05732" lon="5.45007">
        <ele>201</ele>
        <time>2012-09-21T14:48:05Z</time>
      </trkpt>
      <trkpt lat="47.05738" lon="5.45027">
        <ele>201</ele>
        <time>2012-09-21T14:48:07Z</time>
      </trkpt>
      <trkpt lat="47.05743" lon="5.45047">
        <ele>201</ele>
        <time>2012-09-21T14:48:09Z</time>
      </trkpt>
      <trkpt lat="47.0575" lon="5.45067">
        <ele>201</ele>
        <time>2012-09-21T14:48:11Z</time>
      </trkpt>
      <trkpt lat="47.05756" lon="5.45087">
        <ele>201</ele>
        <time>2012-09-21T14:48:13Z</time>
      </trkpt>
      <trkpt lat="47.05762" lon="5.45108">
        <ele>201</ele>
        <time>2012-09-21T14:48:15Z</time>
      </trkpt>
      <trkpt lat="47.05768" lon="5.45127">
        <ele>201</ele>
        <time>2012-09-21T14:48:17Z</time>
      </trkpt>
      <trkpt lat="47.05774" lon="5.45147">
        <ele>201</ele>
        <time>2012-09-21T14:48:19Z</time>
      </trkpt>
      <trkpt lat="47.0578" lon="5.45167">
        <ele>201</ele>
        <time>2012-09-21T14:48:21Z</time>
      </trkpt>
      <trkpt lat="47.05786" lon="5.45188">
        <ele>201</ele>
        <time>2012-09-21T14:48:23Z</time>
      </trkpt>
      <trkpt lat="47.05793" lon="5.45207">
        <ele>201</ele>
        <time>2012-09-21T14:48:25Z</time>
      </trkpt>
      <trkpt lat="47.058" lon="5.45227">
        <ele>201</ele>
        <time>2012-09-21T14:48:27Z</time>
      </trkpt>
      <trkpt lat="47.05807" lon="5.45248">
        <ele>201</ele>
        <time>2012-09-21T14:48:29Z</time>
      </trkpt>
      <trkpt lat="47.05813" lon="5.45268">
        <ele>201</ele>
        <time>2012-09-21T14:48:31Z</time>
      </trkpt>
      <trkpt lat="47.0582" lon="5.45289">
        <ele>201</ele>
        <time>2012-09-21T14:48:33Z</time>
      </trkpt>
      <trkpt lat="47.05826" lon="5.4531">
        <ele>201</ele>
        <time>2012-09-21T14:48:35Z</time>
      </trkpt>
      <trkpt lat="47.05832" lon="5.4533">
        <ele>201</ele>
        <time>2012-09-21T14:48:37Z</time>
      </trkpt>
      <trkpt lat="47.05839" lon="5.45351">
        <ele>201</ele>
        <time>2012-09-21T14:48:39Z</time>
      </trkpt>
      <trkpt lat="47.05844" lon="5.45372">
        <ele>201</ele>
        <time>2012-09-21T14:48:41Z</time>
      </trkpt>
      <trkpt lat="47.0585" lon="5.45392">
        <ele>201</ele>
        <time>2012-09-21T14:48:43Z</time>
      </trkpt>
      <trkpt lat="47.05856" lon="5.45411">
        <ele>201</ele>
        <time>2012-09-21T14:48:45Z</time>
      </trkpt>
      <trkpt lat="47.05863" lon="5.45432">
        <ele>201</ele>
        <time>2012-09-21T14:48:47Z</time>
      </trkpt>
      <trkpt lat="47.0587" lon="5.45453">
        <ele>201</ele>
        <time>2012-09-21T14:48:49Z</time>
      </trkpt>
      <trkpt lat="47.05877" lon="5.45473">
        <ele>201</ele>
        <time>2012-09-21T14:48:51Z</time>
      </trkpt>
      <trkpt lat="47.05883" lon="5.45495">
        <ele>201</ele>
        <time>2012-09-21T14:48:53Z</time>
      </trkpt>
      <trkpt lat="47.0589" lon="5.45515">
        <ele>201</ele>
        <time>2012-09-21T14:48:55Z</time>
      </trkpt>
      <trkpt lat="47.05897" lon="5.45537">
        <ele>201</ele>
        <time>2012-09-21T14:48:57Z</time>
      </trkpt>
      <trkpt lat="47.05904" lon="5.45559">
        <ele>201</ele>
        <time>2012-09-21T14:48:59Z</time>
      </trkpt>
      <trkpt lat="47.0591" lon="5.4558">
        <ele>201</ele>
        <time>2012-09-21T14:49:01Z</time>
      </trkpt>
      <trkpt lat="47.05917" lon="5.45601">
        <ele>201</ele>
        <time>2012-09-21T14:49:03Z</time>
      </trkpt>
      <trkpt lat="47.05924" lon="5.45621">
        <ele>201</ele>
        <time>2012-09-21T14:49:05Z</time>
      </trkpt>
      <trkpt lat="47.05931" lon="5.45642">
        <ele>201</ele>
        <time>2012-09-21T14:49:07Z</time>
      </trkpt>
      <trkpt lat="47.05937" lon="5.45664">
        <ele>201</ele>
        <time>2012-09-21T14:49:09Z</time>
      </trkpt>
      <trkpt lat="47.05944" lon="5.45685">
        <ele>201</ele>
        <time>2012-09-21T14:49:11Z</time>
      </trkpt>
      <trkpt lat="47.05951" lon="5.45707">
        <ele>201</ele>
        <time>2012-09-21T14:49:13Z</time>
      </trkpt>
      <trkpt lat="47.05958" lon="5.45728">
        <ele>201</ele>
        <time>2012-09-21T14:49:15Z</time>
      </trkpt>
      <trkpt lat="47.05964" lon="5.45749">
        <ele>201</ele>
        <time>2012-09-21T14:49:17Z</time>
      </trkpt>
      <trkpt lat="47.05971" lon="5.45771">
        <ele>201</ele>
        <time>2012-09-21T14:49:19Z</time>
      </trkpt>
      <trkpt lat="47.05979" lon="5.45792">
        <ele>201</ele>
        <time>2012-09-21T14:49:21Z</time>
      </trkpt>
      <trkpt lat="47.05985" lon="5.45815">
        <ele>201</ele>
        <time>2012-09-21T14:49:23Z</time>
      </trkpt>
      <trkpt lat="47.05992" lon="5.45837">
        <ele>201</ele>
        <time>2012-09-21T14:49:25Z</time>
      </trkpt>
      <trkpt lat="47.05999" lon="5.45859">
        <ele>201</ele>
        <time>2012-09-21T14:49:27Z</time>
      </trkpt>
      <trkpt lat="47.06006" lon="5.4588">
        <ele>201</ele>
        <time>2012-09-21T14:49:29Z</time>
      </trkpt>
      <trkpt lat="47.06012" lon="5.45903">
        <ele>201</ele>
        <time>2012-09-21T14:49:31Z</time>
      </trkpt>
      <trkpt lat="47.06018" lon="5.45923">
        <ele>201</ele>
        <time>2012-09-21T14:49:33Z</time>
      </trkpt>
      <trkpt lat="47.06025" lon="5.45945">
        <ele>201</ele>
        <time>2012-09-21T14:49:35Z</time>
      </trkpt>
      <trkpt lat="47.06031" lon="5.45966">
        <ele>201</ele>
        <time>2012-09-21T14:49:37Z</time>
      </trkpt>
      <trkpt lat="47.06037" lon="5.45987">
        <ele>201</ele>
        <time>2012-09-21T14:49:39Z</time>
      </trkpt>
      <trkpt lat="47.06043" lon="5.46008">
        <ele>201</ele>
        <time>2012-09-21T14:49:41Z</time>
      </trkpt>
      <trkpt lat="47.06049" lon="5.46028">
        <ele>201</ele>
        <time>2012-09-21T14:49:43Z</time>
      </trkpt>
      <trkpt lat="47.06057" lon="5.46047">
        <ele>201</ele>
        <time>2012-09-21T14:49:45Z</time>
      </trkpt>
      <trkpt lat="47.06066" lon="5.46063">
        <ele>201</ele>
        <time>2012-09-21T14:49:47Z</time>
      </trkpt>
      <trkpt lat="47.06076" lon="5.46076">
        <ele>201</ele>
        <time>2012-09-21T14:49:49Z</time>
      </trkpt>
      <trkpt lat="47.06083" lon="5.46088">
        <ele>201</ele>
        <time>2012-09-21T14:49:51Z</time>
      </trkpt>
      <trkpt lat="47.06091" lon="5.46098">
        <ele>201</ele>
        <time>2012-09-21T14:49:53Z</time>
      </trkpt>
      <trkpt lat="47.061" lon="5.46107">
        <ele>201</ele>
        <time>2012-09-21T14:49:55Z</time>
      </trkpt>
      <trkpt lat="47.06113" lon="5.46112">
        <ele>207</ele>
        <time>2012-09-21T14:49:57Z</time>
      </trkpt>
      <trkpt lat="47.06126" lon="5.46118">
        <ele>207</ele>
        <time>2012-09-21T14:49:59Z</time>
      </trkpt>
      <trkpt lat="47.06139" lon="5.46128">
        <ele>207</ele>
        <time>2012-09-21T14:50:01Z</time>
      </trkpt>
      <trkpt lat="47.06152" lon="5.46138">
        <ele>207</ele>
        <time>2012-09-21T14:50:03Z</time>
      </trkpt>
      <trkpt lat="47.06166" lon="5.46148">
        <ele>207</ele>
        <time>2012-09-21T14:50:05Z</time>
      </trkpt>
      <trkpt lat="47.06179" lon="5.46157">
        <ele>207</ele>
        <time>2012-09-21T14:50:07Z</time>
      </trkpt>
      <trkpt lat="47.06192" lon="5.46166">
        <ele>207</ele>
        <time>2012-09-21T14:50:09Z</time>
      </trkpt>
      <trkpt lat="47.06206" lon="5.46175">
        <ele>207</ele>
        <time>2012-09-21T14:50:11Z</time>
      </trkpt>
      <trkpt lat="47.0622" lon="5.46182">
        <ele>207</ele>
        <time>2012-09-21T14:50:13Z</time>
      </trkpt>
      <trkpt lat="47.06235" lon="5.46189">
        <ele>207</ele>
        <time>2012-09-21T14:50:15Z</time>
      </trkpt>
      <trkpt lat="47.06248" lon="5.46199">
        <ele>207</ele>
        <time>2012-09-21T14:50:17Z</time>
      </trkpt>
      <trkpt lat="47.06262" lon="5.46209">
        <ele>207</ele>
        <time>2012-09-21T14:50:19Z</time>
      </trkpt>
      <trkpt lat="47.06276" lon="5.46219">
        <ele>207</ele>
        <time>2012-09-21T14:50:21Z</time>
      </trkpt>
      <trkpt lat="47.06289" lon="5.4623">
        <ele>207</ele>
        <time>2012-09-21T14:50:23Z</time>
      </trkpt>
      <trkpt lat="47.06302" lon="5.4624">
        <ele>207</ele>
        <time>2012-09-21T14:50:25Z</time>
      </trkpt>
      <trkpt lat="47.06316" lon="5.46249">
        <ele>207</ele>
        <time>2012-09-21T14:50:27Z</time>
      </trkpt>
      <trkpt lat="47.0633" lon="5.4626">
        <ele>207</ele>
        <time>2012-09-21T14:50:29Z</time>
      </trkpt>
      <trkpt lat="47.06343" lon="5.46273">
        <ele>207</ele>
        <time>2012-09-21T14:50:31Z</time>
      </trkpt>
      <trkpt lat="47.06355" lon="5.46286">
        <ele>207</ele>
        <time>2012-09-21T14:50:33Z</time>
      </trkpt>
      <trkpt lat="47.06369" lon="5.46299">
        <ele>207</ele>
        <time>2012-09-21T14:50:35Z</time>
      </trkpt>
      <trkpt lat="47.06382" lon="5.4631">
        <ele>207</ele>
        <time>2012-09-21T14:50:37Z</time>
      </trkpt>
      <trkpt lat="47.06397" lon="5.46321">
        <ele>207</ele>
        <time>2012-09-21T14:50:39Z</time>
      </trkpt>
      <trkpt lat="47.06411" lon="5.46332">
        <ele>207</ele>
        <time>2012-09-21T14:50:41Z</time>
      </trkpt>
      <trkpt lat="47.06425" lon="5.46343">
        <ele>207</ele>
        <time>2012-09-21T14:50:43Z</time>
      </trkpt>
      <trkpt lat="47.06439" lon="5.46354">
        <ele>207</ele>
        <time>2012-09-21T14:50:45Z</time>
      </trkpt>
      <trkpt lat="47.06453" lon="5.46364">
        <ele>207</ele>
        <time>2012-09-21T14:50:47Z</time>
      </trkpt>
      <trkpt lat="47.06467" lon="5.46375">
        <ele>207</ele>
        <time>2012-09-21T14:50:49Z</time>
      </trkpt>
      <trkpt lat="47.06481" lon="5.46386">
        <ele>207</ele>
        <time>2012-09-21T14:50:51Z</time>
      </trkpt>
      <trkpt lat="47.06494" lon="5.46396">
        <ele>207</ele>
        <time>2012-09-21T14:50:53Z</time>
      </trkpt>
      <trkpt lat="47.06508" lon="5.46406">
        <ele>207</ele>
        <time>2012-09-21T14:50:55Z</time>
      </trkpt>
      <trkpt lat="47.06522" lon="5.46416">
        <ele>207</ele>
        <time>2012-09-21T14:50:57Z</time>
      </trkpt>
      <trkpt lat="47.06535" lon="5.46427">
        <ele>207</ele>
        <time>2012-09-21T14:50:59Z</time>
      </trkpt>
      <trkpt lat="47.06548" lon="5.46438">
        <ele>212</ele>
        <time>2012-09-21T14:51:01Z</time>
      </trkpt>
      <trkpt lat="47.06562" lon="5.46449">
        <ele>212</ele>
        <time>2012-09-21T14:51:03Z</time>
      </trkpt>
      <trkpt lat="47.06575" lon="5.46461">
        <ele>212</ele>
        <time>2012-09-21T14:51:05Z</time>
      </trkpt>
      <trkpt lat="47.06589" lon="5.46471">
        <ele>212</ele>
        <time>2012-09-21T14:51:07Z</time>
      </trkpt>
      <trkpt lat="47.06604" lon="5.46483">
        <ele>212</ele>
        <time>2012-09-21T14:51:09Z</time>
      </trkpt>
      <trkpt lat="47.06619" lon="5.46495">
        <ele>212</ele>
        <time>2012-09-21T14:51:11Z</time>
      </trkpt>
      <trkpt lat="47.06633" lon="5.46505">
        <ele>212</ele>
        <time>2012-09-21T14:51:13Z</time>
      </trkpt>
      <trkpt lat="47.06648" lon="5.46517">
        <ele>212</ele>
        <time>2012-09-21T14:51:15Z</time>
      </trkpt>
      <trkpt lat="47.06663" lon="5.46529">
        <ele>212</ele>
        <time>2012-09-21T14:51:17Z</time>
      </trkpt>
      <trkpt lat="47.06678" lon="5.4654">
        <ele>212</ele>
        <time>2012-09-21T14:51:19Z</time>
      </trkpt>
      <trkpt lat="47.06692" lon="5.4655">
        <ele>212</ele>
        <time>2012-09-21T14:51:21Z</time>
      </trkpt>
      <trkpt lat="47.06707" lon="5.46563">
        <ele>212</ele>
        <time>2012-09-21T14:51:23Z</time>
      </trkpt>
      <trkpt lat="47.06721" lon="5.46575">
        <ele>212</ele>
        <time>2012-09-21T14:51:25Z</time>
      </trkpt>
      <trkpt lat="47.06736" lon="5.46586">
        <ele>212</ele>
        <time>2012-09-21T14:51:27Z</time>
      </trkpt>
      <trkpt lat="47.06749" lon="5.46596">
        <ele>212</ele>
        <time>2012-09-21T14:51:29Z</time>
      </trkpt>
      <trkpt lat="47.06764" lon="5.46607">
        <ele>212</ele>
        <time>2012-09-21T14:51:31Z</time>
      </trkpt>
      <trkpt lat="47.06779" lon="5.46617">
        <ele>212</ele>
        <time>2012-09-21T14:51:33Z</time>
      </trkpt>
      <trkpt lat="47.06794" lon="5.46623">
        <ele>212</ele>
        <time>2012-09-21T14:51:35Z</time>
      </trkpt>
      <trkpt lat="47.06807" lon="5.4663">
        <ele>212</ele>
        <time>2012-09-21T14:51:37Z</time>
      </trkpt>
      <trkpt lat="47.0682" lon="5.46638">
        <ele>212</ele>
        <time>2012-09-21T14:51:39Z</time>
      </trkpt>
      <trkpt lat="47.06834" lon="5.46648">
        <ele>212</ele>
        <time>2012-09-21T14:51:41Z</time>
      </trkpt>
      <trkpt lat="47.06846" lon="5.46658">
        <ele>212</ele>
        <time>2012-09-21T14:51:43Z</time>
      </trkpt>
      <trkpt lat="47.06859" lon="5.46669">
        <ele>212</ele>
        <time>2012-09-21T14:51:45Z</time>
      </trkpt>
      <trkpt lat="47.06872" lon="5.46679">
        <ele>212</ele>
        <time>2012-09-21T14:51:47Z</time>
      </trkpt>
      <trkpt lat="47.06886" lon="5.4669">
        <ele>212</ele>
        <time>2012-09-21T14:51:49Z</time>
      </trkpt>
      <trkpt lat="47.069" lon="5.467">
        <ele>212</ele>
        <time>2012-09-21T14:51:51Z</time>
      </trkpt>
      <trkpt lat="47.06915" lon="5.46712">
        <ele>212</ele>
        <time>2012-09-21T14:51:53Z</time>
      </trkpt>
      <trkpt lat="47.06929" lon="5.46723">
        <ele>212</ele>
        <time>2012-09-21T14:51:55Z</time>
      </trkpt>
      <trkpt lat="47.06943" lon="5.46734">
        <ele>212</ele>
        <time>2012-09-21T14:51:57Z</time>
      </trkpt>
      <trkpt lat="47.06958" lon="5.46745">
        <ele>212</ele>
        <time>2012-09-21T14:51:59Z</time>
      </trkpt>
      <trkpt lat="47.06972" lon="5.46757">
        <ele>212</ele>
        <time>2012-09-21T14:52:01Z</time>
      </trkpt>
      <trkpt lat="47.06986" lon="5.46769">
        <ele>212</ele>
        <time>2012-09-21T14:52:03Z</time>
      </trkpt>
      <trkpt lat="47.07" lon="5.4678">
        <ele>212</ele>
        <time>2012-09-21T14:52:05Z</time>
      </trkpt>
      <trkpt lat="47.07014" lon="5.46792">
        <ele>212</ele>
        <time>2012-09-21T14:52:07Z</time>
      </trkpt>
      <trkpt lat="47.07028" lon="5.46803">
        <ele>212</ele>
        <time>2012-09-21T14:52:09Z</time>
      </trkpt>
      <trkpt lat="47.07042" lon="5.46814">
        <ele>212</ele>
        <time>2012-09-21T14:52:11Z</time>
      </trkpt>
      <trkpt lat="47.07055" lon="5.46823">
        <ele>212</ele>
        <time>2012-09-21T14:52:13Z</time>
      </trkpt>
      <trkpt lat="47.07069" lon="5.46835">
        <ele>212</ele>
        <time>2012-09-21T14:52:15Z</time>
      </trkpt>
      <trkpt lat="47.07083" lon="5.46846">
        <ele>212</ele>
        <time>2012-09-21T14:52:17Z</time>
      </trkpt>
      <trkpt lat="47.07098" lon="5.46857">
        <ele>212</ele>
        <time>2012-09-21T14:52:19Z</time>
      </trkpt>
      <trkpt lat="47.07111" lon="5.46867">
        <ele>212</ele>
        <time>2012-09-21T14:52:21Z</time>
      </trkpt>
      <trkpt lat="47.07125" lon="5.46878">
        <ele>212</ele>
        <time>2012-09-21T14:52:23Z</time>
      </trkpt>
      <trkpt lat="47.07139" lon="5.4689">
        <ele>212</ele>
        <time>2012-09-21T14:52:25Z</time>
      </trkpt>
      <trkpt lat="47.07153" lon="5.46901">
        <ele>212</ele>
        <time>2012-09-21T14:52:27Z</time>
      </trkpt>
      <trkpt lat="47.07167" lon="5.46912">
        <ele>212</ele>
        <time>2012-09-21T14:52:29Z</time>
      </trkpt>
      <trkpt lat="47.07181" lon="5.46923">
        <ele>212</ele>
        <time>2012-09-21T14:52:31Z</time>
      </trkpt>
      <trkpt lat="47.07195" lon="5.46934">
        <ele>212</ele>
        <time>2012-09-21T14:52:33Z</time>
      </trkpt>
      <trkpt lat="47.07209" lon="5.46944">
        <ele>212</ele>
        <time>2012-09-21T14:52:35Z</time>
      </trkpt>
      <trkpt lat="47.07223" lon="5.46954">
        <ele>212</ele>
        <time>2012-09-21T14:52:37Z</time>
      </trkpt>
      <trkpt lat="47.07235" lon="5.46962">
        <ele>212</ele>
        <time>2012-09-21T14:52:39Z</time>
      </trkpt>
      <trkpt lat="47.07245" lon="5.46971">
        <ele>212</ele>
        <time>2012-09-21T14:52:41Z</time>
      </trkpt>
      <trkpt lat="47.07255" lon="5.4698">
        <ele>212</ele>
        <time>2012-09-21T14:52:43Z</time>
      </trkpt>
      <trkpt lat="47.07263" lon="5.46987">
        <ele>212</ele>
        <time>2012-09-21T14:52:45Z</time>
      </trkpt>
      <trkpt lat="47.07274" lon="5.46994">
        <ele>212</ele>
        <time>2012-09-21T14:52:48Z</time>
      </trkpt>
      <trkpt lat="47.07282" lon="5.47005">
        <ele>212</ele>
        <time>2012-09-21T14:52:50Z</time>
      </trkpt>
      <trkpt lat="47.07291" lon="5.47021">
        <ele>212</ele>
        <time>2012-09-21T14:52:52Z</time>
      </trkpt>
      <trkpt lat="47.07305" lon="5.47036">
        <ele>212</ele>
        <time>2012-09-21T14:52:54Z</time>
      </trkpt>
      <trkpt lat="47.0732" lon="5.47049">
        <ele>212</ele>
        <time>2012-09-21T14:52:56Z</time>
      </trkpt>
      <trkpt lat="47.07335" lon="5.47061">
        <ele>212</ele>
        <time>2012-09-21T14:52:58Z</time>
      </trkpt>
      <trkpt lat="47.07351" lon="5.47072">
        <ele>212</ele>
        <time>2012-09-21T14:53:00Z</time>
      </trkpt>
      <trkpt lat="47.07366" lon="5.47084">
        <ele>212</ele>
        <time>2012-09-21T14:53:02Z</time>
      </trkpt>
      <trkpt lat="47.0738" lon="5.47096">
        <ele>212</ele>
        <time>2012-09-21T14:53:04Z</time>
      </trkpt>
      <trkpt lat="47.07395" lon="5.47107">
        <ele>212</ele>
        <time>2012-09-21T14:53:06Z</time>
      </trkpt>
      <trkpt lat="47.07409" lon="5.47118">
        <ele>212</ele>
        <time>2012-09-21T14:53:08Z</time>
      </trkpt>
      <trkpt lat="47.07423" lon="5.47129">
        <ele>212</ele>
        <time>2012-09-21T14:53:10Z</time>
      </trkpt>
      <trkpt lat="47.07436" lon="5.47139">
        <ele>212</ele>
        <time>2012-09-21T14:53:12Z</time>
      </trkpt>
      <trkpt lat="47.07449" lon="5.47148">
        <ele>212</ele>
        <time>2012-09-21T14:53:14Z</time>
      </trkpt>
      <trkpt lat="47.07461" lon="5.47158">
        <ele>212</ele>
        <time>2012-09-21T14:53:16Z</time>
      </trkpt>
      <trkpt lat="47.07474" lon="5.47169">
        <ele>212</ele>
        <time>2012-09-21T14:53:18Z</time>
      </trkpt>
      <trkpt lat="47.07487" lon="5.47179">
        <ele>212</ele>
        <time>2012-09-21T14:53:20Z</time>
      </trkpt>
      <trkpt lat="47.075" lon="5.47188">
        <ele>212</ele>
        <time>2012-09-21T14:53:22Z</time>
      </trkpt>
      <trkpt lat="47.07513" lon="5.47198">
        <ele>217</ele>
        <time>2012-09-21T14:53:24Z</time>
      </trkpt>
      <trkpt lat="47.07526" lon="5.47209">
        <ele>217</ele>
        <time>2012-09-21T14:53:26Z</time>
      </trkpt>
      <trkpt lat="47.07539" lon="5.47219">
        <ele>217</ele>
        <time>2012-09-21T14:53:28Z</time>
      </trkpt>
      <trkpt lat="47.07552" lon="5.47228">
        <ele>217</ele>
        <time>2012-09-21T14:53:30Z</time>
      </trkpt>
      <trkpt lat="47.07564" lon="5.47238">
        <ele>217</ele>
        <time>2012-09-21T14:53:32Z</time>
      </trkpt>
      <trkpt lat="47.07576" lon="5.47247">
        <ele>217</ele>
        <time>2012-09-21T14:53:34Z</time>
      </trkpt>
      <trkpt lat="47.07587" lon="5.47259">
        <ele>217</ele>
        <time>2012-09-21T14:53:36Z</time>
      </trkpt>
      <trkpt lat="47.07597" lon="5.47272">
        <ele>217</ele>
        <time>2012-09-21T14:53:38Z</time>
      </trkpt>
      <trkpt lat="47.07608" lon="5.47286">
        <ele>217</ele>
        <time>2012-09-21T14:53:40Z</time>
      </trkpt>
      <trkpt lat="47.07618" lon="5.47302">
        <ele>217</ele>
        <time>2012-09-21T14:53:42Z</time>
      </trkpt>
      <trkpt lat="47.07628" lon="5.47318">
        <ele>217</ele>
        <time>2012-09-21T14:53:44Z</time>
      </trkpt>
      <trkpt lat="47.07638" lon="5.47335">
        <ele>217</ele>
        <time>2012-09-21T14:53:46Z</time>
      </trkpt>
      <trkpt lat="47.07647" lon="5.4735">
        <ele>217</ele>
        <time>2012-09-21T14:53:48Z</time>
      </trkpt>
      <trkpt lat="47.07658" lon="5.47365">
        <ele>212</ele>
        <time>2012-09-21T14:53:50Z</time>
      </trkpt>
      <trkpt lat="47.07668" lon="5.47381">
        <ele>212</ele>
        <time>2012-09-21T14:53:52Z</time>
      </trkpt>
      <trkpt lat="47.07678" lon="5.47397">
        <ele>212</ele>
        <time>2012-09-21T14:53:54Z</time>
      </trkpt>
      <trkpt lat="47.07687" lon="5.47414">
        <ele>212</ele>
        <time>2012-09-21T14:53:56Z</time>
      </trkpt>
      <trkpt lat="47.07698" lon="5.4743">
        <ele>212</ele>
        <time>2012-09-21T14:53:58Z</time>
      </trkpt>
      <trkpt lat="47.07708" lon="5.47446">
        <ele>212</ele>
        <time>2012-09-21T14:54:00Z</time>
      </trkpt>
      <trkpt lat="47.07717" lon="5.47461">
        <ele>212</ele>
        <time>2012-09-21T14:54:02Z</time>
      </trkpt>
      <trkpt lat="47.07728" lon="5.47477">
        <ele>212</ele>
        <time>2012-09-21T14:54:04Z</time>
      </trkpt>
      <trkpt lat="47.07739" lon="5.47493">
        <ele>212</ele>
        <time>2012-09-21T14:54:06Z</time>
      </trkpt>
      <trkpt lat="47.07749" lon="5.4751">
        <ele>212</ele>
        <time>2012-09-21T14:54:08Z</time>
      </trkpt>
      <trkpt lat="47.07759" lon="5.47526">
        <ele>212</ele>
        <time>2012-09-21T14:54:10Z</time>
      </trkpt>
      <trkpt lat="47.07769" lon="5.47541">
        <ele>212</ele>
        <time>2012-09-21T14:54:12Z</time>
      </trkpt>
      <trkpt lat="47.07779" lon="5.47557">
        <ele>212</ele>
        <time>2012-09-21T14:54:14Z</time>
      </trkpt>
      <trkpt lat="47.07789" lon="5.47573">
        <ele>212</ele>
        <time>2012-09-21T14:54:16Z</time>
      </trkpt>
      <trkpt lat="47.07798" lon="5.47588">
        <ele>212</ele>
        <time>2012-09-21T14:54:18Z</time>
      </trkpt>
      <trkpt lat="47.07807" lon="5.47602">
        <ele>212</ele>
        <time>2012-09-21T14:54:20Z</time>
      </trkpt>
      <trkpt lat="47.07816" lon="5.47617">
        <ele>212</ele>
        <time>2012-09-21T14:54:22Z</time>
      </trkpt>
      <trkpt lat="47.07825" lon="5.47632">
        <ele>212</ele>
        <time>2012-09-21T14:54:24Z</time>
      </trkpt>
      <trkpt lat="47.07834" lon="5.47645">
        <ele>212</ele>
        <time>2012-09-21T14:54:26Z</time>
      </trkpt>
      <trkpt lat="47.07842" lon="5.47659">
        <ele>212</ele>
        <time>2012-09-21T14:54:28Z</time>
      </trkpt>
      <trkpt lat="47.07851" lon="5.47671">
        <ele>212</ele>
        <time>2012-09-21T14:54:30Z</time>
      </trkpt>
      <trkpt lat="47.0786" lon="5.47683">
        <ele>212</ele>
        <time>2012-09-21T14:54:32Z</time>
      </trkpt>
      <trkpt lat="47.0787" lon="5.47695">
        <ele>212</ele>
        <time>2012-09-21T14:54:34Z</time>
      </trkpt>
      <trkpt lat="47.07878" lon="5.47707">
        <ele>212</ele>
        <time>2012-09-21T14:54:36Z</time>
      </trkpt>
      <trkpt lat="47.07886" lon="5.47721">
        <ele>212</ele>
        <time>2012-09-21T14:54:38Z</time>
      </trkpt>
      <trkpt lat="47.07894" lon="5.47733">
        <ele>212</ele>
        <time>2012-09-21T14:54:40Z</time>
      </trkpt>
      <trkpt lat="47.07901" lon="5.47745">
        <ele>212</ele>
        <time>2012-09-21T14:54:42Z</time>
      </trkpt>
      <trkpt lat="47.07909" lon="5.47758">
        <ele>212</ele>
        <time>2012-09-21T14:54:44Z</time>
      </trkpt>
      <trkpt lat="47.07918" lon="5.47771">
        <ele>212</ele>
        <time>2012-09-21T14:54:46Z</time>
      </trkpt>
      <trkpt lat="47.07926" lon="5.47785">
        <ele>212</ele>
        <time>2012-09-21T14:54:48Z</time>
      </trkpt>
      <trkpt lat="47.07934" lon="5.47797">
        <ele>212</ele>
        <time>2012-09-21T14:54:50Z</time>
      </trkpt>
      <trkpt lat="47.07943" lon="5.47812">
        <ele>212</ele>
        <time>2012-09-21T14:54:52Z</time>
      </trkpt>
      <trkpt lat="47.07951" lon="5.47824">
        <ele>212</ele>
        <time>2012-09-21T14:54:54Z</time>
      </trkpt>
      <trkpt lat="47.07959" lon="5.47837">
        <ele>212</ele>
        <time>2012-09-21T14:54:56Z</time>
      </trkpt>
      <trkpt lat="47.07967" lon="5.47849">
        <ele>212</ele>
        <time>2012-09-21T14:54:58Z</time>
      </trkpt>
      <trkpt lat="47.07974" lon="5.47862">
        <ele>212</ele>
        <time>2012-09-21T14:55:00Z</time>
      </trkpt>
      <trkpt lat="47.07982" lon="5.47874">
        <ele>212</ele>
        <time>2012-09-21T14:55:02Z</time>
      </trkpt>
      <trkpt lat="47.0799" lon="5.47886">
        <ele>212</ele>
        <time>2012-09-21T14:55:04Z</time>
      </trkpt>
      <trkpt lat="47.07999" lon="5.47901">
        <ele>212</ele>
        <time>2012-09-21T14:55:06Z</time>
      </trkpt>
      <trkpt lat="47.08007" lon="5.47915">
        <ele>212</ele>
        <time>2012-09-21T14:55:08Z</time>
      </trkpt>
      <trkpt lat="47.08015" lon="5.47928">
        <ele>212</ele>
        <time>2012-09-21T14:55:10Z</time>
      </trkpt>
      <trkpt lat="47.08022" lon="5.4794">
        <ele>212</ele>
        <time>2012-09-21T14:55:12Z</time>
      </trkpt>
      <trkpt lat="47.0803" lon="5.47953">
        <ele>212</ele>
        <time>2012-09-21T14:55:14Z</time>
      </trkpt>
      <trkpt lat="47.08038" lon="5.47963">
        <ele>212</ele>
        <time>2012-09-21T14:55:16Z</time>
      </trkpt>
      <trkpt lat="47.08048" lon="5.47972">
        <ele>212</ele>
        <time>2012-09-21T14:55:18Z</time>
      </trkpt>
      <trkpt lat="47.08057" lon="5.47981">
        <ele>212</ele>
        <time>2012-09-21T14:55:20Z</time>
      </trkpt>
      <trkpt lat="47.08068" lon="5.4799">
        <ele>212</ele>
        <time>2012-09-21T14:55:22Z</time>
      </trkpt>
      <trkpt lat="47.08079" lon="5.47999">
        <ele>212</ele>
        <time>2012-09-21T14:55:24Z</time>
      </trkpt>
      <trkpt lat="47.08089" lon="5.48009">
        <ele>212</ele>
        <time>2012-09-21T14:55:26Z</time>
      </trkpt>
      <trkpt lat="47.08098" lon="5.48019">
        <ele>212</ele>
        <time>2012-09-21T14:55:28Z</time>
      </trkpt>
      <trkpt lat="47.08108" lon="5.48027">
        <ele>212</ele>
        <time>2012-09-21T14:55:30Z</time>
      </trkpt>
      <trkpt lat="47.08117" lon="5.48037">
        <ele>212</ele>
        <time>2012-09-21T14:55:32Z</time>
      </trkpt>
      <trkpt lat="47.08125" lon="5.48047">
        <ele>212</ele>
        <time>2012-09-21T14:55:34Z</time>
      </trkpt>
      <trkpt lat="47.08135" lon="5.48058">
        <ele>212</ele>
        <time>2012-09-21T14:55:36Z</time>
      </trkpt>
      <trkpt lat="47.08143" lon="5.48068">
        <ele>212</ele>
        <time>2012-09-21T14:55:38Z</time>
      </trkpt>
      <trkpt lat="47.08152" lon="5.48078">
        <ele>212</ele>
        <time>2012-09-21T14:55:40Z</time>
      </trkpt>
      <trkpt lat="47.08161" lon="5.48089">
        <ele>212</ele>
        <time>2012-09-21T14:55:42Z</time>
      </trkpt>
      <trkpt lat="47.0817" lon="5.481">
        <ele>212</ele>
        <time>2012-09-21T14:55:44Z</time>
      </trkpt>
      <trkpt lat="47.08179" lon="5.4811">
        <ele>212</ele>
        <time>2012-09-21T14:55:46Z</time>
      </trkpt>
      <trkpt lat="47.08189" lon="5.48123">
        <ele>212</ele>
        <time>2012-09-21T14:55:48Z</time>
      </trkpt>
      <trkpt lat="47.08197" lon="5.48136">
        <ele>212</ele>
        <time>2012-09-21T14:55:50Z</time>
      </trkpt>
      <trkpt lat="47.08205" lon="5.48148">
        <ele>212</ele>
        <time>2012-09-21T14:55:52Z</time>
      </trkpt>
      <trkpt lat="47.08213" lon="5.48162">
        <ele>212</ele>
        <time>2012-09-21T14:55:54Z</time>
      </trkpt>
      <trkpt lat="47.08221" lon="5.48175">
        <ele>212</ele>
        <time>2012-09-21T14:55:56Z</time>
      </trkpt>
      <trkpt lat="47.08229" lon="5.48188">
        <ele>212</ele>
        <time>2012-09-21T14:55:58Z</time>
      </trkpt>
      <trkpt lat="47.08236" lon="5.48201">
        <ele>212</ele>
        <time>2012-09-21T14:56:00Z</time>
      </trkpt>
      <trkpt lat="47.08244" lon="5.48214">
        <ele>212</ele>
        <time>2012-09-21T14:56:02Z</time>
      </trkpt>
      <trkpt lat="47.08252" lon="5.48228">
        <ele>212</ele>
        <time>2012-09-21T14:56:04Z</time>
      </trkpt>
      <trkpt lat="47.08262" lon="5.48242">
        <ele>212</ele>
        <time>2012-09-21T14:56:06Z</time>
      </trkpt>
      <trkpt lat="47.0827" lon="5.48255">
        <ele>212</ele>
        <time>2012-09-21T14:56:08Z</time>
      </trkpt>
      <trkpt lat="47.08278" lon="5.48269">
        <ele>212</ele>
        <time>2012-09-21T14:56:10Z</time>
      </trkpt>
      <trkpt lat="47.08286" lon="5.4828">
        <ele>212</ele>
        <time>2012-09-21T14:56:12Z</time>
      </trkpt>
      <trkpt lat="47.08296" lon="5.4829">
        <ele>212</ele>
        <time>2012-09-21T14:56:14Z</time>
      </trkpt>
      <trkpt lat="47.08306" lon="5.48299">
        <ele>212</ele>
        <time>2012-09-21T14:56:16Z</time>
      </trkpt>
      <trkpt lat="47.08316" lon="5.48308">
        <ele>212</ele>
        <time>2012-09-21T14:56:18Z</time>
      </trkpt>
      <trkpt lat="47.08325" lon="5.48318">
        <ele>212</ele>
        <time>2012-09-21T14:56:20Z</time>
      </trkpt>
      <trkpt lat="47.08335" lon="5.48328">
        <ele>212</ele>
        <time>2012-09-21T14:56:22Z</time>
      </trkpt>
      <trkpt lat="47.08344" lon="5.48338">
        <ele>212</ele>
        <time>2012-09-21T14:56:24Z</time>
      </trkpt>
      <trkpt lat="47.08354" lon="5.48349">
        <ele>217</ele>
        <time>2012-09-21T14:56:26Z</time>
      </trkpt>
      <trkpt lat="47.08363" lon="5.4836">
        <ele>217</ele>
        <time>2012-09-21T14:56:28Z</time>
      </trkpt>
      <trkpt lat="47.08371" lon="5.48374">
        <ele>217</ele>
        <time>2012-09-21T14:56:30Z</time>
      </trkpt>
      <trkpt lat="47.08379" lon="5.48388">
        <ele>217</ele>
        <time>2012-09-21T14:56:32Z</time>
      </trkpt>
      <trkpt lat="47.08387" lon="5.48402">
        <ele>217</ele>
        <time>2012-09-21T14:56:34Z</time>
      </trkpt>
      <trkpt lat="47.08397" lon="5.48417">
        <ele>217</ele>
        <time>2012-09-21T14:56:36Z</time>
      </trkpt>
      <trkpt lat="47.08405" lon="5.48431">
        <ele>217</ele>
        <time>2012-09-21T14:56:38Z</time>
      </trkpt>
      <trkpt lat="47.08413" lon="5.48446">
        <ele>217</ele>
        <time>2012-09-21T14:56:40Z</time>
      </trkpt>
      <trkpt lat="47.08422" lon="5.4846">
        <ele>217</ele>
        <time>2012-09-21T14:56:42Z</time>
      </trkpt>
      <trkpt lat="47.08431" lon="5.48477">
        <ele>217</ele>
        <time>2012-09-21T14:56:44Z</time>
      </trkpt>
      <trkpt lat="47.0844" lon="5.4849">
        <ele>217</ele>
        <time>2012-09-21T14:56:46Z</time>
      </trkpt>
      <trkpt lat="47.08449" lon="5.48502">
        <ele>217</ele>
        <time>2012-09-21T14:56:48Z</time>
      </trkpt>
      <trkpt lat="47.08458" lon="5.48515">
        <ele>217</ele>
        <time>2012-09-21T14:56:50Z</time>
      </trkpt>
      <trkpt lat="47.08467" lon="5.48528">
        <ele>211</ele>
        <time>2012-09-21T14:56:52Z</time>
      </trkpt>
      <trkpt lat="47.08474" lon="5.48539">
        <ele>211</ele>
        <time>2012-09-21T14:56:54Z</time>
      </trkpt>
      <trkpt lat="47.08481" lon="5.48552">
        <ele>211</ele>
        <time>2012-09-21T14:56:56Z</time>
      </trkpt>
      <trkpt lat="47.08489" lon="5.48565">
        <ele>211</ele>
        <time>2012-09-21T14:56:58Z</time>
      </trkpt>
      <trkpt lat="47.08497" lon="5.48578">
        <ele>211</ele>
        <time>2012-09-21T14:57:00Z</time>
      </trkpt>
      <trkpt lat="47.08505" lon="5.48591">
        <ele>211</ele>
        <time>2012-09-21T14:57:02Z</time>
      </trkpt>
      <trkpt lat="47.08512" lon="5.48603">
        <ele>211</ele>
        <time>2012-09-21T14:57:04Z</time>
      </trkpt>
      <trkpt lat="47.08519" lon="5.48612">
        <ele>211</ele>
        <time>2012-09-21T14:57:06Z</time>
      </trkpt>
      <trkpt lat="47.08532" lon="5.48612">
        <ele>211</ele>
        <time>2012-09-21T14:57:09Z</time>
      </trkpt>
      <trkpt lat="47.08543" lon="5.48601">
        <ele>211</ele>
        <time>2012-09-21T14:57:12Z</time>
      </trkpt>
      <trkpt lat="47.08553" lon="5.48592">
        <ele>211</ele>
        <time>2012-09-21T14:57:15Z</time>
      </trkpt>
      <trkpt lat="47.08562" lon="5.48583">
        <ele>211</ele>
        <time>2012-09-21T14:57:18Z</time>
      </trkpt>
      <trkpt lat="47.08571" lon="5.48579">
        <ele>211</ele>
        <time>2012-09-21T14:57:21Z</time>
      </trkpt>
      <trkpt lat="47.0858" lon="5.48575">
        <ele>211</ele>
        <time>2012-09-21T14:57:24Z</time>
      </trkpt>
      <trkpt lat="47.08591" lon="5.48569">
        <ele>217</ele>
        <time>2012-09-21T14:57:28Z</time>
      </trkpt>
      <trkpt lat="47.08601" lon="5.48567">
        <ele>217</ele>
        <time>2012-09-21T14:57:31Z</time>
      </trkpt>
      <trkpt lat="47.0861" lon="5.48563">
        <ele>217</ele>
        <time>2012-09-21T14:57:34Z</time>
      </trkpt>
      <trkpt lat="47.08619" lon="5.48558">
        <ele>217</ele>
        <time>2012-09-21T14:57:37Z</time>
      </trkpt>
      <trkpt lat="47.08628" lon="5.48552">
        <ele>217</ele>
        <time>2012-09-21T14:57:40Z</time>
      </trkpt>
      <trkpt lat="47.08637" lon="5.48544">
        <ele>217</ele>
        <time>2012-09-21T14:57:43Z</time>
      </trkpt>
      <trkpt lat="47.08643" lon="5.48532">
        <ele>217</ele>
        <time>2012-09-21T14:57:46Z</time>
      </trkpt>
      <trkpt lat="47.08647" lon="5.48519">
        <ele>217</ele>
        <time>2012-09-21T14:57:49Z</time>
      </trkpt>
      <trkpt lat="47.08651" lon="5.48507">
        <ele>217</ele>
        <time>2012-09-21T14:57:52Z</time>
      </trkpt>
      <trkpt lat="47.08654" lon="5.48494">
        <ele>217</ele>
        <time>2012-09-21T14:57:55Z</time>
      </trkpt>
      <trkpt lat="47.08659" lon="5.48479">
        <ele>217</ele>
        <time>2012-09-21T14:57:59Z</time>
      </trkpt>
      <trkpt lat="47.08663" lon="5.48465">
        <ele>217</ele>
        <time>2012-09-21T14:58:03Z</time>
      </trkpt>
      <trkpt lat="47.08667" lon="5.4845">
        <ele>217</ele>
        <time>2012-09-21T14:58:07Z</time>
      </trkpt>
      <trkpt lat="47.0867" lon="5.48438">
        <ele>217</ele>
        <time>2012-09-21T14:58:11Z</time>
      </trkpt>
      <trkpt lat="47.08678" lon="5.48431">
        <ele>226</ele>
        <time>2012-09-21T14:58:39Z</time>
      </trkpt>
      <trkpt lat="47.08686" lon="5.48444">
        <ele>226</ele>
        <time>2012-09-21T14:58:43Z</time>
      </trkpt>
      <trkpt lat="47.08695" lon="5.48457">
        <ele>226</ele>
        <time>2012-09-21T14:58:46Z</time>
      </trkpt>
      <trkpt lat="47.08701" lon="5.48466">
        <ele>226</ele>
        <time>2012-09-21T14:58:48Z</time>
      </trkpt>
      <trkpt lat="47.08707" lon="5.48476">
        <ele>226</ele>
        <time>2012-09-21T14:58:50Z</time>
      </trkpt>
      <trkpt lat="47.08714" lon="5.48486">
        <ele>226</ele>
        <time>2012-09-21T14:58:52Z</time>
      </trkpt>
      <trkpt lat="47.08721" lon="5.48496">
        <ele>226</ele>
        <time>2012-09-21T14:58:54Z</time>
      </trkpt>
      <trkpt lat="47.08727" lon="5.48506">
        <ele>226</ele>
        <time>2012-09-21T14:58:56Z</time>
      </trkpt>
      <trkpt lat="47.08734" lon="5.48516">
        <ele>226</ele>
        <time>2012-09-21T14:58:58Z</time>
      </trkpt>
      <trkpt lat="47.08743" lon="5.48531">
        <ele>226</ele>
        <time>2012-09-21T14:59:01Z</time>
      </trkpt>
      <trkpt lat="47.08749" lon="5.48543">
        <ele>226</ele>
        <time>2012-09-21T14:59:03Z</time>
      </trkpt>
      <trkpt lat="47.08756" lon="5.48552">
        <ele>232</ele>
        <time>2012-09-21T14:59:05Z</time>
      </trkpt>
      <trkpt lat="47.08763" lon="5.48562">
        <ele>232</ele>
        <time>2012-09-21T14:59:07Z</time>
      </trkpt>
      <trkpt lat="47.08769" lon="5.48572">
        <ele>232</ele>
        <time>2012-09-21T14:59:09Z</time>
      </trkpt>
      <trkpt lat="47.08776" lon="5.48583">
        <ele>232</ele>
        <time>2012-09-21T14:59:11Z</time>
      </trkpt>
      <trkpt lat="47.08783" lon="5.48594">
        <ele>232</ele>
        <time>2012-09-21T14:59:13Z</time>
      </trkpt>
      <trkpt lat="47.0879" lon="5.48604">
        <ele>232</ele>
        <time>2012-09-21T14:59:15Z</time>
      </trkpt>
      <trkpt lat="47.08797" lon="5.48615">
        <ele>232</ele>
        <time>2012-09-21T14:59:17Z</time>
      </trkpt>
      <trkpt lat="47.08804" lon="5.48626">
        <ele>232</ele>
        <time>2012-09-21T14:59:19Z</time>
      </trkpt>
      <trkpt lat="47.08811" lon="5.48637">
        <ele>232</ele>
        <time>2012-09-21T14:59:21Z</time>
      </trkpt>
      <trkpt lat="47.08818" lon="5.48646">
        <ele>232</ele>
        <time>2012-09-21T14:59:23Z</time>
      </trkpt>
      <trkpt lat="47.08826" lon="5.48653">
        <ele>232</ele>
        <time>2012-09-21T14:59:25Z</time>
      </trkpt>
      <trkpt lat="47.08835" lon="5.48651">
        <ele>232</ele>
        <time>2012-09-21T14:59:27Z</time>
      </trkpt>
      <trkpt lat="47.08844" lon="5.48643">
        <ele>232</ele>
        <time>2012-09-21T14:59:29Z</time>
      </trkpt>
      <trkpt lat="47.08852" lon="5.48634">
        <ele>232</ele>
        <time>2012-09-21T14:59:31Z</time>
      </trkpt>
      <trkpt lat="47.08861" lon="5.48624">
        <ele>232</ele>
        <time>2012-09-21T14:59:33Z</time>
      </trkpt>
      <trkpt lat="47.08868" lon="5.48616">
        <ele>232</ele>
        <time>2012-09-21T14:59:35Z</time>
      </trkpt>
      <trkpt lat="47.08876" lon="5.48607">
        <ele>232</ele>
        <time>2012-09-21T14:59:37Z</time>
      </trkpt>
      <trkpt lat="47.08886" lon="5.48594">
        <ele>232</ele>
        <time>2012-09-21T14:59:40Z</time>
      </trkpt>
      <trkpt lat="47.08896" lon="5.48582">
        <ele>232</ele>
        <time>2012-09-21T14:59:43Z</time>
      </trkpt>
      <trkpt lat="47.08905" lon="5.48571">
        <ele>232</ele>
        <time>2012-09-21T14:59:46Z</time>
      </trkpt>
      <trkpt lat="47.08915" lon="5.48558">
        <ele>232</ele>
        <time>2012-09-21T14:59:49Z</time>
      </trkpt>
      <trkpt lat="47.08924" lon="5.48546">
        <ele>232</ele>
        <time>2012-09-21T14:59:52Z</time>
      </trkpt>
      <trkpt lat="47.08934" lon="5.48535">
        <ele>232</ele>
        <time>2012-09-21T14:59:55Z</time>
      </trkpt>
      <trkpt lat="47.08943" lon="5.48523">
        <ele>232</ele>
        <time>2012-09-21T14:59:58Z</time>
      </trkpt>
      <trkpt lat="47.08951" lon="5.48513">
        <ele>232</ele>
        <time>2012-09-21T15:00:01Z</time>
      </trkpt>
      <trkpt lat="47.08959" lon="5.48503">
        <ele>232</ele>
        <time>2012-09-21T15:00:05Z</time>
      </trkpt>
      <trkpt lat="47.08965" lon="5.48492">
        <ele>232</ele>
        <time>2012-09-21T15:00:09Z</time>
      </trkpt>
      <trkpt lat="47.08972" lon="5.48482">
        <ele>232</ele>
        <time>2012-09-21T15:00:12Z</time>
      </trkpt>
    </trkseg>
  </trk>
</gpx>